<?xml version='1.0' encoding='UTF-8'?><gpx version="1.1" creator="JPX - https://github.com/jenetics/jpx" xmlns="http://www.topografix.com/GPX/1/1"><trk><trkseg><trkpt lat="45.6309983" lon="8.9105933"><ele>233.0</ele><time>2026-03-29T08:18:13.95Z</time></trkpt><trkpt lat="45.6310817" lon="8.9105533"><ele>233.0</ele><time>2026-03-29T08:18:16.95Z</time></trkpt><trkpt lat="45.631165" lon="8.9104933"><ele>233.0</ele><time>2026-03-29T08:18:19.949Z</time></trkpt><trkpt lat="45.63122" lon="8.9104333"><ele>233.0</ele><time>2026-03-29T08:18:21.95Z</time></trkpt><trkpt lat="45.6312733" lon="8.9103567"><ele>233.0</ele><time>2026-03-29T08:18:24.95Z</time></trkpt><trkpt lat="45.6313883" lon="8.9102333"><ele>234.33333333333334</ele><time>2026-03-29T08:18:28.95Z</time></trkpt><trkpt lat="45.631485" lon="8.910175"><ele>235.66666666666669</ele><time>2026-03-29T08:18:29.95Z</time></trkpt><trkpt lat="45.6315683" lon="8.9101117"><ele>237.0</ele><time>2026-03-29T08:18:30.949Z</time></trkpt><trkpt lat="45.631815" lon="8.9099483"><ele>237.0</ele><time>2026-03-29T08:18:33.95Z</time></trkpt><trkpt lat="45.631915" lon="8.9098867"><ele>237.0</ele><time>2026-03-29T08:18:34.95Z</time></trkpt><trkpt lat="45.6320067" lon="8.9098167"><ele>237.0</ele><time>2026-03-29T08:18:35.95Z</time></trkpt><trkpt lat="45.632155" lon="8.9097517"><ele>237.0</ele><time>2026-03-29T08:18:37.95Z</time></trkpt><trkpt lat="45.6322783" lon="8.9097017"><ele>237.6</ele><time>2026-03-29T08:18:41.95Z</time></trkpt><trkpt lat="45.6324017" lon="8.9096883"><ele>238.2</ele><time>2026-03-29T08:18:43.949Z</time></trkpt><trkpt lat="45.6325283" lon="8.9096417"><ele>238.8</ele><time>2026-03-29T08:18:45.95Z</time></trkpt><trkpt lat="45.632595" lon="8.909565"><ele>239.4</ele><time>2026-03-29T08:18:46.949Z</time></trkpt><trkpt lat="45.6326633" lon="8.909485"><ele>240.0</ele><time>2026-03-29T08:18:47.95Z</time></trkpt><trkpt lat="45.6327383" lon="8.9094117"><ele>239.5</ele><time>2026-03-29T08:18:48.95Z</time></trkpt><trkpt lat="45.63282" lon="8.9093533"><ele>239.0</ele><time>2026-03-29T08:18:49.95Z</time></trkpt><trkpt lat="45.632905" lon="8.9093033"><ele>238.5</ele><time>2026-03-29T08:18:50.95Z</time></trkpt><trkpt lat="45.633075" lon="8.9092083"><ele>238.0</ele><time>2026-03-29T08:18:52.95Z</time></trkpt><trkpt lat="45.6331667" lon="8.909155"><ele>238.0</ele><time>2026-03-29T08:18:53.949Z</time></trkpt><trkpt lat="45.6332683" lon="8.909095"><ele>238.0</ele><time>2026-03-29T08:18:54.949Z</time></trkpt><trkpt lat="45.6333733" lon="8.9090367"><ele>238.0</ele><time>2026-03-29T08:18:55.95Z</time></trkpt><trkpt lat="45.6335917" lon="8.9088983"><ele>238.33333333333331</ele><time>2026-03-29T08:18:57.95Z</time></trkpt><trkpt lat="45.6338467" lon="8.90874"><ele>238.66666666666669</ele><time>2026-03-29T08:18:59.95Z</time></trkpt><trkpt lat="45.63398" lon="8.9086533"><ele>239.0</ele><time>2026-03-29T08:19:00.95Z</time></trkpt><trkpt lat="45.634115" lon="8.90857"><ele>239.0</ele><time>2026-03-29T08:19:01.95Z</time></trkpt><trkpt lat="45.634255" lon="8.9084767"><ele>239.0</ele><time>2026-03-29T08:19:02.95Z</time></trkpt><trkpt lat="45.6343867" lon="8.9083983"><ele>239.0</ele><time>2026-03-29T08:19:03.95Z</time></trkpt><trkpt lat="45.634655" lon="8.9082317"><ele>239.33333333333334</ele><time>2026-03-29T08:19:05.95Z</time></trkpt><trkpt lat="45.6349117" lon="8.908085"><ele>239.66666666666669</ele><time>2026-03-29T08:19:07.949Z</time></trkpt><trkpt lat="45.6350367" lon="8.9080067"><ele>240.0</ele><time>2026-03-29T08:19:08.95Z</time></trkpt><trkpt lat="45.635165" lon="8.9079333"><ele>240.0</ele><time>2026-03-29T08:19:09.95Z</time></trkpt><trkpt lat="45.6352833" lon="8.9078567"><ele>240.0</ele><time>2026-03-29T08:19:10.95Z</time></trkpt><trkpt lat="45.6355017" lon="8.9077367"><ele>240.0</ele><time>2026-03-29T08:19:12.95Z</time></trkpt><trkpt lat="45.63572" lon="8.9076117"><ele>240.66666666666669</ele><time>2026-03-29T08:19:14.95Z</time></trkpt><trkpt lat="45.635965" lon="8.907475"><ele>241.33333333333334</ele><time>2026-03-29T08:19:16.95Z</time></trkpt><trkpt lat="45.63609" lon="8.90742"><ele>242.0</ele><time>2026-03-29T08:19:17.949Z</time></trkpt><trkpt lat="45.6362167" lon="8.9073667"><ele>242.75</ele><time>2026-03-29T08:19:18.95Z</time></trkpt><trkpt lat="45.6363433" lon="8.907315"><ele>243.5</ele><time>2026-03-29T08:19:19.95Z</time></trkpt><trkpt lat="45.6364767" lon="8.9072783"><ele>244.25</ele><time>2026-03-29T08:19:20.95Z</time></trkpt><trkpt lat="45.6365933" lon="8.9072383"><ele>245.0</ele><time>2026-03-29T08:19:21.95Z</time></trkpt><trkpt lat="45.6367183" lon="8.9072033"><ele>245.0</ele><time>2026-03-29T08:19:22.95Z</time></trkpt><trkpt lat="45.6368467" lon="8.907165"><ele>245.0</ele><time>2026-03-29T08:19:23.95Z</time></trkpt><trkpt lat="45.6369617" lon="8.90714"><ele>245.0</ele><time>2026-03-29T08:19:24.95Z</time></trkpt><trkpt lat="45.63706" lon="8.907115"><ele>245.0</ele><time>2026-03-29T08:19:25.95Z</time></trkpt><trkpt lat="45.637155" lon="8.9071017"><ele>245.0</ele><time>2026-03-29T08:19:26.949Z</time></trkpt><trkpt lat="45.6372317" lon="8.90708"><ele>244.66666666666669</ele><time>2026-03-29T08:19:27.95Z</time></trkpt><trkpt lat="45.6373133" lon="8.90707"><ele>244.33333333333334</ele><time>2026-03-29T08:19:29.95Z</time></trkpt><trkpt lat="45.6373967" lon="8.907045"><ele>244.0</ele><time>2026-03-29T08:19:34.95Z</time></trkpt><trkpt lat="45.6374667" lon="8.9070467"><ele>243.66666666666669</ele><time>2026-03-29T08:19:36.95Z</time></trkpt><trkpt lat="45.63755" lon="8.9070667"><ele>243.33333333333334</ele><time>2026-03-29T08:19:38.95Z</time></trkpt><trkpt lat="45.6376183" lon="8.9071117"><ele>243.0</ele><time>2026-03-29T08:19:39.95Z</time></trkpt><trkpt lat="45.6377017" lon="8.9071617"><ele>243.0</ele><time>2026-03-29T08:19:40.95Z</time></trkpt><trkpt lat="45.63778" lon="8.9072033"><ele>243.0</ele><time>2026-03-29T08:19:41.95Z</time></trkpt><trkpt lat="45.6378733" lon="8.90724"><ele>243.0</ele><time>2026-03-29T08:19:42.95Z</time></trkpt><trkpt lat="45.6379467" lon="8.9073017"><ele>243.0</ele><time>2026-03-29T08:19:43.95Z</time></trkpt><trkpt lat="45.6380117" lon="8.9073717"><ele>243.0</ele><time>2026-03-29T08:19:44.949Z</time></trkpt><trkpt lat="45.6380617" lon="8.9074767"><ele>243.0</ele><time>2026-03-29T08:19:45.95Z</time></trkpt><trkpt lat="45.6381017" lon="8.9075667"><ele>242.71428571428572</ele><time>2026-03-29T08:19:46.95Z</time></trkpt><trkpt lat="45.6381533" lon="8.9076333"><ele>242.42857142857144</ele><time>2026-03-29T08:19:47.95Z</time></trkpt><trkpt lat="45.6382183" lon="8.9076717"><ele>242.14285714285717</ele><time>2026-03-29T08:19:48.95Z</time></trkpt><trkpt lat="45.6382817" lon="8.907665"><ele>241.85714285714286</ele><time>2026-03-29T08:19:49.949Z</time></trkpt><trkpt lat="45.6383367" lon="8.907605"><ele>241.5714285714286</ele><time>2026-03-29T08:19:50.95Z</time></trkpt><trkpt lat="45.63837" lon="8.9075117"><ele>241.2857142857143</ele><time>2026-03-29T08:19:51.95Z</time></trkpt><trkpt lat="45.6383733" lon="8.9074033"><ele>241.0</ele><time>2026-03-29T08:19:52.95Z</time></trkpt><trkpt lat="45.6383433" lon="8.9073167"><ele>241.0</ele><time>2026-03-29T08:19:53.95Z</time></trkpt><trkpt lat="45.63828" lon="8.9072517"><ele>241.00000000000003</ele><time>2026-03-29T08:19:54.95Z</time></trkpt><trkpt lat="45.6381883" lon="8.907205"><ele>241.00000000000003</ele><time>2026-03-29T08:19:55.95Z</time></trkpt><trkpt lat="45.638095" lon="8.90716"><ele>241.0</ele><time>2026-03-29T08:19:56.95Z</time></trkpt><trkpt lat="45.6380017" lon="8.90709"><ele>241.0</ele><time>2026-03-29T08:19:57.95Z</time></trkpt><trkpt lat="45.6379233" lon="8.906995"><ele>240.99999999999997</ele><time>2026-03-29T08:19:58.95Z</time></trkpt><trkpt lat="45.6378667" lon="8.90689"><ele>241.0</ele><time>2026-03-29T08:19:59.95Z</time></trkpt><trkpt lat="45.6378217" lon="8.9067933"><ele>241.0</ele><time>2026-03-29T08:20:00.949Z</time></trkpt><trkpt lat="45.6377683" lon="8.9067417"><ele>241.0</ele><time>2026-03-29T08:20:01.95Z</time></trkpt><trkpt lat="45.637695" lon="8.90673"><ele>240.99999999999997</ele><time>2026-03-29T08:20:02.95Z</time></trkpt><trkpt lat="45.6376317" lon="8.9067667"><ele>241.0</ele><time>2026-03-29T08:20:03.95Z</time></trkpt><trkpt lat="45.6375633" lon="8.9068333"><ele>241.5</ele><time>2026-03-29T08:20:04.95Z</time></trkpt><trkpt lat="45.6374617" lon="8.90691"><ele>242.0</ele><time>2026-03-29T08:20:05.95Z</time></trkpt><trkpt lat="45.6373333" lon="8.9069717"><ele>242.5</ele><time>2026-03-29T08:20:06.95Z</time></trkpt><trkpt lat="45.6371933" lon="8.9070117"><ele>243.0</ele><time>2026-03-29T08:20:07.95Z</time></trkpt><trkpt lat="45.6370533" lon="8.907045"><ele>243.66666666666669</ele><time>2026-03-29T08:20:08.95Z</time></trkpt><trkpt lat="45.6369083" lon="8.90709"><ele>244.33333333333334</ele><time>2026-03-29T08:20:09.95Z</time></trkpt><trkpt lat="45.6367517" lon="8.9071283"><ele>245.0</ele><time>2026-03-29T08:20:10.95Z</time></trkpt><trkpt lat="45.6365833" lon="8.9071717"><ele>245.0</ele><time>2026-03-29T08:20:11.95Z</time></trkpt><trkpt lat="45.6364183" lon="8.90722"><ele>245.0</ele><time>2026-03-29T08:20:12.95Z</time></trkpt><trkpt lat="45.6362483" lon="8.9072783"><ele>245.0</ele><time>2026-03-29T08:20:13.95Z</time></trkpt><trkpt lat="45.6360817" lon="8.9073517"><ele>244.33333333333334</ele><time>2026-03-29T08:20:14.95Z</time></trkpt><trkpt lat="45.6359133" lon="8.9074333"><ele>243.66666666666669</ele><time>2026-03-29T08:20:15.95Z</time></trkpt><trkpt lat="45.6357483" lon="8.9075317"><ele>243.0</ele><time>2026-03-29T08:20:16.95Z</time></trkpt><trkpt lat="45.63558" lon="8.907645"><ele>243.0</ele><time>2026-03-29T08:20:17.95Z</time></trkpt><trkpt lat="45.6354083" lon="8.9077567"><ele>243.0</ele><time>2026-03-29T08:20:18.95Z</time></trkpt><trkpt lat="45.6352267" lon="8.9078717"><ele>243.0</ele><time>2026-03-29T08:20:19.95Z</time></trkpt><trkpt lat="45.6350517" lon="8.9079783"><ele>242.0</ele><time>2026-03-29T08:20:20.95Z</time></trkpt><trkpt lat="45.6348733" lon="8.9080883"><ele>241.0</ele><time>2026-03-29T08:20:21.95Z</time></trkpt><trkpt lat="45.634695" lon="8.9081883"><ele>240.0</ele><time>2026-03-29T08:20:22.95Z</time></trkpt><trkpt lat="45.6345133" lon="8.9082867"><ele>239.66666666666669</ele><time>2026-03-29T08:20:23.949Z</time></trkpt><trkpt lat="45.6343367" lon="8.9083917"><ele>239.33333333333334</ele><time>2026-03-29T08:20:24.95Z</time></trkpt><trkpt lat="45.6341667" lon="8.908495"><ele>239.0</ele><time>2026-03-29T08:20:25.95Z</time></trkpt><trkpt lat="45.634" lon="8.9085967"><ele>239.0</ele><time>2026-03-29T08:20:26.95Z</time></trkpt><trkpt lat="45.63384" lon="8.9086933"><ele>239.0</ele><time>2026-03-29T08:20:27.95Z</time></trkpt><trkpt lat="45.6336883" lon="8.9087883"><ele>239.0</ele><time>2026-03-29T08:20:28.95Z</time></trkpt><trkpt lat="45.6335333" lon="8.9088783"><ele>238.75</ele><time>2026-03-29T08:20:29.95Z</time></trkpt><trkpt lat="45.6334017" lon="8.90896"><ele>238.5</ele><time>2026-03-29T08:20:30.95Z</time></trkpt><trkpt lat="45.63328" lon="8.9090283"><ele>238.25</ele><time>2026-03-29T08:20:31.949Z</time></trkpt><trkpt lat="45.6331683" lon="8.9091017"><ele>238.0</ele><time>2026-03-29T08:20:32.95Z</time></trkpt><trkpt lat="45.6330567" lon="8.9091617"><ele>238.0</ele><time>2026-03-29T08:20:33.949Z</time></trkpt><trkpt lat="45.6329517" lon="8.9092217"><ele>238.0</ele><time>2026-03-29T08:20:34.949Z</time></trkpt><trkpt lat="45.6328583" lon="8.9092783"><ele>238.0</ele><time>2026-03-29T08:20:35.95Z</time></trkpt><trkpt lat="45.63277" lon="8.909325"><ele>238.0</ele><time>2026-03-29T08:20:36.949Z</time></trkpt><trkpt lat="45.632685" lon="8.909345"><ele>238.0</ele><time>2026-03-29T08:20:37.949Z</time></trkpt><trkpt lat="45.6326017" lon="8.9093467"><ele>238.33333333333331</ele><time>2026-03-29T08:20:38.949Z</time></trkpt><trkpt lat="45.6325117" lon="8.9093283"><ele>238.66666666666666</ele><time>2026-03-29T08:20:39.949Z</time></trkpt><trkpt lat="45.6324283" lon="8.9093383"><ele>239.0</ele><time>2026-03-29T08:20:40.949Z</time></trkpt><trkpt lat="45.6323567" lon="8.909385"><ele>239.33333333333331</ele><time>2026-03-29T08:20:41.949Z</time></trkpt><trkpt lat="45.6322933" lon="8.90946"><ele>239.66666666666666</ele><time>2026-03-29T08:20:42.949Z</time></trkpt><trkpt lat="45.6322333" lon="8.9095467"><ele>240.0</ele><time>2026-03-29T08:20:43.948Z</time></trkpt><trkpt lat="45.6321567" lon="8.9096283"><ele>240.0</ele><time>2026-03-29T08:20:44.949Z</time></trkpt><trkpt lat="45.632065" lon="8.90971"><ele>240.0</ele><time>2026-03-29T08:20:45.949Z</time></trkpt><trkpt lat="45.6319617" lon="8.909785"><ele>240.0</ele><time>2026-03-29T08:20:46.949Z</time></trkpt><trkpt lat="45.6318533" lon="8.9098583"><ele>240.0</ele><time>2026-03-29T08:20:47.948Z</time></trkpt><trkpt lat="45.6317417" lon="8.9099333"><ele>240.0</ele><time>2026-03-29T08:20:48.948Z</time></trkpt><trkpt lat="45.63162" lon="8.910015"><ele>240.0</ele><time>2026-03-29T08:20:49.949Z</time></trkpt><trkpt lat="45.6314967" lon="8.910095"><ele>240.0</ele><time>2026-03-29T08:20:50.949Z</time></trkpt><trkpt lat="45.6313633" lon="8.910185"><ele>240.0</ele><time>2026-03-29T08:20:51.949Z</time></trkpt><trkpt lat="45.631225" lon="8.9102733"><ele>237.66666666666669</ele><time>2026-03-29T08:20:52.949Z</time></trkpt><trkpt lat="45.6310817" lon="8.9103567"><ele>235.33333333333334</ele><time>2026-03-29T08:20:53.948Z</time></trkpt><trkpt lat="45.630935" lon="8.91044"><ele>233.0</ele><time>2026-03-29T08:20:54.949Z</time></trkpt><trkpt lat="45.6307967" lon="8.9105283"><ele>233.0</ele><time>2026-03-29T08:20:55.948Z</time></trkpt><trkpt lat="45.63067" lon="8.9105933"><ele>233.0</ele><time>2026-03-29T08:20:56.949Z</time></trkpt><trkpt lat="45.6305467" lon="8.9106583"><ele>233.0</ele><time>2026-03-29T08:20:57.949Z</time></trkpt><trkpt lat="45.6304117" lon="8.9107233"><ele>233.0</ele><time>2026-03-29T08:20:58.949Z</time></trkpt><trkpt lat="45.630285" lon="8.9107933"><ele>232.5</ele><time>2026-03-29T08:20:59.949Z</time></trkpt><trkpt lat="45.630165" lon="8.9108733"><ele>232.0</ele><time>2026-03-29T08:21:00.949Z</time></trkpt><trkpt lat="45.6300483" lon="8.91095"><ele>231.5</ele><time>2026-03-29T08:21:01.949Z</time></trkpt><trkpt lat="45.6299333" lon="8.9110217"><ele>231.0</ele><time>2026-03-29T08:21:02.949Z</time></trkpt><trkpt lat="45.6298217" lon="8.9110883"><ele>231.20000000000002</ele><time>2026-03-29T08:21:03.949Z</time></trkpt><trkpt lat="45.6297167" lon="8.91115"><ele>231.40000000000003</ele><time>2026-03-29T08:21:04.949Z</time></trkpt><trkpt lat="45.6296233" lon="8.911205"><ele>231.6</ele><time>2026-03-29T08:21:05.949Z</time></trkpt><trkpt lat="45.62954" lon="8.911255"><ele>231.8</ele><time>2026-03-29T08:21:06.949Z</time></trkpt><trkpt lat="45.62946" lon="8.9112967"><ele>232.0</ele><time>2026-03-29T08:21:07.948Z</time></trkpt><trkpt lat="45.6293883" lon="8.911325"><ele>231.99999999999997</ele><time>2026-03-29T08:21:08.949Z</time></trkpt><trkpt lat="45.6293217" lon="8.9113467"><ele>232.0</ele><time>2026-03-29T08:21:09.949Z</time></trkpt><trkpt lat="45.6292517" lon="8.9113483"><ele>232.0</ele><time>2026-03-29T08:21:10.949Z</time></trkpt><trkpt lat="45.62917" lon="8.9113333"><ele>232.0</ele><time>2026-03-29T08:21:11.948Z</time></trkpt><trkpt lat="45.6290933" lon="8.9113233"><ele>231.99999999999997</ele><time>2026-03-29T08:21:12.949Z</time></trkpt><trkpt lat="45.6290083" lon="8.91133"><ele>232.0</ele><time>2026-03-29T08:21:13.949Z</time></trkpt><trkpt lat="45.6289333" lon="8.9113683"><ele>232.0</ele><time>2026-03-29T08:21:14.949Z</time></trkpt><trkpt lat="45.628865" lon="8.91142"><ele>232.0</ele><time>2026-03-29T08:21:15.949Z</time></trkpt><trkpt lat="45.6288217" lon="8.9115"><ele>232.0</ele><time>2026-03-29T08:21:16.949Z</time></trkpt><trkpt lat="45.6287683" lon="8.911605"><ele>232.0</ele><time>2026-03-29T08:21:17.948Z</time></trkpt><trkpt lat="45.6286983" lon="8.91171"><ele>232.0</ele><time>2026-03-29T08:21:18.949Z</time></trkpt><trkpt lat="45.6286033" lon="8.911795"><ele>232.5</ele><time>2026-03-29T08:21:19.949Z</time></trkpt><trkpt lat="45.6284883" lon="8.9118817"><ele>233.0</ele><time>2026-03-29T08:21:20.949Z</time></trkpt><trkpt lat="45.6283633" lon="8.9119567"><ele>233.5</ele><time>2026-03-29T08:21:21.949Z</time></trkpt><trkpt lat="45.6282417" lon="8.9120417"><ele>234.0</ele><time>2026-03-29T08:21:22.949Z</time></trkpt><trkpt lat="45.6281" lon="8.9121367"><ele>234.0</ele><time>2026-03-29T08:21:23.949Z</time></trkpt><trkpt lat="45.6279567" lon="8.9122367"><ele>234.0</ele><time>2026-03-29T08:21:24.948Z</time></trkpt><trkpt lat="45.6277967" lon="8.91234"><ele>234.0</ele><time>2026-03-29T08:21:25.949Z</time></trkpt><trkpt lat="45.6276283" lon="8.9124517"><ele>233.0</ele><time>2026-03-29T08:21:26.949Z</time></trkpt><trkpt lat="45.6274683" lon="8.9125617"><ele>232.0</ele><time>2026-03-29T08:21:27.948Z</time></trkpt><trkpt lat="45.6273083" lon="8.912675"><ele>231.0</ele><time>2026-03-29T08:21:28.948Z</time></trkpt><trkpt lat="45.6271517" lon="8.9127967"><ele>231.0</ele><time>2026-03-29T08:21:29.948Z</time></trkpt><trkpt lat="45.6269967" lon="8.91291"><ele>231.0</ele><time>2026-03-29T08:21:30.948Z</time></trkpt><trkpt lat="45.6268417" lon="8.91303"><ele>231.0</ele><time>2026-03-29T08:21:31.948Z</time></trkpt><trkpt lat="45.62669" lon="8.913155"><ele>230.66666666666669</ele><time>2026-03-29T08:21:32.949Z</time></trkpt><trkpt lat="45.6265367" lon="8.9132733"><ele>230.33333333333334</ele><time>2026-03-29T08:21:33.949Z</time></trkpt><trkpt lat="45.62638" lon="8.9133867"><ele>230.0</ele><time>2026-03-29T08:21:34.949Z</time></trkpt><trkpt lat="45.62622" lon="8.9134933"><ele>229.0</ele><time>2026-03-29T08:21:35.949Z</time></trkpt><trkpt lat="45.6260533" lon="8.913605"><ele>228.0</ele><time>2026-03-29T08:21:36.948Z</time></trkpt><trkpt lat="45.6258967" lon="8.9137167"><ele>227.0</ele><time>2026-03-29T08:21:37.949Z</time></trkpt><trkpt lat="45.6257433" lon="8.9138267"><ele>227.0</ele><time>2026-03-29T08:21:38.948Z</time></trkpt><trkpt lat="45.6255867" lon="8.913925"><ele>227.0</ele><time>2026-03-29T08:21:39.949Z</time></trkpt><trkpt lat="45.6254233" lon="8.9140067"><ele>227.0</ele><time>2026-03-29T08:21:40.949Z</time></trkpt><trkpt lat="45.6252433" lon="8.914065"><ele>226.66666666666669</ele><time>2026-03-29T08:21:41.949Z</time></trkpt><trkpt lat="45.625035" lon="8.9141267"><ele>226.33333333333331</ele><time>2026-03-29T08:21:42.948Z</time></trkpt><trkpt lat="45.6248683" lon="8.9141933"><ele>226.0</ele><time>2026-03-29T08:21:43.949Z</time></trkpt><trkpt lat="45.6246867" lon="8.9142433"><ele>227.0</ele><time>2026-03-29T08:21:44.949Z</time></trkpt><trkpt lat="45.624505" lon="8.9142817"><ele>228.0</ele><time>2026-03-29T08:21:45.949Z</time></trkpt><trkpt lat="45.6243267" lon="8.9143"><ele>229.0</ele><time>2026-03-29T08:21:46.949Z</time></trkpt><trkpt lat="45.6241567" lon="8.9143033"><ele>229.0</ele><time>2026-03-29T08:21:47.949Z</time></trkpt><trkpt lat="45.6240017" lon="8.9142617"><ele>229.0</ele><time>2026-03-29T08:21:48.949Z</time></trkpt><trkpt lat="45.6238583" lon="8.914185"><ele>229.0</ele><time>2026-03-29T08:21:49.949Z</time></trkpt><trkpt lat="45.6237333" lon="8.91408"><ele>228.0</ele><time>2026-03-29T08:21:50.949Z</time></trkpt><trkpt lat="45.623625" lon="8.9139783"><ele>227.0</ele><time>2026-03-29T08:21:51.949Z</time></trkpt><trkpt lat="45.6235317" lon="8.9138367"><ele>226.0</ele><time>2026-03-29T08:21:52.948Z</time></trkpt><trkpt lat="45.6234383" lon="8.91368"><ele>225.0</ele><time>2026-03-29T08:21:53.948Z</time></trkpt><trkpt lat="45.6233283" lon="8.9135217"><ele>225.0</ele><time>2026-03-29T08:21:54.949Z</time></trkpt><trkpt lat="45.62322" lon="8.9133467"><ele>225.0</ele><time>2026-03-29T08:21:55.949Z</time></trkpt><trkpt lat="45.6231033" lon="8.9131717"><ele>225.0</ele><time>2026-03-29T08:21:56.949Z</time></trkpt><trkpt lat="45.6229733" lon="8.913"><ele>225.0</ele><time>2026-03-29T08:21:57.949Z</time></trkpt><trkpt lat="45.62285" lon="8.9128267"><ele>225.0</ele><time>2026-03-29T08:21:58.949Z</time></trkpt><trkpt lat="45.6227267" lon="8.9126567"><ele>225.0</ele><time>2026-03-29T08:21:59.949Z</time></trkpt><trkpt lat="45.6226067" lon="8.9125033"><ele>224.5</ele><time>2026-03-29T08:22:00.949Z</time></trkpt><trkpt lat="45.6224967" lon="8.9123483"><ele>224.0</ele><time>2026-03-29T08:22:01.948Z</time></trkpt><trkpt lat="45.6223967" lon="8.9121917"><ele>223.5</ele><time>2026-03-29T08:22:02.949Z</time></trkpt><trkpt lat="45.6222917" lon="8.9120517"><ele>223.0</ele><time>2026-03-29T08:22:03.949Z</time></trkpt><trkpt lat="45.6222017" lon="8.911915"><ele>223.0</ele><time>2026-03-29T08:22:04.949Z</time></trkpt><trkpt lat="45.62211" lon="8.9117833"><ele>223.0</ele><time>2026-03-29T08:22:05.949Z</time></trkpt><trkpt lat="45.6220133" lon="8.911655"><ele>223.0</ele><time>2026-03-29T08:22:06.949Z</time></trkpt><trkpt lat="45.62192" lon="8.9115267"><ele>223.0</ele><time>2026-03-29T08:22:07.949Z</time></trkpt><trkpt lat="45.621835" lon="8.911405"><ele>223.2</ele><time>2026-03-29T08:22:08.949Z</time></trkpt><trkpt lat="45.621755" lon="8.911285"><ele>223.4</ele><time>2026-03-29T08:22:09.949Z</time></trkpt><trkpt lat="45.621675" lon="8.9111767"><ele>223.59999999999997</ele><time>2026-03-29T08:22:10.949Z</time></trkpt><trkpt lat="45.621595" lon="8.9110633"><ele>223.79999999999998</ele><time>2026-03-29T08:22:11.949Z</time></trkpt><trkpt lat="45.62153" lon="8.9109583"><ele>224.0</ele><time>2026-03-29T08:22:12.948Z</time></trkpt><trkpt lat="45.6214717" lon="8.9108433"><ele>224.2</ele><time>2026-03-29T08:22:13.949Z</time></trkpt><trkpt lat="45.6214217" lon="8.910725"><ele>224.39999999999998</ele><time>2026-03-29T08:22:14.949Z</time></trkpt><trkpt lat="45.621375" lon="8.9106183"><ele>224.6</ele><time>2026-03-29T08:22:15.949Z</time></trkpt><trkpt lat="45.6213233" lon="8.9105367"><ele>224.8</ele><time>2026-03-29T08:22:16.949Z</time></trkpt><trkpt lat="45.6212717" lon="8.9104633"><ele>225.0</ele><time>2026-03-29T08:22:17.949Z</time></trkpt><trkpt lat="45.6211567" lon="8.9104267"><ele>224.83333333333334</ele><time>2026-03-29T08:22:19.949Z</time></trkpt><trkpt lat="45.6210867" lon="8.9104617"><ele>224.66666666666669</ele><time>2026-03-29T08:22:20.949Z</time></trkpt><trkpt lat="45.6210333" lon="8.91053"><ele>224.5</ele><time>2026-03-29T08:22:21.949Z</time></trkpt><trkpt lat="45.6209967" lon="8.9106467"><ele>224.33333333333334</ele><time>2026-03-29T08:22:22.949Z</time></trkpt><trkpt lat="45.6209767" lon="8.9107667"><ele>224.16666666666669</ele><time>2026-03-29T08:22:23.948Z</time></trkpt><trkpt lat="45.6209533" lon="8.9108967"><ele>224.0</ele><time>2026-03-29T08:22:24.949Z</time></trkpt><trkpt lat="45.6209117" lon="8.9110167"><ele>223.6</ele><time>2026-03-29T08:22:25.949Z</time></trkpt><trkpt lat="45.6208617" lon="8.91114"><ele>223.2</ele><time>2026-03-29T08:22:26.949Z</time></trkpt><trkpt lat="45.6207983" lon="8.9112583"><ele>222.79999999999998</ele><time>2026-03-29T08:22:27.949Z</time></trkpt><trkpt lat="45.6207217" lon="8.9113883"><ele>222.39999999999998</ele><time>2026-03-29T08:22:28.949Z</time></trkpt><trkpt lat="45.6206383" lon="8.9115233"><ele>222.0</ele><time>2026-03-29T08:22:29.949Z</time></trkpt><trkpt lat="45.62055" lon="8.9116667"><ele>222.0</ele><time>2026-03-29T08:22:30.949Z</time></trkpt><trkpt lat="45.6204617" lon="8.9118133"><ele>222.0</ele><time>2026-03-29T08:22:31.949Z</time></trkpt><trkpt lat="45.62037" lon="8.911975"><ele>222.0</ele><time>2026-03-29T08:22:32.949Z</time></trkpt><trkpt lat="45.6202817" lon="8.9121433"><ele>222.0</ele><time>2026-03-29T08:22:33.949Z</time></trkpt><trkpt lat="45.6202067" lon="8.9123133"><ele>222.0</ele><time>2026-03-29T08:22:34.948Z</time></trkpt><trkpt lat="45.6201383" lon="8.9124917"><ele>222.0</ele><time>2026-03-29T08:22:35.949Z</time></trkpt><trkpt lat="45.6200833" lon="8.9126717"><ele>222.0</ele><time>2026-03-29T08:22:36.949Z</time></trkpt><trkpt lat="45.6200267" lon="8.9128683"><ele>222.0</ele><time>2026-03-29T08:22:37.949Z</time></trkpt><trkpt lat="45.6199817" lon="8.9130767"><ele>222.33333333333331</ele><time>2026-03-29T08:22:38.949Z</time></trkpt><trkpt lat="45.6199467" lon="8.9132883"><ele>222.66666666666666</ele><time>2026-03-29T08:22:39.948Z</time></trkpt><trkpt lat="45.6199117" lon="8.9135033"><ele>223.0</ele><time>2026-03-29T08:22:40.949Z</time></trkpt><trkpt lat="45.6198917" lon="8.9137283"><ele>223.0</ele><time>2026-03-29T08:22:41.949Z</time></trkpt><trkpt lat="45.619885" lon="8.913965"><ele>223.0</ele><time>2026-03-29T08:22:42.949Z</time></trkpt><trkpt lat="45.6198933" lon="8.914195"><ele>223.0</ele><time>2026-03-29T08:22:43.949Z</time></trkpt><trkpt lat="45.619905" lon="8.9144283"><ele>222.66666666666666</ele><time>2026-03-29T08:22:44.949Z</time></trkpt><trkpt lat="45.6199217" lon="8.91466"><ele>222.33333333333331</ele><time>2026-03-29T08:22:45.949Z</time></trkpt><trkpt lat="45.6199433" lon="8.9148783"><ele>222.0</ele><time>2026-03-29T08:22:46.949Z</time></trkpt><trkpt lat="45.6199617" lon="8.9151067"><ele>222.0</ele><time>2026-03-29T08:22:47.949Z</time></trkpt><trkpt lat="45.61998" lon="8.91534"><ele>222.0</ele><time>2026-03-29T08:22:48.948Z</time></trkpt><trkpt lat="45.62" lon="8.9155717"><ele>222.0</ele><time>2026-03-29T08:22:49.948Z</time></trkpt><trkpt lat="45.6200233" lon="8.9157967"><ele>223.66666666666669</ele><time>2026-03-29T08:22:50.949Z</time></trkpt><trkpt lat="45.6200433" lon="8.9160233"><ele>225.33333333333334</ele><time>2026-03-29T08:22:51.949Z</time></trkpt><trkpt lat="45.6200617" lon="8.9162467"><ele>227.0</ele><time>2026-03-29T08:22:52.948Z</time></trkpt><trkpt lat="45.6200783" lon="8.9164667"><ele>227.0</ele><time>2026-03-29T08:22:53.949Z</time></trkpt><trkpt lat="45.620095" lon="8.916695"><ele>227.0</ele><time>2026-03-29T08:22:54.949Z</time></trkpt><trkpt lat="45.620115" lon="8.9169233"><ele>227.0</ele><time>2026-03-29T08:22:55.949Z</time></trkpt><trkpt lat="45.6201333" lon="8.91716"><ele>228.0</ele><time>2026-03-29T08:22:56.949Z</time></trkpt><trkpt lat="45.6201483" lon="8.9173833"><ele>229.0</ele><time>2026-03-29T08:22:57.948Z</time></trkpt><trkpt lat="45.620165" lon="8.9176217"><ele>230.0</ele><time>2026-03-29T08:22:58.949Z</time></trkpt><trkpt lat="45.620185" lon="8.91786"><ele>231.0</ele><time>2026-03-29T08:22:59.949Z</time></trkpt><trkpt lat="45.6202033" lon="8.91811"><ele>232.0</ele><time>2026-03-29T08:23:00.949Z</time></trkpt><trkpt lat="45.6202183" lon="8.918355"><ele>233.0</ele><time>2026-03-29T08:23:01.949Z</time></trkpt><trkpt lat="45.6202367" lon="8.9186067"><ele>233.0</ele><time>2026-03-29T08:23:02.949Z</time></trkpt><trkpt lat="45.62026" lon="8.9188583"><ele>233.0</ele><time>2026-03-29T08:23:03.948Z</time></trkpt><trkpt lat="45.6202867" lon="8.9191033"><ele>233.0</ele><time>2026-03-29T08:23:04.949Z</time></trkpt><trkpt lat="45.6203083" lon="8.9193467"><ele>232.66666666666669</ele><time>2026-03-29T08:23:05.949Z</time></trkpt><trkpt lat="45.620325" lon="8.9195933"><ele>232.33333333333331</ele><time>2026-03-29T08:23:06.949Z</time></trkpt><trkpt lat="45.6203417" lon="8.91983"><ele>232.0</ele><time>2026-03-29T08:23:07.949Z</time></trkpt><trkpt lat="45.62036" lon="8.92006"><ele>231.66666666666666</ele><time>2026-03-29T08:23:08.949Z</time></trkpt><trkpt lat="45.620375" lon="8.92029"><ele>231.33333333333331</ele><time>2026-03-29T08:23:09.949Z</time></trkpt><trkpt lat="45.62039" lon="8.9205083"><ele>231.0</ele><time>2026-03-29T08:23:10.949Z</time></trkpt><trkpt lat="45.62041" lon="8.9207217"><ele>231.66666666666669</ele><time>2026-03-29T08:23:11.949Z</time></trkpt><trkpt lat="45.62043" lon="8.9209333"><ele>232.33333333333334</ele><time>2026-03-29T08:23:12.948Z</time></trkpt><trkpt lat="45.6204483" lon="8.9211483"><ele>233.0</ele><time>2026-03-29T08:23:13.949Z</time></trkpt><trkpt lat="45.6204683" lon="8.9213683"><ele>233.0</ele><time>2026-03-29T08:23:14.949Z</time></trkpt><trkpt lat="45.6204867" lon="8.921585"><ele>233.0</ele><time>2026-03-29T08:23:15.949Z</time></trkpt><trkpt lat="45.6205033" lon="8.92182"><ele>233.0</ele><time>2026-03-29T08:23:16.949Z</time></trkpt><trkpt lat="45.62052" lon="8.9220533"><ele>233.0</ele><time>2026-03-29T08:23:17.949Z</time></trkpt><trkpt lat="45.6205483" lon="8.9222617"><ele>233.0</ele><time>2026-03-29T08:23:18.949Z</time></trkpt><trkpt lat="45.62058" lon="8.9224683"><ele>233.0</ele><time>2026-03-29T08:23:19.949Z</time></trkpt><trkpt lat="45.6206167" lon="8.9226617"><ele>233.0</ele><time>2026-03-29T08:23:20.949Z</time></trkpt><trkpt lat="45.62066" lon="8.9228367"><ele>232.75</ele><time>2026-03-29T08:23:21.949Z</time></trkpt><trkpt lat="45.62071" lon="8.9230017"><ele>232.5</ele><time>2026-03-29T08:23:22.948Z</time></trkpt><trkpt lat="45.6207633" lon="8.9231617"><ele>232.25</ele><time>2026-03-29T08:23:23.949Z</time></trkpt><trkpt lat="45.6208117" lon="8.9232933"><ele>232.0</ele><time>2026-03-29T08:23:24.949Z</time></trkpt><trkpt lat="45.620855" lon="8.92342"><ele>231.99999999999997</ele><time>2026-03-29T08:23:25.949Z</time></trkpt><trkpt lat="45.6208967" lon="8.9235517"><ele>232.0</ele><time>2026-03-29T08:23:26.948Z</time></trkpt><trkpt lat="45.6209267" lon="8.9236783"><ele>232.0</ele><time>2026-03-29T08:23:27.949Z</time></trkpt><trkpt lat="45.62094" lon="8.9237817"><ele>232.0</ele><time>2026-03-29T08:23:28.949Z</time></trkpt><trkpt lat="45.620945" lon="8.9238767"><ele>231.99999999999997</ele><time>2026-03-29T08:23:29.949Z</time></trkpt><trkpt lat="45.620945" lon="8.92404"><ele>232.0</ele><time>2026-03-29T08:23:31.949Z</time></trkpt><trkpt lat="45.6209467" lon="8.92417"><ele>232.6</ele><time>2026-03-29T08:23:33.949Z</time></trkpt><trkpt lat="45.6209317" lon="8.9243267"><ele>233.2</ele><time>2026-03-29T08:23:44.949Z</time></trkpt><trkpt lat="45.6209067" lon="8.9244333"><ele>233.8</ele><time>2026-03-29T08:23:45.948Z</time></trkpt><trkpt lat="45.6208717" lon="8.9245617"><ele>234.4</ele><time>2026-03-29T08:23:46.949Z</time></trkpt><trkpt lat="45.6208283" lon="8.924695"><ele>235.0</ele><time>2026-03-29T08:23:47.949Z</time></trkpt><trkpt lat="45.6208" lon="8.9248183"><ele>235.0</ele><time>2026-03-29T08:23:48.949Z</time></trkpt><trkpt lat="45.620785" lon="8.9249683"><ele>235.0</ele><time>2026-03-29T08:23:49.949Z</time></trkpt><trkpt lat="45.62079" lon="8.9251567"><ele>235.0</ele><time>2026-03-29T08:23:50.949Z</time></trkpt><trkpt lat="45.6208" lon="8.9254067"><ele>235.0</ele><time>2026-03-29T08:23:51.948Z</time></trkpt><trkpt lat="45.62081" lon="8.92571"><ele>234.0</ele><time>2026-03-29T08:23:52.949Z</time></trkpt><trkpt lat="45.6208117" lon="8.9260217"><ele>233.0</ele><time>2026-03-29T08:23:53.949Z</time></trkpt><trkpt lat="45.62081" lon="8.9263433"><ele>232.0</ele><time>2026-03-29T08:23:54.949Z</time></trkpt><trkpt lat="45.6208117" lon="8.9266683"><ele>231.0</ele><time>2026-03-29T08:23:55.949Z</time></trkpt><trkpt lat="45.620815" lon="8.92701"><ele>230.0</ele><time>2026-03-29T08:23:56.949Z</time></trkpt><trkpt lat="45.620825" lon="8.9273233"><ele>231.0</ele><time>2026-03-29T08:23:57.949Z</time></trkpt><trkpt lat="45.6208433" lon="8.92762"><ele>232.0</ele><time>2026-03-29T08:23:58.949Z</time></trkpt><trkpt lat="45.62086" lon="8.9278933"><ele>233.0</ele><time>2026-03-29T08:23:59.949Z</time></trkpt><trkpt lat="45.6208683" lon="8.9281817"><ele>233.66666666666669</ele><time>2026-03-29T08:24:00.949Z</time></trkpt><trkpt lat="45.6208833" lon="8.928465"><ele>234.33333333333331</ele><time>2026-03-29T08:24:01.949Z</time></trkpt><trkpt lat="45.620895" lon="8.9287683"><ele>235.0</ele><time>2026-03-29T08:24:02.949Z</time></trkpt><trkpt lat="45.620915" lon="8.9291083"><ele>233.0</ele><time>2026-03-29T08:24:03.949Z</time></trkpt><trkpt lat="45.6209333" lon="8.92946"><ele>231.0</ele><time>2026-03-29T08:24:04.949Z</time></trkpt><trkpt lat="45.6209367" lon="8.9297867"><ele>231.33333333333331</ele><time>2026-03-29T08:24:05.948Z</time></trkpt><trkpt lat="45.62095" lon="8.9300683"><ele>231.66666666666666</ele><time>2026-03-29T08:24:06.949Z</time></trkpt><trkpt lat="45.6209833" lon="8.9303133"><ele>232.0</ele><time>2026-03-29T08:24:07.949Z</time></trkpt><trkpt lat="45.621045" lon="8.9305533"><ele>232.0</ele><time>2026-03-29T08:24:08.949Z</time></trkpt><trkpt lat="45.621135" lon="8.930795"><ele>232.0</ele><time>2026-03-29T08:24:09.949Z</time></trkpt><trkpt lat="45.6212333" lon="8.9310533"><ele>232.0</ele><time>2026-03-29T08:24:10.949Z</time></trkpt><trkpt lat="45.6213483" lon="8.931325"><ele>232.5</ele><time>2026-03-29T08:24:11.949Z</time></trkpt><trkpt lat="45.6214567" lon="8.931605"><ele>233.0</ele><time>2026-03-29T08:24:12.949Z</time></trkpt><trkpt lat="45.621565" lon="8.9319"><ele>231.5</ele><time>2026-03-29T08:24:13.949Z</time></trkpt><trkpt lat="45.6216717" lon="8.9322067"><ele>230.0</ele><time>2026-03-29T08:24:14.948Z</time></trkpt><trkpt lat="45.6217867" lon="8.932505"><ele>229.33333333333334</ele><time>2026-03-29T08:24:15.949Z</time></trkpt><trkpt lat="45.6219" lon="8.9327783"><ele>228.66666666666669</ele><time>2026-03-29T08:24:16.948Z</time></trkpt><trkpt lat="45.6220183" lon="8.93304"><ele>228.0</ele><time>2026-03-29T08:24:17.949Z</time></trkpt><trkpt lat="45.6221483" lon="8.9333033"><ele>228.5</ele><time>2026-03-29T08:24:18.949Z</time></trkpt><trkpt lat="45.6222817" lon="8.9335817"><ele>229.0</ele><time>2026-03-29T08:24:19.948Z</time></trkpt><trkpt lat="45.62241" lon="8.9338683"><ele>229.0</ele><time>2026-03-29T08:24:20.949Z</time></trkpt><trkpt lat="45.62253" lon="8.9341533"><ele>229.0</ele><time>2026-03-29T08:24:21.949Z</time></trkpt><trkpt lat="45.6226567" lon="8.9344417"><ele>229.0</ele><time>2026-03-29T08:24:22.949Z</time></trkpt><trkpt lat="45.622785" lon="8.9347333"><ele>229.0</ele><time>2026-03-29T08:24:23.948Z</time></trkpt><trkpt lat="45.6229133" lon="8.9350233"><ele>229.0</ele><time>2026-03-29T08:24:24.949Z</time></trkpt><trkpt lat="45.6230233" lon="8.93532"><ele>229.0</ele><time>2026-03-29T08:24:25.949Z</time></trkpt><trkpt lat="45.6231233" lon="8.9356283"><ele>230.0</ele><time>2026-03-29T08:24:26.949Z</time></trkpt><trkpt lat="45.6232267" lon="8.93593"><ele>231.0</ele><time>2026-03-29T08:24:27.949Z</time></trkpt><trkpt lat="45.62333" lon="8.9362233"><ele>231.0</ele><time>2026-03-29T08:24:28.948Z</time></trkpt><trkpt lat="45.6234283" lon="8.93649"><ele>231.0</ele><time>2026-03-29T08:24:29.949Z</time></trkpt><trkpt lat="45.62352" lon="8.9367083"><ele>231.0</ele><time>2026-03-29T08:24:30.948Z</time></trkpt><trkpt lat="45.6236033" lon="8.9369233"><ele>230.33333333333331</ele><time>2026-03-29T08:24:31.949Z</time></trkpt><trkpt lat="45.6236867" lon="8.937165"><ele>229.66666666666666</ele><time>2026-03-29T08:24:32.949Z</time></trkpt><trkpt lat="45.6237583" lon="8.9373817"><ele>229.0</ele><time>2026-03-29T08:24:33.949Z</time></trkpt><trkpt lat="45.6238283" lon="8.9375983"><ele>229.0</ele><time>2026-03-29T08:24:34.949Z</time></trkpt><trkpt lat="45.6239067" lon="8.9378183"><ele>229.0</ele><time>2026-03-29T08:24:35.948Z</time></trkpt><trkpt lat="45.623995" lon="8.9380317"><ele>229.0</ele><time>2026-03-29T08:24:36.949Z</time></trkpt><trkpt lat="45.624075" lon="8.9382217"><ele>229.0</ele><time>2026-03-29T08:24:37.948Z</time></trkpt><trkpt lat="45.62415" lon="8.9384067"><ele>229.0</ele><time>2026-03-29T08:24:38.949Z</time></trkpt><trkpt lat="45.62422" lon="8.938565"><ele>229.0</ele><time>2026-03-29T08:24:39.949Z</time></trkpt><trkpt lat="45.6242817" lon="8.9387083"><ele>229.0</ele><time>2026-03-29T08:24:40.949Z</time></trkpt><trkpt lat="45.6243333" lon="8.9388383"><ele>228.99999999999997</ele><time>2026-03-29T08:24:41.949Z</time></trkpt><trkpt lat="45.624385" lon="8.93894"><ele>229.0</ele><time>2026-03-29T08:24:42.949Z</time></trkpt><trkpt lat="45.6244217" lon="8.939025"><ele>229.0</ele><time>2026-03-29T08:24:43.949Z</time></trkpt><trkpt lat="45.62446" lon="8.9391117"><ele>229.0</ele><time>2026-03-29T08:24:44.949Z</time></trkpt><trkpt lat="45.6245217" lon="8.93923"><ele>228.99999999999997</ele><time>2026-03-29T08:24:46.949Z</time></trkpt><trkpt lat="45.6245517" lon="8.9393467"><ele>229.0</ele><time>2026-03-29T08:24:49.949Z</time></trkpt><trkpt lat="45.6245733" lon="8.9394517"><ele>229.33333333333331</ele><time>2026-03-29T08:24:55.949Z</time></trkpt><trkpt lat="45.6246133" lon="8.9395583"><ele>229.66666666666666</ele><time>2026-03-29T08:24:56.949Z</time></trkpt><trkpt lat="45.6246583" lon="8.9396767"><ele>230.0</ele><time>2026-03-29T08:24:57.949Z</time></trkpt><trkpt lat="45.6247033" lon="8.9397883"><ele>230.33333333333331</ele><time>2026-03-29T08:24:58.949Z</time></trkpt><trkpt lat="45.624745" lon="8.9399033"><ele>230.66666666666666</ele><time>2026-03-29T08:24:59.949Z</time></trkpt><trkpt lat="45.6247783" lon="8.9399883"><ele>231.0</ele><time>2026-03-29T08:25:00.949Z</time></trkpt><trkpt lat="45.6248217" lon="8.9401183"><ele>231.0</ele><time>2026-03-29T08:25:02.949Z</time></trkpt><trkpt lat="45.62487" lon="8.94024"><ele>231.00000000000003</ele><time>2026-03-29T08:25:04.949Z</time></trkpt><trkpt lat="45.62489" lon="8.9403967"><ele>231.00000000000003</ele><time>2026-03-29T08:25:06.949Z</time></trkpt><trkpt lat="45.6248567" lon="8.9405283"><ele>231.0</ele><time>2026-03-29T08:25:08.948Z</time></trkpt><trkpt lat="45.6247417" lon="8.9406483"><ele>231.0</ele><time>2026-03-29T08:25:10.949Z</time></trkpt><trkpt lat="45.624665" lon="8.9407167"><ele>231.0</ele><time>2026-03-29T08:25:11.949Z</time></trkpt><trkpt lat="45.624585" lon="8.94077"><ele>231.0</ele><time>2026-03-29T08:25:12.949Z</time></trkpt><trkpt lat="45.6245167" lon="8.9408283"><ele>231.0</ele><time>2026-03-29T08:25:13.949Z</time></trkpt><trkpt lat="45.624455" lon="8.9408867"><ele>231.0</ele><time>2026-03-29T08:25:14.947Z</time></trkpt><trkpt lat="45.6243833" lon="8.94094"><ele>231.0</ele><time>2026-03-29T08:25:15.947Z</time></trkpt><trkpt lat="45.62431" lon="8.9409733"><ele>231.0</ele><time>2026-03-29T08:25:16.948Z</time></trkpt><trkpt lat="45.624235" lon="8.9410217"><ele>230.66666666666666</ele><time>2026-03-29T08:25:17.948Z</time></trkpt><trkpt lat="45.6241533" lon="8.9410867"><ele>230.33333333333331</ele><time>2026-03-29T08:25:18.948Z</time></trkpt><trkpt lat="45.6240567" lon="8.9411767"><ele>230.0</ele><time>2026-03-29T08:25:19.948Z</time></trkpt><trkpt lat="45.6239933" lon="8.9412033"><ele>229.66666666666666</ele><time>2026-03-29T08:25:20.948Z</time></trkpt><trkpt lat="45.6239083" lon="8.9412583"><ele>229.33333333333331</ele><time>2026-03-29T08:25:22.948Z</time></trkpt><trkpt lat="45.6238467" lon="8.9413033"><ele>229.0</ele><time>2026-03-29T08:25:25.948Z</time></trkpt><trkpt lat="45.623785" lon="8.9413517"><ele>229.0</ele><time>2026-03-29T08:25:28.948Z</time></trkpt><trkpt lat="45.623685" lon="8.9414233"><ele>228.99999999999997</ele><time>2026-03-29T08:25:30.948Z</time></trkpt><trkpt lat="45.623605" lon="8.9414767"><ele>228.99999999999997</ele><time>2026-03-29T08:25:31.948Z</time></trkpt><trkpt lat="45.623505" lon="8.941535"><ele>229.0</ele><time>2026-03-29T08:25:32.948Z</time></trkpt><trkpt lat="45.6233883" lon="8.9416183"><ele>229.0</ele><time>2026-03-29T08:25:33.948Z</time></trkpt><trkpt lat="45.62325" lon="8.9417317"><ele>228.66666666666666</ele><time>2026-03-29T08:25:34.947Z</time></trkpt><trkpt lat="45.6231067" lon="8.9418583"><ele>228.33333333333331</ele><time>2026-03-29T08:25:35.948Z</time></trkpt><trkpt lat="45.6229833" lon="8.9420167"><ele>228.0</ele><time>2026-03-29T08:25:36.948Z</time></trkpt><trkpt lat="45.6228567" lon="8.9421783"><ele>227.66666666666669</ele><time>2026-03-29T08:25:37.948Z</time></trkpt><trkpt lat="45.6227267" lon="8.942345"><ele>227.33333333333334</ele><time>2026-03-29T08:25:38.948Z</time></trkpt><trkpt lat="45.6226017" lon="8.9425"><ele>227.0</ele><time>2026-03-29T08:25:39.948Z</time></trkpt><trkpt lat="45.6224783" lon="8.9426383"><ele>227.0</ele><time>2026-03-29T08:25:40.948Z</time></trkpt><trkpt lat="45.6223683" lon="8.9427667"><ele>227.0</ele><time>2026-03-29T08:25:41.948Z</time></trkpt><trkpt lat="45.622265" lon="8.9428733"><ele>227.0</ele><time>2026-03-29T08:25:42.948Z</time></trkpt><trkpt lat="45.622165" lon="8.9429633"><ele>227.0</ele><time>2026-03-29T08:25:43.948Z</time></trkpt><trkpt lat="45.6220783" lon="8.94304"><ele>227.0</ele><time>2026-03-29T08:25:44.948Z</time></trkpt><trkpt lat="45.6219867" lon="8.943105"><ele>227.0</ele><time>2026-03-29T08:25:45.948Z</time></trkpt><trkpt lat="45.6218883" lon="8.9431683"><ele>227.0</ele><time>2026-03-29T08:25:46.948Z</time></trkpt><trkpt lat="45.62179" lon="8.943215"><ele>227.0</ele><time>2026-03-29T08:25:47.948Z</time></trkpt><trkpt lat="45.621695" lon="8.9432783"><ele>227.0</ele><time>2026-03-29T08:25:48.948Z</time></trkpt><trkpt lat="45.6216083" lon="8.9433883"><ele>226.66666666666669</ele><time>2026-03-29T08:25:49.948Z</time></trkpt><trkpt lat="45.62151" lon="8.9435367"><ele>226.33333333333331</ele><time>2026-03-29T08:25:50.948Z</time></trkpt><trkpt lat="45.62139" lon="8.9436917"><ele>226.0</ele><time>2026-03-29T08:25:51.948Z</time></trkpt><trkpt lat="45.62125" lon="8.9438683"><ele>225.66666666666666</ele><time>2026-03-29T08:25:52.948Z</time></trkpt><trkpt lat="45.6211333" lon="8.9440417"><ele>225.33333333333331</ele><time>2026-03-29T08:25:53.947Z</time></trkpt><trkpt lat="45.6210233" lon="8.9442"><ele>225.0</ele><time>2026-03-29T08:25:54.948Z</time></trkpt><trkpt lat="45.6209083" lon="8.9443433"><ele>225.0</ele><time>2026-03-29T08:25:55.948Z</time></trkpt><trkpt lat="45.6208083" lon="8.9444633"><ele>225.0</ele><time>2026-03-29T08:25:56.947Z</time></trkpt><trkpt lat="45.620715" lon="8.944575"><ele>225.0</ele><time>2026-03-29T08:25:57.948Z</time></trkpt><trkpt lat="45.6206433" lon="8.944685"><ele>225.0</ele><time>2026-03-29T08:25:58.948Z</time></trkpt><trkpt lat="45.6205767" lon="8.9447617"><ele>225.0</ele><time>2026-03-29T08:25:59.948Z</time></trkpt><trkpt lat="45.6205117" lon="8.94482"><ele>225.0</ele><time>2026-03-29T08:26:00.948Z</time></trkpt><trkpt lat="45.6204583" lon="8.9448733"><ele>225.0</ele><time>2026-03-29T08:26:01.948Z</time></trkpt><trkpt lat="45.6203783" lon="8.94494"><ele>225.0</ele><time>2026-03-29T08:26:03.947Z</time></trkpt><trkpt lat="45.6203" lon="8.94482"><ele>225.0</ele><time>2026-03-29T08:26:05.948Z</time></trkpt><trkpt lat="45.6202517" lon="8.9446933"><ele>225.0</ele><time>2026-03-29T08:26:06.948Z</time></trkpt><trkpt lat="45.6201933" lon="8.9445367"><ele>225.0</ele><time>2026-03-29T08:26:07.947Z</time></trkpt><trkpt lat="45.620095" lon="8.9442967"><ele>225.0</ele><time>2026-03-29T08:26:08.948Z</time></trkpt><trkpt lat="45.620015" lon="8.944145"><ele>225.0</ele><time>2026-03-29T08:26:09.948Z</time></trkpt><trkpt lat="45.61995" lon="8.9440017"><ele>225.0</ele><time>2026-03-29T08:26:10.948Z</time></trkpt><trkpt lat="45.61989" lon="8.9438783"><ele>225.0</ele><time>2026-03-29T08:26:11.948Z</time></trkpt><trkpt lat="45.61984" lon="8.943775"><ele>225.0</ele><time>2026-03-29T08:26:12.948Z</time></trkpt><trkpt lat="45.6198" lon="8.9436967"><ele>225.0</ele><time>2026-03-29T08:26:13.948Z</time></trkpt><trkpt lat="45.619725" lon="8.9435867"><ele>225.0</ele><time>2026-03-29T08:26:15.948Z</time></trkpt><trkpt lat="45.6196433" lon="8.9435667"><ele>225.0</ele><time>2026-03-29T08:26:17.948Z</time></trkpt><trkpt lat="45.6195517" lon="8.943675"><ele>225.0</ele><time>2026-03-29T08:26:19.948Z</time></trkpt><trkpt lat="45.6194717" lon="8.943765"><ele>225.0</ele><time>2026-03-29T08:26:20.948Z</time></trkpt><trkpt lat="45.61939" lon="8.94387"><ele>225.0</ele><time>2026-03-29T08:26:21.948Z</time></trkpt><trkpt lat="45.6192933" lon="8.9439783"><ele>225.0</ele><time>2026-03-29T08:26:22.948Z</time></trkpt><trkpt lat="45.6192017" lon="8.9440933"><ele>225.0</ele><time>2026-03-29T08:26:23.948Z</time></trkpt><trkpt lat="45.6191133" lon="8.9442033"><ele>225.0</ele><time>2026-03-29T08:26:24.947Z</time></trkpt><trkpt lat="45.61903" lon="8.9443"><ele>225.0</ele><time>2026-03-29T08:26:25.948Z</time></trkpt><trkpt lat="45.618955" lon="8.9443867"><ele>225.0</ele><time>2026-03-29T08:26:26.948Z</time></trkpt><trkpt lat="45.61888" lon="8.9444683"><ele>225.0</ele><time>2026-03-29T08:26:27.947Z</time></trkpt><trkpt lat="45.6188067" lon="8.944555"><ele>225.0</ele><time>2026-03-29T08:26:28.948Z</time></trkpt><trkpt lat="45.61873" lon="8.9446583"><ele>225.0</ele><time>2026-03-29T08:26:29.947Z</time></trkpt><trkpt lat="45.6186533" lon="8.9447567"><ele>225.0</ele><time>2026-03-29T08:26:30.948Z</time></trkpt><trkpt lat="45.6185783" lon="8.9448517"><ele>225.0</ele><time>2026-03-29T08:26:31.948Z</time></trkpt><trkpt lat="45.6185083" lon="8.9449417"><ele>225.0</ele><time>2026-03-29T08:26:32.947Z</time></trkpt><trkpt lat="45.6184433" lon="8.9450283"><ele>224.8</ele><time>2026-03-29T08:26:33.948Z</time></trkpt><trkpt lat="45.618315" lon="8.945185"><ele>224.6</ele><time>2026-03-29T08:26:35.948Z</time></trkpt><trkpt lat="45.61825" lon="8.94526"><ele>224.39999999999998</ele><time>2026-03-29T08:26:36.948Z</time></trkpt><trkpt lat="45.6181917" lon="8.9453317"><ele>224.2</ele><time>2026-03-29T08:26:37.948Z</time></trkpt><trkpt lat="45.6181317" lon="8.9453967"><ele>224.0</ele><time>2026-03-29T08:26:38.948Z</time></trkpt><trkpt lat="45.6180783" lon="8.9454633"><ele>224.0</ele><time>2026-03-29T08:26:39.947Z</time></trkpt><trkpt lat="45.61803" lon="8.9455217"><ele>223.99999999999997</ele><time>2026-03-29T08:26:40.948Z</time></trkpt><trkpt lat="45.6179733" lon="8.9455683"><ele>223.99999999999997</ele><time>2026-03-29T08:26:41.947Z</time></trkpt><trkpt lat="45.61787" lon="8.9456617"><ele>224.0</ele><time>2026-03-29T08:26:43.948Z</time></trkpt><trkpt lat="45.6177767" lon="8.94577"><ele>224.0</ele><time>2026-03-29T08:26:45.948Z</time></trkpt><trkpt lat="45.6176717" lon="8.9458917"><ele>223.83333333333334</ele><time>2026-03-29T08:26:47.948Z</time></trkpt><trkpt lat="45.61761" lon="8.94596"><ele>223.66666666666669</ele><time>2026-03-29T08:26:48.948Z</time></trkpt><trkpt lat="45.6175483" lon="8.9460233"><ele>223.5</ele><time>2026-03-29T08:26:49.948Z</time></trkpt><trkpt lat="45.617475" lon="8.9461"><ele>223.33333333333331</ele><time>2026-03-29T08:26:50.948Z</time></trkpt><trkpt lat="45.6174033" lon="8.94618"><ele>223.16666666666666</ele><time>2026-03-29T08:26:51.948Z</time></trkpt><trkpt lat="45.6173367" lon="8.9462633"><ele>223.0</ele><time>2026-03-29T08:26:52.948Z</time></trkpt><trkpt lat="45.617265" lon="8.9463433"><ele>223.0</ele><time>2026-03-29T08:26:53.948Z</time></trkpt><trkpt lat="45.617195" lon="8.94643"><ele>223.0</ele><time>2026-03-29T08:26:54.948Z</time></trkpt><trkpt lat="45.617125" lon="8.9465017"><ele>223.0</ele><time>2026-03-29T08:26:55.947Z</time></trkpt><trkpt lat="45.6170583" lon="8.9466"><ele>223.0</ele><time>2026-03-29T08:26:56.948Z</time></trkpt><trkpt lat="45.6169883" lon="8.9466833"><ele>223.0</ele><time>2026-03-29T08:26:57.948Z</time></trkpt><trkpt lat="45.6169133" lon="8.9467617"><ele>223.16666666666666</ele><time>2026-03-29T08:26:58.948Z</time></trkpt><trkpt lat="45.6168417" lon="8.9468433"><ele>223.33333333333331</ele><time>2026-03-29T08:26:59.948Z</time></trkpt><trkpt lat="45.6167683" lon="8.946935"><ele>223.5</ele><time>2026-03-29T08:27:00.948Z</time></trkpt><trkpt lat="45.6166967" lon="8.94701"><ele>223.66666666666669</ele><time>2026-03-29T08:27:01.948Z</time></trkpt><trkpt lat="45.616635" lon="8.9470883"><ele>223.83333333333334</ele><time>2026-03-29T08:27:02.948Z</time></trkpt><trkpt lat="45.616575" lon="8.9471667"><ele>224.0</ele><time>2026-03-29T08:27:03.948Z</time></trkpt><trkpt lat="45.6165233" lon="8.947245"><ele>224.00000000000003</ele><time>2026-03-29T08:27:04.948Z</time></trkpt><trkpt lat="45.616475" lon="8.947325"><ele>224.0</ele><time>2026-03-29T08:27:05.948Z</time></trkpt><trkpt lat="45.6164217" lon="8.9473833"><ele>224.0</ele><time>2026-03-29T08:27:06.948Z</time></trkpt><trkpt lat="45.616365" lon="8.9474383"><ele>224.0</ele><time>2026-03-29T08:27:07.948Z</time></trkpt><trkpt lat="45.61631" lon="8.9475"><ele>224.00000000000003</ele><time>2026-03-29T08:27:08.948Z</time></trkpt><trkpt lat="45.61626" lon="8.9475567"><ele>224.0</ele><time>2026-03-29T08:27:09.948Z</time></trkpt><trkpt lat="45.6161683" lon="8.947665"><ele>223.83333333333334</ele><time>2026-03-29T08:27:11.948Z</time></trkpt><trkpt lat="45.6160983" lon="8.9477583"><ele>223.66666666666669</ele><time>2026-03-29T08:27:13.948Z</time></trkpt><trkpt lat="45.61603" lon="8.9478767"><ele>223.5</ele><time>2026-03-29T08:27:15.948Z</time></trkpt><trkpt lat="45.61598" lon="8.947935"><ele>223.33333333333331</ele><time>2026-03-29T08:27:16.948Z</time></trkpt><trkpt lat="45.6159183" lon="8.9480017"><ele>223.16666666666666</ele><time>2026-03-29T08:27:17.948Z</time></trkpt><trkpt lat="45.61585" lon="8.9480767"><ele>223.0</ele><time>2026-03-29T08:27:18.948Z</time></trkpt><trkpt lat="45.61577" lon="8.948145"><ele>223.0</ele><time>2026-03-29T08:27:19.948Z</time></trkpt><trkpt lat="45.6157017" lon="8.948205"><ele>223.0</ele><time>2026-03-29T08:27:20.948Z</time></trkpt><trkpt lat="45.6156433" lon="8.948265"><ele>223.0</ele><time>2026-03-29T08:27:21.948Z</time></trkpt><trkpt lat="45.6155867" lon="8.94833"><ele>223.0</ele><time>2026-03-29T08:27:22.948Z</time></trkpt><trkpt lat="45.6155317" lon="8.9483917"><ele>223.0</ele><time>2026-03-29T08:27:23.948Z</time></trkpt><trkpt lat="45.6154783" lon="8.9484533"><ele>223.0</ele><time>2026-03-29T08:27:24.948Z</time></trkpt><trkpt lat="45.6154233" lon="8.9485067"><ele>223.0</ele><time>2026-03-29T08:27:25.948Z</time></trkpt><trkpt lat="45.6153467" lon="8.9485967"><ele>222.8</ele><time>2026-03-29T08:27:27.948Z</time></trkpt><trkpt lat="45.615295" lon="8.9486667"><ele>222.60000000000002</ele><time>2026-03-29T08:27:29.948Z</time></trkpt><trkpt lat="45.6152267" lon="8.94876"><ele>222.39999999999998</ele><time>2026-03-29T08:27:31.948Z</time></trkpt><trkpt lat="45.6151517" lon="8.9488583"><ele>222.2</ele><time>2026-03-29T08:27:33.948Z</time></trkpt><trkpt lat="45.6150617" lon="8.94896"><ele>222.0</ele><time>2026-03-29T08:27:35.948Z</time></trkpt><trkpt lat="45.6149783" lon="8.9490283"><ele>222.0</ele><time>2026-03-29T08:27:36.947Z</time></trkpt><trkpt lat="45.6148783" lon="8.9491217"><ele>222.0</ele><time>2026-03-29T08:27:37.948Z</time></trkpt><trkpt lat="45.6147917" lon="8.9492233"><ele>222.0</ele><time>2026-03-29T08:27:38.948Z</time></trkpt><trkpt lat="45.6147133" lon="8.9493117"><ele>222.0</ele><time>2026-03-29T08:27:39.948Z</time></trkpt><trkpt lat="45.6146417" lon="8.9493833"><ele>222.0</ele><time>2026-03-29T08:27:40.948Z</time></trkpt><trkpt lat="45.614565" lon="8.9494533"><ele>221.83333333333334</ele><time>2026-03-29T08:27:41.948Z</time></trkpt><trkpt lat="45.6144767" lon="8.9495"><ele>221.66666666666669</ele><time>2026-03-29T08:27:42.947Z</time></trkpt><trkpt lat="45.614395" lon="8.9494917"><ele>221.5</ele><time>2026-03-29T08:27:43.948Z</time></trkpt><trkpt lat="45.6143217" lon="8.9494267"><ele>221.33333333333334</ele><time>2026-03-29T08:27:44.948Z</time></trkpt><trkpt lat="45.6142667" lon="8.9493467"><ele>221.16666666666669</ele><time>2026-03-29T08:27:45.948Z</time></trkpt><trkpt lat="45.6142017" lon="8.949245"><ele>221.0</ele><time>2026-03-29T08:27:46.948Z</time></trkpt><trkpt lat="45.614135" lon="8.9491167"><ele>220.83333333333334</ele><time>2026-03-29T08:27:47.948Z</time></trkpt><trkpt lat="45.6140867" lon="8.949"><ele>220.66666666666669</ele><time>2026-03-29T08:27:48.948Z</time></trkpt><trkpt lat="45.6140633" lon="8.948885"><ele>220.5</ele><time>2026-03-29T08:27:49.948Z</time></trkpt><trkpt lat="45.6140517" lon="8.9487733"><ele>220.33333333333331</ele><time>2026-03-29T08:27:50.948Z</time></trkpt><trkpt lat="45.6139733" lon="8.9486383"><ele>220.16666666666666</ele><time>2026-03-29T08:27:52.948Z</time></trkpt><trkpt lat="45.6139133" lon="8.9485983"><ele>220.0</ele><time>2026-03-29T08:27:53.948Z</time></trkpt><trkpt lat="45.6138317" lon="8.948555"><ele>220.0</ele><time>2026-03-29T08:27:54.948Z</time></trkpt><trkpt lat="45.61375" lon="8.9484983"><ele>220.0</ele><time>2026-03-29T08:27:55.948Z</time></trkpt><trkpt lat="45.6136683" lon="8.94841"><ele>220.0</ele><time>2026-03-29T08:27:56.948Z</time></trkpt><trkpt lat="45.613565" lon="8.9482733"><ele>220.0</ele><time>2026-03-29T08:27:57.948Z</time></trkpt><trkpt lat="45.6134383" lon="8.948075"><ele>220.0</ele><time>2026-03-29T08:27:58.948Z</time></trkpt><trkpt lat="45.613315" lon="8.947885"><ele>220.0</ele><time>2026-03-29T08:27:59.948Z</time></trkpt><trkpt lat="45.613185" lon="8.94768"><ele>220.0</ele><time>2026-03-29T08:28:00.948Z</time></trkpt><trkpt lat="45.6130517" lon="8.9474683"><ele>220.0</ele><time>2026-03-29T08:28:01.948Z</time></trkpt><trkpt lat="45.6129133" lon="8.9472667"><ele>220.0</ele><time>2026-03-29T08:28:02.948Z</time></trkpt><trkpt lat="45.6127733" lon="8.9470567"><ele>220.0</ele><time>2026-03-29T08:28:03.948Z</time></trkpt><trkpt lat="45.61266" lon="8.9468483"><ele>220.33333333333331</ele><time>2026-03-29T08:28:04.948Z</time></trkpt><trkpt lat="45.6125267" lon="8.9465933"><ele>220.66666666666669</ele><time>2026-03-29T08:28:05.948Z</time></trkpt><trkpt lat="45.61242" lon="8.9464283"><ele>221.0</ele><time>2026-03-29T08:28:06.948Z</time></trkpt><trkpt lat="45.61233" lon="8.946285"><ele>221.0</ele><time>2026-03-29T08:28:07.948Z</time></trkpt><trkpt lat="45.6122583" lon="8.9461417"><ele>221.0</ele><time>2026-03-29T08:28:08.948Z</time></trkpt><trkpt lat="45.6121867" lon="8.9460317"><ele>221.0</ele><time>2026-03-29T08:28:09.948Z</time></trkpt><trkpt lat="45.612115" lon="8.9459167"><ele>221.0</ele><time>2026-03-29T08:28:10.948Z</time></trkpt><trkpt lat="45.6120467" lon="8.9457617"><ele>220.0</ele><time>2026-03-29T08:28:11.948Z</time></trkpt><trkpt lat="45.6119733" lon="8.9455633"><ele>219.0</ele><time>2026-03-29T08:28:12.948Z</time></trkpt><trkpt lat="45.6118183" lon="8.9450817"><ele>219.0</ele><time>2026-03-29T08:28:14.948Z</time></trkpt><trkpt lat="45.6117567" lon="8.944805"><ele>219.0</ele><time>2026-03-29T08:28:15.948Z</time></trkpt><trkpt lat="45.6117133" lon="8.94453"><ele>219.0</ele><time>2026-03-29T08:28:16.948Z</time></trkpt><trkpt lat="45.61167" lon="8.94425"><ele>220.0</ele><time>2026-03-29T08:28:17.948Z</time></trkpt><trkpt lat="45.611645" lon="8.9439533"><ele>221.0</ele><time>2026-03-29T08:28:18.948Z</time></trkpt><trkpt lat="45.6116183" lon="8.9436483"><ele>222.0</ele><time>2026-03-29T08:28:19.948Z</time></trkpt><trkpt lat="45.6116033" lon="8.943315"><ele>223.0</ele><time>2026-03-29T08:28:20.948Z</time></trkpt><trkpt lat="45.6115517" lon="8.9426683"><ele>223.5</ele><time>2026-03-29T08:28:22.948Z</time></trkpt><trkpt lat="45.6115183" lon="8.9423467"><ele>224.0</ele><time>2026-03-29T08:28:23.948Z</time></trkpt><trkpt lat="45.6114817" lon="8.94202"><ele>223.5</ele><time>2026-03-29T08:28:24.948Z</time></trkpt><trkpt lat="45.6114383" lon="8.9417"><ele>223.0</ele><time>2026-03-29T08:28:25.948Z</time></trkpt><trkpt lat="45.6113883" lon="8.94137"><ele>223.0</ele><time>2026-03-29T08:28:26.948Z</time></trkpt><trkpt lat="45.61135" lon="8.9410367"><ele>223.0</ele><time>2026-03-29T08:28:27.948Z</time></trkpt><trkpt lat="45.611315" lon="8.9407017"><ele>222.5</ele><time>2026-03-29T08:28:28.948Z</time></trkpt><trkpt lat="45.61127" lon="8.9403583"><ele>222.0</ele><time>2026-03-29T08:28:29.948Z</time></trkpt><trkpt lat="45.6112333" lon="8.9400217"><ele>222.0</ele><time>2026-03-29T08:28:30.948Z</time></trkpt><trkpt lat="45.6111967" lon="8.9397017"><ele>222.0</ele><time>2026-03-29T08:28:31.948Z</time></trkpt><trkpt lat="45.6111567" lon="8.9394217"><ele>222.0</ele><time>2026-03-29T08:28:32.948Z</time></trkpt><trkpt lat="45.6111317" lon="8.9391717"><ele>221.66666666666669</ele><time>2026-03-29T08:28:33.948Z</time></trkpt><trkpt lat="45.6111" lon="8.9389317"><ele>221.33333333333334</ele><time>2026-03-29T08:28:34.947Z</time></trkpt><trkpt lat="45.6110767" lon="8.9387183"><ele>221.0</ele><time>2026-03-29T08:28:35.948Z</time></trkpt><trkpt lat="45.6110583" lon="8.9385233"><ele>221.0</ele><time>2026-03-29T08:28:36.948Z</time></trkpt><trkpt lat="45.6110533" lon="8.93834"><ele>221.00000000000003</ele><time>2026-03-29T08:28:37.947Z</time></trkpt><trkpt lat="45.6110633" lon="8.9381817"><ele>221.00000000000003</ele><time>2026-03-29T08:28:38.948Z</time></trkpt><trkpt lat="45.6110833" lon="8.9380367"><ele>221.0</ele><time>2026-03-29T08:28:39.948Z</time></trkpt><trkpt lat="45.6111167" lon="8.937905"><ele>221.0</ele><time>2026-03-29T08:28:40.947Z</time></trkpt><trkpt lat="45.611155" lon="8.9377817"><ele>221.00000000000003</ele><time>2026-03-29T08:28:41.948Z</time></trkpt><trkpt lat="45.6111617" lon="8.937685"><ele>221.0</ele><time>2026-03-29T08:28:42.948Z</time></trkpt><trkpt lat="45.6111017" lon="8.9375317"><ele>221.0</ele><time>2026-03-29T08:28:44.948Z</time></trkpt><trkpt lat="45.61104" lon="8.9374567"><ele>221.0</ele><time>2026-03-29T08:28:45.948Z</time></trkpt><trkpt lat="45.61098" lon="8.93738"><ele>221.00000000000003</ele><time>2026-03-29T08:28:46.948Z</time></trkpt><trkpt lat="45.61093" lon="8.93728"><ele>221.0</ele><time>2026-03-29T08:28:47.948Z</time></trkpt><trkpt lat="45.6108917" lon="8.93716"><ele>221.0</ele><time>2026-03-29T08:28:48.948Z</time></trkpt><trkpt lat="45.6108583" lon="8.937025"><ele>221.0</ele><time>2026-03-29T08:28:49.948Z</time></trkpt><trkpt lat="45.610825" lon="8.93687"><ele>221.0</ele><time>2026-03-29T08:28:50.948Z</time></trkpt><trkpt lat="45.61081" lon="8.936695"><ele>221.0</ele><time>2026-03-29T08:28:51.948Z</time></trkpt><trkpt lat="45.6108017" lon="8.93652"><ele>221.33333333333334</ele><time>2026-03-29T08:28:52.948Z</time></trkpt><trkpt lat="45.6107933" lon="8.9363517"><ele>221.66666666666669</ele><time>2026-03-29T08:28:53.947Z</time></trkpt><trkpt lat="45.6107783" lon="8.9361483"><ele>222.0</ele><time>2026-03-29T08:28:54.948Z</time></trkpt><trkpt lat="45.61072" lon="8.9356933"><ele>222.33333333333331</ele><time>2026-03-29T08:28:56.947Z</time></trkpt><trkpt lat="45.610695" lon="8.9354667"><ele>222.66666666666666</ele><time>2026-03-29T08:28:57.948Z</time></trkpt><trkpt lat="45.610675" lon="8.935255"><ele>223.0</ele><time>2026-03-29T08:28:58.948Z</time></trkpt><trkpt lat="45.6106517" lon="8.9350567"><ele>223.25</ele><time>2026-03-29T08:28:59.948Z</time></trkpt><trkpt lat="45.61062" lon="8.9348767"><ele>223.5</ele><time>2026-03-29T08:29:00.948Z</time></trkpt><trkpt lat="45.6106" lon="8.9347033"><ele>223.75</ele><time>2026-03-29T08:29:01.948Z</time></trkpt><trkpt lat="45.61058" lon="8.934525"><ele>224.0</ele><time>2026-03-29T08:29:02.948Z</time></trkpt><trkpt lat="45.6105367" lon="8.9343417"><ele>224.0</ele><time>2026-03-29T08:29:03.948Z</time></trkpt><trkpt lat="45.6105067" lon="8.93416"><ele>224.0</ele><time>2026-03-29T08:29:04.948Z</time></trkpt><trkpt lat="45.6104883" lon="8.93398"><ele>224.0</ele><time>2026-03-29T08:29:05.948Z</time></trkpt><trkpt lat="45.6104683" lon="8.9338067"><ele>224.0</ele><time>2026-03-29T08:29:06.948Z</time></trkpt><trkpt lat="45.610455" lon="8.9336483"><ele>224.00000000000003</ele><time>2026-03-29T08:29:07.947Z</time></trkpt><trkpt lat="45.6104367" lon="8.933515"><ele>224.0</ele><time>2026-03-29T08:29:08.948Z</time></trkpt><trkpt lat="45.610415" lon="8.9334033"><ele>224.0</ele><time>2026-03-29T08:29:09.947Z</time></trkpt><trkpt lat="45.6104" lon="8.9333083"><ele>224.0</ele><time>2026-03-29T08:29:10.947Z</time></trkpt><trkpt lat="45.6104117" lon="8.9331717"><ele>224.00000000000003</ele><time>2026-03-29T08:29:12.947Z</time></trkpt><trkpt lat="45.6104333" lon="8.93304"><ele>224.0</ele><time>2026-03-29T08:29:14.947Z</time></trkpt><trkpt lat="45.6104667" lon="8.9329167"><ele>223.83333333333334</ele><time>2026-03-29T08:29:16.947Z</time></trkpt><trkpt lat="45.610495" lon="8.9328283"><ele>223.66666666666669</ele><time>2026-03-29T08:29:18.947Z</time></trkpt><trkpt lat="45.6104883" lon="8.932705"><ele>223.5</ele><time>2026-03-29T08:29:21.947Z</time></trkpt><trkpt lat="45.6104267" lon="8.9326"><ele>223.33333333333331</ele><time>2026-03-29T08:29:23.946Z</time></trkpt><trkpt lat="45.6103083" lon="8.932555"><ele>223.16666666666666</ele><time>2026-03-29T08:29:25.947Z</time></trkpt><trkpt lat="45.6102433" lon="8.932565"><ele>223.0</ele><time>2026-03-29T08:29:26.947Z</time></trkpt><trkpt lat="45.6101833" lon="8.932615"><ele>222.4</ele><time>2026-03-29T08:29:27.946Z</time></trkpt><trkpt lat="45.6101333" lon="8.9327"><ele>221.8</ele><time>2026-03-29T08:29:28.947Z</time></trkpt><trkpt lat="45.6100767" lon="8.9328033"><ele>221.2</ele><time>2026-03-29T08:29:29.947Z</time></trkpt><trkpt lat="45.6100183" lon="8.9329"><ele>220.6</ele><time>2026-03-29T08:29:30.947Z</time></trkpt><trkpt lat="45.6099483" lon="8.9329917"><ele>220.0</ele><time>2026-03-29T08:29:31.947Z</time></trkpt><trkpt lat="45.6098633" lon="8.93306"><ele>220.0</ele><time>2026-03-29T08:29:32.947Z</time></trkpt><trkpt lat="45.6097683" lon="8.9330783"><ele>220.0</ele><time>2026-03-29T08:29:33.947Z</time></trkpt><trkpt lat="45.6096517" lon="8.9330583"><ele>220.0</ele><time>2026-03-29T08:29:34.947Z</time></trkpt><trkpt lat="45.6095383" lon="8.932995"><ele>220.0</ele><time>2026-03-29T08:29:35.947Z</time></trkpt><trkpt lat="45.6094233" lon="8.9329283"><ele>219.25</ele><time>2026-03-29T08:29:36.947Z</time></trkpt><trkpt lat="45.6093183" lon="8.9328467"><ele>218.5</ele><time>2026-03-29T08:29:37.947Z</time></trkpt><trkpt lat="45.6092117" lon="8.9327583"><ele>217.75</ele><time>2026-03-29T08:29:38.947Z</time></trkpt><trkpt lat="45.6091067" lon="8.93265"><ele>217.0</ele><time>2026-03-29T08:29:39.947Z</time></trkpt><trkpt lat="45.60901" lon="8.9325233"><ele>216.25</ele><time>2026-03-29T08:29:40.947Z</time></trkpt><trkpt lat="45.6089217" lon="8.9323733"><ele>215.5</ele><time>2026-03-29T08:29:41.947Z</time></trkpt><trkpt lat="45.60886" lon="8.9321833"><ele>214.75</ele><time>2026-03-29T08:29:42.947Z</time></trkpt><trkpt lat="45.6088467" lon="8.9319667"><ele>214.0</ele><time>2026-03-29T08:29:43.947Z</time></trkpt><trkpt lat="45.608875" lon="8.9317617"><ele>213.66666666666666</ele><time>2026-03-29T08:29:44.947Z</time></trkpt><trkpt lat="45.6089333" lon="8.9315733"><ele>213.33333333333331</ele><time>2026-03-29T08:29:45.947Z</time></trkpt><trkpt lat="45.6090033" lon="8.9313733"><ele>213.0</ele><time>2026-03-29T08:29:46.946Z</time></trkpt><trkpt lat="45.6090833" lon="8.9311717"><ele>213.0</ele><time>2026-03-29T08:29:47.947Z</time></trkpt><trkpt lat="45.6091567" lon="8.9309667"><ele>213.0</ele><time>2026-03-29T08:29:48.947Z</time></trkpt><trkpt lat="45.6092383" lon="8.9307567"><ele>213.0</ele><time>2026-03-29T08:29:49.947Z</time></trkpt><trkpt lat="45.6093333" lon="8.9305233"><ele>212.66666666666669</ele><time>2026-03-29T08:29:50.947Z</time></trkpt><trkpt lat="45.6094233" lon="8.930295"><ele>212.33333333333334</ele><time>2026-03-29T08:29:51.947Z</time></trkpt><trkpt lat="45.6095117" lon="8.9300817"><ele>212.0</ele><time>2026-03-29T08:29:52.947Z</time></trkpt><trkpt lat="45.609595" lon="8.9298733"><ele>211.0</ele><time>2026-03-29T08:29:53.947Z</time></trkpt><trkpt lat="45.6096717" lon="8.92967"><ele>210.0</ele><time>2026-03-29T08:29:54.947Z</time></trkpt><trkpt lat="45.609745" lon="8.9294733"><ele>209.0</ele><time>2026-03-29T08:29:55.947Z</time></trkpt><trkpt lat="45.609835" lon="8.9292667"><ele>208.66666666666669</ele><time>2026-03-29T08:29:56.947Z</time></trkpt><trkpt lat="45.6099317" lon="8.9290583"><ele>208.33333333333331</ele><time>2026-03-29T08:29:57.946Z</time></trkpt><trkpt lat="45.6100267" lon="8.92885"><ele>208.0</ele><time>2026-03-29T08:29:58.947Z</time></trkpt><trkpt lat="45.6101067" lon="8.928645"><ele>208.0</ele><time>2026-03-29T08:29:59.947Z</time></trkpt><trkpt lat="45.6102" lon="8.9284317"><ele>208.0</ele><time>2026-03-29T08:30:00.946Z</time></trkpt><trkpt lat="45.6102883" lon="8.9282333"><ele>208.0</ele><time>2026-03-29T08:30:01.947Z</time></trkpt><trkpt lat="45.61037" lon="8.9280167"><ele>208.0</ele><time>2026-03-29T08:30:02.947Z</time></trkpt><trkpt lat="45.6104517" lon="8.9277883"><ele>208.0</ele><time>2026-03-29T08:30:03.947Z</time></trkpt><trkpt lat="45.6105567" lon="8.92757"><ele>208.0</ele><time>2026-03-29T08:30:04.947Z</time></trkpt><trkpt lat="45.6106517" lon="8.9273467"><ele>208.0</ele><time>2026-03-29T08:30:05.947Z</time></trkpt><trkpt lat="45.6107483" lon="8.92712"><ele>208.0</ele><time>2026-03-29T08:30:06.947Z</time></trkpt><trkpt lat="45.6108417" lon="8.92687"><ele>208.0</ele><time>2026-03-29T08:30:07.947Z</time></trkpt><trkpt lat="45.6109367" lon="8.926615"><ele>208.0</ele><time>2026-03-29T08:30:08.947Z</time></trkpt><trkpt lat="45.6110467" lon="8.9263717"><ele>208.0</ele><time>2026-03-29T08:30:09.947Z</time></trkpt><trkpt lat="45.6111483" lon="8.9261383"><ele>208.0</ele><time>2026-03-29T08:30:10.947Z</time></trkpt><trkpt lat="45.611345" lon="8.9256483"><ele>208.33333333333331</ele><time>2026-03-29T08:30:12.947Z</time></trkpt><trkpt lat="45.6114433" lon="8.9254083"><ele>208.66666666666669</ele><time>2026-03-29T08:30:13.947Z</time></trkpt><trkpt lat="45.6115383" lon="8.925175"><ele>209.0</ele><time>2026-03-29T08:30:14.947Z</time></trkpt><trkpt lat="45.6116383" lon="8.9249467"><ele>209.0</ele><time>2026-03-29T08:30:15.946Z</time></trkpt><trkpt lat="45.611735" lon="8.92471"><ele>209.0</ele><time>2026-03-29T08:30:16.947Z</time></trkpt><trkpt lat="45.61184" lon="8.9244767"><ele>209.0</ele><time>2026-03-29T08:30:17.947Z</time></trkpt><trkpt lat="45.611945" lon="8.9242367"><ele>208.66666666666669</ele><time>2026-03-29T08:30:18.947Z</time></trkpt><trkpt lat="45.6120417" lon="8.923995"><ele>208.33333333333331</ele><time>2026-03-29T08:30:19.947Z</time></trkpt><trkpt lat="45.6121383" lon="8.92374"><ele>208.0</ele><time>2026-03-29T08:30:20.947Z</time></trkpt><trkpt lat="45.6122383" lon="8.92348"><ele>208.66666666666666</ele><time>2026-03-29T08:30:21.947Z</time></trkpt><trkpt lat="45.6123317" lon="8.9232267"><ele>209.33333333333331</ele><time>2026-03-29T08:30:22.947Z</time></trkpt><trkpt lat="45.6124267" lon="8.92299"><ele>210.0</ele><time>2026-03-29T08:30:23.947Z</time></trkpt><trkpt lat="45.61252" lon="8.922765"><ele>209.66666666666669</ele><time>2026-03-29T08:30:24.947Z</time></trkpt><trkpt lat="45.6126217" lon="8.9225567"><ele>209.33333333333334</ele><time>2026-03-29T08:30:25.946Z</time></trkpt><trkpt lat="45.61272" lon="8.9223417"><ele>209.0</ele><time>2026-03-29T08:30:26.947Z</time></trkpt><trkpt lat="45.6128133" lon="8.92211"><ele>210.33333333333334</ele><time>2026-03-29T08:30:27.947Z</time></trkpt><trkpt lat="45.61291" lon="8.9218667"><ele>211.66666666666669</ele><time>2026-03-29T08:30:28.947Z</time></trkpt><trkpt lat="45.6130183" lon="8.9216083"><ele>213.0</ele><time>2026-03-29T08:30:29.947Z</time></trkpt><trkpt lat="45.6131333" lon="8.9213383"><ele>213.0</ele><time>2026-03-29T08:30:30.946Z</time></trkpt><trkpt lat="45.6132533" lon="8.9210517"><ele>213.0</ele><time>2026-03-29T08:30:31.947Z</time></trkpt><trkpt lat="45.6133783" lon="8.9207567"><ele>212.5</ele><time>2026-03-29T08:30:32.947Z</time></trkpt><trkpt lat="45.6134883" lon="8.9204533"><ele>212.0</ele><time>2026-03-29T08:30:33.947Z</time></trkpt><trkpt lat="45.613615" lon="8.92014"><ele>216.0</ele><time>2026-03-29T08:30:34.947Z</time></trkpt><trkpt lat="45.6137433" lon="8.9198267"><ele>220.0</ele><time>2026-03-29T08:30:35.947Z</time></trkpt><trkpt lat="45.613885" lon="8.9195133"><ele>220.5</ele><time>2026-03-29T08:30:36.947Z</time></trkpt><trkpt lat="45.61403" lon="8.9192067"><ele>221.0</ele><time>2026-03-29T08:30:37.947Z</time></trkpt><trkpt lat="45.614175" lon="8.9188867"><ele>221.0</ele><time>2026-03-29T08:30:38.947Z</time></trkpt><trkpt lat="45.6143133" lon="8.9185583"><ele>221.0</ele><time>2026-03-29T08:30:39.947Z</time></trkpt><trkpt lat="45.6144567" lon="8.918205"><ele>219.5</ele><time>2026-03-29T08:30:40.947Z</time></trkpt><trkpt lat="45.6145917" lon="8.9179133"><ele>218.0</ele><time>2026-03-29T08:30:41.947Z</time></trkpt><trkpt lat="45.6147167" lon="8.9176033"><ele>216.0</ele><time>2026-03-29T08:30:42.947Z</time></trkpt><trkpt lat="45.6148333" lon="8.917285"><ele>214.0</ele><time>2026-03-29T08:30:43.947Z</time></trkpt><trkpt lat="45.6149667" lon="8.9169917"><ele>213.5</ele><time>2026-03-29T08:30:44.947Z</time></trkpt><trkpt lat="45.6150933" lon="8.9166967"><ele>213.0</ele><time>2026-03-29T08:30:45.947Z</time></trkpt><trkpt lat="45.615225" lon="8.9164117"><ele>218.0</ele><time>2026-03-29T08:30:46.947Z</time></trkpt><trkpt lat="45.615355" lon="8.9161167"><ele>223.0</ele><time>2026-03-29T08:30:47.947Z</time></trkpt><trkpt lat="45.61548" lon="8.91581"><ele>223.0</ele><time>2026-03-29T08:30:48.947Z</time></trkpt><trkpt lat="45.6156033" lon="8.9155"><ele>223.0</ele><time>2026-03-29T08:30:49.947Z</time></trkpt><trkpt lat="45.6157217" lon="8.9151883"><ele>221.5</ele><time>2026-03-29T08:30:50.947Z</time></trkpt><trkpt lat="45.6158483" lon="8.9148883"><ele>220.0</ele><time>2026-03-29T08:30:51.947Z</time></trkpt><trkpt lat="45.6159767" lon="8.9146033"><ele>220.0</ele><time>2026-03-29T08:30:52.947Z</time></trkpt><trkpt lat="45.616105" lon="8.91431"><ele>220.0</ele><time>2026-03-29T08:30:53.947Z</time></trkpt><trkpt lat="45.6162317" lon="8.9140233"><ele>222.0</ele><time>2026-03-29T08:30:54.947Z</time></trkpt><trkpt lat="45.6163533" lon="8.913735"><ele>224.0</ele><time>2026-03-29T08:30:55.947Z</time></trkpt><trkpt lat="45.6164767" lon="8.9134417"><ele>222.5</ele><time>2026-03-29T08:30:56.947Z</time></trkpt><trkpt lat="45.6165967" lon="8.9131467"><ele>221.0</ele><time>2026-03-29T08:30:57.947Z</time></trkpt><trkpt lat="45.6167267" lon="8.9128567"><ele>221.5</ele><time>2026-03-29T08:30:58.947Z</time></trkpt><trkpt lat="45.6168617" lon="8.9125633"><ele>222.0</ele><time>2026-03-29T08:30:59.947Z</time></trkpt><trkpt lat="45.61699" lon="8.9122617"><ele>221.5</ele><time>2026-03-29T08:31:00.947Z</time></trkpt><trkpt lat="45.6171117" lon="8.9119667"><ele>221.0</ele><time>2026-03-29T08:31:01.947Z</time></trkpt><trkpt lat="45.61724" lon="8.9116617"><ele>221.0</ele><time>2026-03-29T08:31:02.947Z</time></trkpt><trkpt lat="45.6173617" lon="8.9113583"><ele>221.0</ele><time>2026-03-29T08:31:03.947Z</time></trkpt><trkpt lat="45.6174867" lon="8.911055"><ele>221.5</ele><time>2026-03-29T08:31:04.947Z</time></trkpt><trkpt lat="45.6176133" lon="8.9107517"><ele>222.0</ele><time>2026-03-29T08:31:05.947Z</time></trkpt><trkpt lat="45.6177367" lon="8.910455"><ele>221.5</ele><time>2026-03-29T08:31:06.947Z</time></trkpt><trkpt lat="45.6178567" lon="8.9101533"><ele>221.0</ele><time>2026-03-29T08:31:07.946Z</time></trkpt><trkpt lat="45.6179817" lon="8.90984"><ele>221.0</ele><time>2026-03-29T08:31:08.947Z</time></trkpt><trkpt lat="45.6181017" lon="8.90953"><ele>221.0</ele><time>2026-03-29T08:31:09.947Z</time></trkpt><trkpt lat="45.6182367" lon="8.909225"><ele>221.0</ele><time>2026-03-29T08:31:10.946Z</time></trkpt><trkpt lat="45.6183617" lon="8.9089217"><ele>221.0</ele><time>2026-03-29T08:31:11.947Z</time></trkpt><trkpt lat="45.618485" lon="8.908625"><ele>221.0</ele><time>2026-03-29T08:31:12.947Z</time></trkpt><trkpt lat="45.618625" lon="8.9083283"><ele>221.0</ele><time>2026-03-29T08:31:13.947Z</time></trkpt><trkpt lat="45.61876" lon="8.908035"><ele>221.0</ele><time>2026-03-29T08:31:14.947Z</time></trkpt><trkpt lat="45.6188833" lon="8.90772"><ele>221.0</ele><time>2026-03-29T08:31:15.947Z</time></trkpt><trkpt lat="45.619005" lon="8.9074117"><ele>221.0</ele><time>2026-03-29T08:31:16.947Z</time></trkpt><trkpt lat="45.61912" lon="8.9071317"><ele>221.0</ele><time>2026-03-29T08:31:17.946Z</time></trkpt><trkpt lat="45.6192333" lon="8.906865"><ele>221.0</ele><time>2026-03-29T08:31:18.947Z</time></trkpt><trkpt lat="45.6193417" lon="8.9066083"><ele>221.33333333333334</ele><time>2026-03-29T08:31:19.946Z</time></trkpt><trkpt lat="45.619455" lon="8.9063483"><ele>221.66666666666669</ele><time>2026-03-29T08:31:20.947Z</time></trkpt><trkpt lat="45.6195667" lon="8.9060983"><ele>222.0</ele><time>2026-03-29T08:31:21.947Z</time></trkpt><trkpt lat="45.6196767" lon="8.9058333"><ele>222.33333333333331</ele><time>2026-03-29T08:31:22.947Z</time></trkpt><trkpt lat="45.6197933" lon="8.9055683"><ele>222.66666666666666</ele><time>2026-03-29T08:31:23.947Z</time></trkpt><trkpt lat="45.619915" lon="8.9052983"><ele>223.0</ele><time>2026-03-29T08:31:24.946Z</time></trkpt><trkpt lat="45.62004" lon="8.9050233"><ele>223.0</ele><time>2026-03-29T08:31:25.946Z</time></trkpt><trkpt lat="45.6201617" lon="8.9047383"><ele>223.0</ele><time>2026-03-29T08:31:26.947Z</time></trkpt><trkpt lat="45.62028" lon="8.9044383"><ele>223.5</ele><time>2026-03-29T08:31:27.947Z</time></trkpt><trkpt lat="45.6203967" lon="8.9041333"><ele>224.0</ele><time>2026-03-29T08:31:28.947Z</time></trkpt><trkpt lat="45.6205267" lon="8.9038217"><ele>224.0</ele><time>2026-03-29T08:31:29.947Z</time></trkpt><trkpt lat="45.6206533" lon="8.9035117"><ele>224.0</ele><time>2026-03-29T08:31:30.947Z</time></trkpt><trkpt lat="45.62078" lon="8.9032117"><ele>223.0</ele><time>2026-03-29T08:31:31.947Z</time></trkpt><trkpt lat="45.62091" lon="8.9029067"><ele>222.0</ele><time>2026-03-29T08:31:32.947Z</time></trkpt><trkpt lat="45.6210417" lon="8.9025967"><ele>223.5</ele><time>2026-03-29T08:31:33.947Z</time></trkpt><trkpt lat="45.621175" lon="8.9022783"><ele>225.0</ele><time>2026-03-29T08:31:34.947Z</time></trkpt><trkpt lat="45.6213033" lon="8.90197"><ele>223.5</ele><time>2026-03-29T08:31:35.947Z</time></trkpt><trkpt lat="45.6214333" lon="8.90166"><ele>222.0</ele><time>2026-03-29T08:31:36.947Z</time></trkpt><trkpt lat="45.62157" lon="8.9013417"><ele>222.0</ele><time>2026-03-29T08:31:37.947Z</time></trkpt><trkpt lat="45.6217" lon="8.9010283"><ele>222.0</ele><time>2026-03-29T08:31:38.947Z</time></trkpt><trkpt lat="45.6218283" lon="8.9007233"><ele>222.0</ele><time>2026-03-29T08:31:39.947Z</time></trkpt><trkpt lat="45.62196" lon="8.9004167"><ele>222.0</ele><time>2026-03-29T08:31:40.947Z</time></trkpt><trkpt lat="45.6220883" lon="8.9001033"><ele>221.5</ele><time>2026-03-29T08:31:41.947Z</time></trkpt><trkpt lat="45.6222117" lon="8.8998067"><ele>221.0</ele><time>2026-03-29T08:31:42.947Z</time></trkpt><trkpt lat="45.622335" lon="8.8995183"><ele>221.5</ele><time>2026-03-29T08:31:43.947Z</time></trkpt><trkpt lat="45.6224517" lon="8.89922"><ele>222.0</ele><time>2026-03-29T08:31:44.947Z</time></trkpt><trkpt lat="45.622565" lon="8.8989217"><ele>222.0</ele><time>2026-03-29T08:31:45.947Z</time></trkpt><trkpt lat="45.622685" lon="8.8986233"><ele>222.0</ele><time>2026-03-29T08:31:46.947Z</time></trkpt><trkpt lat="45.622805" lon="8.8983317"><ele>221.0</ele><time>2026-03-29T08:31:47.947Z</time></trkpt><trkpt lat="45.62293" lon="8.898035"><ele>220.0</ele><time>2026-03-29T08:31:48.947Z</time></trkpt><trkpt lat="45.6230567" lon="8.8977433"><ele>220.0</ele><time>2026-03-29T08:31:49.947Z</time></trkpt><trkpt lat="45.62318" lon="8.8974383"><ele>220.0</ele><time>2026-03-29T08:31:50.947Z</time></trkpt><trkpt lat="45.6233133" lon="8.8971367"><ele>220.0</ele><time>2026-03-29T08:31:51.947Z</time></trkpt><trkpt lat="45.6234333" lon="8.8968333"><ele>220.0</ele><time>2026-03-29T08:31:52.946Z</time></trkpt><trkpt lat="45.623555" lon="8.8965333"><ele>217.5</ele><time>2026-03-29T08:31:53.947Z</time></trkpt><trkpt lat="45.62368" lon="8.8962333"><ele>215.0</ele><time>2026-03-29T08:31:54.947Z</time></trkpt><trkpt lat="45.6238017" lon="8.8959283"><ele>215.0</ele><time>2026-03-29T08:31:55.947Z</time></trkpt><trkpt lat="45.623935" lon="8.8956183"><ele>215.0</ele><time>2026-03-29T08:31:56.947Z</time></trkpt><trkpt lat="45.6240683" lon="8.8953133"><ele>216.0</ele><time>2026-03-29T08:31:57.947Z</time></trkpt><trkpt lat="45.6242" lon="8.8950033"><ele>217.0</ele><time>2026-03-29T08:31:58.947Z</time></trkpt><trkpt lat="45.62433" lon="8.894695"><ele>217.0</ele><time>2026-03-29T08:31:59.947Z</time></trkpt><trkpt lat="45.6244567" lon="8.8943867"><ele>217.0</ele><time>2026-03-29T08:32:00.947Z</time></trkpt><trkpt lat="45.62458" lon="8.894085"><ele>216.0</ele><time>2026-03-29T08:32:01.947Z</time></trkpt><trkpt lat="45.6247067" lon="8.8937883"><ele>215.0</ele><time>2026-03-29T08:32:02.947Z</time></trkpt><trkpt lat="45.6248367" lon="8.89348"><ele>216.0</ele><time>2026-03-29T08:32:03.947Z</time></trkpt><trkpt lat="45.6249583" lon="8.893175"><ele>217.0</ele><time>2026-03-29T08:32:04.947Z</time></trkpt><trkpt lat="45.6250867" lon="8.892875"><ele>220.5</ele><time>2026-03-29T08:32:05.947Z</time></trkpt><trkpt lat="45.62521" lon="8.8925767"><ele>224.0</ele><time>2026-03-29T08:32:06.946Z</time></trkpt><trkpt lat="45.625335" lon="8.892275"><ele>225.0</ele><time>2026-03-29T08:32:07.947Z</time></trkpt><trkpt lat="45.6254733" lon="8.8919783"><ele>226.0</ele><time>2026-03-29T08:32:08.947Z</time></trkpt><trkpt lat="45.6256083" lon="8.8916633"><ele>226.5</ele><time>2026-03-29T08:32:09.947Z</time></trkpt><trkpt lat="45.62574" lon="8.891335"><ele>227.0</ele><time>2026-03-29T08:32:10.946Z</time></trkpt><trkpt lat="45.62588" lon="8.89101"><ele>229.5</ele><time>2026-03-29T08:32:11.947Z</time></trkpt><trkpt lat="45.62601" lon="8.8906783"><ele>232.0</ele><time>2026-03-29T08:32:12.947Z</time></trkpt><trkpt lat="45.6261433" lon="8.8903417"><ele>234.0</ele><time>2026-03-29T08:32:13.946Z</time></trkpt><trkpt lat="45.6262817" lon="8.8900017"><ele>236.0</ele><time>2026-03-29T08:32:14.947Z</time></trkpt><trkpt lat="45.626425" lon="8.8896733"><ele>236.0</ele><time>2026-03-29T08:32:15.947Z</time></trkpt><trkpt lat="45.62657" lon="8.889355"><ele>236.0</ele><time>2026-03-29T08:32:16.947Z</time></trkpt><trkpt lat="45.6266967" lon="8.8890433"><ele>235.0</ele><time>2026-03-29T08:32:17.947Z</time></trkpt><trkpt lat="45.6268283" lon="8.8887367"><ele>234.0</ele><time>2026-03-29T08:32:18.947Z</time></trkpt><trkpt lat="45.6269583" lon="8.8884067"><ele>235.5</ele><time>2026-03-29T08:32:19.947Z</time></trkpt><trkpt lat="45.6270867" lon="8.8881"><ele>237.0</ele><time>2026-03-29T08:32:20.947Z</time></trkpt><trkpt lat="45.6272117" lon="8.8877917"><ele>236.0</ele><time>2026-03-29T08:32:21.947Z</time></trkpt><trkpt lat="45.6273467" lon="8.88749"><ele>235.0</ele><time>2026-03-29T08:32:22.947Z</time></trkpt><trkpt lat="45.627475" lon="8.8871917"><ele>235.0</ele><time>2026-03-29T08:32:23.946Z</time></trkpt><trkpt lat="45.6276" lon="8.8868917"><ele>235.0</ele><time>2026-03-29T08:32:24.946Z</time></trkpt><trkpt lat="45.6277283" lon="8.8865817"><ele>235.5</ele><time>2026-03-29T08:32:25.946Z</time></trkpt><trkpt lat="45.6278683" lon="8.8862833"><ele>236.0</ele><time>2026-03-29T08:32:26.947Z</time></trkpt><trkpt lat="45.6280017" lon="8.8859683"><ele>235.0</ele><time>2026-03-29T08:32:27.947Z</time></trkpt><trkpt lat="45.6281317" lon="8.8856567"><ele>234.0</ele><time>2026-03-29T08:32:28.947Z</time></trkpt><trkpt lat="45.6282633" lon="8.88537"><ele>235.0</ele><time>2026-03-29T08:32:29.946Z</time></trkpt><trkpt lat="45.6283983" lon="8.8850417"><ele>236.0</ele><time>2026-03-29T08:32:30.947Z</time></trkpt><trkpt lat="45.6285283" lon="8.88472"><ele>236.0</ele><time>2026-03-29T08:32:31.947Z</time></trkpt><trkpt lat="45.6286517" lon="8.8843767"><ele>236.0</ele><time>2026-03-29T08:32:32.947Z</time></trkpt><trkpt lat="45.6287783" lon="8.884055"><ele>236.0</ele><time>2026-03-29T08:32:33.947Z</time></trkpt><trkpt lat="45.6289083" lon="8.8837383"><ele>236.0</ele><time>2026-03-29T08:32:34.947Z</time></trkpt><trkpt lat="45.629045" lon="8.88343"><ele>236.5</ele><time>2026-03-29T08:32:35.947Z</time></trkpt><trkpt lat="45.629185" lon="8.8831233"><ele>237.0</ele><time>2026-03-29T08:32:36.947Z</time></trkpt><trkpt lat="45.629325" lon="8.882815"><ele>237.0</ele><time>2026-03-29T08:32:37.947Z</time></trkpt><trkpt lat="45.6294683" lon="8.8825067"><ele>237.0</ele><time>2026-03-29T08:32:38.947Z</time></trkpt><trkpt lat="45.62961" lon="8.8822"><ele>237.0</ele><time>2026-03-29T08:32:39.947Z</time></trkpt><trkpt lat="45.6297367" lon="8.8818867"><ele>237.0</ele><time>2026-03-29T08:32:40.947Z</time></trkpt><trkpt lat="45.6298633" lon="8.881575"><ele>237.0</ele><time>2026-03-29T08:32:41.945Z</time></trkpt><trkpt lat="45.629995" lon="8.881255"><ele>237.0</ele><time>2026-03-29T08:32:42.946Z</time></trkpt><trkpt lat="45.6301267" lon="8.8809483"><ele>238.0</ele><time>2026-03-29T08:32:43.946Z</time></trkpt><trkpt lat="45.6302483" lon="8.8806483"><ele>239.0</ele><time>2026-03-29T08:32:44.946Z</time></trkpt><trkpt lat="45.6303617" lon="8.88037"><ele>238.0</ele><time>2026-03-29T08:32:45.945Z</time></trkpt><trkpt lat="45.6304867" lon="8.8800883"><ele>237.0</ele><time>2026-03-29T08:32:46.945Z</time></trkpt><trkpt lat="45.6306133" lon="8.8798033"><ele>237.0</ele><time>2026-03-29T08:32:47.946Z</time></trkpt><trkpt lat="45.6307417" lon="8.879515"><ele>237.0</ele><time>2026-03-29T08:32:48.946Z</time></trkpt><trkpt lat="45.630865" lon="8.87922"><ele>238.5</ele><time>2026-03-29T08:32:49.946Z</time></trkpt><trkpt lat="45.63099" lon="8.878925"><ele>240.0</ele><time>2026-03-29T08:32:50.946Z</time></trkpt><trkpt lat="45.6311117" lon="8.878625"><ele>240.5</ele><time>2026-03-29T08:32:51.946Z</time></trkpt><trkpt lat="45.6312383" lon="8.8783117"><ele>241.0</ele><time>2026-03-29T08:32:52.946Z</time></trkpt><trkpt lat="45.6313717" lon="8.878"><ele>241.0</ele><time>2026-03-29T08:32:53.946Z</time></trkpt><trkpt lat="45.6315017" lon="8.8776817"><ele>241.0</ele><time>2026-03-29T08:32:54.946Z</time></trkpt><trkpt lat="45.631635" lon="8.8773633"><ele>241.0</ele><time>2026-03-29T08:32:55.946Z</time></trkpt><trkpt lat="45.6317683" lon="8.8770517"><ele>241.0</ele><time>2026-03-29T08:32:56.945Z</time></trkpt><trkpt lat="45.6318983" lon="8.8767367"><ele>241.0</ele><time>2026-03-29T08:32:57.946Z</time></trkpt><trkpt lat="45.6320333" lon="8.8764267"><ele>241.0</ele><time>2026-03-29T08:32:58.946Z</time></trkpt><trkpt lat="45.6321533" lon="8.8761233"><ele>241.0</ele><time>2026-03-29T08:32:59.946Z</time></trkpt><trkpt lat="45.6322767" lon="8.87582"><ele>241.0</ele><time>2026-03-29T08:33:00.946Z</time></trkpt><trkpt lat="45.6323983" lon="8.8755317"><ele>241.0</ele><time>2026-03-29T08:33:01.946Z</time></trkpt><trkpt lat="45.632525" lon="8.8752433"><ele>241.0</ele><time>2026-03-29T08:33:02.945Z</time></trkpt><trkpt lat="45.632645" lon="8.874945"><ele>241.0</ele><time>2026-03-29T08:33:03.946Z</time></trkpt><trkpt lat="45.6327683" lon="8.8746567"><ele>241.0</ele><time>2026-03-29T08:33:04.946Z</time></trkpt><trkpt lat="45.6328933" lon="8.874365"><ele>243.0</ele><time>2026-03-29T08:33:05.946Z</time></trkpt><trkpt lat="45.6330217" lon="8.8740617"><ele>245.0</ele><time>2026-03-29T08:33:06.946Z</time></trkpt><trkpt lat="45.6331533" lon="8.8737583"><ele>245.0</ele><time>2026-03-29T08:33:07.946Z</time></trkpt><trkpt lat="45.6332833" lon="8.8734417"><ele>245.0</ele><time>2026-03-29T08:33:08.946Z</time></trkpt><trkpt lat="45.6334233" lon="8.8731117"><ele>244.5</ele><time>2026-03-29T08:33:09.946Z</time></trkpt><trkpt lat="45.6335617" lon="8.8727933"><ele>244.0</ele><time>2026-03-29T08:33:10.945Z</time></trkpt><trkpt lat="45.6337033" lon="8.8724833"><ele>242.0</ele><time>2026-03-29T08:33:11.946Z</time></trkpt><trkpt lat="45.6338367" lon="8.872155"><ele>240.0</ele><time>2026-03-29T08:33:12.946Z</time></trkpt><trkpt lat="45.6339667" lon="8.8718317"><ele>240.5</ele><time>2026-03-29T08:33:13.946Z</time></trkpt><trkpt lat="45.6340933" lon="8.87152"><ele>241.0</ele><time>2026-03-29T08:33:14.945Z</time></trkpt><trkpt lat="45.63423" lon="8.8712133"><ele>241.5</ele><time>2026-03-29T08:33:15.945Z</time></trkpt><trkpt lat="45.6343767" lon="8.8709033"><ele>242.0</ele><time>2026-03-29T08:33:16.946Z</time></trkpt><trkpt lat="45.6345117" lon="8.87059"><ele>243.0</ele><time>2026-03-29T08:33:17.946Z</time></trkpt><trkpt lat="45.634645" lon="8.87027"><ele>244.0</ele><time>2026-03-29T08:33:18.945Z</time></trkpt><trkpt lat="45.6347767" lon="8.86995"><ele>241.5</ele><time>2026-03-29T08:33:19.946Z</time></trkpt><trkpt lat="45.6349033" lon="8.8696367"><ele>239.0</ele><time>2026-03-29T08:33:20.946Z</time></trkpt><trkpt lat="45.63503" lon="8.8693367"><ele>239.5</ele><time>2026-03-29T08:33:21.946Z</time></trkpt><trkpt lat="45.635165" lon="8.86903"><ele>240.0</ele><time>2026-03-29T08:33:22.946Z</time></trkpt><trkpt lat="45.6353033" lon="8.8687267"><ele>240.0</ele><time>2026-03-29T08:33:23.945Z</time></trkpt><trkpt lat="45.635425" lon="8.8684233"><ele>240.0</ele><time>2026-03-29T08:33:24.946Z</time></trkpt><trkpt lat="45.6355483" lon="8.8681183"><ele>240.0</ele><time>2026-03-29T08:33:25.946Z</time></trkpt><trkpt lat="45.6356667" lon="8.867825"><ele>240.0</ele><time>2026-03-29T08:33:26.946Z</time></trkpt><trkpt lat="45.6357883" lon="8.867535"><ele>240.0</ele><time>2026-03-29T08:33:27.946Z</time></trkpt><trkpt lat="45.6358933" lon="8.86726"><ele>240.0</ele><time>2026-03-29T08:33:28.946Z</time></trkpt><trkpt lat="45.636" lon="8.867005"><ele>240.0</ele><time>2026-03-29T08:33:29.945Z</time></trkpt><trkpt lat="45.6360983" lon="8.86676"><ele>240.33333333333331</ele><time>2026-03-29T08:33:30.946Z</time></trkpt><trkpt lat="45.6361933" lon="8.86652"><ele>240.66666666666666</ele><time>2026-03-29T08:33:31.946Z</time></trkpt><trkpt lat="45.63629" lon="8.8662683"><ele>241.0</ele><time>2026-03-29T08:33:32.946Z</time></trkpt><trkpt lat="45.6363933" lon="8.8660017"><ele>242.0</ele><time>2026-03-29T08:33:33.946Z</time></trkpt><trkpt lat="45.6365033" lon="8.8657283"><ele>243.0</ele><time>2026-03-29T08:33:34.946Z</time></trkpt><trkpt lat="45.6366167" lon="8.8654383"><ele>243.0</ele><time>2026-03-29T08:33:35.946Z</time></trkpt><trkpt lat="45.63674" lon="8.8651617"><ele>243.0</ele><time>2026-03-29T08:33:36.946Z</time></trkpt><trkpt lat="45.63686" lon="8.86488"><ele>243.0</ele><time>2026-03-29T08:33:37.946Z</time></trkpt><trkpt lat="45.6369783" lon="8.86459"><ele>243.0</ele><time>2026-03-29T08:33:38.946Z</time></trkpt><trkpt lat="45.637105" lon="8.8642883"><ele>242.0</ele><time>2026-03-29T08:33:39.946Z</time></trkpt><trkpt lat="45.6372383" lon="8.8639717"><ele>241.0</ele><time>2026-03-29T08:33:40.946Z</time></trkpt><trkpt lat="45.63737" lon="8.8636533"><ele>241.5</ele><time>2026-03-29T08:33:41.946Z</time></trkpt><trkpt lat="45.6375" lon="8.86335"><ele>242.0</ele><time>2026-03-29T08:33:42.946Z</time></trkpt><trkpt lat="45.6376317" lon="8.8630517"><ele>242.0</ele><time>2026-03-29T08:33:43.945Z</time></trkpt><trkpt lat="45.6377567" lon="8.86274"><ele>242.0</ele><time>2026-03-29T08:33:44.946Z</time></trkpt><trkpt lat="45.63789" lon="8.862415"><ele>242.0</ele><time>2026-03-29T08:33:45.946Z</time></trkpt><trkpt lat="45.63802" lon="8.8621133"><ele>242.0</ele><time>2026-03-29T08:33:46.946Z</time></trkpt><trkpt lat="45.6381483" lon="8.8618217"><ele>240.5</ele><time>2026-03-29T08:33:47.946Z</time></trkpt><trkpt lat="45.6382733" lon="8.8615467"><ele>239.0</ele><time>2026-03-29T08:33:48.946Z</time></trkpt><trkpt lat="45.6383883" lon="8.8612683"><ele>239.0</ele><time>2026-03-29T08:33:49.946Z</time></trkpt><trkpt lat="45.6385067" lon="8.8609833"><ele>239.0</ele><time>2026-03-29T08:33:50.946Z</time></trkpt><trkpt lat="45.63863" lon="8.8606933"><ele>241.0</ele><time>2026-03-29T08:33:51.945Z</time></trkpt><trkpt lat="45.6387583" lon="8.8603983"><ele>243.0</ele><time>2026-03-29T08:33:52.946Z</time></trkpt><trkpt lat="45.6388833" lon="8.8601017"><ele>244.5</ele><time>2026-03-29T08:33:53.946Z</time></trkpt><trkpt lat="45.6390083" lon="8.8598033"><ele>246.0</ele><time>2026-03-29T08:33:54.946Z</time></trkpt><trkpt lat="45.6391433" lon="8.8594917"><ele>245.5</ele><time>2026-03-29T08:33:55.946Z</time></trkpt><trkpt lat="45.6392767" lon="8.8591783"><ele>245.0</ele><time>2026-03-29T08:33:56.946Z</time></trkpt><trkpt lat="45.6394067" lon="8.858855"><ele>245.5</ele><time>2026-03-29T08:33:57.946Z</time></trkpt><trkpt lat="45.6395433" lon="8.8585317"><ele>246.0</ele><time>2026-03-29T08:33:58.946Z</time></trkpt><trkpt lat="45.6396767" lon="8.8582"><ele>246.0</ele><time>2026-03-29T08:33:59.946Z</time></trkpt><trkpt lat="45.6398183" lon="8.8578567"><ele>246.0</ele><time>2026-03-29T08:34:00.946Z</time></trkpt><trkpt lat="45.6399633" lon="8.8575233"><ele>245.0</ele><time>2026-03-29T08:34:01.945Z</time></trkpt><trkpt lat="45.6401033" lon="8.8571817"><ele>244.0</ele><time>2026-03-29T08:34:02.946Z</time></trkpt><trkpt lat="45.640245" lon="8.85684"><ele>244.5</ele><time>2026-03-29T08:34:03.946Z</time></trkpt><trkpt lat="45.6403933" lon="8.8565"><ele>245.0</ele><time>2026-03-29T08:34:04.946Z</time></trkpt><trkpt lat="45.640535" lon="8.8561633"><ele>245.0</ele><time>2026-03-29T08:34:05.946Z</time></trkpt><trkpt lat="45.64068" lon="8.8558367"><ele>245.0</ele><time>2026-03-29T08:34:06.946Z</time></trkpt><trkpt lat="45.6408233" lon="8.8554933"><ele>245.0</ele><time>2026-03-29T08:34:07.946Z</time></trkpt><trkpt lat="45.6409583" lon="8.8551317"><ele>245.0</ele><time>2026-03-29T08:34:08.946Z</time></trkpt><trkpt lat="45.6411" lon="8.854795"><ele>245.0</ele><time>2026-03-29T08:34:09.946Z</time></trkpt><trkpt lat="45.6412483" lon="8.8544583"><ele>245.0</ele><time>2026-03-29T08:34:10.946Z</time></trkpt><trkpt lat="45.6413867" lon="8.854145"><ele>244.5</ele><time>2026-03-29T08:34:11.946Z</time></trkpt><trkpt lat="45.6415167" lon="8.853835"><ele>244.0</ele><time>2026-03-29T08:34:12.946Z</time></trkpt><trkpt lat="45.6416467" lon="8.85353"><ele>243.5</ele><time>2026-03-29T08:34:13.946Z</time></trkpt><trkpt lat="45.6417733" lon="8.853225"><ele>243.0</ele><time>2026-03-29T08:34:14.946Z</time></trkpt><trkpt lat="45.641905" lon="8.8529133"><ele>243.5</ele><time>2026-03-29T08:34:15.946Z</time></trkpt><trkpt lat="45.642035" lon="8.8526"><ele>244.0</ele><time>2026-03-29T08:34:16.946Z</time></trkpt><trkpt lat="45.6421717" lon="8.8522817"><ele>244.0</ele><time>2026-03-29T08:34:17.946Z</time></trkpt><trkpt lat="45.6423117" lon="8.8519633"><ele>244.0</ele><time>2026-03-29T08:34:18.946Z</time></trkpt><trkpt lat="45.642445" lon="8.851645"><ele>244.5</ele><time>2026-03-29T08:34:19.945Z</time></trkpt><trkpt lat="45.6425667" lon="8.8513283"><ele>245.0</ele><time>2026-03-29T08:34:20.946Z</time></trkpt><trkpt lat="45.6426917" lon="8.851025"><ele>244.5</ele><time>2026-03-29T08:34:21.946Z</time></trkpt><trkpt lat="45.642815" lon="8.850735"><ele>244.0</ele><time>2026-03-29T08:34:22.946Z</time></trkpt><trkpt lat="45.6429333" lon="8.85043"><ele>244.0</ele><time>2026-03-29T08:34:23.946Z</time></trkpt><trkpt lat="45.643055" lon="8.85013"><ele>244.0</ele><time>2026-03-29T08:34:24.946Z</time></trkpt><trkpt lat="45.6431767" lon="8.8498167"><ele>245.5</ele><time>2026-03-29T08:34:25.945Z</time></trkpt><trkpt lat="45.643305" lon="8.8495"><ele>247.0</ele><time>2026-03-29T08:34:26.946Z</time></trkpt><trkpt lat="45.6434383" lon="8.84918"><ele>247.0</ele><time>2026-03-29T08:34:27.946Z</time></trkpt><trkpt lat="45.6435683" lon="8.8488433"><ele>247.0</ele><time>2026-03-29T08:34:28.945Z</time></trkpt><trkpt lat="45.6437067" lon="8.8484967"><ele>247.0</ele><time>2026-03-29T08:34:29.946Z</time></trkpt><trkpt lat="45.6438483" lon="8.8481567"><ele>247.0</ele><time>2026-03-29T08:34:30.946Z</time></trkpt><trkpt lat="45.6440067" lon="8.8478233"><ele>246.5</ele><time>2026-03-29T08:34:31.946Z</time></trkpt><trkpt lat="45.6441683" lon="8.8474667"><ele>246.0</ele><time>2026-03-29T08:34:32.946Z</time></trkpt><trkpt lat="45.644325" lon="8.8471017"><ele>246.0</ele><time>2026-03-29T08:34:33.945Z</time></trkpt><trkpt lat="45.6444817" lon="8.8467283"><ele>246.0</ele><time>2026-03-29T08:34:34.946Z</time></trkpt><trkpt lat="45.6446367" lon="8.8463683"><ele>246.0</ele><time>2026-03-29T08:34:35.946Z</time></trkpt><trkpt lat="45.6447867" lon="8.8460183"><ele>246.0</ele><time>2026-03-29T08:34:36.946Z</time></trkpt><trkpt lat="45.6449383" lon="8.8456683"><ele>245.5</ele><time>2026-03-29T08:34:37.946Z</time></trkpt><trkpt lat="45.645085" lon="8.8453117"><ele>245.0</ele><time>2026-03-29T08:34:38.946Z</time></trkpt><trkpt lat="45.6452367" lon="8.8449567"><ele>246.5</ele><time>2026-03-29T08:34:39.946Z</time></trkpt><trkpt lat="45.6453933" lon="8.8446033"><ele>248.0</ele><time>2026-03-29T08:34:40.945Z</time></trkpt><trkpt lat="45.645545" lon="8.844255"><ele>248.0</ele><time>2026-03-29T08:34:41.945Z</time></trkpt><trkpt lat="45.64569" lon="8.8438983"><ele>248.0</ele><time>2026-03-29T08:34:42.946Z</time></trkpt><trkpt lat="45.6458333" lon="8.843545"><ele>247.5</ele><time>2026-03-29T08:34:43.946Z</time></trkpt><trkpt lat="45.6459817" lon="8.8432017"><ele>247.0</ele><time>2026-03-29T08:34:44.946Z</time></trkpt><trkpt lat="45.6462783" lon="8.8425117"><ele>247.0</ele><time>2026-03-29T08:34:46.946Z</time></trkpt><trkpt lat="45.6464217" lon="8.8421683"><ele>247.0</ele><time>2026-03-29T08:34:47.946Z</time></trkpt><trkpt lat="45.646565" lon="8.841825"><ele>246.5</ele><time>2026-03-29T08:34:48.946Z</time></trkpt><trkpt lat="45.6467117" lon="8.8414767"><ele>246.0</ele><time>2026-03-29T08:34:49.945Z</time></trkpt><trkpt lat="45.6468617" lon="8.84113"><ele>247.0</ele><time>2026-03-29T08:34:50.945Z</time></trkpt><trkpt lat="45.6470067" lon="8.8407733"><ele>248.0</ele><time>2026-03-29T08:34:51.946Z</time></trkpt><trkpt lat="45.647145" lon="8.840455"><ele>248.0</ele><time>2026-03-29T08:34:52.946Z</time></trkpt><trkpt lat="45.6472983" lon="8.8400683"><ele>248.0</ele><time>2026-03-29T08:34:53.946Z</time></trkpt><trkpt lat="45.64745" lon="8.8397117"><ele>248.0</ele><time>2026-03-29T08:34:54.946Z</time></trkpt><trkpt lat="45.64761" lon="8.8393667"><ele>248.0</ele><time>2026-03-29T08:34:55.946Z</time></trkpt><trkpt lat="45.647755" lon="8.8390117"><ele>249.0</ele><time>2026-03-29T08:34:56.946Z</time></trkpt><trkpt lat="45.6479033" lon="8.8386483"><ele>250.0</ele><time>2026-03-29T08:34:57.946Z</time></trkpt><trkpt lat="45.6480567" lon="8.83829"><ele>250.0</ele><time>2026-03-29T08:34:58.946Z</time></trkpt><trkpt lat="45.648205" lon="8.8379317"><ele>250.0</ele><time>2026-03-29T08:34:59.946Z</time></trkpt><trkpt lat="45.6483533" lon="8.8375783"><ele>249.5</ele><time>2026-03-29T08:35:00.945Z</time></trkpt><trkpt lat="45.6485017" lon="8.8372317"><ele>249.0</ele><time>2026-03-29T08:35:01.946Z</time></trkpt><trkpt lat="45.6486483" lon="8.8368833"><ele>248.5</ele><time>2026-03-29T08:35:02.946Z</time></trkpt><trkpt lat="45.6488" lon="8.83654"><ele>248.0</ele><time>2026-03-29T08:35:03.946Z</time></trkpt><trkpt lat="45.648945" lon="8.83618"><ele>249.5</ele><time>2026-03-29T08:35:04.945Z</time></trkpt><trkpt lat="45.6490967" lon="8.835835"><ele>251.0</ele><time>2026-03-29T08:35:05.946Z</time></trkpt><trkpt lat="45.649245" lon="8.835485"><ele>251.5</ele><time>2026-03-29T08:35:06.946Z</time></trkpt><trkpt lat="45.64939" lon="8.8351233"><ele>252.0</ele><time>2026-03-29T08:35:07.946Z</time></trkpt><trkpt lat="45.64953" lon="8.8347833"><ele>252.0</ele><time>2026-03-29T08:35:08.945Z</time></trkpt><trkpt lat="45.6496667" lon="8.834465"><ele>252.0</ele><time>2026-03-29T08:35:09.946Z</time></trkpt><trkpt lat="45.6497967" lon="8.834155"><ele>252.0</ele><time>2026-03-29T08:35:10.946Z</time></trkpt><trkpt lat="45.6499267" lon="8.8338533"><ele>252.0</ele><time>2026-03-29T08:35:11.946Z</time></trkpt><trkpt lat="45.6500533" lon="8.8335467"><ele>251.0</ele><time>2026-03-29T08:35:12.946Z</time></trkpt><trkpt lat="45.6501783" lon="8.8332367"><ele>250.0</ele><time>2026-03-29T08:35:13.945Z</time></trkpt><trkpt lat="45.6503017" lon="8.8329233"><ele>251.0</ele><time>2026-03-29T08:35:14.946Z</time></trkpt><trkpt lat="45.6504317" lon="8.8326133"><ele>252.0</ele><time>2026-03-29T08:35:15.945Z</time></trkpt><trkpt lat="45.650565" lon="8.832295"><ele>252.0</ele><time>2026-03-29T08:35:16.946Z</time></trkpt><trkpt lat="45.6507033" lon="8.8319783"><ele>252.0</ele><time>2026-03-29T08:35:17.946Z</time></trkpt><trkpt lat="45.650835" lon="8.831665"><ele>250.5</ele><time>2026-03-29T08:35:18.946Z</time></trkpt><trkpt lat="45.6509767" lon="8.83133"><ele>249.0</ele><time>2026-03-29T08:35:19.946Z</time></trkpt><trkpt lat="45.6511117" lon="8.831025"><ele>249.5</ele><time>2026-03-29T08:35:20.946Z</time></trkpt><trkpt lat="45.6512433" lon="8.830715"><ele>250.0</ele><time>2026-03-29T08:35:21.946Z</time></trkpt><trkpt lat="45.6513717" lon="8.8304"><ele>249.5</ele><time>2026-03-29T08:35:22.946Z</time></trkpt><trkpt lat="45.6515033" lon="8.83009"><ele>249.0</ele><time>2026-03-29T08:35:23.946Z</time></trkpt><trkpt lat="45.6516367" lon="8.8297783"><ele>249.0</ele><time>2026-03-29T08:35:24.946Z</time></trkpt><trkpt lat="45.6517617" lon="8.8294583"><ele>249.0</ele><time>2026-03-29T08:35:25.946Z</time></trkpt><trkpt lat="45.651885" lon="8.8291567"><ele>248.5</ele><time>2026-03-29T08:35:26.946Z</time></trkpt><trkpt lat="45.6520117" lon="8.82885"><ele>248.0</ele><time>2026-03-29T08:35:27.946Z</time></trkpt><trkpt lat="45.6521417" lon="8.8285333"><ele>248.0</ele><time>2026-03-29T08:35:28.946Z</time></trkpt><trkpt lat="45.6522717" lon="8.8282333"><ele>248.0</ele><time>2026-03-29T08:35:29.946Z</time></trkpt><trkpt lat="45.6524" lon="8.8279283"><ele>249.0</ele><time>2026-03-29T08:35:30.946Z</time></trkpt><trkpt lat="45.65252" lon="8.8276133"><ele>250.0</ele><time>2026-03-29T08:35:31.946Z</time></trkpt><trkpt lat="45.6526433" lon="8.8272917"><ele>250.0</ele><time>2026-03-29T08:35:32.946Z</time></trkpt><trkpt lat="45.6527767" lon="8.82697"><ele>250.0</ele><time>2026-03-29T08:35:33.946Z</time></trkpt><trkpt lat="45.6529133" lon="8.8266433"><ele>250.0</ele><time>2026-03-29T08:35:34.946Z</time></trkpt><trkpt lat="45.6530517" lon="8.8263083"><ele>250.0</ele><time>2026-03-29T08:35:35.946Z</time></trkpt><trkpt lat="45.6531917" lon="8.825985"><ele>248.0</ele><time>2026-03-29T08:35:36.946Z</time></trkpt><trkpt lat="45.65333" lon="8.825645"><ele>246.0</ele><time>2026-03-29T08:35:37.946Z</time></trkpt><trkpt lat="45.6534733" lon="8.8253033"><ele>246.5</ele><time>2026-03-29T08:35:38.946Z</time></trkpt><trkpt lat="45.6536167" lon="8.82496"><ele>247.0</ele><time>2026-03-29T08:35:39.946Z</time></trkpt><trkpt lat="45.6537617" lon="8.8246117"><ele>247.5</ele><time>2026-03-29T08:35:40.946Z</time></trkpt><trkpt lat="45.6539" lon="8.82427"><ele>248.0</ele><time>2026-03-29T08:35:41.946Z</time></trkpt><trkpt lat="45.6540433" lon="8.8239317"><ele>248.0</ele><time>2026-03-29T08:35:42.946Z</time></trkpt><trkpt lat="45.6541933" lon="8.823575"><ele>248.0</ele><time>2026-03-29T08:35:43.946Z</time></trkpt><trkpt lat="45.6543367" lon="8.82322"><ele>248.0</ele><time>2026-03-29T08:35:44.946Z</time></trkpt><trkpt lat="45.6544833" lon="8.8228683"><ele>248.0</ele><time>2026-03-29T08:35:45.946Z</time></trkpt><trkpt lat="45.6546383" lon="8.8225033"><ele>248.0</ele><time>2026-03-29T08:35:46.946Z</time></trkpt><trkpt lat="45.654795" lon="8.8221567"><ele>248.0</ele><time>2026-03-29T08:35:47.946Z</time></trkpt><trkpt lat="45.6549517" lon="8.8218017"><ele>247.0</ele><time>2026-03-29T08:35:48.946Z</time></trkpt><trkpt lat="45.655105" lon="8.8214417"><ele>246.0</ele><time>2026-03-29T08:35:49.946Z</time></trkpt><trkpt lat="45.65525" lon="8.8210933"><ele>247.5</ele><time>2026-03-29T08:35:50.946Z</time></trkpt><trkpt lat="45.6553983" lon="8.820735"><ele>249.0</ele><time>2026-03-29T08:35:51.946Z</time></trkpt><trkpt lat="45.6555533" lon="8.82039"><ele>248.5</ele><time>2026-03-29T08:35:52.946Z</time></trkpt><trkpt lat="45.6557017" lon="8.82004"><ele>248.0</ele><time>2026-03-29T08:35:53.946Z</time></trkpt><trkpt lat="45.65585" lon="8.8196867"><ele>248.0</ele><time>2026-03-29T08:35:54.945Z</time></trkpt><trkpt lat="45.656" lon="8.8193383"><ele>248.0</ele><time>2026-03-29T08:35:55.945Z</time></trkpt><trkpt lat="45.6561433" lon="8.8189933"><ele>248.5</ele><time>2026-03-29T08:35:56.946Z</time></trkpt><trkpt lat="45.6562917" lon="8.8186433"><ele>249.0</ele><time>2026-03-29T08:35:57.946Z</time></trkpt><trkpt lat="45.6564367" lon="8.8182867"><ele>249.0</ele><time>2026-03-29T08:35:58.946Z</time></trkpt><trkpt lat="45.65658" lon="8.8179417"><ele>249.0</ele><time>2026-03-29T08:35:59.946Z</time></trkpt><trkpt lat="45.6567233" lon="8.817595"><ele>248.5</ele><time>2026-03-29T08:36:00.946Z</time></trkpt><trkpt lat="45.6568617" lon="8.81724"><ele>248.0</ele><time>2026-03-29T08:36:01.946Z</time></trkpt><trkpt lat="45.6570067" lon="8.816895"><ele>247.5</ele><time>2026-03-29T08:36:02.946Z</time></trkpt><trkpt lat="45.65715" lon="8.816545"><ele>247.0</ele><time>2026-03-29T08:36:03.946Z</time></trkpt><trkpt lat="45.6573067" lon="8.816205"><ele>247.5</ele><time>2026-03-29T08:36:04.946Z</time></trkpt><trkpt lat="45.65745" lon="8.815865"><ele>248.0</ele><time>2026-03-29T08:36:05.946Z</time></trkpt><trkpt lat="45.6575933" lon="8.8155233"><ele>248.0</ele><time>2026-03-29T08:36:06.946Z</time></trkpt><trkpt lat="45.6577367" lon="8.8151767"><ele>248.0</ele><time>2026-03-29T08:36:07.946Z</time></trkpt><trkpt lat="45.65788" lon="8.8148317"><ele>248.0</ele><time>2026-03-29T08:36:08.945Z</time></trkpt><trkpt lat="45.6580283" lon="8.8144817"><ele>248.0</ele><time>2026-03-29T08:36:09.944Z</time></trkpt><trkpt lat="45.65817" lon="8.8141167"><ele>248.0</ele><time>2026-03-29T08:36:10.945Z</time></trkpt><trkpt lat="45.6583133" lon="8.81376"><ele>248.0</ele><time>2026-03-29T08:36:11.944Z</time></trkpt><trkpt lat="45.65846" lon="8.8134033"><ele>248.0</ele><time>2026-03-29T08:36:12.945Z</time></trkpt><trkpt lat="45.6586117" lon="8.81305"><ele>248.0</ele><time>2026-03-29T08:36:13.945Z</time></trkpt><trkpt lat="45.6587567" lon="8.81268"><ele>248.5</ele><time>2026-03-29T08:36:14.944Z</time></trkpt><trkpt lat="45.6589067" lon="8.8123133"><ele>249.0</ele><time>2026-03-29T08:36:15.945Z</time></trkpt><trkpt lat="45.6590533" lon="8.8119483"><ele>248.0</ele><time>2026-03-29T08:36:16.945Z</time></trkpt><trkpt lat="45.6592017" lon="8.8115783"><ele>247.0</ele><time>2026-03-29T08:36:17.945Z</time></trkpt><trkpt lat="45.6593517" lon="8.8112083"><ele>247.5</ele><time>2026-03-29T08:36:18.945Z</time></trkpt><trkpt lat="45.6595117" lon="8.81083"><ele>248.0</ele><time>2026-03-29T08:36:19.945Z</time></trkpt><trkpt lat="45.65967" lon="8.810465"><ele>246.5</ele><time>2026-03-29T08:36:20.945Z</time></trkpt><trkpt lat="45.659815" lon="8.8101"><ele>245.0</ele><time>2026-03-29T08:36:21.945Z</time></trkpt><trkpt lat="45.659955" lon="8.8097383"><ele>245.0</ele><time>2026-03-29T08:36:22.945Z</time></trkpt><trkpt lat="45.6600967" lon="8.8093683"><ele>245.0</ele><time>2026-03-29T08:36:23.945Z</time></trkpt><trkpt lat="45.6602483" lon="8.809005"><ele>246.5</ele><time>2026-03-29T08:36:24.945Z</time></trkpt><trkpt lat="45.6603967" lon="8.80863"><ele>248.0</ele><time>2026-03-29T08:36:25.944Z</time></trkpt><trkpt lat="45.66055" lon="8.8082617"><ele>248.0</ele><time>2026-03-29T08:36:26.945Z</time></trkpt><trkpt lat="45.6607067" lon="8.8078883"><ele>248.0</ele><time>2026-03-29T08:36:27.945Z</time></trkpt><trkpt lat="45.66086" lon="8.8075167"><ele>248.0</ele><time>2026-03-29T08:36:28.945Z</time></trkpt><trkpt lat="45.6610083" lon="8.8071483"><ele>248.0</ele><time>2026-03-29T08:36:29.945Z</time></trkpt><trkpt lat="45.6611617" lon="8.80678"><ele>246.5</ele><time>2026-03-29T08:36:30.944Z</time></trkpt><trkpt lat="45.6613117" lon="8.8064167"><ele>245.0</ele><time>2026-03-29T08:36:31.945Z</time></trkpt><trkpt lat="45.661455" lon="8.806035"><ele>246.0</ele><time>2026-03-29T08:36:32.945Z</time></trkpt><trkpt lat="45.6616017" lon="8.80566"><ele>247.0</ele><time>2026-03-29T08:36:33.945Z</time></trkpt><trkpt lat="45.6617533" lon="8.8052983"><ele>247.0</ele><time>2026-03-29T08:36:34.945Z</time></trkpt><trkpt lat="45.6618883" lon="8.8049583"><ele>247.0</ele><time>2026-03-29T08:36:35.945Z</time></trkpt><trkpt lat="45.6620083" lon="8.8046517"><ele>247.0</ele><time>2026-03-29T08:36:36.945Z</time></trkpt><trkpt lat="45.6621317" lon="8.8043583"><ele>247.0</ele><time>2026-03-29T08:36:37.944Z</time></trkpt><trkpt lat="45.66226" lon="8.804045"><ele>247.0</ele><time>2026-03-29T08:36:38.945Z</time></trkpt><trkpt lat="45.6623883" lon="8.8037367"><ele>247.0</ele><time>2026-03-29T08:36:39.944Z</time></trkpt><trkpt lat="45.6625233" lon="8.8034317"><ele>246.5</ele><time>2026-03-29T08:36:40.945Z</time></trkpt><trkpt lat="45.6626617" lon="8.8031383"><ele>246.0</ele><time>2026-03-29T08:36:41.945Z</time></trkpt><trkpt lat="45.6628033" lon="8.8028417"><ele>245.5</ele><time>2026-03-29T08:36:42.945Z</time></trkpt><trkpt lat="45.6629533" lon="8.8025483"><ele>245.0</ele><time>2026-03-29T08:36:43.945Z</time></trkpt><trkpt lat="45.6631133" lon="8.8022567"><ele>245.0</ele><time>2026-03-29T08:36:44.945Z</time></trkpt><trkpt lat="45.6632817" lon="8.8019733"><ele>245.0</ele><time>2026-03-29T08:36:45.945Z</time></trkpt><trkpt lat="45.66346" lon="8.8016967"><ele>244.5</ele><time>2026-03-29T08:36:46.945Z</time></trkpt><trkpt lat="45.663645" lon="8.801425"><ele>244.0</ele><time>2026-03-29T08:36:47.945Z</time></trkpt><trkpt lat="45.663835" lon="8.801155"><ele>244.5</ele><time>2026-03-29T08:36:48.944Z</time></trkpt><trkpt lat="45.6640283" lon="8.8008983"><ele>245.0</ele><time>2026-03-29T08:36:49.945Z</time></trkpt><trkpt lat="45.6642317" lon="8.800655"><ele>245.5</ele><time>2026-03-29T08:36:50.945Z</time></trkpt><trkpt lat="45.66445" lon="8.8004033"><ele>246.0</ele><time>2026-03-29T08:36:51.945Z</time></trkpt><trkpt lat="45.6646633" lon="8.8001983"><ele>246.5</ele><time>2026-03-29T08:36:52.945Z</time></trkpt><trkpt lat="45.6648883" lon="8.8000117"><ele>247.0</ele><time>2026-03-29T08:36:53.945Z</time></trkpt><trkpt lat="45.6651267" lon="8.799835"><ele>247.5</ele><time>2026-03-29T08:36:54.945Z</time></trkpt><trkpt lat="45.6653633" lon="8.7996783"><ele>248.0</ele><time>2026-03-29T08:36:55.945Z</time></trkpt><trkpt lat="45.6656167" lon="8.7995433"><ele>248.0</ele><time>2026-03-29T08:36:56.945Z</time></trkpt><trkpt lat="45.6658783" lon="8.7994217"><ele>248.0</ele><time>2026-03-29T08:36:57.945Z</time></trkpt><trkpt lat="45.6661267" lon="8.799325"><ele>246.0</ele><time>2026-03-29T08:36:58.945Z</time></trkpt><trkpt lat="45.6663683" lon="8.7992633"><ele>244.0</ele><time>2026-03-29T08:36:59.945Z</time></trkpt><trkpt lat="45.6666167" lon="8.7992117"><ele>244.0</ele><time>2026-03-29T08:37:00.945Z</time></trkpt><trkpt lat="45.6668783" lon="8.7991867"><ele>244.0</ele><time>2026-03-29T08:37:01.945Z</time></trkpt><trkpt lat="45.6671333" lon="8.79917"><ele>243.0</ele><time>2026-03-29T08:37:02.945Z</time></trkpt><trkpt lat="45.66739" lon="8.79917"><ele>242.0</ele><time>2026-03-29T08:37:03.945Z</time></trkpt><trkpt lat="45.6676433" lon="8.7991867"><ele>242.5</ele><time>2026-03-29T08:37:04.945Z</time></trkpt><trkpt lat="45.667905" lon="8.7992167"><ele>243.0</ele><time>2026-03-29T08:37:05.945Z</time></trkpt><trkpt lat="45.6681633" lon="8.79927"><ele>244.0</ele><time>2026-03-29T08:37:06.945Z</time></trkpt><trkpt lat="45.6684217" lon="8.79934"><ele>245.0</ele><time>2026-03-29T08:37:07.944Z</time></trkpt><trkpt lat="45.6686767" lon="8.7994067"><ele>245.5</ele><time>2026-03-29T08:37:08.944Z</time></trkpt><trkpt lat="45.6689433" lon="8.79949"><ele>246.0</ele><time>2026-03-29T08:37:09.945Z</time></trkpt><trkpt lat="45.6692083" lon="8.7995733"><ele>246.0</ele><time>2026-03-29T08:37:10.945Z</time></trkpt><trkpt lat="45.66947" lon="8.79965"><ele>246.0</ele><time>2026-03-29T08:37:11.945Z</time></trkpt><trkpt lat="45.6697317" lon="8.79972"><ele>246.0</ele><time>2026-03-29T08:37:12.945Z</time></trkpt><trkpt lat="45.67" lon="8.7997983"><ele>246.0</ele><time>2026-03-29T08:37:13.945Z</time></trkpt><trkpt lat="45.6702683" lon="8.79988"><ele>247.5</ele><time>2026-03-29T08:37:14.945Z</time></trkpt><trkpt lat="45.6705267" lon="8.79996"><ele>249.0</ele><time>2026-03-29T08:37:15.945Z</time></trkpt><trkpt lat="45.6707917" lon="8.8000417"><ele>249.0</ele><time>2026-03-29T08:37:16.945Z</time></trkpt><trkpt lat="45.6710583" lon="8.8001217"><ele>249.0</ele><time>2026-03-29T08:37:17.945Z</time></trkpt><trkpt lat="45.6713217" lon="8.8001983"><ele>249.0</ele><time>2026-03-29T08:37:18.945Z</time></trkpt><trkpt lat="45.67156" lon="8.80028"><ele>249.0</ele><time>2026-03-29T08:37:19.944Z</time></trkpt><trkpt lat="45.6717817" lon="8.8003483"><ele>249.33333333333331</ele><time>2026-03-29T08:37:20.944Z</time></trkpt><trkpt lat="45.6719883" lon="8.8004317"><ele>249.66666666666666</ele><time>2026-03-29T08:37:21.945Z</time></trkpt><trkpt lat="45.6721917" lon="8.8005183"><ele>250.0</ele><time>2026-03-29T08:37:22.945Z</time></trkpt><trkpt lat="45.6723967" lon="8.800615"><ele>250.0</ele><time>2026-03-29T08:37:23.945Z</time></trkpt><trkpt lat="45.672605" lon="8.800725"><ele>250.0</ele><time>2026-03-29T08:37:24.945Z</time></trkpt><trkpt lat="45.6728167" lon="8.8008333"><ele>250.0</ele><time>2026-03-29T08:37:25.945Z</time></trkpt><trkpt lat="45.673035" lon="8.8009433"><ele>250.0</ele><time>2026-03-29T08:37:26.945Z</time></trkpt><trkpt lat="45.6732533" lon="8.80104"><ele>250.0</ele><time>2026-03-29T08:37:27.945Z</time></trkpt><trkpt lat="45.6734583" lon="8.8011267"><ele>250.0</ele><time>2026-03-29T08:37:28.945Z</time></trkpt><trkpt lat="45.67366" lon="8.8012017"><ele>250.66666666666666</ele><time>2026-03-29T08:37:29.945Z</time></trkpt><trkpt lat="45.6738617" lon="8.8012517"><ele>251.33333333333331</ele><time>2026-03-29T08:37:30.945Z</time></trkpt><trkpt lat="45.6740667" lon="8.8012817"><ele>252.0</ele><time>2026-03-29T08:37:31.945Z</time></trkpt><trkpt lat="45.674265" lon="8.8012917"><ele>251.66666666666669</ele><time>2026-03-29T08:37:32.945Z</time></trkpt><trkpt lat="45.6744667" lon="8.8012883"><ele>251.33333333333334</ele><time>2026-03-29T08:37:33.945Z</time></trkpt><trkpt lat="45.6746583" lon="8.8012717"><ele>251.0</ele><time>2026-03-29T08:37:34.945Z</time></trkpt><trkpt lat="45.6748533" lon="8.8012267"><ele>251.0</ele><time>2026-03-29T08:37:35.945Z</time></trkpt><trkpt lat="45.6752617" lon="8.801065"><ele>251.0</ele><time>2026-03-29T08:37:37.945Z</time></trkpt><trkpt lat="45.6754433" lon="8.80094"><ele>251.33333333333334</ele><time>2026-03-29T08:37:38.945Z</time></trkpt><trkpt lat="45.6756283" lon="8.8007967"><ele>251.66666666666669</ele><time>2026-03-29T08:37:39.945Z</time></trkpt><trkpt lat="45.67581" lon="8.8006483"><ele>252.0</ele><time>2026-03-29T08:37:40.945Z</time></trkpt><trkpt lat="45.675985" lon="8.800475"><ele>252.33333333333331</ele><time>2026-03-29T08:37:41.945Z</time></trkpt><trkpt lat="45.6761533" lon="8.800275"><ele>252.66666666666666</ele><time>2026-03-29T08:37:42.945Z</time></trkpt><trkpt lat="45.6763067" lon="8.8000483"><ele>253.0</ele><time>2026-03-29T08:37:43.945Z</time></trkpt><trkpt lat="45.6764583" lon="8.7998367"><ele>253.0</ele><time>2026-03-29T08:37:44.945Z</time></trkpt><trkpt lat="45.67661" lon="8.79961"><ele>253.0</ele><time>2026-03-29T08:37:45.945Z</time></trkpt><trkpt lat="45.6769183" lon="8.799175"><ele>253.0</ele><time>2026-03-29T08:37:47.945Z</time></trkpt><trkpt lat="45.677065" lon="8.7989733"><ele>253.0</ele><time>2026-03-29T08:37:48.945Z</time></trkpt><trkpt lat="45.6772167" lon="8.798755"><ele>253.0</ele><time>2026-03-29T08:37:49.945Z</time></trkpt><trkpt lat="45.67738" lon="8.79852"><ele>253.0</ele><time>2026-03-29T08:37:50.945Z</time></trkpt><trkpt lat="45.67755" lon="8.798295"><ele>253.0</ele><time>2026-03-29T08:37:51.945Z</time></trkpt><trkpt lat="45.677705" lon="8.7980533"><ele>253.5</ele><time>2026-03-29T08:37:52.945Z</time></trkpt><trkpt lat="45.67786" lon="8.7978183"><ele>254.0</ele><time>2026-03-29T08:37:53.945Z</time></trkpt><trkpt lat="45.6780217" lon="8.7975783"><ele>254.0</ele><time>2026-03-29T08:37:54.944Z</time></trkpt><trkpt lat="45.6781967" lon="8.7973617"><ele>254.0</ele><time>2026-03-29T08:37:55.945Z</time></trkpt><trkpt lat="45.678365" lon="8.797155"><ele>254.0</ele><time>2026-03-29T08:37:56.945Z</time></trkpt><trkpt lat="45.67853" lon="8.7969483"><ele>254.0</ele><time>2026-03-29T08:37:57.945Z</time></trkpt><trkpt lat="45.6786933" lon="8.7967367"><ele>254.0</ele><time>2026-03-29T08:37:58.945Z</time></trkpt><trkpt lat="45.6788617" lon="8.7965383"><ele>254.66666666666669</ele><time>2026-03-29T08:37:59.945Z</time></trkpt><trkpt lat="45.67903" lon="8.7963633"><ele>255.33333333333331</ele><time>2026-03-29T08:38:00.945Z</time></trkpt><trkpt lat="45.679195" lon="8.79618"><ele>256.0</ele><time>2026-03-29T08:38:01.944Z</time></trkpt><trkpt lat="45.6793583" lon="8.796005"><ele>256.0</ele><time>2026-03-29T08:38:02.944Z</time></trkpt><trkpt lat="45.6795283" lon="8.7958233"><ele>256.0</ele><time>2026-03-29T08:38:03.945Z</time></trkpt><trkpt lat="45.6796967" lon="8.7956267"><ele>256.0</ele><time>2026-03-29T08:38:04.945Z</time></trkpt><trkpt lat="45.679865" lon="8.7954417"><ele>256.0</ele><time>2026-03-29T08:38:05.945Z</time></trkpt><trkpt lat="45.6800467" lon="8.7952517"><ele>256.0</ele><time>2026-03-29T08:38:06.945Z</time></trkpt><trkpt lat="45.6802283" lon="8.7950567"><ele>256.66666666666663</ele><time>2026-03-29T08:38:07.945Z</time></trkpt><trkpt lat="45.6804067" lon="8.7948617"><ele>257.3333333333333</ele><time>2026-03-29T08:38:08.945Z</time></trkpt><trkpt lat="45.6805683" lon="8.7946633"><ele>258.0</ele><time>2026-03-29T08:38:09.945Z</time></trkpt><trkpt lat="45.6807333" lon="8.7944817"><ele>257.6666666666667</ele><time>2026-03-29T08:38:10.945Z</time></trkpt><trkpt lat="45.6808967" lon="8.79429"><ele>257.33333333333337</ele><time>2026-03-29T08:38:11.945Z</time></trkpt><trkpt lat="45.6810633" lon="8.7940967"><ele>257.0</ele><time>2026-03-29T08:38:12.945Z</time></trkpt><trkpt lat="45.6814017" lon="8.79372"><ele>257.0</ele><time>2026-03-29T08:38:14.945Z</time></trkpt><trkpt lat="45.6815717" lon="8.7935367"><ele>257.0</ele><time>2026-03-29T08:38:15.945Z</time></trkpt><trkpt lat="45.6817467" lon="8.79334"><ele>257.0</ele><time>2026-03-29T08:38:16.945Z</time></trkpt><trkpt lat="45.68192" lon="8.7931467"><ele>257.0</ele><time>2026-03-29T08:38:17.944Z</time></trkpt><trkpt lat="45.68208" lon="8.79296"><ele>257.0</ele><time>2026-03-29T08:38:18.945Z</time></trkpt><trkpt lat="45.682245" lon="8.7927683"><ele>257.0</ele><time>2026-03-29T08:38:19.945Z</time></trkpt><trkpt lat="45.68242" lon="8.79258"><ele>257.33333333333337</ele><time>2026-03-29T08:38:20.945Z</time></trkpt><trkpt lat="45.6825917" lon="8.792365"><ele>257.6666666666667</ele><time>2026-03-29T08:38:21.945Z</time></trkpt><trkpt lat="45.682755" lon="8.79216"><ele>258.0</ele><time>2026-03-29T08:38:22.945Z</time></trkpt><trkpt lat="45.682925" lon="8.79195"><ele>259.0</ele><time>2026-03-29T08:38:23.945Z</time></trkpt><trkpt lat="45.6830983" lon="8.7917367"><ele>260.0</ele><time>2026-03-29T08:38:24.945Z</time></trkpt><trkpt lat="45.6832583" lon="8.7915183"><ele>260.0</ele><time>2026-03-29T08:38:25.945Z</time></trkpt><trkpt lat="45.6834217" lon="8.7912983"><ele>260.0</ele><time>2026-03-29T08:38:26.945Z</time></trkpt><trkpt lat="45.683585" lon="8.791065"><ele>260.5</ele><time>2026-03-29T08:38:27.945Z</time></trkpt><trkpt lat="45.6837467" lon="8.7908267"><ele>261.0</ele><time>2026-03-29T08:38:28.945Z</time></trkpt><trkpt lat="45.6839083" lon="8.7905833"><ele>261.0</ele><time>2026-03-29T08:38:29.945Z</time></trkpt><trkpt lat="45.68407" lon="8.7903317"><ele>261.0</ele><time>2026-03-29T08:38:30.944Z</time></trkpt><trkpt lat="45.6842267" lon="8.7900733"><ele>263.0</ele><time>2026-03-29T08:38:31.944Z</time></trkpt><trkpt lat="45.684375" lon="8.7898083"><ele>265.0</ele><time>2026-03-29T08:38:32.945Z</time></trkpt><trkpt lat="45.68453" lon="8.7895283"><ele>273.5</ele><time>2026-03-29T08:38:33.945Z</time></trkpt><trkpt lat="45.6846817" lon="8.7892417"><ele>282.0</ele><time>2026-03-29T08:38:34.944Z</time></trkpt><trkpt lat="45.68483" lon="8.7889383"><ele>282.0</ele><time>2026-03-29T08:38:35.945Z</time></trkpt><trkpt lat="45.6849767" lon="8.7886367"><ele>282.0</ele><time>2026-03-29T08:38:36.945Z</time></trkpt><trkpt lat="45.6851283" lon="8.788325"><ele>288.5</ele><time>2026-03-29T08:38:37.945Z</time></trkpt><trkpt lat="45.6852783" lon="8.788015"><ele>295.0</ele><time>2026-03-29T08:38:38.945Z</time></trkpt><trkpt lat="45.6854283" lon="8.7876933"><ele>292.0</ele><time>2026-03-29T08:38:39.945Z</time></trkpt><trkpt lat="45.6855767" lon="8.787385"><ele>289.0</ele><time>2026-03-29T08:38:40.945Z</time></trkpt><trkpt lat="45.68572" lon="8.7870517"><ele>287.0</ele><time>2026-03-29T08:38:41.945Z</time></trkpt><trkpt lat="45.6858567" lon="8.786705"><ele>285.0</ele><time>2026-03-29T08:38:42.945Z</time></trkpt><trkpt lat="45.6859767" lon="8.7863583"><ele>284.0</ele><time>2026-03-29T08:38:43.944Z</time></trkpt><trkpt lat="45.6860883" lon="8.7860083"><ele>283.0</ele><time>2026-03-29T08:38:44.945Z</time></trkpt><trkpt lat="45.68619" lon="8.7856517"><ele>288.0</ele><time>2026-03-29T08:38:45.945Z</time></trkpt><trkpt lat="45.686295" lon="8.7852933"><ele>293.0</ele><time>2026-03-29T08:38:46.945Z</time></trkpt><trkpt lat="45.6863983" lon="8.7849333"><ele>292.0</ele><time>2026-03-29T08:38:47.945Z</time></trkpt><trkpt lat="45.68659" lon="8.7842267"><ele>292.0</ele><time>2026-03-29T08:38:49.945Z</time></trkpt><trkpt lat="45.6866817" lon="8.7839083"><ele>292.0</ele><time>2026-03-29T08:38:50.945Z</time></trkpt><trkpt lat="45.6867667" lon="8.783605"><ele>291.66666666666663</ele><time>2026-03-29T08:38:51.945Z</time></trkpt><trkpt lat="45.6868433" lon="8.78332"><ele>291.3333333333333</ele><time>2026-03-29T08:38:52.944Z</time></trkpt><trkpt lat="45.68692" lon="8.7830517"><ele>291.0</ele><time>2026-03-29T08:38:53.944Z</time></trkpt><trkpt lat="45.6869917" lon="8.7827817"><ele>285.0</ele><time>2026-03-29T08:38:54.944Z</time></trkpt><trkpt lat="45.68713" lon="8.782235"><ele>279.0</ele><time>2026-03-29T08:38:56.944Z</time></trkpt><trkpt lat="45.68721" lon="8.7819433"><ele>280.6666666666667</ele><time>2026-03-29T08:38:57.945Z</time></trkpt><trkpt lat="45.6872917" lon="8.781655"><ele>282.33333333333337</ele><time>2026-03-29T08:38:58.945Z</time></trkpt><trkpt lat="45.6873817" lon="8.7813583"><ele>284.0</ele><time>2026-03-29T08:38:59.944Z</time></trkpt><trkpt lat="45.6874733" lon="8.7810517"><ele>286.5</ele><time>2026-03-29T08:39:00.945Z</time></trkpt><trkpt lat="45.68756" lon="8.7807433"><ele>289.0</ele><time>2026-03-29T08:39:01.945Z</time></trkpt><trkpt lat="45.6877117" lon="8.7801533"><ele>284.66666666666663</ele><time>2026-03-29T08:39:03.945Z</time></trkpt><trkpt lat="45.6877817" lon="8.7798917"><ele>280.3333333333333</ele><time>2026-03-29T08:39:04.945Z</time></trkpt><trkpt lat="45.6878517" lon="8.7796367"><ele>276.0</ele><time>2026-03-29T08:39:05.945Z</time></trkpt><trkpt lat="45.687985" lon="8.7791617"><ele>276.0</ele><time>2026-03-29T08:39:07.945Z</time></trkpt><trkpt lat="45.6880483" lon="8.7789433"><ele>276.0</ele><time>2026-03-29T08:39:08.944Z</time></trkpt><trkpt lat="45.68812" lon="8.7787333"><ele>276.0</ele><time>2026-03-29T08:39:09.945Z</time></trkpt><trkpt lat="45.6882083" lon="8.7785317"><ele>276.6666666666667</ele><time>2026-03-29T08:39:10.945Z</time></trkpt><trkpt lat="45.6883117" lon="8.778335"><ele>277.33333333333337</ele><time>2026-03-29T08:39:11.945Z</time></trkpt><trkpt lat="45.6884117" lon="8.7781567"><ele>278.0</ele><time>2026-03-29T08:39:12.945Z</time></trkpt><trkpt lat="45.6885183" lon="8.7779983"><ele>276.75</ele><time>2026-03-29T08:39:13.945Z</time></trkpt><trkpt lat="45.6886183" lon="8.7778517"><ele>275.5</ele><time>2026-03-29T08:39:14.945Z</time></trkpt><trkpt lat="45.68872" lon="8.7777233"><ele>274.25</ele><time>2026-03-29T08:39:15.945Z</time></trkpt><trkpt lat="45.6888067" lon="8.7776"><ele>273.0</ele><time>2026-03-29T08:39:16.945Z</time></trkpt><trkpt lat="45.688895" lon="8.7774817"><ele>273.0</ele><time>2026-03-29T08:39:17.945Z</time></trkpt><trkpt lat="45.688955" lon="8.77738"><ele>273.0</ele><time>2026-03-29T08:39:18.945Z</time></trkpt><trkpt lat="45.6890033" lon="8.77727"><ele>273.0</ele><time>2026-03-29T08:39:19.945Z</time></trkpt><trkpt lat="45.6890383" lon="8.777165"><ele>273.0</ele><time>2026-03-29T08:39:20.945Z</time></trkpt><trkpt lat="45.6890633" lon="8.77706"><ele>273.0</ele><time>2026-03-29T08:39:21.945Z</time></trkpt><trkpt lat="45.689085" lon="8.7769683"><ele>273.0</ele><time>2026-03-29T08:39:22.944Z</time></trkpt><trkpt lat="45.6891283" lon="8.7767917"><ele>272.75</ele><time>2026-03-29T08:39:24.943Z</time></trkpt><trkpt lat="45.68916" lon="8.7766717"><ele>272.5</ele><time>2026-03-29T08:39:25.944Z</time></trkpt><trkpt lat="45.6891883" lon="8.776525"><ele>272.25</ele><time>2026-03-29T08:39:26.944Z</time></trkpt><trkpt lat="45.6892067" lon="8.776355"><ele>272.0</ele><time>2026-03-29T08:39:27.944Z</time></trkpt><trkpt lat="45.6892033" lon="8.7761417"><ele>272.33333333333337</ele><time>2026-03-29T08:39:28.944Z</time></trkpt><trkpt lat="45.6891983" lon="8.775905"><ele>272.6666666666667</ele><time>2026-03-29T08:39:29.944Z</time></trkpt><trkpt lat="45.6891867" lon="8.7756417"><ele>273.0</ele><time>2026-03-29T08:39:30.944Z</time></trkpt><trkpt lat="45.6891833" lon="8.7753617"><ele>272.3333333333333</ele><time>2026-03-29T08:39:31.944Z</time></trkpt><trkpt lat="45.689195" lon="8.7750633"><ele>271.66666666666663</ele><time>2026-03-29T08:39:32.944Z</time></trkpt><trkpt lat="45.6892217" lon="8.77476"><ele>271.0</ele><time>2026-03-29T08:39:33.944Z</time></trkpt><trkpt lat="45.689265" lon="8.7744467"><ele>274.0</ele><time>2026-03-29T08:39:34.944Z</time></trkpt><trkpt lat="45.6893933" lon="8.7738033"><ele>273.5</ele><time>2026-03-29T08:39:36.944Z</time></trkpt><trkpt lat="45.689475" lon="8.7734833"><ele>273.0</ele><time>2026-03-29T08:39:37.944Z</time></trkpt><trkpt lat="45.6895617" lon="8.77316"><ele>273.0</ele><time>2026-03-29T08:39:38.944Z</time></trkpt><trkpt lat="45.68964" lon="8.7728217"><ele>273.0</ele><time>2026-03-29T08:39:39.944Z</time></trkpt><trkpt lat="45.6897167" lon="8.7725083"><ele>272.5</ele><time>2026-03-29T08:39:40.944Z</time></trkpt><trkpt lat="45.6897933" lon="8.7721783"><ele>272.0</ele><time>2026-03-29T08:39:41.944Z</time></trkpt><trkpt lat="45.689885" lon="8.77183"><ele>271.5</ele><time>2026-03-29T08:39:42.943Z</time></trkpt><trkpt lat="45.68998" lon="8.771505"><ele>271.0</ele><time>2026-03-29T08:39:43.944Z</time></trkpt><trkpt lat="45.6900567" lon="8.7711883"><ele>272.0</ele><time>2026-03-29T08:39:44.944Z</time></trkpt><trkpt lat="45.6901383" lon="8.7708883"><ele>273.0</ele><time>2026-03-29T08:39:45.944Z</time></trkpt><trkpt lat="45.69022" lon="8.7705883"><ele>274.0</ele><time>2026-03-29T08:39:46.944Z</time></trkpt><trkpt lat="45.6903067" lon="8.7702817"><ele>275.0</ele><time>2026-03-29T08:39:47.944Z</time></trkpt><trkpt lat="45.6903817" lon="8.7699817"><ele>275.0</ele><time>2026-03-29T08:39:48.944Z</time></trkpt><trkpt lat="45.6905517" lon="8.769375"><ele>274.0</ele><time>2026-03-29T08:39:50.943Z</time></trkpt><trkpt lat="45.69064" lon="8.7690783"><ele>273.0</ele><time>2026-03-29T08:39:51.944Z</time></trkpt><trkpt lat="45.6907283" lon="8.7687733"><ele>274.0</ele><time>2026-03-29T08:39:52.944Z</time></trkpt><trkpt lat="45.6908033" lon="8.7684517"><ele>275.0</ele><time>2026-03-29T08:39:53.943Z</time></trkpt><trkpt lat="45.6908883" lon="8.7681317"><ele>275.0</ele><time>2026-03-29T08:39:54.943Z</time></trkpt><trkpt lat="45.690975" lon="8.7678133"><ele>275.0</ele><time>2026-03-29T08:39:55.944Z</time></trkpt><trkpt lat="45.6910617" lon="8.7674833"><ele>275.5</ele><time>2026-03-29T08:39:56.943Z</time></trkpt><trkpt lat="45.69115" lon="8.7671583"><ele>276.0</ele><time>2026-03-29T08:39:57.944Z</time></trkpt><trkpt lat="45.69124" lon="8.7668233"><ele>276.5</ele><time>2026-03-29T08:39:58.944Z</time></trkpt><trkpt lat="45.6913317" lon="8.766495"><ele>277.0</ele><time>2026-03-29T08:39:59.944Z</time></trkpt><trkpt lat="45.69142" lon="8.7661717"><ele>278.0</ele><time>2026-03-29T08:40:00.943Z</time></trkpt><trkpt lat="45.6915033" lon="8.765825"><ele>279.0</ele><time>2026-03-29T08:40:01.944Z</time></trkpt><trkpt lat="45.6915883" lon="8.765495"><ele>280.0</ele><time>2026-03-29T08:40:02.943Z</time></trkpt><trkpt lat="45.6916717" lon="8.76515"><ele>281.0</ele><time>2026-03-29T08:40:03.944Z</time></trkpt><trkpt lat="45.6917617" lon="8.7648083"><ele>281.0</ele><time>2026-03-29T08:40:04.944Z</time></trkpt><trkpt lat="45.6918567" lon="8.7644683"><ele>281.0</ele><time>2026-03-29T08:40:05.944Z</time></trkpt><trkpt lat="45.6919483" lon="8.7641233"><ele>279.0</ele><time>2026-03-29T08:40:06.944Z</time></trkpt><trkpt lat="45.69204" lon="8.7637833"><ele>277.0</ele><time>2026-03-29T08:40:07.944Z</time></trkpt><trkpt lat="45.6921333" lon="8.763435"><ele>277.0</ele><time>2026-03-29T08:40:08.944Z</time></trkpt><trkpt lat="45.69222" lon="8.7630867"><ele>277.0</ele><time>2026-03-29T08:40:09.944Z</time></trkpt><trkpt lat="45.6923083" lon="8.7627383"><ele>278.5</ele><time>2026-03-29T08:40:10.944Z</time></trkpt><trkpt lat="45.6924017" lon="8.7623933"><ele>280.0</ele><time>2026-03-29T08:40:11.943Z</time></trkpt><trkpt lat="45.6925" lon="8.762025"><ele>280.0</ele><time>2026-03-29T08:40:12.944Z</time></trkpt><trkpt lat="45.6926033" lon="8.7616533"><ele>280.0</ele><time>2026-03-29T08:40:13.944Z</time></trkpt><trkpt lat="45.6927067" lon="8.76128"><ele>280.0</ele><time>2026-03-29T08:40:14.943Z</time></trkpt><trkpt lat="45.69281" lon="8.7609133"><ele>280.0</ele><time>2026-03-29T08:40:15.944Z</time></trkpt><trkpt lat="45.6929133" lon="8.7605483"><ele>280.0</ele><time>2026-03-29T08:40:16.944Z</time></trkpt><trkpt lat="45.69301" lon="8.760175"><ele>280.0</ele><time>2026-03-29T08:40:17.944Z</time></trkpt><trkpt lat="45.6931067" lon="8.75981"><ele>280.0</ele><time>2026-03-29T08:40:18.944Z</time></trkpt><trkpt lat="45.6932017" lon="8.7594417"><ele>280.0</ele><time>2026-03-29T08:40:19.944Z</time></trkpt><trkpt lat="45.6932917" lon="8.7590667"><ele>280.0</ele><time>2026-03-29T08:40:20.944Z</time></trkpt><trkpt lat="45.6933867" lon="8.7586917"><ele>280.0</ele><time>2026-03-29T08:40:21.944Z</time></trkpt><trkpt lat="45.69349" lon="8.7583083"><ele>281.0</ele><time>2026-03-29T08:40:22.944Z</time></trkpt><trkpt lat="45.6935917" lon="8.7579433"><ele>282.0</ele><time>2026-03-29T08:40:23.944Z</time></trkpt><trkpt lat="45.693695" lon="8.7575717"><ele>282.0</ele><time>2026-03-29T08:40:24.944Z</time></trkpt><trkpt lat="45.693795" lon="8.7571917"><ele>282.0</ele><time>2026-03-29T08:40:25.944Z</time></trkpt><trkpt lat="45.6938967" lon="8.7568183"><ele>282.5</ele><time>2026-03-29T08:40:26.944Z</time></trkpt><trkpt lat="45.6939983" lon="8.7564467"><ele>283.0</ele><time>2026-03-29T08:40:27.944Z</time></trkpt><trkpt lat="45.6941133" lon="8.7560717"><ele>284.5</ele><time>2026-03-29T08:40:28.944Z</time></trkpt><trkpt lat="45.6942217" lon="8.755705"><ele>286.0</ele><time>2026-03-29T08:40:29.944Z</time></trkpt><trkpt lat="45.694335" lon="8.7553433"><ele>287.0</ele><time>2026-03-29T08:40:30.944Z</time></trkpt><trkpt lat="45.6944617" lon="8.7549817"><ele>288.0</ele><time>2026-03-29T08:40:31.944Z</time></trkpt><trkpt lat="45.69459" lon="8.7546533"><ele>287.0</ele><time>2026-03-29T08:40:32.944Z</time></trkpt><trkpt lat="45.694705" lon="8.7543183"><ele>286.0</ele><time>2026-03-29T08:40:33.944Z</time></trkpt><trkpt lat="45.694825" lon="8.7540117"><ele>286.0</ele><time>2026-03-29T08:40:34.944Z</time></trkpt><trkpt lat="45.6949483" lon="8.7537167"><ele>286.0</ele><time>2026-03-29T08:40:35.944Z</time></trkpt><trkpt lat="45.695065" lon="8.7534333"><ele>286.0</ele><time>2026-03-29T08:40:36.944Z</time></trkpt><trkpt lat="45.695195" lon="8.75314"><ele>286.0</ele><time>2026-03-29T08:40:37.943Z</time></trkpt><trkpt lat="45.6953233" lon="8.7528583"><ele>286.0</ele><time>2026-03-29T08:40:38.944Z</time></trkpt><trkpt lat="45.69545" lon="8.7525733"><ele>286.0</ele><time>2026-03-29T08:40:39.944Z</time></trkpt><trkpt lat="45.69558" lon="8.752295"><ele>286.0</ele><time>2026-03-29T08:40:40.944Z</time></trkpt><trkpt lat="45.695705" lon="8.75201"><ele>286.0</ele><time>2026-03-29T08:40:41.944Z</time></trkpt><trkpt lat="45.6958367" lon="8.7517267"><ele>288.5</ele><time>2026-03-29T08:40:42.944Z</time></trkpt><trkpt lat="45.6959567" lon="8.7514517"><ele>291.0</ele><time>2026-03-29T08:40:43.944Z</time></trkpt><trkpt lat="45.6960817" lon="8.7511717"><ele>293.5</ele><time>2026-03-29T08:40:44.944Z</time></trkpt><trkpt lat="45.6962067" lon="8.7508933"><ele>296.0</ele><time>2026-03-29T08:40:45.944Z</time></trkpt><trkpt lat="45.69633" lon="8.7506217"><ele>296.0</ele><time>2026-03-29T08:40:46.944Z</time></trkpt><trkpt lat="45.6964533" lon="8.7503217"><ele>296.0</ele><time>2026-03-29T08:40:47.944Z</time></trkpt><trkpt lat="45.6965833" lon="8.7500283"><ele>297.0</ele><time>2026-03-29T08:40:48.944Z</time></trkpt><trkpt lat="45.69671" lon="8.74972"><ele>298.0</ele><time>2026-03-29T08:40:49.944Z</time></trkpt><trkpt lat="45.6968383" lon="8.7494017"><ele>298.5</ele><time>2026-03-29T08:40:50.944Z</time></trkpt><trkpt lat="45.6969833" lon="8.7490783"><ele>299.0</ele><time>2026-03-29T08:40:51.944Z</time></trkpt><trkpt lat="45.6971267" lon="8.74875"><ele>299.0</ele><time>2026-03-29T08:40:52.944Z</time></trkpt><trkpt lat="45.69729" lon="8.748425"><ele>299.0</ele><time>2026-03-29T08:40:53.944Z</time></trkpt><trkpt lat="45.69744" lon="8.7480867"><ele>299.0</ele><time>2026-03-29T08:40:54.944Z</time></trkpt><trkpt lat="45.6976" lon="8.747735"><ele>299.0</ele><time>2026-03-29T08:40:55.944Z</time></trkpt><trkpt lat="45.6977617" lon="8.7473717"><ele>298.0</ele><time>2026-03-29T08:40:56.944Z</time></trkpt><trkpt lat="45.6979317" lon="8.7470033"><ele>297.0</ele><time>2026-03-29T08:40:57.944Z</time></trkpt><trkpt lat="45.6980983" lon="8.7466167"><ele>296.5</ele><time>2026-03-29T08:40:58.944Z</time></trkpt><trkpt lat="45.6982683" lon="8.74623"><ele>296.0</ele><time>2026-03-29T08:40:59.944Z</time></trkpt><trkpt lat="45.69844" lon="8.7458333"><ele>297.5</ele><time>2026-03-29T08:41:00.944Z</time></trkpt><trkpt lat="45.6986117" lon="8.74545"><ele>299.0</ele><time>2026-03-29T08:41:01.943Z</time></trkpt><trkpt lat="45.6987817" lon="8.7450717"><ele>299.0</ele><time>2026-03-29T08:41:02.944Z</time></trkpt><trkpt lat="45.698955" lon="8.7447"><ele>299.0</ele><time>2026-03-29T08:41:03.944Z</time></trkpt><trkpt lat="45.6991183" lon="8.7443383"><ele>299.0</ele><time>2026-03-29T08:41:04.943Z</time></trkpt><trkpt lat="45.6993" lon="8.7439717"><ele>299.0</ele><time>2026-03-29T08:41:05.943Z</time></trkpt><trkpt lat="45.69948" lon="8.7436067"><ele>299.5</ele><time>2026-03-29T08:41:06.944Z</time></trkpt><trkpt lat="45.6996583" lon="8.74325"><ele>300.0</ele><time>2026-03-29T08:41:07.944Z</time></trkpt><trkpt lat="45.699825" lon="8.742885"><ele>300.5</ele><time>2026-03-29T08:41:08.943Z</time></trkpt><trkpt lat="45.7" lon="8.742525"><ele>301.0</ele><time>2026-03-29T08:41:09.944Z</time></trkpt><trkpt lat="45.70015" lon="8.742165"><ele>303.5</ele><time>2026-03-29T08:41:10.944Z</time></trkpt><trkpt lat="45.7003167" lon="8.7418133"><ele>306.0</ele><time>2026-03-29T08:41:11.944Z</time></trkpt><trkpt lat="45.700485" lon="8.74146"><ele>306.0</ele><time>2026-03-29T08:41:12.944Z</time></trkpt><trkpt lat="45.7006533" lon="8.74111"><ele>306.0</ele><time>2026-03-29T08:41:13.944Z</time></trkpt><trkpt lat="45.7008133" lon="8.74076"><ele>306.0</ele><time>2026-03-29T08:41:14.944Z</time></trkpt><trkpt lat="45.7009733" lon="8.7404067"><ele>306.0</ele><time>2026-03-29T08:41:15.943Z</time></trkpt><trkpt lat="45.701135" lon="8.7400517"><ele>307.5</ele><time>2026-03-29T08:41:16.943Z</time></trkpt><trkpt lat="45.7012867" lon="8.7396883"><ele>309.0</ele><time>2026-03-29T08:41:17.944Z</time></trkpt><trkpt lat="45.7014367" lon="8.7393317"><ele>309.0</ele><time>2026-03-29T08:41:18.944Z</time></trkpt><trkpt lat="45.7015933" lon="8.7389683"><ele>309.0</ele><time>2026-03-29T08:41:19.944Z</time></trkpt><trkpt lat="45.701755" lon="8.7386067"><ele>309.0</ele><time>2026-03-29T08:41:20.944Z</time></trkpt><trkpt lat="45.70191" lon="8.7382467"><ele>309.0</ele><time>2026-03-29T08:41:21.944Z</time></trkpt><trkpt lat="45.7020767" lon="8.7378783"><ele>307.0</ele><time>2026-03-29T08:41:22.944Z</time></trkpt><trkpt lat="45.70224" lon="8.737525"><ele>305.0</ele><time>2026-03-29T08:41:23.944Z</time></trkpt><trkpt lat="45.7024033" lon="8.73717"><ele>304.5</ele><time>2026-03-29T08:41:24.944Z</time></trkpt><trkpt lat="45.7025717" lon="8.7368117"><ele>304.0</ele><time>2026-03-29T08:41:25.944Z</time></trkpt><trkpt lat="45.7027417" lon="8.736445"><ele>302.5</ele><time>2026-03-29T08:41:26.944Z</time></trkpt><trkpt lat="45.7028983" lon="8.7360883"><ele>301.0</ele><time>2026-03-29T08:41:27.944Z</time></trkpt><trkpt lat="45.703065" lon="8.7357217"><ele>300.0</ele><time>2026-03-29T08:41:28.944Z</time></trkpt><trkpt lat="45.7032283" lon="8.735355"><ele>299.0</ele><time>2026-03-29T08:41:29.944Z</time></trkpt><trkpt lat="45.7033967" lon="8.734985"><ele>298.5</ele><time>2026-03-29T08:41:30.943Z</time></trkpt><trkpt lat="45.7035617" lon="8.7346333"><ele>298.0</ele><time>2026-03-29T08:41:31.944Z</time></trkpt><trkpt lat="45.7037283" lon="8.7342783"><ele>300.0</ele><time>2026-03-29T08:41:32.944Z</time></trkpt><trkpt lat="45.703885" lon="8.733915"><ele>302.0</ele><time>2026-03-29T08:41:33.944Z</time></trkpt><trkpt lat="45.704045" lon="8.73356"><ele>303.5</ele><time>2026-03-29T08:41:34.944Z</time></trkpt><trkpt lat="45.7042133" lon="8.7331883"><ele>305.0</ele><time>2026-03-29T08:41:35.944Z</time></trkpt><trkpt lat="45.7043767" lon="8.7328183"><ele>304.0</ele><time>2026-03-29T08:41:36.944Z</time></trkpt><trkpt lat="45.7045367" lon="8.7324567"><ele>303.0</ele><time>2026-03-29T08:41:37.944Z</time></trkpt><trkpt lat="45.7047033" lon="8.7320917"><ele>303.5</ele><time>2026-03-29T08:41:38.943Z</time></trkpt><trkpt lat="45.7048633" lon="8.7317217"><ele>304.0</ele><time>2026-03-29T08:41:39.944Z</time></trkpt><trkpt lat="45.7050267" lon="8.7313517"><ele>304.5</ele><time>2026-03-29T08:41:40.944Z</time></trkpt><trkpt lat="45.7051817" lon="8.73098"><ele>305.0</ele><time>2026-03-29T08:41:41.944Z</time></trkpt><trkpt lat="45.7053433" lon="8.73061"><ele>305.0</ele><time>2026-03-29T08:41:42.944Z</time></trkpt><trkpt lat="45.705495" lon="8.7302417"><ele>305.0</ele><time>2026-03-29T08:41:43.944Z</time></trkpt><trkpt lat="45.7056533" lon="8.7298767"><ele>305.0</ele><time>2026-03-29T08:41:44.944Z</time></trkpt><trkpt lat="45.7058083" lon="8.7295217"><ele>305.0</ele><time>2026-03-29T08:41:45.944Z</time></trkpt><trkpt lat="45.7059683" lon="8.72916"><ele>297.5</ele><time>2026-03-29T08:41:46.944Z</time></trkpt><trkpt lat="45.7061283" lon="8.7288033"><ele>290.0</ele><time>2026-03-29T08:41:47.944Z</time></trkpt><trkpt lat="45.706295" lon="8.72844"><ele>290.0</ele><time>2026-03-29T08:41:48.944Z</time></trkpt><trkpt lat="45.7064633" lon="8.7280783"><ele>290.0</ele><time>2026-03-29T08:41:49.944Z</time></trkpt><trkpt lat="45.706625" lon="8.7277167"><ele>290.5</ele><time>2026-03-29T08:41:50.944Z</time></trkpt><trkpt lat="45.7067883" lon="8.7273533"><ele>291.0</ele><time>2026-03-29T08:41:51.944Z</time></trkpt><trkpt lat="45.7069617" lon="8.7269833"><ele>293.0</ele><time>2026-03-29T08:41:52.944Z</time></trkpt><trkpt lat="45.707135" lon="8.72662"><ele>295.0</ele><time>2026-03-29T08:41:53.944Z</time></trkpt><trkpt lat="45.70732" lon="8.7262683"><ele>294.0</ele><time>2026-03-29T08:41:54.943Z</time></trkpt><trkpt lat="45.7074933" lon="8.7259217"><ele>293.0</ele><time>2026-03-29T08:41:55.944Z</time></trkpt><trkpt lat="45.7076533" lon="8.7255683"><ele>290.5</ele><time>2026-03-29T08:41:56.944Z</time></trkpt><trkpt lat="45.70781" lon="8.7252133"><ele>288.0</ele><time>2026-03-29T08:41:57.944Z</time></trkpt><trkpt lat="45.70797" lon="8.72487"><ele>288.0</ele><time>2026-03-29T08:41:58.944Z</time></trkpt><trkpt lat="45.7081133" lon="8.72452"><ele>288.0</ele><time>2026-03-29T08:41:59.944Z</time></trkpt><trkpt lat="45.70824" lon="8.7242017"><ele>286.0</ele><time>2026-03-29T08:42:00.944Z</time></trkpt><trkpt lat="45.7083683" lon="8.7239017"><ele>284.0</ele><time>2026-03-29T08:42:01.944Z</time></trkpt><trkpt lat="45.7085017" lon="8.7236083"><ele>282.0</ele><time>2026-03-29T08:42:02.944Z</time></trkpt><trkpt lat="45.7086367" lon="8.7233133"><ele>280.0</ele><time>2026-03-29T08:42:03.944Z</time></trkpt><trkpt lat="45.7087683" lon="8.723015"><ele>280.5</ele><time>2026-03-29T08:42:04.944Z</time></trkpt><trkpt lat="45.7089017" lon="8.722725"><ele>281.0</ele><time>2026-03-29T08:42:05.944Z</time></trkpt><trkpt lat="45.70904" lon="8.7224183"><ele>281.0</ele><time>2026-03-29T08:42:06.944Z</time></trkpt><trkpt lat="45.709175" lon="8.7221"><ele>281.0</ele><time>2026-03-29T08:42:07.944Z</time></trkpt><trkpt lat="45.7093067" lon="8.7217633"><ele>279.0</ele><time>2026-03-29T08:42:08.944Z</time></trkpt><trkpt lat="45.7094583" lon="8.7214167"><ele>277.0</ele><time>2026-03-29T08:42:09.944Z</time></trkpt><trkpt lat="45.7096117" lon="8.7210933"><ele>276.5</ele><time>2026-03-29T08:42:10.944Z</time></trkpt><trkpt lat="45.709765" lon="8.7207617"><ele>276.0</ele><time>2026-03-29T08:42:11.944Z</time></trkpt><trkpt lat="45.709925" lon="8.7204267"><ele>276.5</ele><time>2026-03-29T08:42:12.944Z</time></trkpt><trkpt lat="45.710095" lon="8.7200817"><ele>277.0</ele><time>2026-03-29T08:42:13.944Z</time></trkpt><trkpt lat="45.7102633" lon="8.7197333"><ele>276.0</ele><time>2026-03-29T08:42:14.944Z</time></trkpt><trkpt lat="45.7104217" lon="8.71938"><ele>275.0</ele><time>2026-03-29T08:42:15.944Z</time></trkpt><trkpt lat="45.7105817" lon="8.7190217"><ele>275.0</ele><time>2026-03-29T08:42:16.943Z</time></trkpt><trkpt lat="45.7107333" lon="8.7186567"><ele>275.0</ele><time>2026-03-29T08:42:17.944Z</time></trkpt><trkpt lat="45.7108883" lon="8.7182917"><ele>274.5</ele><time>2026-03-29T08:42:18.944Z</time></trkpt><trkpt lat="45.71105" lon="8.717935"><ele>274.0</ele><time>2026-03-29T08:42:19.944Z</time></trkpt><trkpt lat="45.7112183" lon="8.71758"><ele>272.5</ele><time>2026-03-29T08:42:20.943Z</time></trkpt><trkpt lat="45.7113867" lon="8.7172183"><ele>271.0</ele><time>2026-03-29T08:42:21.944Z</time></trkpt><trkpt lat="45.71155" lon="8.7168517"><ele>270.5</ele><time>2026-03-29T08:42:22.944Z</time></trkpt><trkpt lat="45.7117183" lon="8.7164817"><ele>270.0</ele><time>2026-03-29T08:42:23.944Z</time></trkpt><trkpt lat="45.7118883" lon="8.716105"><ele>266.5</ele><time>2026-03-29T08:42:24.944Z</time></trkpt><trkpt lat="45.71206" lon="8.715725"><ele>263.0</ele><time>2026-03-29T08:42:25.944Z</time></trkpt><trkpt lat="45.7122233" lon="8.7153383"><ele>262.0</ele><time>2026-03-29T08:42:26.944Z</time></trkpt><trkpt lat="45.7123933" lon="8.7149583"><ele>261.0</ele><time>2026-03-29T08:42:27.944Z</time></trkpt><trkpt lat="45.7125667" lon="8.714575"><ele>260.0</ele><time>2026-03-29T08:42:28.944Z</time></trkpt><trkpt lat="45.712735" lon="8.7141933"><ele>259.0</ele><time>2026-03-29T08:42:29.944Z</time></trkpt><trkpt lat="45.7129033" lon="8.713815"><ele>261.5</ele><time>2026-03-29T08:42:30.944Z</time></trkpt><trkpt lat="45.7130633" lon="8.7134467"><ele>264.0</ele><time>2026-03-29T08:42:31.943Z</time></trkpt><trkpt lat="45.7132333" lon="8.7130667"><ele>265.5</ele><time>2026-03-29T08:42:32.943Z</time></trkpt><trkpt lat="45.713405" lon="8.7127"><ele>267.0</ele><time>2026-03-29T08:42:33.943Z</time></trkpt><trkpt lat="45.713585" lon="8.7123183"><ele>269.0</ele><time>2026-03-29T08:42:34.943Z</time></trkpt><trkpt lat="45.71376" lon="8.7119367"><ele>271.0</ele><time>2026-03-29T08:42:35.943Z</time></trkpt><trkpt lat="45.7139317" lon="8.711555"><ele>271.0</ele><time>2026-03-29T08:42:36.943Z</time></trkpt><trkpt lat="45.7141117" lon="8.711185"><ele>271.0</ele><time>2026-03-29T08:42:37.943Z</time></trkpt><trkpt lat="45.7142783" lon="8.710825"><ele>271.0</ele><time>2026-03-29T08:42:38.943Z</time></trkpt><trkpt lat="45.7144533" lon="8.7104683"><ele>271.0</ele><time>2026-03-29T08:42:39.942Z</time></trkpt><trkpt lat="45.714625" lon="8.7101083"><ele>271.0</ele><time>2026-03-29T08:42:40.942Z</time></trkpt><trkpt lat="45.714805" lon="8.7097533"><ele>271.0</ele><time>2026-03-29T08:42:41.943Z</time></trkpt><trkpt lat="45.7149817" lon="8.7094"><ele>269.5</ele><time>2026-03-29T08:42:42.942Z</time></trkpt><trkpt lat="45.7151417" lon="8.70904"><ele>268.0</ele><time>2026-03-29T08:42:43.943Z</time></trkpt><trkpt lat="45.7153017" lon="8.7086833"><ele>270.0</ele><time>2026-03-29T08:42:44.943Z</time></trkpt><trkpt lat="45.7154567" lon="8.708325"><ele>272.0</ele><time>2026-03-29T08:42:45.942Z</time></trkpt><trkpt lat="45.71578" lon="8.7075967"><ele>273.0</ele><time>2026-03-29T08:42:47.943Z</time></trkpt><trkpt lat="45.7159367" lon="8.7072333"><ele>274.0</ele><time>2026-03-29T08:42:48.943Z</time></trkpt><trkpt lat="45.7161067" lon="8.7068683"><ele>274.0</ele><time>2026-03-29T08:42:49.942Z</time></trkpt><trkpt lat="45.71628" lon="8.7064883"><ele>274.0</ele><time>2026-03-29T08:42:50.942Z</time></trkpt><trkpt lat="45.716455" lon="8.70612"><ele>272.5</ele><time>2026-03-29T08:42:51.943Z</time></trkpt><trkpt lat="45.716615" lon="8.7057483"><ele>271.0</ele><time>2026-03-29T08:42:52.943Z</time></trkpt><trkpt lat="45.7167817" lon="8.7053767"><ele>269.5</ele><time>2026-03-29T08:42:53.943Z</time></trkpt><trkpt lat="45.71695" lon="8.705"><ele>268.0</ele><time>2026-03-29T08:42:54.943Z</time></trkpt><trkpt lat="45.717115" lon="8.704625"><ele>268.0</ele><time>2026-03-29T08:42:55.942Z</time></trkpt><trkpt lat="45.7172783" lon="8.7042483"><ele>268.0</ele><time>2026-03-29T08:42:56.943Z</time></trkpt><trkpt lat="45.7174433" lon="8.7038733"><ele>267.0</ele><time>2026-03-29T08:42:57.943Z</time></trkpt><trkpt lat="45.71761" lon="8.7034917"><ele>266.0</ele><time>2026-03-29T08:42:58.943Z</time></trkpt><trkpt lat="45.7177933" lon="8.7031233"><ele>266.0</ele><time>2026-03-29T08:42:59.943Z</time></trkpt><trkpt lat="45.7181383" lon="8.7023933"><ele>266.0</ele><time>2026-03-29T08:43:01.943Z</time></trkpt><trkpt lat="45.718305" lon="8.7020367"><ele>266.0</ele><time>2026-03-29T08:43:02.943Z</time></trkpt><trkpt lat="45.7184667" lon="8.7016717"><ele>266.0</ele><time>2026-03-29T08:43:03.943Z</time></trkpt><trkpt lat="45.7186217" lon="8.701325"><ele>266.0</ele><time>2026-03-29T08:43:04.943Z</time></trkpt><trkpt lat="45.7187583" lon="8.701"><ele>266.0</ele><time>2026-03-29T08:43:05.943Z</time></trkpt><trkpt lat="45.7188983" lon="8.7006983"><ele>266.0</ele><time>2026-03-29T08:43:06.942Z</time></trkpt><trkpt lat="45.719035" lon="8.700405"><ele>266.5</ele><time>2026-03-29T08:43:07.943Z</time></trkpt><trkpt lat="45.7191733" lon="8.7001117"><ele>267.0</ele><time>2026-03-29T08:43:08.943Z</time></trkpt><trkpt lat="45.71931" lon="8.6998217"><ele>267.0</ele><time>2026-03-29T08:43:09.943Z</time></trkpt><trkpt lat="45.71944" lon="8.6995133"><ele>267.0</ele><time>2026-03-29T08:43:10.943Z</time></trkpt><trkpt lat="45.7195583" lon="8.6992"><ele>267.0</ele><time>2026-03-29T08:43:11.943Z</time></trkpt><trkpt lat="45.71967" lon="8.6988633"><ele>267.0</ele><time>2026-03-29T08:43:12.943Z</time></trkpt><trkpt lat="45.71976" lon="8.6985217"><ele>268.0</ele><time>2026-03-29T08:43:13.943Z</time></trkpt><trkpt lat="45.7198367" lon="8.698165"><ele>269.0</ele><time>2026-03-29T08:43:14.943Z</time></trkpt><trkpt lat="45.7198967" lon="8.6978117"><ele>269.0</ele><time>2026-03-29T08:43:15.943Z</time></trkpt><trkpt lat="45.7199517" lon="8.6974467"><ele>269.0</ele><time>2026-03-29T08:43:16.943Z</time></trkpt><trkpt lat="45.7199917" lon="8.6970767"><ele>268.0</ele><time>2026-03-29T08:43:17.942Z</time></trkpt><trkpt lat="45.7200067" lon="8.6967133"><ele>267.0</ele><time>2026-03-29T08:43:18.943Z</time></trkpt><trkpt lat="45.7200167" lon="8.696355"><ele>267.5</ele><time>2026-03-29T08:43:19.943Z</time></trkpt><trkpt lat="45.72003" lon="8.696"><ele>268.0</ele><time>2026-03-29T08:43:20.943Z</time></trkpt><trkpt lat="45.7200433" lon="8.6956383"><ele>268.0</ele><time>2026-03-29T08:43:21.943Z</time></trkpt><trkpt lat="45.7200533" lon="8.69528"><ele>268.0</ele><time>2026-03-29T08:43:22.943Z</time></trkpt><trkpt lat="45.7200717" lon="8.6949217"><ele>267.5</ele><time>2026-03-29T08:43:23.942Z</time></trkpt><trkpt lat="45.7200933" lon="8.694565"><ele>267.0</ele><time>2026-03-29T08:43:24.943Z</time></trkpt><trkpt lat="45.7201133" lon="8.6941933"><ele>267.0</ele><time>2026-03-29T08:43:25.943Z</time></trkpt><trkpt lat="45.7201217" lon="8.69385"><ele>267.0</ele><time>2026-03-29T08:43:26.943Z</time></trkpt><trkpt lat="45.7201367" lon="8.6935033"><ele>266.5</ele><time>2026-03-29T08:43:27.943Z</time></trkpt><trkpt lat="45.7201517" lon="8.69317"><ele>266.0</ele><time>2026-03-29T08:43:28.943Z</time></trkpt><trkpt lat="45.7201667" lon="8.6928283"><ele>265.0</ele><time>2026-03-29T08:43:29.943Z</time></trkpt><trkpt lat="45.7201817" lon="8.6924867"><ele>264.0</ele><time>2026-03-29T08:43:30.943Z</time></trkpt><trkpt lat="45.720195" lon="8.6921367"><ele>264.0</ele><time>2026-03-29T08:43:31.943Z</time></trkpt><trkpt lat="45.7202133" lon="8.691785"><ele>264.0</ele><time>2026-03-29T08:43:32.943Z</time></trkpt><trkpt lat="45.720235" lon="8.691445"><ele>264.0</ele><time>2026-03-29T08:43:33.943Z</time></trkpt><trkpt lat="45.7202467" lon="8.6911"><ele>264.0</ele><time>2026-03-29T08:43:34.943Z</time></trkpt><trkpt lat="45.720255" lon="8.6907583"><ele>263.5</ele><time>2026-03-29T08:43:35.943Z</time></trkpt><trkpt lat="45.7202717" lon="8.690425"><ele>263.0</ele><time>2026-03-29T08:43:36.943Z</time></trkpt><trkpt lat="45.72029" lon="8.6900917"><ele>263.0</ele><time>2026-03-29T08:43:37.943Z</time></trkpt><trkpt lat="45.7203083" lon="8.689765"><ele>263.0</ele><time>2026-03-29T08:43:38.943Z</time></trkpt><trkpt lat="45.7203233" lon="8.6894333"><ele>263.5</ele><time>2026-03-29T08:43:39.943Z</time></trkpt><trkpt lat="45.72034" lon="8.6891"><ele>264.0</ele><time>2026-03-29T08:43:40.943Z</time></trkpt><trkpt lat="45.7203567" lon="8.6887567"><ele>270.0</ele><time>2026-03-29T08:43:41.943Z</time></trkpt><trkpt lat="45.720365" lon="8.688425"><ele>276.0</ele><time>2026-03-29T08:43:42.942Z</time></trkpt><trkpt lat="45.7203883" lon="8.6877433"><ele>283.0</ele><time>2026-03-29T08:43:44.943Z</time></trkpt><trkpt lat="45.7204017" lon="8.687405"><ele>290.0</ele><time>2026-03-29T08:43:45.943Z</time></trkpt><trkpt lat="45.7204217" lon="8.6870483"><ele>291.0</ele><time>2026-03-29T08:43:46.943Z</time></trkpt><trkpt lat="45.72044" lon="8.6866967"><ele>292.0</ele><time>2026-03-29T08:43:47.943Z</time></trkpt><trkpt lat="45.72045" lon="8.6863533"><ele>285.0</ele><time>2026-03-29T08:43:48.943Z</time></trkpt><trkpt lat="45.7204717" lon="8.6859933"><ele>278.0</ele><time>2026-03-29T08:43:49.943Z</time></trkpt><trkpt lat="45.7205033" lon="8.68563"><ele>273.0</ele><time>2026-03-29T08:43:50.943Z</time></trkpt><trkpt lat="45.720525" lon="8.6852517"><ele>268.0</ele><time>2026-03-29T08:43:51.943Z</time></trkpt><trkpt lat="45.72054" lon="8.6848733"><ele>268.0</ele><time>2026-03-29T08:43:52.942Z</time></trkpt><trkpt lat="45.72056" lon="8.6844917"><ele>268.0</ele><time>2026-03-29T08:43:53.943Z</time></trkpt><trkpt lat="45.720605" lon="8.6837133"><ele>271.0</ele><time>2026-03-29T08:43:55.943Z</time></trkpt><trkpt lat="45.7206217" lon="8.6833283"><ele>274.0</ele><time>2026-03-29T08:43:56.943Z</time></trkpt><trkpt lat="45.7206517" lon="8.6829483"><ele>274.0</ele><time>2026-03-29T08:43:57.943Z</time></trkpt><trkpt lat="45.7206783" lon="8.6825533"><ele>274.0</ele><time>2026-03-29T08:43:58.943Z</time></trkpt><trkpt lat="45.72071" lon="8.6821683"><ele>274.5</ele><time>2026-03-29T08:43:59.943Z</time></trkpt><trkpt lat="45.7207417" lon="8.6817783"><ele>275.0</ele><time>2026-03-29T08:44:00.943Z</time></trkpt><trkpt lat="45.7207683" lon="8.681385"><ele>274.5</ele><time>2026-03-29T08:44:01.943Z</time></trkpt><trkpt lat="45.7207967" lon="8.6809933"><ele>274.0</ele><time>2026-03-29T08:44:02.943Z</time></trkpt><trkpt lat="45.720825" lon="8.6806133"><ele>274.0</ele><time>2026-03-29T08:44:03.943Z</time></trkpt><trkpt lat="45.7208467" lon="8.6802233"><ele>274.0</ele><time>2026-03-29T08:44:04.943Z</time></trkpt><trkpt lat="45.7208717" lon="8.679825"><ele>274.5</ele><time>2026-03-29T08:44:05.943Z</time></trkpt><trkpt lat="45.720895" lon="8.6794267"><ele>275.0</ele><time>2026-03-29T08:44:06.943Z</time></trkpt><trkpt lat="45.7209567" lon="8.67863"><ele>274.0</ele><time>2026-03-29T08:44:08.943Z</time></trkpt><trkpt lat="45.7209933" lon="8.678215"><ele>273.0</ele><time>2026-03-29T08:44:09.943Z</time></trkpt><trkpt lat="45.72103" lon="8.6778117"><ele>272.0</ele><time>2026-03-29T08:44:10.943Z</time></trkpt><trkpt lat="45.7210567" lon="8.6774167"><ele>271.0</ele><time>2026-03-29T08:44:11.943Z</time></trkpt><trkpt lat="45.721075" lon="8.6770117"><ele>271.5</ele><time>2026-03-29T08:44:12.943Z</time></trkpt><trkpt lat="45.7210817" lon="8.6766133"><ele>272.0</ele><time>2026-03-29T08:44:13.943Z</time></trkpt><trkpt lat="45.7210833" lon="8.6762233"><ele>270.0</ele><time>2026-03-29T08:44:14.943Z</time></trkpt><trkpt lat="45.721075" lon="8.6758233"><ele>268.0</ele><time>2026-03-29T08:44:15.943Z</time></trkpt><trkpt lat="45.7210567" lon="8.6754283"><ele>268.5</ele><time>2026-03-29T08:44:16.942Z</time></trkpt><trkpt lat="45.7210233" lon="8.6750267"><ele>269.0</ele><time>2026-03-29T08:44:17.943Z</time></trkpt><trkpt lat="45.7209783" lon="8.674645"><ele>265.5</ele><time>2026-03-29T08:44:18.943Z</time></trkpt><trkpt lat="45.720945" lon="8.6742583"><ele>262.0</ele><time>2026-03-29T08:44:19.943Z</time></trkpt><trkpt lat="45.7208883" lon="8.6738667"><ele>261.5</ele><time>2026-03-29T08:44:20.943Z</time></trkpt><trkpt lat="45.7208317" lon="8.673485"><ele>261.0</ele><time>2026-03-29T08:44:21.943Z</time></trkpt><trkpt lat="45.7207617" lon="8.6731033"><ele>259.0</ele><time>2026-03-29T08:44:22.943Z</time></trkpt><trkpt lat="45.7206767" lon="8.6727283"><ele>257.0</ele><time>2026-03-29T08:44:23.943Z</time></trkpt><trkpt lat="45.7205817" lon="8.672365"><ele>257.0</ele><time>2026-03-29T08:44:24.943Z</time></trkpt><trkpt lat="45.7204717" lon="8.672015"><ele>257.0</ele><time>2026-03-29T08:44:25.943Z</time></trkpt><trkpt lat="45.7203833" lon="8.6716867"><ele>255.5</ele><time>2026-03-29T08:44:26.943Z</time></trkpt><trkpt lat="45.720265" lon="8.6713567"><ele>254.0</ele><time>2026-03-29T08:44:27.943Z</time></trkpt><trkpt lat="45.720135" lon="8.6710317"><ele>257.0</ele><time>2026-03-29T08:44:28.943Z</time></trkpt><trkpt lat="45.719995" lon="8.67071"><ele>260.0</ele><time>2026-03-29T08:44:29.943Z</time></trkpt><trkpt lat="45.71985" lon="8.6703767"><ele>255.0</ele><time>2026-03-29T08:44:30.943Z</time></trkpt><trkpt lat="45.71971" lon="8.6700533"><ele>250.0</ele><time>2026-03-29T08:44:31.943Z</time></trkpt><trkpt lat="45.71956" lon="8.6697233"><ele>252.0</ele><time>2026-03-29T08:44:32.942Z</time></trkpt><trkpt lat="45.7194" lon="8.669395"><ele>254.0</ele><time>2026-03-29T08:44:33.943Z</time></trkpt><trkpt lat="45.7192333" lon="8.6690683"><ele>254.0</ele><time>2026-03-29T08:44:34.943Z</time></trkpt><trkpt lat="45.7190533" lon="8.66875"><ele>254.0</ele><time>2026-03-29T08:44:35.943Z</time></trkpt><trkpt lat="45.71886" lon="8.6684433"><ele>255.0</ele><time>2026-03-29T08:44:36.943Z</time></trkpt><trkpt lat="45.71865" lon="8.6681433"><ele>256.0</ele><time>2026-03-29T08:44:37.943Z</time></trkpt><trkpt lat="45.7184433" lon="8.6678533"><ele>255.0</ele><time>2026-03-29T08:44:38.943Z</time></trkpt><trkpt lat="45.718235" lon="8.66758"><ele>254.0</ele><time>2026-03-29T08:44:39.942Z</time></trkpt><trkpt lat="45.7180183" lon="8.6673183"><ele>254.0</ele><time>2026-03-29T08:44:40.943Z</time></trkpt><trkpt lat="45.7177967" lon="8.66707"><ele>254.0</ele><time>2026-03-29T08:44:41.942Z</time></trkpt><trkpt lat="45.7175583" lon="8.66683"><ele>254.5</ele><time>2026-03-29T08:44:42.943Z</time></trkpt><trkpt lat="45.7173117" lon="8.6666083"><ele>255.0</ele><time>2026-03-29T08:44:43.943Z</time></trkpt><trkpt lat="45.7170633" lon="8.6663833"><ele>255.5</ele><time>2026-03-29T08:44:44.943Z</time></trkpt><trkpt lat="45.7168167" lon="8.6661783"><ele>256.0</ele><time>2026-03-29T08:44:45.943Z</time></trkpt><trkpt lat="45.7165683" lon="8.6659683"><ele>253.0</ele><time>2026-03-29T08:44:46.943Z</time></trkpt><trkpt lat="45.7163033" lon="8.6657767"><ele>250.0</ele><time>2026-03-29T08:44:47.942Z</time></trkpt><trkpt lat="45.7160383" lon="8.6655767"><ele>248.0</ele><time>2026-03-29T08:44:48.943Z</time></trkpt><trkpt lat="45.7157733" lon="8.6653983"><ele>246.0</ele><time>2026-03-29T08:44:49.943Z</time></trkpt><trkpt lat="45.7155217" lon="8.6652167"><ele>246.0</ele><time>2026-03-29T08:44:50.943Z</time></trkpt><trkpt lat="45.715265" lon="8.6650483"><ele>246.0</ele><time>2026-03-29T08:44:51.942Z</time></trkpt><trkpt lat="45.7150217" lon="8.6648783"><ele>247.0</ele><time>2026-03-29T08:44:52.943Z</time></trkpt><trkpt lat="45.7147767" lon="8.664695"><ele>248.0</ele><time>2026-03-29T08:44:53.943Z</time></trkpt><trkpt lat="45.7145283" lon="8.664505"><ele>245.5</ele><time>2026-03-29T08:44:54.943Z</time></trkpt><trkpt lat="45.71429" lon="8.6643067"><ele>243.0</ele><time>2026-03-29T08:44:55.943Z</time></trkpt><trkpt lat="45.7140633" lon="8.664105"><ele>243.0</ele><time>2026-03-29T08:44:56.943Z</time></trkpt><trkpt lat="45.7138167" lon="8.663915"><ele>243.0</ele><time>2026-03-29T08:44:57.943Z</time></trkpt><trkpt lat="45.7135717" lon="8.66372"><ele>242.5</ele><time>2026-03-29T08:44:58.943Z</time></trkpt><trkpt lat="45.7133267" lon="8.663525"><ele>242.0</ele><time>2026-03-29T08:44:59.943Z</time></trkpt><trkpt lat="45.7127983" lon="8.6626717"><ele>241.0</ele><time>2026-03-29T08:45:02.951Z</time></trkpt><trkpt lat="45.7126233" lon="8.66239"><ele>240.0</ele><time>2026-03-29T08:45:03.951Z</time></trkpt><trkpt lat="45.71245" lon="8.662115"><ele>240.0</ele><time>2026-03-29T08:45:04.951Z</time></trkpt><trkpt lat="45.7122833" lon="8.6618483"><ele>240.0</ele><time>2026-03-29T08:45:05.951Z</time></trkpt><trkpt lat="45.7108783" lon="8.657985"><ele>227.5</ele><time>2026-03-29T08:45:16.951Z</time></trkpt><trkpt lat="45.71076" lon="8.6576217"><ele>215.0</ele><time>2026-03-29T08:45:17.95Z</time></trkpt><trkpt lat="45.7106417" lon="8.6572667"><ele>208.0</ele><time>2026-03-29T08:45:18.951Z</time></trkpt><trkpt lat="45.7105467" lon="8.65692"><ele>201.0</ele><time>2026-03-29T08:45:19.951Z</time></trkpt><trkpt lat="45.71044" lon="8.65657"><ele>201.0</ele><time>2026-03-29T08:45:20.951Z</time></trkpt><trkpt lat="45.71034" lon="8.6562233"><ele>201.0</ele><time>2026-03-29T08:45:21.951Z</time></trkpt><trkpt lat="45.710255" lon="8.655885"><ele>198.0</ele><time>2026-03-29T08:45:22.951Z</time></trkpt><trkpt lat="45.7101833" lon="8.6555683"><ele>195.0</ele><time>2026-03-29T08:45:23.951Z</time></trkpt><trkpt lat="45.7100983" lon="8.65526"><ele>196.0</ele><time>2026-03-29T08:45:24.951Z</time></trkpt><trkpt lat="45.7100117" lon="8.6549717"><ele>197.0</ele><time>2026-03-29T08:45:25.951Z</time></trkpt><trkpt lat="45.7099317" lon="8.6546817"><ele>198.0</ele><time>2026-03-29T08:45:26.951Z</time></trkpt><trkpt lat="45.7098517" lon="8.6543967"><ele>198.0</ele><time>2026-03-29T08:45:27.951Z</time></trkpt><trkpt lat="45.7097717" lon="8.6540917"><ele>198.0</ele><time>2026-03-29T08:45:28.951Z</time></trkpt><trkpt lat="45.7097017" lon="8.653785"><ele>204.0</ele><time>2026-03-29T08:45:29.951Z</time></trkpt><trkpt lat="45.7096283" lon="8.6534933"><ele>210.0</ele><time>2026-03-29T08:45:30.951Z</time></trkpt><trkpt lat="45.709545" lon="8.6532133"><ele>216.0</ele><time>2026-03-29T08:45:31.95Z</time></trkpt><trkpt lat="45.7094583" lon="8.652925"><ele>219.33333333333331</ele><time>2026-03-29T08:45:32.951Z</time></trkpt><trkpt lat="45.7093617" lon="8.6526483"><ele>222.66666666666666</ele><time>2026-03-29T08:45:33.951Z</time></trkpt><trkpt lat="45.70928" lon="8.65234"><ele>226.0</ele><time>2026-03-29T08:45:34.95Z</time></trkpt><trkpt lat="45.7091967" lon="8.6520467"><ele>227.0</ele><time>2026-03-29T08:45:35.95Z</time></trkpt><trkpt lat="45.7091167" lon="8.6517567"><ele>228.0</ele><time>2026-03-29T08:45:36.95Z</time></trkpt><trkpt lat="45.7090367" lon="8.6514767"><ele>229.0</ele><time>2026-03-29T08:45:37.95Z</time></trkpt><trkpt lat="45.708955" lon="8.6511933"><ele>228.0</ele><time>2026-03-29T08:45:38.95Z</time></trkpt><trkpt lat="45.7088717" lon="8.6509"><ele>227.0</ele><time>2026-03-29T08:45:39.95Z</time></trkpt><trkpt lat="45.7052067" lon="8.64743"><ele>227.0</ele><time>2026-03-29T08:45:58.956Z</time></trkpt><trkpt lat="45.7049883" lon="8.6472733"><ele>227.0</ele><time>2026-03-29T08:45:59.956Z</time></trkpt><trkpt lat="45.7047667" lon="8.6471483"><ele>227.0</ele><time>2026-03-29T08:46:00.956Z</time></trkpt><trkpt lat="45.704545" lon="8.64702"><ele>227.0</ele><time>2026-03-29T08:46:01.956Z</time></trkpt><trkpt lat="45.7043167" lon="8.6468767"><ele>221.5</ele><time>2026-03-29T08:46:02.956Z</time></trkpt><trkpt lat="45.7040967" lon="8.6467483"><ele>216.0</ele><time>2026-03-29T08:46:03.956Z</time></trkpt><trkpt lat="45.7038717" lon="8.646615"><ele>216.0</ele><time>2026-03-29T08:46:04.955Z</time></trkpt><trkpt lat="45.7036533" lon="8.6464783"><ele>216.0</ele><time>2026-03-29T08:46:05.956Z</time></trkpt><trkpt lat="45.70344" lon="8.6463267"><ele>219.0</ele><time>2026-03-29T08:46:06.956Z</time></trkpt><trkpt lat="45.7032267" lon="8.6461783"><ele>222.0</ele><time>2026-03-29T08:46:07.956Z</time></trkpt><trkpt lat="45.7030167" lon="8.6460083"><ele>224.5</ele><time>2026-03-29T08:46:08.956Z</time></trkpt><trkpt lat="45.70282" lon="8.6458417"><ele>227.0</ele><time>2026-03-29T08:46:09.956Z</time></trkpt><trkpt lat="45.7026233" lon="8.6456467"><ele>231.5</ele><time>2026-03-29T08:46:10.956Z</time></trkpt><trkpt lat="45.7024233" lon="8.6454667"><ele>236.0</ele><time>2026-03-29T08:46:11.956Z</time></trkpt><trkpt lat="45.702225" lon="8.6452883"><ele>236.5</ele><time>2026-03-29T08:46:12.956Z</time></trkpt><trkpt lat="45.7020317" lon="8.6451067"><ele>237.0</ele><time>2026-03-29T08:46:13.956Z</time></trkpt><trkpt lat="45.701835" lon="8.6449267"><ele>245.0</ele><time>2026-03-29T08:46:14.956Z</time></trkpt><trkpt lat="45.7000383" lon="8.6390683"><ele>245.0</ele><time>2026-03-29T08:46:33.96Z</time></trkpt><trkpt lat="45.6999583" lon="8.6387483"><ele>245.0</ele><time>2026-03-29T08:46:34.96Z</time></trkpt><trkpt lat="45.69987" lon="8.6384367"><ele>242.5</ele><time>2026-03-29T08:46:35.96Z</time></trkpt><trkpt lat="45.6997867" lon="8.6381267"><ele>240.0</ele><time>2026-03-29T08:46:36.96Z</time></trkpt><trkpt lat="45.6997083" lon="8.6378167"><ele>241.0</ele><time>2026-03-29T08:46:37.96Z</time></trkpt><trkpt lat="45.6996333" lon="8.6375017"><ele>242.0</ele><time>2026-03-29T08:46:38.96Z</time></trkpt><trkpt lat="45.69956" lon="8.6371983"><ele>240.0</ele><time>2026-03-29T08:46:39.96Z</time></trkpt><trkpt lat="45.69948" lon="8.636875"><ele>238.0</ele><time>2026-03-29T08:46:40.96Z</time></trkpt><trkpt lat="45.6994133" lon="8.6365633"><ele>241.0</ele><time>2026-03-29T08:46:41.96Z</time></trkpt><trkpt lat="45.6993317" lon="8.6362483"><ele>244.0</ele><time>2026-03-29T08:46:42.96Z</time></trkpt><trkpt lat="45.6992617" lon="8.6359283"><ele>244.0</ele><time>2026-03-29T08:46:43.96Z</time></trkpt><trkpt lat="45.6991833" lon="8.6356117"><ele>244.0</ele><time>2026-03-29T08:46:44.96Z</time></trkpt><trkpt lat="45.69911" lon="8.6352783"><ele>243.5</ele><time>2026-03-29T08:46:45.96Z</time></trkpt><trkpt lat="45.6990333" lon="8.6349533"><ele>243.0</ele><time>2026-03-29T08:46:46.96Z</time></trkpt><trkpt lat="45.6989567" lon="8.6346367"><ele>243.5</ele><time>2026-03-29T08:46:47.96Z</time></trkpt><trkpt lat="45.698885" lon="8.6343083"><ele>244.0</ele><time>2026-03-29T08:46:48.96Z</time></trkpt><trkpt lat="45.69882" lon="8.633985"><ele>244.0</ele><time>2026-03-29T08:46:49.96Z</time></trkpt><trkpt lat="45.6987517" lon="8.6336667"><ele>244.0</ele><time>2026-03-29T08:46:50.96Z</time></trkpt><trkpt lat="45.6986883" lon="8.633345"><ele>244.5</ele><time>2026-03-29T08:46:51.96Z</time></trkpt><trkpt lat="45.6986233" lon="8.633035"><ele>245.0</ele><time>2026-03-29T08:46:52.96Z</time></trkpt><trkpt lat="45.6985667" lon="8.6327067"><ele>246.5</ele><time>2026-03-29T08:46:53.96Z</time></trkpt><trkpt lat="45.6985167" lon="8.6323833"><ele>248.0</ele><time>2026-03-29T08:46:54.96Z</time></trkpt><trkpt lat="45.69847" lon="8.63207"><ele>246.0</ele><time>2026-03-29T08:46:55.96Z</time></trkpt><trkpt lat="45.6984283" lon="8.6317517"><ele>244.0</ele><time>2026-03-29T08:46:56.96Z</time></trkpt><trkpt lat="45.6983817" lon="8.6314267"><ele>244.33333333333331</ele><time>2026-03-29T08:46:57.96Z</time></trkpt><trkpt lat="45.6983417" lon="8.6311117"><ele>244.66666666666669</ele><time>2026-03-29T08:46:58.96Z</time></trkpt><trkpt lat="45.6983033" lon="8.630795"><ele>245.0</ele><time>2026-03-29T08:46:59.96Z</time></trkpt><trkpt lat="45.6982767" lon="8.63047"><ele>245.5</ele><time>2026-03-29T08:47:00.96Z</time></trkpt><trkpt lat="45.69825" lon="8.6301383"><ele>246.0</ele><time>2026-03-29T08:47:01.96Z</time></trkpt><trkpt lat="45.6982317" lon="8.6298067"><ele>246.0</ele><time>2026-03-29T08:47:02.96Z</time></trkpt><trkpt lat="45.698215" lon="8.6294767"><ele>246.0</ele><time>2026-03-29T08:47:03.96Z</time></trkpt><trkpt lat="45.6982017" lon="8.629145"><ele>246.0</ele><time>2026-03-29T08:47:04.96Z</time></trkpt><trkpt lat="45.6981917" lon="8.6288"><ele>246.0</ele><time>2026-03-29T08:47:05.96Z</time></trkpt><trkpt lat="45.6981833" lon="8.6284483"><ele>246.0</ele><time>2026-03-29T08:47:06.96Z</time></trkpt><trkpt lat="45.6981783" lon="8.6281083"><ele>246.0</ele><time>2026-03-29T08:47:07.96Z</time></trkpt><trkpt lat="45.698175" lon="8.6277633"><ele>246.0</ele><time>2026-03-29T08:47:08.96Z</time></trkpt><trkpt lat="45.6981867" lon="8.627415"><ele>246.0</ele><time>2026-03-29T08:47:09.96Z</time></trkpt><trkpt lat="45.6981967" lon="8.6270783"><ele>246.5</ele><time>2026-03-29T08:47:10.96Z</time></trkpt><trkpt lat="45.6982167" lon="8.626745"><ele>247.0</ele><time>2026-03-29T08:47:11.96Z</time></trkpt><trkpt lat="45.6982333" lon="8.62641"><ele>248.5</ele><time>2026-03-29T08:47:12.96Z</time></trkpt><trkpt lat="45.6982567" lon="8.6260667"><ele>250.0</ele><time>2026-03-29T08:47:13.96Z</time></trkpt><trkpt lat="45.69828" lon="8.625725"><ele>250.0</ele><time>2026-03-29T08:47:14.96Z</time></trkpt><trkpt lat="45.6983017" lon="8.6253867"><ele>250.0</ele><time>2026-03-29T08:47:15.96Z</time></trkpt><trkpt lat="45.6983317" lon="8.6250417"><ele>248.5</ele><time>2026-03-29T08:47:16.96Z</time></trkpt><trkpt lat="45.6983483" lon="8.62469"><ele>247.0</ele><time>2026-03-29T08:47:17.96Z</time></trkpt><trkpt lat="45.69837" lon="8.624335"><ele>247.0</ele><time>2026-03-29T08:47:18.96Z</time></trkpt><trkpt lat="45.6983933" lon="8.623995"><ele>247.0</ele><time>2026-03-29T08:47:19.96Z</time></trkpt><trkpt lat="45.6984083" lon="8.62364"><ele>247.0</ele><time>2026-03-29T08:47:20.96Z</time></trkpt><trkpt lat="45.698435" lon="8.6232783"><ele>247.0</ele><time>2026-03-29T08:47:21.96Z</time></trkpt><trkpt lat="45.69846" lon="8.6229267"><ele>246.5</ele><time>2026-03-29T08:47:22.96Z</time></trkpt><trkpt lat="45.698495" lon="8.6225783"><ele>246.0</ele><time>2026-03-29T08:47:23.96Z</time></trkpt><trkpt lat="45.6985283" lon="8.6222267"><ele>245.0</ele><time>2026-03-29T08:47:24.96Z</time></trkpt><trkpt lat="45.6985517" lon="8.62186"><ele>244.0</ele><time>2026-03-29T08:47:25.96Z</time></trkpt><trkpt lat="45.6985767" lon="8.6214917"><ele>246.5</ele><time>2026-03-29T08:47:26.96Z</time></trkpt><trkpt lat="45.6986133" lon="8.621135"><ele>249.0</ele><time>2026-03-29T08:47:27.96Z</time></trkpt><trkpt lat="45.6986517" lon="8.6207683"><ele>249.0</ele><time>2026-03-29T08:47:28.96Z</time></trkpt><trkpt lat="45.69869" lon="8.6204083"><ele>249.0</ele><time>2026-03-29T08:47:29.96Z</time></trkpt><trkpt lat="45.698725" lon="8.6200317"><ele>250.0</ele><time>2026-03-29T08:47:30.96Z</time></trkpt><trkpt lat="45.6987667" lon="8.6196767"><ele>251.0</ele><time>2026-03-29T08:47:31.96Z</time></trkpt><trkpt lat="45.6987983" lon="8.6193167"><ele>251.0</ele><time>2026-03-29T08:47:32.96Z</time></trkpt><trkpt lat="45.6988333" lon="8.6189517"><ele>251.0</ele><time>2026-03-29T08:47:33.96Z</time></trkpt><trkpt lat="45.6988683" lon="8.6186"><ele>248.0</ele><time>2026-03-29T08:47:34.96Z</time></trkpt><trkpt lat="45.6989083" lon="8.6182483"><ele>245.0</ele><time>2026-03-29T08:47:35.96Z</time></trkpt><trkpt lat="45.69894" lon="8.617895"><ele>244.5</ele><time>2026-03-29T08:47:36.96Z</time></trkpt><trkpt lat="45.698975" lon="8.61754"><ele>244.0</ele><time>2026-03-29T08:47:37.96Z</time></trkpt><trkpt lat="45.6990117" lon="8.6171817"><ele>243.0</ele><time>2026-03-29T08:47:38.96Z</time></trkpt><trkpt lat="45.6990417" lon="8.61684"><ele>242.0</ele><time>2026-03-29T08:47:39.96Z</time></trkpt><trkpt lat="45.69909" lon="8.6165017"><ele>242.0</ele><time>2026-03-29T08:47:40.96Z</time></trkpt><trkpt lat="45.6991317" lon="8.6161667"><ele>242.0</ele><time>2026-03-29T08:47:41.96Z</time></trkpt><trkpt lat="45.6991683" lon="8.6158083"><ele>242.0</ele><time>2026-03-29T08:47:42.96Z</time></trkpt><trkpt lat="45.6992167" lon="8.6154533"><ele>242.0</ele><time>2026-03-29T08:47:43.959Z</time></trkpt><trkpt lat="45.6992533" lon="8.6151067"><ele>241.0</ele><time>2026-03-29T08:47:44.96Z</time></trkpt><trkpt lat="45.6992917" lon="8.614765"><ele>240.0</ele><time>2026-03-29T08:47:45.96Z</time></trkpt><trkpt lat="45.699335" lon="8.6144167"><ele>239.5</ele><time>2026-03-29T08:47:46.959Z</time></trkpt><trkpt lat="45.6993783" lon="8.6140683"><ele>239.0</ele><time>2026-03-29T08:47:47.96Z</time></trkpt><trkpt lat="45.6994233" lon="8.613725"><ele>239.5</ele><time>2026-03-29T08:47:48.96Z</time></trkpt><trkpt lat="45.6994767" lon="8.6133733"><ele>240.0</ele><time>2026-03-29T08:47:49.959Z</time></trkpt><trkpt lat="45.6995283" lon="8.6130317"><ele>241.0</ele><time>2026-03-29T08:47:50.959Z</time></trkpt><trkpt lat="45.699585" lon="8.6126983"><ele>242.0</ele><time>2026-03-29T08:47:51.96Z</time></trkpt><trkpt lat="45.6996483" lon="8.6123733"><ele>242.0</ele><time>2026-03-29T08:47:52.96Z</time></trkpt><trkpt lat="45.6997083" lon="8.6120383"><ele>242.0</ele><time>2026-03-29T08:47:53.96Z</time></trkpt><trkpt lat="45.6997733" lon="8.611705"><ele>242.0</ele><time>2026-03-29T08:47:54.959Z</time></trkpt><trkpt lat="45.6998367" lon="8.6113783"><ele>242.0</ele><time>2026-03-29T08:47:55.96Z</time></trkpt><trkpt lat="45.69991" lon="8.611045"><ele>241.5</ele><time>2026-03-29T08:47:56.96Z</time></trkpt><trkpt lat="45.69999" lon="8.61072"><ele>241.0</ele><time>2026-03-29T08:47:57.96Z</time></trkpt><trkpt lat="45.700075" lon="8.61041"><ele>240.0</ele><time>2026-03-29T08:47:58.96Z</time></trkpt><trkpt lat="45.7001683" lon="8.610105"><ele>239.0</ele><time>2026-03-29T08:47:59.96Z</time></trkpt><trkpt lat="45.700255" lon="8.6097933"><ele>237.5</ele><time>2026-03-29T08:48:00.96Z</time></trkpt><trkpt lat="45.7003517" lon="8.6094967"><ele>236.0</ele><time>2026-03-29T08:48:01.96Z</time></trkpt><trkpt lat="45.700465" lon="8.6092083"><ele>235.0</ele><time>2026-03-29T08:48:02.96Z</time></trkpt><trkpt lat="45.7005833" lon="8.6089217"><ele>234.0</ele><time>2026-03-29T08:48:03.959Z</time></trkpt><trkpt lat="45.7007033" lon="8.6086383"><ele>233.5</ele><time>2026-03-29T08:48:04.959Z</time></trkpt><trkpt lat="45.7008267" lon="8.6083717"><ele>233.0</ele><time>2026-03-29T08:48:05.96Z</time></trkpt><trkpt lat="45.70096" lon="8.60811"><ele>232.66666666666669</ele><time>2026-03-29T08:48:06.96Z</time></trkpt><trkpt lat="45.7010967" lon="8.6078433"><ele>232.33333333333331</ele><time>2026-03-29T08:48:07.959Z</time></trkpt><trkpt lat="45.7012333" lon="8.6076033"><ele>232.0</ele><time>2026-03-29T08:48:08.96Z</time></trkpt><trkpt lat="45.701375" lon="8.607365"><ele>232.0</ele><time>2026-03-29T08:48:09.96Z</time></trkpt><trkpt lat="45.7015183" lon="8.6071267"><ele>232.0</ele><time>2026-03-29T08:48:10.96Z</time></trkpt><trkpt lat="45.7016667" lon="8.6069033"><ele>232.0</ele><time>2026-03-29T08:48:11.96Z</time></trkpt><trkpt lat="45.7018267" lon="8.6066833"><ele>232.33333333333331</ele><time>2026-03-29T08:48:12.96Z</time></trkpt><trkpt lat="45.7019767" lon="8.6064767"><ele>232.66666666666669</ele><time>2026-03-29T08:48:13.959Z</time></trkpt><trkpt lat="45.70213" lon="8.6062917"><ele>233.0</ele><time>2026-03-29T08:48:14.96Z</time></trkpt><trkpt lat="45.7022833" lon="8.6061283"><ele>232.33333333333334</ele><time>2026-03-29T08:48:15.96Z</time></trkpt><trkpt lat="45.70243" lon="8.6059933"><ele>231.66666666666669</ele><time>2026-03-29T08:48:16.96Z</time></trkpt><trkpt lat="45.7025867" lon="8.6058683"><ele>231.0</ele><time>2026-03-29T08:48:17.959Z</time></trkpt><trkpt lat="45.7027567" lon="8.6057617"><ele>229.66666666666669</ele><time>2026-03-29T08:48:18.96Z</time></trkpt><trkpt lat="45.7029317" lon="8.60566"><ele>228.33333333333334</ele><time>2026-03-29T08:48:19.96Z</time></trkpt><trkpt lat="45.7031167" lon="8.6055667"><ele>227.0</ele><time>2026-03-29T08:48:20.96Z</time></trkpt><trkpt lat="45.70331" lon="8.605495"><ele>227.0</ele><time>2026-03-29T08:48:21.96Z</time></trkpt><trkpt lat="45.7034983" lon="8.60542"><ele>227.0</ele><time>2026-03-29T08:48:22.96Z</time></trkpt><trkpt lat="45.7037017" lon="8.6053667"><ele>227.0</ele><time>2026-03-29T08:48:23.959Z</time></trkpt><trkpt lat="45.7038967" lon="8.6053117"><ele>226.33333333333334</ele><time>2026-03-29T08:48:24.96Z</time></trkpt><trkpt lat="45.7040783" lon="8.6052617"><ele>225.66666666666669</ele><time>2026-03-29T08:48:25.96Z</time></trkpt><trkpt lat="45.7042567" lon="8.6052167"><ele>225.0</ele><time>2026-03-29T08:48:26.96Z</time></trkpt><trkpt lat="45.7044333" lon="8.6051717"><ele>224.0</ele><time>2026-03-29T08:48:27.96Z</time></trkpt><trkpt lat="45.7046033" lon="8.6051133"><ele>223.0</ele><time>2026-03-29T08:48:28.96Z</time></trkpt><trkpt lat="45.7047783" lon="8.60505"><ele>222.0</ele><time>2026-03-29T08:48:29.96Z</time></trkpt><trkpt lat="45.704955" lon="8.6049767"><ele>222.0</ele><time>2026-03-29T08:48:30.96Z</time></trkpt><trkpt lat="45.70513" lon="8.6048833"><ele>222.0</ele><time>2026-03-29T08:48:31.96Z</time></trkpt><trkpt lat="45.70531" lon="8.6047867"><ele>222.0</ele><time>2026-03-29T08:48:32.96Z</time></trkpt><trkpt lat="45.705475" lon="8.60467"><ele>221.0</ele><time>2026-03-29T08:48:33.96Z</time></trkpt><trkpt lat="45.7056283" lon="8.604555"><ele>220.0</ele><time>2026-03-29T08:48:34.96Z</time></trkpt><trkpt lat="45.7057767" lon="8.6044233"><ele>219.0</ele><time>2026-03-29T08:48:35.96Z</time></trkpt><trkpt lat="45.7059167" lon="8.6042933"><ele>219.0</ele><time>2026-03-29T08:48:36.959Z</time></trkpt><trkpt lat="45.7060483" lon="8.6041683"><ele>219.0</ele><time>2026-03-29T08:48:37.958Z</time></trkpt><trkpt lat="45.7061717" lon="8.6040583"><ele>219.0</ele><time>2026-03-29T08:48:38.959Z</time></trkpt><trkpt lat="45.7062933" lon="8.6039583"><ele>219.0</ele><time>2026-03-29T08:48:39.958Z</time></trkpt><trkpt lat="45.7063967" lon="8.6038833"><ele>218.39999999999998</ele><time>2026-03-29T08:48:40.959Z</time></trkpt><trkpt lat="45.7065" lon="8.6038183"><ele>217.79999999999998</ele><time>2026-03-29T08:48:41.959Z</time></trkpt><trkpt lat="45.7065917" lon="8.6037733"><ele>217.20000000000002</ele><time>2026-03-29T08:48:42.959Z</time></trkpt><trkpt lat="45.7066767" lon="8.60373"><ele>216.60000000000002</ele><time>2026-03-29T08:48:43.959Z</time></trkpt><trkpt lat="45.7067583" lon="8.603685"><ele>216.0</ele><time>2026-03-29T08:48:44.959Z</time></trkpt><trkpt lat="45.70683" lon="8.6036433"><ele>216.0</ele><time>2026-03-29T08:48:45.959Z</time></trkpt><trkpt lat="45.7069033" lon="8.60359"><ele>216.0</ele><time>2026-03-29T08:48:47.958Z</time></trkpt><trkpt lat="45.7069617" lon="8.6035183"><ele>216.0</ele><time>2026-03-29T08:49:24.959Z</time></trkpt><trkpt lat="45.7070233" lon="8.60347"><ele>216.0</ele><time>2026-03-29T08:49:27.958Z</time></trkpt><trkpt lat="45.7070983" lon="8.6034167"><ele>216.0</ele><time>2026-03-29T08:49:29.959Z</time></trkpt><trkpt lat="45.70718" lon="8.60333"><ele>216.0</ele><time>2026-03-29T08:49:31.959Z</time></trkpt><trkpt lat="45.707245" lon="8.6032667"><ele>216.20000000000002</ele><time>2026-03-29T08:49:32.959Z</time></trkpt><trkpt lat="45.7073183" lon="8.6031967"><ele>216.40000000000003</ele><time>2026-03-29T08:49:33.959Z</time></trkpt><trkpt lat="45.707405" lon="8.6031183"><ele>216.6</ele><time>2026-03-29T08:49:34.959Z</time></trkpt><trkpt lat="45.7075" lon="8.6030183"><ele>216.8</ele><time>2026-03-29T08:49:35.959Z</time></trkpt><trkpt lat="45.7075983" lon="8.602895"><ele>217.0</ele><time>2026-03-29T08:49:36.959Z</time></trkpt><trkpt lat="45.7077" lon="8.6027667"><ele>217.0</ele><time>2026-03-29T08:49:37.959Z</time></trkpt><trkpt lat="45.7078133" lon="8.6026383"><ele>217.0</ele><time>2026-03-29T08:49:38.959Z</time></trkpt><trkpt lat="45.7079333" lon="8.6025133"><ele>217.0</ele><time>2026-03-29T08:49:39.959Z</time></trkpt><trkpt lat="45.7080567" lon="8.6023917"><ele>217.0</ele><time>2026-03-29T08:49:40.959Z</time></trkpt><trkpt lat="45.7081933" lon="8.6022633"><ele>217.0</ele><time>2026-03-29T08:49:41.959Z</time></trkpt><trkpt lat="45.708365" lon="8.6021467"><ele>217.0</ele><time>2026-03-29T08:49:42.959Z</time></trkpt><trkpt lat="45.7085467" lon="8.6020267"><ele>217.0</ele><time>2026-03-29T08:49:43.959Z</time></trkpt><trkpt lat="45.708735" lon="8.6019117"><ele>217.66666666666666</ele><time>2026-03-29T08:49:44.959Z</time></trkpt><trkpt lat="45.7089217" lon="8.6018217"><ele>218.33333333333331</ele><time>2026-03-29T08:49:45.959Z</time></trkpt><trkpt lat="45.7091183" lon="8.6017317"><ele>219.0</ele><time>2026-03-29T08:49:46.959Z</time></trkpt><trkpt lat="45.7093317" lon="8.6016533"><ele>217.0</ele><time>2026-03-29T08:49:47.958Z</time></trkpt><trkpt lat="45.709545" lon="8.6015867"><ele>215.0</ele><time>2026-03-29T08:49:48.959Z</time></trkpt><trkpt lat="45.7097567" lon="8.6015233"><ele>213.0</ele><time>2026-03-29T08:49:49.958Z</time></trkpt><trkpt lat="45.709965" lon="8.60145"><ele>213.0</ele><time>2026-03-29T08:49:50.959Z</time></trkpt><trkpt lat="45.7101683" lon="8.6013683"><ele>213.0</ele><time>2026-03-29T08:49:51.959Z</time></trkpt><trkpt lat="45.7103867" lon="8.6012833"><ele>213.0</ele><time>2026-03-29T08:49:52.959Z</time></trkpt><trkpt lat="45.7105917" lon="8.6011717"><ele>212.5</ele><time>2026-03-29T08:49:53.959Z</time></trkpt><trkpt lat="45.7108033" lon="8.6010433"><ele>212.0</ele><time>2026-03-29T08:49:54.959Z</time></trkpt><trkpt lat="45.711005" lon="8.60089"><ele>211.5</ele><time>2026-03-29T08:49:55.959Z</time></trkpt><trkpt lat="45.7112" lon="8.6007067"><ele>211.0</ele><time>2026-03-29T08:49:56.959Z</time></trkpt><trkpt lat="45.71138" lon="8.6004933"><ele>211.0</ele><time>2026-03-29T08:49:57.959Z</time></trkpt><trkpt lat="45.71155" lon="8.600265"><ele>211.0</ele><time>2026-03-29T08:49:58.959Z</time></trkpt><trkpt lat="45.7117117" lon="8.6000233"><ele>211.0</ele><time>2026-03-29T08:49:59.959Z</time></trkpt><trkpt lat="45.7118667" lon="8.59976"><ele>211.0</ele><time>2026-03-29T08:50:00.959Z</time></trkpt><trkpt lat="45.712015" lon="8.599485"><ele>209.0</ele><time>2026-03-29T08:50:01.959Z</time></trkpt><trkpt lat="45.7121633" lon="8.5991983"><ele>207.0</ele><time>2026-03-29T08:50:02.959Z</time></trkpt><trkpt lat="45.712315" lon="8.5989133"><ele>206.0</ele><time>2026-03-29T08:50:03.959Z</time></trkpt><trkpt lat="45.7124633" lon="8.59863"><ele>205.0</ele><time>2026-03-29T08:50:04.958Z</time></trkpt><trkpt lat="45.712605" lon="8.59835"><ele>205.5</ele><time>2026-03-29T08:50:05.959Z</time></trkpt><trkpt lat="45.7127617" lon="8.59806"><ele>206.0</ele><time>2026-03-29T08:50:06.959Z</time></trkpt><trkpt lat="45.7129133" lon="8.5977683"><ele>207.0</ele><time>2026-03-29T08:50:07.959Z</time></trkpt><trkpt lat="45.71307" lon="8.5974667"><ele>208.0</ele><time>2026-03-29T08:50:08.959Z</time></trkpt><trkpt lat="45.7132233" lon="8.5971617"><ele>208.0</ele><time>2026-03-29T08:50:09.958Z</time></trkpt><trkpt lat="45.7133783" lon="8.59685"><ele>208.0</ele><time>2026-03-29T08:50:10.959Z</time></trkpt><trkpt lat="45.7135333" lon="8.5965383"><ele>207.0</ele><time>2026-03-29T08:50:11.959Z</time></trkpt><trkpt lat="45.71369" lon="8.5962233"><ele>206.0</ele><time>2026-03-29T08:50:12.959Z</time></trkpt><trkpt lat="45.7138517" lon="8.5959133"><ele>206.0</ele><time>2026-03-29T08:50:13.959Z</time></trkpt><trkpt lat="45.7140133" lon="8.5956167"><ele>206.0</ele><time>2026-03-29T08:50:14.959Z</time></trkpt><trkpt lat="45.7141833" lon="8.5953117"><ele>206.0</ele><time>2026-03-29T08:50:15.959Z</time></trkpt><trkpt lat="45.7143583" lon="8.5949983"><ele>206.0</ele><time>2026-03-29T08:50:16.959Z</time></trkpt><trkpt lat="45.7145183" lon="8.594695"><ele>207.0</ele><time>2026-03-29T08:50:17.959Z</time></trkpt><trkpt lat="45.71468" lon="8.5943883"><ele>208.0</ele><time>2026-03-29T08:50:18.959Z</time></trkpt><trkpt lat="45.7148417" lon="8.5940817"><ele>208.0</ele><time>2026-03-29T08:50:19.959Z</time></trkpt><trkpt lat="45.715" lon="8.5937733"><ele>208.0</ele><time>2026-03-29T08:50:20.959Z</time></trkpt><trkpt lat="45.7151567" lon="8.5934783"><ele>208.5</ele><time>2026-03-29T08:50:21.959Z</time></trkpt><trkpt lat="45.715295" lon="8.5932083"><ele>209.0</ele><time>2026-03-29T08:50:22.959Z</time></trkpt><trkpt lat="45.7154267" lon="8.5929483"><ele>208.66666666666669</ele><time>2026-03-29T08:50:23.959Z</time></trkpt><trkpt lat="45.7155517" lon="8.5927233"><ele>208.33333333333331</ele><time>2026-03-29T08:50:24.959Z</time></trkpt><trkpt lat="45.7156583" lon="8.5925267"><ele>208.0</ele><time>2026-03-29T08:50:25.959Z</time></trkpt><trkpt lat="45.715765" lon="8.5923267"><ele>208.0</ele><time>2026-03-29T08:50:26.959Z</time></trkpt><trkpt lat="45.7158633" lon="8.5921517"><ele>208.0</ele><time>2026-03-29T08:50:27.959Z</time></trkpt><trkpt lat="45.71596" lon="8.592005"><ele>208.0</ele><time>2026-03-29T08:50:28.959Z</time></trkpt><trkpt lat="45.7160567" lon="8.5918783"><ele>208.0</ele><time>2026-03-29T08:50:29.959Z</time></trkpt><trkpt lat="45.7161517" lon="8.5917833"><ele>208.0</ele><time>2026-03-29T08:50:30.959Z</time></trkpt><trkpt lat="45.7162533" lon="8.591715"><ele>208.0</ele><time>2026-03-29T08:50:31.959Z</time></trkpt><trkpt lat="45.71637" lon="8.591655"><ele>208.0</ele><time>2026-03-29T08:50:32.959Z</time></trkpt><trkpt lat="45.71649" lon="8.5916183"><ele>208.0</ele><time>2026-03-29T08:50:33.959Z</time></trkpt><trkpt lat="45.71662" lon="8.5915717"><ele>208.0</ele><time>2026-03-29T08:50:34.959Z</time></trkpt><trkpt lat="45.7167433" lon="8.5915417"><ele>208.0</ele><time>2026-03-29T08:50:35.959Z</time></trkpt><trkpt lat="45.716875" lon="8.59151"><ele>208.0</ele><time>2026-03-29T08:50:36.959Z</time></trkpt><trkpt lat="45.7170117" lon="8.5914633"><ele>208.0</ele><time>2026-03-29T08:50:37.959Z</time></trkpt><trkpt lat="45.71714" lon="8.5914283"><ele>208.75</ele><time>2026-03-29T08:50:38.959Z</time></trkpt><trkpt lat="45.7172767" lon="8.59138"><ele>209.5</ele><time>2026-03-29T08:50:39.959Z</time></trkpt><trkpt lat="45.7174033" lon="8.59134"><ele>210.25</ele><time>2026-03-29T08:50:40.959Z</time></trkpt><trkpt lat="45.7175267" lon="8.591295"><ele>211.0</ele><time>2026-03-29T08:50:41.959Z</time></trkpt><trkpt lat="45.7176533" lon="8.5912583"><ele>210.5</ele><time>2026-03-29T08:50:42.959Z</time></trkpt><trkpt lat="45.717785" lon="8.591225"><ele>210.0</ele><time>2026-03-29T08:50:43.959Z</time></trkpt><trkpt lat="45.7179067" lon="8.5911933"><ele>209.5</ele><time>2026-03-29T08:50:44.959Z</time></trkpt><trkpt lat="45.71803" lon="8.591155"><ele>209.0</ele><time>2026-03-29T08:50:45.958Z</time></trkpt><trkpt lat="45.7181433" lon="8.5911267"><ele>208.25</ele><time>2026-03-29T08:50:46.959Z</time></trkpt><trkpt lat="45.71826" lon="8.5911017"><ele>207.5</ele><time>2026-03-29T08:50:47.959Z</time></trkpt><trkpt lat="45.7183733" lon="8.5910733"><ele>206.75</ele><time>2026-03-29T08:50:48.959Z</time></trkpt><trkpt lat="45.7184933" lon="8.59105"><ele>206.0</ele><time>2026-03-29T08:50:49.959Z</time></trkpt><trkpt lat="45.7186083" lon="8.591025"><ele>205.8</ele><time>2026-03-29T08:50:50.959Z</time></trkpt><trkpt lat="45.718725" lon="8.5910033"><ele>205.60000000000002</ele><time>2026-03-29T08:50:51.959Z</time></trkpt><trkpt lat="45.7188383" lon="8.5909817"><ele>205.4</ele><time>2026-03-29T08:50:52.959Z</time></trkpt><trkpt lat="45.7189383" lon="8.590975"><ele>205.2</ele><time>2026-03-29T08:50:53.958Z</time></trkpt><trkpt lat="45.71903" lon="8.590975"><ele>205.0</ele><time>2026-03-29T08:50:54.959Z</time></trkpt><trkpt lat="45.7191083" lon="8.5909733"><ele>204.99999999999997</ele><time>2026-03-29T08:50:55.959Z</time></trkpt><trkpt lat="45.7191717" lon="8.5909733"><ele>205.0</ele><time>2026-03-29T08:50:56.958Z</time></trkpt><trkpt lat="45.719255" lon="8.5909883"><ele>205.0</ele><time>2026-03-29T08:50:58.959Z</time></trkpt><trkpt lat="45.719335" lon="8.5910133"><ele>205.0</ele><time>2026-03-29T08:51:07.958Z</time></trkpt><trkpt lat="45.7194433" lon="8.5910867"><ele>204.99999999999997</ele><time>2026-03-29T08:51:09.959Z</time></trkpt><trkpt lat="45.7195033" lon="8.59112"><ele>205.0</ele><time>2026-03-29T08:51:10.959Z</time></trkpt><trkpt lat="45.7195633" lon="8.5911567"><ele>204.8</ele><time>2026-03-29T08:51:11.959Z</time></trkpt><trkpt lat="45.7196683" lon="8.5911033"><ele>204.6</ele><time>2026-03-29T08:51:13.959Z</time></trkpt><trkpt lat="45.719735" lon="8.590975"><ele>204.39999999999998</ele><time>2026-03-29T08:51:15.959Z</time></trkpt><trkpt lat="45.7197467" lon="8.5908767"><ele>204.2</ele><time>2026-03-29T08:51:16.959Z</time></trkpt><trkpt lat="45.7197333" lon="8.5907317"><ele>204.0</ele><time>2026-03-29T08:51:17.959Z</time></trkpt><trkpt lat="45.7197133" lon="8.5905467"><ele>204.33333333333331</ele><time>2026-03-29T08:51:18.959Z</time></trkpt><trkpt lat="45.7197183" lon="8.590325"><ele>204.66666666666666</ele><time>2026-03-29T08:51:19.959Z</time></trkpt><trkpt lat="45.7197433" lon="8.5900967"><ele>205.0</ele><time>2026-03-29T08:51:20.959Z</time></trkpt><trkpt lat="45.7197767" lon="8.5898617"><ele>205.0</ele><time>2026-03-29T08:51:21.959Z</time></trkpt><trkpt lat="45.7198" lon="8.589595"><ele>205.0</ele><time>2026-03-29T08:51:22.959Z</time></trkpt><trkpt lat="45.7198217" lon="8.5892967"><ele>205.0</ele><time>2026-03-29T08:51:23.959Z</time></trkpt><trkpt lat="45.719835" lon="8.5890067"><ele>204.66666666666666</ele><time>2026-03-29T08:51:24.959Z</time></trkpt><trkpt lat="45.71987" lon="8.58874"><ele>204.33333333333331</ele><time>2026-03-29T08:51:25.958Z</time></trkpt><trkpt lat="45.719905" lon="8.5884783"><ele>204.0</ele><time>2026-03-29T08:51:26.959Z</time></trkpt><trkpt lat="45.7199333" lon="8.5882133"><ele>204.0</ele><time>2026-03-29T08:51:27.959Z</time></trkpt><trkpt lat="45.7199517" lon="8.5879833"><ele>204.0</ele><time>2026-03-29T08:51:28.959Z</time></trkpt><trkpt lat="45.7199667" lon="8.58778"><ele>204.0</ele><time>2026-03-29T08:51:29.959Z</time></trkpt><trkpt lat="45.7199833" lon="8.587595"><ele>204.0</ele><time>2026-03-29T08:51:30.959Z</time></trkpt><trkpt lat="45.7199883" lon="8.5874233"><ele>204.0</ele><time>2026-03-29T08:51:31.959Z</time></trkpt><trkpt lat="45.7199917" lon="8.5872583"><ele>204.0</ele><time>2026-03-29T08:51:32.959Z</time></trkpt><trkpt lat="45.7199883" lon="8.5871"><ele>204.0</ele><time>2026-03-29T08:51:33.959Z</time></trkpt><trkpt lat="45.719985" lon="8.58696"><ele>204.0</ele><time>2026-03-29T08:51:34.959Z</time></trkpt><trkpt lat="45.7199817" lon="8.5868267"><ele>204.0</ele><time>2026-03-29T08:51:35.959Z</time></trkpt><trkpt lat="45.7199783" lon="8.5866983"><ele>203.83333333333334</ele><time>2026-03-29T08:51:36.958Z</time></trkpt><trkpt lat="45.7199733" lon="8.5865867"><ele>203.66666666666669</ele><time>2026-03-29T08:51:37.958Z</time></trkpt><trkpt lat="45.7199683" lon="8.5864917"><ele>203.5</ele><time>2026-03-29T08:51:38.958Z</time></trkpt><trkpt lat="45.7199967" lon="8.5863183"><ele>203.33333333333334</ele><time>2026-03-29T08:51:40.957Z</time></trkpt><trkpt lat="45.7200217" lon="8.586235"><ele>203.16666666666669</ele><time>2026-03-29T08:51:41.958Z</time></trkpt><trkpt lat="45.720045" lon="8.58614"><ele>203.0</ele><time>2026-03-29T08:51:42.958Z</time></trkpt><trkpt lat="45.720065" lon="8.5860467"><ele>202.83333333333334</ele><time>2026-03-29T08:51:43.958Z</time></trkpt><trkpt lat="45.7200817" lon="8.5859417"><ele>202.66666666666669</ele><time>2026-03-29T08:51:44.958Z</time></trkpt><trkpt lat="45.7201083" lon="8.5858367"><ele>202.5</ele><time>2026-03-29T08:51:45.958Z</time></trkpt><trkpt lat="45.720135" lon="8.58574"><ele>202.33333333333331</ele><time>2026-03-29T08:51:46.958Z</time></trkpt><trkpt lat="45.720175" lon="8.5856483"><ele>202.16666666666666</ele><time>2026-03-29T08:51:47.958Z</time></trkpt><trkpt lat="45.7202267" lon="8.5855417"><ele>202.0</ele><time>2026-03-29T08:51:48.958Z</time></trkpt><trkpt lat="45.7203017" lon="8.5854317"><ele>202.0</ele><time>2026-03-29T08:51:49.958Z</time></trkpt><trkpt lat="45.7203933" lon="8.5853267"><ele>202.0</ele><time>2026-03-29T08:51:50.958Z</time></trkpt><trkpt lat="45.7204883" lon="8.5852133"><ele>202.0</ele><time>2026-03-29T08:51:51.958Z</time></trkpt><trkpt lat="45.7205817" lon="8.5851017"><ele>202.0</ele><time>2026-03-29T08:51:52.958Z</time></trkpt><trkpt lat="45.7206833" lon="8.5849817"><ele>202.0</ele><time>2026-03-29T08:51:53.958Z</time></trkpt><trkpt lat="45.7207783" lon="8.58487"><ele>202.0</ele><time>2026-03-29T08:51:54.958Z</time></trkpt><trkpt lat="45.7208767" lon="8.5847667"><ele>202.0</ele><time>2026-03-29T08:51:55.958Z</time></trkpt><trkpt lat="45.7209783" lon="8.5846483"><ele>202.0</ele><time>2026-03-29T08:51:56.958Z</time></trkpt><trkpt lat="45.72108" lon="8.5845433"><ele>201.75</ele><time>2026-03-29T08:51:57.958Z</time></trkpt><trkpt lat="45.72118" lon="8.584445"><ele>201.5</ele><time>2026-03-29T08:51:58.958Z</time></trkpt><trkpt lat="45.7212767" lon="8.5843533"><ele>201.25</ele><time>2026-03-29T08:51:59.958Z</time></trkpt><trkpt lat="45.72138" lon="8.584255"><ele>201.0</ele><time>2026-03-29T08:52:00.958Z</time></trkpt><trkpt lat="45.721485" lon="8.584155"><ele>201.0</ele><time>2026-03-29T08:52:01.958Z</time></trkpt><trkpt lat="45.7215817" lon="8.5840783"><ele>201.0</ele><time>2026-03-29T08:52:02.958Z</time></trkpt><trkpt lat="45.7216833" lon="8.5840067"><ele>201.0</ele><time>2026-03-29T08:52:03.958Z</time></trkpt><trkpt lat="45.72178" lon="8.58393"><ele>201.0</ele><time>2026-03-29T08:52:04.958Z</time></trkpt><trkpt lat="45.7218833" lon="8.5838333"><ele>201.0</ele><time>2026-03-29T08:52:05.958Z</time></trkpt><trkpt lat="45.7219867" lon="8.5837533"><ele>201.0</ele><time>2026-03-29T08:52:06.958Z</time></trkpt><trkpt lat="45.72208" lon="8.58368"><ele>201.0</ele><time>2026-03-29T08:52:07.957Z</time></trkpt><trkpt lat="45.72218" lon="8.5836067"><ele>201.0</ele><time>2026-03-29T08:52:08.958Z</time></trkpt><trkpt lat="45.722275" lon="8.5835233"><ele>201.0</ele><time>2026-03-29T08:52:09.958Z</time></trkpt><trkpt lat="45.7223667" lon="8.5834567"><ele>201.25</ele><time>2026-03-29T08:52:10.958Z</time></trkpt><trkpt lat="45.722455" lon="8.5833833"><ele>201.5</ele><time>2026-03-29T08:52:11.958Z</time></trkpt><trkpt lat="45.7225533" lon="8.5833033"><ele>201.75</ele><time>2026-03-29T08:52:12.958Z</time></trkpt><trkpt lat="45.722655" lon="8.5832167"><ele>202.0</ele><time>2026-03-29T08:52:13.958Z</time></trkpt><trkpt lat="45.7227667" lon="8.5831233"><ele>202.0</ele><time>2026-03-29T08:52:14.957Z</time></trkpt><trkpt lat="45.722895" lon="8.5830383"><ele>202.0</ele><time>2026-03-29T08:52:15.957Z</time></trkpt><trkpt lat="45.723045" lon="8.5829367"><ele>202.0</ele><time>2026-03-29T08:52:16.958Z</time></trkpt><trkpt lat="45.723205" lon="8.5828067"><ele>202.0</ele><time>2026-03-29T08:52:17.958Z</time></trkpt><trkpt lat="45.7233633" lon="8.5826833"><ele>202.0</ele><time>2026-03-29T08:52:18.958Z</time></trkpt><trkpt lat="45.72352" lon="8.5825567"><ele>202.0</ele><time>2026-03-29T08:52:19.958Z</time></trkpt><trkpt lat="45.72368" lon="8.5824267"><ele>201.33333333333331</ele><time>2026-03-29T08:52:20.958Z</time></trkpt><trkpt lat="45.7238333" lon="8.582305"><ele>200.66666666666669</ele><time>2026-03-29T08:52:21.958Z</time></trkpt><trkpt lat="45.7239883" lon="8.5821933"><ele>200.0</ele><time>2026-03-29T08:52:22.958Z</time></trkpt><trkpt lat="45.7241383" lon="8.5820867"><ele>200.33333333333334</ele><time>2026-03-29T08:52:23.958Z</time></trkpt><trkpt lat="45.7242867" lon="8.5819733"><ele>200.66666666666669</ele><time>2026-03-29T08:52:24.958Z</time></trkpt><trkpt lat="45.72444" lon="8.581855"><ele>201.0</ele><time>2026-03-29T08:52:25.958Z</time></trkpt><trkpt lat="45.7245967" lon="8.5817267"><ele>201.0</ele><time>2026-03-29T08:52:26.957Z</time></trkpt><trkpt lat="45.7247483" lon="8.5816017"><ele>201.0</ele><time>2026-03-29T08:52:27.958Z</time></trkpt><trkpt lat="45.7249167" lon="8.58147"><ele>201.0</ele><time>2026-03-29T08:52:28.958Z</time></trkpt><trkpt lat="45.7250767" lon="8.5813333"><ele>201.0</ele><time>2026-03-29T08:52:29.958Z</time></trkpt><trkpt lat="45.7252383" lon="8.5811967"><ele>201.0</ele><time>2026-03-29T08:52:30.958Z</time></trkpt><trkpt lat="45.7253967" lon="8.5810767"><ele>201.0</ele><time>2026-03-29T08:52:31.958Z</time></trkpt><trkpt lat="45.72555" lon="8.5809517"><ele>201.66666666666669</ele><time>2026-03-29T08:52:32.957Z</time></trkpt><trkpt lat="45.725715" lon="8.5808267"><ele>202.33333333333334</ele><time>2026-03-29T08:52:33.958Z</time></trkpt><trkpt lat="45.7258733" lon="8.5807"><ele>203.0</ele><time>2026-03-29T08:52:34.958Z</time></trkpt><trkpt lat="45.72603" lon="8.5805733"><ele>202.66666666666669</ele><time>2026-03-29T08:52:35.958Z</time></trkpt><trkpt lat="45.726195" lon="8.580435"><ele>202.33333333333331</ele><time>2026-03-29T08:52:36.958Z</time></trkpt><trkpt lat="45.726355" lon="8.5803133"><ele>202.0</ele><time>2026-03-29T08:52:37.958Z</time></trkpt><trkpt lat="45.726505" lon="8.5801967"><ele>202.0</ele><time>2026-03-29T08:52:38.958Z</time></trkpt><trkpt lat="45.7266417" lon="8.5800967"><ele>202.0</ele><time>2026-03-29T08:52:39.958Z</time></trkpt><trkpt lat="45.7267633" lon="8.5800067"><ele>202.0</ele><time>2026-03-29T08:52:40.958Z</time></trkpt><trkpt lat="45.7268933" lon="8.5799"><ele>202.0</ele><time>2026-03-29T08:52:41.958Z</time></trkpt><trkpt lat="45.7270133" lon="8.5798"><ele>201.66666666666666</ele><time>2026-03-29T08:52:42.958Z</time></trkpt><trkpt lat="45.7271233" lon="8.5797233"><ele>201.33333333333331</ele><time>2026-03-29T08:52:43.958Z</time></trkpt><trkpt lat="45.7272267" lon="8.579665"><ele>201.0</ele><time>2026-03-29T08:52:44.958Z</time></trkpt><trkpt lat="45.7274333" lon="8.5795633"><ele>201.0</ele><time>2026-03-29T08:52:46.958Z</time></trkpt><trkpt lat="45.72752" lon="8.57957"><ele>201.0</ele><time>2026-03-29T08:52:47.958Z</time></trkpt><trkpt lat="45.7275933" lon="8.5795817"><ele>201.0</ele><time>2026-03-29T08:52:48.958Z</time></trkpt><trkpt lat="45.7276583" lon="8.5795783"><ele>201.0</ele><time>2026-03-29T08:52:49.958Z</time></trkpt><trkpt lat="45.7277483" lon="8.5794967"><ele>201.0</ele><time>2026-03-29T08:52:51.958Z</time></trkpt><trkpt lat="45.7277967" lon="8.5793567"><ele>201.0</ele><time>2026-03-29T08:52:53.958Z</time></trkpt><trkpt lat="45.7278317" lon="8.5792717"><ele>201.4</ele><time>2026-03-29T08:52:54.958Z</time></trkpt><trkpt lat="45.7278833" lon="8.5791767"><ele>201.8</ele><time>2026-03-29T08:52:55.957Z</time></trkpt><trkpt lat="45.7279583" lon="8.5790833"><ele>202.20000000000002</ele><time>2026-03-29T08:52:56.958Z</time></trkpt><trkpt lat="45.7280417" lon="8.5789967"><ele>202.60000000000002</ele><time>2026-03-29T08:52:57.958Z</time></trkpt><trkpt lat="45.7281283" lon="8.57892"><ele>203.0</ele><time>2026-03-29T08:52:58.958Z</time></trkpt><trkpt lat="45.72821" lon="8.57885"><ele>203.0</ele><time>2026-03-29T08:52:59.958Z</time></trkpt><trkpt lat="45.728365" lon="8.5787283"><ele>203.0</ele><time>2026-03-29T08:53:01.958Z</time></trkpt><trkpt lat="45.7284433" lon="8.57867"><ele>203.0</ele><time>2026-03-29T08:53:02.958Z</time></trkpt><trkpt lat="45.7285217" lon="8.5786133"><ele>203.0</ele><time>2026-03-29T08:53:03.958Z</time></trkpt><trkpt lat="45.7286833" lon="8.5784767"><ele>203.2</ele><time>2026-03-29T08:53:05.957Z</time></trkpt><trkpt lat="45.72877" lon="8.5784017"><ele>203.4</ele><time>2026-03-29T08:53:06.958Z</time></trkpt><trkpt lat="45.7288667" lon="8.5783333"><ele>203.6</ele><time>2026-03-29T08:53:07.958Z</time></trkpt><trkpt lat="45.7289633" lon="8.5782483"><ele>203.79999999999998</ele><time>2026-03-29T08:53:08.958Z</time></trkpt><trkpt lat="45.72907" lon="8.5781717"><ele>204.0</ele><time>2026-03-29T08:53:09.958Z</time></trkpt><trkpt lat="45.7291717" lon="8.578105"><ele>204.0</ele><time>2026-03-29T08:53:10.958Z</time></trkpt><trkpt lat="45.72927" lon="8.57803"><ele>204.0</ele><time>2026-03-29T08:53:11.958Z</time></trkpt><trkpt lat="45.7293717" lon="8.57796"><ele>204.0</ele><time>2026-03-29T08:53:12.958Z</time></trkpt><trkpt lat="45.7294717" lon="8.5778767"><ele>204.0</ele><time>2026-03-29T08:53:13.958Z</time></trkpt><trkpt lat="45.7295733" lon="8.5777883"><ele>204.0</ele><time>2026-03-29T08:53:14.958Z</time></trkpt><trkpt lat="45.72969" lon="8.5777133"><ele>204.0</ele><time>2026-03-29T08:53:15.958Z</time></trkpt><trkpt lat="45.7298" lon="8.5776133"><ele>204.0</ele><time>2026-03-29T08:53:16.958Z</time></trkpt><trkpt lat="45.7299" lon="8.5775367"><ele>204.0</ele><time>2026-03-29T08:53:17.958Z</time></trkpt><trkpt lat="45.7299867" lon="8.57747"><ele>204.0</ele><time>2026-03-29T08:53:18.958Z</time></trkpt><trkpt lat="45.7300783" lon="8.5774"><ele>204.0</ele><time>2026-03-29T08:53:19.958Z</time></trkpt><trkpt lat="45.73016" lon="8.5773383"><ele>204.0</ele><time>2026-03-29T08:53:20.958Z</time></trkpt><trkpt lat="45.7302333" lon="8.5772833"><ele>204.0</ele><time>2026-03-29T08:53:21.958Z</time></trkpt><trkpt lat="45.73029" lon="8.5772317"><ele>204.0</ele><time>2026-03-29T08:53:22.958Z</time></trkpt><trkpt lat="45.7303633" lon="8.5771867"><ele>204.0</ele><time>2026-03-29T08:53:24.958Z</time></trkpt><trkpt lat="45.7304317" lon="8.5771533"><ele>203.66666666666666</ele><time>2026-03-29T08:53:28.958Z</time></trkpt><trkpt lat="45.7305117" lon="8.5771683"><ele>203.33333333333331</ele><time>2026-03-29T08:53:30.958Z</time></trkpt><trkpt lat="45.7306367" lon="8.57716"><ele>203.0</ele><time>2026-03-29T08:53:32.958Z</time></trkpt><trkpt lat="45.7306933" lon="8.57711"><ele>202.66666666666666</ele><time>2026-03-29T08:53:33.958Z</time></trkpt><trkpt lat="45.7307433" lon="8.5770383"><ele>202.33333333333331</ele><time>2026-03-29T08:53:34.958Z</time></trkpt><trkpt lat="45.7307817" lon="8.5769467"><ele>202.0</ele><time>2026-03-29T08:53:35.958Z</time></trkpt><trkpt lat="45.7308217" lon="8.5768533"><ele>201.99999999999997</ele><time>2026-03-29T08:53:36.958Z</time></trkpt><trkpt lat="45.7308817" lon="8.5767533"><ele>202.0</ele><time>2026-03-29T08:53:37.957Z</time></trkpt><trkpt lat="45.7309533" lon="8.5766667"><ele>202.0</ele><time>2026-03-29T08:53:38.957Z</time></trkpt><trkpt lat="45.7310233" lon="8.5766117"><ele>202.0</ele><time>2026-03-29T08:53:39.958Z</time></trkpt><trkpt lat="45.7310917" lon="8.5765667"><ele>201.99999999999997</ele><time>2026-03-29T08:53:40.958Z</time></trkpt><trkpt lat="45.7311733" lon="8.57651"><ele>202.0</ele><time>2026-03-29T08:53:41.958Z</time></trkpt><trkpt lat="45.7312633" lon="8.5764517"><ele>202.0</ele><time>2026-03-29T08:53:42.958Z</time></trkpt><trkpt lat="45.7313483" lon="8.5763733"><ele>202.0</ele><time>2026-03-29T08:53:43.958Z</time></trkpt><trkpt lat="45.7314317" lon="8.5762983"><ele>202.0</ele><time>2026-03-29T08:53:44.957Z</time></trkpt><trkpt lat="45.7315133" lon="8.5762333"><ele>202.0</ele><time>2026-03-29T08:53:45.958Z</time></trkpt><trkpt lat="45.7316017" lon="8.57617"><ele>202.0</ele><time>2026-03-29T08:53:46.958Z</time></trkpt><trkpt lat="45.73171" lon="8.5761017"><ele>202.25</ele><time>2026-03-29T08:53:47.958Z</time></trkpt><trkpt lat="45.7318033" lon="8.5760333"><ele>202.5</ele><time>2026-03-29T08:53:48.958Z</time></trkpt><trkpt lat="45.7318983" lon="8.575955"><ele>202.75</ele><time>2026-03-29T08:53:49.958Z</time></trkpt><trkpt lat="45.731995" lon="8.5758733"><ele>203.0</ele><time>2026-03-29T08:53:50.957Z</time></trkpt><trkpt lat="45.7321067" lon="8.5757733"><ele>203.25</ele><time>2026-03-29T08:53:51.958Z</time></trkpt><trkpt lat="45.732225" lon="8.5756717"><ele>203.5</ele><time>2026-03-29T08:53:52.958Z</time></trkpt><trkpt lat="45.732335" lon="8.57557"><ele>203.75</ele><time>2026-03-29T08:53:53.958Z</time></trkpt><trkpt lat="45.7324383" lon="8.5754867"><ele>204.0</ele><time>2026-03-29T08:53:54.958Z</time></trkpt><trkpt lat="45.7325333" lon="8.5754083"><ele>204.25</ele><time>2026-03-29T08:53:55.958Z</time></trkpt><trkpt lat="45.732635" lon="8.575335"><ele>204.5</ele><time>2026-03-29T08:53:56.958Z</time></trkpt><trkpt lat="45.73274" lon="8.5752683"><ele>204.75</ele><time>2026-03-29T08:53:57.958Z</time></trkpt><trkpt lat="45.7328417" lon="8.5751933"><ele>205.0</ele><time>2026-03-29T08:53:58.958Z</time></trkpt><trkpt lat="45.73294" lon="8.5751217"><ele>205.0</ele><time>2026-03-29T08:53:59.958Z</time></trkpt><trkpt lat="45.73304" lon="8.57505"><ele>205.0</ele><time>2026-03-29T08:54:00.958Z</time></trkpt><trkpt lat="45.73313" lon="8.574975"><ele>205.0</ele><time>2026-03-29T08:54:01.958Z</time></trkpt><trkpt lat="45.7332233" lon="8.5748983"><ele>205.0</ele><time>2026-03-29T08:54:02.958Z</time></trkpt><trkpt lat="45.7333233" lon="8.5748117"><ele>205.0</ele><time>2026-03-29T08:54:03.958Z</time></trkpt><trkpt lat="45.7334167" lon="8.5747367"><ele>205.0</ele><time>2026-03-29T08:54:04.958Z</time></trkpt><trkpt lat="45.7335083" lon="8.5746733"><ele>205.0</ele><time>2026-03-29T08:54:05.958Z</time></trkpt><trkpt lat="45.7335867" lon="8.5746067"><ele>205.0</ele><time>2026-03-29T08:54:06.957Z</time></trkpt><trkpt lat="45.7336633" lon="8.574545"><ele>205.0</ele><time>2026-03-29T08:54:07.958Z</time></trkpt><trkpt lat="45.7337533" lon="8.5744767"><ele>205.0</ele><time>2026-03-29T08:54:08.957Z</time></trkpt><trkpt lat="45.7338417" lon="8.574415"><ele>205.16666666666666</ele><time>2026-03-29T08:54:09.958Z</time></trkpt><trkpt lat="45.73393" lon="8.5743633"><ele>205.33333333333331</ele><time>2026-03-29T08:54:10.957Z</time></trkpt><trkpt lat="45.7340083" lon="8.5743117"><ele>205.5</ele><time>2026-03-29T08:54:11.958Z</time></trkpt><trkpt lat="45.7340817" lon="8.5742483"><ele>205.66666666666669</ele><time>2026-03-29T08:54:12.958Z</time></trkpt><trkpt lat="45.7341467" lon="8.5741917"><ele>205.83333333333334</ele><time>2026-03-29T08:54:13.958Z</time></trkpt><trkpt lat="45.7342083" lon="8.57414"><ele>206.0</ele><time>2026-03-29T08:54:14.958Z</time></trkpt><trkpt lat="45.734275" lon="8.5740933"><ele>206.00000000000003</ele><time>2026-03-29T08:54:15.958Z</time></trkpt><trkpt lat="45.7343433" lon="8.574045"><ele>206.0</ele><time>2026-03-29T08:54:16.958Z</time></trkpt><trkpt lat="45.7344033" lon="8.5740117"><ele>206.0</ele><time>2026-03-29T08:54:17.958Z</time></trkpt><trkpt lat="45.7345133" lon="8.574025"><ele>206.0</ele><time>2026-03-29T08:54:19.958Z</time></trkpt><trkpt lat="45.7345767" lon="8.5740717"><ele>206.00000000000003</ele><time>2026-03-29T08:54:20.958Z</time></trkpt><trkpt lat="45.7346417" lon="8.5741083"><ele>206.0</ele><time>2026-03-29T08:54:21.958Z</time></trkpt><trkpt lat="45.73471" lon="8.5741383"><ele>206.14285714285714</ele><time>2026-03-29T08:54:22.958Z</time></trkpt><trkpt lat="45.7347767" lon="8.57414"><ele>206.28571428571428</ele><time>2026-03-29T08:54:23.958Z</time></trkpt><trkpt lat="45.7348417" lon="8.574095"><ele>206.42857142857144</ele><time>2026-03-29T08:54:24.957Z</time></trkpt><trkpt lat="45.7349" lon="8.57403"><ele>206.57142857142856</ele><time>2026-03-29T08:54:25.958Z</time></trkpt><trkpt lat="45.7349417" lon="8.5739333"><ele>206.71428571428572</ele><time>2026-03-29T08:54:26.958Z</time></trkpt><trkpt lat="45.73497" lon="8.5738267"><ele>206.85714285714286</ele><time>2026-03-29T08:54:27.958Z</time></trkpt><trkpt lat="45.735" lon="8.5737333"><ele>207.0</ele><time>2026-03-29T08:54:28.957Z</time></trkpt><trkpt lat="45.73504" lon="8.5736467"><ele>207.2</ele><time>2026-03-29T08:54:29.958Z</time></trkpt><trkpt lat="45.7350933" lon="8.5735533"><ele>207.39999999999998</ele><time>2026-03-29T08:54:30.958Z</time></trkpt><trkpt lat="45.73515" lon="8.5734583"><ele>207.60000000000002</ele><time>2026-03-29T08:54:31.958Z</time></trkpt><trkpt lat="45.7352083" lon="8.5733733"><ele>207.8</ele><time>2026-03-29T08:54:32.958Z</time></trkpt><trkpt lat="45.7352833" lon="8.5732867"><ele>208.0</ele><time>2026-03-29T08:54:33.957Z</time></trkpt><trkpt lat="45.7353683" lon="8.5732133"><ele>208.0</ele><time>2026-03-29T08:54:34.957Z</time></trkpt><trkpt lat="45.7354583" lon="8.5731433"><ele>208.0</ele><time>2026-03-29T08:54:35.957Z</time></trkpt><trkpt lat="45.7355567" lon="8.57306"><ele>208.0</ele><time>2026-03-29T08:54:36.956Z</time></trkpt><trkpt lat="45.7356517" lon="8.57298"><ele>208.0</ele><time>2026-03-29T08:54:37.957Z</time></trkpt><trkpt lat="45.7357417" lon="8.5729067"><ele>208.0</ele><time>2026-03-29T08:54:38.957Z</time></trkpt><trkpt lat="45.7358367" lon="8.572835"><ele>208.2</ele><time>2026-03-29T08:54:39.957Z</time></trkpt><trkpt lat="45.735925" lon="8.5727667"><ele>208.4</ele><time>2026-03-29T08:54:40.957Z</time></trkpt><trkpt lat="45.7360133" lon="8.5726967"><ele>208.6</ele><time>2026-03-29T08:54:41.957Z</time></trkpt><trkpt lat="45.73611" lon="8.5726217"><ele>208.79999999999998</ele><time>2026-03-29T08:54:42.957Z</time></trkpt><trkpt lat="45.73621" lon="8.5725417"><ele>209.0</ele><time>2026-03-29T08:54:43.957Z</time></trkpt><trkpt lat="45.7363133" lon="8.5724633"><ele>208.5</ele><time>2026-03-29T08:54:44.957Z</time></trkpt><trkpt lat="45.7364217" lon="8.5723733"><ele>208.0</ele><time>2026-03-29T08:54:45.957Z</time></trkpt><trkpt lat="45.7365417" lon="8.5722783"><ele>207.5</ele><time>2026-03-29T08:54:46.957Z</time></trkpt><trkpt lat="45.736685" lon="8.5721633"><ele>207.0</ele><time>2026-03-29T08:54:47.957Z</time></trkpt><trkpt lat="45.736845" lon="8.5720367"><ele>207.33333333333331</ele><time>2026-03-29T08:54:48.957Z</time></trkpt><trkpt lat="45.7370233" lon="8.5719"><ele>207.66666666666666</ele><time>2026-03-29T08:54:49.957Z</time></trkpt><trkpt lat="45.7371983" lon="8.5717583"><ele>208.0</ele><time>2026-03-29T08:54:50.957Z</time></trkpt><trkpt lat="45.7373683" lon="8.5716233"><ele>208.0</ele><time>2026-03-29T08:54:51.957Z</time></trkpt><trkpt lat="45.7375483" lon="8.5714917"><ele>208.0</ele><time>2026-03-29T08:54:52.957Z</time></trkpt><trkpt lat="45.7377383" lon="8.5713567"><ele>208.0</ele><time>2026-03-29T08:54:53.957Z</time></trkpt><trkpt lat="45.7379117" lon="8.5712083"><ele>207.0</ele><time>2026-03-29T08:54:54.957Z</time></trkpt><trkpt lat="45.7383667" lon="8.5708383"><ele>207.0</ele><time>2026-03-29T08:54:57.957Z</time></trkpt><trkpt lat="45.7385183" lon="8.5707117"><ele>207.0</ele><time>2026-03-29T08:54:58.957Z</time></trkpt><trkpt lat="45.7386733" lon="8.57058"><ele>207.0</ele><time>2026-03-29T08:54:59.956Z</time></trkpt><trkpt lat="45.7388283" lon="8.57045"><ele>207.0</ele><time>2026-03-29T08:55:00.957Z</time></trkpt><trkpt lat="45.73899" lon="8.5703183"><ele>207.0</ele><time>2026-03-29T08:55:01.957Z</time></trkpt><trkpt lat="45.73917" lon="8.5701883"><ele>207.0</ele><time>2026-03-29T08:55:02.957Z</time></trkpt><trkpt lat="45.7393567" lon="8.5700567"><ele>207.33333333333331</ele><time>2026-03-29T08:55:03.946Z</time></trkpt><trkpt lat="45.73954" lon="8.5699133"><ele>207.66666666666666</ele><time>2026-03-29T08:55:04.957Z</time></trkpt><trkpt lat="45.73972" lon="8.5697683"><ele>208.0</ele><time>2026-03-29T08:55:05.957Z</time></trkpt><trkpt lat="45.7399" lon="8.5696183"><ele>208.0</ele><time>2026-03-29T08:55:06.957Z</time></trkpt><trkpt lat="45.740085" lon="8.569465"><ele>208.0</ele><time>2026-03-29T08:55:07.957Z</time></trkpt><trkpt lat="45.740275" lon="8.569325"><ele>208.0</ele><time>2026-03-29T08:55:08.956Z</time></trkpt><trkpt lat="45.7404733" lon="8.5691783"><ele>207.0</ele><time>2026-03-29T08:55:09.957Z</time></trkpt><trkpt lat="45.74066" lon="8.56902"><ele>206.0</ele><time>2026-03-29T08:55:10.957Z</time></trkpt><trkpt lat="45.7408517" lon="8.56887"><ele>205.0</ele><time>2026-03-29T08:55:11.957Z</time></trkpt><trkpt lat="45.74104" lon="8.56872"><ele>205.0</ele><time>2026-03-29T08:55:12.957Z</time></trkpt><trkpt lat="45.74124" lon="8.5685583"><ele>205.0</ele><time>2026-03-29T08:55:13.957Z</time></trkpt><trkpt lat="45.7414383" lon="8.5684067"><ele>205.0</ele><time>2026-03-29T08:55:14.957Z</time></trkpt><trkpt lat="45.7416167" lon="8.568255"><ele>205.0</ele><time>2026-03-29T08:55:15.957Z</time></trkpt><trkpt lat="45.7418017" lon="8.56812"><ele>205.0</ele><time>2026-03-29T08:55:16.957Z</time></trkpt><trkpt lat="45.7419733" lon="8.56798"><ele>205.0</ele><time>2026-03-29T08:55:17.957Z</time></trkpt><trkpt lat="45.7421283" lon="8.5678533"><ele>205.0</ele><time>2026-03-29T08:55:18.957Z</time></trkpt><trkpt lat="45.742265" lon="8.5677483"><ele>205.0</ele><time>2026-03-29T08:55:19.957Z</time></trkpt><trkpt lat="45.742395" lon="8.5676433"><ele>205.0</ele><time>2026-03-29T08:55:20.956Z</time></trkpt><trkpt lat="45.7425233" lon="8.5675567"><ele>205.0</ele><time>2026-03-29T08:55:21.957Z</time></trkpt><trkpt lat="45.7426517" lon="8.56746"><ele>205.0</ele><time>2026-03-29T08:55:22.957Z</time></trkpt><trkpt lat="45.7427917" lon="8.5673433"><ele>205.0</ele><time>2026-03-29T08:55:23.957Z</time></trkpt><trkpt lat="45.74294" lon="8.5672233"><ele>204.33333333333331</ele><time>2026-03-29T08:55:24.957Z</time></trkpt><trkpt lat="45.7431117" lon="8.5670917"><ele>203.66666666666669</ele><time>2026-03-29T08:55:25.957Z</time></trkpt><trkpt lat="45.743295" lon="8.566945"><ele>203.0</ele><time>2026-03-29T08:55:26.957Z</time></trkpt><trkpt lat="45.7434667" lon="8.5668033"><ele>202.66666666666669</ele><time>2026-03-29T08:55:27.957Z</time></trkpt><trkpt lat="45.74363" lon="8.56667"><ele>202.33333333333331</ele><time>2026-03-29T08:55:28.957Z</time></trkpt><trkpt lat="45.7437833" lon="8.5665317"><ele>202.0</ele><time>2026-03-29T08:55:29.956Z</time></trkpt><trkpt lat="45.7439333" lon="8.566415"><ele>202.0</ele><time>2026-03-29T08:55:30.957Z</time></trkpt><trkpt lat="45.7440867" lon="8.5662933"><ele>202.0</ele><time>2026-03-29T08:55:31.957Z</time></trkpt><trkpt lat="45.7442367" lon="8.5661783"><ele>202.0</ele><time>2026-03-29T08:55:32.957Z</time></trkpt><trkpt lat="45.7443917" lon="8.566055"><ele>202.0</ele><time>2026-03-29T08:55:33.957Z</time></trkpt><trkpt lat="45.744545" lon="8.56593"><ele>202.0</ele><time>2026-03-29T08:55:34.957Z</time></trkpt><trkpt lat="45.744695" lon="8.5658117"><ele>202.0</ele><time>2026-03-29T08:55:35.957Z</time></trkpt><trkpt lat="45.7448333" lon="8.565705"><ele>202.0</ele><time>2026-03-29T08:55:36.957Z</time></trkpt><trkpt lat="45.7449583" lon="8.5656117"><ele>202.0</ele><time>2026-03-29T08:55:37.957Z</time></trkpt><trkpt lat="45.7450717" lon="8.5655167"><ele>202.0</ele><time>2026-03-29T08:55:38.957Z</time></trkpt><trkpt lat="45.7451817" lon="8.5654333"><ele>202.0</ele><time>2026-03-29T08:55:39.957Z</time></trkpt><trkpt lat="45.7452983" lon="8.5653533"><ele>201.75</ele><time>2026-03-29T08:55:40.957Z</time></trkpt><trkpt lat="45.7454033" lon="8.5652733"><ele>201.5</ele><time>2026-03-29T08:55:41.957Z</time></trkpt><trkpt lat="45.7455" lon="8.565185"><ele>201.25</ele><time>2026-03-29T08:55:42.957Z</time></trkpt><trkpt lat="45.745605" lon="8.5650983"><ele>201.0</ele><time>2026-03-29T08:55:43.957Z</time></trkpt><trkpt lat="45.745715" lon="8.5650283"><ele>201.0</ele><time>2026-03-29T08:55:44.957Z</time></trkpt><trkpt lat="45.745825" lon="8.564955"><ele>201.0</ele><time>2026-03-29T08:55:45.957Z</time></trkpt><trkpt lat="45.7459333" lon="8.564895"><ele>201.0</ele><time>2026-03-29T08:55:46.957Z</time></trkpt><trkpt lat="45.7460417" lon="8.56484"><ele>201.0</ele><time>2026-03-29T08:55:47.956Z</time></trkpt><trkpt lat="45.7461417" lon="8.5647933"><ele>200.8</ele><time>2026-03-29T08:55:48.957Z</time></trkpt><trkpt lat="45.74624" lon="8.564765"><ele>200.60000000000002</ele><time>2026-03-29T08:55:49.957Z</time></trkpt><trkpt lat="45.746335" lon="8.5647317"><ele>200.4</ele><time>2026-03-29T08:55:50.957Z</time></trkpt><trkpt lat="45.74644" lon="8.5647083"><ele>200.2</ele><time>2026-03-29T08:55:51.957Z</time></trkpt><trkpt lat="45.746545" lon="8.564695"><ele>200.0</ele><time>2026-03-29T08:55:52.957Z</time></trkpt><trkpt lat="45.7466467" lon="8.564685"><ele>200.0</ele><time>2026-03-29T08:55:53.957Z</time></trkpt><trkpt lat="45.7467383" lon="8.5646733"><ele>200.0</ele><time>2026-03-29T08:55:54.957Z</time></trkpt><trkpt lat="45.7468217" lon="8.5646667"><ele>200.0</ele><time>2026-03-29T08:55:55.957Z</time></trkpt><trkpt lat="45.74693" lon="8.5647"><ele>200.0</ele><time>2026-03-29T08:55:57.957Z</time></trkpt><trkpt lat="45.7470417" lon="8.5647683"><ele>200.0</ele><time>2026-03-29T08:55:59.957Z</time></trkpt><trkpt lat="45.7471483" lon="8.5647333"><ele>200.2</ele><time>2026-03-29T08:56:01.957Z</time></trkpt><trkpt lat="45.7472" lon="8.5645483"><ele>200.4</ele><time>2026-03-29T08:56:03.957Z</time></trkpt><trkpt lat="45.74719" lon="8.5644133"><ele>200.60000000000002</ele><time>2026-03-29T08:56:04.957Z</time></trkpt><trkpt lat="45.747185" lon="8.5643"><ele>200.8</ele><time>2026-03-29T08:56:05.957Z</time></trkpt><trkpt lat="45.7472067" lon="8.5641967"><ele>201.0</ele><time>2026-03-29T08:56:06.957Z</time></trkpt><trkpt lat="45.7472367" lon="8.5640717"><ele>201.0</ele><time>2026-03-29T08:56:07.957Z</time></trkpt><trkpt lat="45.7473" lon="8.56392"><ele>201.0</ele><time>2026-03-29T08:56:08.957Z</time></trkpt><trkpt lat="45.7474317" lon="8.563745"><ele>201.0</ele><time>2026-03-29T08:56:09.957Z</time></trkpt><trkpt lat="45.7475883" lon="8.5636033"><ele>201.0</ele><time>2026-03-29T08:56:10.957Z</time></trkpt><trkpt lat="45.7477117" lon="8.5634567"><ele>201.0</ele><time>2026-03-29T08:56:11.957Z</time></trkpt><trkpt lat="45.747835" lon="8.56334"><ele>201.0</ele><time>2026-03-29T08:56:12.957Z</time></trkpt><trkpt lat="45.74797" lon="8.56324"><ele>201.0</ele><time>2026-03-29T08:56:13.957Z</time></trkpt><trkpt lat="45.7480867" lon="8.563145"><ele>201.0</ele><time>2026-03-29T08:56:14.957Z</time></trkpt><trkpt lat="45.748185" lon="8.563085"><ele>201.0</ele><time>2026-03-29T08:56:15.957Z</time></trkpt><trkpt lat="45.7482983" lon="8.563"><ele>201.0</ele><time>2026-03-29T08:56:16.957Z</time></trkpt><trkpt lat="45.74841" lon="8.562905"><ele>201.25</ele><time>2026-03-29T08:56:17.957Z</time></trkpt><trkpt lat="45.748525" lon="8.5628167"><ele>201.5</ele><time>2026-03-29T08:56:18.957Z</time></trkpt><trkpt lat="45.748625" lon="8.5627283"><ele>201.75</ele><time>2026-03-29T08:56:19.957Z</time></trkpt><trkpt lat="45.748745" lon="8.5626367"><ele>202.0</ele><time>2026-03-29T08:56:20.957Z</time></trkpt><trkpt lat="45.7488767" lon="8.56256"><ele>202.0</ele><time>2026-03-29T08:56:21.957Z</time></trkpt><trkpt lat="45.7489817" lon="8.5624717"><ele>202.0</ele><time>2026-03-29T08:56:22.957Z</time></trkpt><trkpt lat="45.7490867" lon="8.562385"><ele>202.0</ele><time>2026-03-29T08:56:23.956Z</time></trkpt><trkpt lat="45.7491733" lon="8.5623067"><ele>202.0</ele><time>2026-03-29T08:56:24.957Z</time></trkpt><trkpt lat="45.7492517" lon="8.5622433"><ele>202.0</ele><time>2026-03-29T08:56:25.956Z</time></trkpt><trkpt lat="45.7493267" lon="8.5621783"><ele>202.0</ele><time>2026-03-29T08:56:26.956Z</time></trkpt><trkpt lat="45.7494067" lon="8.5621217"><ele>202.0</ele><time>2026-03-29T08:56:27.957Z</time></trkpt><trkpt lat="45.7494817" lon="8.5620533"><ele>202.0</ele><time>2026-03-29T08:56:28.957Z</time></trkpt><trkpt lat="45.7495567" lon="8.5619883"><ele>202.0</ele><time>2026-03-29T08:56:29.957Z</time></trkpt><trkpt lat="45.74965" lon="8.56191"><ele>202.0</ele><time>2026-03-29T08:56:30.957Z</time></trkpt><trkpt lat="45.7497433" lon="8.5618267"><ele>202.0</ele><time>2026-03-29T08:56:31.957Z</time></trkpt><trkpt lat="45.7498433" lon="8.5617383"><ele>202.0</ele><time>2026-03-29T08:56:32.957Z</time></trkpt><trkpt lat="45.7499483" lon="8.5616617"><ele>202.0</ele><time>2026-03-29T08:56:33.957Z</time></trkpt><trkpt lat="45.7500533" lon="8.561585"><ele>202.0</ele><time>2026-03-29T08:56:34.957Z</time></trkpt><trkpt lat="45.7501533" lon="8.5615067"><ele>202.0</ele><time>2026-03-29T08:56:35.956Z</time></trkpt><trkpt lat="45.7502467" lon="8.5614217"><ele>202.0</ele><time>2026-03-29T08:56:36.957Z</time></trkpt><trkpt lat="45.7503467" lon="8.5613417"><ele>202.0</ele><time>2026-03-29T08:56:37.957Z</time></trkpt><trkpt lat="45.7504417" lon="8.5612667"><ele>202.0</ele><time>2026-03-29T08:56:38.957Z</time></trkpt><trkpt lat="45.75055" lon="8.5611883"><ele>201.75</ele><time>2026-03-29T08:56:39.957Z</time></trkpt><trkpt lat="45.7506517" lon="8.561105"><ele>201.5</ele><time>2026-03-29T08:56:40.957Z</time></trkpt><trkpt lat="45.750755" lon="8.5610167"><ele>201.25</ele><time>2026-03-29T08:56:41.957Z</time></trkpt><trkpt lat="45.7508633" lon="8.5609317"><ele>201.0</ele><time>2026-03-29T08:56:42.957Z</time></trkpt><trkpt lat="45.75097" lon="8.5608533"><ele>201.66666666666669</ele><time>2026-03-29T08:56:43.957Z</time></trkpt><trkpt lat="45.7510783" lon="8.5607633"><ele>202.33333333333334</ele><time>2026-03-29T08:56:44.957Z</time></trkpt><trkpt lat="45.7512867" lon="8.5606067"><ele>203.0</ele><time>2026-03-29T08:56:46.957Z</time></trkpt><trkpt lat="45.7513817" lon="8.5605367"><ele>203.0</ele><time>2026-03-29T08:56:47.957Z</time></trkpt><trkpt lat="45.751475" lon="8.5604617"><ele>203.0</ele><time>2026-03-29T08:56:48.957Z</time></trkpt><trkpt lat="45.7515633" lon="8.560395"><ele>203.0</ele><time>2026-03-29T08:56:49.957Z</time></trkpt><trkpt lat="45.7516483" lon="8.5603267"><ele>203.0</ele><time>2026-03-29T08:56:50.957Z</time></trkpt><trkpt lat="45.7517317" lon="8.5602517"><ele>203.0</ele><time>2026-03-29T08:56:51.957Z</time></trkpt><trkpt lat="45.7518167" lon="8.5601833"><ele>203.2</ele><time>2026-03-29T08:56:52.957Z</time></trkpt><trkpt lat="45.7519017" lon="8.5601167"><ele>203.4</ele><time>2026-03-29T08:56:53.957Z</time></trkpt><trkpt lat="45.7519833" lon="8.560045"><ele>203.6</ele><time>2026-03-29T08:56:54.957Z</time></trkpt><trkpt lat="45.7520617" lon="8.5599783"><ele>203.79999999999998</ele><time>2026-03-29T08:56:55.957Z</time></trkpt><trkpt lat="45.75215" lon="8.5599083"><ele>204.0</ele><time>2026-03-29T08:56:56.957Z</time></trkpt><trkpt lat="45.7522367" lon="8.5598333"><ele>204.0</ele><time>2026-03-29T08:56:57.957Z</time></trkpt><trkpt lat="45.752325" lon="8.5597633"><ele>204.0</ele><time>2026-03-29T08:56:58.957Z</time></trkpt><trkpt lat="45.7524167" lon="8.5596933"><ele>204.0</ele><time>2026-03-29T08:56:59.957Z</time></trkpt><trkpt lat="45.7525017" lon="8.5596283"><ele>204.0</ele><time>2026-03-29T08:57:00.956Z</time></trkpt><trkpt lat="45.752575" lon="8.5595683"><ele>204.0</ele><time>2026-03-29T08:57:01.957Z</time></trkpt><trkpt lat="45.752645" lon="8.55952"><ele>204.2</ele><time>2026-03-29T08:57:02.957Z</time></trkpt><trkpt lat="45.7527033" lon="8.5594767"><ele>204.39999999999998</ele><time>2026-03-29T08:57:03.957Z</time></trkpt><trkpt lat="45.7527867" lon="8.5594"><ele>204.6</ele><time>2026-03-29T08:57:05.957Z</time></trkpt><trkpt lat="45.75286" lon="8.5593367"><ele>204.8</ele><time>2026-03-29T08:57:07.956Z</time></trkpt><trkpt lat="45.7529633" lon="8.5592417"><ele>205.0</ele><time>2026-03-29T08:57:09.957Z</time></trkpt><trkpt lat="45.753035" lon="8.5591933"><ele>205.0</ele><time>2026-03-29T08:57:10.956Z</time></trkpt><trkpt lat="45.7531267" lon="8.5591333"><ele>205.0</ele><time>2026-03-29T08:57:11.957Z</time></trkpt><trkpt lat="45.753235" lon="8.5590583"><ele>205.0</ele><time>2026-03-29T08:57:12.957Z</time></trkpt><trkpt lat="45.7533533" lon="8.5589633"><ele>205.0</ele><time>2026-03-29T08:57:13.957Z</time></trkpt><trkpt lat="45.75347" lon="8.5588683"><ele>204.75</ele><time>2026-03-29T08:57:14.957Z</time></trkpt><trkpt lat="45.7535833" lon="8.5587717"><ele>204.5</ele><time>2026-03-29T08:57:15.957Z</time></trkpt><trkpt lat="45.7537" lon="8.5586917"><ele>204.25</ele><time>2026-03-29T08:57:16.957Z</time></trkpt><trkpt lat="45.753805" lon="8.5586083"><ele>204.0</ele><time>2026-03-29T08:57:17.957Z</time></trkpt><trkpt lat="45.753905" lon="8.5585267"><ele>204.6</ele><time>2026-03-29T08:57:18.957Z</time></trkpt><trkpt lat="45.7540033" lon="8.5584567"><ele>205.2</ele><time>2026-03-29T08:57:19.957Z</time></trkpt><trkpt lat="45.75409" lon="8.5583967"><ele>205.79999999999998</ele><time>2026-03-29T08:57:20.957Z</time></trkpt><trkpt lat="45.7541717" lon="8.55833"><ele>206.39999999999998</ele><time>2026-03-29T08:57:21.956Z</time></trkpt><trkpt lat="45.7542617" lon="8.5582617"><ele>207.0</ele><time>2026-03-29T08:57:22.957Z</time></trkpt><trkpt lat="45.7543467" lon="8.55819"><ele>206.66666666666666</ele><time>2026-03-29T08:57:23.957Z</time></trkpt><trkpt lat="45.7544283" lon="8.5581133"><ele>206.33333333333331</ele><time>2026-03-29T08:57:24.957Z</time></trkpt><trkpt lat="45.754515" lon="8.5580383"><ele>206.0</ele><time>2026-03-29T08:57:25.957Z</time></trkpt><trkpt lat="45.754585" lon="8.5579717"><ele>205.66666666666666</ele><time>2026-03-29T08:57:26.957Z</time></trkpt><trkpt lat="45.754655" lon="8.557925"><ele>205.33333333333331</ele><time>2026-03-29T08:57:27.957Z</time></trkpt><trkpt lat="45.7547117" lon="8.55788"><ele>205.0</ele><time>2026-03-29T08:57:28.956Z</time></trkpt><trkpt lat="45.7547733" lon="8.5578183"><ele>204.83333333333331</ele><time>2026-03-29T08:57:29.956Z</time></trkpt><trkpt lat="45.75485" lon="8.5577633"><ele>204.66666666666666</ele><time>2026-03-29T08:57:30.956Z</time></trkpt><trkpt lat="45.7549317" lon="8.5577183"><ele>204.5</ele><time>2026-03-29T08:57:31.956Z</time></trkpt><trkpt lat="45.755015" lon="8.557675"><ele>204.33333333333331</ele><time>2026-03-29T08:57:32.956Z</time></trkpt><trkpt lat="45.75509" lon="8.55763"><ele>204.16666666666666</ele><time>2026-03-29T08:57:33.956Z</time></trkpt><trkpt lat="45.7551683" lon="8.5575883"><ele>204.0</ele><time>2026-03-29T08:57:34.955Z</time></trkpt><trkpt lat="45.7552467" lon="8.5575517"><ele>204.33333333333334</ele><time>2026-03-29T08:57:35.956Z</time></trkpt><trkpt lat="45.75532" lon="8.55752"><ele>204.66666666666669</ele><time>2026-03-29T08:57:36.956Z</time></trkpt><trkpt lat="45.75539" lon="8.5574933"><ele>205.0</ele><time>2026-03-29T08:57:37.956Z</time></trkpt><trkpt lat="45.7554633" lon="8.5574633"><ele>205.33333333333334</ele><time>2026-03-29T08:57:38.956Z</time></trkpt><trkpt lat="45.755545" lon="8.55744"><ele>205.66666666666669</ele><time>2026-03-29T08:57:39.956Z</time></trkpt><trkpt lat="45.7556317" lon="8.5574183"><ele>206.0</ele><time>2026-03-29T08:57:40.955Z</time></trkpt><trkpt lat="45.7557217" lon="8.55739"><ele>206.00000000000003</ele><time>2026-03-29T08:57:41.956Z</time></trkpt><trkpt lat="45.7558067" lon="8.557365"><ele>206.0</ele><time>2026-03-29T08:57:42.956Z</time></trkpt><trkpt lat="45.7558867" lon="8.5573417"><ele>206.0</ele><time>2026-03-29T08:57:43.956Z</time></trkpt><trkpt lat="45.7559617" lon="8.557325"><ele>206.0</ele><time>2026-03-29T08:57:44.956Z</time></trkpt><trkpt lat="45.7560367" lon="8.5573117"><ele>206.00000000000003</ele><time>2026-03-29T08:57:45.956Z</time></trkpt><trkpt lat="45.756105" lon="8.5573183"><ele>206.0</ele><time>2026-03-29T08:57:46.956Z</time></trkpt><trkpt lat="45.7561683" lon="8.5573167"><ele>206.00000000000003</ele><time>2026-03-29T08:57:47.956Z</time></trkpt><trkpt lat="45.7562667" lon="8.557335"><ele>206.0</ele><time>2026-03-29T08:57:49.956Z</time></trkpt><trkpt lat="45.7563867" lon="8.557345"><ele>206.0</ele><time>2026-03-29T08:57:51.956Z</time></trkpt><trkpt lat="45.75645" lon="8.5573383"><ele>206.0</ele><time>2026-03-29T08:57:52.956Z</time></trkpt><trkpt lat="45.756535" lon="8.5573383"><ele>206.00000000000003</ele><time>2026-03-29T08:57:54.956Z</time></trkpt><trkpt lat="45.756615" lon="8.5573483"><ele>206.0</ele><time>2026-03-29T08:57:58.956Z</time></trkpt><trkpt lat="45.756695" lon="8.557345"><ele>206.00000000000003</ele><time>2026-03-29T08:58:00.956Z</time></trkpt><trkpt lat="45.75677" lon="8.5573367"><ele>206.0</ele><time>2026-03-29T08:58:01.956Z</time></trkpt><trkpt lat="45.7568467" lon="8.557325"><ele>206.0</ele><time>2026-03-29T08:58:02.956Z</time></trkpt><trkpt lat="45.756915" lon="8.55731"><ele>206.0</ele><time>2026-03-29T08:58:03.956Z</time></trkpt><trkpt lat="45.7569817" lon="8.5572917"><ele>206.00000000000003</ele><time>2026-03-29T08:58:04.955Z</time></trkpt><trkpt lat="45.7571033" lon="8.5572733"><ele>206.0</ele><time>2026-03-29T08:58:06.955Z</time></trkpt><trkpt lat="45.7571717" lon="8.55735"><ele>206.25</ele><time>2026-03-29T08:58:07.955Z</time></trkpt><trkpt lat="45.7572733" lon="8.5574217"><ele>206.5</ele><time>2026-03-29T08:58:08.956Z</time></trkpt><trkpt lat="45.7573817" lon="8.5574917"><ele>206.75</ele><time>2026-03-29T08:58:09.956Z</time></trkpt><trkpt lat="45.7575117" lon="8.5575783"><ele>207.0</ele><time>2026-03-29T08:58:10.956Z</time></trkpt><trkpt lat="45.7576317" lon="8.5576567"><ele>207.39999999999998</ele><time>2026-03-29T08:58:11.956Z</time></trkpt><trkpt lat="45.757735" lon="8.5577467"><ele>207.79999999999998</ele><time>2026-03-29T08:58:12.956Z</time></trkpt><trkpt lat="45.7578233" lon="8.5578183"><ele>208.2</ele><time>2026-03-29T08:58:13.956Z</time></trkpt><trkpt lat="45.7579183" lon="8.5578867"><ele>208.6</ele><time>2026-03-29T08:58:14.956Z</time></trkpt><trkpt lat="45.7580267" lon="8.5579517"><ele>209.0</ele><time>2026-03-29T08:58:15.956Z</time></trkpt><trkpt lat="45.7581217" lon="8.5579817"><ele>209.00000000000003</ele><time>2026-03-29T08:58:16.956Z</time></trkpt><trkpt lat="45.7581917" lon="8.5580217"><ele>209.0</ele><time>2026-03-29T08:58:17.956Z</time></trkpt><trkpt lat="45.7582517" lon="8.55806"><ele>209.0</ele><time>2026-03-29T08:58:18.956Z</time></trkpt><trkpt lat="45.7583133" lon="8.5580983"><ele>209.0</ele><time>2026-03-29T08:58:19.956Z</time></trkpt><trkpt lat="45.75838" lon="8.5581383"><ele>209.00000000000003</ele><time>2026-03-29T08:58:20.956Z</time></trkpt><trkpt lat="45.7584933" lon="8.5582017"><ele>209.0</ele><time>2026-03-29T08:58:22.956Z</time></trkpt><trkpt lat="45.758615" lon="8.5582833"><ele>209.66666666666669</ele><time>2026-03-29T08:58:24.956Z</time></trkpt><trkpt lat="45.7586783" lon="8.558335"><ele>210.33333333333334</ele><time>2026-03-29T08:58:25.956Z</time></trkpt><trkpt lat="45.75874" lon="8.5583833"><ele>211.0</ele><time>2026-03-29T08:58:26.956Z</time></trkpt><trkpt lat="45.7587983" lon="8.558425"><ele>211.66666666666669</ele><time>2026-03-29T08:58:27.956Z</time></trkpt><trkpt lat="45.7588683" lon="8.558465"><ele>212.33333333333334</ele><time>2026-03-29T08:58:28.956Z</time></trkpt><trkpt lat="45.758985" lon="8.5584917"><ele>213.0</ele><time>2026-03-29T08:58:30.956Z</time></trkpt><trkpt lat="45.75908" lon="8.5585567"><ele>213.0</ele><time>2026-03-29T08:58:32.956Z</time></trkpt><trkpt lat="45.7591467" lon="8.5585767"><ele>213.0</ele><time>2026-03-29T08:58:33.956Z</time></trkpt><trkpt lat="45.7592117" lon="8.558615"><ele>213.0</ele><time>2026-03-29T08:58:34.956Z</time></trkpt><trkpt lat="45.75928" lon="8.5586633"><ele>213.0</ele><time>2026-03-29T08:58:35.956Z</time></trkpt><trkpt lat="45.7593517" lon="8.5587167"><ele>213.0</ele><time>2026-03-29T08:58:36.956Z</time></trkpt><trkpt lat="45.75943" lon="8.55877"><ele>213.0</ele><time>2026-03-29T08:58:37.956Z</time></trkpt><trkpt lat="45.7595167" lon="8.5588017"><ele>212.60000000000002</ele><time>2026-03-29T08:58:38.956Z</time></trkpt><trkpt lat="45.7596017" lon="8.5588367"><ele>212.20000000000002</ele><time>2026-03-29T08:58:39.956Z</time></trkpt><trkpt lat="45.759755" lon="8.5589017"><ele>211.8</ele><time>2026-03-29T08:58:41.956Z</time></trkpt><trkpt lat="45.7598267" lon="8.55894"><ele>211.4</ele><time>2026-03-29T08:58:42.956Z</time></trkpt><trkpt lat="45.7599333" lon="8.55902"><ele>211.0</ele><time>2026-03-29T08:58:44.956Z</time></trkpt><trkpt lat="45.7600317" lon="8.5590483"><ele>210.99999999999997</ele><time>2026-03-29T08:58:46.956Z</time></trkpt><trkpt lat="45.7601" lon="8.5590817"><ele>211.0</ele><time>2026-03-29T08:58:47.956Z</time></trkpt><trkpt lat="45.760185" lon="8.5590417"><ele>211.0</ele><time>2026-03-29T08:58:48.956Z</time></trkpt><trkpt lat="45.7602683" lon="8.5589667"><ele>211.0</ele><time>2026-03-29T08:58:49.956Z</time></trkpt><trkpt lat="45.7603433" lon="8.5588933"><ele>210.99999999999997</ele><time>2026-03-29T08:58:50.956Z</time></trkpt><trkpt lat="45.7604117" lon="8.558815"><ele>211.0</ele><time>2026-03-29T08:58:51.956Z</time></trkpt><trkpt lat="45.7604717" lon="8.5587333"><ele>211.8</ele><time>2026-03-29T08:58:52.956Z</time></trkpt><trkpt lat="45.7605367" lon="8.5586533"><ele>212.60000000000002</ele><time>2026-03-29T08:58:53.955Z</time></trkpt><trkpt lat="45.7606" lon="8.558575"><ele>213.4</ele><time>2026-03-29T08:58:54.956Z</time></trkpt><trkpt lat="45.7606867" lon="8.5584883"><ele>214.2</ele><time>2026-03-29T08:58:55.956Z</time></trkpt><trkpt lat="45.76078" lon="8.558365"><ele>215.0</ele><time>2026-03-29T08:58:56.956Z</time></trkpt><trkpt lat="45.7608783" lon="8.5582533"><ele>215.0</ele><time>2026-03-29T08:58:57.956Z</time></trkpt><trkpt lat="45.7609683" lon="8.5581417"><ele>215.0</ele><time>2026-03-29T08:58:58.956Z</time></trkpt><trkpt lat="45.761075" lon="8.558045"><ele>215.0</ele><time>2026-03-29T08:58:59.956Z</time></trkpt><trkpt lat="45.7611617" lon="8.5579317"><ele>215.0</ele><time>2026-03-29T08:59:00.956Z</time></trkpt><trkpt lat="45.7612483" lon="8.5578717"><ele>214.8</ele><time>2026-03-29T08:59:01.956Z</time></trkpt><trkpt lat="45.7613117" lon="8.5578233"><ele>214.6</ele><time>2026-03-29T08:59:02.956Z</time></trkpt><trkpt lat="45.7613933" lon="8.5576883"><ele>214.39999999999998</ele><time>2026-03-29T08:59:04.955Z</time></trkpt><trkpt lat="45.7614617" lon="8.5576133"><ele>214.2</ele><time>2026-03-29T08:59:05.956Z</time></trkpt><trkpt lat="45.7615467" lon="8.5575033"><ele>214.0</ele><time>2026-03-29T08:59:06.956Z</time></trkpt><trkpt lat="45.7616467" lon="8.557375"><ele>214.0</ele><time>2026-03-29T08:59:07.956Z</time></trkpt><trkpt lat="45.7617383" lon="8.5572483"><ele>213.99999999999997</ele><time>2026-03-29T08:59:08.956Z</time></trkpt><trkpt lat="45.7618117" lon="8.5571333"><ele>213.99999999999997</ele><time>2026-03-29T08:59:09.956Z</time></trkpt><trkpt lat="45.7618917" lon="8.55703"><ele>214.0</ele><time>2026-03-29T08:59:10.956Z</time></trkpt><trkpt lat="45.761975" lon="8.5569467"><ele>214.0</ele><time>2026-03-29T08:59:11.956Z</time></trkpt><trkpt lat="45.7620433" lon="8.5568783"><ele>214.33333333333331</ele><time>2026-03-29T08:59:12.956Z</time></trkpt><trkpt lat="45.7621083" lon="8.5568"><ele>214.66666666666666</ele><time>2026-03-29T08:59:13.956Z</time></trkpt><trkpt lat="45.762175" lon="8.5567233"><ele>215.0</ele><time>2026-03-29T08:59:14.956Z</time></trkpt><trkpt lat="45.7622433" lon="8.5566433"><ele>215.33333333333331</ele><time>2026-03-29T08:59:15.956Z</time></trkpt><trkpt lat="45.7623083" lon="8.5565667"><ele>215.66666666666666</ele><time>2026-03-29T08:59:16.956Z</time></trkpt><trkpt lat="45.7623733" lon="8.5564867"><ele>216.0</ele><time>2026-03-29T08:59:17.956Z</time></trkpt><trkpt lat="45.7624317" lon="8.55642"><ele>216.0</ele><time>2026-03-29T08:59:18.956Z</time></trkpt><trkpt lat="45.7624833" lon="8.5563583"><ele>216.00000000000003</ele><time>2026-03-29T08:59:19.956Z</time></trkpt><trkpt lat="45.7625933" lon="8.5563117"><ele>216.00000000000003</ele><time>2026-03-29T08:59:21.956Z</time></trkpt><trkpt lat="45.7627117" lon="8.5563933"><ele>216.0</ele><time>2026-03-29T08:59:23.956Z</time></trkpt><trkpt lat="45.7627717" lon="8.5564683"><ele>216.0</ele><time>2026-03-29T08:59:24.956Z</time></trkpt><trkpt lat="45.7628383" lon="8.556555"><ele>217.0</ele><time>2026-03-29T08:59:25.956Z</time></trkpt><trkpt lat="45.762915" lon="8.55662"><ele>218.00000000000003</ele><time>2026-03-29T08:59:26.956Z</time></trkpt><trkpt lat="45.7629933" lon="8.5566667"><ele>219.00000000000003</ele><time>2026-03-29T08:59:27.956Z</time></trkpt><trkpt lat="45.7630733" lon="8.5566867"><ele>220.0</ele><time>2026-03-29T08:59:28.956Z</time></trkpt><trkpt lat="45.7631767" lon="8.556705"><ele>221.0</ele><time>2026-03-29T08:59:29.956Z</time></trkpt><trkpt lat="45.7632983" lon="8.5567233"><ele>221.0</ele><time>2026-03-29T08:59:30.956Z</time></trkpt><trkpt lat="45.7634083" lon="8.5567383"><ele>221.00000000000003</ele><time>2026-03-29T08:59:31.956Z</time></trkpt><trkpt lat="45.7635133" lon="8.5567433"><ele>221.00000000000003</ele><time>2026-03-29T08:59:32.956Z</time></trkpt><trkpt lat="45.76362" lon="8.5567767"><ele>221.0</ele><time>2026-03-29T08:59:33.956Z</time></trkpt><trkpt lat="45.7637083" lon="8.5567917"><ele>221.0</ele><time>2026-03-29T08:59:34.956Z</time></trkpt><trkpt lat="45.7637983" lon="8.5568067"><ele>222.0</ele><time>2026-03-29T08:59:35.956Z</time></trkpt><trkpt lat="45.76388" lon="8.5568217"><ele>223.00000000000003</ele><time>2026-03-29T08:59:36.956Z</time></trkpt><trkpt lat="45.763965" lon="8.55684"><ele>224.00000000000003</ele><time>2026-03-29T08:59:37.955Z</time></trkpt><trkpt lat="45.76406" lon="8.5568633"><ele>225.0</ele><time>2026-03-29T08:59:38.956Z</time></trkpt><trkpt lat="45.764165" lon="8.5568817"><ele>226.0</ele><time>2026-03-29T08:59:39.956Z</time></trkpt><trkpt lat="45.76426" lon="8.556875"><ele>226.0</ele><time>2026-03-29T08:59:40.956Z</time></trkpt><trkpt lat="45.7643583" lon="8.5568183"><ele>226.00000000000003</ele><time>2026-03-29T08:59:41.956Z</time></trkpt><trkpt lat="45.7644667" lon="8.556745"><ele>226.00000000000003</ele><time>2026-03-29T08:59:42.956Z</time></trkpt><trkpt lat="45.7645683" lon="8.5566617"><ele>226.0</ele><time>2026-03-29T08:59:43.956Z</time></trkpt><trkpt lat="45.7646633" lon="8.5565933"><ele>226.0</ele><time>2026-03-29T08:59:44.956Z</time></trkpt><trkpt lat="45.7647467" lon="8.5565317"><ele>227.4</ele><time>2026-03-29T08:59:45.956Z</time></trkpt><trkpt lat="45.7648333" lon="8.5564467"><ele>228.8</ele><time>2026-03-29T08:59:46.956Z</time></trkpt><trkpt lat="45.76491" lon="8.55637"><ele>230.20000000000002</ele><time>2026-03-29T08:59:47.956Z</time></trkpt><trkpt lat="45.7649967" lon="8.5562917"><ele>231.60000000000002</ele><time>2026-03-29T08:59:48.956Z</time></trkpt><trkpt lat="45.7650733" lon="8.556225"><ele>233.0</ele><time>2026-03-29T08:59:49.956Z</time></trkpt><trkpt lat="45.7651483" lon="8.5561283"><ele>225.4</ele><time>2026-03-29T08:59:50.956Z</time></trkpt><trkpt lat="45.7652183" lon="8.5560033"><ele>217.8</ele><time>2026-03-29T08:59:51.955Z</time></trkpt><trkpt lat="45.7652767" lon="8.55587"><ele>210.2</ele><time>2026-03-29T08:59:52.956Z</time></trkpt><trkpt lat="45.7653217" lon="8.5557333"><ele>202.6</ele><time>2026-03-29T08:59:53.956Z</time></trkpt><trkpt lat="45.765365" lon="8.555595"><ele>195.0</ele><time>2026-03-29T08:59:54.956Z</time></trkpt><trkpt lat="45.7654017" lon="8.5554633"><ele>196.0</ele><time>2026-03-29T08:59:55.956Z</time></trkpt><trkpt lat="45.7654383" lon="8.5553417"><ele>197.0</ele><time>2026-03-29T08:59:56.955Z</time></trkpt><trkpt lat="45.7654783" lon="8.5551917"><ele>198.0</ele><time>2026-03-29T08:59:57.956Z</time></trkpt><trkpt lat="45.76552" lon="8.5550733"><ele>199.0</ele><time>2026-03-29T08:59:58.956Z</time></trkpt><trkpt lat="45.7655517" lon="8.5549517"><ele>200.0</ele><time>2026-03-29T08:59:59.956Z</time></trkpt><trkpt lat="45.76559" lon="8.55482"><ele>200.0</ele><time>2026-03-29T09:00:00.956Z</time></trkpt><trkpt lat="45.76564" lon="8.554675"><ele>200.0</ele><time>2026-03-29T09:00:01.956Z</time></trkpt><trkpt lat="45.7656983" lon="8.5545033"><ele>200.0</ele><time>2026-03-29T09:00:02.956Z</time></trkpt><trkpt lat="45.7657683" lon="8.5542967"><ele>200.0</ele><time>2026-03-29T09:00:03.956Z</time></trkpt><trkpt lat="45.7658383" lon="8.5540767"><ele>199.33333333333334</ele><time>2026-03-29T09:00:04.956Z</time></trkpt><trkpt lat="45.7659117" lon="8.553865"><ele>198.66666666666669</ele><time>2026-03-29T09:00:05.956Z</time></trkpt><trkpt lat="45.7659867" lon="8.5536567"><ele>198.0</ele><time>2026-03-29T09:00:06.955Z</time></trkpt><trkpt lat="45.7660967" lon="8.5534467"><ele>198.0</ele><time>2026-03-29T09:00:07.956Z</time></trkpt><trkpt lat="45.7662283" lon="8.5532717"><ele>198.0</ele><time>2026-03-29T09:00:08.956Z</time></trkpt><trkpt lat="45.7663833" lon="8.5531167"><ele>198.0</ele><time>2026-03-29T09:00:09.955Z</time></trkpt><trkpt lat="45.7665483" lon="8.5529483"><ele>198.33333333333331</ele><time>2026-03-29T09:00:10.956Z</time></trkpt><trkpt lat="45.7667017" lon="8.5527633"><ele>198.66666666666666</ele><time>2026-03-29T09:00:11.956Z</time></trkpt><trkpt lat="45.7668583" lon="8.5525733"><ele>199.0</ele><time>2026-03-29T09:00:12.956Z</time></trkpt><trkpt lat="45.767015" lon="8.5523867"><ele>201.0</ele><time>2026-03-29T09:00:13.956Z</time></trkpt><trkpt lat="45.7673117" lon="8.5520233"><ele>203.0</ele><time>2026-03-29T09:00:15.956Z</time></trkpt><trkpt lat="45.7674333" lon="8.551835"><ele>203.0</ele><time>2026-03-29T09:00:16.955Z</time></trkpt><trkpt lat="45.767525" lon="8.5516683"><ele>203.0</ele><time>2026-03-29T09:00:17.956Z</time></trkpt><trkpt lat="45.767625" lon="8.5514983"><ele>203.0</ele><time>2026-03-29T09:00:18.956Z</time></trkpt><trkpt lat="45.76772" lon="8.55132"><ele>200.0</ele><time>2026-03-29T09:00:19.956Z</time></trkpt><trkpt lat="45.7678983" lon="8.550955"><ele>197.0</ele><time>2026-03-29T09:00:21.956Z</time></trkpt><trkpt lat="45.7679917" lon="8.5507817"><ele>197.0</ele><time>2026-03-29T09:00:22.956Z</time></trkpt><trkpt lat="45.768085" lon="8.5506117"><ele>197.0</ele><time>2026-03-29T09:00:23.954Z</time></trkpt><trkpt lat="45.768175" lon="8.550445"><ele>197.0</ele><time>2026-03-29T09:00:24.954Z</time></trkpt><trkpt lat="45.7682617" lon="8.5502733"><ele>197.0</ele><time>2026-03-29T09:00:25.955Z</time></trkpt><trkpt lat="45.7683617" lon="8.550105"><ele>196.75</ele><time>2026-03-29T09:00:26.954Z</time></trkpt><trkpt lat="45.7684583" lon="8.54993"><ele>196.5</ele><time>2026-03-29T09:00:27.955Z</time></trkpt><trkpt lat="45.7685467" lon="8.5497667"><ele>196.25</ele><time>2026-03-29T09:00:28.955Z</time></trkpt><trkpt lat="45.7686367" lon="8.5496067"><ele>196.0</ele><time>2026-03-29T09:00:29.955Z</time></trkpt><trkpt lat="45.7687267" lon="8.5494733"><ele>198.25</ele><time>2026-03-29T09:00:30.955Z</time></trkpt><trkpt lat="45.76881" lon="8.5493183"><ele>200.5</ele><time>2026-03-29T09:00:31.955Z</time></trkpt><trkpt lat="45.7688917" lon="8.5491783"><ele>202.75</ele><time>2026-03-29T09:00:32.955Z</time></trkpt><trkpt lat="45.76897" lon="8.54904"><ele>205.0</ele><time>2026-03-29T09:00:33.955Z</time></trkpt><trkpt lat="45.769055" lon="8.54889"><ele>205.0</ele><time>2026-03-29T09:00:34.955Z</time></trkpt><trkpt lat="45.7691367" lon="8.5487333"><ele>205.0</ele><time>2026-03-29T09:00:35.955Z</time></trkpt><trkpt lat="45.7692267" lon="8.54858"><ele>205.0</ele><time>2026-03-29T09:00:36.955Z</time></trkpt><trkpt lat="45.7693317" lon="8.5484267"><ele>205.0</ele><time>2026-03-29T09:00:37.955Z</time></trkpt><trkpt lat="45.7694567" lon="8.54829"><ele>202.0</ele><time>2026-03-29T09:00:38.955Z</time></trkpt><trkpt lat="45.769715" lon="8.5480433"><ele>199.0</ele><time>2026-03-29T09:00:40.955Z</time></trkpt><trkpt lat="45.7700683" lon="8.5476467"><ele>199.0</ele><time>2026-03-29T09:00:43.955Z</time></trkpt><trkpt lat="45.7701733" lon="8.5475"><ele>199.0</ele><time>2026-03-29T09:00:44.955Z</time></trkpt><trkpt lat="45.7704833" lon="8.5470633"><ele>201.66666666666666</ele><time>2026-03-29T09:00:47.955Z</time></trkpt><trkpt lat="45.7706983" lon="8.5467817"><ele>204.33333333333331</ele><time>2026-03-29T09:00:49.955Z</time></trkpt><trkpt lat="45.7707967" lon="8.5466433"><ele>207.0</ele><time>2026-03-29T09:00:50.955Z</time></trkpt><trkpt lat="45.77089" lon="8.5465117"><ele>207.0</ele><time>2026-03-29T09:00:51.955Z</time></trkpt><trkpt lat="45.7709967" lon="8.5463767"><ele>207.0</ele><time>2026-03-29T09:00:52.955Z</time></trkpt><trkpt lat="45.77122" lon="8.5461183"><ele>207.0</ele><time>2026-03-29T09:00:54.955Z</time></trkpt><trkpt lat="45.77132" lon="8.5460033"><ele>207.0</ele><time>2026-03-29T09:00:55.955Z</time></trkpt><trkpt lat="45.7714283" lon="8.5459133"><ele>207.0</ele><time>2026-03-29T09:00:56.955Z</time></trkpt><trkpt lat="45.771535" lon="8.54582"><ele>207.0</ele><time>2026-03-29T09:00:57.955Z</time></trkpt><trkpt lat="45.771645" lon="8.54571"><ele>207.0</ele><time>2026-03-29T09:00:58.955Z</time></trkpt><trkpt lat="45.7717517" lon="8.5456"><ele>207.0</ele><time>2026-03-29T09:00:59.955Z</time></trkpt><trkpt lat="45.7718567" lon="8.5454867"><ele>207.0</ele><time>2026-03-29T09:01:00.955Z</time></trkpt><trkpt lat="45.7719817" lon="8.5453783"><ele>207.0</ele><time>2026-03-29T09:01:01.955Z</time></trkpt><trkpt lat="45.7721083" lon="8.545295"><ele>207.0</ele><time>2026-03-29T09:01:02.954Z</time></trkpt><trkpt lat="45.7722433" lon="8.5452317"><ele>208.0</ele><time>2026-03-29T09:01:03.955Z</time></trkpt><trkpt lat="45.7723733" lon="8.54519"><ele>209.0</ele><time>2026-03-29T09:01:04.955Z</time></trkpt><trkpt lat="45.772505" lon="8.545155"><ele>210.0</ele><time>2026-03-29T09:01:05.954Z</time></trkpt><trkpt lat="45.772755" lon="8.5450717"><ele>208.25</ele><time>2026-03-29T09:01:07.955Z</time></trkpt><trkpt lat="45.7728733" lon="8.5450367"><ele>206.5</ele><time>2026-03-29T09:01:08.955Z</time></trkpt><trkpt lat="45.7729867" lon="8.5449933"><ele>204.75</ele><time>2026-03-29T09:01:09.955Z</time></trkpt><trkpt lat="45.773105" lon="8.5449417"><ele>203.0</ele><time>2026-03-29T09:01:10.955Z</time></trkpt><trkpt lat="45.7732217" lon="8.5448883"><ele>203.0</ele><time>2026-03-29T09:01:11.955Z</time></trkpt><trkpt lat="45.7733233" lon="8.5448367"><ele>203.0</ele><time>2026-03-29T09:01:12.955Z</time></trkpt><trkpt lat="45.77343" lon="8.544795"><ele>203.0</ele><time>2026-03-29T09:01:13.955Z</time></trkpt><trkpt lat="45.77352" lon="8.5447583"><ele>203.0</ele><time>2026-03-29T09:01:14.955Z</time></trkpt><trkpt lat="45.77362" lon="8.5447267"><ele>203.0</ele><time>2026-03-29T09:01:15.955Z</time></trkpt><trkpt lat="45.773725" lon="8.544685"><ele>204.0</ele><time>2026-03-29T09:01:16.955Z</time></trkpt><trkpt lat="45.7739133" lon="8.54459"><ele>205.0</ele><time>2026-03-29T09:01:18.955Z</time></trkpt><trkpt lat="45.77401" lon="8.5445317"><ele>206.0</ele><time>2026-03-29T09:01:19.955Z</time></trkpt><trkpt lat="45.7741117" lon="8.5444517"><ele>207.0</ele><time>2026-03-29T09:01:20.955Z</time></trkpt><trkpt lat="45.7742267" lon="8.54433"><ele>207.0</ele><time>2026-03-29T09:01:21.955Z</time></trkpt><trkpt lat="45.7743467" lon="8.544175"><ele>207.0</ele><time>2026-03-29T09:01:22.955Z</time></trkpt><trkpt lat="45.7744733" lon="8.544015"><ele>207.0</ele><time>2026-03-29T09:01:23.954Z</time></trkpt><trkpt lat="45.7746133" lon="8.5438633"><ele>205.66666666666669</ele><time>2026-03-29T09:01:24.954Z</time></trkpt><trkpt lat="45.7747483" lon="8.5437317"><ele>204.33333333333334</ele><time>2026-03-29T09:01:25.955Z</time></trkpt><trkpt lat="45.7748933" lon="8.54361"><ele>203.0</ele><time>2026-03-29T09:01:26.954Z</time></trkpt><trkpt lat="45.7752133" lon="8.5433667"><ele>203.0</ele><time>2026-03-29T09:01:28.955Z</time></trkpt><trkpt lat="45.7753933" lon="8.5432433"><ele>203.0</ele><time>2026-03-29T09:01:29.955Z</time></trkpt><trkpt lat="45.7757867" lon="8.54296"><ele>207.5</ele><time>2026-03-29T09:01:31.955Z</time></trkpt><trkpt lat="45.7760017" lon="8.5428183"><ele>212.0</ele><time>2026-03-29T09:01:32.954Z</time></trkpt><trkpt lat="45.7762083" lon="8.542675"><ele>212.0</ele><time>2026-03-29T09:01:33.955Z</time></trkpt><trkpt lat="45.7763983" lon="8.542545"><ele>212.0</ele><time>2026-03-29T09:01:34.954Z</time></trkpt><trkpt lat="45.776585" lon="8.542455"><ele>212.0</ele><time>2026-03-29T09:01:35.955Z</time></trkpt><trkpt lat="45.7767817" lon="8.5423733"><ele>208.5</ele><time>2026-03-29T09:01:36.954Z</time></trkpt><trkpt lat="45.77699" lon="8.5423433"><ele>205.0</ele><time>2026-03-29T09:01:37.955Z</time></trkpt><trkpt lat="45.7774483" lon="8.54228"><ele>205.0</ele><time>2026-03-29T09:01:39.955Z</time></trkpt><trkpt lat="45.7776833" lon="8.5422483"><ele>205.0</ele><time>2026-03-29T09:01:40.954Z</time></trkpt><trkpt lat="45.7779233" lon="8.542215"><ele>199.0</ele><time>2026-03-29T09:01:41.955Z</time></trkpt><trkpt lat="45.7784067" lon="8.5421867"><ele>199.0</ele><time>2026-03-29T09:01:43.955Z</time></trkpt><trkpt lat="45.778645" lon="8.542175"><ele>199.0</ele><time>2026-03-29T09:01:44.954Z</time></trkpt><trkpt lat="45.778875" lon="8.54214"><ele>199.0</ele><time>2026-03-29T09:01:45.955Z</time></trkpt><trkpt lat="45.7791117" lon="8.5421267"><ele>199.0</ele><time>2026-03-29T09:01:46.955Z</time></trkpt><trkpt lat="45.7793433" lon="8.542105"><ele>198.0</ele><time>2026-03-29T09:01:47.955Z</time></trkpt><trkpt lat="45.7795767" lon="8.5420867"><ele>197.0</ele><time>2026-03-29T09:01:48.955Z</time></trkpt><trkpt lat="45.779815" lon="8.5420717"><ele>197.0</ele><time>2026-03-29T09:01:49.955Z</time></trkpt><trkpt lat="45.78006" lon="8.5420483"><ele>197.0</ele><time>2026-03-29T09:01:50.955Z</time></trkpt><trkpt lat="45.7803067" lon="8.54202"><ele>201.0</ele><time>2026-03-29T09:01:51.955Z</time></trkpt><trkpt lat="45.7805533" lon="8.5419983"><ele>205.0</ele><time>2026-03-29T09:01:52.955Z</time></trkpt><trkpt lat="45.7810233" lon="8.54195"><ele>205.5</ele><time>2026-03-29T09:01:54.955Z</time></trkpt><trkpt lat="45.7812533" lon="8.5419183"><ele>206.0</ele><time>2026-03-29T09:01:55.955Z</time></trkpt><trkpt lat="45.7814833" lon="8.54188"><ele>206.0</ele><time>2026-03-29T09:01:56.955Z</time></trkpt><trkpt lat="45.781705" lon="8.54184"><ele>206.0</ele><time>2026-03-29T09:01:57.955Z</time></trkpt><trkpt lat="45.7819133" lon="8.5418"><ele>206.0</ele><time>2026-03-29T09:01:58.955Z</time></trkpt><trkpt lat="45.782105" lon="8.541755"><ele>205.33333333333334</ele><time>2026-03-29T09:01:59.955Z</time></trkpt><trkpt lat="45.7822867" lon="8.5417183"><ele>204.66666666666669</ele><time>2026-03-29T09:02:00.955Z</time></trkpt><trkpt lat="45.7824733" lon="8.541685"><ele>204.0</ele><time>2026-03-29T09:02:01.955Z</time></trkpt><trkpt lat="45.782665" lon="8.5416483"><ele>203.0</ele><time>2026-03-29T09:02:02.955Z</time></trkpt><trkpt lat="45.7828633" lon="8.541605"><ele>202.0</ele><time>2026-03-29T09:02:03.955Z</time></trkpt><trkpt lat="45.7830267" lon="8.5415833"><ele>201.0</ele><time>2026-03-29T09:02:04.955Z</time></trkpt><trkpt lat="45.7831983" lon="8.541555"><ele>201.0</ele><time>2026-03-29T09:02:05.955Z</time></trkpt><trkpt lat="45.7833483" lon="8.5415067"><ele>201.0</ele><time>2026-03-29T09:02:06.955Z</time></trkpt><trkpt lat="45.7834783" lon="8.54144"><ele>201.0</ele><time>2026-03-29T09:02:07.955Z</time></trkpt><trkpt lat="45.7836083" lon="8.5413433"><ele>201.0</ele><time>2026-03-29T09:02:08.955Z</time></trkpt><trkpt lat="45.783745" lon="8.5412367"><ele>205.0</ele><time>2026-03-29T09:02:09.955Z</time></trkpt><trkpt lat="45.7838683" lon="8.5411083"><ele>209.0</ele><time>2026-03-29T09:02:10.955Z</time></trkpt><trkpt lat="45.7839917" lon="8.54099"><ele>213.0</ele><time>2026-03-29T09:02:11.955Z</time></trkpt><trkpt lat="45.784125" lon="8.5408933"><ele>213.0</ele><time>2026-03-29T09:02:12.955Z</time></trkpt><trkpt lat="45.7842733" lon="8.5408033"><ele>213.0</ele><time>2026-03-29T09:02:13.954Z</time></trkpt><trkpt lat="45.7844267" lon="8.5407517"><ele>213.0</ele><time>2026-03-29T09:02:14.955Z</time></trkpt><trkpt lat="45.7845817" lon="8.540715"><ele>208.66666666666669</ele><time>2026-03-29T09:02:15.955Z</time></trkpt><trkpt lat="45.7847383" lon="8.5406917"><ele>204.33333333333334</ele><time>2026-03-29T09:02:16.955Z</time></trkpt><trkpt lat="45.7849067" lon="8.54066"><ele>200.0</ele><time>2026-03-29T09:02:17.954Z</time></trkpt><trkpt lat="45.7850767" lon="8.5406233"><ele>200.0</ele><time>2026-03-29T09:02:18.955Z</time></trkpt><trkpt lat="45.7852417" lon="8.540585"><ele>200.0</ele><time>2026-03-29T09:02:19.955Z</time></trkpt><trkpt lat="45.7854033" lon="8.5405717"><ele>200.0</ele><time>2026-03-29T09:02:20.955Z</time></trkpt><trkpt lat="45.7855617" lon="8.5405683"><ele>200.0</ele><time>2026-03-29T09:02:21.954Z</time></trkpt><trkpt lat="45.7857083" lon="8.5405633"><ele>200.0</ele><time>2026-03-29T09:02:22.955Z</time></trkpt><trkpt lat="45.7858483" lon="8.540545"><ele>200.0</ele><time>2026-03-29T09:02:23.955Z</time></trkpt><trkpt lat="45.7859917" lon="8.5405117"><ele>200.0</ele><time>2026-03-29T09:02:24.954Z</time></trkpt><trkpt lat="45.7861333" lon="8.5404783"><ele>199.66666666666669</ele><time>2026-03-29T09:02:25.955Z</time></trkpt><trkpt lat="45.786275" lon="8.5404317"><ele>199.33333333333331</ele><time>2026-03-29T09:02:26.955Z</time></trkpt><trkpt lat="45.7864283" lon="8.5403567"><ele>199.0</ele><time>2026-03-29T09:02:27.955Z</time></trkpt><trkpt lat="45.7865883" lon="8.5402817"><ele>201.33333333333331</ele><time>2026-03-29T09:02:28.955Z</time></trkpt><trkpt lat="45.786745" lon="8.5402117"><ele>203.66666666666669</ele><time>2026-03-29T09:02:29.955Z</time></trkpt><trkpt lat="45.7869133" lon="8.5401383"><ele>206.0</ele><time>2026-03-29T09:02:30.955Z</time></trkpt><trkpt lat="45.7870667" lon="8.5400533"><ele>206.0</ele><time>2026-03-29T09:02:31.955Z</time></trkpt><trkpt lat="45.7872133" lon="8.5399917"><ele>206.0</ele><time>2026-03-29T09:02:32.955Z</time></trkpt><trkpt lat="45.7873517" lon="8.5399633"><ele>206.0</ele><time>2026-03-29T09:02:33.955Z</time></trkpt><trkpt lat="45.7874817" lon="8.5399567"><ele>206.0</ele><time>2026-03-29T09:02:34.955Z</time></trkpt><trkpt lat="45.7876083" lon="8.539955"><ele>206.25</ele><time>2026-03-29T09:02:35.955Z</time></trkpt><trkpt lat="45.78773" lon="8.539965"><ele>206.5</ele><time>2026-03-29T09:02:36.955Z</time></trkpt><trkpt lat="45.78785" lon="8.5399817"><ele>206.75</ele><time>2026-03-29T09:02:37.955Z</time></trkpt><trkpt lat="45.7879767" lon="8.54"><ele>207.0</ele><time>2026-03-29T09:02:38.955Z</time></trkpt><trkpt lat="45.7881" lon="8.5400267"><ele>207.0</ele><time>2026-03-29T09:02:39.955Z</time></trkpt><trkpt lat="45.7882033" lon="8.540075"><ele>207.0</ele><time>2026-03-29T09:02:40.955Z</time></trkpt><trkpt lat="45.7883133" lon="8.54011"><ele>207.0</ele><time>2026-03-29T09:02:41.955Z</time></trkpt><trkpt lat="45.7884167" lon="8.5401517"><ele>207.0</ele><time>2026-03-29T09:02:42.955Z</time></trkpt><trkpt lat="45.788515" lon="8.54022"><ele>207.0</ele><time>2026-03-29T09:02:43.955Z</time></trkpt><trkpt lat="45.78861" lon="8.54025"><ele>207.75</ele><time>2026-03-29T09:02:44.954Z</time></trkpt><trkpt lat="45.7887183" lon="8.540295"><ele>208.5</ele><time>2026-03-29T09:02:45.955Z</time></trkpt><trkpt lat="45.7888283" lon="8.5403317"><ele>209.25</ele><time>2026-03-29T09:02:46.955Z</time></trkpt><trkpt lat="45.788935" lon="8.5403467"><ele>210.0</ele><time>2026-03-29T09:02:47.955Z</time></trkpt><trkpt lat="45.7891833" lon="8.54022"><ele>210.0</ele><time>2026-03-29T09:02:49.955Z</time></trkpt><trkpt lat="45.7893" lon="8.540135"><ele>210.0</ele><time>2026-03-29T09:02:50.955Z</time></trkpt><trkpt lat="45.7894183" lon="8.5400583"><ele>210.0</ele><time>2026-03-29T09:02:51.954Z</time></trkpt><trkpt lat="45.7895283" lon="8.53999"><ele>210.0</ele><time>2026-03-29T09:02:52.955Z</time></trkpt><trkpt lat="45.7896333" lon="8.539935"><ele>208.8</ele><time>2026-03-29T09:02:53.955Z</time></trkpt><trkpt lat="45.7897367" lon="8.5398717"><ele>207.6</ele><time>2026-03-29T09:02:54.954Z</time></trkpt><trkpt lat="45.7898467" lon="8.5398117"><ele>206.39999999999998</ele><time>2026-03-29T09:02:55.955Z</time></trkpt><trkpt lat="45.7899483" lon="8.5397533"><ele>205.2</ele><time>2026-03-29T09:02:56.954Z</time></trkpt><trkpt lat="45.7900483" lon="8.5396967"><ele>204.0</ele><time>2026-03-29T09:02:57.955Z</time></trkpt><trkpt lat="45.7901383" lon="8.53964"><ele>203.25</ele><time>2026-03-29T09:02:58.955Z</time></trkpt><trkpt lat="45.7902217" lon="8.5395867"><ele>202.5</ele><time>2026-03-29T09:02:59.954Z</time></trkpt><trkpt lat="45.7903983" lon="8.5395017"><ele>201.75</ele><time>2026-03-29T09:03:01.955Z</time></trkpt><trkpt lat="45.7905017" lon="8.5394683"><ele>201.0</ele><time>2026-03-29T09:03:02.955Z</time></trkpt><trkpt lat="45.790615" lon="8.539445"><ele>202.25</ele><time>2026-03-29T09:03:03.955Z</time></trkpt><trkpt lat="45.790725" lon="8.5394483"><ele>203.5</ele><time>2026-03-29T09:03:04.955Z</time></trkpt><trkpt lat="45.7908433" lon="8.53947"><ele>204.75</ele><time>2026-03-29T09:03:05.955Z</time></trkpt><trkpt lat="45.79096" lon="8.5394983"><ele>206.0</ele><time>2026-03-29T09:03:06.955Z</time></trkpt><trkpt lat="45.7910683" lon="8.53952"><ele>206.0</ele><time>2026-03-29T09:03:07.955Z</time></trkpt><trkpt lat="45.79117" lon="8.539545"><ele>206.0</ele><time>2026-03-29T09:03:08.955Z</time></trkpt><trkpt lat="45.79127" lon="8.539565"><ele>206.0</ele><time>2026-03-29T09:03:09.954Z</time></trkpt><trkpt lat="45.791375" lon="8.539515"><ele>206.0</ele><time>2026-03-29T09:03:10.954Z</time></trkpt><trkpt lat="45.791475" lon="8.5394767"><ele>206.0</ele><time>2026-03-29T09:03:11.955Z</time></trkpt><trkpt lat="45.7915833" lon="8.5394283"><ele>206.0</ele><time>2026-03-29T09:03:12.954Z</time></trkpt><trkpt lat="45.791715" lon="8.53937"><ele>206.0</ele><time>2026-03-29T09:03:13.955Z</time></trkpt><trkpt lat="45.7918483" lon="8.539315"><ele>206.0</ele><time>2026-03-29T09:03:14.955Z</time></trkpt><trkpt lat="45.7919833" lon="8.5392583"><ele>206.0</ele><time>2026-03-29T09:03:15.955Z</time></trkpt><trkpt lat="45.792115" lon="8.5392017"><ele>205.66666666666669</ele><time>2026-03-29T09:03:16.955Z</time></trkpt><trkpt lat="45.79224" lon="8.5391517"><ele>205.33333333333331</ele><time>2026-03-29T09:03:17.955Z</time></trkpt><trkpt lat="45.7924867" lon="8.5390367"><ele>205.0</ele><time>2026-03-29T09:03:19.954Z</time></trkpt><trkpt lat="45.7926" lon="8.5389917"><ele>204.75</ele><time>2026-03-29T09:03:20.954Z</time></trkpt><trkpt lat="45.7927267" lon="8.5389317"><ele>204.5</ele><time>2026-03-29T09:03:21.954Z</time></trkpt><trkpt lat="45.79285" lon="8.53888"><ele>204.25</ele><time>2026-03-29T09:03:22.954Z</time></trkpt><trkpt lat="45.7929733" lon="8.5388433"><ele>204.0</ele><time>2026-03-29T09:03:23.954Z</time></trkpt><trkpt lat="45.7930983" lon="8.5387967"><ele>204.0</ele><time>2026-03-29T09:03:24.954Z</time></trkpt><trkpt lat="45.793225" lon="8.53874"><ele>204.0</ele><time>2026-03-29T09:03:25.954Z</time></trkpt><trkpt lat="45.793355" lon="8.5386967"><ele>204.0</ele><time>2026-03-29T09:03:26.954Z</time></trkpt><trkpt lat="45.7934817" lon="8.53866"><ele>204.0</ele><time>2026-03-29T09:03:27.954Z</time></trkpt><trkpt lat="45.7936" lon="8.5386133"><ele>204.0</ele><time>2026-03-29T09:03:28.953Z</time></trkpt><trkpt lat="45.793705" lon="8.53857"><ele>204.0</ele><time>2026-03-29T09:03:29.954Z</time></trkpt><trkpt lat="45.7938267" lon="8.5385217"><ele>204.0</ele><time>2026-03-29T09:03:30.954Z</time></trkpt><trkpt lat="45.7939383" lon="8.5384867"><ele>204.0</ele><time>2026-03-29T09:03:31.954Z</time></trkpt><trkpt lat="45.7940617" lon="8.538445"><ele>204.0</ele><time>2026-03-29T09:03:32.954Z</time></trkpt><trkpt lat="45.79418" lon="8.538385"><ele>204.0</ele><time>2026-03-29T09:03:33.954Z</time></trkpt><trkpt lat="45.79431" lon="8.5383417"><ele>204.0</ele><time>2026-03-29T09:03:34.954Z</time></trkpt><trkpt lat="45.7944417" lon="8.5382967"><ele>204.0</ele><time>2026-03-29T09:03:35.954Z</time></trkpt><trkpt lat="45.7945733" lon="8.5382383"><ele>202.66666666666669</ele><time>2026-03-29T09:03:36.954Z</time></trkpt><trkpt lat="45.79484" lon="8.538125"><ele>201.33333333333334</ele><time>2026-03-29T09:03:38.954Z</time></trkpt><trkpt lat="45.794975" lon="8.5380683"><ele>200.0</ele><time>2026-03-29T09:03:39.954Z</time></trkpt><trkpt lat="45.7951117" lon="8.5380117"><ele>199.75</ele><time>2026-03-29T09:03:40.954Z</time></trkpt><trkpt lat="45.7952367" lon="8.5379517"><ele>199.5</ele><time>2026-03-29T09:03:41.954Z</time></trkpt><trkpt lat="45.79537" lon="8.5378933"><ele>199.25</ele><time>2026-03-29T09:03:42.954Z</time></trkpt><trkpt lat="45.7955033" lon="8.5378417"><ele>199.0</ele><time>2026-03-29T09:03:43.954Z</time></trkpt><trkpt lat="45.7956383" lon="8.53779"><ele>200.25</ele><time>2026-03-29T09:03:44.954Z</time></trkpt><trkpt lat="45.7957783" lon="8.5377317"><ele>201.5</ele><time>2026-03-29T09:03:45.954Z</time></trkpt><trkpt lat="45.7959083" lon="8.53767"><ele>202.75</ele><time>2026-03-29T09:03:46.954Z</time></trkpt><trkpt lat="45.7960433" lon="8.5376017"><ele>204.0</ele><time>2026-03-29T09:03:47.954Z</time></trkpt><trkpt lat="45.7961817" lon="8.537555"><ele>204.0</ele><time>2026-03-29T09:03:48.954Z</time></trkpt><trkpt lat="45.796335" lon="8.5375167"><ele>204.0</ele><time>2026-03-29T09:03:49.954Z</time></trkpt><trkpt lat="45.7964783" lon="8.537485"><ele>204.0</ele><time>2026-03-29T09:03:50.954Z</time></trkpt><trkpt lat="45.7966267" lon="8.5374767"><ele>204.0</ele><time>2026-03-29T09:03:51.953Z</time></trkpt><trkpt lat="45.7967767" lon="8.5375017"><ele>203.75</ele><time>2026-03-29T09:03:52.954Z</time></trkpt><trkpt lat="45.7969133" lon="8.5375417"><ele>203.5</ele><time>2026-03-29T09:03:53.954Z</time></trkpt><trkpt lat="45.7970317" lon="8.5375867"><ele>203.25</ele><time>2026-03-29T09:03:54.954Z</time></trkpt><trkpt lat="45.7971433" lon="8.5376067"><ele>203.0</ele><time>2026-03-29T09:03:55.953Z</time></trkpt><trkpt lat="45.79724" lon="8.5376233"><ele>203.0</ele><time>2026-03-29T09:03:56.954Z</time></trkpt><trkpt lat="45.7973483" lon="8.53761"><ele>203.0</ele><time>2026-03-29T09:03:57.954Z</time></trkpt><trkpt lat="45.79746" lon="8.5375767"><ele>203.0</ele><time>2026-03-29T09:03:58.953Z</time></trkpt><trkpt lat="45.7975817" lon="8.5375417"><ele>203.0</ele><time>2026-03-29T09:03:59.954Z</time></trkpt><trkpt lat="45.797715" lon="8.53749"><ele>202.66666666666669</ele><time>2026-03-29T09:04:00.953Z</time></trkpt><trkpt lat="45.7978583" lon="8.537445"><ele>202.33333333333331</ele><time>2026-03-29T09:04:01.954Z</time></trkpt><trkpt lat="45.798" lon="8.5373983"><ele>202.0</ele><time>2026-03-29T09:04:02.954Z</time></trkpt><trkpt lat="45.7981683" lon="8.5373667"><ele>202.0</ele><time>2026-03-29T09:04:03.954Z</time></trkpt><trkpt lat="45.7983133" lon="8.537325"><ele>202.0</ele><time>2026-03-29T09:04:04.954Z</time></trkpt><trkpt lat="45.7984717" lon="8.5372733"><ele>202.0</ele><time>2026-03-29T09:04:05.953Z</time></trkpt><trkpt lat="45.7986317" lon="8.5372317"><ele>201.66666666666666</ele><time>2026-03-29T09:04:06.953Z</time></trkpt><trkpt lat="45.79879" lon="8.5372083"><ele>201.33333333333331</ele><time>2026-03-29T09:04:07.954Z</time></trkpt><trkpt lat="45.7989467" lon="8.5372067"><ele>201.0</ele><time>2026-03-29T09:04:08.954Z</time></trkpt><trkpt lat="45.7990983" lon="8.5372317"><ele>201.0</ele><time>2026-03-29T09:04:09.954Z</time></trkpt><trkpt lat="45.79924" lon="8.537295"><ele>201.0</ele><time>2026-03-29T09:04:10.954Z</time></trkpt><trkpt lat="45.7993883" lon="8.53736"><ele>201.0</ele><time>2026-03-29T09:04:11.954Z</time></trkpt><trkpt lat="45.7995283" lon="8.53742"><ele>201.5</ele><time>2026-03-29T09:04:12.954Z</time></trkpt><trkpt lat="45.7996667" lon="8.537495"><ele>202.0</ele><time>2026-03-29T09:04:13.954Z</time></trkpt><trkpt lat="45.7998" lon="8.5375633"><ele>202.5</ele><time>2026-03-29T09:04:14.954Z</time></trkpt><trkpt lat="45.7999333" lon="8.5376317"><ele>203.0</ele><time>2026-03-29T09:04:15.954Z</time></trkpt><trkpt lat="45.8000767" lon="8.5377067"><ele>204.25</ele><time>2026-03-29T09:04:16.954Z</time></trkpt><trkpt lat="45.8002217" lon="8.537775"><ele>205.5</ele><time>2026-03-29T09:04:17.953Z</time></trkpt><trkpt lat="45.8003583" lon="8.537845"><ele>206.75</ele><time>2026-03-29T09:04:18.954Z</time></trkpt><trkpt lat="45.800495" lon="8.5379133"><ele>208.0</ele><time>2026-03-29T09:04:19.954Z</time></trkpt><trkpt lat="45.800625" lon="8.537985"><ele>208.0</ele><time>2026-03-29T09:04:20.953Z</time></trkpt><trkpt lat="45.8007667" lon="8.5380583"><ele>208.0</ele><time>2026-03-29T09:04:21.953Z</time></trkpt><trkpt lat="45.8008967" lon="8.53811"><ele>208.0</ele><time>2026-03-29T09:04:22.954Z</time></trkpt><trkpt lat="45.8010283" lon="8.5381733"><ele>208.0</ele><time>2026-03-29T09:04:23.954Z</time></trkpt><trkpt lat="45.801165" lon="8.53825"><ele>208.5</ele><time>2026-03-29T09:04:24.954Z</time></trkpt><trkpt lat="45.8012983" lon="8.538315"><ele>209.0</ele><time>2026-03-29T09:04:25.954Z</time></trkpt><trkpt lat="45.8014167" lon="8.5383783"><ele>209.5</ele><time>2026-03-29T09:04:26.954Z</time></trkpt><trkpt lat="45.8015417" lon="8.5384483"><ele>210.0</ele><time>2026-03-29T09:04:27.954Z</time></trkpt><trkpt lat="45.80167" lon="8.5385433"><ele>210.0</ele><time>2026-03-29T09:04:28.954Z</time></trkpt><trkpt lat="45.8018017" lon="8.538645"><ele>210.0</ele><time>2026-03-29T09:04:29.954Z</time></trkpt><trkpt lat="45.8019283" lon="8.538735"><ele>210.0</ele><time>2026-03-29T09:04:30.953Z</time></trkpt><trkpt lat="45.80205" lon="8.53883"><ele>210.0</ele><time>2026-03-29T09:04:31.954Z</time></trkpt><trkpt lat="45.8021617" lon="8.5389317"><ele>210.0</ele><time>2026-03-29T09:04:32.954Z</time></trkpt><trkpt lat="45.80228" lon="8.5390433"><ele>210.0</ele><time>2026-03-29T09:04:33.954Z</time></trkpt><trkpt lat="45.802405" lon="8.5391617"><ele>210.0</ele><time>2026-03-29T09:04:34.954Z</time></trkpt><trkpt lat="45.8025233" lon="8.5392767"><ele>210.0</ele><time>2026-03-29T09:04:35.954Z</time></trkpt><trkpt lat="45.8026417" lon="8.5393933"><ele>211.0</ele><time>2026-03-29T09:04:36.954Z</time></trkpt><trkpt lat="45.8027617" lon="8.5394967"><ele>212.0</ele><time>2026-03-29T09:04:37.954Z</time></trkpt><trkpt lat="45.8028783" lon="8.5396033"><ele>213.0</ele><time>2026-03-29T09:04:38.954Z</time></trkpt><trkpt lat="45.8029967" lon="8.5397133"><ele>214.0</ele><time>2026-03-29T09:04:39.954Z</time></trkpt><trkpt lat="45.80312" lon="8.5398317"><ele>214.0</ele><time>2026-03-29T09:04:40.954Z</time></trkpt><trkpt lat="45.8032483" lon="8.5399483"><ele>214.0</ele><time>2026-03-29T09:04:41.954Z</time></trkpt><trkpt lat="45.8033683" lon="8.5400767"><ele>214.0</ele><time>2026-03-29T09:04:42.954Z</time></trkpt><trkpt lat="45.8034867" lon="8.5401767"><ele>214.0</ele><time>2026-03-29T09:04:43.954Z</time></trkpt><trkpt lat="45.803735" lon="8.5403667"><ele>211.5</ele><time>2026-03-29T09:04:45.954Z</time></trkpt><trkpt lat="45.80387" lon="8.5404467"><ele>209.0</ele><time>2026-03-29T09:04:46.954Z</time></trkpt><trkpt lat="45.8040167" lon="8.5404983"><ele>206.5</ele><time>2026-03-29T09:04:47.954Z</time></trkpt><trkpt lat="45.80416" lon="8.5405317"><ele>204.0</ele><time>2026-03-29T09:04:48.954Z</time></trkpt><trkpt lat="45.8043167" lon="8.54054"><ele>203.75</ele><time>2026-03-29T09:04:49.954Z</time></trkpt><trkpt lat="45.804465" lon="8.5405467"><ele>203.5</ele><time>2026-03-29T09:04:50.954Z</time></trkpt><trkpt lat="45.8046117" lon="8.54054"><ele>203.25</ele><time>2026-03-29T09:04:51.954Z</time></trkpt><trkpt lat="45.8047417" lon="8.5405483"><ele>203.0</ele><time>2026-03-29T09:04:52.954Z</time></trkpt><trkpt lat="45.8048783" lon="8.54056"><ele>203.0</ele><time>2026-03-29T09:04:53.954Z</time></trkpt><trkpt lat="45.8049917" lon="8.5405617"><ele>203.0</ele><time>2026-03-29T09:04:54.953Z</time></trkpt><trkpt lat="45.8051167" lon="8.5405667"><ele>203.0</ele><time>2026-03-29T09:04:55.954Z</time></trkpt><trkpt lat="45.805235" lon="8.5405667"><ele>203.0</ele><time>2026-03-29T09:04:56.954Z</time></trkpt><trkpt lat="45.8053633" lon="8.5405667"><ele>204.0</ele><time>2026-03-29T09:04:57.954Z</time></trkpt><trkpt lat="45.8055" lon="8.54057"><ele>205.0</ele><time>2026-03-29T09:04:58.954Z</time></trkpt><trkpt lat="45.8056417" lon="8.54058"><ele>206.0</ele><time>2026-03-29T09:04:59.954Z</time></trkpt><trkpt lat="45.8057867" lon="8.540585"><ele>207.0</ele><time>2026-03-29T09:05:00.953Z</time></trkpt><trkpt lat="45.8059183" lon="8.5405967"><ele>207.5</ele><time>2026-03-29T09:05:01.954Z</time></trkpt><trkpt lat="45.8060417" lon="8.5406183"><ele>208.0</ele><time>2026-03-29T09:05:02.954Z</time></trkpt><trkpt lat="45.8061683" lon="8.5406567"><ele>208.5</ele><time>2026-03-29T09:05:03.954Z</time></trkpt><trkpt lat="45.8062883" lon="8.5407017"><ele>209.0</ele><time>2026-03-29T09:05:04.954Z</time></trkpt><trkpt lat="45.8064067" lon="8.5407817"><ele>209.0</ele><time>2026-03-29T09:05:05.954Z</time></trkpt><trkpt lat="45.8065183" lon="8.5408967"><ele>209.0</ele><time>2026-03-29T09:05:06.954Z</time></trkpt><trkpt lat="45.8066317" lon="8.5410317"><ele>209.0</ele><time>2026-03-29T09:05:07.954Z</time></trkpt><trkpt lat="45.8067383" lon="8.5411733"><ele>209.0</ele><time>2026-03-29T09:05:08.954Z</time></trkpt><trkpt lat="45.80683" lon="8.541345"><ele>209.66666666666669</ele><time>2026-03-29T09:05:09.954Z</time></trkpt><trkpt lat="45.806915" lon="8.5415383"><ele>210.33333333333331</ele><time>2026-03-29T09:05:10.954Z</time></trkpt><trkpt lat="45.806995" lon="8.541755"><ele>211.0</ele><time>2026-03-29T09:05:11.954Z</time></trkpt><trkpt lat="45.8070567" lon="8.54197"><ele>210.0</ele><time>2026-03-29T09:05:12.954Z</time></trkpt><trkpt lat="45.8071133" lon="8.54218"><ele>209.0</ele><time>2026-03-29T09:05:13.954Z</time></trkpt><trkpt lat="45.80716" lon="8.5423717"><ele>208.0</ele><time>2026-03-29T09:05:14.954Z</time></trkpt><trkpt lat="45.807205" lon="8.5425583"><ele>207.0</ele><time>2026-03-29T09:05:15.954Z</time></trkpt><trkpt lat="45.8072483" lon="8.5427367"><ele>207.0</ele><time>2026-03-29T09:05:16.954Z</time></trkpt><trkpt lat="45.80731" lon="8.54287"><ele>207.0</ele><time>2026-03-29T09:05:17.954Z</time></trkpt><trkpt lat="45.8073817" lon="8.5429933"><ele>207.0</ele><time>2026-03-29T09:05:18.954Z</time></trkpt><trkpt lat="45.8074767" lon="8.5430817"><ele>207.0</ele><time>2026-03-29T09:05:19.954Z</time></trkpt><trkpt lat="45.807585" lon="8.54316"><ele>206.33333333333331</ele><time>2026-03-29T09:05:20.954Z</time></trkpt><trkpt lat="45.8077083" lon="8.54323"><ele>205.66666666666666</ele><time>2026-03-29T09:05:21.954Z</time></trkpt><trkpt lat="45.8079583" lon="8.5433033"><ele>205.0</ele><time>2026-03-29T09:05:23.954Z</time></trkpt><trkpt lat="45.8080933" lon="8.5433417"><ele>205.0</ele><time>2026-03-29T09:05:24.954Z</time></trkpt><trkpt lat="45.808345" lon="8.5434333"><ele>205.0</ele><time>2026-03-29T09:05:26.954Z</time></trkpt><trkpt lat="45.808465" lon="8.543475"><ele>205.0</ele><time>2026-03-29T09:05:27.954Z</time></trkpt><trkpt lat="45.8087217" lon="8.5435583"><ele>206.25</ele><time>2026-03-29T09:05:29.954Z</time></trkpt><trkpt lat="45.808845" lon="8.5435867"><ele>207.5</ele><time>2026-03-29T09:05:30.954Z</time></trkpt><trkpt lat="45.8089583" lon="8.543595"><ele>208.75</ele><time>2026-03-29T09:05:31.954Z</time></trkpt><trkpt lat="45.8090833" lon="8.5435983"><ele>210.0</ele><time>2026-03-29T09:05:32.954Z</time></trkpt><trkpt lat="45.8092067" lon="8.543585"><ele>211.0</ele><time>2026-03-29T09:05:33.954Z</time></trkpt><trkpt lat="45.8094633" lon="8.54353"><ele>212.0</ele><time>2026-03-29T09:05:35.954Z</time></trkpt><trkpt lat="45.8095867" lon="8.5434967"><ele>213.0</ele><time>2026-03-29T09:05:36.954Z</time></trkpt><trkpt lat="45.8097083" lon="8.5434667"><ele>213.0</ele><time>2026-03-29T09:05:37.954Z</time></trkpt><trkpt lat="45.8098283" lon="8.5434417"><ele>213.0</ele><time>2026-03-29T09:05:38.954Z</time></trkpt><trkpt lat="45.8099583" lon="8.54341"><ele>213.0</ele><time>2026-03-29T09:05:39.954Z</time></trkpt><trkpt lat="45.81009" lon="8.5433883"><ele>213.0</ele><time>2026-03-29T09:05:40.954Z</time></trkpt><trkpt lat="45.8102217" lon="8.543375"><ele>213.0</ele><time>2026-03-29T09:05:41.954Z</time></trkpt><trkpt lat="45.8103483" lon="8.5433483"><ele>213.0</ele><time>2026-03-29T09:05:42.954Z</time></trkpt><trkpt lat="45.8104667" lon="8.5433233"><ele>213.0</ele><time>2026-03-29T09:05:43.954Z</time></trkpt><trkpt lat="45.810585" lon="8.5433133"><ele>213.0</ele><time>2026-03-29T09:05:44.953Z</time></trkpt><trkpt lat="45.810715" lon="8.5433083"><ele>213.0</ele><time>2026-03-29T09:05:45.954Z</time></trkpt><trkpt lat="45.81084" lon="8.54332"><ele>213.0</ele><time>2026-03-29T09:05:46.953Z</time></trkpt><trkpt lat="45.81109" lon="8.543415"><ele>213.0</ele><time>2026-03-29T09:05:48.954Z</time></trkpt><trkpt lat="45.8112133" lon="8.5434817"><ele>215.5</ele><time>2026-03-29T09:05:49.954Z</time></trkpt><trkpt lat="45.8113267" lon="8.543545"><ele>218.0</ele><time>2026-03-29T09:05:50.954Z</time></trkpt><trkpt lat="45.8114467" lon="8.5436267"><ele>220.5</ele><time>2026-03-29T09:05:51.954Z</time></trkpt><trkpt lat="45.8115733" lon="8.5437017"><ele>223.0</ele><time>2026-03-29T09:05:52.954Z</time></trkpt><trkpt lat="45.81169" lon="8.5437783"><ele>219.0</ele><time>2026-03-29T09:05:53.954Z</time></trkpt><trkpt lat="45.8118067" lon="8.54386"><ele>215.0</ele><time>2026-03-29T09:05:54.954Z</time></trkpt><trkpt lat="45.8119267" lon="8.5439333"><ele>211.0</ele><time>2026-03-29T09:05:55.954Z</time></trkpt><trkpt lat="45.8120467" lon="8.5440133"><ele>207.0</ele><time>2026-03-29T09:05:56.954Z</time></trkpt><trkpt lat="45.8121517" lon="8.5441017"><ele>207.0</ele><time>2026-03-29T09:05:57.954Z</time></trkpt><trkpt lat="45.8122567" lon="8.5442133"><ele>207.0</ele><time>2026-03-29T09:05:58.954Z</time></trkpt><trkpt lat="45.812345" lon="8.5443383"><ele>207.0</ele><time>2026-03-29T09:05:59.954Z</time></trkpt><trkpt lat="45.8124517" lon="8.5444417"><ele>207.0</ele><time>2026-03-29T09:06:00.954Z</time></trkpt><trkpt lat="45.8125633" lon="8.5445217"><ele>205.75</ele><time>2026-03-29T09:06:01.954Z</time></trkpt><trkpt lat="45.8126783" lon="8.5445733"><ele>204.5</ele><time>2026-03-29T09:06:02.954Z</time></trkpt><trkpt lat="45.8128017" lon="8.5446183"><ele>203.25</ele><time>2026-03-29T09:06:03.954Z</time></trkpt><trkpt lat="45.81292" lon="8.544675"><ele>202.0</ele><time>2026-03-29T09:06:04.954Z</time></trkpt><trkpt lat="45.81304" lon="8.5447333"><ele>202.0</ele><time>2026-03-29T09:06:05.954Z</time></trkpt><trkpt lat="45.8131567" lon="8.5447917"><ele>202.0</ele><time>2026-03-29T09:06:06.954Z</time></trkpt><trkpt lat="45.8132833" lon="8.54484"><ele>202.0</ele><time>2026-03-29T09:06:07.954Z</time></trkpt><trkpt lat="45.8134083" lon="8.54487"><ele>202.0</ele><time>2026-03-29T09:06:08.953Z</time></trkpt><trkpt lat="45.8135333" lon="8.5449017"><ele>205.0</ele><time>2026-03-29T09:06:09.954Z</time></trkpt><trkpt lat="45.8136517" lon="8.5449233"><ele>208.0</ele><time>2026-03-29T09:06:10.954Z</time></trkpt><trkpt lat="45.813785" lon="8.544945"><ele>211.0</ele><time>2026-03-29T09:06:11.954Z</time></trkpt><trkpt lat="45.8139067" lon="8.5449767"><ele>214.0</ele><time>2026-03-29T09:06:12.954Z</time></trkpt><trkpt lat="45.8140367" lon="8.5449967"><ele>214.0</ele><time>2026-03-29T09:06:13.954Z</time></trkpt><trkpt lat="45.81429" lon="8.5450567"><ele>214.0</ele><time>2026-03-29T09:06:15.952Z</time></trkpt><trkpt lat="45.8143933" lon="8.5451233"><ele>214.0</ele><time>2026-03-29T09:06:16.953Z</time></trkpt><trkpt lat="45.81459" lon="8.5452917"><ele>211.0</ele><time>2026-03-29T09:06:18.953Z</time></trkpt><trkpt lat="45.814805" lon="8.54551"><ele>208.0</ele><time>2026-03-29T09:06:20.953Z</time></trkpt><trkpt lat="45.8149167" lon="8.5456283"><ele>205.0</ele><time>2026-03-29T09:06:21.953Z</time></trkpt><trkpt lat="45.81503" lon="8.545745"><ele>205.0</ele><time>2026-03-29T09:06:22.953Z</time></trkpt><trkpt lat="45.815145" lon="8.54586"><ele>205.0</ele><time>2026-03-29T09:06:23.953Z</time></trkpt><trkpt lat="45.81526" lon="8.5459633"><ele>205.0</ele><time>2026-03-29T09:06:24.953Z</time></trkpt><trkpt lat="45.81537" lon="8.5460617"><ele>205.0</ele><time>2026-03-29T09:06:25.952Z</time></trkpt><trkpt lat="45.8154567" lon="8.5461567"><ele>205.2</ele><time>2026-03-29T09:06:26.952Z</time></trkpt><trkpt lat="45.8155333" lon="8.5462617"><ele>205.4</ele><time>2026-03-29T09:06:27.953Z</time></trkpt><trkpt lat="45.8156083" lon="8.5463633"><ele>205.60000000000002</ele><time>2026-03-29T09:06:28.953Z</time></trkpt><trkpt lat="45.8156717" lon="8.5464417"><ele>205.8</ele><time>2026-03-29T09:06:29.953Z</time></trkpt><trkpt lat="45.8157233" lon="8.5465067"><ele>206.0</ele><time>2026-03-29T09:06:30.953Z</time></trkpt><trkpt lat="45.8158133" lon="8.546615"><ele>206.00000000000003</ele><time>2026-03-29T09:06:32.953Z</time></trkpt><trkpt lat="45.81586" lon="8.54668"><ele>206.0</ele><time>2026-03-29T09:06:33.953Z</time></trkpt><trkpt lat="45.8159567" lon="8.5467933"><ele>206.0</ele><time>2026-03-29T09:06:35.952Z</time></trkpt><trkpt lat="45.8160067" lon="8.5468667"><ele>206.0</ele><time>2026-03-29T09:06:36.953Z</time></trkpt><trkpt lat="45.8160617" lon="8.5469583"><ele>206.00000000000003</ele><time>2026-03-29T09:06:37.953Z</time></trkpt><trkpt lat="45.816115" lon="8.54706"><ele>206.0</ele><time>2026-03-29T09:06:38.953Z</time></trkpt><trkpt lat="45.81617" lon="8.547165"><ele>206.60000000000002</ele><time>2026-03-29T09:06:39.953Z</time></trkpt><trkpt lat="45.8162267" lon="8.5472667"><ele>207.2</ele><time>2026-03-29T09:06:40.952Z</time></trkpt><trkpt lat="45.81628" lon="8.54736"><ele>207.8</ele><time>2026-03-29T09:06:41.952Z</time></trkpt><trkpt lat="45.816325" lon="8.547475"><ele>208.39999999999998</ele><time>2026-03-29T09:06:42.953Z</time></trkpt><trkpt lat="45.81636" lon="8.547605"><ele>209.0</ele><time>2026-03-29T09:06:43.953Z</time></trkpt><trkpt lat="45.8163933" lon="8.5477517"><ele>208.0</ele><time>2026-03-29T09:06:44.953Z</time></trkpt><trkpt lat="45.8164133" lon="8.5479117"><ele>207.0</ele><time>2026-03-29T09:06:45.953Z</time></trkpt><trkpt lat="45.8164383" lon="8.5480733"><ele>206.0</ele><time>2026-03-29T09:06:46.953Z</time></trkpt><trkpt lat="45.8164567" lon="8.5482167"><ele>205.0</ele><time>2026-03-29T09:06:47.953Z</time></trkpt><trkpt lat="45.8164717" lon="8.54836"><ele>204.0</ele><time>2026-03-29T09:06:48.953Z</time></trkpt><trkpt lat="45.8164933" lon="8.5485017"><ele>204.0</ele><time>2026-03-29T09:06:49.953Z</time></trkpt><trkpt lat="45.816525" lon="8.5486333"><ele>204.0</ele><time>2026-03-29T09:06:50.953Z</time></trkpt><trkpt lat="45.81656" lon="8.54876"><ele>204.0</ele><time>2026-03-29T09:06:51.953Z</time></trkpt><trkpt lat="45.81661" lon="8.54887"><ele>204.0</ele><time>2026-03-29T09:06:52.953Z</time></trkpt><trkpt lat="45.8166767" lon="8.5489917"><ele>204.0</ele><time>2026-03-29T09:06:53.953Z</time></trkpt><trkpt lat="45.81675" lon="8.5491133"><ele>204.0</ele><time>2026-03-29T09:06:54.953Z</time></trkpt><trkpt lat="45.81683" lon="8.5492333"><ele>204.0</ele><time>2026-03-29T09:06:55.953Z</time></trkpt><trkpt lat="45.816925" lon="8.549345"><ele>204.0</ele><time>2026-03-29T09:06:56.953Z</time></trkpt><trkpt lat="45.8170117" lon="8.54948"><ele>204.0</ele><time>2026-03-29T09:06:57.953Z</time></trkpt><trkpt lat="45.8171067" lon="8.5496433"><ele>204.0</ele><time>2026-03-29T09:06:58.953Z</time></trkpt><trkpt lat="45.8171933" lon="8.5497717"><ele>204.0</ele><time>2026-03-29T09:06:59.953Z</time></trkpt><trkpt lat="45.817285" lon="8.5499033"><ele>204.0</ele><time>2026-03-29T09:07:00.953Z</time></trkpt><trkpt lat="45.8173717" lon="8.5500417"><ele>204.0</ele><time>2026-03-29T09:07:01.953Z</time></trkpt><trkpt lat="45.8174517" lon="8.5501783"><ele>204.0</ele><time>2026-03-29T09:07:02.953Z</time></trkpt><trkpt lat="45.8175433" lon="8.55031"><ele>204.0</ele><time>2026-03-29T09:07:03.953Z</time></trkpt><trkpt lat="45.8176267" lon="8.5504483"><ele>204.0</ele><time>2026-03-29T09:07:04.953Z</time></trkpt><trkpt lat="45.8177133" lon="8.550565"><ele>204.0</ele><time>2026-03-29T09:07:05.953Z</time></trkpt><trkpt lat="45.8178067" lon="8.5506933"><ele>204.5</ele><time>2026-03-29T09:07:06.953Z</time></trkpt><trkpt lat="45.8178883" lon="8.5508167"><ele>205.0</ele><time>2026-03-29T09:07:07.953Z</time></trkpt><trkpt lat="45.8179767" lon="8.55094"><ele>205.5</ele><time>2026-03-29T09:07:08.953Z</time></trkpt><trkpt lat="45.8180633" lon="8.55106"><ele>206.0</ele><time>2026-03-29T09:07:09.952Z</time></trkpt><trkpt lat="45.81815" lon="8.551185"><ele>206.0</ele><time>2026-03-29T09:07:10.953Z</time></trkpt><trkpt lat="45.8182383" lon="8.5513367"><ele>206.0</ele><time>2026-03-29T09:07:11.953Z</time></trkpt><trkpt lat="45.8183317" lon="8.5514633"><ele>206.0</ele><time>2026-03-29T09:07:12.953Z</time></trkpt><trkpt lat="45.8184183" lon="8.5516033"><ele>206.0</ele><time>2026-03-29T09:07:13.953Z</time></trkpt><trkpt lat="45.8185067" lon="8.5517467"><ele>206.75</ele><time>2026-03-29T09:07:14.953Z</time></trkpt><trkpt lat="45.8185983" lon="8.55188"><ele>207.5</ele><time>2026-03-29T09:07:15.953Z</time></trkpt><trkpt lat="45.8186817" lon="8.5520167"><ele>208.25</ele><time>2026-03-29T09:07:16.953Z</time></trkpt><trkpt lat="45.8187733" lon="8.55215"><ele>209.0</ele><time>2026-03-29T09:07:17.953Z</time></trkpt><trkpt lat="45.8188583" lon="8.5522767"><ele>209.0</ele><time>2026-03-29T09:07:18.952Z</time></trkpt><trkpt lat="45.8189467" lon="8.5524"><ele>209.0</ele><time>2026-03-29T09:07:19.952Z</time></trkpt><trkpt lat="45.8190333" lon="8.5525133"><ele>209.0</ele><time>2026-03-29T09:07:20.953Z</time></trkpt><trkpt lat="45.819125" lon="8.5526617"><ele>209.0</ele><time>2026-03-29T09:07:21.953Z</time></trkpt><trkpt lat="45.8192217" lon="8.5528083"><ele>209.25</ele><time>2026-03-29T09:07:22.953Z</time></trkpt><trkpt lat="45.8193233" lon="8.55296"><ele>209.5</ele><time>2026-03-29T09:07:23.953Z</time></trkpt><trkpt lat="45.8194217" lon="8.5531117"><ele>209.75</ele><time>2026-03-29T09:07:24.953Z</time></trkpt><trkpt lat="45.81952" lon="8.5532667"><ele>210.0</ele><time>2026-03-29T09:07:25.953Z</time></trkpt><trkpt lat="45.81962" lon="8.553425"><ele>210.0</ele><time>2026-03-29T09:07:26.952Z</time></trkpt><trkpt lat="45.819715" lon="8.553575"><ele>210.0</ele><time>2026-03-29T09:07:27.953Z</time></trkpt><trkpt lat="45.8198217" lon="8.5537317"><ele>210.0</ele><time>2026-03-29T09:07:28.953Z</time></trkpt><trkpt lat="45.8199333" lon="8.5538967"><ele>209.66666666666669</ele><time>2026-03-29T09:07:29.953Z</time></trkpt><trkpt lat="45.8200483" lon="8.5540717"><ele>209.33333333333334</ele><time>2026-03-29T09:07:30.953Z</time></trkpt><trkpt lat="45.8201917" lon="8.5542533"><ele>209.0</ele><time>2026-03-29T09:07:31.953Z</time></trkpt><trkpt lat="45.8203383" lon="8.554475"><ele>209.33333333333334</ele><time>2026-03-29T09:07:32.953Z</time></trkpt><trkpt lat="45.820495" lon="8.5546917"><ele>209.66666666666669</ele><time>2026-03-29T09:07:33.953Z</time></trkpt><trkpt lat="45.82065" lon="8.5549183"><ele>210.0</ele><time>2026-03-29T09:07:34.953Z</time></trkpt><trkpt lat="45.8207967" lon="8.5551417"><ele>210.0</ele><time>2026-03-29T09:07:35.953Z</time></trkpt><trkpt lat="45.8209367" lon="8.555365"><ele>210.0</ele><time>2026-03-29T09:07:36.953Z</time></trkpt><trkpt lat="45.8210633" lon="8.5555617"><ele>210.0</ele><time>2026-03-29T09:07:37.953Z</time></trkpt><trkpt lat="45.8211883" lon="8.5557467"><ele>211.0</ele><time>2026-03-29T09:07:38.953Z</time></trkpt><trkpt lat="45.8212967" lon="8.5559067"><ele>212.0</ele><time>2026-03-29T09:07:39.953Z</time></trkpt><trkpt lat="45.8214" lon="8.556055"><ele>213.0</ele><time>2026-03-29T09:07:40.953Z</time></trkpt><trkpt lat="45.8214967" lon="8.5562083"><ele>214.0</ele><time>2026-03-29T09:07:41.953Z</time></trkpt><trkpt lat="45.8215883" lon="8.5563467"><ele>214.0</ele><time>2026-03-29T09:07:42.953Z</time></trkpt><trkpt lat="45.8216783" lon="8.5564817"><ele>214.0</ele><time>2026-03-29T09:07:43.953Z</time></trkpt><trkpt lat="45.821765" lon="8.556625"><ele>214.0</ele><time>2026-03-29T09:07:44.953Z</time></trkpt><trkpt lat="45.821855" lon="8.5567567"><ele>214.0</ele><time>2026-03-29T09:07:45.953Z</time></trkpt><trkpt lat="45.821935" lon="8.5568733"><ele>214.75</ele><time>2026-03-29T09:07:46.953Z</time></trkpt><trkpt lat="45.8220117" lon="8.55699"><ele>215.5</ele><time>2026-03-29T09:07:47.953Z</time></trkpt><trkpt lat="45.822105" lon="8.5571233"><ele>216.25</ele><time>2026-03-29T09:07:48.953Z</time></trkpt><trkpt lat="45.8221883" lon="8.557255"><ele>217.0</ele><time>2026-03-29T09:07:49.953Z</time></trkpt><trkpt lat="45.82228" lon="8.55738"><ele>217.0</ele><time>2026-03-29T09:07:50.953Z</time></trkpt><trkpt lat="45.822365" lon="8.557505"><ele>217.0</ele><time>2026-03-29T09:07:51.952Z</time></trkpt><trkpt lat="45.8224483" lon="8.557635"><ele>217.0</ele><time>2026-03-29T09:07:52.953Z</time></trkpt><trkpt lat="45.8225283" lon="8.5577667"><ele>217.0</ele><time>2026-03-29T09:07:53.953Z</time></trkpt><trkpt lat="45.8226117" lon="8.5578933"><ele>217.5</ele><time>2026-03-29T09:07:54.953Z</time></trkpt><trkpt lat="45.8227017" lon="8.558015"><ele>218.0</ele><time>2026-03-29T09:07:55.953Z</time></trkpt><trkpt lat="45.82279" lon="8.5581583"><ele>218.5</ele><time>2026-03-29T09:07:56.953Z</time></trkpt><trkpt lat="45.8228867" lon="8.5583033"><ele>219.0</ele><time>2026-03-29T09:07:57.953Z</time></trkpt><trkpt lat="45.8229883" lon="8.558455"><ele>219.0</ele><time>2026-03-29T09:07:58.953Z</time></trkpt><trkpt lat="45.823105" lon="8.5586183"><ele>219.0</ele><time>2026-03-29T09:07:59.953Z</time></trkpt><trkpt lat="45.8232317" lon="8.5588"><ele>219.0</ele><time>2026-03-29T09:08:00.953Z</time></trkpt><trkpt lat="45.82336" lon="8.5589983"><ele>218.66666666666669</ele><time>2026-03-29T09:08:01.953Z</time></trkpt><trkpt lat="45.82347" lon="8.5591817"><ele>218.33333333333334</ele><time>2026-03-29T09:08:02.953Z</time></trkpt><trkpt lat="45.8235733" lon="8.559355"><ele>218.0</ele><time>2026-03-29T09:08:03.953Z</time></trkpt><trkpt lat="45.8236767" lon="8.5595083"><ele>217.66666666666669</ele><time>2026-03-29T09:08:04.953Z</time></trkpt><trkpt lat="45.8237767" lon="8.5596767"><ele>217.33333333333331</ele><time>2026-03-29T09:08:05.953Z</time></trkpt><trkpt lat="45.823875" lon="8.5598367"><ele>217.0</ele><time>2026-03-29T09:08:06.953Z</time></trkpt><trkpt lat="45.8239833" lon="8.560005"><ele>217.0</ele><time>2026-03-29T09:08:07.952Z</time></trkpt><trkpt lat="45.824095" lon="8.5601667"><ele>217.0</ele><time>2026-03-29T09:08:08.953Z</time></trkpt><trkpt lat="45.8241917" lon="8.5603233"><ele>217.0</ele><time>2026-03-29T09:08:09.953Z</time></trkpt><trkpt lat="45.824295" lon="8.56047"><ele>216.33333333333331</ele><time>2026-03-29T09:08:10.953Z</time></trkpt><trkpt lat="45.8243983" lon="8.5606333"><ele>215.66666666666669</ele><time>2026-03-29T09:08:11.953Z</time></trkpt><trkpt lat="45.8245217" lon="8.5607317"><ele>215.0</ele><time>2026-03-29T09:08:12.953Z</time></trkpt><trkpt lat="45.8246183" lon="8.5609083"><ele>215.0</ele><time>2026-03-29T09:08:13.953Z</time></trkpt><trkpt lat="45.824725" lon="8.56108"><ele>215.0</ele><time>2026-03-29T09:08:14.953Z</time></trkpt><trkpt lat="45.8248317" lon="8.561255"><ele>215.0</ele><time>2026-03-29T09:08:15.953Z</time></trkpt><trkpt lat="45.8249383" lon="8.5614333"><ele>215.0</ele><time>2026-03-29T09:08:16.953Z</time></trkpt><trkpt lat="45.825045" lon="8.561605"><ele>215.0</ele><time>2026-03-29T09:08:17.952Z</time></trkpt><trkpt lat="45.8251533" lon="8.56177"><ele>215.0</ele><time>2026-03-29T09:08:18.953Z</time></trkpt><trkpt lat="45.8252583" lon="8.5619417"><ele>214.0</ele><time>2026-03-29T09:08:19.953Z</time></trkpt><trkpt lat="45.8253683" lon="8.5621017"><ele>213.0</ele><time>2026-03-29T09:08:20.953Z</time></trkpt><trkpt lat="45.8254733" lon="8.5622667"><ele>212.0</ele><time>2026-03-29T09:08:21.952Z</time></trkpt><trkpt lat="45.8255817" lon="8.5624383"><ele>212.0</ele><time>2026-03-29T09:08:22.953Z</time></trkpt><trkpt lat="45.8256867" lon="8.5626033"><ele>212.0</ele><time>2026-03-29T09:08:23.953Z</time></trkpt><trkpt lat="45.8258" lon="8.56275"><ele>212.0</ele><time>2026-03-29T09:08:24.953Z</time></trkpt><trkpt lat="45.8259017" lon="8.5629067"><ele>212.0</ele><time>2026-03-29T09:08:25.953Z</time></trkpt><trkpt lat="45.8260117" lon="8.56307"><ele>212.0</ele><time>2026-03-29T09:08:26.953Z</time></trkpt><trkpt lat="45.8261233" lon="8.5632483"><ele>212.0</ele><time>2026-03-29T09:08:27.953Z</time></trkpt><trkpt lat="45.82624" lon="8.56343"><ele>212.0</ele><time>2026-03-29T09:08:28.953Z</time></trkpt><trkpt lat="45.826355" lon="8.563615"><ele>212.0</ele><time>2026-03-29T09:08:29.953Z</time></trkpt><trkpt lat="45.82647" lon="8.56378"><ele>212.0</ele><time>2026-03-29T09:08:30.952Z</time></trkpt><trkpt lat="45.8265667" lon="8.563935"><ele>212.0</ele><time>2026-03-29T09:08:31.953Z</time></trkpt><trkpt lat="45.8266583" lon="8.56408"><ele>212.0</ele><time>2026-03-29T09:08:32.953Z</time></trkpt><trkpt lat="45.8267433" lon="8.5642333"><ele>212.0</ele><time>2026-03-29T09:08:33.953Z</time></trkpt><trkpt lat="45.82683" lon="8.5643817"><ele>212.0</ele><time>2026-03-29T09:08:34.953Z</time></trkpt><trkpt lat="45.8269267" lon="8.5645283"><ele>211.75</ele><time>2026-03-29T09:08:35.953Z</time></trkpt><trkpt lat="45.8270233" lon="8.564665"><ele>211.5</ele><time>2026-03-29T09:08:36.953Z</time></trkpt><trkpt lat="45.8271183" lon="8.5648083"><ele>211.25</ele><time>2026-03-29T09:08:37.953Z</time></trkpt><trkpt lat="45.8272133" lon="8.5649583"><ele>211.0</ele><time>2026-03-29T09:08:38.953Z</time></trkpt><trkpt lat="45.8273117" lon="8.5651117"><ele>211.0</ele><time>2026-03-29T09:08:39.953Z</time></trkpt><trkpt lat="45.8274117" lon="8.565265"><ele>211.0</ele><time>2026-03-29T09:08:40.953Z</time></trkpt><trkpt lat="45.827495" lon="8.5654017"><ele>211.0</ele><time>2026-03-29T09:08:41.953Z</time></trkpt><trkpt lat="45.8275783" lon="8.5655183"><ele>211.0</ele><time>2026-03-29T09:08:42.953Z</time></trkpt><trkpt lat="45.8276633" lon="8.5656483"><ele>209.8</ele><time>2026-03-29T09:08:43.953Z</time></trkpt><trkpt lat="45.8277433" lon="8.5657683"><ele>208.60000000000002</ele><time>2026-03-29T09:08:44.953Z</time></trkpt><trkpt lat="45.8278317" lon="8.5658733"><ele>207.4</ele><time>2026-03-29T09:08:45.953Z</time></trkpt><trkpt lat="45.8279167" lon="8.5659767"><ele>206.2</ele><time>2026-03-29T09:08:46.953Z</time></trkpt><trkpt lat="45.827995" lon="8.566055"><ele>205.0</ele><time>2026-03-29T09:08:47.953Z</time></trkpt><trkpt lat="45.8280733" lon="8.566095"><ele>204.99999999999997</ele><time>2026-03-29T09:08:48.952Z</time></trkpt><trkpt lat="45.8281583" lon="8.5661217"><ele>205.0</ele><time>2026-03-29T09:08:49.953Z</time></trkpt><trkpt lat="45.8282583" lon="8.56611"><ele>205.0</ele><time>2026-03-29T09:08:51.953Z</time></trkpt><trkpt lat="45.8283717" lon="8.566085"><ele>205.0</ele><time>2026-03-29T09:08:53.953Z</time></trkpt><trkpt lat="45.8284333" lon="8.566065"><ele>204.99999999999997</ele><time>2026-03-29T09:08:54.953Z</time></trkpt><trkpt lat="45.828495" lon="8.5660317"><ele>205.0</ele><time>2026-03-29T09:08:55.953Z</time></trkpt><trkpt lat="45.8285733" lon="8.5659817"><ele>204.0</ele><time>2026-03-29T09:08:56.952Z</time></trkpt><trkpt lat="45.8286733" lon="8.56592"><ele>203.0</ele><time>2026-03-29T09:08:57.953Z</time></trkpt><trkpt lat="45.8288083" lon="8.56584"><ele>202.0</ele><time>2026-03-29T09:08:58.952Z</time></trkpt><trkpt lat="45.828955" lon="8.565735"><ele>201.0</ele><time>2026-03-29T09:08:59.953Z</time></trkpt><trkpt lat="45.8291117" lon="8.5656233"><ele>201.0</ele><time>2026-03-29T09:09:00.953Z</time></trkpt><trkpt lat="45.8292533" lon="8.5655183"><ele>201.0</ele><time>2026-03-29T09:09:01.953Z</time></trkpt><trkpt lat="45.829395" lon="8.5654133"><ele>201.0</ele><time>2026-03-29T09:09:02.953Z</time></trkpt><trkpt lat="45.8295267" lon="8.565305"><ele>202.0</ele><time>2026-03-29T09:09:03.953Z</time></trkpt><trkpt lat="45.829645" lon="8.565215"><ele>203.0</ele><time>2026-03-29T09:09:04.953Z</time></trkpt><trkpt lat="45.829755" lon="8.5651383"><ele>204.0</ele><time>2026-03-29T09:09:05.953Z</time></trkpt><trkpt lat="45.8298767" lon="8.5650483"><ele>205.0</ele><time>2026-03-29T09:09:06.953Z</time></trkpt><trkpt lat="45.83" lon="8.565"><ele>205.0</ele><time>2026-03-29T09:09:07.953Z</time></trkpt><trkpt lat="45.8301317" lon="8.564975"><ele>205.0</ele><time>2026-03-29T09:09:08.952Z</time></trkpt><trkpt lat="45.8302667" lon="8.56495"><ele>205.0</ele><time>2026-03-29T09:09:09.952Z</time></trkpt><trkpt lat="45.83041" lon="8.5649183"><ele>205.0</ele><time>2026-03-29T09:09:10.952Z</time></trkpt><trkpt lat="45.8305583" lon="8.5649017"><ele>205.25</ele><time>2026-03-29T09:09:11.952Z</time></trkpt><trkpt lat="45.83069" lon="8.564915"><ele>205.5</ele><time>2026-03-29T09:09:12.952Z</time></trkpt><trkpt lat="45.8308117" lon="8.56496"><ele>205.75</ele><time>2026-03-29T09:09:13.952Z</time></trkpt><trkpt lat="45.8309167" lon="8.56504"><ele>206.0</ele><time>2026-03-29T09:09:14.952Z</time></trkpt><trkpt lat="45.8310133" lon="8.56515"><ele>206.25</ele><time>2026-03-29T09:09:15.952Z</time></trkpt><trkpt lat="45.831125" lon="8.5652633"><ele>206.5</ele><time>2026-03-29T09:09:16.952Z</time></trkpt><trkpt lat="45.83123" lon="8.5653917"><ele>206.75</ele><time>2026-03-29T09:09:17.952Z</time></trkpt><trkpt lat="45.8313467" lon="8.5655117"><ele>207.0</ele><time>2026-03-29T09:09:18.951Z</time></trkpt><trkpt lat="45.831465" lon="8.5656383"><ele>207.0</ele><time>2026-03-29T09:09:19.952Z</time></trkpt><trkpt lat="45.8315817" lon="8.5657467"><ele>207.0</ele><time>2026-03-29T09:09:20.952Z</time></trkpt><trkpt lat="45.8317017" lon="8.5658667"><ele>207.0</ele><time>2026-03-29T09:09:21.952Z</time></trkpt><trkpt lat="45.8318317" lon="8.5659883"><ele>207.0</ele><time>2026-03-29T09:09:22.952Z</time></trkpt><trkpt lat="45.83194" lon="8.566125"><ele>207.66666666666669</ele><time>2026-03-29T09:09:23.952Z</time></trkpt><trkpt lat="45.83206" lon="8.5662567"><ele>208.33333333333334</ele><time>2026-03-29T09:09:24.952Z</time></trkpt><trkpt lat="45.8321833" lon="8.56641"><ele>209.0</ele><time>2026-03-29T09:09:25.952Z</time></trkpt><trkpt lat="45.8322967" lon="8.5665517"><ele>209.0</ele><time>2026-03-29T09:09:26.952Z</time></trkpt><trkpt lat="45.832415" lon="8.5666867"><ele>209.0</ele><time>2026-03-29T09:09:27.952Z</time></trkpt><trkpt lat="45.8325383" lon="8.5668283"><ele>209.0</ele><time>2026-03-29T09:09:28.951Z</time></trkpt><trkpt lat="45.8326633" lon="8.56695"><ele>210.75</ele><time>2026-03-29T09:09:29.951Z</time></trkpt><trkpt lat="45.832775" lon="8.5670883"><ele>212.5</ele><time>2026-03-29T09:09:30.952Z</time></trkpt><trkpt lat="45.8328867" lon="8.5672133"><ele>214.25</ele><time>2026-03-29T09:09:31.952Z</time></trkpt><trkpt lat="45.832995" lon="8.56733"><ele>216.0</ele><time>2026-03-29T09:09:32.952Z</time></trkpt><trkpt lat="45.8331033" lon="8.567445"><ele>216.0</ele><time>2026-03-29T09:09:33.952Z</time></trkpt><trkpt lat="45.8332067" lon="8.5675567"><ele>216.0</ele><time>2026-03-29T09:09:34.952Z</time></trkpt><trkpt lat="45.8333083" lon="8.567685"><ele>216.0</ele><time>2026-03-29T09:09:35.951Z</time></trkpt><trkpt lat="45.8334183" lon="8.567795"><ele>216.0</ele><time>2026-03-29T09:09:36.952Z</time></trkpt><trkpt lat="45.8335233" lon="8.5679167"><ele>214.25</ele><time>2026-03-29T09:09:37.952Z</time></trkpt><trkpt lat="45.8336233" lon="8.5680533"><ele>212.5</ele><time>2026-03-29T09:09:38.952Z</time></trkpt><trkpt lat="45.8337283" lon="8.5681683"><ele>210.75</ele><time>2026-03-29T09:09:39.951Z</time></trkpt><trkpt lat="45.833835" lon="8.568285"><ele>209.0</ele><time>2026-03-29T09:09:40.952Z</time></trkpt><trkpt lat="45.83394" lon="8.5683917"><ele>209.0</ele><time>2026-03-29T09:09:41.952Z</time></trkpt><trkpt lat="45.8340417" lon="8.568495"><ele>209.0</ele><time>2026-03-29T09:09:42.952Z</time></trkpt><trkpt lat="45.8341367" lon="8.568605"><ele>209.0</ele><time>2026-03-29T09:09:43.952Z</time></trkpt><trkpt lat="45.8342333" lon="8.568715"><ele>209.0</ele><time>2026-03-29T09:09:44.952Z</time></trkpt><trkpt lat="45.834335" lon="8.5688183"><ele>208.5</ele><time>2026-03-29T09:09:45.952Z</time></trkpt><trkpt lat="45.8344383" lon="8.5689"><ele>208.0</ele><time>2026-03-29T09:09:46.952Z</time></trkpt><trkpt lat="45.8345417" lon="8.5689783"><ele>207.5</ele><time>2026-03-29T09:09:47.952Z</time></trkpt><trkpt lat="45.8346417" lon="8.56904"><ele>207.0</ele><time>2026-03-29T09:09:48.952Z</time></trkpt><trkpt lat="45.8347517" lon="8.5691067"><ele>207.0</ele><time>2026-03-29T09:09:49.952Z</time></trkpt><trkpt lat="45.8348533" lon="8.56917"><ele>207.0</ele><time>2026-03-29T09:09:50.952Z</time></trkpt><trkpt lat="45.8349583" lon="8.5692283"><ele>207.0</ele><time>2026-03-29T09:09:51.952Z</time></trkpt><trkpt lat="45.83506" lon="8.56929"><ele>207.0</ele><time>2026-03-29T09:09:52.952Z</time></trkpt><trkpt lat="45.835155" lon="8.5693533"><ele>207.0</ele><time>2026-03-29T09:09:53.952Z</time></trkpt><trkpt lat="45.8352517" lon="8.5694217"><ele>206.8</ele><time>2026-03-29T09:09:54.952Z</time></trkpt><trkpt lat="45.8353517" lon="8.56949"><ele>206.6</ele><time>2026-03-29T09:09:55.952Z</time></trkpt><trkpt lat="45.8354433" lon="8.569565"><ele>206.4</ele><time>2026-03-29T09:09:56.952Z</time></trkpt><trkpt lat="45.8355233" lon="8.56965"><ele>206.20000000000002</ele><time>2026-03-29T09:09:57.952Z</time></trkpt><trkpt lat="45.8355967" lon="8.569725"><ele>206.0</ele><time>2026-03-29T09:09:58.952Z</time></trkpt><trkpt lat="45.8356533" lon="8.5697883"><ele>206.00000000000003</ele><time>2026-03-29T09:09:59.952Z</time></trkpt><trkpt lat="45.8357383" lon="8.569885"><ele>206.0</ele><time>2026-03-29T09:10:01.952Z</time></trkpt><trkpt lat="45.8357617" lon="8.569985"><ele>206.0</ele><time>2026-03-29T09:10:16.952Z</time></trkpt><trkpt lat="45.8358133" lon="8.5700517"><ele>206.0</ele><time>2026-03-29T09:10:18.952Z</time></trkpt><trkpt lat="45.8358767" lon="8.57014"><ele>206.00000000000003</ele><time>2026-03-29T09:10:21.951Z</time></trkpt><trkpt lat="45.83595" lon="8.5701717"><ele>206.0</ele><time>2026-03-29T09:10:31.952Z</time></trkpt><trkpt lat="45.8360233" lon="8.570255"><ele>205.66666666666669</ele><time>2026-03-29T09:10:33.952Z</time></trkpt><trkpt lat="45.8361133" lon="8.5703867"><ele>205.33333333333334</ele><time>2026-03-29T09:10:35.952Z</time></trkpt><trkpt lat="45.8361633" lon="8.5704567"><ele>205.0</ele><time>2026-03-29T09:10:36.952Z</time></trkpt><trkpt lat="45.83621" lon="8.5705217"><ele>204.66666666666669</ele><time>2026-03-29T09:10:37.951Z</time></trkpt><trkpt lat="45.8362617" lon="8.570595"><ele>204.33333333333334</ele><time>2026-03-29T09:10:38.952Z</time></trkpt><trkpt lat="45.836335" lon="8.570695"><ele>204.0</ele><time>2026-03-29T09:10:39.952Z</time></trkpt><trkpt lat="45.836425" lon="8.5708067"><ele>204.0</ele><time>2026-03-29T09:10:40.951Z</time></trkpt><trkpt lat="45.836535" lon="8.57093"><ele>204.0</ele><time>2026-03-29T09:10:41.951Z</time></trkpt><trkpt lat="45.8366617" lon="8.5710233"><ele>204.0</ele><time>2026-03-29T09:10:42.952Z</time></trkpt><trkpt lat="45.8367917" lon="8.5711117"><ele>204.0</ele><time>2026-03-29T09:10:43.952Z</time></trkpt><trkpt lat="45.836915" lon="8.5712"><ele>203.5</ele><time>2026-03-29T09:10:44.952Z</time></trkpt><trkpt lat="45.8370367" lon="8.5712383"><ele>203.0</ele><time>2026-03-29T09:10:45.952Z</time></trkpt><trkpt lat="45.83715" lon="8.57131"><ele>202.5</ele><time>2026-03-29T09:10:46.952Z</time></trkpt><trkpt lat="45.8372683" lon="8.5713533"><ele>202.0</ele><time>2026-03-29T09:10:47.951Z</time></trkpt><trkpt lat="45.837385" lon="8.5714333"><ele>202.0</ele><time>2026-03-29T09:10:48.952Z</time></trkpt><trkpt lat="45.8375083" lon="8.57151"><ele>202.0</ele><time>2026-03-29T09:10:49.952Z</time></trkpt><trkpt lat="45.8376133" lon="8.57157"><ele>202.0</ele><time>2026-03-29T09:10:50.952Z</time></trkpt><trkpt lat="45.8377117" lon="8.5716417"><ele>202.0</ele><time>2026-03-29T09:10:51.952Z</time></trkpt><trkpt lat="45.8378067" lon="8.5717183"><ele>202.0</ele><time>2026-03-29T09:10:52.951Z</time></trkpt><trkpt lat="45.8379017" lon="8.571785"><ele>202.0</ele><time>2026-03-29T09:10:53.952Z</time></trkpt><trkpt lat="45.8379933" lon="8.5718517"><ele>202.0</ele><time>2026-03-29T09:10:54.952Z</time></trkpt><trkpt lat="45.8380767" lon="8.5719267"><ele>202.0</ele><time>2026-03-29T09:10:55.952Z</time></trkpt><trkpt lat="45.838165" lon="8.5720033"><ele>202.0</ele><time>2026-03-29T09:10:56.952Z</time></trkpt><trkpt lat="45.8382467" lon="8.572085"><ele>202.0</ele><time>2026-03-29T09:10:57.952Z</time></trkpt><trkpt lat="45.8383367" lon="8.5721633"><ele>202.0</ele><time>2026-03-29T09:10:58.952Z</time></trkpt><trkpt lat="45.83842" lon="8.5722383"><ele>202.0</ele><time>2026-03-29T09:10:59.952Z</time></trkpt><trkpt lat="45.838515" lon="8.5723233"><ele>202.0</ele><time>2026-03-29T09:11:00.952Z</time></trkpt><trkpt lat="45.8386033" lon="8.5724"><ele>202.0</ele><time>2026-03-29T09:11:01.952Z</time></trkpt><trkpt lat="45.838695" lon="8.5724767"><ele>201.6</ele><time>2026-03-29T09:11:02.952Z</time></trkpt><trkpt lat="45.8387883" lon="8.5725583"><ele>201.2</ele><time>2026-03-29T09:11:03.952Z</time></trkpt><trkpt lat="45.8388817" lon="8.5726483"><ele>200.8</ele><time>2026-03-29T09:11:04.952Z</time></trkpt><trkpt lat="45.83897" lon="8.57274"><ele>200.4</ele><time>2026-03-29T09:11:05.952Z</time></trkpt><trkpt lat="45.839055" lon="8.5728283"><ele>200.0</ele><time>2026-03-29T09:11:06.952Z</time></trkpt><trkpt lat="45.8391433" lon="8.5729117"><ele>200.0</ele><time>2026-03-29T09:11:07.952Z</time></trkpt><trkpt lat="45.839235" lon="8.5730033"><ele>200.0</ele><time>2026-03-29T09:11:08.952Z</time></trkpt><trkpt lat="45.83933" lon="8.5730717"><ele>200.0</ele><time>2026-03-29T09:11:09.952Z</time></trkpt><trkpt lat="45.839425" lon="8.5731483"><ele>200.0</ele><time>2026-03-29T09:11:10.952Z</time></trkpt><trkpt lat="45.8395167" lon="8.5732283"><ele>200.0</ele><time>2026-03-29T09:11:11.951Z</time></trkpt><trkpt lat="45.8396183" lon="8.5732917"><ele>201.2</ele><time>2026-03-29T09:11:12.952Z</time></trkpt><trkpt lat="45.839715" lon="8.5733533"><ele>202.4</ele><time>2026-03-29T09:11:13.952Z</time></trkpt><trkpt lat="45.8398083" lon="8.5734017"><ele>203.60000000000002</ele><time>2026-03-29T09:11:14.952Z</time></trkpt><trkpt lat="45.8399017" lon="8.5734233"><ele>204.8</ele><time>2026-03-29T09:11:15.952Z</time></trkpt><trkpt lat="45.8399933" lon="8.573455"><ele>206.0</ele><time>2026-03-29T09:11:16.952Z</time></trkpt><trkpt lat="45.840105" lon="8.5734883"><ele>206.0</ele><time>2026-03-29T09:11:17.952Z</time></trkpt><trkpt lat="45.8402233" lon="8.5735167"><ele>208.0</ele><time>2026-03-29T09:11:18.952Z</time></trkpt></trkseg><trkseg><trkpt lat="45.8421567" lon="8.5733683"><ele>202.0</ele><time>2026-03-29T09:22:31.95Z</time></trkpt><trkpt lat="45.842265" lon="8.5733233"><ele>202.0</ele><time>2026-03-29T09:22:33.95Z</time></trkpt><trkpt lat="45.842365" lon="8.5732983"><ele>202.0</ele><time>2026-03-29T09:22:34.95Z</time></trkpt><trkpt lat="45.84247" lon="8.5732717"><ele>202.0</ele><time>2026-03-29T09:22:35.95Z</time></trkpt><trkpt lat="45.8425867" lon="8.5732383"><ele>202.0</ele><time>2026-03-29T09:22:36.95Z</time></trkpt><trkpt lat="45.8427133" lon="8.5731983"><ele>201.5</ele><time>2026-03-29T09:22:37.95Z</time></trkpt><trkpt lat="45.8428383" lon="8.5731683"><ele>201.0</ele><time>2026-03-29T09:22:38.95Z</time></trkpt><trkpt lat="45.842965" lon="8.5731217"><ele>200.5</ele><time>2026-03-29T09:22:39.95Z</time></trkpt><trkpt lat="45.8430983" lon="8.5730733"><ele>200.0</ele><time>2026-03-29T09:22:40.95Z</time></trkpt><trkpt lat="45.8433783" lon="8.5729517"><ele>199.0</ele><time>2026-03-29T09:22:42.95Z</time></trkpt><trkpt lat="45.843525" lon="8.5728683"><ele>198.0</ele><time>2026-03-29T09:22:43.95Z</time></trkpt><trkpt lat="45.843685" lon="8.5727967"><ele>197.0</ele><time>2026-03-29T09:22:44.95Z</time></trkpt><trkpt lat="45.8438433" lon="8.5727117"><ele>201.66666666666669</ele><time>2026-03-29T09:22:45.95Z</time></trkpt><trkpt lat="45.8439833" lon="8.5726483"><ele>206.33333333333331</ele><time>2026-03-29T09:22:46.95Z</time></trkpt><trkpt lat="45.8441317" lon="8.5725817"><ele>211.0</ele><time>2026-03-29T09:22:47.95Z</time></trkpt><trkpt lat="45.844275" lon="8.5725233"><ele>208.66666666666666</ele><time>2026-03-29T09:22:48.95Z</time></trkpt><trkpt lat="45.8444183" lon="8.5725"><ele>206.33333333333331</ele><time>2026-03-29T09:22:49.949Z</time></trkpt><trkpt lat="45.8445483" lon="8.5724917"><ele>204.0</ele><time>2026-03-29T09:22:50.95Z</time></trkpt><trkpt lat="45.84482" lon="8.5724683"><ele>204.0</ele><time>2026-03-29T09:22:52.95Z</time></trkpt><trkpt lat="45.8449367" lon="8.5724633"><ele>204.0</ele><time>2026-03-29T09:22:53.95Z</time></trkpt><trkpt lat="45.8450533" lon="8.5724517"><ele>204.0</ele><time>2026-03-29T09:22:54.95Z</time></trkpt><trkpt lat="45.8451883" lon="8.5724233"><ele>204.0</ele><time>2026-03-29T09:22:55.95Z</time></trkpt><trkpt lat="45.8453233" lon="8.5723533"><ele>204.0</ele><time>2026-03-29T09:22:56.95Z</time></trkpt><trkpt lat="45.8454683" lon="8.572275"><ele>204.0</ele><time>2026-03-29T09:22:57.95Z</time></trkpt><trkpt lat="45.8456333" lon="8.5722"><ele>204.0</ele><time>2026-03-29T09:22:58.95Z</time></trkpt><trkpt lat="45.8458117" lon="8.5720967"><ele>206.33333333333331</ele><time>2026-03-29T09:22:59.95Z</time></trkpt><trkpt lat="45.846005" lon="8.571995"><ele>208.66666666666666</ele><time>2026-03-29T09:23:00.95Z</time></trkpt><trkpt lat="45.8461867" lon="8.5718883"><ele>211.0</ele><time>2026-03-29T09:23:01.95Z</time></trkpt><trkpt lat="45.8463867" lon="8.5717683"><ele>211.0</ele><time>2026-03-29T09:23:02.95Z</time></trkpt><trkpt lat="45.8465933" lon="8.571645"><ele>211.0</ele><time>2026-03-29T09:23:03.95Z</time></trkpt><trkpt lat="45.84681" lon="8.5715283"><ele>210.0</ele><time>2026-03-29T09:23:04.95Z</time></trkpt><trkpt lat="45.8470283" lon="8.571415"><ele>209.0</ele><time>2026-03-29T09:23:05.949Z</time></trkpt><trkpt lat="45.847225" lon="8.571305"><ele>208.0</ele><time>2026-03-29T09:23:06.95Z</time></trkpt><trkpt lat="45.84741" lon="8.5712217"><ele>208.33333333333331</ele><time>2026-03-29T09:23:07.949Z</time></trkpt><trkpt lat="45.8475733" lon="8.571135"><ele>208.66666666666669</ele><time>2026-03-29T09:23:08.95Z</time></trkpt><trkpt lat="45.8477433" lon="8.5710667"><ele>209.0</ele><time>2026-03-29T09:23:09.95Z</time></trkpt><trkpt lat="45.8479267" lon="8.5710033"><ele>209.0</ele><time>2026-03-29T09:23:10.95Z</time></trkpt><trkpt lat="45.8481067" lon="8.5709567"><ele>209.0</ele><time>2026-03-29T09:23:11.95Z</time></trkpt><trkpt lat="45.8483183" lon="8.570925"><ele>209.0</ele><time>2026-03-29T09:23:12.95Z</time></trkpt><trkpt lat="45.8485417" lon="8.5708917"><ele>207.66666666666669</ele><time>2026-03-29T09:23:13.95Z</time></trkpt><trkpt lat="45.8487717" lon="8.570855"><ele>206.33333333333331</ele><time>2026-03-29T09:23:14.95Z</time></trkpt><trkpt lat="45.8489867" lon="8.5708083"><ele>205.0</ele><time>2026-03-29T09:23:15.95Z</time></trkpt><trkpt lat="45.84919" lon="8.5707333"><ele>203.33333333333331</ele><time>2026-03-29T09:23:16.95Z</time></trkpt><trkpt lat="45.8493883" lon="8.5706433"><ele>201.66666666666669</ele><time>2026-03-29T09:23:17.95Z</time></trkpt><trkpt lat="45.84958" lon="8.5705367"><ele>200.0</ele><time>2026-03-29T09:23:18.949Z</time></trkpt><trkpt lat="45.8497767" lon="8.5704183"><ele>202.0</ele><time>2026-03-29T09:23:19.95Z</time></trkpt><trkpt lat="45.8499833" lon="8.570305"><ele>204.0</ele><time>2026-03-29T09:23:20.95Z</time></trkpt><trkpt lat="45.850195" lon="8.5701917"><ele>206.0</ele><time>2026-03-29T09:23:21.949Z</time></trkpt><trkpt lat="45.8504017" lon="8.5700683"><ele>206.0</ele><time>2026-03-29T09:23:22.95Z</time></trkpt><trkpt lat="45.8506133" lon="8.569955"><ele>206.0</ele><time>2026-03-29T09:23:23.95Z</time></trkpt><trkpt lat="45.8507983" lon="8.5699033"><ele>206.0</ele><time>2026-03-29T09:23:24.95Z</time></trkpt><trkpt lat="45.8509867" lon="8.5698617"><ele>204.66666666666669</ele><time>2026-03-29T09:23:25.95Z</time></trkpt><trkpt lat="45.8511817" lon="8.5698417"><ele>203.33333333333331</ele><time>2026-03-29T09:23:26.95Z</time></trkpt><trkpt lat="45.8513917" lon="8.5698267"><ele>202.0</ele><time>2026-03-29T09:23:27.95Z</time></trkpt><trkpt lat="45.851605" lon="8.569815"><ele>200.5</ele><time>2026-03-29T09:23:28.95Z</time></trkpt><trkpt lat="45.8518317" lon="8.56981"><ele>199.0</ele><time>2026-03-29T09:23:29.95Z</time></trkpt><trkpt lat="45.852065" lon="8.5697817"><ele>199.0</ele><time>2026-03-29T09:23:30.95Z</time></trkpt><trkpt lat="45.85229" lon="8.5697333"><ele>199.0</ele><time>2026-03-29T09:23:31.949Z</time></trkpt><trkpt lat="45.85252" lon="8.5696817"><ele>199.5</ele><time>2026-03-29T09:23:32.95Z</time></trkpt><trkpt lat="45.8527467" lon="8.56962"><ele>200.0</ele><time>2026-03-29T09:23:33.95Z</time></trkpt><trkpt lat="45.8529833" lon="8.5695733"><ele>200.0</ele><time>2026-03-29T09:23:34.95Z</time></trkpt><trkpt lat="45.8532233" lon="8.5695317"><ele>200.0</ele><time>2026-03-29T09:23:35.949Z</time></trkpt><trkpt lat="45.8534583" lon="8.56948"><ele>205.0</ele><time>2026-03-29T09:23:36.95Z</time></trkpt><trkpt lat="45.8537017" lon="8.56942"><ele>210.0</ele><time>2026-03-29T09:23:37.95Z</time></trkpt><trkpt lat="45.8539433" lon="8.56934"><ele>210.0</ele><time>2026-03-29T09:23:38.95Z</time></trkpt><trkpt lat="45.8541733" lon="8.5692617"><ele>210.0</ele><time>2026-03-29T09:23:39.95Z</time></trkpt><trkpt lat="45.8543833" lon="8.5691933"><ele>207.0</ele><time>2026-03-29T09:23:40.95Z</time></trkpt><trkpt lat="45.8545733" lon="8.569135"><ele>204.0</ele><time>2026-03-29T09:23:41.95Z</time></trkpt><trkpt lat="45.8547317" lon="8.56908"><ele>201.0</ele><time>2026-03-29T09:23:42.95Z</time></trkpt><trkpt lat="45.854865" lon="8.56904"><ele>201.0</ele><time>2026-03-29T09:23:43.95Z</time></trkpt><trkpt lat="45.8549983" lon="8.56898"><ele>201.0</ele><time>2026-03-29T09:23:44.95Z</time></trkpt><trkpt lat="45.8551617" lon="8.5689217"><ele>201.0</ele><time>2026-03-29T09:23:45.95Z</time></trkpt><trkpt lat="45.8553317" lon="8.568865"><ele>201.33333333333331</ele><time>2026-03-29T09:23:46.95Z</time></trkpt><trkpt lat="45.8555167" lon="8.5688"><ele>201.66666666666666</ele><time>2026-03-29T09:23:47.95Z</time></trkpt><trkpt lat="45.8557133" lon="8.5687333"><ele>202.0</ele><time>2026-03-29T09:23:48.95Z</time></trkpt><trkpt lat="45.855905" lon="8.56867"><ele>205.33333333333331</ele><time>2026-03-29T09:23:49.95Z</time></trkpt><trkpt lat="45.856105" lon="8.568605"><ele>208.66666666666669</ele><time>2026-03-29T09:23:50.95Z</time></trkpt><trkpt lat="45.856305" lon="8.5685417"><ele>212.0</ele><time>2026-03-29T09:23:51.95Z</time></trkpt><trkpt lat="45.8565217" lon="8.5684767"><ele>212.0</ele><time>2026-03-29T09:23:52.95Z</time></trkpt><trkpt lat="45.8567333" lon="8.5684267"><ele>212.0</ele><time>2026-03-29T09:23:53.95Z</time></trkpt><trkpt lat="45.856965" lon="8.56839"><ele>212.0</ele><time>2026-03-29T09:23:54.95Z</time></trkpt><trkpt lat="45.8571917" lon="8.5683833"><ele>211.5</ele><time>2026-03-29T09:23:55.95Z</time></trkpt><trkpt lat="45.8574183" lon="8.5683583"><ele>211.0</ele><time>2026-03-29T09:23:56.95Z</time></trkpt><trkpt lat="45.8576467" lon="8.5683267"><ele>209.0</ele><time>2026-03-29T09:23:57.95Z</time></trkpt><trkpt lat="45.85787" lon="8.5683033"><ele>207.0</ele><time>2026-03-29T09:23:58.95Z</time></trkpt><trkpt lat="45.8580983" lon="8.5682817"><ele>207.0</ele><time>2026-03-29T09:23:59.95Z</time></trkpt><trkpt lat="45.85834" lon="8.5682483"><ele>207.0</ele><time>2026-03-29T09:24:00.95Z</time></trkpt><trkpt lat="45.8585867" lon="8.56822"><ele>203.5</ele><time>2026-03-29T09:24:01.95Z</time></trkpt><trkpt lat="45.858835" lon="8.568185"><ele>200.0</ele><time>2026-03-29T09:24:02.95Z</time></trkpt><trkpt lat="45.8590783" lon="8.5681217"><ele>199.5</ele><time>2026-03-29T09:24:03.95Z</time></trkpt><trkpt lat="45.8593167" lon="8.5680483"><ele>199.0</ele><time>2026-03-29T09:24:04.95Z</time></trkpt><trkpt lat="45.8595633" lon="8.5679683"><ele>199.0</ele><time>2026-03-29T09:24:05.95Z</time></trkpt><trkpt lat="45.859815" lon="8.56789"><ele>199.0</ele><time>2026-03-29T09:24:06.949Z</time></trkpt><trkpt lat="45.8600683" lon="8.5678217"><ele>203.5</ele><time>2026-03-29T09:24:07.95Z</time></trkpt><trkpt lat="45.8603217" lon="8.567755"><ele>208.0</ele><time>2026-03-29T09:24:08.95Z</time></trkpt><trkpt lat="45.8605783" lon="8.567695"><ele>208.0</ele><time>2026-03-29T09:24:09.949Z</time></trkpt><trkpt lat="45.8608183" lon="8.5676283"><ele>208.0</ele><time>2026-03-29T09:24:10.949Z</time></trkpt><trkpt lat="45.86104" lon="8.5675717"><ele>207.0</ele><time>2026-03-29T09:24:11.95Z</time></trkpt><trkpt lat="45.86125" lon="8.567515"><ele>206.0</ele><time>2026-03-29T09:24:12.95Z</time></trkpt><trkpt lat="45.8614533" lon="8.5674783"><ele>205.0</ele><time>2026-03-29T09:24:13.95Z</time></trkpt><trkpt lat="45.8616417" lon="8.5674533"><ele>204.5</ele><time>2026-03-29T09:24:14.95Z</time></trkpt><trkpt lat="45.8618" lon="8.5674417"><ele>204.0</ele><time>2026-03-29T09:24:15.949Z</time></trkpt><trkpt lat="45.8619517" lon="8.5674333"><ele>203.5</ele><time>2026-03-29T09:24:16.95Z</time></trkpt><trkpt lat="45.862085" lon="8.5674433"><ele>203.0</ele><time>2026-03-29T09:24:17.95Z</time></trkpt><trkpt lat="45.8622067" lon="8.56744"><ele>203.0</ele><time>2026-03-29T09:24:18.949Z</time></trkpt><trkpt lat="45.8623117" lon="8.56744"><ele>203.0</ele><time>2026-03-29T09:24:19.95Z</time></trkpt><trkpt lat="45.8624133" lon="8.56744"><ele>203.0</ele><time>2026-03-29T09:24:20.95Z</time></trkpt><trkpt lat="45.8625217" lon="8.5674333"><ele>203.0</ele><time>2026-03-29T09:24:21.95Z</time></trkpt><trkpt lat="45.8626483" lon="8.567425"><ele>203.0</ele><time>2026-03-29T09:24:22.95Z</time></trkpt><trkpt lat="45.862795" lon="8.567405"><ele>202.66666666666669</ele><time>2026-03-29T09:24:23.95Z</time></trkpt><trkpt lat="45.8629683" lon="8.5673817"><ele>202.33333333333331</ele><time>2026-03-29T09:24:24.95Z</time></trkpt><trkpt lat="45.8631583" lon="8.5673517"><ele>202.0</ele><time>2026-03-29T09:24:25.95Z</time></trkpt><trkpt lat="45.8633633" lon="8.5673317"><ele>201.33333333333331</ele><time>2026-03-29T09:24:26.949Z</time></trkpt><trkpt lat="45.8635817" lon="8.567315"><ele>200.66666666666669</ele><time>2026-03-29T09:24:27.95Z</time></trkpt><trkpt lat="45.8637983" lon="8.5673083"><ele>200.0</ele><time>2026-03-29T09:24:28.949Z</time></trkpt><trkpt lat="45.8640183" lon="8.5673017"><ele>200.0</ele><time>2026-03-29T09:24:29.95Z</time></trkpt><trkpt lat="45.8642467" lon="8.5672817"><ele>200.0</ele><time>2026-03-29T09:24:30.95Z</time></trkpt><trkpt lat="45.8644633" lon="8.5672617"><ele>200.0</ele><time>2026-03-29T09:24:31.95Z</time></trkpt><trkpt lat="45.864675" lon="8.5672333"><ele>201.0</ele><time>2026-03-29T09:24:32.948Z</time></trkpt><trkpt lat="45.8648833" lon="8.5671633"><ele>202.0</ele><time>2026-03-29T09:24:33.949Z</time></trkpt><trkpt lat="45.8650967" lon="8.5670567"><ele>203.0</ele><time>2026-03-29T09:24:34.949Z</time></trkpt><trkpt lat="45.8652883" lon="8.5669367"><ele>203.0</ele><time>2026-03-29T09:24:35.949Z</time></trkpt><trkpt lat="45.8654917" lon="8.5668083"><ele>203.0</ele><time>2026-03-29T09:24:36.949Z</time></trkpt><trkpt lat="45.8656967" lon="8.5666583"><ele>203.0</ele><time>2026-03-29T09:24:37.949Z</time></trkpt><trkpt lat="45.865905" lon="8.5665"><ele>203.0</ele><time>2026-03-29T09:24:38.949Z</time></trkpt><trkpt lat="45.866115" lon="8.5663483"><ele>204.0</ele><time>2026-03-29T09:24:39.949Z</time></trkpt><trkpt lat="45.8663133" lon="8.566215"><ele>205.0</ele><time>2026-03-29T09:24:40.949Z</time></trkpt><trkpt lat="45.8664867" lon="8.5660883"><ele>206.0</ele><time>2026-03-29T09:24:41.949Z</time></trkpt><trkpt lat="45.866655" lon="8.565985"><ele>205.33333333333334</ele><time>2026-03-29T09:24:42.949Z</time></trkpt><trkpt lat="45.866825" lon="8.5658833"><ele>204.66666666666669</ele><time>2026-03-29T09:24:43.949Z</time></trkpt><trkpt lat="45.867" lon="8.5657933"><ele>204.0</ele><time>2026-03-29T09:24:44.949Z</time></trkpt><trkpt lat="45.8671783" lon="8.5657067"><ele>204.0</ele><time>2026-03-29T09:24:45.949Z</time></trkpt><trkpt lat="45.8673733" lon="8.5656283"><ele>204.0</ele><time>2026-03-29T09:24:46.949Z</time></trkpt><trkpt lat="45.8675867" lon="8.565555"><ele>204.0</ele><time>2026-03-29T09:24:47.949Z</time></trkpt><trkpt lat="45.8678" lon="8.5654867"><ele>205.5</ele><time>2026-03-29T09:24:48.949Z</time></trkpt><trkpt lat="45.8680117" lon="8.5654067"><ele>207.0</ele><time>2026-03-29T09:24:49.949Z</time></trkpt><trkpt lat="45.8682417" lon="8.565325"><ele>208.5</ele><time>2026-03-29T09:24:50.949Z</time></trkpt><trkpt lat="45.8684733" lon="8.56524"><ele>210.0</ele><time>2026-03-29T09:24:51.949Z</time></trkpt><trkpt lat="45.8686983" lon="8.5651483"><ele>210.0</ele><time>2026-03-29T09:24:52.949Z</time></trkpt><trkpt lat="45.868925" lon="8.56507"><ele>210.0</ele><time>2026-03-29T09:24:53.948Z</time></trkpt><trkpt lat="45.869145" lon="8.565"><ele>203.5</ele><time>2026-03-29T09:24:54.949Z</time></trkpt><trkpt lat="45.86938" lon="8.5648933"><ele>197.0</ele><time>2026-03-29T09:24:55.949Z</time></trkpt><trkpt lat="45.8696033" lon="8.5648017"><ele>197.0</ele><time>2026-03-29T09:24:56.949Z</time></trkpt><trkpt lat="45.8698367" lon="8.56468"><ele>197.0</ele><time>2026-03-29T09:24:57.949Z</time></trkpt><trkpt lat="45.8700533" lon="8.5645833"><ele>198.66666666666669</ele><time>2026-03-29T09:24:58.949Z</time></trkpt><trkpt lat="45.87027" lon="8.564495"><ele>200.33333333333331</ele><time>2026-03-29T09:24:59.949Z</time></trkpt><trkpt lat="45.870475" lon="8.5643917"><ele>202.0</ele><time>2026-03-29T09:25:00.949Z</time></trkpt><trkpt lat="45.870695" lon="8.5642817"><ele>202.0</ele><time>2026-03-29T09:25:01.949Z</time></trkpt><trkpt lat="45.8708683" lon="8.5641767"><ele>202.0</ele><time>2026-03-29T09:25:02.949Z</time></trkpt><trkpt lat="45.8710367" lon="8.5640567"><ele>202.0</ele><time>2026-03-29T09:25:03.949Z</time></trkpt><trkpt lat="45.8711933" lon="8.5638983"><ele>201.66666666666666</ele><time>2026-03-29T09:25:04.949Z</time></trkpt><trkpt lat="45.8713317" lon="8.56371"><ele>201.33333333333331</ele><time>2026-03-29T09:25:05.948Z</time></trkpt><trkpt lat="45.8714683" lon="8.56349"><ele>201.0</ele><time>2026-03-29T09:25:06.949Z</time></trkpt><trkpt lat="45.8716167" lon="8.563275"><ele>198.66666666666669</ele><time>2026-03-29T09:25:07.949Z</time></trkpt><trkpt lat="45.8717767" lon="8.5630933"><ele>196.33333333333334</ele><time>2026-03-29T09:25:08.949Z</time></trkpt><trkpt lat="45.8719533" lon="8.56298"><ele>194.0</ele><time>2026-03-29T09:25:09.949Z</time></trkpt><trkpt lat="45.87214" lon="8.56289"><ele>195.33333333333334</ele><time>2026-03-29T09:25:10.949Z</time></trkpt><trkpt lat="45.872345" lon="8.5627933"><ele>196.66666666666669</ele><time>2026-03-29T09:25:11.949Z</time></trkpt><trkpt lat="45.8725533" lon="8.5626867"><ele>198.0</ele><time>2026-03-29T09:25:12.949Z</time></trkpt><trkpt lat="45.8727617" lon="8.562565"><ele>198.0</ele><time>2026-03-29T09:25:13.948Z</time></trkpt><trkpt lat="45.8729683" lon="8.5624333"><ele>198.0</ele><time>2026-03-29T09:25:14.949Z</time></trkpt><trkpt lat="45.8731617" lon="8.56229"><ele>198.0</ele><time>2026-03-29T09:25:15.949Z</time></trkpt><trkpt lat="45.873335" lon="8.5620967"><ele>199.0</ele><time>2026-03-29T09:25:16.949Z</time></trkpt><trkpt lat="45.8735033" lon="8.5618867"><ele>200.0</ele><time>2026-03-29T09:25:17.949Z</time></trkpt><trkpt lat="45.87365" lon="8.56164"><ele>201.0</ele><time>2026-03-29T09:25:18.949Z</time></trkpt><trkpt lat="45.8737967" lon="8.5614"><ele>208.0</ele><time>2026-03-29T09:25:19.949Z</time></trkpt><trkpt lat="45.8739633" lon="8.5611767"><ele>215.0</ele><time>2026-03-29T09:25:20.949Z</time></trkpt><trkpt lat="45.8741533" lon="8.5609767"><ele>205.0</ele><time>2026-03-29T09:25:21.949Z</time></trkpt><trkpt lat="45.8743517" lon="8.560775"><ele>195.0</ele><time>2026-03-29T09:25:22.949Z</time></trkpt><trkpt lat="45.874555" lon="8.5605783"><ele>195.0</ele><time>2026-03-29T09:25:23.949Z</time></trkpt><trkpt lat="45.87476" lon="8.5603783"><ele>195.0</ele><time>2026-03-29T09:25:24.949Z</time></trkpt><trkpt lat="45.8749733" lon="8.56018"><ele>196.5</ele><time>2026-03-29T09:25:25.949Z</time></trkpt><trkpt lat="45.87519" lon="8.5599817"><ele>198.0</ele><time>2026-03-29T09:25:26.949Z</time></trkpt><trkpt lat="45.8753983" lon="8.5597633"><ele>198.0</ele><time>2026-03-29T09:25:27.949Z</time></trkpt><trkpt lat="45.8756217" lon="8.559565"><ele>198.0</ele><time>2026-03-29T09:25:28.949Z</time></trkpt><trkpt lat="45.8758383" lon="8.5593667"><ele>199.0</ele><time>2026-03-29T09:25:29.949Z</time></trkpt><trkpt lat="45.87605" lon="8.559155"><ele>200.0</ele><time>2026-03-29T09:25:30.949Z</time></trkpt><trkpt lat="45.8762667" lon="8.5589417"><ele>200.0</ele><time>2026-03-29T09:25:31.949Z</time></trkpt><trkpt lat="45.8764917" lon="8.5587333"><ele>200.0</ele><time>2026-03-29T09:25:32.949Z</time></trkpt><trkpt lat="45.8767083" lon="8.5585183"><ele>199.5</ele><time>2026-03-29T09:25:33.949Z</time></trkpt><trkpt lat="45.8769317" lon="8.558325"><ele>199.0</ele><time>2026-03-29T09:25:34.949Z</time></trkpt><trkpt lat="45.8771483" lon="8.5581017"><ele>205.0</ele><time>2026-03-29T09:25:35.949Z</time></trkpt><trkpt lat="45.87734" lon="8.557865"><ele>211.0</ele><time>2026-03-29T09:25:36.949Z</time></trkpt><trkpt lat="45.8775033" lon="8.5576267"><ele>207.66666666666666</ele><time>2026-03-29T09:25:37.949Z</time></trkpt><trkpt lat="45.877655" lon="8.5574017"><ele>204.33333333333331</ele><time>2026-03-29T09:25:38.949Z</time></trkpt><trkpt lat="45.8777967" lon="8.557185"><ele>201.0</ele><time>2026-03-29T09:25:39.949Z</time></trkpt><trkpt lat="45.877925" lon="8.556975"><ele>201.0</ele><time>2026-03-29T09:25:40.949Z</time></trkpt><trkpt lat="45.87805" lon="8.5567883"><ele>201.0</ele><time>2026-03-29T09:25:41.949Z</time></trkpt><trkpt lat="45.8781817" lon="8.5566183"><ele>201.0</ele><time>2026-03-29T09:25:42.949Z</time></trkpt><trkpt lat="45.8783067" lon="8.5564633"><ele>201.0</ele><time>2026-03-29T09:25:43.949Z</time></trkpt><trkpt lat="45.87842" lon="8.556325"><ele>201.0</ele><time>2026-03-29T09:25:44.949Z</time></trkpt><trkpt lat="45.878545" lon="8.5561983"><ele>201.0</ele><time>2026-03-29T09:25:45.949Z</time></trkpt><trkpt lat="45.8786733" lon="8.55606"><ele>200.33333333333331</ele><time>2026-03-29T09:25:46.949Z</time></trkpt><trkpt lat="45.8788083" lon="8.5559233"><ele>199.66666666666666</ele><time>2026-03-29T09:25:47.949Z</time></trkpt><trkpt lat="45.87894" lon="8.5557667"><ele>199.0</ele><time>2026-03-29T09:25:48.949Z</time></trkpt><trkpt lat="45.8790783" lon="8.55561"><ele>199.0</ele><time>2026-03-29T09:25:49.949Z</time></trkpt><trkpt lat="45.8791867" lon="8.5554267"><ele>199.0</ele><time>2026-03-29T09:25:50.949Z</time></trkpt><trkpt lat="45.87928" lon="8.5552083"><ele>199.0</ele><time>2026-03-29T09:25:51.949Z</time></trkpt><trkpt lat="45.87937" lon="8.5549767"><ele>199.66666666666666</ele><time>2026-03-29T09:25:52.949Z</time></trkpt><trkpt lat="45.8794667" lon="8.5547433"><ele>200.33333333333331</ele><time>2026-03-29T09:25:53.949Z</time></trkpt><trkpt lat="45.8795683" lon="8.5545167"><ele>201.0</ele><time>2026-03-29T09:25:54.949Z</time></trkpt><trkpt lat="45.8796767" lon="8.5542967"><ele>201.0</ele><time>2026-03-29T09:25:55.949Z</time></trkpt><trkpt lat="45.8798" lon="8.5540967"><ele>201.0</ele><time>2026-03-29T09:25:56.948Z</time></trkpt><trkpt lat="45.8799233" lon="8.5538917"><ele>201.0</ele><time>2026-03-29T09:25:57.949Z</time></trkpt><trkpt lat="45.8800417" lon="8.5536833"><ele>197.66666666666666</ele><time>2026-03-29T09:25:58.949Z</time></trkpt><trkpt lat="45.8801633" lon="8.55347"><ele>194.33333333333331</ele><time>2026-03-29T09:25:59.949Z</time></trkpt><trkpt lat="45.88028" lon="8.5532567"><ele>191.0</ele><time>2026-03-29T09:26:00.949Z</time></trkpt><trkpt lat="45.8804067" lon="8.5530467"><ele>194.33333333333331</ele><time>2026-03-29T09:26:01.949Z</time></trkpt><trkpt lat="45.8805333" lon="8.5528483"><ele>197.66666666666666</ele><time>2026-03-29T09:26:02.949Z</time></trkpt><trkpt lat="45.8806483" lon="8.552645"><ele>201.0</ele><time>2026-03-29T09:26:03.948Z</time></trkpt><trkpt lat="45.8807483" lon="8.552445"><ele>201.0</ele><time>2026-03-29T09:26:04.948Z</time></trkpt><trkpt lat="45.880825" lon="8.552255"><ele>201.0</ele><time>2026-03-29T09:26:05.948Z</time></trkpt><trkpt lat="45.880875" lon="8.5520367"><ele>201.0</ele><time>2026-03-29T09:26:06.949Z</time></trkpt><trkpt lat="45.8809117" lon="8.55182"><ele>198.75</ele><time>2026-03-29T09:26:07.949Z</time></trkpt><trkpt lat="45.880945" lon="8.5516083"><ele>196.5</ele><time>2026-03-29T09:26:08.948Z</time></trkpt><trkpt lat="45.8809717" lon="8.5514133"><ele>194.25</ele><time>2026-03-29T09:26:09.949Z</time></trkpt><trkpt lat="45.880995" lon="8.551235"><ele>192.0</ele><time>2026-03-29T09:26:10.949Z</time></trkpt><trkpt lat="45.88103" lon="8.551045"><ele>192.0</ele><time>2026-03-29T09:26:11.949Z</time></trkpt><trkpt lat="45.8810617" lon="8.55086"><ele>192.0</ele><time>2026-03-29T09:26:12.949Z</time></trkpt><trkpt lat="45.8810983" lon="8.5506717"><ele>192.0</ele><time>2026-03-29T09:26:13.948Z</time></trkpt><trkpt lat="45.88114" lon="8.5504667"><ele>192.0</ele><time>2026-03-29T09:26:14.949Z</time></trkpt><trkpt lat="45.881185" lon="8.5502433"><ele>193.0</ele><time>2026-03-29T09:26:15.949Z</time></trkpt><trkpt lat="45.8812333" lon="8.5500267"><ele>194.0</ele><time>2026-03-29T09:26:16.949Z</time></trkpt><trkpt lat="45.88129" lon="8.5498133"><ele>195.0</ele><time>2026-03-29T09:26:17.949Z</time></trkpt><trkpt lat="45.8813467" lon="8.54961"><ele>198.0</ele><time>2026-03-29T09:26:18.949Z</time></trkpt><trkpt lat="45.8814233" lon="8.549395"><ele>201.0</ele><time>2026-03-29T09:26:19.948Z</time></trkpt><trkpt lat="45.8815083" lon="8.5491683"><ele>204.0</ele><time>2026-03-29T09:26:20.949Z</time></trkpt><trkpt lat="45.8816083" lon="8.5489633"><ele>204.0</ele><time>2026-03-29T09:26:21.949Z</time></trkpt><trkpt lat="45.8817" lon="8.5487483"><ele>204.0</ele><time>2026-03-29T09:26:22.949Z</time></trkpt><trkpt lat="45.8818017" lon="8.5485317"><ele>204.0</ele><time>2026-03-29T09:26:23.949Z</time></trkpt><trkpt lat="45.881905" lon="8.5483067"><ele>203.0</ele><time>2026-03-29T09:26:24.949Z</time></trkpt><trkpt lat="45.881995" lon="8.5480933"><ele>202.0</ele><time>2026-03-29T09:26:25.948Z</time></trkpt><trkpt lat="45.88209" lon="8.5478983"><ele>201.0</ele><time>2026-03-29T09:26:26.949Z</time></trkpt><trkpt lat="45.8821733" lon="8.5477217"><ele>201.0</ele><time>2026-03-29T09:26:27.948Z</time></trkpt><trkpt lat="45.8822383" lon="8.5475733"><ele>201.0</ele><time>2026-03-29T09:26:28.949Z</time></trkpt><trkpt lat="45.8822983" lon="8.5474433"><ele>201.0</ele><time>2026-03-29T09:26:29.949Z</time></trkpt><trkpt lat="45.8823517" lon="8.5473267"><ele>201.0</ele><time>2026-03-29T09:26:30.949Z</time></trkpt><trkpt lat="45.882415" lon="8.5471983"><ele>201.0</ele><time>2026-03-29T09:26:31.949Z</time></trkpt><trkpt lat="45.8824833" lon="8.5470733"><ele>199.60000000000002</ele><time>2026-03-29T09:26:32.949Z</time></trkpt><trkpt lat="45.88255" lon="8.5469483"><ele>198.2</ele><time>2026-03-29T09:26:33.949Z</time></trkpt><trkpt lat="45.882625" lon="8.5468383"><ele>196.8</ele><time>2026-03-29T09:26:34.949Z</time></trkpt><trkpt lat="45.8826917" lon="8.54674"><ele>195.39999999999998</ele><time>2026-03-29T09:26:35.948Z</time></trkpt><trkpt lat="45.8827517" lon="8.5466367"><ele>194.0</ele><time>2026-03-29T09:26:36.948Z</time></trkpt><trkpt lat="45.88282" lon="8.5465217"><ele>194.0</ele><time>2026-03-29T09:26:37.949Z</time></trkpt><trkpt lat="45.8828767" lon="8.5463917"><ele>194.0</ele><time>2026-03-29T09:26:38.949Z</time></trkpt><trkpt lat="45.882925" lon="8.5462633"><ele>194.0</ele><time>2026-03-29T09:26:39.949Z</time></trkpt><trkpt lat="45.8829583" lon="8.5461267"><ele>194.0</ele><time>2026-03-29T09:26:40.949Z</time></trkpt><trkpt lat="45.8829817" lon="8.5459733"><ele>194.0</ele><time>2026-03-29T09:26:41.949Z</time></trkpt><trkpt lat="45.8830033" lon="8.545795"><ele>195.0</ele><time>2026-03-29T09:26:42.949Z</time></trkpt><trkpt lat="45.883035" lon="8.5455933"><ele>196.0</ele><time>2026-03-29T09:26:43.949Z</time></trkpt><trkpt lat="45.8830583" lon="8.5453583"><ele>197.0</ele><time>2026-03-29T09:26:44.949Z</time></trkpt><trkpt lat="45.883085" lon="8.54511"><ele>197.0</ele><time>2026-03-29T09:26:45.949Z</time></trkpt><trkpt lat="45.8831167" lon="8.544855"><ele>197.0</ele><time>2026-03-29T09:26:46.949Z</time></trkpt><trkpt lat="45.8831467" lon="8.5446017"><ele>197.0</ele><time>2026-03-29T09:26:47.949Z</time></trkpt><trkpt lat="45.8831817" lon="8.5443633"><ele>197.66666666666669</ele><time>2026-03-29T09:26:48.949Z</time></trkpt><trkpt lat="45.8832117" lon="8.544115"><ele>198.33333333333331</ele><time>2026-03-29T09:26:49.949Z</time></trkpt><trkpt lat="45.88324" lon="8.5438917"><ele>199.0</ele><time>2026-03-29T09:26:50.949Z</time></trkpt><trkpt lat="45.8832617" lon="8.5436883"><ele>199.75</ele><time>2026-03-29T09:26:51.948Z</time></trkpt><trkpt lat="45.8832817" lon="8.5434883"><ele>200.5</ele><time>2026-03-29T09:26:52.949Z</time></trkpt><trkpt lat="45.8833117" lon="8.5433067"><ele>201.25</ele><time>2026-03-29T09:26:53.949Z</time></trkpt><trkpt lat="45.8833383" lon="8.54314"><ele>202.0</ele><time>2026-03-29T09:26:54.949Z</time></trkpt><trkpt lat="45.88337" lon="8.5429967"><ele>203.2</ele><time>2026-03-29T09:26:55.949Z</time></trkpt><trkpt lat="45.8834" lon="8.5428517"><ele>204.39999999999998</ele><time>2026-03-29T09:26:56.949Z</time></trkpt><trkpt lat="45.883445" lon="8.5427383"><ele>205.60000000000002</ele><time>2026-03-29T09:26:57.949Z</time></trkpt><trkpt lat="45.8835" lon="8.5426017"><ele>206.8</ele><time>2026-03-29T09:26:58.949Z</time></trkpt><trkpt lat="45.8835633" lon="8.5424517"><ele>208.0</ele><time>2026-03-29T09:26:59.949Z</time></trkpt><trkpt lat="45.8836217" lon="8.5423133"><ele>206.83333333333331</ele><time>2026-03-29T09:27:00.949Z</time></trkpt><trkpt lat="45.8836783" lon="8.5421833"><ele>205.66666666666666</ele><time>2026-03-29T09:27:01.949Z</time></trkpt><trkpt lat="45.8837267" lon="8.5420633"><ele>204.5</ele><time>2026-03-29T09:27:02.949Z</time></trkpt><trkpt lat="45.8837717" lon="8.541955"><ele>203.33333333333331</ele><time>2026-03-29T09:27:03.949Z</time></trkpt><trkpt lat="45.8838167" lon="8.5418583"><ele>202.16666666666666</ele><time>2026-03-29T09:27:04.949Z</time></trkpt><trkpt lat="45.8838567" lon="8.541765"><ele>201.0</ele><time>2026-03-29T09:27:05.949Z</time></trkpt><trkpt lat="45.8838983" lon="8.5416767"><ele>201.0</ele><time>2026-03-29T09:27:06.949Z</time></trkpt><trkpt lat="45.8839317" lon="8.5415817"><ele>201.0</ele><time>2026-03-29T09:27:07.948Z</time></trkpt><trkpt lat="45.883965" lon="8.5414867"><ele>201.0</ele><time>2026-03-29T09:27:08.949Z</time></trkpt><trkpt lat="45.8840033" lon="8.5413833"><ele>201.0</ele><time>2026-03-29T09:27:09.949Z</time></trkpt><trkpt lat="45.8840533" lon="8.5412767"><ele>201.0</ele><time>2026-03-29T09:27:10.948Z</time></trkpt><trkpt lat="45.8841067" lon="8.5411517"><ele>201.0</ele><time>2026-03-29T09:27:11.948Z</time></trkpt><trkpt lat="45.8841633" lon="8.5410267"><ele>200.4</ele><time>2026-03-29T09:27:12.949Z</time></trkpt><trkpt lat="45.8842133" lon="8.5409067"><ele>199.8</ele><time>2026-03-29T09:27:13.949Z</time></trkpt><trkpt lat="45.8842583" lon="8.5407967"><ele>199.20000000000002</ele><time>2026-03-29T09:27:14.949Z</time></trkpt><trkpt lat="45.884305" lon="8.5406783"><ele>198.60000000000002</ele><time>2026-03-29T09:27:15.948Z</time></trkpt><trkpt lat="45.88435" lon="8.5405517"><ele>198.0</ele><time>2026-03-29T09:27:16.949Z</time></trkpt><trkpt lat="45.8843883" lon="8.5404133"><ele>198.4</ele><time>2026-03-29T09:27:17.949Z</time></trkpt><trkpt lat="45.8844333" lon="8.54028"><ele>198.8</ele><time>2026-03-29T09:27:18.949Z</time></trkpt><trkpt lat="45.88448" lon="8.54016"><ele>199.2</ele><time>2026-03-29T09:27:19.949Z</time></trkpt><trkpt lat="45.884525" lon="8.540035"><ele>199.6</ele><time>2026-03-29T09:27:20.949Z</time></trkpt><trkpt lat="45.88456" lon="8.5399083"><ele>200.0</ele><time>2026-03-29T09:27:21.949Z</time></trkpt><trkpt lat="45.88459" lon="8.5397717"><ele>200.0</ele><time>2026-03-29T09:27:22.949Z</time></trkpt><trkpt lat="45.884625" lon="8.5396433"><ele>200.0</ele><time>2026-03-29T09:27:23.949Z</time></trkpt><trkpt lat="45.8846617" lon="8.539515"><ele>200.0</ele><time>2026-03-29T09:27:24.949Z</time></trkpt><trkpt lat="45.8847017" lon="8.5393733"><ele>200.0</ele><time>2026-03-29T09:27:25.949Z</time></trkpt><trkpt lat="45.8847383" lon="8.53921"><ele>200.0</ele><time>2026-03-29T09:27:26.949Z</time></trkpt><trkpt lat="45.88479" lon="8.53906"><ele>200.25</ele><time>2026-03-29T09:27:27.949Z</time></trkpt><trkpt lat="45.884845" lon="8.5389"><ele>200.5</ele><time>2026-03-29T09:27:28.948Z</time></trkpt><trkpt lat="45.8848967" lon="8.53875"><ele>200.75</ele><time>2026-03-29T09:27:29.949Z</time></trkpt><trkpt lat="45.884945" lon="8.5386"><ele>201.0</ele><time>2026-03-29T09:27:30.949Z</time></trkpt><trkpt lat="45.8849917" lon="8.5384417"><ele>201.5</ele><time>2026-03-29T09:27:31.949Z</time></trkpt><trkpt lat="45.885035" lon="8.53828"><ele>202.0</ele><time>2026-03-29T09:27:32.949Z</time></trkpt><trkpt lat="45.885075" lon="8.5381083"><ele>202.5</ele><time>2026-03-29T09:27:33.949Z</time></trkpt><trkpt lat="45.8851217" lon="8.53794"><ele>203.0</ele><time>2026-03-29T09:27:34.949Z</time></trkpt><trkpt lat="45.88516" lon="8.537765"><ele>201.5</ele><time>2026-03-29T09:27:35.949Z</time></trkpt><trkpt lat="45.8852083" lon="8.5376"><ele>200.0</ele><time>2026-03-29T09:27:36.949Z</time></trkpt><trkpt lat="45.885255" lon="8.537435"><ele>198.5</ele><time>2026-03-29T09:27:37.948Z</time></trkpt><trkpt lat="45.8852983" lon="8.5372767"><ele>197.0</ele><time>2026-03-29T09:27:38.949Z</time></trkpt><trkpt lat="45.885335" lon="8.5371183"><ele>196.5</ele><time>2026-03-29T09:27:39.949Z</time></trkpt><trkpt lat="45.8853767" lon="8.5369767"><ele>196.0</ele><time>2026-03-29T09:27:40.949Z</time></trkpt><trkpt lat="45.885415" lon="8.5368267"><ele>195.5</ele><time>2026-03-29T09:27:41.948Z</time></trkpt><trkpt lat="45.8854533" lon="8.5366667"><ele>195.0</ele><time>2026-03-29T09:27:42.948Z</time></trkpt><trkpt lat="45.8855" lon="8.5365083"><ele>195.0</ele><time>2026-03-29T09:27:43.948Z</time></trkpt><trkpt lat="45.88555" lon="8.53636"><ele>195.0</ele><time>2026-03-29T09:27:44.948Z</time></trkpt><trkpt lat="45.8856033" lon="8.5362033"><ele>195.0</ele><time>2026-03-29T09:27:45.948Z</time></trkpt><trkpt lat="45.885655" lon="8.5360633"><ele>195.0</ele><time>2026-03-29T09:27:46.948Z</time></trkpt><trkpt lat="45.8857067" lon="8.535925"><ele>195.0</ele><time>2026-03-29T09:27:47.948Z</time></trkpt><trkpt lat="45.8857583" lon="8.5358"><ele>195.0</ele><time>2026-03-29T09:27:48.948Z</time></trkpt><trkpt lat="45.8858067" lon="8.5356817"><ele>195.0</ele><time>2026-03-29T09:27:49.948Z</time></trkpt><trkpt lat="45.8858517" lon="8.5355583"><ele>195.0</ele><time>2026-03-29T09:27:50.948Z</time></trkpt><trkpt lat="45.8859033" lon="8.5354217"><ele>195.0</ele><time>2026-03-29T09:27:51.948Z</time></trkpt><trkpt lat="45.885955" lon="8.535285"><ele>195.0</ele><time>2026-03-29T09:27:52.948Z</time></trkpt><trkpt lat="45.885995" lon="8.53516"><ele>195.0</ele><time>2026-03-29T09:27:53.948Z</time></trkpt><trkpt lat="45.886035" lon="8.53504"><ele>195.0</ele><time>2026-03-29T09:27:54.948Z</time></trkpt><trkpt lat="45.88608" lon="8.5349283"><ele>195.0</ele><time>2026-03-29T09:27:55.948Z</time></trkpt><trkpt lat="45.8861233" lon="8.534825"><ele>195.0</ele><time>2026-03-29T09:27:56.948Z</time></trkpt><trkpt lat="45.8861683" lon="8.5347267"><ele>195.0</ele><time>2026-03-29T09:27:57.947Z</time></trkpt><trkpt lat="45.8862183" lon="8.53461"><ele>196.25</ele><time>2026-03-29T09:27:58.947Z</time></trkpt><trkpt lat="45.8862817" lon="8.5344867"><ele>197.5</ele><time>2026-03-29T09:27:59.948Z</time></trkpt><trkpt lat="45.88636" lon="8.5343433"><ele>198.75</ele><time>2026-03-29T09:28:00.948Z</time></trkpt><trkpt lat="45.8864383" lon="8.5342133"><ele>200.0</ele><time>2026-03-29T09:28:01.948Z</time></trkpt><trkpt lat="45.88651" lon="8.534075"><ele>200.0</ele><time>2026-03-29T09:28:02.948Z</time></trkpt><trkpt lat="45.8865833" lon="8.53395"><ele>200.0</ele><time>2026-03-29T09:28:03.948Z</time></trkpt><trkpt lat="45.88665" lon="8.5338167"><ele>200.0</ele><time>2026-03-29T09:28:04.948Z</time></trkpt><trkpt lat="45.8867267" lon="8.5336867"><ele>200.0</ele><time>2026-03-29T09:28:05.948Z</time></trkpt><trkpt lat="45.8868017" lon="8.5335717"><ele>199.8</ele><time>2026-03-29T09:28:06.947Z</time></trkpt><trkpt lat="45.8868683" lon="8.5334717"><ele>199.6</ele><time>2026-03-29T09:28:07.948Z</time></trkpt><trkpt lat="45.8869317" lon="8.533375"><ele>199.39999999999998</ele><time>2026-03-29T09:28:08.948Z</time></trkpt><trkpt lat="45.8870033" lon="8.5332717"><ele>199.2</ele><time>2026-03-29T09:28:09.948Z</time></trkpt><trkpt lat="45.8870717" lon="8.5331683"><ele>199.0</ele><time>2026-03-29T09:28:10.948Z</time></trkpt><trkpt lat="45.8871367" lon="8.5330617"><ele>199.0</ele><time>2026-03-29T09:28:11.948Z</time></trkpt><trkpt lat="45.8872017" lon="8.532955"><ele>199.0</ele><time>2026-03-29T09:28:12.948Z</time></trkpt><trkpt lat="45.8872717" lon="8.532855"><ele>199.0</ele><time>2026-03-29T09:28:13.948Z</time></trkpt><trkpt lat="45.8873333" lon="8.5327717"><ele>199.0</ele><time>2026-03-29T09:28:14.948Z</time></trkpt><trkpt lat="45.8873983" lon="8.5326683"><ele>199.0</ele><time>2026-03-29T09:28:16.948Z</time></trkpt><trkpt lat="45.887445" lon="8.5325767"><ele>198.66666666666666</ele><time>2026-03-29T09:28:22.948Z</time></trkpt><trkpt lat="45.8875167" lon="8.5324767"><ele>198.33333333333331</ele><time>2026-03-29T09:28:24.948Z</time></trkpt><trkpt lat="45.88756" lon="8.5324"><ele>198.0</ele><time>2026-03-29T09:28:25.947Z</time></trkpt><trkpt lat="45.88761" lon="8.5323317"><ele>197.66666666666669</ele><time>2026-03-29T09:28:26.948Z</time></trkpt><trkpt lat="45.8876667" lon="8.5322533"><ele>197.33333333333334</ele><time>2026-03-29T09:28:27.948Z</time></trkpt><trkpt lat="45.8877267" lon="8.5321633"><ele>197.0</ele><time>2026-03-29T09:28:28.948Z</time></trkpt><trkpt lat="45.8877983" lon="8.5320567"><ele>198.0</ele><time>2026-03-29T09:28:29.948Z</time></trkpt><trkpt lat="45.887875" lon="8.5319367"><ele>199.0</ele><time>2026-03-29T09:28:30.948Z</time></trkpt><trkpt lat="45.8879483" lon="8.5318233"><ele>200.0</ele><time>2026-03-29T09:28:31.948Z</time></trkpt><trkpt lat="45.88802" lon="8.5317"><ele>201.0</ele><time>2026-03-29T09:28:32.948Z</time></trkpt><trkpt lat="45.8880917" lon="8.53158"><ele>202.0</ele><time>2026-03-29T09:28:33.948Z</time></trkpt><trkpt lat="45.8881683" lon="8.531455"><ele>202.0</ele><time>2026-03-29T09:28:34.947Z</time></trkpt><trkpt lat="45.888245" lon="8.5313233"><ele>202.0</ele><time>2026-03-29T09:28:35.947Z</time></trkpt><trkpt lat="45.8883233" lon="8.5311983"><ele>202.0</ele><time>2026-03-29T09:28:36.948Z</time></trkpt><trkpt lat="45.888385" lon="8.531045"><ele>202.0</ele><time>2026-03-29T09:28:37.948Z</time></trkpt><trkpt lat="45.8884283" lon="8.5308783"><ele>201.5</ele><time>2026-03-29T09:28:38.947Z</time></trkpt><trkpt lat="45.8884417" lon="8.5307"><ele>201.0</ele><time>2026-03-29T09:28:39.948Z</time></trkpt><trkpt lat="45.888445" lon="8.5305133"><ele>200.5</ele><time>2026-03-29T09:28:40.948Z</time></trkpt><trkpt lat="45.8884433" lon="8.5303167"><ele>200.0</ele><time>2026-03-29T09:28:41.948Z</time></trkpt><trkpt lat="45.8884333" lon="8.5301283"><ele>200.0</ele><time>2026-03-29T09:28:42.947Z</time></trkpt><trkpt lat="45.8884267" lon="8.5299383"><ele>200.0</ele><time>2026-03-29T09:28:43.948Z</time></trkpt><trkpt lat="45.8884183" lon="8.5297433"><ele>200.0</ele><time>2026-03-29T09:28:44.948Z</time></trkpt><trkpt lat="45.88841" lon="8.529555"><ele>200.0</ele><time>2026-03-29T09:28:45.948Z</time></trkpt><trkpt lat="45.88841" lon="8.5293767"><ele>202.0</ele><time>2026-03-29T09:28:46.947Z</time></trkpt><trkpt lat="45.888395" lon="8.529215"><ele>204.0</ele><time>2026-03-29T09:28:47.947Z</time></trkpt><trkpt lat="45.8883833" lon="8.529075"><ele>206.0</ele><time>2026-03-29T09:28:48.948Z</time></trkpt><trkpt lat="45.888375" lon="8.5289367"><ele>208.0</ele><time>2026-03-29T09:28:49.948Z</time></trkpt><trkpt lat="45.8883733" lon="8.5288233"><ele>210.0</ele><time>2026-03-29T09:28:50.948Z</time></trkpt><trkpt lat="45.888365" lon="8.5287033"><ele>210.66666666666666</ele><time>2026-03-29T09:28:51.948Z</time></trkpt><trkpt lat="45.8883583" lon="8.52858"><ele>211.33333333333331</ele><time>2026-03-29T09:28:52.948Z</time></trkpt><trkpt lat="45.8883483" lon="8.528445"><ele>212.0</ele><time>2026-03-29T09:28:53.948Z</time></trkpt><trkpt lat="45.88835" lon="8.52831"><ele>212.66666666666666</ele><time>2026-03-29T09:28:54.948Z</time></trkpt><trkpt lat="45.8883467" lon="8.5281817"><ele>213.33333333333331</ele><time>2026-03-29T09:28:55.948Z</time></trkpt><trkpt lat="45.888345" lon="8.5280833"><ele>214.0</ele><time>2026-03-29T09:28:56.948Z</time></trkpt><trkpt lat="45.8883417" lon="8.527985"><ele>214.33333333333331</ele><time>2026-03-29T09:28:57.948Z</time></trkpt><trkpt lat="45.88834" lon="8.52788"><ele>214.66666666666666</ele><time>2026-03-29T09:28:58.948Z</time></trkpt><trkpt lat="45.8883417" lon="8.52768"><ele>215.0</ele><time>2026-03-29T09:29:00.948Z</time></trkpt><trkpt lat="45.8883467" lon="8.527565"><ele>215.33333333333331</ele><time>2026-03-29T09:29:01.947Z</time></trkpt><trkpt lat="45.888345" lon="8.5274617"><ele>215.66666666666666</ele><time>2026-03-29T09:29:02.948Z</time></trkpt><trkpt lat="45.8883367" lon="8.527355"><ele>216.0</ele><time>2026-03-29T09:29:03.948Z</time></trkpt><trkpt lat="45.888325" lon="8.5272417"><ele>216.0</ele><time>2026-03-29T09:29:04.948Z</time></trkpt><trkpt lat="45.8883117" lon="8.5271417"><ele>216.0</ele><time>2026-03-29T09:29:05.947Z</time></trkpt><trkpt lat="45.888305" lon="8.527045"><ele>216.0</ele><time>2026-03-29T09:29:06.948Z</time></trkpt><trkpt lat="45.8883017" lon="8.5268983"><ele>216.0</ele><time>2026-03-29T09:29:08.948Z</time></trkpt><trkpt lat="45.88829" lon="8.5268083"><ele>216.0</ele><time>2026-03-29T09:29:10.948Z</time></trkpt><trkpt lat="45.8882567" lon="8.5266983"><ele>216.0</ele><time>2026-03-29T09:29:17.948Z</time></trkpt><trkpt lat="45.888245" lon="8.5265583"><ele>215.83333333333334</ele><time>2026-03-29T09:29:19.948Z</time></trkpt><trkpt lat="45.8882383" lon="8.5264617"><ele>215.66666666666669</ele><time>2026-03-29T09:29:20.948Z</time></trkpt><trkpt lat="45.8882433" lon="8.5263533"><ele>215.5</ele><time>2026-03-29T09:29:21.948Z</time></trkpt><trkpt lat="45.8882283" lon="8.5261783"><ele>215.33333333333334</ele><time>2026-03-29T09:29:23.948Z</time></trkpt><trkpt lat="45.8882217" lon="8.5260817"><ele>215.16666666666669</ele><time>2026-03-29T09:29:25.948Z</time></trkpt><trkpt lat="45.8882217" lon="8.5259717"><ele>215.0</ele><time>2026-03-29T09:29:39.948Z</time></trkpt><trkpt lat="45.8882333" lon="8.525865"><ele>215.0</ele><time>2026-03-29T09:29:40.947Z</time></trkpt><trkpt lat="45.8882567" lon="8.52572"><ele>215.0</ele><time>2026-03-29T09:29:41.948Z</time></trkpt><trkpt lat="45.8882517" lon="8.525535"><ele>215.0</ele><time>2026-03-29T09:29:42.948Z</time></trkpt><trkpt lat="45.8882467" lon="8.525335"><ele>215.0</ele><time>2026-03-29T09:29:43.948Z</time></trkpt><trkpt lat="45.8882583" lon="8.5251367"><ele>215.66666666666669</ele><time>2026-03-29T09:29:44.948Z</time></trkpt><trkpt lat="45.888295" lon="8.524935"><ele>216.33333333333331</ele><time>2026-03-29T09:29:45.948Z</time></trkpt><trkpt lat="45.8883583" lon="8.5247333"><ele>217.0</ele><time>2026-03-29T09:29:46.948Z</time></trkpt><trkpt lat="45.8884417" lon="8.52455"><ele>213.66666666666666</ele><time>2026-03-29T09:29:47.948Z</time></trkpt><trkpt lat="45.88854" lon="8.5243667"><ele>210.33333333333331</ele><time>2026-03-29T09:29:48.948Z</time></trkpt><trkpt lat="45.8886383" lon="8.5241633"><ele>207.0</ele><time>2026-03-29T09:29:49.947Z</time></trkpt><trkpt lat="45.8887433" lon="8.523955"><ele>207.0</ele><time>2026-03-29T09:29:50.947Z</time></trkpt><trkpt lat="45.8888317" lon="8.5237333"><ele>207.0</ele><time>2026-03-29T09:29:51.948Z</time></trkpt><trkpt lat="45.8889217" lon="8.5235183"><ele>207.0</ele><time>2026-03-29T09:29:52.948Z</time></trkpt><trkpt lat="45.8890133" lon="8.523285"><ele>206.66666666666669</ele><time>2026-03-29T09:29:53.948Z</time></trkpt><trkpt lat="45.8891117" lon="8.5230683"><ele>206.33333333333334</ele><time>2026-03-29T09:29:54.948Z</time></trkpt><trkpt lat="45.88922" lon="8.522855"><ele>206.0</ele><time>2026-03-29T09:29:55.948Z</time></trkpt><trkpt lat="45.88931" lon="8.522615"><ele>205.66666666666669</ele><time>2026-03-29T09:29:56.948Z</time></trkpt><trkpt lat="45.8894167" lon="8.5223933"><ele>205.33333333333331</ele><time>2026-03-29T09:29:57.947Z</time></trkpt><trkpt lat="45.8895183" lon="8.5221567"><ele>205.0</ele><time>2026-03-29T09:29:58.948Z</time></trkpt><trkpt lat="45.8896317" lon="8.5219083"><ele>205.0</ele><time>2026-03-29T09:29:59.948Z</time></trkpt><trkpt lat="45.8897433" lon="8.5216633"><ele>205.0</ele><time>2026-03-29T09:30:00.948Z</time></trkpt><trkpt lat="45.8898583" lon="8.521425"><ele>205.0</ele><time>2026-03-29T09:30:01.947Z</time></trkpt><trkpt lat="45.8899633" lon="8.52118"><ele>200.5</ele><time>2026-03-29T09:30:02.948Z</time></trkpt><trkpt lat="45.8901917" lon="8.5206767"><ele>196.0</ele><time>2026-03-29T09:30:04.948Z</time></trkpt><trkpt lat="45.8903033" lon="8.52042"><ele>197.33333333333331</ele><time>2026-03-29T09:30:05.948Z</time></trkpt><trkpt lat="45.89041" lon="8.5201667"><ele>198.66666666666669</ele><time>2026-03-29T09:30:06.948Z</time></trkpt><trkpt lat="45.8905117" lon="8.5199267"><ele>200.0</ele><time>2026-03-29T09:30:07.948Z</time></trkpt><trkpt lat="45.8906" lon="8.5197067"><ele>201.66666666666669</ele><time>2026-03-29T09:30:08.948Z</time></trkpt><trkpt lat="45.8907133" lon="8.51951"><ele>203.33333333333331</ele><time>2026-03-29T09:30:09.948Z</time></trkpt><trkpt lat="45.8908433" lon="8.5193417"><ele>205.0</ele><time>2026-03-29T09:30:10.948Z</time></trkpt><trkpt lat="45.890995" lon="8.5192083"><ele>205.0</ele><time>2026-03-29T09:30:11.948Z</time></trkpt><trkpt lat="45.891175" lon="8.519095"><ele>205.0</ele><time>2026-03-29T09:30:12.948Z</time></trkpt><trkpt lat="45.8913617" lon="8.5189883"><ele>205.0</ele><time>2026-03-29T09:30:13.948Z</time></trkpt><trkpt lat="45.8915433" lon="8.518875"><ele>205.0</ele><time>2026-03-29T09:30:14.947Z</time></trkpt><trkpt lat="45.8917317" lon="8.5187383"><ele>205.0</ele><time>2026-03-29T09:30:15.948Z</time></trkpt><trkpt lat="45.8919233" lon="8.5186117"><ele>205.0</ele><time>2026-03-29T09:30:16.948Z</time></trkpt><trkpt lat="45.8920933" lon="8.5185067"><ele>204.66666666666666</ele><time>2026-03-29T09:30:17.948Z</time></trkpt><trkpt lat="45.8922533" lon="8.518405"><ele>204.33333333333331</ele><time>2026-03-29T09:30:18.947Z</time></trkpt><trkpt lat="45.8924033" lon="8.5183"><ele>204.0</ele><time>2026-03-29T09:30:19.948Z</time></trkpt><trkpt lat="45.89253" lon="8.5182067"><ele>203.25</ele><time>2026-03-29T09:30:20.948Z</time></trkpt><trkpt lat="45.8926433" lon="8.5181317"><ele>202.5</ele><time>2026-03-29T09:30:21.948Z</time></trkpt><trkpt lat="45.8927483" lon="8.5180483"><ele>201.75</ele><time>2026-03-29T09:30:22.948Z</time></trkpt><trkpt lat="45.892855" lon="8.5179633"><ele>201.0</ele><time>2026-03-29T09:30:23.948Z</time></trkpt><trkpt lat="45.8929483" lon="8.5178717"><ele>201.0</ele><time>2026-03-29T09:30:24.948Z</time></trkpt><trkpt lat="45.8930183" lon="8.5177383"><ele>201.0</ele><time>2026-03-29T09:30:25.948Z</time></trkpt><trkpt lat="45.8930733" lon="8.5175883"><ele>201.0</ele><time>2026-03-29T09:30:26.948Z</time></trkpt><trkpt lat="45.8931117" lon="8.5174267"><ele>201.0</ele><time>2026-03-29T09:30:27.948Z</time></trkpt><trkpt lat="45.8931483" lon="8.5172683"><ele>201.0</ele><time>2026-03-29T09:30:28.948Z</time></trkpt><trkpt lat="45.8931883" lon="8.5171183"><ele>201.0</ele><time>2026-03-29T09:30:29.948Z</time></trkpt><trkpt lat="45.89323" lon="8.5169617"><ele>201.0</ele><time>2026-03-29T09:30:30.948Z</time></trkpt><trkpt lat="45.8932783" lon="8.516805"><ele>201.0</ele><time>2026-03-29T09:30:31.948Z</time></trkpt><trkpt lat="45.8933283" lon="8.5166583"><ele>202.75</ele><time>2026-03-29T09:30:32.948Z</time></trkpt><trkpt lat="45.8933867" lon="8.5165117"><ele>204.5</ele><time>2026-03-29T09:30:33.948Z</time></trkpt><trkpt lat="45.89347" lon="8.5163767"><ele>206.25</ele><time>2026-03-29T09:30:34.948Z</time></trkpt><trkpt lat="45.8935667" lon="8.516245"><ele>208.0</ele><time>2026-03-29T09:30:35.948Z</time></trkpt><trkpt lat="45.89369" lon="8.5161167"><ele>209.0</ele><time>2026-03-29T09:30:36.948Z</time></trkpt><trkpt lat="45.893825" lon="8.5159833"><ele>210.0</ele><time>2026-03-29T09:30:37.948Z</time></trkpt><trkpt lat="45.8939833" lon="8.515845"><ele>211.0</ele><time>2026-03-29T09:30:38.948Z</time></trkpt><trkpt lat="45.89417" lon="8.5156933"><ele>212.33333333333331</ele><time>2026-03-29T09:30:39.947Z</time></trkpt><trkpt lat="45.89436" lon="8.515565"><ele>213.66666666666669</ele><time>2026-03-29T09:30:40.947Z</time></trkpt><trkpt lat="45.8945633" lon="8.515445"><ele>215.0</ele><time>2026-03-29T09:30:41.947Z</time></trkpt><trkpt lat="45.8947683" lon="8.5153267"><ele>215.0</ele><time>2026-03-29T09:30:42.947Z</time></trkpt><trkpt lat="45.8949683" lon="8.515215"><ele>215.0</ele><time>2026-03-29T09:30:43.946Z</time></trkpt><trkpt lat="45.89517" lon="8.5151133"><ele>215.0</ele><time>2026-03-29T09:30:44.947Z</time></trkpt><trkpt lat="45.8953417" lon="8.51503"><ele>212.25</ele><time>2026-03-29T09:30:45.947Z</time></trkpt><trkpt lat="45.8955017" lon="8.5149517"><ele>209.5</ele><time>2026-03-29T09:30:46.947Z</time></trkpt><trkpt lat="45.8956333" lon="8.5149017"><ele>206.75</ele><time>2026-03-29T09:30:47.947Z</time></trkpt><trkpt lat="45.89576" lon="8.5148383"><ele>204.0</ele><time>2026-03-29T09:30:48.947Z</time></trkpt><trkpt lat="45.8958867" lon="8.514765"><ele>204.75</ele><time>2026-03-29T09:30:49.947Z</time></trkpt><trkpt lat="45.895995" lon="8.514675"><ele>205.5</ele><time>2026-03-29T09:30:50.947Z</time></trkpt><trkpt lat="45.896105" lon="8.51459"><ele>206.25</ele><time>2026-03-29T09:30:51.947Z</time></trkpt><trkpt lat="45.8962183" lon="8.5144833"><ele>207.0</ele><time>2026-03-29T09:30:52.947Z</time></trkpt><trkpt lat="45.8963167" lon="8.51438"><ele>207.0</ele><time>2026-03-29T09:30:53.947Z</time></trkpt><trkpt lat="45.8964133" lon="8.514285"><ele>207.0</ele><time>2026-03-29T09:30:54.946Z</time></trkpt><trkpt lat="45.8965133" lon="8.5141783"><ele>207.0</ele><time>2026-03-29T09:30:55.947Z</time></trkpt><trkpt lat="45.8966167" lon="8.514075"><ele>207.0</ele><time>2026-03-29T09:30:56.947Z</time></trkpt><trkpt lat="45.8967383" lon="8.5139483"><ele>206.0</ele><time>2026-03-29T09:30:57.947Z</time></trkpt><trkpt lat="45.8968733" lon="8.513815"><ele>205.0</ele><time>2026-03-29T09:30:58.947Z</time></trkpt><trkpt lat="45.8970267" lon="8.5136917"><ele>204.0</ele><time>2026-03-29T09:30:59.946Z</time></trkpt><trkpt lat="45.89718" lon="8.51357"><ele>204.0</ele><time>2026-03-29T09:31:00.947Z</time></trkpt><trkpt lat="45.8973283" lon="8.5134367"><ele>204.0</ele><time>2026-03-29T09:31:01.947Z</time></trkpt><trkpt lat="45.8974767" lon="8.5133017"><ele>204.0</ele><time>2026-03-29T09:31:02.946Z</time></trkpt><trkpt lat="45.8976367" lon="8.5131733"><ele>204.0</ele><time>2026-03-29T09:31:03.946Z</time></trkpt><trkpt lat="45.8977817" lon="8.5130433"><ele>204.0</ele><time>2026-03-29T09:31:04.947Z</time></trkpt><trkpt lat="45.89792" lon="8.5129067"><ele>204.0</ele><time>2026-03-29T09:31:05.947Z</time></trkpt><trkpt lat="45.89806" lon="8.5127667"><ele>204.0</ele><time>2026-03-29T09:31:06.946Z</time></trkpt><trkpt lat="45.8981867" lon="8.512625"><ele>204.0</ele><time>2026-03-29T09:31:07.947Z</time></trkpt><trkpt lat="45.8983267" lon="8.5124683"><ele>204.0</ele><time>2026-03-29T09:31:08.947Z</time></trkpt><trkpt lat="45.8984667" lon="8.512315"><ele>204.33333333333331</ele><time>2026-03-29T09:31:09.947Z</time></trkpt><trkpt lat="45.8986133" lon="8.512145"><ele>204.66666666666666</ele><time>2026-03-29T09:31:10.947Z</time></trkpt><trkpt lat="45.8987567" lon="8.51198"><ele>205.0</ele><time>2026-03-29T09:31:11.947Z</time></trkpt><trkpt lat="45.8989" lon="8.51182"><ele>205.0</ele><time>2026-03-29T09:31:12.947Z</time></trkpt><trkpt lat="45.89904" lon="8.511665"><ele>205.0</ele><time>2026-03-29T09:31:13.947Z</time></trkpt><trkpt lat="45.8991733" lon="8.511515"><ele>205.0</ele><time>2026-03-29T09:31:14.947Z</time></trkpt><trkpt lat="45.8992867" lon="8.51137"><ele>204.33333333333331</ele><time>2026-03-29T09:31:15.946Z</time></trkpt><trkpt lat="45.8994" lon="8.5112017"><ele>203.66666666666669</ele><time>2026-03-29T09:31:16.947Z</time></trkpt><trkpt lat="45.8995033" lon="8.51103"><ele>203.0</ele><time>2026-03-29T09:31:17.947Z</time></trkpt><trkpt lat="45.8996067" lon="8.510855"><ele>203.0</ele><time>2026-03-29T09:31:18.946Z</time></trkpt><trkpt lat="45.8997067" lon="8.5106833"><ele>203.0</ele><time>2026-03-29T09:31:19.947Z</time></trkpt><trkpt lat="45.8998083" lon="8.5105133"><ele>203.0</ele><time>2026-03-29T09:31:20.947Z</time></trkpt><trkpt lat="45.899915" lon="8.5103433"><ele>202.66666666666669</ele><time>2026-03-29T09:31:21.947Z</time></trkpt><trkpt lat="45.9000283" lon="8.5101817"><ele>202.33333333333331</ele><time>2026-03-29T09:31:22.947Z</time></trkpt><trkpt lat="45.9001483" lon="8.5100133"><ele>202.0</ele><time>2026-03-29T09:31:23.947Z</time></trkpt><trkpt lat="45.90028" lon="8.5098483"><ele>202.0</ele><time>2026-03-29T09:31:24.947Z</time></trkpt><trkpt lat="45.9004217" lon="8.5097217"><ele>202.0</ele><time>2026-03-29T09:31:25.947Z</time></trkpt><trkpt lat="45.9005867" lon="8.5095917"><ele>202.0</ele><time>2026-03-29T09:31:26.947Z</time></trkpt><trkpt lat="45.900755" lon="8.5094733"><ele>200.66666666666666</ele><time>2026-03-29T09:31:27.947Z</time></trkpt><trkpt lat="45.9009183" lon="8.5093583"><ele>199.33333333333331</ele><time>2026-03-29T09:31:28.947Z</time></trkpt><trkpt lat="45.9010883" lon="8.5092317"><ele>198.0</ele><time>2026-03-29T09:31:29.946Z</time></trkpt><trkpt lat="45.9012483" lon="8.5091033"><ele>198.0</ele><time>2026-03-29T09:31:30.947Z</time></trkpt><trkpt lat="45.9014117" lon="8.5089883"><ele>198.0</ele><time>2026-03-29T09:31:31.947Z</time></trkpt><trkpt lat="45.9015733" lon="8.5088867"><ele>198.0</ele><time>2026-03-29T09:31:32.947Z</time></trkpt><trkpt lat="45.9017283" lon="8.508795"><ele>201.0</ele><time>2026-03-29T09:31:33.947Z</time></trkpt><trkpt lat="45.9018917" lon="8.508725"><ele>204.0</ele><time>2026-03-29T09:31:34.947Z</time></trkpt><trkpt lat="45.9020483" lon="8.508645"><ele>207.0</ele><time>2026-03-29T09:31:35.947Z</time></trkpt><trkpt lat="45.902215" lon="8.5085733"><ele>207.0</ele><time>2026-03-29T09:31:36.947Z</time></trkpt><trkpt lat="45.9023617" lon="8.5085"><ele>207.0</ele><time>2026-03-29T09:31:37.946Z</time></trkpt><trkpt lat="45.9025217" lon="8.5084267"><ele>207.0</ele><time>2026-03-29T09:31:38.947Z</time></trkpt><trkpt lat="45.90267" lon="8.508355"><ele>205.0</ele><time>2026-03-29T09:31:39.946Z</time></trkpt><trkpt lat="45.9028233" lon="8.5082917"><ele>203.0</ele><time>2026-03-29T09:31:40.947Z</time></trkpt><trkpt lat="45.902985" lon="8.5082267"><ele>201.0</ele><time>2026-03-29T09:31:41.947Z</time></trkpt><trkpt lat="45.9031433" lon="8.5081583"><ele>201.0</ele><time>2026-03-29T09:31:42.947Z</time></trkpt><trkpt lat="45.9033017" lon="8.50808"><ele>201.0</ele><time>2026-03-29T09:31:43.947Z</time></trkpt><trkpt lat="45.9034717" lon="8.5080033"><ele>201.0</ele><time>2026-03-29T09:31:44.947Z</time></trkpt><trkpt lat="45.9036483" lon="8.5079367"><ele>201.33333333333331</ele><time>2026-03-29T09:31:45.947Z</time></trkpt><trkpt lat="45.9038067" lon="8.5078633"><ele>201.66666666666666</ele><time>2026-03-29T09:31:46.947Z</time></trkpt><trkpt lat="45.9039617" lon="8.5077783"><ele>202.0</ele><time>2026-03-29T09:31:47.947Z</time></trkpt><trkpt lat="45.904065" lon="8.507655"><ele>202.0</ele><time>2026-03-29T09:31:48.947Z</time></trkpt><trkpt lat="45.9041617" lon="8.5075133"><ele>202.0</ele><time>2026-03-29T09:31:49.947Z</time></trkpt><trkpt lat="45.9042483" lon="8.5073483"><ele>202.0</ele><time>2026-03-29T09:31:50.947Z</time></trkpt><trkpt lat="45.90432" lon="8.5071583"><ele>202.0</ele><time>2026-03-29T09:31:51.946Z</time></trkpt><trkpt lat="45.9043983" lon="8.5069617"><ele>199.33333333333331</ele><time>2026-03-29T09:31:52.947Z</time></trkpt><trkpt lat="45.9044833" lon="8.506735"><ele>196.66666666666669</ele><time>2026-03-29T09:31:53.947Z</time></trkpt><trkpt lat="45.9045817" lon="8.5065233"><ele>194.0</ele><time>2026-03-29T09:31:54.947Z</time></trkpt><trkpt lat="45.9046583" lon="8.50628"><ele>197.0</ele><time>2026-03-29T09:31:55.947Z</time></trkpt><trkpt lat="45.9047317" lon="8.5060733"><ele>200.0</ele><time>2026-03-29T09:31:56.947Z</time></trkpt><trkpt lat="45.9048217" lon="8.5058883"><ele>203.0</ele><time>2026-03-29T09:31:57.947Z</time></trkpt><trkpt lat="45.9049333" lon="8.5057467"><ele>203.0</ele><time>2026-03-29T09:31:58.947Z</time></trkpt><trkpt lat="45.9050667" lon="8.5056467"><ele>203.0</ele><time>2026-03-29T09:31:59.947Z</time></trkpt><trkpt lat="45.9052133" lon="8.5055783"><ele>203.0</ele><time>2026-03-29T09:32:00.947Z</time></trkpt><trkpt lat="45.9053583" lon="8.5055617"><ele>204.0</ele><time>2026-03-29T09:32:01.947Z</time></trkpt><trkpt lat="45.9055133" lon="8.5055633"><ele>205.0</ele><time>2026-03-29T09:32:02.947Z</time></trkpt><trkpt lat="45.9056633" lon="8.5055783"><ele>206.0</ele><time>2026-03-29T09:32:03.946Z</time></trkpt><trkpt lat="45.9058317" lon="8.5055767"><ele>204.0</ele><time>2026-03-29T09:32:04.947Z</time></trkpt><trkpt lat="45.9059967" lon="8.5055617"><ele>202.0</ele><time>2026-03-29T09:32:05.947Z</time></trkpt><trkpt lat="45.9061617" lon="8.5055483"><ele>200.0</ele><time>2026-03-29T09:32:06.947Z</time></trkpt><trkpt lat="45.906335" lon="8.5055317"><ele>200.0</ele><time>2026-03-29T09:32:07.947Z</time></trkpt><trkpt lat="45.9065017" lon="8.505515"><ele>200.0</ele><time>2026-03-29T09:32:08.947Z</time></trkpt><trkpt lat="45.9066717" lon="8.5055017"><ele>200.0</ele><time>2026-03-29T09:32:09.947Z</time></trkpt><trkpt lat="45.90684" lon="8.50549"><ele>199.33333333333334</ele><time>2026-03-29T09:32:10.947Z</time></trkpt><trkpt lat="45.9070133" lon="8.50548"><ele>198.66666666666669</ele><time>2026-03-29T09:32:11.947Z</time></trkpt><trkpt lat="45.9071883" lon="8.50547"><ele>198.0</ele><time>2026-03-29T09:32:12.947Z</time></trkpt><trkpt lat="45.9073583" lon="8.5054667"><ele>198.0</ele><time>2026-03-29T09:32:13.947Z</time></trkpt><trkpt lat="45.90754" lon="8.505465"><ele>198.0</ele><time>2026-03-29T09:32:14.947Z</time></trkpt><trkpt lat="45.9077167" lon="8.5054583"><ele>198.0</ele><time>2026-03-29T09:32:15.947Z</time></trkpt><trkpt lat="45.9078983" lon="8.50543"><ele>198.33333333333331</ele><time>2026-03-29T09:32:16.947Z</time></trkpt><trkpt lat="45.90807" lon="8.505425"><ele>198.66666666666666</ele><time>2026-03-29T09:32:17.947Z</time></trkpt><trkpt lat="45.9082333" lon="8.505445"><ele>199.0</ele><time>2026-03-29T09:32:18.947Z</time></trkpt><trkpt lat="45.9083917" lon="8.505465"><ele>200.66666666666666</ele><time>2026-03-29T09:32:19.947Z</time></trkpt><trkpt lat="45.9085583" lon="8.50547"><ele>202.33333333333331</ele><time>2026-03-29T09:32:20.946Z</time></trkpt><trkpt lat="45.908715" lon="8.5055033"><ele>204.0</ele><time>2026-03-29T09:32:21.947Z</time></trkpt><trkpt lat="45.9088583" lon="8.5055267"><ele>204.0</ele><time>2026-03-29T09:32:22.947Z</time></trkpt><trkpt lat="45.909" lon="8.5055567"><ele>204.0</ele><time>2026-03-29T09:32:23.947Z</time></trkpt><trkpt lat="45.9091433" lon="8.505595"><ele>204.0</ele><time>2026-03-29T09:32:24.947Z</time></trkpt><trkpt lat="45.909295" lon="8.505625"><ele>204.0</ele><time>2026-03-29T09:32:25.947Z</time></trkpt><trkpt lat="45.90946" lon="8.5056217"><ele>205.33333333333331</ele><time>2026-03-29T09:32:26.947Z</time></trkpt><trkpt lat="45.90962" lon="8.50562"><ele>206.66666666666666</ele><time>2026-03-29T09:32:27.947Z</time></trkpt><trkpt lat="45.9097733" lon="8.5055967"><ele>208.0</ele><time>2026-03-29T09:32:28.947Z</time></trkpt><trkpt lat="45.9099183" lon="8.5055467"><ele>208.0</ele><time>2026-03-29T09:32:29.947Z</time></trkpt><trkpt lat="45.9100467" lon="8.5054633"><ele>208.0</ele><time>2026-03-29T09:32:30.947Z</time></trkpt><trkpt lat="45.9101783" lon="8.5053383"><ele>208.0</ele><time>2026-03-29T09:32:31.947Z</time></trkpt><trkpt lat="45.9102767" lon="8.50517"><ele>206.66666666666666</ele><time>2026-03-29T09:32:32.947Z</time></trkpt><trkpt lat="45.910395" lon="8.5050117"><ele>205.33333333333331</ele><time>2026-03-29T09:32:33.947Z</time></trkpt><trkpt lat="45.910495" lon="8.5047983"><ele>204.0</ele><time>2026-03-29T09:32:34.947Z</time></trkpt><trkpt lat="45.910615" lon="8.5046067"><ele>205.0</ele><time>2026-03-29T09:32:35.947Z</time></trkpt><trkpt lat="45.910725" lon="8.5044083"><ele>206.0</ele><time>2026-03-29T09:32:36.947Z</time></trkpt><trkpt lat="45.91085" lon="8.5042483"><ele>207.0</ele><time>2026-03-29T09:32:37.947Z</time></trkpt><trkpt lat="45.9109733" lon="8.50407"><ele>207.0</ele><time>2026-03-29T09:32:38.946Z</time></trkpt><trkpt lat="45.9111017" lon="8.5038933"><ele>207.0</ele><time>2026-03-29T09:32:39.947Z</time></trkpt><trkpt lat="45.9112267" lon="8.50372"><ele>207.0</ele><time>2026-03-29T09:32:40.947Z</time></trkpt><trkpt lat="45.9113583" lon="8.503555"><ele>208.33333333333331</ele><time>2026-03-29T09:32:41.947Z</time></trkpt><trkpt lat="45.9114833" lon="8.5033867"><ele>209.66666666666666</ele><time>2026-03-29T09:32:42.947Z</time></trkpt><trkpt lat="45.9116083" lon="8.5032267"><ele>211.0</ele><time>2026-03-29T09:32:43.947Z</time></trkpt><trkpt lat="45.9117283" lon="8.50308"><ele>210.25</ele><time>2026-03-29T09:32:44.947Z</time></trkpt><trkpt lat="45.9118333" lon="8.5029583"><ele>209.5</ele><time>2026-03-29T09:32:45.946Z</time></trkpt><trkpt lat="45.911935" lon="8.5028583"><ele>208.75</ele><time>2026-03-29T09:32:46.946Z</time></trkpt><trkpt lat="45.912025" lon="8.50276"><ele>208.0</ele><time>2026-03-29T09:32:47.947Z</time></trkpt><trkpt lat="45.91212" lon="8.5027033"><ele>207.99999999999997</ele><time>2026-03-29T09:32:48.946Z</time></trkpt><trkpt lat="45.9121967" lon="8.50264"><ele>208.0</ele><time>2026-03-29T09:32:49.947Z</time></trkpt><trkpt lat="45.9122583" lon="8.5025717"><ele>208.0</ele><time>2026-03-29T09:32:50.947Z</time></trkpt><trkpt lat="45.912325" lon="8.50252"><ele>208.0</ele><time>2026-03-29T09:32:51.947Z</time></trkpt><trkpt lat="45.912385" lon="8.502485"><ele>207.99999999999997</ele><time>2026-03-29T09:32:52.946Z</time></trkpt><trkpt lat="45.9124533" lon="8.50245"><ele>208.0</ele><time>2026-03-29T09:32:53.947Z</time></trkpt><trkpt lat="45.9125267" lon="8.5023933"><ele>207.49999999999997</ele><time>2026-03-29T09:32:54.947Z</time></trkpt><trkpt lat="45.91259" lon="8.502315"><ele>207.0</ele><time>2026-03-29T09:32:55.947Z</time></trkpt><trkpt lat="45.9126517" lon="8.50224"><ele>206.5</ele><time>2026-03-29T09:32:56.947Z</time></trkpt><trkpt lat="45.91272" lon="8.50218"><ele>206.0</ele><time>2026-03-29T09:32:57.947Z</time></trkpt><trkpt lat="45.9127833" lon="8.5021267"><ele>205.49999999999997</ele><time>2026-03-29T09:32:58.947Z</time></trkpt><trkpt lat="45.912855" lon="8.5020767"><ele>205.0</ele><time>2026-03-29T09:32:59.947Z</time></trkpt><trkpt lat="45.91293" lon="8.5020167"><ele>206.4</ele><time>2026-03-29T09:33:00.947Z</time></trkpt><trkpt lat="45.913015" lon="8.5019533"><ele>207.8</ele><time>2026-03-29T09:33:01.947Z</time></trkpt><trkpt lat="45.913105" lon="8.5018833"><ele>209.2</ele><time>2026-03-29T09:33:02.947Z</time></trkpt><trkpt lat="45.913195" lon="8.5018167"><ele>210.6</ele><time>2026-03-29T09:33:03.947Z</time></trkpt><trkpt lat="45.9132883" lon="8.5017583"><ele>212.0</ele><time>2026-03-29T09:33:04.947Z</time></trkpt><trkpt lat="45.91339" lon="8.501735"><ele>212.2</ele><time>2026-03-29T09:33:05.947Z</time></trkpt><trkpt lat="45.91349" lon="8.5017283"><ele>212.39999999999998</ele><time>2026-03-29T09:33:06.947Z</time></trkpt><trkpt lat="45.91359" lon="8.5017217"><ele>212.60000000000002</ele><time>2026-03-29T09:33:07.947Z</time></trkpt><trkpt lat="45.9137" lon="8.5017183"><ele>212.8</ele><time>2026-03-29T09:33:08.947Z</time></trkpt><trkpt lat="45.9138167" lon="8.5017167"><ele>213.0</ele><time>2026-03-29T09:33:09.947Z</time></trkpt><trkpt lat="45.9139233" lon="8.5017183"><ele>213.0</ele><time>2026-03-29T09:33:10.947Z</time></trkpt><trkpt lat="45.9140383" lon="8.50173"><ele>213.0</ele><time>2026-03-29T09:33:11.946Z</time></trkpt><trkpt lat="45.9141517" lon="8.501755"><ele>213.0</ele><time>2026-03-29T09:33:12.947Z</time></trkpt><trkpt lat="45.9142617" lon="8.5017533"><ele>213.0</ele><time>2026-03-29T09:33:13.947Z</time></trkpt><trkpt lat="45.9143733" lon="8.5017333"><ele>211.75</ele><time>2026-03-29T09:33:14.947Z</time></trkpt><trkpt lat="45.9144833" lon="8.501715"><ele>210.5</ele><time>2026-03-29T09:33:15.947Z</time></trkpt><trkpt lat="45.9146067" lon="8.5017183"><ele>209.25</ele><time>2026-03-29T09:33:16.947Z</time></trkpt><trkpt lat="45.9147383" lon="8.501735"><ele>208.0</ele><time>2026-03-29T09:33:17.947Z</time></trkpt><trkpt lat="45.9148633" lon="8.501745"><ele>208.0</ele><time>2026-03-29T09:33:18.947Z</time></trkpt><trkpt lat="45.9150017" lon="8.50176"><ele>208.0</ele><time>2026-03-29T09:33:19.946Z</time></trkpt><trkpt lat="45.91514" lon="8.5017883"><ele>208.0</ele><time>2026-03-29T09:33:20.947Z</time></trkpt><trkpt lat="45.915285" lon="8.50181"><ele>208.0</ele><time>2026-03-29T09:33:21.947Z</time></trkpt><trkpt lat="45.9154183" lon="8.501825"><ele>206.75</ele><time>2026-03-29T09:33:22.946Z</time></trkpt><trkpt lat="45.915545" lon="8.5018167"><ele>205.5</ele><time>2026-03-29T09:33:23.947Z</time></trkpt><trkpt lat="45.91568" lon="8.50178"><ele>204.25</ele><time>2026-03-29T09:33:24.947Z</time></trkpt><trkpt lat="45.9157967" lon="8.5017233"><ele>203.0</ele><time>2026-03-29T09:33:25.947Z</time></trkpt><trkpt lat="45.9159033" lon="8.5016433"><ele>202.25</ele><time>2026-03-29T09:33:26.947Z</time></trkpt><trkpt lat="45.9159933" lon="8.5015433"><ele>201.5</ele><time>2026-03-29T09:33:27.947Z</time></trkpt><trkpt lat="45.9160783" lon="8.5014233"><ele>200.75</ele><time>2026-03-29T09:33:28.947Z</time></trkpt><trkpt lat="45.916165" lon="8.50129"><ele>200.0</ele><time>2026-03-29T09:33:29.947Z</time></trkpt><trkpt lat="45.9163283" lon="8.5010283"><ele>200.0</ele><time>2026-03-29T09:33:31.947Z</time></trkpt><trkpt lat="45.9164117" lon="8.500895"><ele>200.0</ele><time>2026-03-29T09:33:32.947Z</time></trkpt><trkpt lat="45.9164867" lon="8.500755"><ele>200.0</ele><time>2026-03-29T09:33:33.947Z</time></trkpt><trkpt lat="45.9165583" lon="8.5006033"><ele>200.0</ele><time>2026-03-29T09:33:34.946Z</time></trkpt><trkpt lat="45.9166167" lon="8.50044"><ele>200.5</ele><time>2026-03-29T09:33:35.946Z</time></trkpt><trkpt lat="45.9166783" lon="8.5002633"><ele>201.0</ele><time>2026-03-29T09:33:36.946Z</time></trkpt><trkpt lat="45.91674" lon="8.50008"><ele>201.5</ele><time>2026-03-29T09:33:37.946Z</time></trkpt><trkpt lat="45.9168" lon="8.49988"><ele>202.0</ele><time>2026-03-29T09:33:38.946Z</time></trkpt><trkpt lat="45.9168583" lon="8.4996867"><ele>199.33333333333331</ele><time>2026-03-29T09:33:39.946Z</time></trkpt><trkpt lat="45.9169117" lon="8.4994933"><ele>196.66666666666669</ele><time>2026-03-29T09:33:40.946Z</time></trkpt><trkpt lat="45.9169733" lon="8.4992933"><ele>194.0</ele><time>2026-03-29T09:33:41.946Z</time></trkpt><trkpt lat="45.9170383" lon="8.4990867"><ele>194.0</ele><time>2026-03-29T09:33:42.946Z</time></trkpt><trkpt lat="45.917115" lon="8.4988733"><ele>194.0</ele><time>2026-03-29T09:33:43.946Z</time></trkpt><trkpt lat="45.9171983" lon="8.49866"><ele>194.0</ele><time>2026-03-29T09:33:44.946Z</time></trkpt><trkpt lat="45.9172933" lon="8.4984433"><ele>195.0</ele><time>2026-03-29T09:33:45.946Z</time></trkpt><trkpt lat="45.91741" lon="8.4982433"><ele>196.0</ele><time>2026-03-29T09:33:46.945Z</time></trkpt><trkpt lat="45.9175283" lon="8.4980567"><ele>197.0</ele><time>2026-03-29T09:33:47.946Z</time></trkpt><trkpt lat="45.9176467" lon="8.497885"><ele>197.0</ele><time>2026-03-29T09:33:48.946Z</time></trkpt><trkpt lat="45.917865" lon="8.4975633"><ele>197.0</ele><time>2026-03-29T09:33:50.946Z</time></trkpt><trkpt lat="45.9179617" lon="8.49742"><ele>197.0</ele><time>2026-03-29T09:33:51.946Z</time></trkpt><trkpt lat="45.9180533" lon="8.497275"><ele>197.0</ele><time>2026-03-29T09:33:52.946Z</time></trkpt><trkpt lat="45.918345" lon="8.49681"><ele>197.0</ele><time>2026-03-29T09:33:55.946Z</time></trkpt><trkpt lat="45.9184467" lon="8.496655"><ele>197.0</ele><time>2026-03-29T09:33:56.946Z</time></trkpt><trkpt lat="45.9185367" lon="8.4965117"><ele>197.0</ele><time>2026-03-29T09:33:57.946Z</time></trkpt><trkpt lat="45.918615" lon="8.496375"><ele>197.0</ele><time>2026-03-29T09:33:58.946Z</time></trkpt><trkpt lat="45.918685" lon="8.496265"><ele>197.50000000000003</ele><time>2026-03-29T09:33:59.946Z</time></trkpt><trkpt lat="45.9187417" lon="8.4961667"><ele>198.0</ele><time>2026-03-29T09:34:00.945Z</time></trkpt><trkpt lat="45.91881" lon="8.4960517"><ele>198.5</ele><time>2026-03-29T09:34:02.945Z</time></trkpt><trkpt lat="45.91888" lon="8.4959767"><ele>199.0</ele><time>2026-03-29T09:34:04.946Z</time></trkpt><trkpt lat="45.9189333" lon="8.49592"><ele>199.50000000000003</ele><time>2026-03-29T09:34:05.946Z</time></trkpt><trkpt lat="45.9189917" lon="8.495845"><ele>200.0</ele><time>2026-03-29T09:34:06.946Z</time></trkpt><trkpt lat="45.9190567" lon="8.4957433"><ele>200.0</ele><time>2026-03-29T09:34:07.946Z</time></trkpt><trkpt lat="45.9191183" lon="8.4956383"><ele>200.0</ele><time>2026-03-29T09:34:08.946Z</time></trkpt><trkpt lat="45.91919" lon="8.4955317"><ele>200.0</ele><time>2026-03-29T09:34:09.946Z</time></trkpt><trkpt lat="45.9192717" lon="8.4954233"><ele>200.0</ele><time>2026-03-29T09:34:10.946Z</time></trkpt><trkpt lat="45.9193517" lon="8.4953183"><ele>200.0</ele><time>2026-03-29T09:34:11.946Z</time></trkpt><trkpt lat="45.9194333" lon="8.49521"><ele>199.5</ele><time>2026-03-29T09:34:12.946Z</time></trkpt><trkpt lat="45.9195217" lon="8.4950967"><ele>199.0</ele><time>2026-03-29T09:34:13.946Z</time></trkpt><trkpt lat="45.9196067" lon="8.494975"><ele>198.5</ele><time>2026-03-29T09:34:14.946Z</time></trkpt><trkpt lat="45.9196967" lon="8.49487"><ele>198.0</ele><time>2026-03-29T09:34:15.946Z</time></trkpt><trkpt lat="45.9198" lon="8.4947567"><ele>198.0</ele><time>2026-03-29T09:34:16.946Z</time></trkpt><trkpt lat="45.9199033" lon="8.494645"><ele>198.0</ele><time>2026-03-29T09:34:17.946Z</time></trkpt><trkpt lat="45.9200067" lon="8.49452"><ele>198.0</ele><time>2026-03-29T09:34:18.946Z</time></trkpt><trkpt lat="45.920105" lon="8.494375"><ele>198.0</ele><time>2026-03-29T09:34:19.945Z</time></trkpt><trkpt lat="45.9202033" lon="8.4942433"><ele>197.5</ele><time>2026-03-29T09:34:20.946Z</time></trkpt><trkpt lat="45.9203083" lon="8.4941083"><ele>197.0</ele><time>2026-03-29T09:34:21.946Z</time></trkpt><trkpt lat="45.920415" lon="8.4939617"><ele>196.5</ele><time>2026-03-29T09:34:22.946Z</time></trkpt><trkpt lat="45.9205283" lon="8.4938267"><ele>196.0</ele><time>2026-03-29T09:34:23.946Z</time></trkpt><trkpt lat="45.9206383" lon="8.493705"><ele>196.25</ele><time>2026-03-29T09:34:24.946Z</time></trkpt><trkpt lat="45.9207367" lon="8.49357"><ele>196.5</ele><time>2026-03-29T09:34:25.946Z</time></trkpt><trkpt lat="45.9208483" lon="8.49343"><ele>196.75</ele><time>2026-03-29T09:34:26.946Z</time></trkpt><trkpt lat="45.9209517" lon="8.493285"><ele>197.0</ele><time>2026-03-29T09:34:27.946Z</time></trkpt><trkpt lat="45.9210683" lon="8.4931383"><ele>197.0</ele><time>2026-03-29T09:34:28.946Z</time></trkpt><trkpt lat="45.9211883" lon="8.4929917"><ele>197.0</ele><time>2026-03-29T09:34:29.946Z</time></trkpt><trkpt lat="45.9213033" lon="8.4928333"><ele>197.0</ele><time>2026-03-29T09:34:30.945Z</time></trkpt><trkpt lat="45.9214167" lon="8.4927017"><ele>196.66666666666669</ele><time>2026-03-29T09:34:31.946Z</time></trkpt><trkpt lat="45.9215267" lon="8.4925567"><ele>196.33333333333331</ele><time>2026-03-29T09:34:32.946Z</time></trkpt><trkpt lat="45.9216383" lon="8.4924083"><ele>196.0</ele><time>2026-03-29T09:34:33.946Z</time></trkpt><trkpt lat="45.9217467" lon="8.4922433"><ele>197.0</ele><time>2026-03-29T09:34:34.946Z</time></trkpt><trkpt lat="45.9218683" lon="8.4920917"><ele>198.0</ele><time>2026-03-29T09:34:35.946Z</time></trkpt><trkpt lat="45.9219867" lon="8.4919467"><ele>199.0</ele><time>2026-03-29T09:34:36.946Z</time></trkpt><trkpt lat="45.922115" lon="8.4917817"><ele>199.0</ele><time>2026-03-29T09:34:37.946Z</time></trkpt><trkpt lat="45.9222483" lon="8.49162"><ele>199.0</ele><time>2026-03-29T09:34:38.946Z</time></trkpt><trkpt lat="45.9223767" lon="8.491465"><ele>199.0</ele><time>2026-03-29T09:34:39.946Z</time></trkpt><trkpt lat="45.922505" lon="8.491315"><ele>200.0</ele><time>2026-03-29T09:34:40.946Z</time></trkpt><trkpt lat="45.92263" lon="8.4911683"><ele>201.0</ele><time>2026-03-29T09:34:41.946Z</time></trkpt><trkpt lat="45.922745" lon="8.4910133"><ele>202.0</ele><time>2026-03-29T09:34:42.946Z</time></trkpt><trkpt lat="45.9228617" lon="8.4908617"><ele>202.0</ele><time>2026-03-29T09:34:43.946Z</time></trkpt><trkpt lat="45.92298" lon="8.4907083"><ele>202.0</ele><time>2026-03-29T09:34:44.946Z</time></trkpt><trkpt lat="45.9230983" lon="8.4905517"><ele>202.0</ele><time>2026-03-29T09:34:45.946Z</time></trkpt><trkpt lat="45.9232233" lon="8.490395"><ele>199.66666666666666</ele><time>2026-03-29T09:34:46.945Z</time></trkpt><trkpt lat="45.9233433" lon="8.4902283"><ele>197.33333333333331</ele><time>2026-03-29T09:34:47.945Z</time></trkpt><trkpt lat="45.9234683" lon="8.4900667"><ele>195.0</ele><time>2026-03-29T09:34:48.946Z</time></trkpt><trkpt lat="45.9235783" lon="8.4899183"><ele>195.0</ele><time>2026-03-29T09:34:49.946Z</time></trkpt><trkpt lat="45.9236767" lon="8.48977"><ele>195.0</ele><time>2026-03-29T09:34:50.946Z</time></trkpt><trkpt lat="45.9237783" lon="8.4895983"><ele>195.0</ele><time>2026-03-29T09:34:51.946Z</time></trkpt><trkpt lat="45.923895" lon="8.4894"><ele>196.33333333333331</ele><time>2026-03-29T09:34:52.946Z</time></trkpt><trkpt lat="45.9240233" lon="8.4891733"><ele>197.66666666666666</ele><time>2026-03-29T09:34:53.946Z</time></trkpt><trkpt lat="45.92415" lon="8.4889233"><ele>199.0</ele><time>2026-03-29T09:34:54.946Z</time></trkpt><trkpt lat="45.92428" lon="8.488685"><ele>199.0</ele><time>2026-03-29T09:34:55.946Z</time></trkpt><trkpt lat="45.9244267" lon="8.4884517"><ele>199.0</ele><time>2026-03-29T09:34:56.946Z</time></trkpt><trkpt lat="45.9245517" lon="8.488205"><ele>199.0</ele><time>2026-03-29T09:34:57.946Z</time></trkpt><trkpt lat="45.92467" lon="8.4879817"><ele>200.66666666666666</ele><time>2026-03-29T09:34:58.945Z</time></trkpt><trkpt lat="45.9247717" lon="8.4877917"><ele>202.33333333333331</ele><time>2026-03-29T09:34:59.946Z</time></trkpt><trkpt lat="45.9248633" lon="8.48762"><ele>204.0</ele><time>2026-03-29T09:35:00.946Z</time></trkpt><trkpt lat="45.9249617" lon="8.48748"><ele>204.0</ele><time>2026-03-29T09:35:01.946Z</time></trkpt><trkpt lat="45.92504" lon="8.4873633"><ele>204.0</ele><time>2026-03-29T09:35:02.946Z</time></trkpt><trkpt lat="45.9251" lon="8.48725"><ele>204.0</ele><time>2026-03-29T09:35:03.946Z</time></trkpt><trkpt lat="45.9251567" lon="8.487165"><ele>204.0</ele><time>2026-03-29T09:35:04.946Z</time></trkpt><trkpt lat="45.925205" lon="8.4870783"><ele>204.0</ele><time>2026-03-29T09:35:05.946Z</time></trkpt><trkpt lat="45.92525" lon="8.4869917"><ele>204.0</ele><time>2026-03-29T09:35:06.946Z</time></trkpt><trkpt lat="45.9252967" lon="8.486905"><ele>203.79999999999998</ele><time>2026-03-29T09:35:07.945Z</time></trkpt><trkpt lat="45.92535" lon="8.4868067"><ele>203.6</ele><time>2026-03-29T09:35:08.946Z</time></trkpt><trkpt lat="45.9254" lon="8.4867083"><ele>203.4</ele><time>2026-03-29T09:35:09.946Z</time></trkpt><trkpt lat="45.9254533" lon="8.4865917"><ele>203.2</ele><time>2026-03-29T09:35:10.946Z</time></trkpt><trkpt lat="45.9255133" lon="8.4864617"><ele>203.0</ele><time>2026-03-29T09:35:11.946Z</time></trkpt><trkpt lat="45.92557" lon="8.4863183"><ele>204.0</ele><time>2026-03-29T09:35:12.946Z</time></trkpt><trkpt lat="45.9256333" lon="8.48617"><ele>205.0</ele><time>2026-03-29T09:35:13.946Z</time></trkpt><trkpt lat="45.92569" lon="8.4860083"><ele>206.0</ele><time>2026-03-29T09:35:14.946Z</time></trkpt><trkpt lat="45.9257467" lon="8.48583"><ele>207.0</ele><time>2026-03-29T09:35:15.946Z</time></trkpt><trkpt lat="45.9258117" lon="8.4856517"><ele>207.0</ele><time>2026-03-29T09:35:16.946Z</time></trkpt><trkpt lat="45.9258633" lon="8.4854683"><ele>207.0</ele><time>2026-03-29T09:35:17.945Z</time></trkpt><trkpt lat="45.9259217" lon="8.4852833"><ele>207.0</ele><time>2026-03-29T09:35:18.945Z</time></trkpt><trkpt lat="45.9259783" lon="8.4850867"><ele>207.0</ele><time>2026-03-29T09:35:19.946Z</time></trkpt><trkpt lat="45.92604" lon="8.4848933"><ele>205.33333333333331</ele><time>2026-03-29T09:35:20.946Z</time></trkpt><trkpt lat="45.9261283" lon="8.4847"><ele>203.66666666666666</ele><time>2026-03-29T09:35:21.946Z</time></trkpt><trkpt lat="45.9262283" lon="8.48451"><ele>202.0</ele><time>2026-03-29T09:35:22.946Z</time></trkpt><trkpt lat="45.9263367" lon="8.4843283"><ele>202.0</ele><time>2026-03-29T09:35:23.946Z</time></trkpt><trkpt lat="45.926445" lon="8.4841517"><ele>202.0</ele><time>2026-03-29T09:35:24.946Z</time></trkpt><trkpt lat="45.9265567" lon="8.4839767"><ele>202.0</ele><time>2026-03-29T09:35:25.946Z</time></trkpt><trkpt lat="45.9266667" lon="8.4838067"><ele>199.0</ele><time>2026-03-29T09:35:26.946Z</time></trkpt><trkpt lat="45.9267767" lon="8.4836467"><ele>196.0</ele><time>2026-03-29T09:35:27.946Z</time></trkpt><trkpt lat="45.9268817" lon="8.48347"><ele>193.0</ele><time>2026-03-29T09:35:28.946Z</time></trkpt><trkpt lat="45.9269767" lon="8.4832917"><ele>193.0</ele><time>2026-03-29T09:35:29.946Z</time></trkpt><trkpt lat="45.927075" lon="8.4831017"><ele>193.0</ele><time>2026-03-29T09:35:30.946Z</time></trkpt><trkpt lat="45.9271633" lon="8.4829133"><ele>193.0</ele><time>2026-03-29T09:35:31.946Z</time></trkpt><trkpt lat="45.9272517" lon="8.4827217"><ele>197.0</ele><time>2026-03-29T09:35:32.945Z</time></trkpt><trkpt lat="45.9273317" lon="8.4825317"><ele>201.0</ele><time>2026-03-29T09:35:33.946Z</time></trkpt><trkpt lat="45.9274067" lon="8.482345"><ele>205.0</ele><time>2026-03-29T09:35:34.946Z</time></trkpt><trkpt lat="45.927485" lon="8.4821667"><ele>202.0</ele><time>2026-03-29T09:35:35.946Z</time></trkpt><trkpt lat="45.927555" lon="8.482"><ele>199.0</ele><time>2026-03-29T09:35:36.946Z</time></trkpt><trkpt lat="45.9276217" lon="8.4818283"><ele>196.0</ele><time>2026-03-29T09:35:37.946Z</time></trkpt><trkpt lat="45.9276867" lon="8.4816567"><ele>193.0</ele><time>2026-03-29T09:35:38.945Z</time></trkpt><trkpt lat="45.9277567" lon="8.4814883"><ele>193.0</ele><time>2026-03-29T09:35:39.946Z</time></trkpt><trkpt lat="45.9278233" lon="8.48133"><ele>193.0</ele><time>2026-03-29T09:35:40.946Z</time></trkpt><trkpt lat="45.9278833" lon="8.4811817"><ele>193.0</ele><time>2026-03-29T09:35:41.946Z</time></trkpt><trkpt lat="45.9279433" lon="8.4810267"><ele>193.0</ele><time>2026-03-29T09:35:42.946Z</time></trkpt><trkpt lat="45.927995" lon="8.48088"><ele>196.5</ele><time>2026-03-29T09:35:43.946Z</time></trkpt><trkpt lat="45.9280567" lon="8.4807333"><ele>200.0</ele><time>2026-03-29T09:35:44.946Z</time></trkpt><trkpt lat="45.9281233" lon="8.48059"><ele>203.5</ele><time>2026-03-29T09:35:45.946Z</time></trkpt><trkpt lat="45.9281917" lon="8.4804483"><ele>207.0</ele><time>2026-03-29T09:35:46.946Z</time></trkpt><trkpt lat="45.92828" lon="8.48033"><ele>207.0</ele><time>2026-03-29T09:35:47.946Z</time></trkpt><trkpt lat="45.928375" lon="8.480215"><ele>207.0</ele><time>2026-03-29T09:35:48.946Z</time></trkpt><trkpt lat="45.9284733" lon="8.4801183"><ele>207.0</ele><time>2026-03-29T09:35:49.945Z</time></trkpt><trkpt lat="45.928545" lon="8.4800083"><ele>207.0</ele><time>2026-03-29T09:35:50.946Z</time></trkpt><trkpt lat="45.9286167" lon="8.4799233"><ele>207.0</ele><time>2026-03-29T09:35:51.945Z</time></trkpt><trkpt lat="45.9286933" lon="8.479865"><ele>207.0</ele><time>2026-03-29T09:35:52.946Z</time></trkpt><trkpt lat="45.92877" lon="8.4797917"><ele>207.0</ele><time>2026-03-29T09:35:53.946Z</time></trkpt><trkpt lat="45.9288383" lon="8.479735"><ele>207.0</ele><time>2026-03-29T09:35:54.946Z</time></trkpt><trkpt lat="45.9288933" lon="8.4796833"><ele>207.0</ele><time>2026-03-29T09:35:55.946Z</time></trkpt><trkpt lat="45.9289767" lon="8.4796067"><ele>207.0</ele><time>2026-03-29T09:35:57.946Z</time></trkpt><trkpt lat="45.92904" lon="8.4795483"><ele>207.0</ele><time>2026-03-29T09:35:59.946Z</time></trkpt><trkpt lat="45.929125" lon="8.4794733"><ele>207.75</ele><time>2026-03-29T09:36:01.946Z</time></trkpt><trkpt lat="45.9292533" lon="8.4793833"><ele>208.5</ele><time>2026-03-29T09:36:03.946Z</time></trkpt><trkpt lat="45.929345" lon="8.4793367"><ele>209.25</ele><time>2026-03-29T09:36:04.946Z</time></trkpt><trkpt lat="45.9294483" lon="8.479265"><ele>210.0</ele><time>2026-03-29T09:36:05.946Z</time></trkpt><trkpt lat="45.9295617" lon="8.4792017"><ele>210.0</ele><time>2026-03-29T09:36:06.946Z</time></trkpt><trkpt lat="45.929675" lon="8.4791583"><ele>210.0</ele><time>2026-03-29T09:36:07.946Z</time></trkpt><trkpt lat="45.929785" lon="8.4791133"><ele>210.0</ele><time>2026-03-29T09:36:08.946Z</time></trkpt><trkpt lat="45.929905" lon="8.4791083"><ele>210.0</ele><time>2026-03-29T09:36:09.946Z</time></trkpt><trkpt lat="45.9300367" lon="8.4791383"><ele>209.25</ele><time>2026-03-29T09:36:10.946Z</time></trkpt><trkpt lat="45.930175" lon="8.479165"><ele>208.5</ele><time>2026-03-29T09:36:11.946Z</time></trkpt><trkpt lat="45.9303167" lon="8.4792117"><ele>207.75</ele><time>2026-03-29T09:36:12.946Z</time></trkpt><trkpt lat="45.9304567" lon="8.4792517"><ele>207.0</ele><time>2026-03-29T09:36:13.946Z</time></trkpt><trkpt lat="45.930595" lon="8.4793117"><ele>207.0</ele><time>2026-03-29T09:36:14.945Z</time></trkpt><trkpt lat="45.93074" lon="8.4793867"><ele>207.0</ele><time>2026-03-29T09:36:15.946Z</time></trkpt><trkpt lat="45.9308817" lon="8.4794617"><ele>207.0</ele><time>2026-03-29T09:36:16.946Z</time></trkpt><trkpt lat="45.931025" lon="8.47954"><ele>205.33333333333331</ele><time>2026-03-29T09:36:17.946Z</time></trkpt><trkpt lat="45.93116" lon="8.4796433"><ele>203.66666666666666</ele><time>2026-03-29T09:36:18.946Z</time></trkpt><trkpt lat="45.931305" lon="8.4797317"><ele>202.0</ele><time>2026-03-29T09:36:19.946Z</time></trkpt><trkpt lat="45.9314533" lon="8.4798333"><ele>202.0</ele><time>2026-03-29T09:36:20.946Z</time></trkpt><trkpt lat="45.93161" lon="8.479935"><ele>202.0</ele><time>2026-03-29T09:36:21.946Z</time></trkpt><trkpt lat="45.9317733" lon="8.48004"><ele>202.0</ele><time>2026-03-29T09:36:22.946Z</time></trkpt><trkpt lat="45.931945" lon="8.4801483"><ele>201.33333333333331</ele><time>2026-03-29T09:36:23.946Z</time></trkpt><trkpt lat="45.9321117" lon="8.4802483"><ele>200.66666666666669</ele><time>2026-03-29T09:36:24.946Z</time></trkpt><trkpt lat="45.93227" lon="8.4803533"><ele>200.0</ele><time>2026-03-29T09:36:25.946Z</time></trkpt><trkpt lat="45.9324267" lon="8.480455"><ele>200.0</ele><time>2026-03-29T09:36:26.946Z</time></trkpt><trkpt lat="45.932585" lon="8.48055"><ele>200.0</ele><time>2026-03-29T09:36:27.946Z</time></trkpt><trkpt lat="45.932745" lon="8.4806517"><ele>200.0</ele><time>2026-03-29T09:36:28.946Z</time></trkpt><trkpt lat="45.9329017" lon="8.480745"><ele>200.0</ele><time>2026-03-29T09:36:29.945Z</time></trkpt><trkpt lat="45.9330533" lon="8.4808267"><ele>200.0</ele><time>2026-03-29T09:36:30.945Z</time></trkpt><trkpt lat="45.9332033" lon="8.48092"><ele>200.0</ele><time>2026-03-29T09:36:31.945Z</time></trkpt><trkpt lat="45.9333467" lon="8.481005"><ele>200.0</ele><time>2026-03-29T09:36:32.945Z</time></trkpt><trkpt lat="45.9334833" lon="8.4810917"><ele>200.0</ele><time>2026-03-29T09:36:33.945Z</time></trkpt><trkpt lat="45.9336033" lon="8.481165"><ele>200.0</ele><time>2026-03-29T09:36:34.945Z</time></trkpt><trkpt lat="45.93372" lon="8.4812383"><ele>200.0</ele><time>2026-03-29T09:36:35.945Z</time></trkpt><trkpt lat="45.9338433" lon="8.4813133"><ele>200.0</ele><time>2026-03-29T09:36:36.945Z</time></trkpt><trkpt lat="45.9339717" lon="8.4813867"><ele>200.0</ele><time>2026-03-29T09:36:37.945Z</time></trkpt><trkpt lat="45.93423" lon="8.4815417"><ele>200.0</ele><time>2026-03-29T09:36:39.945Z</time></trkpt><trkpt lat="45.9343583" lon="8.4816167"><ele>199.5</ele><time>2026-03-29T09:36:40.945Z</time></trkpt><trkpt lat="45.934485" lon="8.4816917"><ele>199.0</ele><time>2026-03-29T09:36:41.944Z</time></trkpt><trkpt lat="45.9346083" lon="8.4817667"><ele>198.5</ele><time>2026-03-29T09:36:42.945Z</time></trkpt><trkpt lat="45.934735" lon="8.481845"><ele>198.0</ele><time>2026-03-29T09:36:43.945Z</time></trkpt><trkpt lat="45.9348517" lon="8.4819183"><ele>198.0</ele><time>2026-03-29T09:36:44.945Z</time></trkpt><trkpt lat="45.9349767" lon="8.4819983"><ele>198.0</ele><time>2026-03-29T09:36:45.945Z</time></trkpt><trkpt lat="45.9351033" lon="8.48208"><ele>198.0</ele><time>2026-03-29T09:36:46.945Z</time></trkpt><trkpt lat="45.9355183" lon="8.4823133"><ele>198.0</ele><time>2026-03-29T09:36:49.945Z</time></trkpt><trkpt lat="45.9356567" lon="8.4823983"><ele>198.0</ele><time>2026-03-29T09:36:50.945Z</time></trkpt><trkpt lat="45.9357833" lon="8.482475"><ele>198.0</ele><time>2026-03-29T09:36:51.945Z</time></trkpt><trkpt lat="45.935915" lon="8.4825567"><ele>198.0</ele><time>2026-03-29T09:36:52.945Z</time></trkpt><trkpt lat="45.9360367" lon="8.4826317"><ele>198.0</ele><time>2026-03-29T09:36:53.945Z</time></trkpt><trkpt lat="45.93617" lon="8.48272"><ele>198.0</ele><time>2026-03-29T09:36:54.945Z</time></trkpt><trkpt lat="45.9363033" lon="8.4828067"><ele>198.0</ele><time>2026-03-29T09:36:55.945Z</time></trkpt><trkpt lat="45.936435" lon="8.4828933"><ele>198.0</ele><time>2026-03-29T09:36:56.945Z</time></trkpt><trkpt lat="45.9367017" lon="8.48305"><ele>198.33333333333331</ele><time>2026-03-29T09:36:58.945Z</time></trkpt><trkpt lat="45.93684" lon="8.48314"><ele>198.66666666666666</ele><time>2026-03-29T09:36:59.945Z</time></trkpt><trkpt lat="45.93698" lon="8.483225"><ele>199.0</ele><time>2026-03-29T09:37:00.945Z</time></trkpt><trkpt lat="45.9371167" lon="8.4833017"><ele>199.0</ele><time>2026-03-29T09:37:01.945Z</time></trkpt><trkpt lat="45.937245" lon="8.4833733"><ele>199.0</ele><time>2026-03-29T09:37:02.945Z</time></trkpt><trkpt lat="45.9373617" lon="8.48344"><ele>199.0</ele><time>2026-03-29T09:37:03.945Z</time></trkpt><trkpt lat="45.9374733" lon="8.4835067"><ele>199.0</ele><time>2026-03-29T09:37:04.945Z</time></trkpt><trkpt lat="45.9375833" lon="8.48358"><ele>199.0</ele><time>2026-03-29T09:37:05.945Z</time></trkpt><trkpt lat="45.9377" lon="8.4836467"><ele>199.0</ele><time>2026-03-29T09:37:06.945Z</time></trkpt><trkpt lat="45.937825" lon="8.483725"><ele>199.0</ele><time>2026-03-29T09:37:07.945Z</time></trkpt><trkpt lat="45.9379517" lon="8.4838083"><ele>199.0</ele><time>2026-03-29T09:37:08.945Z</time></trkpt><trkpt lat="45.938085" lon="8.4838817"><ele>199.0</ele><time>2026-03-29T09:37:09.945Z</time></trkpt><trkpt lat="45.9382233" lon="8.48396"><ele>199.0</ele><time>2026-03-29T09:37:10.945Z</time></trkpt><trkpt lat="45.938355" lon="8.4840417"><ele>199.0</ele><time>2026-03-29T09:37:11.945Z</time></trkpt><trkpt lat="45.9384933" lon="8.4841267"><ele>199.0</ele><time>2026-03-29T09:37:12.945Z</time></trkpt><trkpt lat="45.93864" lon="8.4841967"><ele>198.75</ele><time>2026-03-29T09:37:13.945Z</time></trkpt><trkpt lat="45.9387817" lon="8.48427"><ele>198.5</ele><time>2026-03-29T09:37:14.944Z</time></trkpt><trkpt lat="45.9389133" lon="8.48434"><ele>198.25</ele><time>2026-03-29T09:37:15.945Z</time></trkpt><trkpt lat="45.9390517" lon="8.4844133"><ele>198.0</ele><time>2026-03-29T09:37:16.944Z</time></trkpt><trkpt lat="45.939185" lon="8.4844967"><ele>197.25</ele><time>2026-03-29T09:37:17.945Z</time></trkpt><trkpt lat="45.9393133" lon="8.4845617"><ele>196.5</ele><time>2026-03-29T09:37:18.945Z</time></trkpt><trkpt lat="45.9394483" lon="8.484645"><ele>195.75</ele><time>2026-03-29T09:37:19.945Z</time></trkpt><trkpt lat="45.939585" lon="8.4847367"><ele>195.0</ele><time>2026-03-29T09:37:20.945Z</time></trkpt><trkpt lat="45.9397283" lon="8.4848283"><ele>195.0</ele><time>2026-03-29T09:37:21.944Z</time></trkpt><trkpt lat="45.9398617" lon="8.4849183"><ele>195.0</ele><time>2026-03-29T09:37:22.944Z</time></trkpt><trkpt lat="45.9400017" lon="8.4850033"><ele>195.0</ele><time>2026-03-29T09:37:23.945Z</time></trkpt><trkpt lat="45.9401383" lon="8.4850917"><ele>195.0</ele><time>2026-03-29T09:37:24.945Z</time></trkpt><trkpt lat="45.9402767" lon="8.4851717"><ele>195.0</ele><time>2026-03-29T09:37:25.945Z</time></trkpt><trkpt lat="45.9404133" lon="8.4852483"><ele>195.0</ele><time>2026-03-29T09:37:26.945Z</time></trkpt><trkpt lat="45.9405433" lon="8.48533"><ele>195.0</ele><time>2026-03-29T09:37:27.945Z</time></trkpt><trkpt lat="45.9406817" lon="8.4854167"><ele>195.0</ele><time>2026-03-29T09:37:28.945Z</time></trkpt><trkpt lat="45.940815" lon="8.4854983"><ele>195.5</ele><time>2026-03-29T09:37:29.945Z</time></trkpt><trkpt lat="45.9409433" lon="8.4855783"><ele>196.0</ele><time>2026-03-29T09:37:30.945Z</time></trkpt><trkpt lat="45.9410783" lon="8.485655"><ele>196.5</ele><time>2026-03-29T09:37:31.944Z</time></trkpt><trkpt lat="45.9412083" lon="8.4857433"><ele>197.0</ele><time>2026-03-29T09:37:32.945Z</time></trkpt><trkpt lat="45.9413383" lon="8.4858267"><ele>197.0</ele><time>2026-03-29T09:37:33.945Z</time></trkpt><trkpt lat="45.94147" lon="8.4859067"><ele>197.0</ele><time>2026-03-29T09:37:34.944Z</time></trkpt><trkpt lat="45.941605" lon="8.485985"><ele>197.0</ele><time>2026-03-29T09:37:35.945Z</time></trkpt><trkpt lat="45.9417433" lon="8.4860633"><ele>197.0</ele><time>2026-03-29T09:37:36.945Z</time></trkpt><trkpt lat="45.9418833" lon="8.4861567"><ele>197.0</ele><time>2026-03-29T09:37:37.945Z</time></trkpt><trkpt lat="45.9420317" lon="8.4862567"><ele>197.0</ele><time>2026-03-29T09:37:38.945Z</time></trkpt><trkpt lat="45.9421783" lon="8.4863517"><ele>197.0</ele><time>2026-03-29T09:37:39.945Z</time></trkpt><trkpt lat="45.9423217" lon="8.4864483"><ele>196.66666666666669</ele><time>2026-03-29T09:37:40.945Z</time></trkpt><trkpt lat="45.942465" lon="8.4865583"><ele>196.33333333333331</ele><time>2026-03-29T09:37:41.945Z</time></trkpt><trkpt lat="45.9426083" lon="8.48666"><ele>196.0</ele><time>2026-03-29T09:37:42.945Z</time></trkpt><trkpt lat="45.9427567" lon="8.4867667"><ele>195.66666666666666</ele><time>2026-03-29T09:37:43.945Z</time></trkpt><trkpt lat="45.9429067" lon="8.4868733"><ele>195.33333333333331</ele><time>2026-03-29T09:37:44.945Z</time></trkpt><trkpt lat="45.9430483" lon="8.4869733"><ele>195.0</ele><time>2026-03-29T09:37:45.945Z</time></trkpt><trkpt lat="45.9431967" lon="8.4870783"><ele>195.0</ele><time>2026-03-29T09:37:46.945Z</time></trkpt><trkpt lat="45.9433367" lon="8.4871717"><ele>195.0</ele><time>2026-03-29T09:37:47.945Z</time></trkpt><trkpt lat="45.9434767" lon="8.48726"><ele>195.0</ele><time>2026-03-29T09:37:48.945Z</time></trkpt><trkpt lat="45.9436067" lon="8.4873633"><ele>195.0</ele><time>2026-03-29T09:37:49.945Z</time></trkpt><trkpt lat="45.9437417" lon="8.48746"><ele>195.0</ele><time>2026-03-29T09:37:50.944Z</time></trkpt><trkpt lat="45.9438683" lon="8.4875733"><ele>195.0</ele><time>2026-03-29T09:37:51.945Z</time></trkpt><trkpt lat="45.9439917" lon="8.48768"><ele>195.0</ele><time>2026-03-29T09:37:52.945Z</time></trkpt><trkpt lat="45.9441083" lon="8.4877867"><ele>195.5</ele><time>2026-03-29T09:37:53.945Z</time></trkpt><trkpt lat="45.9442217" lon="8.4878767"><ele>196.0</ele><time>2026-03-29T09:37:54.945Z</time></trkpt><trkpt lat="45.9443267" lon="8.4879533"><ele>196.5</ele><time>2026-03-29T09:37:55.944Z</time></trkpt><trkpt lat="45.944435" lon="8.4880433"><ele>197.0</ele><time>2026-03-29T09:37:56.945Z</time></trkpt><trkpt lat="45.944545" lon="8.4881367"><ele>197.0</ele><time>2026-03-29T09:37:57.944Z</time></trkpt><trkpt lat="45.9446467" lon="8.488225"><ele>197.0</ele><time>2026-03-29T09:37:58.945Z</time></trkpt><trkpt lat="45.94474" lon="8.4882983"><ele>197.0</ele><time>2026-03-29T09:37:59.945Z</time></trkpt><trkpt lat="45.9448233" lon="8.4883667"><ele>197.0</ele><time>2026-03-29T09:38:00.945Z</time></trkpt><trkpt lat="45.9449017" lon="8.4884283"><ele>197.0</ele><time>2026-03-29T09:38:01.945Z</time></trkpt><trkpt lat="45.944975" lon="8.4884867"><ele>197.16666666666669</ele><time>2026-03-29T09:38:02.945Z</time></trkpt><trkpt lat="45.9450483" lon="8.4885567"><ele>197.33333333333334</ele><time>2026-03-29T09:38:03.945Z</time></trkpt><trkpt lat="45.9451217" lon="8.48862"><ele>197.5</ele><time>2026-03-29T09:38:04.945Z</time></trkpt><trkpt lat="45.945195" lon="8.4886867"><ele>197.66666666666669</ele><time>2026-03-29T09:38:05.945Z</time></trkpt><trkpt lat="45.9452617" lon="8.4887583"><ele>197.83333333333334</ele><time>2026-03-29T09:38:06.945Z</time></trkpt><trkpt lat="45.9453183" lon="8.48882"><ele>198.0</ele><time>2026-03-29T09:38:07.945Z</time></trkpt><trkpt lat="45.9453667" lon="8.4888883"><ele>198.2</ele><time>2026-03-29T09:38:08.945Z</time></trkpt><trkpt lat="45.9454317" lon="8.488945"><ele>198.4</ele><time>2026-03-29T09:38:09.945Z</time></trkpt><trkpt lat="45.945505" lon="8.4890167"><ele>198.6</ele><time>2026-03-29T09:38:10.945Z</time></trkpt><trkpt lat="45.9455833" lon="8.4890983"><ele>198.79999999999998</ele><time>2026-03-29T09:38:11.945Z</time></trkpt><trkpt lat="45.945645" lon="8.4891933"><ele>199.0</ele><time>2026-03-29T09:38:12.945Z</time></trkpt><trkpt lat="45.945705" lon="8.4893083"><ele>199.0</ele><time>2026-03-29T09:38:13.945Z</time></trkpt><trkpt lat="45.94575" lon="8.4894283"><ele>199.0</ele><time>2026-03-29T09:38:14.945Z</time></trkpt><trkpt lat="45.9457867" lon="8.4895583"><ele>199.0</ele><time>2026-03-29T09:38:15.945Z</time></trkpt><trkpt lat="45.9458083" lon="8.48969"><ele>199.0</ele><time>2026-03-29T09:38:16.945Z</time></trkpt><trkpt lat="45.945825" lon="8.489825"><ele>199.0</ele><time>2026-03-29T09:38:17.945Z</time></trkpt><trkpt lat="45.9458317" lon="8.4899533"><ele>199.16666666666666</ele><time>2026-03-29T09:38:18.945Z</time></trkpt><trkpt lat="45.9458317" lon="8.4900683"><ele>199.33333333333331</ele><time>2026-03-29T09:38:19.945Z</time></trkpt><trkpt lat="45.9458217" lon="8.4901867"><ele>199.5</ele><time>2026-03-29T09:38:20.945Z</time></trkpt><trkpt lat="45.9458133" lon="8.4902967"><ele>199.66666666666669</ele><time>2026-03-29T09:38:21.945Z</time></trkpt><trkpt lat="45.9458067" lon="8.4904083"><ele>199.83333333333334</ele><time>2026-03-29T09:38:22.944Z</time></trkpt><trkpt lat="45.9457983" lon="8.490505"><ele>200.0</ele><time>2026-03-29T09:38:23.944Z</time></trkpt><trkpt lat="45.9457917" lon="8.4906"><ele>200.0</ele><time>2026-03-29T09:38:24.945Z</time></trkpt><trkpt lat="45.945785" lon="8.4907167"><ele>200.0</ele><time>2026-03-29T09:38:25.945Z</time></trkpt><trkpt lat="45.9457783" lon="8.4908517"><ele>200.0</ele><time>2026-03-29T09:38:26.945Z</time></trkpt><trkpt lat="45.9457667" lon="8.4910117"><ele>200.0</ele><time>2026-03-29T09:38:27.945Z</time></trkpt><trkpt lat="45.94576" lon="8.4911883"><ele>200.0</ele><time>2026-03-29T09:38:28.945Z</time></trkpt><trkpt lat="45.9457517" lon="8.4913867"><ele>200.66666666666669</ele><time>2026-03-29T09:38:29.945Z</time></trkpt><trkpt lat="45.9457483" lon="8.4916017"><ele>201.33333333333331</ele><time>2026-03-29T09:38:30.945Z</time></trkpt><trkpt lat="45.9457567" lon="8.4918333"><ele>202.0</ele><time>2026-03-29T09:38:31.945Z</time></trkpt><trkpt lat="45.945765" lon="8.4920733"><ele>201.66666666666666</ele><time>2026-03-29T09:38:32.945Z</time></trkpt><trkpt lat="45.9457733" lon="8.4922933"><ele>201.33333333333331</ele><time>2026-03-29T09:38:33.945Z</time></trkpt><trkpt lat="45.9457817" lon="8.492505"><ele>201.0</ele><time>2026-03-29T09:38:34.945Z</time></trkpt><trkpt lat="45.945785" lon="8.492735"><ele>201.33333333333331</ele><time>2026-03-29T09:38:35.945Z</time></trkpt><trkpt lat="45.945795" lon="8.4929717"><ele>201.66666666666666</ele><time>2026-03-29T09:38:36.945Z</time></trkpt><trkpt lat="45.9458017" lon="8.4932133"><ele>202.0</ele><time>2026-03-29T09:38:37.945Z</time></trkpt><trkpt lat="45.9458033" lon="8.4934683"><ele>202.0</ele><time>2026-03-29T09:38:38.945Z</time></trkpt><trkpt lat="45.9457967" lon="8.49373"><ele>202.0</ele><time>2026-03-29T09:38:39.945Z</time></trkpt><trkpt lat="45.94578" lon="8.4939933"><ele>202.0</ele><time>2026-03-29T09:38:40.945Z</time></trkpt><trkpt lat="45.9457683" lon="8.494245"><ele>202.0</ele><time>2026-03-29T09:38:41.944Z</time></trkpt><trkpt lat="45.94575" lon="8.4944933"><ele>202.0</ele><time>2026-03-29T09:38:42.945Z</time></trkpt><trkpt lat="45.9457233" lon="8.4947367"><ele>202.0</ele><time>2026-03-29T09:38:43.945Z</time></trkpt><trkpt lat="45.945705" lon="8.4949583"><ele>202.0</ele><time>2026-03-29T09:38:44.945Z</time></trkpt><trkpt lat="45.9456817" lon="8.4951767"><ele>202.0</ele><time>2026-03-29T09:38:45.944Z</time></trkpt><trkpt lat="45.945635" lon="8.4953683"><ele>202.0</ele><time>2026-03-29T09:38:46.945Z</time></trkpt><trkpt lat="45.9455333" lon="8.49567"><ele>202.25</ele><time>2026-03-29T09:38:48.945Z</time></trkpt><trkpt lat="45.945465" lon="8.4958183"><ele>202.5</ele><time>2026-03-29T09:38:49.945Z</time></trkpt><trkpt lat="45.9453883" lon="8.4959683"><ele>202.75</ele><time>2026-03-29T09:38:50.945Z</time></trkpt><trkpt lat="45.9453167" lon="8.496145"><ele>203.0</ele><time>2026-03-29T09:38:51.945Z</time></trkpt><trkpt lat="45.94525" lon="8.49632"><ele>203.0</ele><time>2026-03-29T09:38:52.945Z</time></trkpt><trkpt lat="45.9451867" lon="8.4964817"><ele>203.0</ele><time>2026-03-29T09:38:53.945Z</time></trkpt><trkpt lat="45.9451333" lon="8.4966467"><ele>203.0</ele><time>2026-03-29T09:38:54.945Z</time></trkpt><trkpt lat="45.9450717" lon="8.4967983"><ele>203.0</ele><time>2026-03-29T09:38:55.944Z</time></trkpt><trkpt lat="45.9450067" lon="8.4969533"><ele>203.5</ele><time>2026-03-29T09:38:56.945Z</time></trkpt><trkpt lat="45.9449483" lon="8.497115"><ele>204.0</ele><time>2026-03-29T09:38:57.945Z</time></trkpt><trkpt lat="45.94489" lon="8.49727"><ele>204.5</ele><time>2026-03-29T09:38:58.945Z</time></trkpt><trkpt lat="45.9448317" lon="8.4974167"><ele>205.0</ele><time>2026-03-29T09:38:59.945Z</time></trkpt><trkpt lat="45.9447733" lon="8.4975517"><ele>205.0</ele><time>2026-03-29T09:39:00.945Z</time></trkpt><trkpt lat="45.94473" lon="8.497685"><ele>205.0</ele><time>2026-03-29T09:39:01.945Z</time></trkpt><trkpt lat="45.944685" lon="8.4978033"><ele>205.0</ele><time>2026-03-29T09:39:02.944Z</time></trkpt><trkpt lat="45.944645" lon="8.497915"><ele>205.0</ele><time>2026-03-29T09:39:03.945Z</time></trkpt><trkpt lat="45.9446017" lon="8.4980233"><ele>205.0</ele><time>2026-03-29T09:39:04.945Z</time></trkpt><trkpt lat="45.9445617" lon="8.4981217"><ele>205.8</ele><time>2026-03-29T09:39:05.945Z</time></trkpt><trkpt lat="45.944515" lon="8.4982283"><ele>206.6</ele><time>2026-03-29T09:39:06.945Z</time></trkpt><trkpt lat="45.944465" lon="8.4983417"><ele>207.39999999999998</ele><time>2026-03-29T09:39:07.944Z</time></trkpt><trkpt lat="45.9444183" lon="8.49846"><ele>208.2</ele><time>2026-03-29T09:39:08.945Z</time></trkpt><trkpt lat="45.944375" lon="8.4985683"><ele>209.0</ele><time>2026-03-29T09:39:09.945Z</time></trkpt><trkpt lat="45.9443183" lon="8.4986733"><ele>207.39999999999998</ele><time>2026-03-29T09:39:10.945Z</time></trkpt><trkpt lat="45.9442567" lon="8.498765"><ele>205.8</ele><time>2026-03-29T09:39:11.945Z</time></trkpt><trkpt lat="45.9441933" lon="8.4988583"><ele>204.2</ele><time>2026-03-29T09:39:12.945Z</time></trkpt><trkpt lat="45.9441267" lon="8.4989483"><ele>202.60000000000002</ele><time>2026-03-29T09:39:13.945Z</time></trkpt><trkpt lat="45.9440567" lon="8.4990367"><ele>201.0</ele><time>2026-03-29T09:39:14.945Z</time></trkpt><trkpt lat="45.9439783" lon="8.4991167"><ele>201.0</ele><time>2026-03-29T09:39:15.945Z</time></trkpt><trkpt lat="45.9438983" lon="8.4991867"><ele>201.0</ele><time>2026-03-29T09:39:16.945Z</time></trkpt><trkpt lat="45.94382" lon="8.499255"><ele>201.0</ele><time>2026-03-29T09:39:17.945Z</time></trkpt><trkpt lat="45.9437433" lon="8.4993267"><ele>201.0</ele><time>2026-03-29T09:39:18.945Z</time></trkpt><trkpt lat="45.943665" lon="8.4993883"><ele>201.0</ele><time>2026-03-29T09:39:19.945Z</time></trkpt><trkpt lat="45.9435817" lon="8.4994483"><ele>201.0</ele><time>2026-03-29T09:39:20.945Z</time></trkpt><trkpt lat="45.9434917" lon="8.4995183"><ele>201.0</ele><time>2026-03-29T09:39:21.945Z</time></trkpt><trkpt lat="45.9434133" lon="8.4996067"><ele>201.0</ele><time>2026-03-29T09:39:22.944Z</time></trkpt><trkpt lat="45.943335" lon="8.4997017"><ele>201.0</ele><time>2026-03-29T09:39:23.944Z</time></trkpt><trkpt lat="45.9432617" lon="8.4997933"><ele>201.0</ele><time>2026-03-29T09:39:24.943Z</time></trkpt><trkpt lat="45.9431983" lon="8.4998667"><ele>201.16666666666666</ele><time>2026-03-29T09:39:25.944Z</time></trkpt><trkpt lat="45.9431433" lon="8.4999383"><ele>201.33333333333331</ele><time>2026-03-29T09:39:26.943Z</time></trkpt><trkpt lat="45.9430967" lon="8.5000217"><ele>201.5</ele><time>2026-03-29T09:39:27.944Z</time></trkpt><trkpt lat="45.94306" lon="8.500115"><ele>201.66666666666666</ele><time>2026-03-29T09:39:28.944Z</time></trkpt><trkpt lat="45.94302" lon="8.5002167"><ele>201.83333333333331</ele><time>2026-03-29T09:39:29.944Z</time></trkpt><trkpt lat="45.94298" lon="8.5003167"><ele>202.0</ele><time>2026-03-29T09:39:30.944Z</time></trkpt><trkpt lat="45.942945" lon="8.5004167"><ele>202.71428571428572</ele><time>2026-03-29T09:39:31.944Z</time></trkpt><trkpt lat="45.94291" lon="8.5005183"><ele>203.42857142857142</ele><time>2026-03-29T09:39:32.944Z</time></trkpt><trkpt lat="45.942875" lon="8.50061"><ele>204.14285714285717</ele><time>2026-03-29T09:39:33.944Z</time></trkpt><trkpt lat="45.9428433" lon="8.5007"><ele>204.85714285714286</ele><time>2026-03-29T09:39:34.944Z</time></trkpt><trkpt lat="45.9428183" lon="8.5007833"><ele>205.57142857142858</ele><time>2026-03-29T09:39:35.943Z</time></trkpt><trkpt lat="45.9427917" lon="8.5008717"><ele>206.2857142857143</ele><time>2026-03-29T09:39:36.944Z</time></trkpt><trkpt lat="45.942755" lon="8.5009767"><ele>207.0</ele><time>2026-03-29T09:39:37.944Z</time></trkpt><trkpt lat="45.9427117" lon="8.501105"><ele>205.25</ele><time>2026-03-29T09:39:38.944Z</time></trkpt><trkpt lat="45.94266" lon="8.5012717"><ele>203.5</ele><time>2026-03-29T09:39:39.944Z</time></trkpt><trkpt lat="45.9426017" lon="8.5014533"><ele>201.75</ele><time>2026-03-29T09:39:40.943Z</time></trkpt><trkpt lat="45.9425217" lon="8.501625"><ele>200.0</ele><time>2026-03-29T09:39:41.944Z</time></trkpt><trkpt lat="45.9424317" lon="8.5018083"><ele>200.0</ele><time>2026-03-29T09:39:42.944Z</time></trkpt><trkpt lat="45.942345" lon="8.5019917"><ele>200.0</ele><time>2026-03-29T09:39:43.944Z</time></trkpt><trkpt lat="45.9422533" lon="8.5021667"><ele>200.0</ele><time>2026-03-29T09:39:44.944Z</time></trkpt><trkpt lat="45.9421517" lon="8.502335"><ele>202.33333333333334</ele><time>2026-03-29T09:39:45.944Z</time></trkpt><trkpt lat="45.94203" lon="8.5024933"><ele>204.66666666666669</ele><time>2026-03-29T09:39:46.944Z</time></trkpt><trkpt lat="45.9419117" lon="8.5026383"><ele>207.0</ele><time>2026-03-29T09:39:47.944Z</time></trkpt><trkpt lat="45.941805" lon="8.5027817"><ele>206.25</ele><time>2026-03-29T09:39:48.944Z</time></trkpt><trkpt lat="45.9416983" lon="8.50291"><ele>205.5</ele><time>2026-03-29T09:39:49.943Z</time></trkpt><trkpt lat="45.9416017" lon="8.5030317"><ele>204.75</ele><time>2026-03-29T09:39:50.944Z</time></trkpt><trkpt lat="45.9415133" lon="8.5031733"><ele>204.0</ele><time>2026-03-29T09:39:51.944Z</time></trkpt><trkpt lat="45.9414417" lon="8.50333"><ele>204.0</ele><time>2026-03-29T09:39:52.943Z</time></trkpt><trkpt lat="45.9413833" lon="8.5035133"><ele>204.0</ele><time>2026-03-29T09:39:53.944Z</time></trkpt><trkpt lat="45.94134" lon="8.5036917"><ele>204.0</ele><time>2026-03-29T09:39:54.944Z</time></trkpt><trkpt lat="45.9413083" lon="8.5038733"><ele>204.0</ele><time>2026-03-29T09:39:55.944Z</time></trkpt><trkpt lat="45.941285" lon="8.504065"><ele>205.0</ele><time>2026-03-29T09:39:56.944Z</time></trkpt><trkpt lat="45.94129" lon="8.50427"><ele>206.0</ele><time>2026-03-29T09:39:57.943Z</time></trkpt><trkpt lat="45.94127" lon="8.504465"><ele>207.0</ele><time>2026-03-29T09:39:58.944Z</time></trkpt><trkpt lat="45.9412567" lon="8.5046483"><ele>208.0</ele><time>2026-03-29T09:39:59.944Z</time></trkpt><trkpt lat="45.9412483" lon="8.5048233"><ele>208.0</ele><time>2026-03-29T09:40:00.944Z</time></trkpt><trkpt lat="45.941225" lon="8.504995"><ele>208.0</ele><time>2026-03-29T09:40:01.944Z</time></trkpt><trkpt lat="45.941195" lon="8.5051783"><ele>208.0</ele><time>2026-03-29T09:40:02.943Z</time></trkpt><trkpt lat="45.9411633" lon="8.5053867"><ele>208.0</ele><time>2026-03-29T09:40:03.944Z</time></trkpt><trkpt lat="45.9411317" lon="8.5056067"><ele>210.0</ele><time>2026-03-29T09:40:04.943Z</time></trkpt><trkpt lat="45.9410983" lon="8.5058533"><ele>212.0</ele><time>2026-03-29T09:40:05.944Z</time></trkpt><trkpt lat="45.9410533" lon="8.5061283"><ele>214.0</ele><time>2026-03-29T09:40:06.944Z</time></trkpt><trkpt lat="45.9410017" lon="8.5064217"><ele>210.66666666666666</ele><time>2026-03-29T09:40:07.943Z</time></trkpt><trkpt lat="45.9409433" lon="8.5067317"><ele>207.33333333333331</ele><time>2026-03-29T09:40:08.944Z</time></trkpt><trkpt lat="45.9408867" lon="8.5070283"><ele>204.0</ele><time>2026-03-29T09:40:09.944Z</time></trkpt><trkpt lat="45.9408333" lon="8.5073083"><ele>204.0</ele><time>2026-03-29T09:40:10.944Z</time></trkpt><trkpt lat="45.94079" lon="8.5075633"><ele>204.0</ele><time>2026-03-29T09:40:11.944Z</time></trkpt><trkpt lat="45.9407517" lon="8.507805"><ele>204.0</ele><time>2026-03-29T09:40:12.944Z</time></trkpt><trkpt lat="45.9407167" lon="8.5080233"><ele>204.0</ele><time>2026-03-29T09:40:13.944Z</time></trkpt><trkpt lat="45.9406867" lon="8.508235"><ele>204.0</ele><time>2026-03-29T09:40:14.944Z</time></trkpt><trkpt lat="45.94065" lon="8.50845"><ele>204.0</ele><time>2026-03-29T09:40:15.944Z</time></trkpt><trkpt lat="45.9406283" lon="8.5086533"><ele>204.0</ele><time>2026-03-29T09:40:16.944Z</time></trkpt><trkpt lat="45.9406017" lon="8.508855"><ele>204.66666666666669</ele><time>2026-03-29T09:40:17.944Z</time></trkpt><trkpt lat="45.9405817" lon="8.5090633"><ele>205.33333333333334</ele><time>2026-03-29T09:40:18.944Z</time></trkpt><trkpt lat="45.9405517" lon="8.5093133"><ele>206.0</ele><time>2026-03-29T09:40:19.944Z</time></trkpt><trkpt lat="45.9405183" lon="8.5095967"><ele>207.0</ele><time>2026-03-29T09:40:20.944Z</time></trkpt><trkpt lat="45.940495" lon="8.509905"><ele>208.0</ele><time>2026-03-29T09:40:21.943Z</time></trkpt><trkpt lat="45.9404567" lon="8.5102433"><ele>209.5</ele><time>2026-03-29T09:40:22.944Z</time></trkpt><trkpt lat="45.94043" lon="8.5105967"><ele>211.0</ele><time>2026-03-29T09:40:23.944Z</time></trkpt><trkpt lat="45.9403933" lon="8.510915"><ele>211.0</ele><time>2026-03-29T09:40:24.944Z</time></trkpt><trkpt lat="45.9403483" lon="8.511215"><ele>211.0</ele><time>2026-03-29T09:40:25.944Z</time></trkpt><trkpt lat="45.940295" lon="8.5115017"><ele>211.0</ele><time>2026-03-29T09:40:26.944Z</time></trkpt><trkpt lat="45.9402283" lon="8.5117783"><ele>212.0</ele><time>2026-03-29T09:40:27.944Z</time></trkpt><trkpt lat="45.9401483" lon="8.5120567"><ele>213.0</ele><time>2026-03-29T09:40:28.944Z</time></trkpt><trkpt lat="45.9400667" lon="8.512345"><ele>214.0</ele><time>2026-03-29T09:40:29.944Z</time></trkpt><trkpt lat="45.9399833" lon="8.5126433"><ele>222.0</ele><time>2026-03-29T09:40:30.943Z</time></trkpt><trkpt lat="45.9398983" lon="8.51295"><ele>230.0</ele><time>2026-03-29T09:40:31.944Z</time></trkpt><trkpt lat="45.9398167" lon="8.5132533"><ele>230.0</ele><time>2026-03-29T09:40:32.944Z</time></trkpt><trkpt lat="45.9397283" lon="8.5135417"><ele>230.0</ele><time>2026-03-29T09:40:33.944Z</time></trkpt><trkpt lat="45.93965" lon="8.5138117"><ele>230.0</ele><time>2026-03-29T09:40:34.944Z</time></trkpt><trkpt lat="45.93957" lon="8.5140667"><ele>232.66666666666669</ele><time>2026-03-29T09:40:35.944Z</time></trkpt><trkpt lat="45.9394983" lon="8.5142933"><ele>235.33333333333331</ele><time>2026-03-29T09:40:36.944Z</time></trkpt><trkpt lat="45.939425" lon="8.5145083"><ele>238.0</ele><time>2026-03-29T09:40:37.944Z</time></trkpt><trkpt lat="45.93935" lon="8.514705"><ele>240.33333333333331</ele><time>2026-03-29T09:40:38.944Z</time></trkpt><trkpt lat="45.939255" lon="8.5148883"><ele>242.66666666666669</ele><time>2026-03-29T09:40:39.944Z</time></trkpt><trkpt lat="45.939155" lon="8.5150567"><ele>245.0</ele><time>2026-03-29T09:40:40.943Z</time></trkpt><trkpt lat="45.93905" lon="8.5152133"><ele>239.75</ele><time>2026-03-29T09:40:41.944Z</time></trkpt><trkpt lat="45.9389383" lon="8.515335"><ele>234.5</ele><time>2026-03-29T09:40:42.944Z</time></trkpt><trkpt lat="45.93882" lon="8.5154383"><ele>229.25</ele><time>2026-03-29T09:40:43.943Z</time></trkpt><trkpt lat="45.9386883" lon="8.5155233"><ele>224.0</ele><time>2026-03-29T09:40:44.944Z</time></trkpt><trkpt lat="45.9385633" lon="8.5155967"><ele>224.0</ele><time>2026-03-29T09:40:45.944Z</time></trkpt><trkpt lat="45.93844" lon="8.5156833"><ele>224.0</ele><time>2026-03-29T09:40:46.944Z</time></trkpt><trkpt lat="45.9383233" lon="8.5157867"><ele>224.0</ele><time>2026-03-29T09:40:47.944Z</time></trkpt><trkpt lat="45.9382183" lon="8.5159083"><ele>224.0</ele><time>2026-03-29T09:40:48.944Z</time></trkpt><trkpt lat="45.9381333" lon="8.5160517"><ele>221.75</ele><time>2026-03-29T09:40:49.943Z</time></trkpt><trkpt lat="45.9380533" lon="8.5162"><ele>219.5</ele><time>2026-03-29T09:40:50.944Z</time></trkpt><trkpt lat="45.9379767" lon="8.5163667"><ele>217.25</ele><time>2026-03-29T09:40:51.944Z</time></trkpt><trkpt lat="45.9379083" lon="8.51655"><ele>215.0</ele><time>2026-03-29T09:40:52.944Z</time></trkpt><trkpt lat="45.9378583" lon="8.5167483"><ele>215.0</ele><time>2026-03-29T09:40:53.944Z</time></trkpt><trkpt lat="45.9378133" lon="8.5169533"><ele>215.0</ele><time>2026-03-29T09:40:54.944Z</time></trkpt><trkpt lat="45.9377767" lon="8.5171667"><ele>215.0</ele><time>2026-03-29T09:40:55.944Z</time></trkpt><trkpt lat="45.9377367" lon="8.5173833"><ele>216.0</ele><time>2026-03-29T09:40:56.944Z</time></trkpt><trkpt lat="45.93771" lon="8.5175983"><ele>217.0</ele><time>2026-03-29T09:40:57.944Z</time></trkpt><trkpt lat="45.9376867" lon="8.5178067"><ele>218.0</ele><time>2026-03-29T09:40:58.944Z</time></trkpt><trkpt lat="45.9376617" lon="8.518"><ele>219.0</ele><time>2026-03-29T09:40:59.943Z</time></trkpt><trkpt lat="45.9376333" lon="8.5181667"><ele>220.0</ele><time>2026-03-29T09:41:00.944Z</time></trkpt><trkpt lat="45.93758" lon="8.5183417"><ele>221.0</ele><time>2026-03-29T09:41:01.944Z</time></trkpt><trkpt lat="45.93752" lon="8.5185017"><ele>222.0</ele><time>2026-03-29T09:41:02.943Z</time></trkpt><trkpt lat="45.937455" lon="8.5186667"><ele>223.0</ele><time>2026-03-29T09:41:03.944Z</time></trkpt><trkpt lat="45.9373917" lon="8.5188233"><ele>218.25</ele><time>2026-03-29T09:41:04.944Z</time></trkpt><trkpt lat="45.9373217" lon="8.5189717"><ele>213.5</ele><time>2026-03-29T09:41:05.943Z</time></trkpt><trkpt lat="45.9372633" lon="8.5191167"><ele>208.75</ele><time>2026-03-29T09:41:06.944Z</time></trkpt><trkpt lat="45.937205" lon="8.519265"><ele>204.0</ele><time>2026-03-29T09:41:07.944Z</time></trkpt><trkpt lat="45.93715" lon="8.5194167"><ele>204.0</ele><time>2026-03-29T09:41:08.944Z</time></trkpt><trkpt lat="45.937095" lon="8.5195667"><ele>204.0</ele><time>2026-03-29T09:41:09.944Z</time></trkpt><trkpt lat="45.9370333" lon="8.5197167"><ele>204.0</ele><time>2026-03-29T09:41:10.944Z</time></trkpt><trkpt lat="45.93697" lon="8.519845"><ele>204.0</ele><time>2026-03-29T09:41:11.944Z</time></trkpt><trkpt lat="45.93691" lon="8.5199867"><ele>203.6</ele><time>2026-03-29T09:41:12.944Z</time></trkpt><trkpt lat="45.936865" lon="8.5201267"><ele>203.2</ele><time>2026-03-29T09:41:13.944Z</time></trkpt><trkpt lat="45.93681" lon="8.5202717"><ele>202.79999999999998</ele><time>2026-03-29T09:41:14.944Z</time></trkpt><trkpt lat="45.9367583" lon="8.52041"><ele>202.39999999999998</ele><time>2026-03-29T09:41:15.944Z</time></trkpt><trkpt lat="45.9366983" lon="8.52054"><ele>202.0</ele><time>2026-03-29T09:41:16.944Z</time></trkpt><trkpt lat="45.93663" lon="8.5206783"><ele>202.0</ele><time>2026-03-29T09:41:17.944Z</time></trkpt><trkpt lat="45.9365683" lon="8.520845"><ele>202.0</ele><time>2026-03-29T09:41:18.944Z</time></trkpt><trkpt lat="45.9365133" lon="8.5210217"><ele>202.0</ele><time>2026-03-29T09:41:19.944Z</time></trkpt><trkpt lat="45.936465" lon="8.5212167"><ele>202.0</ele><time>2026-03-29T09:41:20.944Z</time></trkpt><trkpt lat="45.9364333" lon="8.5214317"><ele>204.0</ele><time>2026-03-29T09:41:21.944Z</time></trkpt><trkpt lat="45.9364067" lon="8.5216383"><ele>206.0</ele><time>2026-03-29T09:41:22.944Z</time></trkpt><trkpt lat="45.93639" lon="8.521845"><ele>208.0</ele><time>2026-03-29T09:41:23.944Z</time></trkpt><trkpt lat="45.936385" lon="8.522045"><ele>210.0</ele><time>2026-03-29T09:41:24.944Z</time></trkpt><trkpt lat="45.93637" lon="8.5222367"><ele>210.25</ele><time>2026-03-29T09:41:25.944Z</time></trkpt><trkpt lat="45.9363533" lon="8.5224283"><ele>210.5</ele><time>2026-03-29T09:41:26.944Z</time></trkpt><trkpt lat="45.936315" lon="8.52261"><ele>210.75</ele><time>2026-03-29T09:41:27.944Z</time></trkpt><trkpt lat="45.9362733" lon="8.5227983"><ele>211.0</ele><time>2026-03-29T09:41:28.944Z</time></trkpt><trkpt lat="45.9362233" lon="8.5229733"><ele>210.25</ele><time>2026-03-29T09:41:29.944Z</time></trkpt><trkpt lat="45.9361717" lon="8.5231283"><ele>209.5</ele><time>2026-03-29T09:41:30.944Z</time></trkpt><trkpt lat="45.9361283" lon="8.5232733"><ele>208.75</ele><time>2026-03-29T09:41:31.943Z</time></trkpt><trkpt lat="45.9360867" lon="8.523425"><ele>208.0</ele><time>2026-03-29T09:41:32.943Z</time></trkpt><trkpt lat="45.9360367" lon="8.5235833"><ele>207.5</ele><time>2026-03-29T09:41:33.944Z</time></trkpt><trkpt lat="45.9359783" lon="8.5237467"><ele>207.0</ele><time>2026-03-29T09:41:34.944Z</time></trkpt><trkpt lat="45.9359183" lon="8.5239217"><ele>206.5</ele><time>2026-03-29T09:41:35.944Z</time></trkpt><trkpt lat="45.9358467" lon="8.5240917"><ele>206.0</ele><time>2026-03-29T09:41:36.944Z</time></trkpt><trkpt lat="45.93578" lon="8.5242467"><ele>206.0</ele><time>2026-03-29T09:41:37.944Z</time></trkpt><trkpt lat="45.9356933" lon="8.52439"><ele>206.0</ele><time>2026-03-29T09:41:38.944Z</time></trkpt><trkpt lat="45.9355933" lon="8.52452"><ele>206.0</ele><time>2026-03-29T09:41:39.944Z</time></trkpt><trkpt lat="45.935485" lon="8.5246567"><ele>206.0</ele><time>2026-03-29T09:41:40.944Z</time></trkpt><trkpt lat="45.9353833" lon="8.5247967"><ele>207.5</ele><time>2026-03-29T09:41:41.944Z</time></trkpt><trkpt lat="45.9352917" lon="8.524945"><ele>209.0</ele><time>2026-03-29T09:41:42.944Z</time></trkpt><trkpt lat="45.9352133" lon="8.5251017"><ele>210.5</ele><time>2026-03-29T09:41:43.944Z</time></trkpt><trkpt lat="45.9351417" lon="8.5252617"><ele>212.0</ele><time>2026-03-29T09:41:44.944Z</time></trkpt><trkpt lat="45.9350817" lon="8.5254367"><ele>210.75</ele><time>2026-03-29T09:41:45.944Z</time></trkpt><trkpt lat="45.9350267" lon="8.5256267"><ele>209.5</ele><time>2026-03-29T09:41:46.944Z</time></trkpt><trkpt lat="45.93497" lon="8.52582"><ele>208.25</ele><time>2026-03-29T09:41:47.944Z</time></trkpt><trkpt lat="45.9349217" lon="8.52602"><ele>207.0</ele><time>2026-03-29T09:41:48.944Z</time></trkpt><trkpt lat="45.9348867" lon="8.5262217"><ele>208.0</ele><time>2026-03-29T09:41:49.944Z</time></trkpt><trkpt lat="45.9348617" lon="8.5264283"><ele>209.0</ele><time>2026-03-29T09:41:50.944Z</time></trkpt><trkpt lat="45.9348383" lon="8.52662"><ele>210.0</ele><time>2026-03-29T09:41:51.944Z</time></trkpt><trkpt lat="45.9348217" lon="8.5268017"><ele>211.0</ele><time>2026-03-29T09:41:52.944Z</time></trkpt><trkpt lat="45.9348017" lon="8.5269717"><ele>211.5</ele><time>2026-03-29T09:41:53.944Z</time></trkpt><trkpt lat="45.9347733" lon="8.5271417"><ele>212.0</ele><time>2026-03-29T09:41:54.944Z</time></trkpt><trkpt lat="45.9347433" lon="8.5273233"><ele>212.5</ele><time>2026-03-29T09:41:55.944Z</time></trkpt><trkpt lat="45.9347033" lon="8.52752"><ele>213.0</ele><time>2026-03-29T09:41:56.944Z</time></trkpt><trkpt lat="45.9346533" lon="8.52772"><ele>214.5</ele><time>2026-03-29T09:41:57.944Z</time></trkpt><trkpt lat="45.93461" lon="8.5279133"><ele>216.0</ele><time>2026-03-29T09:41:58.944Z</time></trkpt><trkpt lat="45.9345767" lon="8.5280933"><ele>217.5</ele><time>2026-03-29T09:41:59.944Z</time></trkpt><trkpt lat="45.9345417" lon="8.5282833"><ele>219.0</ele><time>2026-03-29T09:42:00.944Z</time></trkpt><trkpt lat="45.9345083" lon="8.528475"><ele>219.0</ele><time>2026-03-29T09:42:01.944Z</time></trkpt><trkpt lat="45.9344783" lon="8.5286733"><ele>219.0</ele><time>2026-03-29T09:42:02.944Z</time></trkpt><trkpt lat="45.9344483" lon="8.5288567"><ele>219.0</ele><time>2026-03-29T09:42:03.944Z</time></trkpt><trkpt lat="45.9344083" lon="8.5290583"><ele>219.0</ele><time>2026-03-29T09:42:04.944Z</time></trkpt><trkpt lat="45.9343633" lon="8.52926"><ele>217.25</ele><time>2026-03-29T09:42:05.944Z</time></trkpt><trkpt lat="45.9343217" lon="8.5294567"><ele>215.5</ele><time>2026-03-29T09:42:06.944Z</time></trkpt><trkpt lat="45.93428" lon="8.5296667"><ele>213.75</ele><time>2026-03-29T09:42:07.944Z</time></trkpt><trkpt lat="45.934235" lon="8.529865"><ele>212.0</ele><time>2026-03-29T09:42:08.944Z</time></trkpt><trkpt lat="45.9341967" lon="8.5301067"><ele>212.0</ele><time>2026-03-29T09:42:09.943Z</time></trkpt><trkpt lat="45.9341567" lon="8.5303817"><ele>212.0</ele><time>2026-03-29T09:42:10.944Z</time></trkpt><trkpt lat="45.9341133" lon="8.5306883"><ele>212.0</ele><time>2026-03-29T09:42:11.944Z</time></trkpt><trkpt lat="45.9340567" lon="8.531005"><ele>216.0</ele><time>2026-03-29T09:42:12.944Z</time></trkpt><trkpt lat="45.9339883" lon="8.5312983"><ele>220.0</ele><time>2026-03-29T09:42:13.944Z</time></trkpt><trkpt lat="45.933915" lon="8.5315433"><ele>224.0</ele><time>2026-03-29T09:42:14.943Z</time></trkpt><trkpt lat="45.9338233" lon="8.5317817"><ele>224.0</ele><time>2026-03-29T09:42:15.944Z</time></trkpt><trkpt lat="45.9337333" lon="8.53204"><ele>224.0</ele><time>2026-03-29T09:42:16.943Z</time></trkpt><trkpt lat="45.93366" lon="8.532315"><ele>224.0</ele><time>2026-03-29T09:42:17.943Z</time></trkpt><trkpt lat="45.9335883" lon="8.5325917"><ele>225.66666666666669</ele><time>2026-03-29T09:42:18.943Z</time></trkpt><trkpt lat="45.933525" lon="8.5328767"><ele>227.33333333333331</ele><time>2026-03-29T09:42:19.943Z</time></trkpt><trkpt lat="45.9334767" lon="8.53319"><ele>229.0</ele><time>2026-03-29T09:42:20.943Z</time></trkpt><trkpt lat="45.9334467" lon="8.5335067"><ele>226.0</ele><time>2026-03-29T09:42:21.943Z</time></trkpt><trkpt lat="45.9334017" lon="8.5338183"><ele>223.0</ele><time>2026-03-29T09:42:22.943Z</time></trkpt><trkpt lat="45.9333633" lon="8.534135"><ele>220.0</ele><time>2026-03-29T09:42:23.943Z</time></trkpt><trkpt lat="45.9333233" lon="8.5344517"><ele>221.5</ele><time>2026-03-29T09:42:24.943Z</time></trkpt><trkpt lat="45.9332667" lon="8.5347717"><ele>223.0</ele><time>2026-03-29T09:42:25.943Z</time></trkpt><trkpt lat="45.9332117" lon="8.5350983"><ele>224.0</ele><time>2026-03-29T09:42:26.943Z</time></trkpt><trkpt lat="45.9331483" lon="8.5354283"><ele>225.0</ele><time>2026-03-29T09:42:27.943Z</time></trkpt><trkpt lat="45.9331017" lon="8.5357367"><ele>225.0</ele><time>2026-03-29T09:42:28.943Z</time></trkpt><trkpt lat="45.93305" lon="8.5360267"><ele>225.0</ele><time>2026-03-29T09:42:29.943Z</time></trkpt><trkpt lat="45.9330017" lon="8.536285"><ele>225.0</ele><time>2026-03-29T09:42:30.943Z</time></trkpt><trkpt lat="45.93296" lon="8.5365317"><ele>227.0</ele><time>2026-03-29T09:42:31.943Z</time></trkpt><trkpt lat="45.9329233" lon="8.5367783"><ele>229.0</ele><time>2026-03-29T09:42:32.943Z</time></trkpt><trkpt lat="45.9328883" lon="8.5370433"><ele>231.0</ele><time>2026-03-29T09:42:33.942Z</time></trkpt><trkpt lat="45.93286" lon="8.5373"><ele>233.33333333333331</ele><time>2026-03-29T09:42:34.943Z</time></trkpt><trkpt lat="45.93283" lon="8.5375517"><ele>235.66666666666666</ele><time>2026-03-29T09:42:35.942Z</time></trkpt><trkpt lat="45.9328067" lon="8.5377917"><ele>238.0</ele><time>2026-03-29T09:42:36.943Z</time></trkpt><trkpt lat="45.9327867" lon="8.5380083"><ele>240.33333333333331</ele><time>2026-03-29T09:42:37.943Z</time></trkpt><trkpt lat="45.93278" lon="8.5382267"><ele>242.66666666666669</ele><time>2026-03-29T09:42:38.943Z</time></trkpt><trkpt lat="45.9327667" lon="8.5384667"><ele>245.0</ele><time>2026-03-29T09:42:39.943Z</time></trkpt><trkpt lat="45.9327417" lon="8.5387333"><ele>246.33333333333334</ele><time>2026-03-29T09:42:40.943Z</time></trkpt><trkpt lat="45.93271" lon="8.5390167"><ele>247.66666666666669</ele><time>2026-03-29T09:42:41.942Z</time></trkpt><trkpt lat="45.9326667" lon="8.5393067"><ele>249.0</ele><time>2026-03-29T09:42:42.943Z</time></trkpt><trkpt lat="45.9326133" lon="8.539605"><ele>242.0</ele><time>2026-03-29T09:42:43.943Z</time></trkpt><trkpt lat="45.9325483" lon="8.5399117"><ele>235.0</ele><time>2026-03-29T09:42:44.942Z</time></trkpt><trkpt lat="45.9324833" lon="8.540205"><ele>228.0</ele><time>2026-03-29T09:42:45.943Z</time></trkpt><trkpt lat="45.932415" lon="8.5405017"><ele>228.0</ele><time>2026-03-29T09:42:46.943Z</time></trkpt><trkpt lat="45.932355" lon="8.5408"><ele>228.0</ele><time>2026-03-29T09:42:47.943Z</time></trkpt><trkpt lat="45.9322933" lon="8.5410967"><ele>228.0</ele><time>2026-03-29T09:42:48.943Z</time></trkpt><trkpt lat="45.932235" lon="8.5413817"><ele>229.0</ele><time>2026-03-29T09:42:49.943Z</time></trkpt><trkpt lat="45.9321767" lon="8.5416483"><ele>230.0</ele><time>2026-03-29T09:42:50.943Z</time></trkpt><trkpt lat="45.9321317" lon="8.5419083"><ele>231.0</ele><time>2026-03-29T09:42:51.943Z</time></trkpt><trkpt lat="45.932075" lon="8.5421533"><ele>231.33333333333331</ele><time>2026-03-29T09:42:52.943Z</time></trkpt><trkpt lat="45.9320083" lon="8.5423767"><ele>231.66666666666666</ele><time>2026-03-29T09:42:53.943Z</time></trkpt><trkpt lat="45.9319483" lon="8.54258"><ele>232.0</ele><time>2026-03-29T09:42:54.943Z</time></trkpt><trkpt lat="45.931865" lon="8.5427733"><ele>232.0</ele><time>2026-03-29T09:42:55.943Z</time></trkpt><trkpt lat="45.9317833" lon="8.5429583"><ele>232.0</ele><time>2026-03-29T09:42:56.943Z</time></trkpt><trkpt lat="45.9316983" lon="8.543125"><ele>232.0</ele><time>2026-03-29T09:42:57.943Z</time></trkpt><trkpt lat="45.9316183" lon="8.5432817"><ele>232.0</ele><time>2026-03-29T09:42:58.942Z</time></trkpt><trkpt lat="45.931535" lon="8.54345"><ele>226.0</ele><time>2026-03-29T09:42:59.943Z</time></trkpt><trkpt lat="45.9314483" lon="8.54363"><ele>220.0</ele><time>2026-03-29T09:43:00.943Z</time></trkpt><trkpt lat="45.9313533" lon="8.5438283"><ele>214.0</ele><time>2026-03-29T09:43:01.942Z</time></trkpt><trkpt lat="45.9312567" lon="8.5440283"><ele>213.33333333333331</ele><time>2026-03-29T09:43:02.943Z</time></trkpt><trkpt lat="45.9311667" lon="8.5442333"><ele>212.66666666666669</ele><time>2026-03-29T09:43:03.943Z</time></trkpt><trkpt lat="45.9310667" lon="8.54444"><ele>212.0</ele><time>2026-03-29T09:43:04.943Z</time></trkpt><trkpt lat="45.93096" lon="8.5446533"><ele>210.66666666666669</ele><time>2026-03-29T09:43:05.943Z</time></trkpt><trkpt lat="45.93086" lon="8.5448883"><ele>209.33333333333331</ele><time>2026-03-29T09:43:06.942Z</time></trkpt><trkpt lat="45.9307567" lon="8.5451217"><ele>208.0</ele><time>2026-03-29T09:43:07.943Z</time></trkpt><trkpt lat="45.9306617" lon="8.5453433"><ele>207.66666666666666</ele><time>2026-03-29T09:43:08.943Z</time></trkpt><trkpt lat="45.93055" lon="8.5455483"><ele>207.33333333333331</ele><time>2026-03-29T09:43:09.943Z</time></trkpt><trkpt lat="45.9304567" lon="8.545755"><ele>207.0</ele><time>2026-03-29T09:43:10.943Z</time></trkpt><trkpt lat="45.9303717" lon="8.54597"><ele>207.0</ele><time>2026-03-29T09:43:11.943Z</time></trkpt><trkpt lat="45.93027" lon="8.5461783"><ele>207.0</ele><time>2026-03-29T09:43:12.943Z</time></trkpt><trkpt lat="45.9301733" lon="8.5463867"><ele>207.0</ele><time>2026-03-29T09:43:13.943Z</time></trkpt><trkpt lat="45.930075" lon="8.5466017"><ele>207.25</ele><time>2026-03-29T09:43:14.943Z</time></trkpt><trkpt lat="45.9299817" lon="8.5467883"><ele>207.5</ele><time>2026-03-29T09:43:15.943Z</time></trkpt><trkpt lat="45.9299017" lon="8.5469517"><ele>207.75</ele><time>2026-03-29T09:43:16.943Z</time></trkpt><trkpt lat="45.9298333" lon="8.547085"><ele>208.0</ele><time>2026-03-29T09:43:17.942Z</time></trkpt><trkpt lat="45.9297833" lon="8.547195"><ele>208.16666666666666</ele><time>2026-03-29T09:43:18.943Z</time></trkpt><trkpt lat="45.929735" lon="8.5472817"><ele>208.33333333333331</ele><time>2026-03-29T09:43:19.943Z</time></trkpt><trkpt lat="45.9296917" lon="8.5473617"><ele>208.5</ele><time>2026-03-29T09:43:20.943Z</time></trkpt><trkpt lat="45.9296433" lon="8.5474383"><ele>208.66666666666669</ele><time>2026-03-29T09:43:21.943Z</time></trkpt><trkpt lat="45.9295967" lon="8.547505"><ele>208.83333333333334</ele><time>2026-03-29T09:43:22.943Z</time></trkpt><trkpt lat="45.9295633" lon="8.5475867"><ele>209.0</ele><time>2026-03-29T09:43:23.943Z</time></trkpt><trkpt lat="45.9295333" lon="8.5477567"><ele>209.0</ele><time>2026-03-29T09:43:25.943Z</time></trkpt><trkpt lat="45.929525" lon="8.5478633"><ele>209.0</ele><time>2026-03-29T09:43:26.943Z</time></trkpt><trkpt lat="45.9295117" lon="8.5479967"><ele>209.0</ele><time>2026-03-29T09:43:27.943Z</time></trkpt><trkpt lat="45.9294933" lon="8.5481383"><ele>209.0</ele><time>2026-03-29T09:43:28.943Z</time></trkpt><trkpt lat="45.9294667" lon="8.5483017"><ele>209.0</ele><time>2026-03-29T09:43:29.943Z</time></trkpt><trkpt lat="45.9294233" lon="8.5484967"><ele>209.33333333333334</ele><time>2026-03-29T09:43:30.943Z</time></trkpt><trkpt lat="45.9294133" lon="8.5487283"><ele>209.66666666666669</ele><time>2026-03-29T09:43:31.943Z</time></trkpt><trkpt lat="45.929355" lon="8.5489433"><ele>210.0</ele><time>2026-03-29T09:43:32.942Z</time></trkpt><trkpt lat="45.929315" lon="8.5491617"><ele>210.0</ele><time>2026-03-29T09:43:33.943Z</time></trkpt><trkpt lat="45.9292733" lon="8.5493817"><ele>210.0</ele><time>2026-03-29T09:43:34.943Z</time></trkpt><trkpt lat="45.929245" lon="8.5496217"><ele>210.0</ele><time>2026-03-29T09:43:35.943Z</time></trkpt><trkpt lat="45.9291983" lon="8.5498533"><ele>210.33333333333331</ele><time>2026-03-29T09:43:36.943Z</time></trkpt><trkpt lat="45.9291533" lon="8.550105"><ele>210.66666666666666</ele><time>2026-03-29T09:43:37.943Z</time></trkpt><trkpt lat="45.92912" lon="8.5503633"><ele>211.0</ele><time>2026-03-29T09:43:38.943Z</time></trkpt><trkpt lat="45.9290833" lon="8.5506317"><ele>211.0</ele><time>2026-03-29T09:43:39.943Z</time></trkpt><trkpt lat="45.92904" lon="8.550885"><ele>211.0</ele><time>2026-03-29T09:43:40.943Z</time></trkpt><trkpt lat="45.928995" lon="8.5511267"><ele>211.0</ele><time>2026-03-29T09:43:41.943Z</time></trkpt><trkpt lat="45.9289483" lon="8.5513433"><ele>211.0</ele><time>2026-03-29T09:43:42.942Z</time></trkpt><trkpt lat="45.928895" lon="8.55155"><ele>211.0</ele><time>2026-03-29T09:43:43.943Z</time></trkpt><trkpt lat="45.928845" lon="8.551735"><ele>211.0</ele><time>2026-03-29T09:43:44.942Z</time></trkpt><trkpt lat="45.9288067" lon="8.5518983"><ele>211.0</ele><time>2026-03-29T09:43:45.943Z</time></trkpt><trkpt lat="45.9287633" lon="8.552035"><ele>212.0</ele><time>2026-03-29T09:43:46.943Z</time></trkpt><trkpt lat="45.9287283" lon="8.5521567"><ele>213.0</ele><time>2026-03-29T09:43:47.943Z</time></trkpt><trkpt lat="45.928695" lon="8.552265"><ele>214.00000000000003</ele><time>2026-03-29T09:43:48.943Z</time></trkpt><trkpt lat="45.9286633" lon="8.5523517"><ele>215.0</ele><time>2026-03-29T09:43:49.943Z</time></trkpt><trkpt lat="45.9285933" lon="8.55252"><ele>216.0</ele><time>2026-03-29T09:43:51.942Z</time></trkpt><trkpt lat="45.9285467" lon="8.5526267"><ele>216.0</ele><time>2026-03-29T09:43:52.943Z</time></trkpt><trkpt lat="45.9285083" lon="8.5527583"><ele>216.0</ele><time>2026-03-29T09:43:53.943Z</time></trkpt><trkpt lat="45.9284817" lon="8.5529283"><ele>216.0</ele><time>2026-03-29T09:43:54.943Z</time></trkpt><trkpt lat="45.92847" lon="8.5531267"><ele>216.0</ele><time>2026-03-29T09:43:55.943Z</time></trkpt><trkpt lat="45.9284483" lon="8.5533017"><ele>216.20000000000002</ele><time>2026-03-29T09:43:56.943Z</time></trkpt><trkpt lat="45.928425" lon="8.553455"><ele>216.40000000000003</ele><time>2026-03-29T09:43:57.943Z</time></trkpt><trkpt lat="45.928405" lon="8.55359"><ele>216.6</ele><time>2026-03-29T09:43:58.943Z</time></trkpt><trkpt lat="45.9283883" lon="8.5537133"><ele>216.8</ele><time>2026-03-29T09:43:59.943Z</time></trkpt><trkpt lat="45.928375" lon="8.5538533"><ele>217.0</ele><time>2026-03-29T09:44:00.942Z</time></trkpt><trkpt lat="45.9283533" lon="8.5540183"><ele>217.0</ele><time>2026-03-29T09:44:01.943Z</time></trkpt><trkpt lat="45.9283283" lon="8.5542017"><ele>217.0</ele><time>2026-03-29T09:44:02.943Z</time></trkpt><trkpt lat="45.9283" lon="8.5543933"><ele>217.0</ele><time>2026-03-29T09:44:03.943Z</time></trkpt><trkpt lat="45.9282717" lon="8.5545883"><ele>217.0</ele><time>2026-03-29T09:44:04.943Z</time></trkpt><trkpt lat="45.928255" lon="8.5547583"><ele>216.2</ele><time>2026-03-29T09:44:05.943Z</time></trkpt><trkpt lat="45.9282517" lon="8.55491"><ele>215.39999999999998</ele><time>2026-03-29T09:44:06.943Z</time></trkpt><trkpt lat="45.9282567" lon="8.5550467"><ele>214.60000000000002</ele><time>2026-03-29T09:44:07.943Z</time></trkpt><trkpt lat="45.9282367" lon="8.55515"><ele>213.8</ele><time>2026-03-29T09:44:08.943Z</time></trkpt><trkpt lat="45.9282167" lon="8.5552383"><ele>213.0</ele><time>2026-03-29T09:44:09.943Z</time></trkpt><trkpt lat="45.9281883" lon="8.55541"><ele>212.8</ele><time>2026-03-29T09:44:11.943Z</time></trkpt><trkpt lat="45.9281817" lon="8.5555083"><ele>212.60000000000002</ele><time>2026-03-29T09:44:12.943Z</time></trkpt><trkpt lat="45.928175" lon="8.5556167"><ele>212.39999999999998</ele><time>2026-03-29T09:44:13.943Z</time></trkpt><trkpt lat="45.9281683" lon="8.55573"><ele>212.2</ele><time>2026-03-29T09:44:14.942Z</time></trkpt><trkpt lat="45.9281567" lon="8.5558783"><ele>212.0</ele><time>2026-03-29T09:44:15.942Z</time></trkpt><trkpt lat="45.9281267" lon="8.55605"><ele>212.0</ele><time>2026-03-29T09:44:16.943Z</time></trkpt><trkpt lat="45.9281017" lon="8.5562133"><ele>212.0</ele><time>2026-03-29T09:44:17.943Z</time></trkpt><trkpt lat="45.9280817" lon="8.556345"><ele>212.0</ele><time>2026-03-29T09:44:18.943Z</time></trkpt><trkpt lat="45.9280667" lon="8.5564683"><ele>212.0</ele><time>2026-03-29T09:44:19.942Z</time></trkpt><trkpt lat="45.928055" lon="8.556585"><ele>212.0</ele><time>2026-03-29T09:44:20.943Z</time></trkpt><trkpt lat="45.9280417" lon="8.5567033"><ele>212.00000000000003</ele><time>2026-03-29T09:44:21.943Z</time></trkpt><trkpt lat="45.9280283" lon="8.556825"><ele>212.0</ele><time>2026-03-29T09:44:22.943Z</time></trkpt><trkpt lat="45.92802" lon="8.5569517"><ele>212.0</ele><time>2026-03-29T09:44:23.943Z</time></trkpt><trkpt lat="45.9280133" lon="8.557065"><ele>212.0</ele><time>2026-03-29T09:44:24.942Z</time></trkpt><trkpt lat="45.9280083" lon="8.5571767"><ele>212.00000000000003</ele><time>2026-03-29T09:44:25.943Z</time></trkpt><trkpt lat="45.9280017" lon="8.5572983"><ele>212.0</ele><time>2026-03-29T09:44:26.943Z</time></trkpt><trkpt lat="45.92799" lon="8.55743"><ele>211.75</ele><time>2026-03-29T09:44:27.942Z</time></trkpt><trkpt lat="45.9279767" lon="8.5575917"><ele>211.5</ele><time>2026-03-29T09:44:28.943Z</time></trkpt><trkpt lat="45.9279667" lon="8.557785"><ele>211.25</ele><time>2026-03-29T09:44:29.943Z</time></trkpt><trkpt lat="45.9279583" lon="8.5579917"><ele>211.0</ele><time>2026-03-29T09:44:30.943Z</time></trkpt><trkpt lat="45.9279467" lon="8.558185"><ele>211.0</ele><time>2026-03-29T09:44:31.943Z</time></trkpt><trkpt lat="45.9279383" lon="8.5583333"><ele>211.0</ele><time>2026-03-29T09:44:32.943Z</time></trkpt><trkpt lat="45.927925" lon="8.5584483"><ele>211.0</ele><time>2026-03-29T09:44:33.943Z</time></trkpt><trkpt lat="45.927925" lon="8.558565"><ele>211.0</ele><time>2026-03-29T09:44:34.943Z</time></trkpt><trkpt lat="45.9279233" lon="8.5587"><ele>211.0</ele><time>2026-03-29T09:44:35.943Z</time></trkpt><trkpt lat="45.9279133" lon="8.5588367"><ele>210.99999999999997</ele><time>2026-03-29T09:44:36.943Z</time></trkpt><trkpt lat="45.9279067" lon="8.5589533"><ele>211.0</ele><time>2026-03-29T09:44:37.943Z</time></trkpt><trkpt lat="45.9279033" lon="8.5590567"><ele>211.0</ele><time>2026-03-29T09:44:38.943Z</time></trkpt><trkpt lat="45.9278933" lon="8.5591583"><ele>211.0</ele><time>2026-03-29T09:44:39.943Z</time></trkpt><trkpt lat="45.9278717" lon="8.5592767"><ele>210.99999999999997</ele><time>2026-03-29T09:44:40.943Z</time></trkpt><trkpt lat="45.9278567" lon="8.5594133"><ele>211.0</ele><time>2026-03-29T09:44:41.943Z</time></trkpt><trkpt lat="45.9278417" lon="8.5595467"><ele>211.0</ele><time>2026-03-29T09:44:42.943Z</time></trkpt><trkpt lat="45.9278267" lon="8.5596733"><ele>211.0</ele><time>2026-03-29T09:44:43.943Z</time></trkpt><trkpt lat="45.92781" lon="8.5598233"><ele>211.0</ele><time>2026-03-29T09:44:44.943Z</time></trkpt><trkpt lat="45.92779" lon="8.5600033"><ele>211.0</ele><time>2026-03-29T09:44:45.943Z</time></trkpt><trkpt lat="45.9277717" lon="8.5602117"><ele>211.0</ele><time>2026-03-29T09:44:46.943Z</time></trkpt><trkpt lat="45.9277383" lon="8.560425"><ele>211.0</ele><time>2026-03-29T09:44:47.943Z</time></trkpt><trkpt lat="45.9277133" lon="8.5606333"><ele>211.0</ele><time>2026-03-29T09:44:48.943Z</time></trkpt><trkpt lat="45.927705" lon="8.560805"><ele>211.0</ele><time>2026-03-29T09:44:49.943Z</time></trkpt><trkpt lat="45.9276933" lon="8.56093"><ele>211.0</ele><time>2026-03-29T09:44:50.943Z</time></trkpt><trkpt lat="45.92768" lon="8.5611017"><ele>211.0</ele><time>2026-03-29T09:44:52.943Z</time></trkpt><trkpt lat="45.9276717" lon="8.561195"><ele>211.0</ele><time>2026-03-29T09:44:53.943Z</time></trkpt><trkpt lat="45.92766" lon="8.5613083"><ele>211.0</ele><time>2026-03-29T09:44:54.943Z</time></trkpt><trkpt lat="45.9276383" lon="8.561465"><ele>211.0</ele><time>2026-03-29T09:44:55.943Z</time></trkpt><trkpt lat="45.9276033" lon="8.561665"><ele>210.33333333333331</ele><time>2026-03-29T09:44:56.943Z</time></trkpt><trkpt lat="45.927575" lon="8.5618733"><ele>209.66666666666669</ele><time>2026-03-29T09:44:57.943Z</time></trkpt><trkpt lat="45.9275367" lon="8.56211"><ele>209.0</ele><time>2026-03-29T09:44:58.943Z</time></trkpt><trkpt lat="45.9274817" lon="8.5623767"><ele>209.0</ele><time>2026-03-29T09:44:59.943Z</time></trkpt><trkpt lat="45.9274483" lon="8.5626383"><ele>209.0</ele><time>2026-03-29T09:45:00.943Z</time></trkpt><trkpt lat="45.9274183" lon="8.562895"><ele>209.0</ele><time>2026-03-29T09:45:01.943Z</time></trkpt><trkpt lat="45.9273783" lon="8.5631667"><ele>208.33333333333334</ele><time>2026-03-29T09:45:02.943Z</time></trkpt><trkpt lat="45.9273483" lon="8.563445"><ele>207.66666666666669</ele><time>2026-03-29T09:45:03.942Z</time></trkpt><trkpt lat="45.9273167" lon="8.5637167"><ele>207.0</ele><time>2026-03-29T09:45:04.942Z</time></trkpt><trkpt lat="45.9273" lon="8.563995"><ele>207.0</ele><time>2026-03-29T09:45:05.943Z</time></trkpt><trkpt lat="45.9272567" lon="8.56427"><ele>207.0</ele><time>2026-03-29T09:45:06.943Z</time></trkpt><trkpt lat="45.927215" lon="8.5645217"><ele>207.0</ele><time>2026-03-29T09:45:07.943Z</time></trkpt><trkpt lat="45.92719" lon="8.5647583"><ele>206.75</ele><time>2026-03-29T09:45:08.942Z</time></trkpt><trkpt lat="45.9271667" lon="8.56497"><ele>206.5</ele><time>2026-03-29T09:45:09.942Z</time></trkpt><trkpt lat="45.92717" lon="8.56516"><ele>206.25</ele><time>2026-03-29T09:45:10.943Z</time></trkpt><trkpt lat="45.927195" lon="8.5653383"><ele>206.0</ele><time>2026-03-29T09:45:11.942Z</time></trkpt><trkpt lat="45.9272317" lon="8.565515"><ele>204.33333333333334</ele><time>2026-03-29T09:45:12.942Z</time></trkpt><trkpt lat="45.9272883" lon="8.5657083"><ele>202.66666666666669</ele><time>2026-03-29T09:45:13.942Z</time></trkpt><trkpt lat="45.9273733" lon="8.5658967"><ele>201.0</ele><time>2026-03-29T09:45:14.942Z</time></trkpt><trkpt lat="45.92748" lon="8.5660867"><ele>201.33333333333331</ele><time>2026-03-29T09:45:15.942Z</time></trkpt><trkpt lat="45.9276" lon="8.5662733"><ele>201.66666666666666</ele><time>2026-03-29T09:45:16.942Z</time></trkpt><trkpt lat="45.92773" lon="8.56645"><ele>202.0</ele><time>2026-03-29T09:45:17.942Z</time></trkpt><trkpt lat="45.9278533" lon="8.5666067"><ele>202.0</ele><time>2026-03-29T09:45:18.942Z</time></trkpt><trkpt lat="45.92799" lon="8.5667433"><ele>202.0</ele><time>2026-03-29T09:45:19.942Z</time></trkpt><trkpt lat="45.92811" lon="8.5668683"><ele>202.0</ele><time>2026-03-29T09:45:20.942Z</time></trkpt><trkpt lat="45.9282283" lon="8.5669767"><ele>202.25</ele><time>2026-03-29T09:45:21.941Z</time></trkpt><trkpt lat="45.92833" lon="8.5670717"><ele>202.5</ele><time>2026-03-29T09:45:22.941Z</time></trkpt><trkpt lat="45.9284283" lon="8.567175"><ele>202.75</ele><time>2026-03-29T09:45:23.942Z</time></trkpt><trkpt lat="45.9285283" lon="8.5672767"><ele>203.0</ele><time>2026-03-29T09:45:24.942Z</time></trkpt><trkpt lat="45.9286317" lon="8.5673783"><ele>203.0</ele><time>2026-03-29T09:45:25.942Z</time></trkpt><trkpt lat="45.9287283" lon="8.5674683"><ele>203.0</ele><time>2026-03-29T09:45:26.942Z</time></trkpt><trkpt lat="45.9288233" lon="8.56757"><ele>203.0</ele><time>2026-03-29T09:45:27.942Z</time></trkpt><trkpt lat="45.9289217" lon="8.5676683"><ele>203.0</ele><time>2026-03-29T09:45:28.942Z</time></trkpt><trkpt lat="45.9290317" lon="8.5677483"><ele>203.0</ele><time>2026-03-29T09:45:29.942Z</time></trkpt><trkpt lat="45.9291333" lon="8.5678517"><ele>203.0</ele><time>2026-03-29T09:45:30.942Z</time></trkpt><trkpt lat="45.92924" lon="8.567945"><ele>203.0</ele><time>2026-03-29T09:45:31.942Z</time></trkpt><trkpt lat="45.92934" lon="8.56806"><ele>203.0</ele><time>2026-03-29T09:45:32.942Z</time></trkpt><trkpt lat="45.9294517" lon="8.568175"><ele>202.33333333333334</ele><time>2026-03-29T09:45:33.942Z</time></trkpt><trkpt lat="45.929585" lon="8.5682967"><ele>201.66666666666669</ele><time>2026-03-29T09:45:34.942Z</time></trkpt><trkpt lat="45.92973" lon="8.568435"><ele>201.0</ele><time>2026-03-29T09:45:35.942Z</time></trkpt><trkpt lat="45.929885" lon="8.5685967"><ele>200.66666666666669</ele><time>2026-03-29T09:45:36.942Z</time></trkpt><trkpt lat="45.9300333" lon="8.5687483"><ele>200.33333333333334</ele><time>2026-03-29T09:45:37.942Z</time></trkpt><trkpt lat="45.9301683" lon="8.5688833"><ele>200.0</ele><time>2026-03-29T09:45:38.942Z</time></trkpt><trkpt lat="45.9302967" lon="8.5690083"><ele>201.66666666666669</ele><time>2026-03-29T09:45:39.941Z</time></trkpt><trkpt lat="45.9304217" lon="8.5691333"><ele>203.33333333333331</ele><time>2026-03-29T09:45:40.942Z</time></trkpt><trkpt lat="45.930555" lon="8.5692567"><ele>205.0</ele><time>2026-03-29T09:45:41.942Z</time></trkpt><trkpt lat="45.9306833" lon="8.5693867"><ele>204.33333333333331</ele><time>2026-03-29T09:45:42.941Z</time></trkpt><trkpt lat="45.9308333" lon="8.5695317"><ele>203.66666666666669</ele><time>2026-03-29T09:45:43.942Z</time></trkpt><trkpt lat="45.9309917" lon="8.569695"><ele>203.0</ele><time>2026-03-29T09:45:44.941Z</time></trkpt><trkpt lat="45.9311517" lon="8.5698567"><ele>201.33333333333334</ele><time>2026-03-29T09:45:45.942Z</time></trkpt><trkpt lat="45.9313133" lon="8.5700217"><ele>199.66666666666669</ele><time>2026-03-29T09:45:46.942Z</time></trkpt><trkpt lat="45.9314717" lon="8.570175"><ele>198.0</ele><time>2026-03-29T09:45:47.941Z</time></trkpt><trkpt lat="45.9316217" lon="8.5703333"><ele>197.66666666666669</ele><time>2026-03-29T09:45:48.942Z</time></trkpt><trkpt lat="45.9317633" lon="8.5704783"><ele>197.33333333333334</ele><time>2026-03-29T09:45:49.942Z</time></trkpt><trkpt lat="45.9318933" lon="8.5706133"><ele>197.0</ele><time>2026-03-29T09:45:50.942Z</time></trkpt><trkpt lat="45.932015" lon="8.5707317"><ele>197.0</ele><time>2026-03-29T09:45:51.942Z</time></trkpt><trkpt lat="45.9321217" lon="8.5708383"><ele>197.0</ele><time>2026-03-29T09:45:52.942Z</time></trkpt><trkpt lat="45.9322317" lon="8.5709433"><ele>197.0</ele><time>2026-03-29T09:45:53.942Z</time></trkpt><trkpt lat="45.9323383" lon="8.5710467"><ele>197.0</ele><time>2026-03-29T09:45:54.942Z</time></trkpt><trkpt lat="45.9324483" lon="8.571155"><ele>198.0</ele><time>2026-03-29T09:45:55.942Z</time></trkpt><trkpt lat="45.9325583" lon="8.5712583"><ele>199.0</ele><time>2026-03-29T09:45:56.942Z</time></trkpt><trkpt lat="45.93266" lon="8.5713583"><ele>200.0</ele><time>2026-03-29T09:45:57.942Z</time></trkpt><trkpt lat="45.932755" lon="8.5714567"><ele>201.0</ele><time>2026-03-29T09:45:58.942Z</time></trkpt><trkpt lat="45.9328483" lon="8.5715417"><ele>201.0</ele><time>2026-03-29T09:45:59.942Z</time></trkpt><trkpt lat="45.93294" lon="8.5716267"><ele>201.0</ele><time>2026-03-29T09:46:00.942Z</time></trkpt><trkpt lat="45.9330333" lon="8.571715"><ele>201.0</ele><time>2026-03-29T09:46:01.942Z</time></trkpt><trkpt lat="45.9331183" lon="8.571805"><ele>201.0</ele><time>2026-03-29T09:46:02.942Z</time></trkpt><trkpt lat="45.9332067" lon="8.5718883"><ele>201.0</ele><time>2026-03-29T09:46:03.942Z</time></trkpt><trkpt lat="45.9332917" lon="8.5719683"><ele>201.4</ele><time>2026-03-29T09:46:04.942Z</time></trkpt><trkpt lat="45.9333767" lon="8.5720483"><ele>201.8</ele><time>2026-03-29T09:46:05.942Z</time></trkpt><trkpt lat="45.9334567" lon="8.5721233"><ele>202.20000000000002</ele><time>2026-03-29T09:46:06.942Z</time></trkpt><trkpt lat="45.9335317" lon="8.5721983"><ele>202.60000000000002</ele><time>2026-03-29T09:46:07.942Z</time></trkpt><trkpt lat="45.9335967" lon="8.5722633"><ele>203.0</ele><time>2026-03-29T09:46:08.942Z</time></trkpt><trkpt lat="45.933665" lon="8.5723367"><ele>203.00000000000003</ele><time>2026-03-29T09:46:09.942Z</time></trkpt><trkpt lat="45.9337217" lon="8.5724133"><ele>203.0</ele><time>2026-03-29T09:46:10.942Z</time></trkpt><trkpt lat="45.933775" lon="8.5724733"><ele>203.0</ele><time>2026-03-29T09:46:11.942Z</time></trkpt><trkpt lat="45.9338633" lon="8.5725717"><ele>203.0</ele><time>2026-03-29T09:46:13.941Z</time></trkpt><trkpt lat="45.9339233" lon="8.572655"><ele>203.00000000000003</ele><time>2026-03-29T09:46:15.942Z</time></trkpt><trkpt lat="45.9339767" lon="8.5727533"><ele>203.0</ele><time>2026-03-29T09:46:17.942Z</time></trkpt><trkpt lat="45.9340183" lon="8.5728883"><ele>202.83333333333334</ele><time>2026-03-29T09:46:19.942Z</time></trkpt><trkpt lat="45.9340667" lon="8.5730383"><ele>202.66666666666669</ele><time>2026-03-29T09:46:21.941Z</time></trkpt><trkpt lat="45.93411" lon="8.573105"><ele>202.5</ele><time>2026-03-29T09:46:22.942Z</time></trkpt><trkpt lat="45.9341683" lon="8.5731517"><ele>202.33333333333331</ele><time>2026-03-29T09:46:23.941Z</time></trkpt><trkpt lat="45.93423" lon="8.5731717"><ele>202.16666666666666</ele><time>2026-03-29T09:46:24.942Z</time></trkpt><trkpt lat="45.93434" lon="8.5731917"><ele>202.0</ele><time>2026-03-29T09:46:26.942Z</time></trkpt><trkpt lat="45.9344417" lon="8.5732067"><ele>202.39999999999998</ele><time>2026-03-29T09:46:28.942Z</time></trkpt><trkpt lat="45.93455" lon="8.573255"><ele>202.79999999999998</ele><time>2026-03-29T09:46:30.942Z</time></trkpt><trkpt lat="45.9346467" lon="8.5733083"><ele>203.2</ele><time>2026-03-29T09:46:32.941Z</time></trkpt><trkpt lat="45.9347383" lon="8.5733583"><ele>203.6</ele><time>2026-03-29T09:46:34.942Z</time></trkpt><trkpt lat="45.9348133" lon="8.5734167"><ele>204.0</ele><time>2026-03-29T09:46:36.942Z</time></trkpt><trkpt lat="45.93487" lon="8.573505"><ele>204.0</ele><time>2026-03-29T09:46:38.942Z</time></trkpt><trkpt lat="45.9349233" lon="8.573585"><ele>204.0</ele><time>2026-03-29T09:46:40.942Z</time></trkpt><trkpt lat="45.9350067" lon="8.5736917"><ele>204.0</ele><time>2026-03-29T09:46:42.942Z</time></trkpt><trkpt lat="45.9351183" lon="8.57379"><ele>204.0</ele><time>2026-03-29T09:46:44.942Z</time></trkpt><trkpt lat="45.9351733" lon="8.5738617"><ele>204.0</ele><time>2026-03-29T09:46:45.942Z</time></trkpt><trkpt lat="45.9352317" lon="8.5739467"><ele>203.83333333333334</ele><time>2026-03-29T09:46:46.942Z</time></trkpt><trkpt lat="45.93528" lon="8.5740317"><ele>203.66666666666669</ele><time>2026-03-29T09:46:47.941Z</time></trkpt><trkpt lat="45.9353283" lon="8.5741233"><ele>203.5</ele><time>2026-03-29T09:46:48.942Z</time></trkpt><trkpt lat="45.9353733" lon="8.5741983"><ele>203.33333333333334</ele><time>2026-03-29T09:46:49.942Z</time></trkpt><trkpt lat="45.9354117" lon="8.5742717"><ele>203.16666666666669</ele><time>2026-03-29T09:46:50.942Z</time></trkpt><trkpt lat="45.9354683" lon="8.5743967"><ele>203.0</ele><time>2026-03-29T09:46:52.942Z</time></trkpt><trkpt lat="45.9355367" lon="8.5745417"><ele>202.2</ele><time>2026-03-29T09:46:54.942Z</time></trkpt><trkpt lat="45.9356033" lon="8.574695"><ele>201.4</ele><time>2026-03-29T09:46:56.942Z</time></trkpt><trkpt lat="45.9356583" lon="8.5748383"><ele>200.6</ele><time>2026-03-29T09:46:58.942Z</time></trkpt><trkpt lat="45.9356983" lon="8.574935"><ele>199.79999999999998</ele><time>2026-03-29T09:47:00.942Z</time></trkpt><trkpt lat="45.9357417" lon="8.575025"><ele>199.0</ele><time>2026-03-29T09:47:02.941Z</time></trkpt><trkpt lat="45.935785" lon="8.5751033"><ele>198.99999999999997</ele><time>2026-03-29T09:47:04.942Z</time></trkpt><trkpt lat="45.9358333" lon="8.5751933"><ele>199.0</ele><time>2026-03-29T09:47:06.942Z</time></trkpt><trkpt lat="45.9358883" lon="8.575305"><ele>199.0</ele><time>2026-03-29T09:47:08.942Z</time></trkpt><trkpt lat="45.9359383" lon="8.5754233"><ele>199.0</ele><time>2026-03-29T09:47:10.942Z</time></trkpt><trkpt lat="45.9359983" lon="8.5755583"><ele>198.99999999999997</ele><time>2026-03-29T09:47:12.942Z</time></trkpt><trkpt lat="45.9360333" lon="8.575635"><ele>199.0</ele><time>2026-03-29T09:47:13.942Z</time></trkpt><trkpt lat="45.9360683" lon="8.5757183"><ele>199.66666666666666</ele><time>2026-03-29T09:47:14.942Z</time></trkpt><trkpt lat="45.936105" lon="8.5758033"><ele>200.33333333333331</ele><time>2026-03-29T09:47:15.942Z</time></trkpt><trkpt lat="45.936145" lon="8.57589"><ele>201.0</ele><time>2026-03-29T09:47:16.941Z</time></trkpt><trkpt lat="45.9361967" lon="8.5759783"><ele>201.66666666666669</ele><time>2026-03-29T09:47:17.942Z</time></trkpt><trkpt lat="45.9362467" lon="8.576095"><ele>202.33333333333334</ele><time>2026-03-29T09:47:18.942Z</time></trkpt><trkpt lat="45.9362967" lon="8.5762167"><ele>203.0</ele><time>2026-03-29T09:47:19.942Z</time></trkpt><trkpt lat="45.9363533" lon="8.57634"><ele>203.0</ele><time>2026-03-29T09:47:20.942Z</time></trkpt><trkpt lat="45.93642" lon="8.5764467"><ele>203.0</ele><time>2026-03-29T09:47:21.942Z</time></trkpt><trkpt lat="45.9364833" lon="8.5765667"><ele>203.0</ele><time>2026-03-29T09:47:22.942Z</time></trkpt><trkpt lat="45.936535" lon="8.5766817"><ele>203.0</ele><time>2026-03-29T09:47:23.942Z</time></trkpt><trkpt lat="45.9365767" lon="8.5768017"><ele>203.0</ele><time>2026-03-29T09:47:24.942Z</time></trkpt><trkpt lat="45.9366117" lon="8.5768983"><ele>203.0</ele><time>2026-03-29T09:47:25.942Z</time></trkpt><trkpt lat="45.936645" lon="8.5769833"><ele>203.0</ele><time>2026-03-29T09:47:26.942Z</time></trkpt><trkpt lat="45.9366833" lon="8.5770617"><ele>203.0</ele><time>2026-03-29T09:47:27.942Z</time></trkpt><trkpt lat="45.9367467" lon="8.577205"><ele>203.0</ele><time>2026-03-29T09:47:29.941Z</time></trkpt><trkpt lat="45.9368017" lon="8.5773533"><ele>203.0</ele><time>2026-03-29T09:47:31.942Z</time></trkpt><trkpt lat="45.9368483" lon="8.5774883"><ele>203.25</ele><time>2026-03-29T09:47:33.942Z</time></trkpt><trkpt lat="45.9369033" lon="8.5776933"><ele>203.5</ele><time>2026-03-29T09:47:35.942Z</time></trkpt><trkpt lat="45.9369617" lon="8.5778283"><ele>203.75</ele><time>2026-03-29T09:47:36.942Z</time></trkpt><trkpt lat="45.9370267" lon="8.5779633"><ele>204.0</ele><time>2026-03-29T09:47:37.942Z</time></trkpt><trkpt lat="45.9370933" lon="8.5780883"><ele>204.0</ele><time>2026-03-29T09:47:38.941Z</time></trkpt><trkpt lat="45.9371367" lon="8.5781917"><ele>204.0</ele><time>2026-03-29T09:47:39.942Z</time></trkpt><trkpt lat="45.937175" lon="8.5782967"><ele>204.0</ele><time>2026-03-29T09:47:41.942Z</time></trkpt><trkpt lat="45.9372183" lon="8.5784217"><ele>204.0</ele><time>2026-03-29T09:47:44.942Z</time></trkpt><trkpt lat="45.9372567" lon="8.578495"><ele>204.0</ele><time>2026-03-29T09:47:45.942Z</time></trkpt><trkpt lat="45.9373067" lon="8.5785983"><ele>204.0</ele><time>2026-03-29T09:47:46.942Z</time></trkpt><trkpt lat="45.9373633" lon="8.578715"><ele>203.25</ele><time>2026-03-29T09:47:47.942Z</time></trkpt><trkpt lat="45.937435" lon="8.5788467"><ele>202.5</ele><time>2026-03-29T09:47:48.942Z</time></trkpt><trkpt lat="45.9375133" lon="8.5790117"><ele>201.75</ele><time>2026-03-29T09:47:49.942Z</time></trkpt><trkpt lat="45.9376017" lon="8.5792017"><ele>201.0</ele><time>2026-03-29T09:47:50.942Z</time></trkpt><trkpt lat="45.9376833" lon="8.5793767"><ele>200.20000000000002</ele><time>2026-03-29T09:47:51.942Z</time></trkpt><trkpt lat="45.9377667" lon="8.57954"><ele>199.4</ele><time>2026-03-29T09:47:52.942Z</time></trkpt><trkpt lat="45.93784" lon="8.5796633"><ele>198.6</ele><time>2026-03-29T09:47:53.941Z</time></trkpt><trkpt lat="45.93791" lon="8.5797583"><ele>197.8</ele><time>2026-03-29T09:47:54.942Z</time></trkpt><trkpt lat="45.93797" lon="8.579835"><ele>197.0</ele><time>2026-03-29T09:47:55.942Z</time></trkpt><trkpt lat="45.9380383" lon="8.5799217"><ele>197.00000000000003</ele><time>2026-03-29T09:47:57.942Z</time></trkpt><trkpt lat="45.9380983" lon="8.5800083"><ele>197.0</ele><time>2026-03-29T09:48:03.942Z</time></trkpt><trkpt lat="45.9381583" lon="8.5801067"><ele>197.0</ele><time>2026-03-29T09:48:05.942Z</time></trkpt><trkpt lat="45.9382067" lon="8.5801717"><ele>197.0</ele><time>2026-03-29T09:48:07.942Z</time></trkpt><trkpt lat="45.93826" lon="8.58025"><ele>197.00000000000003</ele><time>2026-03-29T09:48:09.942Z</time></trkpt><trkpt lat="45.9383283" lon="8.5803567"><ele>197.0</ele><time>2026-03-29T09:48:11.941Z</time></trkpt><trkpt lat="45.9384233" lon="8.5804967"><ele>198.75</ele><time>2026-03-29T09:48:13.941Z</time></trkpt><trkpt lat="45.9384917" lon="8.5805867"><ele>200.5</ele><time>2026-03-29T09:48:14.941Z</time></trkpt><trkpt lat="45.9385767" lon="8.5807033"><ele>202.25</ele><time>2026-03-29T09:48:15.941Z</time></trkpt><trkpt lat="45.9386733" lon="8.5808517"><ele>204.0</ele><time>2026-03-29T09:48:16.941Z</time></trkpt><trkpt lat="45.9387617" lon="8.5810083"><ele>204.0</ele><time>2026-03-29T09:48:17.941Z</time></trkpt><trkpt lat="45.938855" lon="8.5811433"><ele>204.0</ele><time>2026-03-29T09:48:18.94Z</time></trkpt><trkpt lat="45.9389383" lon="8.58129"><ele>204.0</ele><time>2026-03-29T09:48:19.941Z</time></trkpt><trkpt lat="45.9390167" lon="8.5814267"><ele>204.0</ele><time>2026-03-29T09:48:20.941Z</time></trkpt><trkpt lat="45.9390983" lon="8.581565"><ele>204.0</ele><time>2026-03-29T09:48:21.941Z</time></trkpt><trkpt lat="45.939165" lon="8.5817067"><ele>204.0</ele><time>2026-03-29T09:48:22.941Z</time></trkpt><trkpt lat="45.9392233" lon="8.5818583"><ele>204.0</ele><time>2026-03-29T09:48:23.94Z</time></trkpt><trkpt lat="45.9392567" lon="8.5820217"><ele>204.0</ele><time>2026-03-29T09:48:24.941Z</time></trkpt><trkpt lat="45.9392767" lon="8.5822067"><ele>217.66666666666669</ele><time>2026-03-29T09:48:25.941Z</time></trkpt><trkpt lat="45.939285" lon="8.5824083"><ele>231.33333333333334</ele><time>2026-03-29T09:48:26.941Z</time></trkpt><trkpt lat="45.93927" lon="8.5826517"><ele>245.0</ele><time>2026-03-29T09:48:27.941Z</time></trkpt><trkpt lat="45.9392483" lon="8.5829233"><ele>231.0</ele><time>2026-03-29T09:48:28.941Z</time></trkpt><trkpt lat="45.9392083" lon="8.5832117"><ele>217.0</ele><time>2026-03-29T09:48:29.941Z</time></trkpt><trkpt lat="45.9391767" lon="8.5834967"><ele>203.0</ele><time>2026-03-29T09:48:30.941Z</time></trkpt><trkpt lat="45.9391517" lon="8.5837867"><ele>202.66666666666669</ele><time>2026-03-29T09:48:31.941Z</time></trkpt><trkpt lat="45.9391267" lon="8.58408"><ele>202.33333333333331</ele><time>2026-03-29T09:48:32.941Z</time></trkpt><trkpt lat="45.939135" lon="8.584335"><ele>202.0</ele><time>2026-03-29T09:48:33.941Z</time></trkpt><trkpt lat="45.9391633" lon="8.5845883"><ele>203.66666666666666</ele><time>2026-03-29T09:48:34.94Z</time></trkpt><trkpt lat="45.93921" lon="8.58485"><ele>205.33333333333331</ele><time>2026-03-29T09:48:35.941Z</time></trkpt><trkpt lat="45.939265" lon="8.5851117"><ele>207.0</ele><time>2026-03-29T09:48:36.941Z</time></trkpt><trkpt lat="45.939345" lon="8.5853733"><ele>211.66666666666669</ele><time>2026-03-29T09:48:37.941Z</time></trkpt><trkpt lat="45.9394233" lon="8.585635"><ele>216.33333333333334</ele><time>2026-03-29T09:48:38.94Z</time></trkpt><trkpt lat="45.93948" lon="8.5859283"><ele>221.0</ele><time>2026-03-29T09:48:39.941Z</time></trkpt><trkpt lat="45.939525" lon="8.58622"><ele>221.0</ele><time>2026-03-29T09:48:40.941Z</time></trkpt><trkpt lat="45.939555" lon="8.5865283"><ele>221.0</ele><time>2026-03-29T09:48:41.941Z</time></trkpt><trkpt lat="45.9395883" lon="8.58684"><ele>221.0</ele><time>2026-03-29T09:48:42.941Z</time></trkpt><trkpt lat="45.93964" lon="8.5871483"><ele>218.33333333333334</ele><time>2026-03-29T09:48:43.941Z</time></trkpt><trkpt lat="45.9397167" lon="8.5874467"><ele>215.66666666666669</ele><time>2026-03-29T09:48:44.941Z</time></trkpt><trkpt lat="45.9398" lon="8.58773"><ele>213.0</ele><time>2026-03-29T09:48:45.941Z</time></trkpt><trkpt lat="45.9398567" lon="8.5880033"><ele>211.66666666666669</ele><time>2026-03-29T09:48:46.941Z</time></trkpt><trkpt lat="45.939905" lon="8.5882733"><ele>210.33333333333334</ele><time>2026-03-29T09:48:47.941Z</time></trkpt><trkpt lat="45.9399483" lon="8.5885633"><ele>209.0</ele><time>2026-03-29T09:48:48.941Z</time></trkpt><trkpt lat="45.93999" lon="8.58887"><ele>209.66666666666669</ele><time>2026-03-29T09:48:49.941Z</time></trkpt><trkpt lat="45.9400417" lon="8.5891583"><ele>210.33333333333331</ele><time>2026-03-29T09:48:50.941Z</time></trkpt><trkpt lat="45.9400867" lon="8.5893933"><ele>211.0</ele><time>2026-03-29T09:48:51.941Z</time></trkpt><trkpt lat="45.94015" lon="8.58962"><ele>211.0</ele><time>2026-03-29T09:48:52.941Z</time></trkpt><trkpt lat="45.9402417" lon="8.5898083"><ele>211.0</ele><time>2026-03-29T09:48:53.94Z</time></trkpt><trkpt lat="45.9403733" lon="8.5899333"><ele>211.0</ele><time>2026-03-29T09:48:54.94Z</time></trkpt><trkpt lat="45.940535" lon="8.5900383"><ele>211.0</ele><time>2026-03-29T09:48:55.941Z</time></trkpt><trkpt lat="45.9407083" lon="8.590125"><ele>211.0</ele><time>2026-03-29T09:48:56.941Z</time></trkpt><trkpt lat="45.940895" lon="8.5902083"><ele>211.0</ele><time>2026-03-29T09:48:57.941Z</time></trkpt><trkpt lat="45.9410967" lon="8.59031"><ele>208.33333333333331</ele><time>2026-03-29T09:48:58.941Z</time></trkpt><trkpt lat="45.941305" lon="8.5904183"><ele>205.66666666666669</ele><time>2026-03-29T09:48:59.941Z</time></trkpt><trkpt lat="45.9415067" lon="8.590525"><ele>203.0</ele><time>2026-03-29T09:49:00.941Z</time></trkpt><trkpt lat="45.941675" lon="8.5906383"><ele>210.0</ele><time>2026-03-29T09:49:01.941Z</time></trkpt><trkpt lat="45.9418167" lon="8.5907767"><ele>217.0</ele><time>2026-03-29T09:49:02.941Z</time></trkpt><trkpt lat="45.9419583" lon="8.5909233"><ele>224.0</ele><time>2026-03-29T09:49:03.941Z</time></trkpt><trkpt lat="45.94209" lon="8.5911117"><ele>219.33333333333334</ele><time>2026-03-29T09:49:04.941Z</time></trkpt><trkpt lat="45.9422117" lon="8.5913017"><ele>214.66666666666669</ele><time>2026-03-29T09:49:05.94Z</time></trkpt><trkpt lat="45.9423383" lon="8.5915117"><ele>210.0</ele><time>2026-03-29T09:49:06.941Z</time></trkpt><trkpt lat="45.9424717" lon="8.5917167"><ele>211.33333333333331</ele><time>2026-03-29T09:49:07.941Z</time></trkpt><trkpt lat="45.9425917" lon="8.5919117"><ele>212.66666666666666</ele><time>2026-03-29T09:49:08.941Z</time></trkpt><trkpt lat="45.9426833" lon="8.5921367"><ele>214.0</ele><time>2026-03-29T09:49:09.941Z</time></trkpt><trkpt lat="45.942775" lon="8.5923583"><ele>214.0</ele><time>2026-03-29T09:49:10.941Z</time></trkpt><trkpt lat="45.9428417" lon="8.5925617"><ele>214.0</ele><time>2026-03-29T09:49:11.941Z</time></trkpt><trkpt lat="45.9429067" lon="8.5927667"><ele>214.0</ele><time>2026-03-29T09:49:12.941Z</time></trkpt><trkpt lat="45.942965" lon="8.5929533"><ele>210.66666666666666</ele><time>2026-03-29T09:49:13.941Z</time></trkpt><trkpt lat="45.943015" lon="8.5931383"><ele>207.33333333333331</ele><time>2026-03-29T09:49:14.941Z</time></trkpt><trkpt lat="45.94307" lon="8.593325"><ele>204.0</ele><time>2026-03-29T09:49:15.941Z</time></trkpt><trkpt lat="45.9432633" lon="8.5937383"><ele>203.0</ele><time>2026-03-29T09:49:17.941Z</time></trkpt><trkpt lat="45.94337" lon="8.59397"><ele>202.0</ele><time>2026-03-29T09:49:18.941Z</time></trkpt><trkpt lat="45.9434833" lon="8.5942117"><ele>201.0</ele><time>2026-03-29T09:49:19.941Z</time></trkpt><trkpt lat="45.9435933" lon="8.5944433"><ele>206.33333333333331</ele><time>2026-03-29T09:49:20.941Z</time></trkpt><trkpt lat="45.9436933" lon="8.594705"><ele>211.66666666666666</ele><time>2026-03-29T09:49:21.941Z</time></trkpt><trkpt lat="45.9437733" lon="8.5949767"><ele>217.0</ele><time>2026-03-29T09:49:22.941Z</time></trkpt><trkpt lat="45.943845" lon="8.5952433"><ele>215.0</ele><time>2026-03-29T09:49:23.941Z</time></trkpt><trkpt lat="45.9438983" lon="8.595525"><ele>213.0</ele><time>2026-03-29T09:49:24.941Z</time></trkpt><trkpt lat="45.9439567" lon="8.5957783"><ele>211.0</ele><time>2026-03-29T09:49:25.941Z</time></trkpt><trkpt lat="45.9440167" lon="8.5960217"><ele>210.0</ele><time>2026-03-29T09:49:26.941Z</time></trkpt><trkpt lat="45.94409" lon="8.5962833"><ele>209.0</ele><time>2026-03-29T09:49:27.941Z</time></trkpt><trkpt lat="45.9441867" lon="8.5965367"><ele>208.0</ele><time>2026-03-29T09:49:28.941Z</time></trkpt><trkpt lat="45.9443083" lon="8.596805"><ele>218.0</ele><time>2026-03-29T09:49:29.941Z</time></trkpt><trkpt lat="45.94444" lon="8.5970783"><ele>228.0</ele><time>2026-03-29T09:49:30.941Z</time></trkpt><trkpt lat="45.94458" lon="8.59736"><ele>228.0</ele><time>2026-03-29T09:49:31.941Z</time></trkpt><trkpt lat="45.9447233" lon="8.5976367"><ele>228.0</ele><time>2026-03-29T09:49:32.94Z</time></trkpt><trkpt lat="45.9448733" lon="8.5979183"><ele>220.5</ele><time>2026-03-29T09:49:33.94Z</time></trkpt><trkpt lat="45.94502" lon="8.5982217"><ele>213.0</ele><time>2026-03-29T09:49:34.941Z</time></trkpt><trkpt lat="45.9451717" lon="8.598525"><ele>219.5</ele><time>2026-03-29T09:49:35.941Z</time></trkpt><trkpt lat="45.9453183" lon="8.59884"><ele>226.0</ele><time>2026-03-29T09:49:36.94Z</time></trkpt><trkpt lat="45.9454767" lon="8.5991467"><ele>226.0</ele><time>2026-03-29T09:49:37.941Z</time></trkpt><trkpt lat="45.9456317" lon="8.5994417"><ele>226.0</ele><time>2026-03-29T09:49:38.941Z</time></trkpt><trkpt lat="45.9457883" lon="8.59976"><ele>224.0</ele><time>2026-03-29T09:49:39.941Z</time></trkpt><trkpt lat="45.945945" lon="8.6000733"><ele>222.0</ele><time>2026-03-29T09:49:40.941Z</time></trkpt><trkpt lat="45.9460967" lon="8.6003883"><ele>222.0</ele><time>2026-03-29T09:49:41.941Z</time></trkpt><trkpt lat="45.9462517" lon="8.60068"><ele>222.0</ele><time>2026-03-29T09:49:42.941Z</time></trkpt><trkpt lat="45.9464067" lon="8.600935"><ele>227.0</ele><time>2026-03-29T09:49:43.941Z</time></trkpt><trkpt lat="45.9465783" lon="8.601185"><ele>232.0</ele><time>2026-03-29T09:49:44.941Z</time></trkpt><trkpt lat="45.9467667" lon="8.601415"><ele>232.0</ele><time>2026-03-29T09:49:45.941Z</time></trkpt><trkpt lat="45.9469617" lon="8.601645"><ele>232.0</ele><time>2026-03-29T09:49:46.941Z</time></trkpt><trkpt lat="45.9471633" lon="8.6018833"><ele>234.0</ele><time>2026-03-29T09:49:47.941Z</time></trkpt><trkpt lat="45.9473667" lon="8.6021233"><ele>236.0</ele><time>2026-03-29T09:49:48.941Z</time></trkpt><trkpt lat="45.9475667" lon="8.6023583"><ele>236.0</ele><time>2026-03-29T09:49:49.941Z</time></trkpt><trkpt lat="45.9477633" lon="8.6026033"><ele>236.0</ele><time>2026-03-29T09:49:50.941Z</time></trkpt><trkpt lat="45.9479467" lon="8.6028517"><ele>222.5</ele><time>2026-03-29T09:49:51.941Z</time></trkpt><trkpt lat="45.9481433" lon="8.6030983"><ele>209.0</ele><time>2026-03-29T09:49:52.941Z</time></trkpt><trkpt lat="45.94834" lon="8.6033533"><ele>214.5</ele><time>2026-03-29T09:49:53.941Z</time></trkpt><trkpt lat="45.9485483" lon="8.6036133"><ele>220.0</ele><time>2026-03-29T09:49:54.941Z</time></trkpt><trkpt lat="45.9487667" lon="8.603875"><ele>220.0</ele><time>2026-03-29T09:49:55.941Z</time></trkpt><trkpt lat="45.948985" lon="8.60412"><ele>220.0</ele><time>2026-03-29T09:49:56.941Z</time></trkpt><trkpt lat="45.9491883" lon="8.6043683"><ele>219.5</ele><time>2026-03-29T09:49:57.941Z</time></trkpt><trkpt lat="45.949375" lon="8.604625"><ele>219.0</ele><time>2026-03-29T09:49:58.941Z</time></trkpt><trkpt lat="45.9495383" lon="8.6048767"><ele>219.0</ele><time>2026-03-29T09:49:59.941Z</time></trkpt><trkpt lat="45.9496867" lon="8.60512"><ele>219.0</ele><time>2026-03-29T09:50:00.941Z</time></trkpt><trkpt lat="45.949825" lon="8.6053433"><ele>219.0</ele><time>2026-03-29T09:50:01.941Z</time></trkpt><trkpt lat="45.9499517" lon="8.6055733"><ele>219.0</ele><time>2026-03-29T09:50:02.941Z</time></trkpt><trkpt lat="45.9500667" lon="8.6057983"><ele>219.0</ele><time>2026-03-29T09:50:03.94Z</time></trkpt><trkpt lat="45.9501817" lon="8.6060383"><ele>219.0</ele><time>2026-03-29T09:50:04.94Z</time></trkpt><trkpt lat="45.950315" lon="8.6062583"><ele>215.0</ele><time>2026-03-29T09:50:05.941Z</time></trkpt><trkpt lat="45.9504533" lon="8.6064583"><ele>211.0</ele><time>2026-03-29T09:50:06.941Z</time></trkpt><trkpt lat="45.9505933" lon="8.60664"><ele>207.0</ele><time>2026-03-29T09:50:07.941Z</time></trkpt><trkpt lat="45.9507383" lon="8.6068167"><ele>207.0</ele><time>2026-03-29T09:50:08.941Z</time></trkpt><trkpt lat="45.95087" lon="8.606985"><ele>207.0</ele><time>2026-03-29T09:50:09.94Z</time></trkpt><trkpt lat="45.9510067" lon="8.6071717"><ele>207.0</ele><time>2026-03-29T09:50:10.941Z</time></trkpt><trkpt lat="45.9511333" lon="8.6073867"><ele>205.66666666666669</ele><time>2026-03-29T09:50:11.941Z</time></trkpt><trkpt lat="45.9512583" lon="8.6075933"><ele>204.33333333333334</ele><time>2026-03-29T09:50:12.941Z</time></trkpt><trkpt lat="45.9513767" lon="8.6078033"><ele>203.0</ele><time>2026-03-29T09:50:13.941Z</time></trkpt><trkpt lat="45.9515083" lon="8.6079933"><ele>203.0</ele><time>2026-03-29T09:50:14.941Z</time></trkpt><trkpt lat="45.95163" lon="8.6081967"><ele>203.0</ele><time>2026-03-29T09:50:15.941Z</time></trkpt><trkpt lat="45.9517383" lon="8.6083883"><ele>203.0</ele><time>2026-03-29T09:50:16.941Z</time></trkpt><trkpt lat="45.9518417" lon="8.608585"><ele>206.0</ele><time>2026-03-29T09:50:17.941Z</time></trkpt><trkpt lat="45.9519467" lon="8.60879"><ele>209.0</ele><time>2026-03-29T09:50:18.941Z</time></trkpt><trkpt lat="45.9520617" lon="8.6089667"><ele>212.0</ele><time>2026-03-29T09:50:19.941Z</time></trkpt><trkpt lat="45.9521667" lon="8.6091633"><ele>212.0</ele><time>2026-03-29T09:50:20.941Z</time></trkpt><trkpt lat="45.9522783" lon="8.6093817"><ele>212.0</ele><time>2026-03-29T09:50:21.94Z</time></trkpt><trkpt lat="45.9523883" lon="8.609605"><ele>212.0</ele><time>2026-03-29T09:50:22.941Z</time></trkpt><trkpt lat="45.9525067" lon="8.6098467"><ele>213.0</ele><time>2026-03-29T09:50:23.941Z</time></trkpt><trkpt lat="45.9526433" lon="8.6100983"><ele>214.0</ele><time>2026-03-29T09:50:24.941Z</time></trkpt><trkpt lat="45.9527833" lon="8.6103667"><ele>214.0</ele><time>2026-03-29T09:50:25.941Z</time></trkpt><trkpt lat="45.9529233" lon="8.61065"><ele>214.0</ele><time>2026-03-29T09:50:26.94Z</time></trkpt><trkpt lat="45.9530483" lon="8.610945"><ele>211.33333333333331</ele><time>2026-03-29T09:50:27.941Z</time></trkpt><trkpt lat="45.95317" lon="8.6112033"><ele>208.66666666666669</ele><time>2026-03-29T09:50:28.941Z</time></trkpt><trkpt lat="45.953285" lon="8.6114467"><ele>206.0</ele><time>2026-03-29T09:50:29.941Z</time></trkpt><trkpt lat="45.953395" lon="8.6116533"><ele>209.33333333333334</ele><time>2026-03-29T09:50:30.941Z</time></trkpt><trkpt lat="45.9535033" lon="8.61187"><ele>212.66666666666669</ele><time>2026-03-29T09:50:31.941Z</time></trkpt><trkpt lat="45.9536133" lon="8.6120767"><ele>216.0</ele><time>2026-03-29T09:50:32.941Z</time></trkpt><trkpt lat="45.9537217" lon="8.612295"><ele>216.0</ele><time>2026-03-29T09:50:33.941Z</time></trkpt><trkpt lat="45.9538383" lon="8.6125083"><ele>216.0</ele><time>2026-03-29T09:50:34.941Z</time></trkpt><trkpt lat="45.9539467" lon="8.61271"><ele>216.0</ele><time>2026-03-29T09:50:35.941Z</time></trkpt><trkpt lat="45.9540517" lon="8.6129133"><ele>212.33333333333331</ele><time>2026-03-29T09:50:36.941Z</time></trkpt><trkpt lat="45.9541567" lon="8.613115"><ele>208.66666666666666</ele><time>2026-03-29T09:50:37.941Z</time></trkpt><trkpt lat="45.95426" lon="8.613325"><ele>205.0</ele><time>2026-03-29T09:50:38.941Z</time></trkpt><trkpt lat="45.9543683" lon="8.613515"><ele>207.66666666666666</ele><time>2026-03-29T09:50:39.941Z</time></trkpt><trkpt lat="45.9544717" lon="8.6137217"><ele>210.33333333333331</ele><time>2026-03-29T09:50:40.941Z</time></trkpt><trkpt lat="45.954565" lon="8.6139267"><ele>213.0</ele><time>2026-03-29T09:50:41.941Z</time></trkpt><trkpt lat="45.9546767" lon="8.61413"><ele>213.0</ele><time>2026-03-29T09:50:42.941Z</time></trkpt><trkpt lat="45.9547917" lon="8.6143367"><ele>213.0</ele><time>2026-03-29T09:50:43.94Z</time></trkpt><trkpt lat="45.9549117" lon="8.6145433"><ele>213.0</ele><time>2026-03-29T09:50:44.941Z</time></trkpt><trkpt lat="45.9550317" lon="8.6147367"><ele>215.33333333333331</ele><time>2026-03-29T09:50:45.94Z</time></trkpt><trkpt lat="45.9551483" lon="8.614925"><ele>217.66666666666666</ele><time>2026-03-29T09:50:46.941Z</time></trkpt><trkpt lat="45.95525" lon="8.615115"><ele>220.0</ele><time>2026-03-29T09:50:47.94Z</time></trkpt><trkpt lat="45.9553517" lon="8.615285"><ele>216.75</ele><time>2026-03-29T09:50:48.94Z</time></trkpt><trkpt lat="45.9554483" lon="8.6154383"><ele>213.5</ele><time>2026-03-29T09:50:49.941Z</time></trkpt><trkpt lat="45.955535" lon="8.6155833"><ele>210.25</ele><time>2026-03-29T09:50:50.941Z</time></trkpt><trkpt lat="45.9556317" lon="8.61573"><ele>207.0</ele><time>2026-03-29T09:50:51.941Z</time></trkpt><trkpt lat="45.955725" lon="8.6158817"><ele>207.0</ele><time>2026-03-29T09:50:52.941Z</time></trkpt><trkpt lat="45.95582" lon="8.6160283"><ele>207.0</ele><time>2026-03-29T09:50:53.941Z</time></trkpt><trkpt lat="45.95592" lon="8.616185"><ele>207.0</ele><time>2026-03-29T09:50:54.941Z</time></trkpt><trkpt lat="45.9560183" lon="8.61635"><ele>207.0</ele><time>2026-03-29T09:50:55.941Z</time></trkpt><trkpt lat="45.9561167" lon="8.6165167"><ele>208.0</ele><time>2026-03-29T09:50:56.94Z</time></trkpt><trkpt lat="45.9562167" lon="8.6166867"><ele>209.0</ele><time>2026-03-29T09:50:57.941Z</time></trkpt><trkpt lat="45.9563167" lon="8.61685"><ele>210.0</ele><time>2026-03-29T09:50:58.941Z</time></trkpt><trkpt lat="45.95642" lon="8.6170067"><ele>208.0</ele><time>2026-03-29T09:50:59.941Z</time></trkpt><trkpt lat="45.9565183" lon="8.6171633"><ele>206.0</ele><time>2026-03-29T09:51:00.941Z</time></trkpt><trkpt lat="45.9566133" lon="8.6173083"><ele>204.0</ele><time>2026-03-29T09:51:01.941Z</time></trkpt><trkpt lat="45.95671" lon="8.6174483"><ele>202.0</ele><time>2026-03-29T09:51:02.941Z</time></trkpt><trkpt lat="45.9567983" lon="8.6175867"><ele>203.0</ele><time>2026-03-29T09:51:03.941Z</time></trkpt><trkpt lat="45.9568817" lon="8.6177283"><ele>204.0</ele><time>2026-03-29T09:51:04.941Z</time></trkpt><trkpt lat="45.9569683" lon="8.6178683"><ele>205.0</ele><time>2026-03-29T09:51:05.941Z</time></trkpt><trkpt lat="45.9570483" lon="8.6180033"><ele>206.0</ele><time>2026-03-29T09:51:06.941Z</time></trkpt><trkpt lat="45.9571283" lon="8.6181333"><ele>206.0</ele><time>2026-03-29T09:51:07.941Z</time></trkpt><trkpt lat="45.9572133" lon="8.6182783"><ele>206.0</ele><time>2026-03-29T09:51:08.94Z</time></trkpt><trkpt lat="45.9572983" lon="8.6184117"><ele>206.0</ele><time>2026-03-29T09:51:09.94Z</time></trkpt><trkpt lat="45.95738" lon="8.6185583"><ele>206.0</ele><time>2026-03-29T09:51:10.939Z</time></trkpt><trkpt lat="45.9574683" lon="8.61871"><ele>208.25</ele><time>2026-03-29T09:51:11.94Z</time></trkpt><trkpt lat="45.957555" lon="8.61886"><ele>210.5</ele><time>2026-03-29T09:51:12.94Z</time></trkpt><trkpt lat="45.9576417" lon="8.6190083"><ele>212.75</ele><time>2026-03-29T09:51:13.94Z</time></trkpt><trkpt lat="45.95773" lon="8.6191417"><ele>215.0</ele><time>2026-03-29T09:51:14.94Z</time></trkpt><trkpt lat="45.9578133" lon="8.61926"><ele>215.0</ele><time>2026-03-29T09:51:15.939Z</time></trkpt><trkpt lat="45.9578917" lon="8.6193767"><ele>215.0</ele><time>2026-03-29T09:51:16.939Z</time></trkpt><trkpt lat="45.95797" lon="8.6195067"><ele>215.0</ele><time>2026-03-29T09:51:17.94Z</time></trkpt><trkpt lat="45.9580567" lon="8.6196383"><ele>215.0</ele><time>2026-03-29T09:51:18.94Z</time></trkpt><trkpt lat="45.9581383" lon="8.6197833"><ele>218.0</ele><time>2026-03-29T09:51:19.94Z</time></trkpt><trkpt lat="45.958235" lon="8.6199233"><ele>221.0</ele><time>2026-03-29T09:51:20.94Z</time></trkpt><trkpt lat="45.9583483" lon="8.62007"><ele>224.0</ele><time>2026-03-29T09:51:21.94Z</time></trkpt><trkpt lat="45.95848" lon="8.620225"><ele>218.33333333333334</ele><time>2026-03-29T09:51:22.94Z</time></trkpt><trkpt lat="45.9586383" lon="8.62038"><ele>212.66666666666669</ele><time>2026-03-29T09:51:23.94Z</time></trkpt><trkpt lat="45.9587983" lon="8.6205533"><ele>207.0</ele><time>2026-03-29T09:51:24.94Z</time></trkpt><trkpt lat="45.9589667" lon="8.6207367"><ele>207.0</ele><time>2026-03-29T09:51:25.94Z</time></trkpt><trkpt lat="45.9591467" lon="8.620935"><ele>207.0</ele><time>2026-03-29T09:51:26.94Z</time></trkpt><trkpt lat="45.959315" lon="8.6211217"><ele>207.0</ele><time>2026-03-29T09:51:27.94Z</time></trkpt><trkpt lat="45.9594667" lon="8.6213017"><ele>205.33333333333331</ele><time>2026-03-29T09:51:28.94Z</time></trkpt><trkpt lat="45.95962" lon="8.621445"><ele>203.66666666666666</ele><time>2026-03-29T09:51:29.94Z</time></trkpt><trkpt lat="45.9597867" lon="8.6215533"><ele>202.0</ele><time>2026-03-29T09:51:30.94Z</time></trkpt><trkpt lat="45.959955" lon="8.621645"><ele>203.66666666666666</ele><time>2026-03-29T09:51:31.94Z</time></trkpt><trkpt lat="45.9601183" lon="8.6216933"><ele>205.33333333333331</ele><time>2026-03-29T09:51:32.939Z</time></trkpt><trkpt lat="45.96027" lon="8.6217183"><ele>207.0</ele><time>2026-03-29T09:51:33.94Z</time></trkpt><trkpt lat="45.9604217" lon="8.6217417"><ele>207.0</ele><time>2026-03-29T09:51:34.94Z</time></trkpt><trkpt lat="45.9605683" lon="8.621765"><ele>207.0</ele><time>2026-03-29T09:51:35.94Z</time></trkpt><trkpt lat="45.9607033" lon="8.62179"><ele>207.0</ele><time>2026-03-29T09:51:36.94Z</time></trkpt><trkpt lat="45.960825" lon="8.621815"><ele>207.0</ele><time>2026-03-29T09:51:37.94Z</time></trkpt><trkpt lat="45.96095" lon="8.6218383"><ele>211.25</ele><time>2026-03-29T09:51:38.94Z</time></trkpt><trkpt lat="45.9610767" lon="8.6218533"><ele>215.5</ele><time>2026-03-29T09:51:39.94Z</time></trkpt><trkpt lat="45.961215" lon="8.6218733"><ele>219.75</ele><time>2026-03-29T09:51:40.939Z</time></trkpt><trkpt lat="45.96136" lon="8.6218833"><ele>224.0</ele><time>2026-03-29T09:51:41.94Z</time></trkpt><trkpt lat="45.9615067" lon="8.62192"><ele>224.0</ele><time>2026-03-29T09:51:42.94Z</time></trkpt><trkpt lat="45.9616767" lon="8.6219517"><ele>224.0</ele><time>2026-03-29T09:51:43.94Z</time></trkpt><trkpt lat="45.9618567" lon="8.6219817"><ele>224.0</ele><time>2026-03-29T09:51:44.94Z</time></trkpt><trkpt lat="45.96205" lon="8.6220267"><ele>218.66666666666669</ele><time>2026-03-29T09:51:45.94Z</time></trkpt><trkpt lat="45.9622317" lon="8.6220883"><ele>213.33333333333331</ele><time>2026-03-29T09:51:46.94Z</time></trkpt><trkpt lat="45.9624217" lon="8.6221333"><ele>208.0</ele><time>2026-03-29T09:51:47.94Z</time></trkpt><trkpt lat="45.962605" lon="8.62218"><ele>208.0</ele><time>2026-03-29T09:51:48.94Z</time></trkpt><trkpt lat="45.962775" lon="8.622255"><ele>208.0</ele><time>2026-03-29T09:51:49.94Z</time></trkpt><trkpt lat="45.9629417" lon="8.62235"><ele>208.0</ele><time>2026-03-29T09:51:50.94Z</time></trkpt><trkpt lat="45.9631217" lon="8.6224133"><ele>208.0</ele><time>2026-03-29T09:51:51.94Z</time></trkpt><trkpt lat="45.9632833" lon="8.6224583"><ele>208.0</ele><time>2026-03-29T09:51:52.94Z</time></trkpt><trkpt lat="45.96344" lon="8.6225633"><ele>208.0</ele><time>2026-03-29T09:51:53.94Z</time></trkpt><trkpt lat="45.9635867" lon="8.622635"><ele>205.75</ele><time>2026-03-29T09:51:54.94Z</time></trkpt><trkpt lat="45.96373" lon="8.6227033"><ele>203.5</ele><time>2026-03-29T09:51:55.94Z</time></trkpt><trkpt lat="45.9638567" lon="8.622765"><ele>201.25</ele><time>2026-03-29T09:51:56.939Z</time></trkpt><trkpt lat="45.9639833" lon="8.62282"><ele>199.0</ele><time>2026-03-29T09:51:57.94Z</time></trkpt><trkpt lat="45.9641133" lon="8.6228783"><ele>202.0</ele><time>2026-03-29T09:51:58.94Z</time></trkpt><trkpt lat="45.9642517" lon="8.62295"><ele>205.0</ele><time>2026-03-29T09:51:59.94Z</time></trkpt><trkpt lat="45.9643783" lon="8.6230067"><ele>208.0</ele><time>2026-03-29T09:52:00.94Z</time></trkpt><trkpt lat="45.964515" lon="8.623065"><ele>211.0</ele><time>2026-03-29T09:52:01.94Z</time></trkpt><trkpt lat="45.9646367" lon="8.6231167"><ele>211.0</ele><time>2026-03-29T09:52:02.94Z</time></trkpt><trkpt lat="45.96477" lon="8.6231717"><ele>211.0</ele><time>2026-03-29T09:52:03.94Z</time></trkpt><trkpt lat="45.964895" lon="8.6232283"><ele>211.0</ele><time>2026-03-29T09:52:04.94Z</time></trkpt><trkpt lat="45.9650133" lon="8.62329"><ele>211.0</ele><time>2026-03-29T09:52:05.94Z</time></trkpt><trkpt lat="45.9651367" lon="8.6233433"><ele>216.5</ele><time>2026-03-29T09:52:06.939Z</time></trkpt><trkpt lat="45.9652617" lon="8.6234183"><ele>222.0</ele><time>2026-03-29T09:52:07.94Z</time></trkpt><trkpt lat="45.96538" lon="8.6234817"><ele>227.5</ele><time>2026-03-29T09:52:08.94Z</time></trkpt><trkpt lat="45.96551" lon="8.6235567"><ele>233.0</ele><time>2026-03-29T09:52:09.94Z</time></trkpt><trkpt lat="45.96564" lon="8.62363"><ele>229.75</ele><time>2026-03-29T09:52:10.94Z</time></trkpt><trkpt lat="45.965765" lon="8.6237167"><ele>226.5</ele><time>2026-03-29T09:52:11.94Z</time></trkpt><trkpt lat="45.9658917" lon="8.6238"><ele>223.25</ele><time>2026-03-29T09:52:12.94Z</time></trkpt><trkpt lat="45.96603" lon="8.623895"><ele>220.0</ele><time>2026-03-29T09:52:13.94Z</time></trkpt><trkpt lat="45.96617" lon="8.6240067"><ele>220.0</ele><time>2026-03-29T09:52:14.94Z</time></trkpt><trkpt lat="45.9663267" lon="8.6241417"><ele>220.0</ele><time>2026-03-29T09:52:15.939Z</time></trkpt><trkpt lat="45.966495" lon="8.62429"><ele>220.0</ele><time>2026-03-29T09:52:16.94Z</time></trkpt><trkpt lat="45.9666767" lon="8.62444"><ele>221.33333333333331</ele><time>2026-03-29T09:52:17.94Z</time></trkpt><trkpt lat="45.9668533" lon="8.6245917"><ele>222.66666666666669</ele><time>2026-03-29T09:52:18.939Z</time></trkpt><trkpt lat="45.96701" lon="8.6247267"><ele>224.0</ele><time>2026-03-29T09:52:19.94Z</time></trkpt><trkpt lat="45.9671617" lon="8.62487"><ele>224.0</ele><time>2026-03-29T09:52:20.94Z</time></trkpt><trkpt lat="45.9673017" lon="8.62501"><ele>224.0</ele><time>2026-03-29T09:52:21.94Z</time></trkpt><trkpt lat="45.967425" lon="8.6251367"><ele>224.0</ele><time>2026-03-29T09:52:22.94Z</time></trkpt><trkpt lat="45.9675267" lon="8.6252833"><ele>224.0</ele><time>2026-03-29T09:52:23.94Z</time></trkpt><trkpt lat="45.9676167" lon="8.625445"><ele>224.0</ele><time>2026-03-29T09:52:24.94Z</time></trkpt><trkpt lat="45.9677117" lon="8.6256"><ele>224.0</ele><time>2026-03-29T09:52:25.94Z</time></trkpt><trkpt lat="45.9678017" lon="8.625745"><ele>224.0</ele><time>2026-03-29T09:52:26.939Z</time></trkpt><trkpt lat="45.9678917" lon="8.62588"><ele>224.0</ele><time>2026-03-29T09:52:27.94Z</time></trkpt><trkpt lat="45.9679883" lon="8.6259967"><ele>224.0</ele><time>2026-03-29T09:52:28.94Z</time></trkpt><trkpt lat="45.9680917" lon="8.6261033"><ele>224.0</ele><time>2026-03-29T09:52:29.94Z</time></trkpt><trkpt lat="45.9682133" lon="8.6261967"><ele>224.0</ele><time>2026-03-29T09:52:30.939Z</time></trkpt><trkpt lat="45.9683583" lon="8.6262817"><ele>217.33333333333334</ele><time>2026-03-29T09:52:31.939Z</time></trkpt><trkpt lat="45.96852" lon="8.6263517"><ele>210.66666666666669</ele><time>2026-03-29T09:52:32.94Z</time></trkpt><trkpt lat="45.9687017" lon="8.6264217"><ele>204.0</ele><time>2026-03-29T09:52:33.94Z</time></trkpt><trkpt lat="45.9688967" lon="8.6265067"><ele>204.0</ele><time>2026-03-29T09:52:34.94Z</time></trkpt><trkpt lat="45.9691083" lon="8.6265867"><ele>204.0</ele><time>2026-03-29T09:52:35.939Z</time></trkpt><trkpt lat="45.9693417" lon="8.6266683"><ele>209.5</ele><time>2026-03-29T09:52:36.94Z</time></trkpt><trkpt lat="45.969575" lon="8.62677"><ele>215.0</ele><time>2026-03-29T09:52:37.94Z</time></trkpt><trkpt lat="45.969815" lon="8.6268783"><ele>209.0</ele><time>2026-03-29T09:52:38.939Z</time></trkpt><trkpt lat="45.9700583" lon="8.6269733"><ele>203.0</ele><time>2026-03-29T09:52:39.94Z</time></trkpt><trkpt lat="45.9703017" lon="8.6270667"><ele>203.0</ele><time>2026-03-29T09:52:40.94Z</time></trkpt><trkpt lat="45.970535" lon="8.627175"><ele>203.0</ele><time>2026-03-29T09:52:41.94Z</time></trkpt><trkpt lat="45.9707783" lon="8.627295"><ele>211.0</ele><time>2026-03-29T09:52:42.94Z</time></trkpt><trkpt lat="45.97102" lon="8.62742"><ele>219.0</ele><time>2026-03-29T09:52:43.94Z</time></trkpt><trkpt lat="45.9712467" lon="8.627595"><ele>219.0</ele><time>2026-03-29T09:52:44.94Z</time></trkpt><trkpt lat="45.9714767" lon="8.6277733"><ele>219.0</ele><time>2026-03-29T09:52:45.94Z</time></trkpt><trkpt lat="45.9717117" lon="8.6279517"><ele>223.0</ele><time>2026-03-29T09:52:46.94Z</time></trkpt><trkpt lat="45.9719133" lon="8.628155"><ele>227.0</ele><time>2026-03-29T09:52:47.94Z</time></trkpt><trkpt lat="45.972085" lon="8.628365"><ele>227.0</ele><time>2026-03-29T09:52:48.94Z</time></trkpt><trkpt lat="45.9722467" lon="8.62857"><ele>227.0</ele><time>2026-03-29T09:52:49.94Z</time></trkpt><trkpt lat="45.97238" lon="8.6287667"><ele>227.0</ele><time>2026-03-29T09:52:50.94Z</time></trkpt><trkpt lat="45.972495" lon="8.6289717"><ele>229.33333333333334</ele><time>2026-03-29T09:52:51.939Z</time></trkpt><trkpt lat="45.9725983" lon="8.6291633"><ele>231.66666666666669</ele><time>2026-03-29T09:52:52.939Z</time></trkpt><trkpt lat="45.9727117" lon="8.6293333"><ele>234.0</ele><time>2026-03-29T09:52:53.94Z</time></trkpt><trkpt lat="45.9728317" lon="8.6294933"><ele>226.0</ele><time>2026-03-29T09:52:54.94Z</time></trkpt><trkpt lat="45.97298" lon="8.6296233"><ele>218.0</ele><time>2026-03-29T09:52:55.94Z</time></trkpt><trkpt lat="45.973145" lon="8.629735"><ele>210.0</ele><time>2026-03-29T09:52:56.939Z</time></trkpt><trkpt lat="45.97331" lon="8.6298317"><ele>220.0</ele><time>2026-03-29T09:52:57.94Z</time></trkpt><trkpt lat="45.9734683" lon="8.6299567"><ele>230.0</ele><time>2026-03-29T09:52:58.94Z</time></trkpt><trkpt lat="45.9736083" lon="8.63011"><ele>240.0</ele><time>2026-03-29T09:52:59.94Z</time></trkpt><trkpt lat="45.9737333" lon="8.6302683"><ele>231.33333333333331</ele><time>2026-03-29T09:53:00.94Z</time></trkpt><trkpt lat="45.9738467" lon="8.63043"><ele>222.66666666666666</ele><time>2026-03-29T09:53:01.94Z</time></trkpt><trkpt lat="45.9739667" lon="8.6305733"><ele>214.0</ele><time>2026-03-29T09:53:02.94Z</time></trkpt><trkpt lat="45.974085" lon="8.6307283"><ele>219.66666666666666</ele><time>2026-03-29T09:53:03.94Z</time></trkpt><trkpt lat="45.9742067" lon="8.630885"><ele>225.33333333333331</ele><time>2026-03-29T09:53:04.94Z</time></trkpt><trkpt lat="45.9743283" lon="8.63104"><ele>231.0</ele><time>2026-03-29T09:53:05.94Z</time></trkpt><trkpt lat="45.9744467" lon="8.6312133"><ele>231.0</ele><time>2026-03-29T09:53:06.94Z</time></trkpt><trkpt lat="45.97457" lon="8.6313617"><ele>231.0</ele><time>2026-03-29T09:53:07.94Z</time></trkpt><trkpt lat="45.974725" lon="8.63154"><ele>231.0</ele><time>2026-03-29T09:53:08.94Z</time></trkpt><trkpt lat="45.9748933" lon="8.6317217"><ele>229.5</ele><time>2026-03-29T09:53:09.94Z</time></trkpt><trkpt lat="45.9750667" lon="8.6319133"><ele>228.0</ele><time>2026-03-29T09:53:10.94Z</time></trkpt><trkpt lat="45.9752517" lon="8.6321167"><ele>228.0</ele><time>2026-03-29T09:53:11.94Z</time></trkpt><trkpt lat="45.9754383" lon="8.63233"><ele>228.0</ele><time>2026-03-29T09:53:12.94Z</time></trkpt><trkpt lat="45.97563" lon="8.632545"><ele>228.0</ele><time>2026-03-29T09:53:13.94Z</time></trkpt><trkpt lat="45.9758283" lon="8.632755"><ele>228.0</ele><time>2026-03-29T09:53:14.94Z</time></trkpt><trkpt lat="45.9760033" lon="8.6329883"><ele>224.5</ele><time>2026-03-29T09:53:15.94Z</time></trkpt><trkpt lat="45.976175" lon="8.63323"><ele>221.0</ele><time>2026-03-29T09:53:16.94Z</time></trkpt><trkpt lat="45.976335" lon="8.6334783"><ele>211.5</ele><time>2026-03-29T09:53:17.94Z</time></trkpt><trkpt lat="45.9764917" lon="8.6337467"><ele>202.0</ele><time>2026-03-29T09:53:18.94Z</time></trkpt><trkpt lat="45.9766433" lon="8.634005"><ele>202.33333333333331</ele><time>2026-03-29T09:53:19.94Z</time></trkpt><trkpt lat="45.9767883" lon="8.634245"><ele>202.66666666666669</ele><time>2026-03-29T09:53:20.94Z</time></trkpt><trkpt lat="45.9769333" lon="8.634455"><ele>203.0</ele><time>2026-03-29T09:53:21.94Z</time></trkpt><trkpt lat="45.9770783" lon="8.63465"><ele>203.0</ele><time>2026-03-29T09:53:22.94Z</time></trkpt><trkpt lat="45.977245" lon="8.6348133"><ele>203.0</ele><time>2026-03-29T09:53:23.94Z</time></trkpt><trkpt lat="45.9774233" lon="8.634945"><ele>203.0</ele><time>2026-03-29T09:53:24.94Z</time></trkpt><trkpt lat="45.9776" lon="8.6350417"><ele>210.66666666666669</ele><time>2026-03-29T09:53:25.94Z</time></trkpt><trkpt lat="45.9777917" lon="8.635125"><ele>218.33333333333331</ele><time>2026-03-29T09:53:26.94Z</time></trkpt><trkpt lat="45.9779833" lon="8.635205"><ele>226.0</ele><time>2026-03-29T09:53:27.94Z</time></trkpt><trkpt lat="45.978185" lon="8.6353033"><ele>227.66666666666666</ele><time>2026-03-29T09:53:28.94Z</time></trkpt><trkpt lat="45.9783883" lon="8.6354183"><ele>229.33333333333331</ele><time>2026-03-29T09:53:29.94Z</time></trkpt><trkpt lat="45.9785817" lon="8.635555"><ele>231.0</ele><time>2026-03-29T09:53:30.939Z</time></trkpt><trkpt lat="45.97878" lon="8.63572"><ele>231.0</ele><time>2026-03-29T09:53:31.94Z</time></trkpt><trkpt lat="45.9789667" lon="8.6358883"><ele>231.0</ele><time>2026-03-29T09:53:32.939Z</time></trkpt><trkpt lat="45.9791617" lon="8.6360567"><ele>231.0</ele><time>2026-03-29T09:53:33.94Z</time></trkpt><trkpt lat="45.9793567" lon="8.636235"><ele>232.0</ele><time>2026-03-29T09:53:34.94Z</time></trkpt><trkpt lat="45.979545" lon="8.6364233"><ele>233.0</ele><time>2026-03-29T09:53:35.94Z</time></trkpt><trkpt lat="45.979735" lon="8.636625"><ele>233.0</ele><time>2026-03-29T09:53:36.94Z</time></trkpt><trkpt lat="45.9799183" lon="8.6368317"><ele>233.0</ele><time>2026-03-29T09:53:37.94Z</time></trkpt><trkpt lat="45.9801" lon="8.637035"><ele>234.5</ele><time>2026-03-29T09:53:38.94Z</time></trkpt><trkpt lat="45.980295" lon="8.6372417"><ele>236.0</ele><time>2026-03-29T09:53:39.939Z</time></trkpt><trkpt lat="45.98048" lon="8.6374483"><ele>236.0</ele><time>2026-03-29T09:53:40.94Z</time></trkpt><trkpt lat="45.9806667" lon="8.6376567"><ele>236.0</ele><time>2026-03-29T09:53:41.94Z</time></trkpt><trkpt lat="45.9808617" lon="8.6378633"><ele>229.5</ele><time>2026-03-29T09:53:42.939Z</time></trkpt><trkpt lat="45.9810633" lon="8.638065"><ele>223.0</ele><time>2026-03-29T09:53:43.94Z</time></trkpt><trkpt lat="45.9812617" lon="8.6382683"><ele>223.0</ele><time>2026-03-29T09:53:44.94Z</time></trkpt><trkpt lat="45.9814517" lon="8.6384817"><ele>223.0</ele><time>2026-03-29T09:53:45.94Z</time></trkpt><trkpt lat="45.9816433" lon="8.6387033"><ele>220.5</ele><time>2026-03-29T09:53:46.94Z</time></trkpt><trkpt lat="45.98183" lon="8.6389283"><ele>218.0</ele><time>2026-03-29T09:53:47.94Z</time></trkpt><trkpt lat="45.9820083" lon="8.63916"><ele>218.0</ele><time>2026-03-29T09:53:48.94Z</time></trkpt><trkpt lat="45.982185" lon="8.6393933"><ele>218.0</ele><time>2026-03-29T09:53:49.94Z</time></trkpt><trkpt lat="45.982365" lon="8.639635"><ele>214.5</ele><time>2026-03-29T09:53:50.939Z</time></trkpt><trkpt lat="45.98254" lon="8.6398783"><ele>211.0</ele><time>2026-03-29T09:53:51.94Z</time></trkpt><trkpt lat="45.98271" lon="8.6401017"><ele>211.0</ele><time>2026-03-29T09:53:52.94Z</time></trkpt><trkpt lat="45.9828617" lon="8.6402733"><ele>211.0</ele><time>2026-03-29T09:53:53.94Z</time></trkpt><trkpt lat="45.9830067" lon="8.6404417"><ele>211.0</ele><time>2026-03-29T09:53:54.94Z</time></trkpt><trkpt lat="45.9831667" lon="8.6405417"><ele>208.33333333333331</ele><time>2026-03-29T09:53:55.94Z</time></trkpt><trkpt lat="45.9833283" lon="8.6406117"><ele>205.66666666666669</ele><time>2026-03-29T09:53:56.94Z</time></trkpt><trkpt lat="45.9835183" lon="8.64062"><ele>203.0</ele><time>2026-03-29T09:53:57.94Z</time></trkpt><trkpt lat="45.9837067" lon="8.6405967"><ele>203.0</ele><time>2026-03-29T09:53:58.94Z</time></trkpt><trkpt lat="45.9839067" lon="8.6405683"><ele>203.0</ele><time>2026-03-29T09:53:59.94Z</time></trkpt><trkpt lat="45.9841167" lon="8.6405417"><ele>203.0</ele><time>2026-03-29T09:54:00.94Z</time></trkpt><trkpt lat="45.9843217" lon="8.640525"><ele>205.66666666666669</ele><time>2026-03-29T09:54:01.94Z</time></trkpt><trkpt lat="45.98451" lon="8.640555"><ele>208.33333333333331</ele><time>2026-03-29T09:54:02.94Z</time></trkpt><trkpt lat="45.9846917" lon="8.640625"><ele>211.0</ele><time>2026-03-29T09:54:03.94Z</time></trkpt><trkpt lat="45.9848667" lon="8.640735"><ele>208.0</ele><time>2026-03-29T09:54:04.94Z</time></trkpt><trkpt lat="45.9850383" lon="8.6408617"><ele>205.0</ele><time>2026-03-29T09:54:05.94Z</time></trkpt><trkpt lat="45.98522" lon="8.6409917"><ele>202.0</ele><time>2026-03-29T09:54:06.94Z</time></trkpt><trkpt lat="45.985405" lon="8.6411367"><ele>202.0</ele><time>2026-03-29T09:54:07.94Z</time></trkpt><trkpt lat="45.9855967" lon="8.6412683"><ele>202.0</ele><time>2026-03-29T09:54:08.94Z</time></trkpt><trkpt lat="45.9858017" lon="8.6414"><ele>202.0</ele><time>2026-03-29T09:54:09.94Z</time></trkpt><trkpt lat="45.9860067" lon="8.6415683"><ele>211.0</ele><time>2026-03-29T09:54:10.94Z</time></trkpt><trkpt lat="45.9862033" lon="8.6417517"><ele>220.0</ele><time>2026-03-29T09:54:11.94Z</time></trkpt><trkpt lat="45.986395" lon="8.6419367"><ele>221.5</ele><time>2026-03-29T09:54:12.939Z</time></trkpt><trkpt lat="45.986585" lon="8.6421117"><ele>223.0</ele><time>2026-03-29T09:54:13.939Z</time></trkpt><trkpt lat="45.9867817" lon="8.642305"><ele>223.0</ele><time>2026-03-29T09:54:14.939Z</time></trkpt><trkpt lat="45.9869817" lon="8.6424983"><ele>223.0</ele><time>2026-03-29T09:54:15.939Z</time></trkpt><trkpt lat="45.9871733" lon="8.6427017"><ele>223.0</ele><time>2026-03-29T09:54:16.939Z</time></trkpt><trkpt lat="45.9873683" lon="8.642895"><ele>223.0</ele><time>2026-03-29T09:54:17.939Z</time></trkpt><trkpt lat="45.9875717" lon="8.6430783"><ele>223.0</ele><time>2026-03-29T09:54:18.939Z</time></trkpt><trkpt lat="45.9877667" lon="8.64327"><ele>223.0</ele><time>2026-03-29T09:54:19.938Z</time></trkpt><trkpt lat="45.9879617" lon="8.6434633"><ele>214.5</ele><time>2026-03-29T09:54:20.939Z</time></trkpt><trkpt lat="45.98816" lon="8.6436633"><ele>206.0</ele><time>2026-03-29T09:54:21.939Z</time></trkpt><trkpt lat="45.9883417" lon="8.6438833"><ele>206.66666666666669</ele><time>2026-03-29T09:54:22.939Z</time></trkpt><trkpt lat="45.988505" lon="8.6440967"><ele>207.33333333333331</ele><time>2026-03-29T09:54:23.938Z</time></trkpt><trkpt lat="45.9886567" lon="8.644295"><ele>208.0</ele><time>2026-03-29T09:54:24.939Z</time></trkpt><trkpt lat="45.988795" lon="8.644475"><ele>208.0</ele><time>2026-03-29T09:54:25.939Z</time></trkpt><trkpt lat="45.9889183" lon="8.6446467"><ele>208.0</ele><time>2026-03-29T09:54:26.939Z</time></trkpt><trkpt lat="45.9890417" lon="8.6448183"><ele>208.0</ele><time>2026-03-29T09:54:27.939Z</time></trkpt><trkpt lat="45.9891567" lon="8.6449817"><ele>210.33333333333331</ele><time>2026-03-29T09:54:28.939Z</time></trkpt><trkpt lat="45.9892733" lon="8.6451383"><ele>212.66666666666669</ele><time>2026-03-29T09:54:29.939Z</time></trkpt><trkpt lat="45.9894" lon="8.6452867"><ele>215.0</ele><time>2026-03-29T09:54:30.939Z</time></trkpt><trkpt lat="45.9895317" lon="8.6454533"><ele>215.0</ele><time>2026-03-29T09:54:31.939Z</time></trkpt><trkpt lat="45.98966" lon="8.6456333"><ele>215.0</ele><time>2026-03-29T09:54:32.939Z</time></trkpt><trkpt lat="45.989785" lon="8.64581"><ele>215.0</ele><time>2026-03-29T09:54:33.939Z</time></trkpt><trkpt lat="45.9898967" lon="8.645955"><ele>215.0</ele><time>2026-03-29T09:54:34.938Z</time></trkpt><trkpt lat="45.9899967" lon="8.6460833"><ele>215.0</ele><time>2026-03-29T09:54:35.939Z</time></trkpt><trkpt lat="45.99008" lon="8.6461883"><ele>215.0</ele><time>2026-03-29T09:54:36.939Z</time></trkpt><trkpt lat="45.9901533" lon="8.646285"><ele>215.0</ele><time>2026-03-29T09:54:37.939Z</time></trkpt><trkpt lat="45.990225" lon="8.646375"><ele>215.0</ele><time>2026-03-29T09:54:38.939Z</time></trkpt><trkpt lat="45.9902883" lon="8.6464717"><ele>214.4</ele><time>2026-03-29T09:54:39.939Z</time></trkpt><trkpt lat="45.990345" lon="8.6465733"><ele>213.8</ele><time>2026-03-29T09:54:40.939Z</time></trkpt><trkpt lat="45.990395" lon="8.6466667"><ele>213.2</ele><time>2026-03-29T09:54:41.939Z</time></trkpt><trkpt lat="45.9904467" lon="8.6467833"><ele>212.6</ele><time>2026-03-29T09:54:42.939Z</time></trkpt><trkpt lat="45.9905133" lon="8.6469083"><ele>212.0</ele><time>2026-03-29T09:54:43.939Z</time></trkpt><trkpt lat="45.99057" lon="8.6470417"><ele>212.0</ele><time>2026-03-29T09:54:44.939Z</time></trkpt><trkpt lat="45.99063" lon="8.6471717"><ele>212.0</ele><time>2026-03-29T09:54:45.938Z</time></trkpt><trkpt lat="45.990695" lon="8.6473067"><ele>212.0</ele><time>2026-03-29T09:54:46.939Z</time></trkpt><trkpt lat="45.990755" lon="8.647445"><ele>212.0</ele><time>2026-03-29T09:54:47.939Z</time></trkpt><trkpt lat="45.9908083" lon="8.6475983"><ele>216.25</ele><time>2026-03-29T09:54:48.939Z</time></trkpt><trkpt lat="45.99087" lon="8.6477483"><ele>220.5</ele><time>2026-03-29T09:54:49.939Z</time></trkpt><trkpt lat="45.990925" lon="8.6479133"><ele>224.75</ele><time>2026-03-29T09:54:50.939Z</time></trkpt><trkpt lat="45.9909883" lon="8.648065"><ele>229.0</ele><time>2026-03-29T09:54:51.939Z</time></trkpt><trkpt lat="45.9910517" lon="8.648225"><ele>229.0</ele><time>2026-03-29T09:54:52.938Z</time></trkpt><trkpt lat="45.9911133" lon="8.6483783"><ele>229.0</ele><time>2026-03-29T09:54:53.939Z</time></trkpt><trkpt lat="45.9911767" lon="8.6485217"><ele>229.0</ele><time>2026-03-29T09:54:54.939Z</time></trkpt><trkpt lat="45.9912417" lon="8.64869"><ele>229.0</ele><time>2026-03-29T09:54:55.939Z</time></trkpt><trkpt lat="45.9913" lon="8.648865"><ele>225.0</ele><time>2026-03-29T09:54:56.939Z</time></trkpt><trkpt lat="45.9913683" lon="8.649035"><ele>221.0</ele><time>2026-03-29T09:54:57.939Z</time></trkpt><trkpt lat="45.9914383" lon="8.6492033"><ele>217.0</ele><time>2026-03-29T09:54:58.939Z</time></trkpt><trkpt lat="45.9915117" lon="8.649375"><ele>213.0</ele><time>2026-03-29T09:54:59.939Z</time></trkpt><trkpt lat="45.991595" lon="8.6495483"><ele>211.5</ele><time>2026-03-29T09:55:00.939Z</time></trkpt><trkpt lat="45.9916717" lon="8.649725"><ele>210.0</ele><time>2026-03-29T09:55:01.939Z</time></trkpt><trkpt lat="45.9917667" lon="8.6498967"><ele>208.5</ele><time>2026-03-29T09:55:02.939Z</time></trkpt><trkpt lat="45.991875" lon="8.6500367"><ele>207.0</ele><time>2026-03-29T09:55:03.939Z</time></trkpt><trkpt lat="45.9919917" lon="8.6501883"><ele>207.0</ele><time>2026-03-29T09:55:04.939Z</time></trkpt><trkpt lat="45.992125" lon="8.6503567"><ele>207.0</ele><time>2026-03-29T09:55:05.938Z</time></trkpt><trkpt lat="45.9922933" lon="8.6505283"><ele>207.0</ele><time>2026-03-29T09:55:06.939Z</time></trkpt><trkpt lat="45.992475" lon="8.6507133"><ele>218.0</ele><time>2026-03-29T09:55:07.939Z</time></trkpt><trkpt lat="45.9926633" lon="8.6509067"><ele>229.0</ele><time>2026-03-29T09:55:08.939Z</time></trkpt><trkpt lat="45.9928467" lon="8.6511083"><ele>218.5</ele><time>2026-03-29T09:55:09.938Z</time></trkpt><trkpt lat="45.993045" lon="8.651315"><ele>208.0</ele><time>2026-03-29T09:55:10.939Z</time></trkpt><trkpt lat="45.9932317" lon="8.6515217"><ele>210.5</ele><time>2026-03-29T09:55:11.939Z</time></trkpt><trkpt lat="45.9934183" lon="8.6517467"><ele>213.0</ele><time>2026-03-29T09:55:12.939Z</time></trkpt><trkpt lat="45.9936217" lon="8.6519717"><ele>213.0</ele><time>2026-03-29T09:55:13.939Z</time></trkpt><trkpt lat="45.9938233" lon="8.6521883"><ele>213.0</ele><time>2026-03-29T09:55:14.939Z</time></trkpt><trkpt lat="45.9940267" lon="8.6524"><ele>215.5</ele><time>2026-03-29T09:55:15.939Z</time></trkpt><trkpt lat="45.9942333" lon="8.65262"><ele>218.0</ele><time>2026-03-29T09:55:16.939Z</time></trkpt><trkpt lat="45.9944467" lon="8.6528217"><ele>218.0</ele><time>2026-03-29T09:55:17.939Z</time></trkpt><trkpt lat="45.994645" lon="8.653025"><ele>218.0</ele><time>2026-03-29T09:55:18.939Z</time></trkpt><trkpt lat="45.9948183" lon="8.6532433"><ele>218.0</ele><time>2026-03-29T09:55:19.939Z</time></trkpt><trkpt lat="45.99498" lon="8.6534333"><ele>218.0</ele><time>2026-03-29T09:55:20.939Z</time></trkpt><trkpt lat="45.9951317" lon="8.6536217"><ele>218.0</ele><time>2026-03-29T09:55:21.939Z</time></trkpt><trkpt lat="45.9952867" lon="8.6537717"><ele>217.0</ele><time>2026-03-29T09:55:22.939Z</time></trkpt><trkpt lat="45.9954317" lon="8.6539233"><ele>216.0</ele><time>2026-03-29T09:55:23.939Z</time></trkpt><trkpt lat="45.9955683" lon="8.6540483"><ele>215.0</ele><time>2026-03-29T09:55:24.939Z</time></trkpt><trkpt lat="45.9956967" lon="8.65416"><ele>215.0</ele><time>2026-03-29T09:55:25.939Z</time></trkpt><trkpt lat="45.99582" lon="8.6542433"><ele>215.0</ele><time>2026-03-29T09:55:26.939Z</time></trkpt><trkpt lat="45.9959433" lon="8.6543333"><ele>215.0</ele><time>2026-03-29T09:55:27.939Z</time></trkpt><trkpt lat="45.99607" lon="8.6544367"><ele>215.0</ele><time>2026-03-29T09:55:28.939Z</time></trkpt><trkpt lat="45.9962233" lon="8.654545"><ele>213.33333333333334</ele><time>2026-03-29T09:55:29.939Z</time></trkpt><trkpt lat="45.996385" lon="8.654665"><ele>211.66666666666669</ele><time>2026-03-29T09:55:30.939Z</time></trkpt><trkpt lat="45.996565" lon="8.6548117"><ele>210.0</ele><time>2026-03-29T09:55:31.939Z</time></trkpt><trkpt lat="45.996755" lon="8.6549633"><ele>206.66666666666669</ele><time>2026-03-29T09:55:32.939Z</time></trkpt><trkpt lat="45.99694" lon="8.6551233"><ele>203.33333333333334</ele><time>2026-03-29T09:55:33.939Z</time></trkpt><trkpt lat="45.9971333" lon="8.65527"><ele>200.0</ele><time>2026-03-29T09:55:34.939Z</time></trkpt><trkpt lat="45.99733" lon="8.655425"><ele>206.5</ele><time>2026-03-29T09:55:35.939Z</time></trkpt><trkpt lat="45.9975367" lon="8.65559"><ele>213.0</ele><time>2026-03-29T09:55:36.939Z</time></trkpt><trkpt lat="45.99774" lon="8.655755"><ele>213.0</ele><time>2026-03-29T09:55:37.939Z</time></trkpt><trkpt lat="45.9979617" lon="8.655875"><ele>213.0</ele><time>2026-03-29T09:55:38.939Z</time></trkpt><trkpt lat="45.9981867" lon="8.655955"><ele>215.0</ele><time>2026-03-29T09:55:39.939Z</time></trkpt><trkpt lat="45.9984117" lon="8.65603"><ele>217.0</ele><time>2026-03-29T09:55:40.939Z</time></trkpt><trkpt lat="45.9986133" lon="8.6560983"><ele>219.0</ele><time>2026-03-29T09:55:41.939Z</time></trkpt><trkpt lat="45.998805" lon="8.65615"><ele>212.33333333333331</ele><time>2026-03-29T09:55:42.939Z</time></trkpt><trkpt lat="45.9989833" lon="8.6562017"><ele>205.66666666666666</ele><time>2026-03-29T09:55:43.939Z</time></trkpt><trkpt lat="45.9991467" lon="8.6562533"><ele>199.0</ele><time>2026-03-29T09:55:44.939Z</time></trkpt><trkpt lat="45.99931" lon="8.6562983"><ele>199.0</ele><time>2026-03-29T09:55:45.939Z</time></trkpt><trkpt lat="45.9994717" lon="8.6563367"><ele>199.0</ele><time>2026-03-29T09:55:46.939Z</time></trkpt><trkpt lat="45.9996333" lon="8.6563733"><ele>199.0</ele><time>2026-03-29T09:55:47.939Z</time></trkpt><trkpt lat="45.9997983" lon="8.65642"><ele>199.0</ele><time>2026-03-29T09:55:48.939Z</time></trkpt><trkpt lat="45.9999667" lon="8.6564667"><ele>199.0</ele><time>2026-03-29T09:55:49.938Z</time></trkpt><trkpt lat="46.00014" lon="8.6565283"><ele>199.0</ele><time>2026-03-29T09:55:50.939Z</time></trkpt><trkpt lat="46.000315" lon="8.6565917"><ele>199.0</ele><time>2026-03-29T09:55:51.939Z</time></trkpt><trkpt lat="46.0004983" lon="8.6566633"><ele>199.0</ele><time>2026-03-29T09:55:52.939Z</time></trkpt><trkpt lat="46.0006767" lon="8.656745"><ele>199.0</ele><time>2026-03-29T09:55:53.939Z</time></trkpt><trkpt lat="46.0008533" lon="8.656835"><ele>197.33333333333331</ele><time>2026-03-29T09:55:54.938Z</time></trkpt><trkpt lat="46.0010267" lon="8.6569417"><ele>195.66666666666669</ele><time>2026-03-29T09:55:55.939Z</time></trkpt><trkpt lat="46.0012067" lon="8.6570717"><ele>194.0</ele><time>2026-03-29T09:55:56.939Z</time></trkpt><trkpt lat="46.001395" lon="8.6571983"><ele>194.0</ele><time>2026-03-29T09:55:57.939Z</time></trkpt><trkpt lat="46.0015817" lon="8.6573233"><ele>194.0</ele><time>2026-03-29T09:55:58.939Z</time></trkpt><trkpt lat="46.0017817" lon="8.6574417"><ele>194.0</ele><time>2026-03-29T09:55:59.939Z</time></trkpt><trkpt lat="46.0019783" lon="8.65758"><ele>194.33333333333334</ele><time>2026-03-29T09:56:00.939Z</time></trkpt><trkpt lat="46.00218" lon="8.6577017"><ele>194.66666666666669</ele><time>2026-03-29T09:56:01.939Z</time></trkpt><trkpt lat="46.0023817" lon="8.6578333"><ele>195.0</ele><time>2026-03-29T09:56:02.939Z</time></trkpt><trkpt lat="46.0025833" lon="8.657965"><ele>198.0</ele><time>2026-03-29T09:56:03.939Z</time></trkpt><trkpt lat="46.0027917" lon="8.658105"><ele>201.0</ele><time>2026-03-29T09:56:04.939Z</time></trkpt><trkpt lat="46.0030067" lon="8.6582217"><ele>201.0</ele><time>2026-03-29T09:56:05.939Z</time></trkpt><trkpt lat="46.0032233" lon="8.6583217"><ele>201.0</ele><time>2026-03-29T09:56:06.939Z</time></trkpt><trkpt lat="46.003445" lon="8.6584083"><ele>203.5</ele><time>2026-03-29T09:56:07.939Z</time></trkpt><trkpt lat="46.0036633" lon="8.6584883"><ele>206.0</ele><time>2026-03-29T09:56:08.939Z</time></trkpt><trkpt lat="46.00388" lon="8.658575"><ele>204.66666666666669</ele><time>2026-03-29T09:56:09.939Z</time></trkpt><trkpt lat="46.0040967" lon="8.658655"><ele>203.33333333333331</ele><time>2026-03-29T09:56:10.939Z</time></trkpt><trkpt lat="46.00429" lon="8.658755"><ele>202.0</ele><time>2026-03-29T09:56:11.939Z</time></trkpt><trkpt lat="46.0044983" lon="8.6588283"><ele>202.0</ele><time>2026-03-29T09:56:12.939Z</time></trkpt><trkpt lat="46.0046917" lon="8.658895"><ele>202.0</ele><time>2026-03-29T09:56:13.939Z</time></trkpt><trkpt lat="46.00485" lon="8.6589867"><ele>202.0</ele><time>2026-03-29T09:56:14.939Z</time></trkpt><trkpt lat="46.0050117" lon="8.65911"><ele>202.0</ele><time>2026-03-29T09:56:15.939Z</time></trkpt><trkpt lat="46.0051817" lon="8.659225"><ele>202.0</ele><time>2026-03-29T09:56:16.939Z</time></trkpt><trkpt lat="46.0053283" lon="8.6593733"><ele>202.0</ele><time>2026-03-29T09:56:17.939Z</time></trkpt><trkpt lat="46.0054717" lon="8.6595383"><ele>202.0</ele><time>2026-03-29T09:56:18.939Z</time></trkpt><trkpt lat="46.0056183" lon="8.659695"><ele>202.0</ele><time>2026-03-29T09:56:19.939Z</time></trkpt><trkpt lat="46.0057633" lon="8.6598633"><ele>202.0</ele><time>2026-03-29T09:56:20.939Z</time></trkpt><trkpt lat="46.0059167" lon="8.6600217"><ele>201.33333333333331</ele><time>2026-03-29T09:56:21.939Z</time></trkpt><trkpt lat="46.0060767" lon="8.6601683"><ele>200.66666666666669</ele><time>2026-03-29T09:56:22.939Z</time></trkpt><trkpt lat="46.0062283" lon="8.6603233"><ele>200.0</ele><time>2026-03-29T09:56:23.938Z</time></trkpt><trkpt lat="46.0063917" lon="8.6604817"><ele>200.33333333333334</ele><time>2026-03-29T09:56:24.939Z</time></trkpt><trkpt lat="46.00657" lon="8.6606283"><ele>200.66666666666669</ele><time>2026-03-29T09:56:25.939Z</time></trkpt><trkpt lat="46.0067533" lon="8.660775"><ele>201.0</ele><time>2026-03-29T09:56:26.939Z</time></trkpt><trkpt lat="46.0069267" lon="8.6609283"><ele>201.0</ele><time>2026-03-29T09:56:27.939Z</time></trkpt><trkpt lat="46.00711" lon="8.66108"><ele>201.0</ele><time>2026-03-29T09:56:28.939Z</time></trkpt><trkpt lat="46.007285" lon="8.6612383"><ele>201.0</ele><time>2026-03-29T09:56:29.939Z</time></trkpt><trkpt lat="46.00744" lon="8.6613633"><ele>203.0</ele><time>2026-03-29T09:56:30.939Z</time></trkpt><trkpt lat="46.0075667" lon="8.6615133"><ele>205.0</ele><time>2026-03-29T09:56:31.939Z</time></trkpt><trkpt lat="46.0076783" lon="8.6616567"><ele>207.0</ele><time>2026-03-29T09:56:32.939Z</time></trkpt><trkpt lat="46.0077767" lon="8.661815"><ele>204.25</ele><time>2026-03-29T09:56:33.939Z</time></trkpt><trkpt lat="46.00786" lon="8.661975"><ele>201.5</ele><time>2026-03-29T09:56:34.939Z</time></trkpt><trkpt lat="46.0079317" lon="8.66213"><ele>198.75</ele><time>2026-03-29T09:56:35.939Z</time></trkpt><trkpt lat="46.008" lon="8.66228"><ele>196.0</ele><time>2026-03-29T09:56:36.939Z</time></trkpt><trkpt lat="46.00807" lon="8.6624283"><ele>196.0</ele><time>2026-03-29T09:56:37.939Z</time></trkpt><trkpt lat="46.0081383" lon="8.662585"><ele>196.0</ele><time>2026-03-29T09:56:38.939Z</time></trkpt><trkpt lat="46.0082067" lon="8.6627333"><ele>196.0</ele><time>2026-03-29T09:56:39.939Z</time></trkpt><trkpt lat="46.0083017" lon="8.6628633"><ele>196.0</ele><time>2026-03-29T09:56:40.939Z</time></trkpt><trkpt lat="46.0084083" lon="8.6629883"><ele>196.0</ele><time>2026-03-29T09:56:41.939Z</time></trkpt><trkpt lat="46.0085367" lon="8.663105"><ele>196.0</ele><time>2026-03-29T09:56:42.939Z</time></trkpt><trkpt lat="46.008675" lon="8.6632083"><ele>196.0</ele><time>2026-03-29T09:56:43.939Z</time></trkpt><trkpt lat="46.0088333" lon="8.663335"><ele>196.0</ele><time>2026-03-29T09:56:44.939Z</time></trkpt><trkpt lat="46.009" lon="8.66347"><ele>196.0</ele><time>2026-03-29T09:56:45.939Z</time></trkpt><trkpt lat="46.00918" lon="8.663625"><ele>196.0</ele><time>2026-03-29T09:56:46.939Z</time></trkpt><trkpt lat="46.0093633" lon="8.6637767"><ele>200.0</ele><time>2026-03-29T09:56:47.939Z</time></trkpt><trkpt lat="46.0095333" lon="8.6639217"><ele>204.0</ele><time>2026-03-29T09:56:48.939Z</time></trkpt><trkpt lat="46.009695" lon="8.6640383"><ele>208.0</ele><time>2026-03-29T09:56:49.939Z</time></trkpt><trkpt lat="46.0098383" lon="8.6641767"><ele>208.0</ele><time>2026-03-29T09:56:50.939Z</time></trkpt><trkpt lat="46.009955" lon="8.66433"><ele>208.0</ele><time>2026-03-29T09:56:51.939Z</time></trkpt><trkpt lat="46.0100617" lon="8.66453"><ele>208.0</ele><time>2026-03-29T09:56:52.939Z</time></trkpt><trkpt lat="46.0101583" lon="8.6647517"><ele>209.0</ele><time>2026-03-29T09:56:53.938Z</time></trkpt><trkpt lat="46.0102583" lon="8.6649633"><ele>210.0</ele><time>2026-03-29T09:56:54.939Z</time></trkpt><trkpt lat="46.0103567" lon="8.6652183"><ele>211.0</ele><time>2026-03-29T09:56:55.939Z</time></trkpt><trkpt lat="46.0104633" lon="8.6654583"><ele>208.0</ele><time>2026-03-29T09:56:56.939Z</time></trkpt><trkpt lat="46.010565" lon="8.665655"><ele>205.0</ele><time>2026-03-29T09:56:57.939Z</time></trkpt><trkpt lat="46.010665" lon="8.6658267"><ele>202.0</ele><time>2026-03-29T09:56:58.939Z</time></trkpt><trkpt lat="46.010775" lon="8.6659783"><ele>201.66666666666666</ele><time>2026-03-29T09:56:59.939Z</time></trkpt><trkpt lat="46.0109167" lon="8.6661367"><ele>201.33333333333331</ele><time>2026-03-29T09:57:00.938Z</time></trkpt><trkpt lat="46.01106" lon="8.6662967"><ele>201.0</ele><time>2026-03-29T09:57:01.939Z</time></trkpt><trkpt lat="46.01121" lon="8.6664717"><ele>201.0</ele><time>2026-03-29T09:57:02.939Z</time></trkpt><trkpt lat="46.0113583" lon="8.6666417"><ele>201.0</ele><time>2026-03-29T09:57:03.939Z</time></trkpt><trkpt lat="46.01151" lon="8.666795"><ele>201.0</ele><time>2026-03-29T09:57:04.939Z</time></trkpt><trkpt lat="46.0116517" lon="8.6669433"><ele>203.66666666666669</ele><time>2026-03-29T09:57:05.939Z</time></trkpt><trkpt lat="46.0118" lon="8.6671033"><ele>206.33333333333334</ele><time>2026-03-29T09:57:06.939Z</time></trkpt><trkpt lat="46.011945" lon="8.6672617"><ele>209.0</ele><time>2026-03-29T09:57:07.939Z</time></trkpt><trkpt lat="46.0120767" lon="8.6674217"><ele>209.0</ele><time>2026-03-29T09:57:08.939Z</time></trkpt><trkpt lat="46.0121867" lon="8.66757"><ele>209.0</ele><time>2026-03-29T09:57:09.939Z</time></trkpt><trkpt lat="46.0122717" lon="8.6677267"><ele>209.0</ele><time>2026-03-29T09:57:10.939Z</time></trkpt><trkpt lat="46.0123617" lon="8.667895"><ele>209.0</ele><time>2026-03-29T09:57:11.939Z</time></trkpt><trkpt lat="46.0124333" lon="8.6680717"><ele>211.25</ele><time>2026-03-29T09:57:12.939Z</time></trkpt><trkpt lat="46.012495" lon="8.6682633"><ele>213.5</ele><time>2026-03-29T09:57:13.939Z</time></trkpt><trkpt lat="46.012575" lon="8.66844"><ele>215.75</ele><time>2026-03-29T09:57:14.938Z</time></trkpt><trkpt lat="46.01268" lon="8.668585"><ele>218.0</ele><time>2026-03-29T09:57:15.939Z</time></trkpt><trkpt lat="46.0128133" lon="8.6686867"><ele>212.0</ele><time>2026-03-29T09:57:16.939Z</time></trkpt><trkpt lat="46.0129617" lon="8.6687783"><ele>206.0</ele><time>2026-03-29T09:57:17.939Z</time></trkpt><trkpt lat="46.0131067" lon="8.66889"><ele>200.0</ele><time>2026-03-29T09:57:18.939Z</time></trkpt><trkpt lat="46.013265" lon="8.6690367"><ele>199.0</ele><time>2026-03-29T09:57:19.939Z</time></trkpt><trkpt lat="46.0134267" lon="8.6692017"><ele>198.0</ele><time>2026-03-29T09:57:20.938Z</time></trkpt><trkpt lat="46.0135733" lon="8.6693867"><ele>197.0</ele><time>2026-03-29T09:57:21.939Z</time></trkpt><trkpt lat="46.0137183" lon="8.6695617"><ele>197.0</ele><time>2026-03-29T09:57:22.938Z</time></trkpt><trkpt lat="46.0138567" lon="8.6697217"><ele>197.0</ele><time>2026-03-29T09:57:23.938Z</time></trkpt><trkpt lat="46.0139867" lon="8.6698533"><ele>197.0</ele><time>2026-03-29T09:57:24.937Z</time></trkpt><trkpt lat="46.01412" lon="8.6699633"><ele>203.75</ele><time>2026-03-29T09:57:25.938Z</time></trkpt><trkpt lat="46.014255" lon="8.6700583"><ele>210.5</ele><time>2026-03-29T09:57:26.938Z</time></trkpt><trkpt lat="46.0144" lon="8.6701067"><ele>217.25</ele><time>2026-03-29T09:57:27.938Z</time></trkpt><trkpt lat="46.0145383" lon="8.67015"><ele>224.0</ele><time>2026-03-29T09:57:28.937Z</time></trkpt><trkpt lat="46.0146917" lon="8.6701883"><ele>224.0</ele><time>2026-03-29T09:57:29.938Z</time></trkpt><trkpt lat="46.0148533" lon="8.6702433"><ele>224.0</ele><time>2026-03-29T09:57:30.938Z</time></trkpt><trkpt lat="46.015025" lon="8.6702967"><ele>224.0</ele><time>2026-03-29T09:57:31.938Z</time></trkpt><trkpt lat="46.015195" lon="8.67038"><ele>219.0</ele><time>2026-03-29T09:57:32.938Z</time></trkpt><trkpt lat="46.0153567" lon="8.6704933"><ele>214.0</ele><time>2026-03-29T09:57:33.937Z</time></trkpt><trkpt lat="46.0155333" lon="8.6706067"><ele>209.0</ele><time>2026-03-29T09:57:34.938Z</time></trkpt><trkpt lat="46.0157167" lon="8.6707133"><ele>214.66666666666669</ele><time>2026-03-29T09:57:35.938Z</time></trkpt><trkpt lat="46.0158967" lon="8.6708483"><ele>220.33333333333331</ele><time>2026-03-29T09:57:36.938Z</time></trkpt><trkpt lat="46.016065" lon="8.6709733"><ele>226.0</ele><time>2026-03-29T09:57:37.938Z</time></trkpt><trkpt lat="46.0162133" lon="8.671105"><ele>216.33333333333331</ele><time>2026-03-29T09:57:38.938Z</time></trkpt><trkpt lat="46.0163467" lon="8.6712417"><ele>206.66666666666669</ele><time>2026-03-29T09:57:39.938Z</time></trkpt><trkpt lat="46.0164717" lon="8.671375"><ele>197.0</ele><time>2026-03-29T09:57:40.938Z</time></trkpt><trkpt lat="46.0166033" lon="8.6714917"><ele>205.0</ele><time>2026-03-29T09:57:41.937Z</time></trkpt><trkpt lat="46.0167583" lon="8.6715717"><ele>213.0</ele><time>2026-03-29T09:57:42.938Z</time></trkpt><trkpt lat="46.016925" lon="8.6716167"><ele>221.0</ele><time>2026-03-29T09:57:43.938Z</time></trkpt><trkpt lat="46.0171" lon="8.671665"><ele>221.0</ele><time>2026-03-29T09:57:44.938Z</time></trkpt><trkpt lat="46.0172867" lon="8.6716767"><ele>221.0</ele><time>2026-03-29T09:57:45.938Z</time></trkpt><trkpt lat="46.0174633" lon="8.6717133"><ele>221.0</ele><time>2026-03-29T09:57:46.938Z</time></trkpt><trkpt lat="46.0176333" lon="8.67175"><ele>226.66666666666669</ele><time>2026-03-29T09:57:47.938Z</time></trkpt><trkpt lat="46.0177933" lon="8.671775"><ele>232.33333333333331</ele><time>2026-03-29T09:57:48.938Z</time></trkpt><trkpt lat="46.017935" lon="8.67182"><ele>238.0</ele><time>2026-03-29T09:57:49.938Z</time></trkpt><trkpt lat="46.0180767" lon="8.671865"><ele>238.0</ele><time>2026-03-29T09:57:50.938Z</time></trkpt><trkpt lat="46.0182067" lon="8.6719067"><ele>238.0</ele><time>2026-03-29T09:57:51.938Z</time></trkpt><trkpt lat="46.0183217" lon="8.67197"><ele>238.0</ele><time>2026-03-29T09:57:52.938Z</time></trkpt><trkpt lat="46.0184417" lon="8.672035"><ele>238.0</ele><time>2026-03-29T09:57:53.938Z</time></trkpt><trkpt lat="46.018565" lon="8.67212"><ele>232.66666666666666</ele><time>2026-03-29T09:57:54.938Z</time></trkpt><trkpt lat="46.0186883" lon="8.67223"><ele>227.33333333333331</ele><time>2026-03-29T09:57:55.938Z</time></trkpt><trkpt lat="46.0188" lon="8.6723633"><ele>222.0</ele><time>2026-03-29T09:57:56.938Z</time></trkpt><trkpt lat="46.0189233" lon="8.6725133"><ele>222.0</ele><time>2026-03-29T09:57:57.938Z</time></trkpt><trkpt lat="46.0190483" lon="8.6726467"><ele>222.0</ele><time>2026-03-29T09:57:58.938Z</time></trkpt><trkpt lat="46.01917" lon="8.672795"><ele>222.0</ele><time>2026-03-29T09:57:59.938Z</time></trkpt><trkpt lat="46.0192983" lon="8.672945"><ele>222.0</ele><time>2026-03-29T09:58:00.938Z</time></trkpt><trkpt lat="46.0194267" lon="8.6731017"><ele>222.0</ele><time>2026-03-29T09:58:01.938Z</time></trkpt><trkpt lat="46.0195333" lon="8.67327"><ele>222.0</ele><time>2026-03-29T09:58:02.938Z</time></trkpt><trkpt lat="46.019635" lon="8.6734533"><ele>214.0</ele><time>2026-03-29T09:58:03.938Z</time></trkpt><trkpt lat="46.0197367" lon="8.6736333"><ele>206.0</ele><time>2026-03-29T09:58:04.937Z</time></trkpt><trkpt lat="46.0198417" lon="8.6738233"><ele>198.0</ele><time>2026-03-29T09:58:05.938Z</time></trkpt><trkpt lat="46.019945" lon="8.6740183"><ele>200.66666666666669</ele><time>2026-03-29T09:58:06.938Z</time></trkpt><trkpt lat="46.0200567" lon="8.6742017"><ele>203.33333333333334</ele><time>2026-03-29T09:58:07.938Z</time></trkpt><trkpt lat="46.0201767" lon="8.6743833"><ele>206.0</ele><time>2026-03-29T09:58:08.938Z</time></trkpt><trkpt lat="46.0202983" lon="8.6745717"><ele>206.0</ele><time>2026-03-29T09:58:09.938Z</time></trkpt><trkpt lat="46.020425" lon="8.674755"><ele>206.0</ele><time>2026-03-29T09:58:10.938Z</time></trkpt><trkpt lat="46.020545" lon="8.6749467"><ele>206.0</ele><time>2026-03-29T09:58:11.938Z</time></trkpt><trkpt lat="46.0206683" lon="8.6751517"><ele>202.66666666666669</ele><time>2026-03-29T09:58:12.938Z</time></trkpt><trkpt lat="46.0207817" lon="8.6753767"><ele>199.33333333333331</ele><time>2026-03-29T09:58:13.938Z</time></trkpt><trkpt lat="46.0208917" lon="8.6756"><ele>196.0</ele><time>2026-03-29T09:58:14.938Z</time></trkpt><trkpt lat="46.0210067" lon="8.67582"><ele>200.0</ele><time>2026-03-29T09:58:15.938Z</time></trkpt><trkpt lat="46.021125" lon="8.6760483"><ele>204.0</ele><time>2026-03-29T09:58:16.938Z</time></trkpt><trkpt lat="46.0212367" lon="8.6762733"><ele>208.0</ele><time>2026-03-29T09:58:17.938Z</time></trkpt><trkpt lat="46.021345" lon="8.6765117"><ele>208.0</ele><time>2026-03-29T09:58:18.938Z</time></trkpt><trkpt lat="46.0214567" lon="8.676725"><ele>208.0</ele><time>2026-03-29T09:58:19.938Z</time></trkpt><trkpt lat="46.0215633" lon="8.6769517"><ele>208.0</ele><time>2026-03-29T09:58:20.938Z</time></trkpt><trkpt lat="46.0216717" lon="8.677165"><ele>215.33333333333331</ele><time>2026-03-29T09:58:21.938Z</time></trkpt><trkpt lat="46.02177" lon="8.6773783"><ele>222.66666666666669</ele><time>2026-03-29T09:58:22.938Z</time></trkpt><trkpt lat="46.0218633" lon="8.6775733"><ele>230.0</ele><time>2026-03-29T09:58:23.937Z</time></trkpt><trkpt lat="46.0219417" lon="8.6777617"><ele>228.5</ele><time>2026-03-29T09:58:24.937Z</time></trkpt><trkpt lat="46.0220133" lon="8.677935"><ele>227.0</ele><time>2026-03-29T09:58:25.938Z</time></trkpt><trkpt lat="46.0220767" lon="8.6781067"><ele>225.5</ele><time>2026-03-29T09:58:26.938Z</time></trkpt><trkpt lat="46.0221367" lon="8.6782767"><ele>224.0</ele><time>2026-03-29T09:58:27.938Z</time></trkpt><trkpt lat="46.0222" lon="8.6784233"><ele>224.0</ele><time>2026-03-29T09:58:28.938Z</time></trkpt><trkpt lat="46.0222617" lon="8.6785817"><ele>224.0</ele><time>2026-03-29T09:58:29.938Z</time></trkpt><trkpt lat="46.0223283" lon="8.6787417"><ele>224.0</ele><time>2026-03-29T09:58:30.938Z</time></trkpt><trkpt lat="46.0223833" lon="8.678905"><ele>224.0</ele><time>2026-03-29T09:58:31.938Z</time></trkpt><trkpt lat="46.0224283" lon="8.6790283"><ele>224.66666666666669</ele><time>2026-03-29T09:58:32.938Z</time></trkpt><trkpt lat="46.0224767" lon="8.6791383"><ele>225.33333333333334</ele><time>2026-03-29T09:58:33.938Z</time></trkpt><trkpt lat="46.0225117" lon="8.679245"><ele>226.0</ele><time>2026-03-29T09:58:34.938Z</time></trkpt><trkpt lat="46.0225417" lon="8.6793533"><ele>226.66666666666669</ele><time>2026-03-29T09:58:35.938Z</time></trkpt><trkpt lat="46.0225783" lon="8.67946"><ele>227.33333333333334</ele><time>2026-03-29T09:58:36.938Z</time></trkpt><trkpt lat="46.0226067" lon="8.6795917"><ele>228.0</ele><time>2026-03-29T09:58:37.937Z</time></trkpt><trkpt lat="46.0226217" lon="8.6797217"><ele>228.16666666666666</ele><time>2026-03-29T09:58:38.938Z</time></trkpt><trkpt lat="46.0226433" lon="8.679855"><ele>228.33333333333331</ele><time>2026-03-29T09:58:39.938Z</time></trkpt><trkpt lat="46.0226667" lon="8.679985"><ele>228.5</ele><time>2026-03-29T09:58:40.938Z</time></trkpt><trkpt lat="46.0226933" lon="8.6801083"><ele>228.66666666666666</ele><time>2026-03-29T09:58:41.938Z</time></trkpt><trkpt lat="46.022715" lon="8.68022"><ele>228.83333333333331</ele><time>2026-03-29T09:58:42.938Z</time></trkpt><trkpt lat="46.0227433" lon="8.6803233"><ele>229.0</ele><time>2026-03-29T09:58:43.938Z</time></trkpt><trkpt lat="46.0227633" lon="8.680425"><ele>229.0</ele><time>2026-03-29T09:58:44.938Z</time></trkpt><trkpt lat="46.0227783" lon="8.6805183"><ele>228.99999999999997</ele><time>2026-03-29T09:58:45.938Z</time></trkpt><trkpt lat="46.022815" lon="8.6806917"><ele>228.99999999999997</ele><time>2026-03-29T09:58:47.938Z</time></trkpt><trkpt lat="46.0228533" lon="8.6808567"><ele>229.0</ele><time>2026-03-29T09:58:49.938Z</time></trkpt><trkpt lat="46.0228917" lon="8.6810233"><ele>229.0</ele><time>2026-03-29T09:58:51.938Z</time></trkpt><trkpt lat="46.0229383" lon="8.68121"><ele>229.2</ele><time>2026-03-29T09:58:53.938Z</time></trkpt><trkpt lat="46.0229617" lon="8.681335"><ele>229.39999999999998</ele><time>2026-03-29T09:58:54.938Z</time></trkpt><trkpt lat="46.0229817" lon="8.6814683"><ele>229.6</ele><time>2026-03-29T09:58:55.938Z</time></trkpt><trkpt lat="46.02301" lon="8.68163"><ele>229.8</ele><time>2026-03-29T09:58:56.938Z</time></trkpt><trkpt lat="46.0230417" lon="8.6818017"><ele>230.0</ele><time>2026-03-29T09:58:57.938Z</time></trkpt><trkpt lat="46.0230683" lon="8.682"><ele>228.66666666666669</ele><time>2026-03-29T09:58:58.938Z</time></trkpt><trkpt lat="46.0231383" lon="8.68237"><ele>227.33333333333331</ele><time>2026-03-29T09:59:00.938Z</time></trkpt><trkpt lat="46.0231717" lon="8.6825533"><ele>226.0</ele><time>2026-03-29T09:59:01.938Z</time></trkpt><trkpt lat="46.023185" lon="8.6827467"><ele>224.75</ele><time>2026-03-29T09:59:02.938Z</time></trkpt><trkpt lat="46.02317" lon="8.6829583"><ele>223.5</ele><time>2026-03-29T09:59:03.938Z</time></trkpt><trkpt lat="46.0231617" lon="8.6831767"><ele>222.25</ele><time>2026-03-29T09:59:04.938Z</time></trkpt><trkpt lat="46.0231733" lon="8.6833833"><ele>221.0</ele><time>2026-03-29T09:59:05.938Z</time></trkpt><trkpt lat="46.0231817" lon="8.6836317"><ele>219.66666666666669</ele><time>2026-03-29T09:59:06.937Z</time></trkpt><trkpt lat="46.0232" lon="8.6838933"><ele>218.33333333333331</ele><time>2026-03-29T09:59:07.938Z</time></trkpt><trkpt lat="46.0232183" lon="8.6841517"><ele>217.0</ele><time>2026-03-29T09:59:08.938Z</time></trkpt><trkpt lat="46.0232383" lon="8.6844083"><ele>215.66666666666666</ele><time>2026-03-29T09:59:09.938Z</time></trkpt><trkpt lat="46.0232567" lon="8.6846583"><ele>214.33333333333331</ele><time>2026-03-29T09:59:10.937Z</time></trkpt><trkpt lat="46.0232683" lon="8.6848967"><ele>213.0</ele><time>2026-03-29T09:59:11.938Z</time></trkpt><trkpt lat="46.0232617" lon="8.6851383"><ele>212.0</ele><time>2026-03-29T09:59:12.938Z</time></trkpt><trkpt lat="46.0232483" lon="8.68539"><ele>211.0</ele><time>2026-03-29T09:59:13.938Z</time></trkpt><trkpt lat="46.0232317" lon="8.6856467"><ele>210.0</ele><time>2026-03-29T09:59:14.938Z</time></trkpt><trkpt lat="46.0232133" lon="8.6859"><ele>210.0</ele><time>2026-03-29T09:59:15.938Z</time></trkpt><trkpt lat="46.0231883" lon="8.68613"><ele>210.0</ele><time>2026-03-29T09:59:16.938Z</time></trkpt><trkpt lat="46.02317" lon="8.6863417"><ele>210.0</ele><time>2026-03-29T09:59:17.938Z</time></trkpt><trkpt lat="46.0231567" lon="8.6865683"><ele>210.0</ele><time>2026-03-29T09:59:18.938Z</time></trkpt><trkpt lat="46.0231617" lon="8.6868017"><ele>210.0</ele><time>2026-03-29T09:59:19.938Z</time></trkpt><trkpt lat="46.0231833" lon="8.6870217"><ele>210.0</ele><time>2026-03-29T09:59:20.938Z</time></trkpt><trkpt lat="46.023215" lon="8.6872567"><ele>208.0</ele><time>2026-03-29T09:59:21.938Z</time></trkpt><trkpt lat="46.0232433" lon="8.687505"><ele>206.0</ele><time>2026-03-29T09:59:22.938Z</time></trkpt><trkpt lat="46.023275" lon="8.6877517"><ele>204.0</ele><time>2026-03-29T09:59:23.937Z</time></trkpt><trkpt lat="46.0233167" lon="8.68799"><ele>210.66666666666669</ele><time>2026-03-29T09:59:24.938Z</time></trkpt><trkpt lat="46.02336" lon="8.6882117"><ele>217.33333333333334</ele><time>2026-03-29T09:59:25.938Z</time></trkpt><trkpt lat="46.0233883" lon="8.6884433"><ele>224.0</ele><time>2026-03-29T09:59:26.938Z</time></trkpt><trkpt lat="46.023405" lon="8.68869"><ele>224.0</ele><time>2026-03-29T09:59:27.937Z</time></trkpt><trkpt lat="46.023415" lon="8.6889467"><ele>224.0</ele><time>2026-03-29T09:59:28.938Z</time></trkpt><trkpt lat="46.02342" lon="8.6892017"><ele>224.0</ele><time>2026-03-29T09:59:29.938Z</time></trkpt><trkpt lat="46.02343" lon="8.6894633"><ele>224.66666666666669</ele><time>2026-03-29T09:59:30.938Z</time></trkpt><trkpt lat="46.0234533" lon="8.689735"><ele>225.33333333333331</ele><time>2026-03-29T09:59:31.938Z</time></trkpt><trkpt lat="46.0234433" lon="8.690045"><ele>226.0</ele><time>2026-03-29T09:59:32.938Z</time></trkpt><trkpt lat="46.023465" lon="8.690305"><ele>222.66666666666666</ele><time>2026-03-29T09:59:33.937Z</time></trkpt><trkpt lat="46.0234817" lon="8.6905767"><ele>219.33333333333331</ele><time>2026-03-29T09:59:34.937Z</time></trkpt><trkpt lat="46.0235033" lon="8.6908567"><ele>216.0</ele><time>2026-03-29T09:59:35.938Z</time></trkpt><trkpt lat="46.0235383" lon="8.6911383"><ele>215.33333333333331</ele><time>2026-03-29T09:59:36.938Z</time></trkpt><trkpt lat="46.023575" lon="8.6914"><ele>214.66666666666666</ele><time>2026-03-29T09:59:37.938Z</time></trkpt><trkpt lat="46.0236083" lon="8.6916583"><ele>214.0</ele><time>2026-03-29T09:59:38.938Z</time></trkpt><trkpt lat="46.0237283" lon="8.6922033"><ele>210.0</ele><time>2026-03-29T09:59:40.938Z</time></trkpt><trkpt lat="46.023785" lon="8.6924767"><ele>206.0</ele><time>2026-03-29T09:59:41.938Z</time></trkpt><trkpt lat="46.0238283" lon="8.6927417"><ele>202.0</ele><time>2026-03-29T09:59:42.938Z</time></trkpt><trkpt lat="46.0238617" lon="8.692975"><ele>200.75</ele><time>2026-03-29T09:59:43.938Z</time></trkpt><trkpt lat="46.02388" lon="8.6932017"><ele>199.5</ele><time>2026-03-29T09:59:44.938Z</time></trkpt><trkpt lat="46.023905" lon="8.6934183"><ele>198.25</ele><time>2026-03-29T09:59:45.938Z</time></trkpt><trkpt lat="46.0239333" lon="8.6936117"><ele>197.0</ele><time>2026-03-29T09:59:46.938Z</time></trkpt><trkpt lat="46.0239733" lon="8.6938033"><ele>196.75</ele><time>2026-03-29T09:59:47.938Z</time></trkpt><trkpt lat="46.0240217" lon="8.69403"><ele>196.5</ele><time>2026-03-29T09:59:48.938Z</time></trkpt><trkpt lat="46.0240583" lon="8.6942133"><ele>196.25</ele><time>2026-03-29T09:59:49.938Z</time></trkpt><trkpt lat="46.0241083" lon="8.69441"><ele>196.0</ele><time>2026-03-29T09:59:50.938Z</time></trkpt><trkpt lat="46.0241733" lon="8.694595"><ele>203.66666666666666</ele><time>2026-03-29T09:59:51.938Z</time></trkpt><trkpt lat="46.024235" lon="8.6947867"><ele>211.33333333333331</ele><time>2026-03-29T09:59:52.938Z</time></trkpt><trkpt lat="46.0242933" lon="8.69501"><ele>219.0</ele><time>2026-03-29T09:59:53.938Z</time></trkpt><trkpt lat="46.0243333" lon="8.69524"><ele>216.66666666666669</ele><time>2026-03-29T09:59:54.938Z</time></trkpt><trkpt lat="46.02438" lon="8.695475"><ele>214.33333333333334</ele><time>2026-03-29T09:59:55.938Z</time></trkpt><trkpt lat="46.02443" lon="8.6957367"><ele>212.0</ele><time>2026-03-29T09:59:56.938Z</time></trkpt><trkpt lat="46.0245183" lon="8.6962917"><ele>210.0</ele><time>2026-03-29T09:59:58.938Z</time></trkpt><trkpt lat="46.02456" lon="8.6965617"><ele>208.0</ele><time>2026-03-29T09:59:59.938Z</time></trkpt><trkpt lat="46.024605" lon="8.6968183"><ele>206.0</ele><time>2026-03-29T10:00:00.938Z</time></trkpt><trkpt lat="46.0246567" lon="8.6970283"><ele>203.75</ele><time>2026-03-29T10:00:01.938Z</time></trkpt><trkpt lat="46.0247117" lon="8.6972383"><ele>201.5</ele><time>2026-03-29T10:00:02.938Z</time></trkpt><trkpt lat="46.0247617" lon="8.6974383"><ele>199.25</ele><time>2026-03-29T10:00:03.938Z</time></trkpt><trkpt lat="46.0248167" lon="8.6976233"><ele>197.0</ele><time>2026-03-29T10:00:04.938Z</time></trkpt><trkpt lat="46.0248817" lon="8.6978033"><ele>196.33333333333334</ele><time>2026-03-29T10:00:05.937Z</time></trkpt><trkpt lat="46.0249583" lon="8.697985"><ele>195.66666666666669</ele><time>2026-03-29T10:00:06.938Z</time></trkpt><trkpt lat="46.0250517" lon="8.6981517"><ele>195.0</ele><time>2026-03-29T10:00:07.938Z</time></trkpt><trkpt lat="46.02515" lon="8.6983283"><ele>199.0</ele><time>2026-03-29T10:00:08.938Z</time></trkpt><trkpt lat="46.0252467" lon="8.69851"><ele>203.0</ele><time>2026-03-29T10:00:09.938Z</time></trkpt><trkpt lat="46.0253317" lon="8.698695"><ele>207.0</ele><time>2026-03-29T10:00:10.938Z</time></trkpt><trkpt lat="46.02539" lon="8.6988767"><ele>207.0</ele><time>2026-03-29T10:00:11.938Z</time></trkpt><trkpt lat="46.0254333" lon="8.699075"><ele>207.0</ele><time>2026-03-29T10:00:12.938Z</time></trkpt><trkpt lat="46.0254467" lon="8.6992883"><ele>207.0</ele><time>2026-03-29T10:00:13.938Z</time></trkpt><trkpt lat="46.0254417" lon="8.6995217"><ele>205.33333333333331</ele><time>2026-03-29T10:00:14.938Z</time></trkpt><trkpt lat="46.0254283" lon="8.6997467"><ele>203.66666666666666</ele><time>2026-03-29T10:00:15.938Z</time></trkpt><trkpt lat="46.0254067" lon="8.6999767"><ele>202.0</ele><time>2026-03-29T10:00:16.938Z</time></trkpt><trkpt lat="46.0253883" lon="8.700195"><ele>201.39999999999998</ele><time>2026-03-29T10:00:17.938Z</time></trkpt><trkpt lat="46.0253783" lon="8.700395"><ele>200.79999999999998</ele><time>2026-03-29T10:00:18.938Z</time></trkpt><trkpt lat="46.0253717" lon="8.7005433"><ele>200.2</ele><time>2026-03-29T10:00:19.938Z</time></trkpt><trkpt lat="46.02537" lon="8.7006783"><ele>199.6</ele><time>2026-03-29T10:00:20.938Z</time></trkpt><trkpt lat="46.02539" lon="8.7008"><ele>199.0</ele><time>2026-03-29T10:00:21.938Z</time></trkpt><trkpt lat="46.0254283" lon="8.7009183"><ele>199.0</ele><time>2026-03-29T10:00:22.938Z</time></trkpt><trkpt lat="46.02548" lon="8.7010483"><ele>199.0</ele><time>2026-03-29T10:00:23.938Z</time></trkpt><trkpt lat="46.0255483" lon="8.7011667"><ele>199.0</ele><time>2026-03-29T10:00:24.937Z</time></trkpt><trkpt lat="46.02563" lon="8.7012933"><ele>199.0</ele><time>2026-03-29T10:00:25.938Z</time></trkpt><trkpt lat="46.025715" lon="8.7014267"><ele>199.75</ele><time>2026-03-29T10:00:26.938Z</time></trkpt><trkpt lat="46.0257967" lon="8.701585"><ele>200.5</ele><time>2026-03-29T10:00:27.938Z</time></trkpt><trkpt lat="46.0258833" lon="8.7017467"><ele>201.25</ele><time>2026-03-29T10:00:28.938Z</time></trkpt><trkpt lat="46.02598" lon="8.7019233"><ele>202.0</ele><time>2026-03-29T10:00:29.938Z</time></trkpt><trkpt lat="46.0260883" lon="8.7020817"><ele>202.0</ele><time>2026-03-29T10:00:30.938Z</time></trkpt><trkpt lat="46.0261967" lon="8.7022383"><ele>202.0</ele><time>2026-03-29T10:00:31.937Z</time></trkpt><trkpt lat="46.02631" lon="8.7023867"><ele>202.0</ele><time>2026-03-29T10:00:32.937Z</time></trkpt><trkpt lat="46.0264233" lon="8.7025117"><ele>202.0</ele><time>2026-03-29T10:00:33.937Z</time></trkpt><trkpt lat="46.0265233" lon="8.7026133"><ele>202.0</ele><time>2026-03-29T10:00:34.937Z</time></trkpt><trkpt lat="46.026615" lon="8.7026967"><ele>202.0</ele><time>2026-03-29T10:00:35.937Z</time></trkpt><trkpt lat="46.02669" lon="8.7027967"><ele>202.0</ele><time>2026-03-29T10:00:36.937Z</time></trkpt><trkpt lat="46.02674" lon="8.7029267"><ele>202.0</ele><time>2026-03-29T10:00:37.937Z</time></trkpt><trkpt lat="46.0267617" lon="8.7030983"><ele>202.0</ele><time>2026-03-29T10:00:38.937Z</time></trkpt><trkpt lat="46.0267583" lon="8.703295"><ele>204.0</ele><time>2026-03-29T10:00:39.937Z</time></trkpt><trkpt lat="46.026765" lon="8.7035033"><ele>206.0</ele><time>2026-03-29T10:00:40.937Z</time></trkpt><trkpt lat="46.026765" lon="8.703725"><ele>208.0</ele><time>2026-03-29T10:00:41.937Z</time></trkpt><trkpt lat="46.0267733" lon="8.7039233"><ele>210.0</ele><time>2026-03-29T10:00:42.937Z</time></trkpt><trkpt lat="46.0267933" lon="8.7040817"><ele>210.0</ele><time>2026-03-29T10:00:43.937Z</time></trkpt><trkpt lat="46.026825" lon="8.70421"><ele>210.0</ele><time>2026-03-29T10:00:44.937Z</time></trkpt><trkpt lat="46.02688" lon="8.7043267"><ele>210.0</ele><time>2026-03-29T10:00:45.937Z</time></trkpt><trkpt lat="46.02696" lon="8.704435"><ele>210.0</ele><time>2026-03-29T10:00:46.937Z</time></trkpt><trkpt lat="46.0270633" lon="8.704535"><ele>210.0</ele><time>2026-03-29T10:00:47.937Z</time></trkpt><trkpt lat="46.027175" lon="8.70463"><ele>214.0</ele><time>2026-03-29T10:00:48.937Z</time></trkpt><trkpt lat="46.02731" lon="8.704725"><ele>218.0</ele><time>2026-03-29T10:00:49.937Z</time></trkpt><trkpt lat="46.0274533" lon="8.7048467"><ele>222.0</ele><time>2026-03-29T10:00:50.937Z</time></trkpt><trkpt lat="46.0276017" lon="8.705005"><ele>222.0</ele><time>2026-03-29T10:00:51.937Z</time></trkpt><trkpt lat="46.0277517" lon="8.70517"><ele>222.0</ele><time>2026-03-29T10:00:52.937Z</time></trkpt><trkpt lat="46.02789" lon="8.70534"><ele>222.0</ele><time>2026-03-29T10:00:53.937Z</time></trkpt><trkpt lat="46.02801" lon="8.7055267"><ele>218.75</ele><time>2026-03-29T10:00:54.937Z</time></trkpt><trkpt lat="46.0281117" lon="8.7057133"><ele>215.5</ele><time>2026-03-29T10:00:55.937Z</time></trkpt><trkpt lat="46.0281983" lon="8.7058683"><ele>212.25</ele><time>2026-03-29T10:00:56.937Z</time></trkpt><trkpt lat="46.0282867" lon="8.7060033"><ele>209.0</ele><time>2026-03-29T10:00:57.937Z</time></trkpt><trkpt lat="46.0283717" lon="8.7061217"><ele>209.0</ele><time>2026-03-29T10:00:58.937Z</time></trkpt><trkpt lat="46.0284433" lon="8.70624"><ele>209.0</ele><time>2026-03-29T10:00:59.937Z</time></trkpt><trkpt lat="46.0285267" lon="8.7063567"><ele>209.0</ele><time>2026-03-29T10:01:00.937Z</time></trkpt><trkpt lat="46.0286133" lon="8.7064833"><ele>209.0</ele><time>2026-03-29T10:01:01.937Z</time></trkpt><trkpt lat="46.0287017" lon="8.706615"><ele>209.0</ele><time>2026-03-29T10:01:02.937Z</time></trkpt><trkpt lat="46.0287867" lon="8.7067583"><ele>209.0</ele><time>2026-03-29T10:01:03.937Z</time></trkpt><trkpt lat="46.0289633" lon="8.7070333"><ele>209.0</ele><time>2026-03-29T10:01:05.937Z</time></trkpt><trkpt lat="46.02905" lon="8.7071533"><ele>210.2</ele><time>2026-03-29T10:01:06.937Z</time></trkpt><trkpt lat="46.0291283" lon="8.707265"><ele>211.39999999999998</ele><time>2026-03-29T10:01:07.937Z</time></trkpt><trkpt lat="46.0292083" lon="8.7073783"><ele>212.6</ele><time>2026-03-29T10:01:08.937Z</time></trkpt><trkpt lat="46.0292933" lon="8.70749"><ele>213.8</ele><time>2026-03-29T10:01:09.937Z</time></trkpt><trkpt lat="46.0293667" lon="8.70761"><ele>215.0</ele><time>2026-03-29T10:01:10.937Z</time></trkpt><trkpt lat="46.029435" lon="8.707735"><ele>212.0</ele><time>2026-03-29T10:01:11.937Z</time></trkpt><trkpt lat="46.0295067" lon="8.7078467"><ele>209.0</ele><time>2026-03-29T10:01:12.937Z</time></trkpt><trkpt lat="46.0295783" lon="8.707965"><ele>206.0</ele><time>2026-03-29T10:01:13.937Z</time></trkpt><trkpt lat="46.02963" lon="8.7081167"><ele>203.0</ele><time>2026-03-29T10:01:14.937Z</time></trkpt><trkpt lat="46.0296633" lon="8.7082633"><ele>200.0</ele><time>2026-03-29T10:01:15.937Z</time></trkpt><trkpt lat="46.0296783" lon="8.7084117"><ele>198.25</ele><time>2026-03-29T10:01:16.937Z</time></trkpt><trkpt lat="46.0296833" lon="8.7086967"><ele>196.5</ele><time>2026-03-29T10:01:18.937Z</time></trkpt><trkpt lat="46.0296833" lon="8.7088483"><ele>194.75</ele><time>2026-03-29T10:01:19.936Z</time></trkpt><trkpt lat="46.0296967" lon="8.7089733"><ele>193.0</ele><time>2026-03-29T10:01:20.937Z</time></trkpt><trkpt lat="46.0297167" lon="8.7091133"><ele>193.0</ele><time>2026-03-29T10:01:21.937Z</time></trkpt><trkpt lat="46.0297667" lon="8.7092483"><ele>193.0</ele><time>2026-03-29T10:01:22.937Z</time></trkpt><trkpt lat="46.0298283" lon="8.7093783"><ele>193.0</ele><time>2026-03-29T10:01:23.937Z</time></trkpt><trkpt lat="46.0298883" lon="8.7095067"><ele>193.0</ele><time>2026-03-29T10:01:24.937Z</time></trkpt><trkpt lat="46.0299417" lon="8.7096383"><ele>193.0</ele><time>2026-03-29T10:01:25.936Z</time></trkpt><trkpt lat="46.0299983" lon="8.7097617"><ele>192.8</ele><time>2026-03-29T10:01:26.937Z</time></trkpt><trkpt lat="46.030055" lon="8.70989"><ele>192.60000000000002</ele><time>2026-03-29T10:01:27.937Z</time></trkpt><trkpt lat="46.0301217" lon="8.7100167"><ele>192.39999999999998</ele><time>2026-03-29T10:01:28.937Z</time></trkpt><trkpt lat="46.0301967" lon="8.710125"><ele>192.2</ele><time>2026-03-29T10:01:29.937Z</time></trkpt><trkpt lat="46.03028" lon="8.71021"><ele>192.0</ele><time>2026-03-29T10:01:30.936Z</time></trkpt><trkpt lat="46.03037" lon="8.7102867"><ele>192.0</ele><time>2026-03-29T10:01:31.937Z</time></trkpt><trkpt lat="46.0304683" lon="8.71036"><ele>192.0</ele><time>2026-03-29T10:01:32.936Z</time></trkpt><trkpt lat="46.0305767" lon="8.7104167"><ele>192.0</ele><time>2026-03-29T10:01:33.937Z</time></trkpt><trkpt lat="46.0306917" lon="8.7104583"><ele>192.0</ele><time>2026-03-29T10:01:34.937Z</time></trkpt><trkpt lat="46.0308" lon="8.7104867"><ele>195.75</ele><time>2026-03-29T10:01:35.937Z</time></trkpt><trkpt lat="46.030905" lon="8.7105083"><ele>199.5</ele><time>2026-03-29T10:01:36.937Z</time></trkpt><trkpt lat="46.03102" lon="8.71053"><ele>203.25</ele><time>2026-03-29T10:01:37.937Z</time></trkpt><trkpt lat="46.0311317" lon="8.71054"><ele>207.0</ele><time>2026-03-29T10:01:38.937Z</time></trkpt><trkpt lat="46.0312483" lon="8.71055"><ele>207.0</ele><time>2026-03-29T10:01:39.937Z</time></trkpt><trkpt lat="46.0313533" lon="8.710565"><ele>207.0</ele><time>2026-03-29T10:01:40.937Z</time></trkpt><trkpt lat="46.031465" lon="8.7105833"><ele>207.0</ele><time>2026-03-29T10:01:41.937Z</time></trkpt><trkpt lat="46.0316" lon="8.7106033"><ele>207.0</ele><time>2026-03-29T10:01:42.937Z</time></trkpt><trkpt lat="46.0317367" lon="8.710645"><ele>212.33333333333331</ele><time>2026-03-29T10:01:43.937Z</time></trkpt><trkpt lat="46.0318983" lon="8.7106867"><ele>217.66666666666666</ele><time>2026-03-29T10:01:44.937Z</time></trkpt><trkpt lat="46.0320717" lon="8.7107283"><ele>223.0</ele><time>2026-03-29T10:01:45.937Z</time></trkpt><trkpt lat="46.03226" lon="8.7107717"><ele>223.0</ele><time>2026-03-29T10:01:46.937Z</time></trkpt><trkpt lat="46.03245" lon="8.7108117"><ele>223.0</ele><time>2026-03-29T10:01:47.937Z</time></trkpt><trkpt lat="46.032625" lon="8.7108683"><ele>223.0</ele><time>2026-03-29T10:01:48.937Z</time></trkpt><trkpt lat="46.0327917" lon="8.710905"><ele>223.33333333333331</ele><time>2026-03-29T10:01:49.936Z</time></trkpt><trkpt lat="46.0329667" lon="8.71094"><ele>223.66666666666669</ele><time>2026-03-29T10:01:50.937Z</time></trkpt><trkpt lat="46.0331467" lon="8.7109317"><ele>224.0</ele><time>2026-03-29T10:01:51.937Z</time></trkpt><trkpt lat="46.0333267" lon="8.7109167"><ele>224.0</ele><time>2026-03-29T10:01:52.937Z</time></trkpt><trkpt lat="46.033515" lon="8.7109017"><ele>224.0</ele><time>2026-03-29T10:01:53.937Z</time></trkpt><trkpt lat="46.0336983" lon="8.71089"><ele>224.0</ele><time>2026-03-29T10:01:54.937Z</time></trkpt><trkpt lat="46.0338833" lon="8.7108633"><ele>224.0</ele><time>2026-03-29T10:01:55.937Z</time></trkpt><trkpt lat="46.0340617" lon="8.7108117"><ele>224.0</ele><time>2026-03-29T10:01:56.937Z</time></trkpt><trkpt lat="46.03424" lon="8.71076"><ele>224.0</ele><time>2026-03-29T10:01:57.937Z</time></trkpt><trkpt lat="46.0344233" lon="8.7107"><ele>221.33333333333334</ele><time>2026-03-29T10:01:58.937Z</time></trkpt><trkpt lat="46.0346083" lon="8.7106233"><ele>218.66666666666669</ele><time>2026-03-29T10:01:59.937Z</time></trkpt><trkpt lat="46.0347833" lon="8.710555"><ele>216.0</ele><time>2026-03-29T10:02:00.937Z</time></trkpt><trkpt lat="46.0349483" lon="8.7105033"><ele>214.0</ele><time>2026-03-29T10:02:01.937Z</time></trkpt><trkpt lat="46.0351017" lon="8.7104883"><ele>212.0</ele><time>2026-03-29T10:02:02.937Z</time></trkpt><trkpt lat="46.0352533" lon="8.7104767"><ele>210.0</ele><time>2026-03-29T10:02:03.936Z</time></trkpt><trkpt lat="46.03541" lon="8.7104967"><ele>210.0</ele><time>2026-03-29T10:02:04.937Z</time></trkpt><trkpt lat="46.0355717" lon="8.7105667"><ele>210.0</ele><time>2026-03-29T10:02:05.936Z</time></trkpt><trkpt lat="46.035735" lon="8.7106433"><ele>210.0</ele><time>2026-03-29T10:02:06.937Z</time></trkpt><trkpt lat="46.0359083" lon="8.7107333"><ele>211.0</ele><time>2026-03-29T10:02:07.937Z</time></trkpt><trkpt lat="46.0360617" lon="8.7108017"><ele>212.0</ele><time>2026-03-29T10:02:08.937Z</time></trkpt><trkpt lat="46.0362" lon="8.7108517"><ele>213.0</ele><time>2026-03-29T10:02:09.937Z</time></trkpt><trkpt lat="46.0363333" lon="8.710875"><ele>214.0</ele><time>2026-03-29T10:02:10.937Z</time></trkpt><trkpt lat="46.0364617" lon="8.7108383"><ele>214.0</ele><time>2026-03-29T10:02:11.937Z</time></trkpt><trkpt lat="46.0365633" lon="8.7107433"><ele>214.0</ele><time>2026-03-29T10:02:12.937Z</time></trkpt><trkpt lat="46.036655" lon="8.7106"><ele>214.0</ele><time>2026-03-29T10:02:13.936Z</time></trkpt><trkpt lat="46.0367183" lon="8.7104283"><ele>214.0</ele><time>2026-03-29T10:02:14.937Z</time></trkpt><trkpt lat="46.0367733" lon="8.7102167"><ele>216.33333333333331</ele><time>2026-03-29T10:02:15.937Z</time></trkpt><trkpt lat="46.03682" lon="8.70998"><ele>218.66666666666669</ele><time>2026-03-29T10:02:16.937Z</time></trkpt><trkpt lat="46.036875" lon="8.7097583"><ele>221.0</ele><time>2026-03-29T10:02:17.936Z</time></trkpt><trkpt lat="46.0369683" lon="8.7095517"><ele>226.33333333333334</ele><time>2026-03-29T10:02:18.937Z</time></trkpt><trkpt lat="46.0370833" lon="8.7093967"><ele>231.66666666666669</ele><time>2026-03-29T10:02:19.937Z</time></trkpt><trkpt lat="46.03722" lon="8.70924"><ele>237.0</ele><time>2026-03-29T10:02:20.937Z</time></trkpt><trkpt lat="46.0373517" lon="8.7090467"><ele>237.0</ele><time>2026-03-29T10:02:21.937Z</time></trkpt><trkpt lat="46.037455" lon="8.70882"><ele>237.0</ele><time>2026-03-29T10:02:22.937Z</time></trkpt><trkpt lat="46.0375283" lon="8.7085483"><ele>237.0</ele><time>2026-03-29T10:02:23.937Z</time></trkpt><trkpt lat="46.0375917" lon="8.7082833"><ele>231.0</ele><time>2026-03-29T10:02:24.937Z</time></trkpt><trkpt lat="46.0376433" lon="8.7080533"><ele>225.0</ele><time>2026-03-29T10:02:25.937Z</time></trkpt><trkpt lat="46.0376883" lon="8.707835"><ele>219.0</ele><time>2026-03-29T10:02:26.937Z</time></trkpt><trkpt lat="46.03775" lon="8.707655"><ele>219.0</ele><time>2026-03-29T10:02:27.937Z</time></trkpt><trkpt lat="46.0378217" lon="8.707495"><ele>219.0</ele><time>2026-03-29T10:02:28.937Z</time></trkpt><trkpt lat="46.0379183" lon="8.707355"><ele>219.0</ele><time>2026-03-29T10:02:29.936Z</time></trkpt><trkpt lat="46.0380317" lon="8.7072317"><ele>219.0</ele><time>2026-03-29T10:02:30.937Z</time></trkpt><trkpt lat="46.0381567" lon="8.707135"><ele>219.0</ele><time>2026-03-29T10:02:31.937Z</time></trkpt><trkpt lat="46.0382817" lon="8.7070517"><ele>219.0</ele><time>2026-03-29T10:02:32.937Z</time></trkpt><trkpt lat="46.038405" lon="8.7069683"><ele>219.0</ele><time>2026-03-29T10:02:33.937Z</time></trkpt><trkpt lat="46.0385233" lon="8.706895"><ele>219.0</ele><time>2026-03-29T10:02:34.937Z</time></trkpt><trkpt lat="46.0386417" lon="8.7068317"><ele>219.79999999999998</ele><time>2026-03-29T10:02:35.937Z</time></trkpt><trkpt lat="46.0387517" lon="8.7068083"><ele>220.59999999999997</ele><time>2026-03-29T10:02:36.937Z</time></trkpt><trkpt lat="46.0388583" lon="8.7067983"><ele>221.4</ele><time>2026-03-29T10:02:37.936Z</time></trkpt><trkpt lat="46.038965" lon="8.7068267"><ele>222.2</ele><time>2026-03-29T10:02:38.937Z</time></trkpt><trkpt lat="46.0390683" lon="8.7068833"><ele>223.0</ele><time>2026-03-29T10:02:39.937Z</time></trkpt><trkpt lat="46.0391783" lon="8.7069633"><ele>218.2</ele><time>2026-03-29T10:02:40.937Z</time></trkpt><trkpt lat="46.0392767" lon="8.7070383"><ele>213.4</ele><time>2026-03-29T10:02:41.937Z</time></trkpt><trkpt lat="46.0393633" lon="8.7070867"><ele>208.6</ele><time>2026-03-29T10:02:42.937Z</time></trkpt><trkpt lat="46.039455" lon="8.7071283"><ele>203.79999999999998</ele><time>2026-03-29T10:02:43.936Z</time></trkpt><trkpt lat="46.0395467" lon="8.7071767"><ele>199.0</ele><time>2026-03-29T10:02:44.937Z</time></trkpt><trkpt lat="46.03964" lon="8.7072"><ele>199.0</ele><time>2026-03-29T10:02:45.937Z</time></trkpt><trkpt lat="46.0397467" lon="8.7072117"><ele>199.0</ele><time>2026-03-29T10:02:46.937Z</time></trkpt><trkpt lat="46.039855" lon="8.707195"><ele>199.0</ele><time>2026-03-29T10:02:47.937Z</time></trkpt><trkpt lat="46.0399717" lon="8.707165"><ele>199.0</ele><time>2026-03-29T10:02:48.937Z</time></trkpt><trkpt lat="46.0400933" lon="8.7071117"><ele>199.75</ele><time>2026-03-29T10:02:49.937Z</time></trkpt><trkpt lat="46.04022" lon="8.707065"><ele>200.5</ele><time>2026-03-29T10:02:50.937Z</time></trkpt><trkpt lat="46.0403633" lon="8.707025"><ele>201.25</ele><time>2026-03-29T10:02:51.937Z</time></trkpt><trkpt lat="46.040505" lon="8.70698"><ele>202.0</ele><time>2026-03-29T10:02:52.937Z</time></trkpt><trkpt lat="46.0406483" lon="8.70694"><ele>205.5</ele><time>2026-03-29T10:02:53.936Z</time></trkpt><trkpt lat="46.0407833" lon="8.7069"><ele>209.0</ele><time>2026-03-29T10:02:54.937Z</time></trkpt><trkpt lat="46.04091" lon="8.7068733"><ele>212.5</ele><time>2026-03-29T10:02:55.937Z</time></trkpt><trkpt lat="46.041025" lon="8.7068483"><ele>216.0</ele><time>2026-03-29T10:02:56.937Z</time></trkpt><trkpt lat="46.0411317" lon="8.7068417"><ele>216.0</ele><time>2026-03-29T10:02:57.937Z</time></trkpt><trkpt lat="46.0412317" lon="8.70685"><ele>216.00000000000003</ele><time>2026-03-29T10:02:58.937Z</time></trkpt><trkpt lat="46.0413267" lon="8.7068717"><ele>216.00000000000003</ele><time>2026-03-29T10:02:59.937Z</time></trkpt><trkpt lat="46.0414383" lon="8.7068933"><ele>216.0</ele><time>2026-03-29T10:03:00.937Z</time></trkpt><trkpt lat="46.04155" lon="8.706885"><ele>216.0</ele><time>2026-03-29T10:03:01.937Z</time></trkpt><trkpt lat="46.04167" lon="8.7068583"><ele>216.5</ele><time>2026-03-29T10:03:02.937Z</time></trkpt><trkpt lat="46.0418" lon="8.7068217"><ele>217.0</ele><time>2026-03-29T10:03:03.937Z</time></trkpt><trkpt lat="46.04194" lon="8.7068017"><ele>217.5</ele><time>2026-03-29T10:03:04.937Z</time></trkpt><trkpt lat="46.0420883" lon="8.7068017"><ele>218.0</ele><time>2026-03-29T10:03:05.937Z</time></trkpt><trkpt lat="46.0422383" lon="8.7067983"><ele>218.0</ele><time>2026-03-29T10:03:06.937Z</time></trkpt><trkpt lat="46.042395" lon="8.706805"><ele>218.0</ele><time>2026-03-29T10:03:07.937Z</time></trkpt><trkpt lat="46.042535" lon="8.706805"><ele>218.0</ele><time>2026-03-29T10:03:08.937Z</time></trkpt><trkpt lat="46.0426633" lon="8.7067917"><ele>218.0</ele><time>2026-03-29T10:03:09.936Z</time></trkpt><trkpt lat="46.0427733" lon="8.706775"><ele>218.4</ele><time>2026-03-29T10:03:10.937Z</time></trkpt><trkpt lat="46.0428817" lon="8.7067567"><ele>218.8</ele><time>2026-03-29T10:03:11.937Z</time></trkpt><trkpt lat="46.0429883" lon="8.706715"><ele>219.2</ele><time>2026-03-29T10:03:12.936Z</time></trkpt><trkpt lat="46.04308" lon="8.7066733"><ele>219.6</ele><time>2026-03-29T10:03:13.937Z</time></trkpt><trkpt lat="46.0431767" lon="8.7066167"><ele>220.0</ele><time>2026-03-29T10:03:14.937Z</time></trkpt><trkpt lat="46.0432633" lon="8.7065717"><ele>219.2</ele><time>2026-03-29T10:03:15.937Z</time></trkpt><trkpt lat="46.0433517" lon="8.70654"><ele>218.4</ele><time>2026-03-29T10:03:16.937Z</time></trkpt><trkpt lat="46.0434483" lon="8.7065267"><ele>217.60000000000002</ele><time>2026-03-29T10:03:17.936Z</time></trkpt><trkpt lat="46.043545" lon="8.7065233"><ele>216.8</ele><time>2026-03-29T10:03:18.937Z</time></trkpt><trkpt lat="46.0436433" lon="8.7065283"><ele>216.0</ele><time>2026-03-29T10:03:19.936Z</time></trkpt><trkpt lat="46.0437433" lon="8.7065283"><ele>216.0</ele><time>2026-03-29T10:03:20.937Z</time></trkpt><trkpt lat="46.0438583" lon="8.7065017"><ele>216.0</ele><time>2026-03-29T10:03:21.937Z</time></trkpt><trkpt lat="46.0439667" lon="8.706455"><ele>216.0</ele><time>2026-03-29T10:03:22.937Z</time></trkpt><trkpt lat="46.044085" lon="8.7063833"><ele>216.0</ele><time>2026-03-29T10:03:23.937Z</time></trkpt><trkpt lat="46.0442083" lon="8.706315"><ele>213.5</ele><time>2026-03-29T10:03:24.937Z</time></trkpt><trkpt lat="46.0443317" lon="8.7062533"><ele>211.0</ele><time>2026-03-29T10:03:25.937Z</time></trkpt><trkpt lat="46.044455" lon="8.7061867"><ele>208.5</ele><time>2026-03-29T10:03:26.937Z</time></trkpt><trkpt lat="46.04458" lon="8.7061067"><ele>206.0</ele><time>2026-03-29T10:03:27.937Z</time></trkpt><trkpt lat="46.0447" lon="8.70603"><ele>209.25</ele><time>2026-03-29T10:03:28.937Z</time></trkpt><trkpt lat="46.044815" lon="8.705955"><ele>212.5</ele><time>2026-03-29T10:03:29.937Z</time></trkpt><trkpt lat="46.04493" lon="8.7058967"><ele>215.75</ele><time>2026-03-29T10:03:30.937Z</time></trkpt><trkpt lat="46.0450367" lon="8.705835"><ele>219.0</ele><time>2026-03-29T10:03:31.937Z</time></trkpt><trkpt lat="46.045145" lon="8.7057667"><ele>219.0</ele><time>2026-03-29T10:03:32.937Z</time></trkpt><trkpt lat="46.0452367" lon="8.7057"><ele>219.0</ele><time>2026-03-29T10:03:33.936Z</time></trkpt><trkpt lat="46.0453417" lon="8.7056233"><ele>219.0</ele><time>2026-03-29T10:03:34.937Z</time></trkpt><trkpt lat="46.04545" lon="8.7055517"><ele>219.0</ele><time>2026-03-29T10:03:35.937Z</time></trkpt><trkpt lat="46.0455517" lon="8.705455"><ele>219.0</ele><time>2026-03-29T10:03:36.936Z</time></trkpt><trkpt lat="46.04565" lon="8.70538"><ele>219.0</ele><time>2026-03-29T10:03:37.937Z</time></trkpt><trkpt lat="46.045755" lon="8.7053333"><ele>219.0</ele><time>2026-03-29T10:03:38.936Z</time></trkpt><trkpt lat="46.0458733" lon="8.7053"><ele>219.0</ele><time>2026-03-29T10:03:39.937Z</time></trkpt><trkpt lat="46.0460017" lon="8.7052817"><ele>223.25</ele><time>2026-03-29T10:03:40.937Z</time></trkpt><trkpt lat="46.0461267" lon="8.705255"><ele>227.5</ele><time>2026-03-29T10:03:41.936Z</time></trkpt><trkpt lat="46.0462667" lon="8.7052417"><ele>231.75</ele><time>2026-03-29T10:03:42.936Z</time></trkpt><trkpt lat="46.0464033" lon="8.705225"><ele>236.0</ele><time>2026-03-29T10:03:43.936Z</time></trkpt><trkpt lat="46.04655" lon="8.7052083"><ele>231.75</ele><time>2026-03-29T10:03:44.936Z</time></trkpt><trkpt lat="46.04669" lon="8.7051883"><ele>227.5</ele><time>2026-03-29T10:03:45.936Z</time></trkpt><trkpt lat="46.0468333" lon="8.7051233"><ele>223.25</ele><time>2026-03-29T10:03:46.936Z</time></trkpt><trkpt lat="46.046965" lon="8.7050283"><ele>219.0</ele><time>2026-03-29T10:03:47.936Z</time></trkpt><trkpt lat="46.0470967" lon="8.70493"><ele>219.0</ele><time>2026-03-29T10:03:48.935Z</time></trkpt><trkpt lat="46.047215" lon="8.7048367"><ele>219.0</ele><time>2026-03-29T10:03:49.936Z</time></trkpt><trkpt lat="46.0473233" lon="8.7047467"><ele>219.0</ele><time>2026-03-29T10:03:50.936Z</time></trkpt><trkpt lat="46.0474467" lon="8.704685"><ele>219.0</ele><time>2026-03-29T10:03:51.936Z</time></trkpt><trkpt lat="46.0475617" lon="8.70467"><ele>216.25</ele><time>2026-03-29T10:03:52.936Z</time></trkpt><trkpt lat="46.047685" lon="8.7046933"><ele>213.5</ele><time>2026-03-29T10:03:53.936Z</time></trkpt><trkpt lat="46.047815" lon="8.7047517"><ele>210.75</ele><time>2026-03-29T10:03:54.936Z</time></trkpt><trkpt lat="46.04794" lon="8.7048083"><ele>208.0</ele><time>2026-03-29T10:03:55.936Z</time></trkpt><trkpt lat="46.0480667" lon="8.7048717"><ele>208.0</ele><time>2026-03-29T10:03:56.936Z</time></trkpt><trkpt lat="46.0482033" lon="8.7049233"><ele>208.0</ele><time>2026-03-29T10:03:57.936Z</time></trkpt><trkpt lat="46.0483617" lon="8.7049567"><ele>208.0</ele><time>2026-03-29T10:03:58.935Z</time></trkpt><trkpt lat="46.0485233" lon="8.70496"><ele>209.33333333333331</ele><time>2026-03-29T10:03:59.936Z</time></trkpt><trkpt lat="46.0486967" lon="8.7049417"><ele>210.66666666666669</ele><time>2026-03-29T10:04:00.936Z</time></trkpt><trkpt lat="46.0488667" lon="8.7049083"><ele>212.0</ele><time>2026-03-29T10:04:01.936Z</time></trkpt><trkpt lat="46.049035" lon="8.70487"><ele>212.75</ele><time>2026-03-29T10:04:02.936Z</time></trkpt><trkpt lat="46.049185" lon="8.704845"><ele>213.5</ele><time>2026-03-29T10:04:03.936Z</time></trkpt><trkpt lat="46.0493267" lon="8.704855"><ele>214.25</ele><time>2026-03-29T10:04:04.936Z</time></trkpt><trkpt lat="46.049475" lon="8.704885"><ele>215.0</ele><time>2026-03-29T10:04:05.936Z</time></trkpt><trkpt lat="46.0496133" lon="8.7049733"><ele>215.0</ele><time>2026-03-29T10:04:06.936Z</time></trkpt><trkpt lat="46.049725" lon="8.7050933"><ele>215.0</ele><time>2026-03-29T10:04:07.936Z</time></trkpt><trkpt lat="46.0498433" lon="8.7052367"><ele>215.0</ele><time>2026-03-29T10:04:08.935Z</time></trkpt><trkpt lat="46.0499467" lon="8.7053883"><ele>215.0</ele><time>2026-03-29T10:04:09.936Z</time></trkpt><trkpt lat="46.0500483" lon="8.7055233"><ele>211.5</ele><time>2026-03-29T10:04:10.936Z</time></trkpt><trkpt lat="46.050155" lon="8.7056483"><ele>208.0</ele><time>2026-03-29T10:04:11.936Z</time></trkpt><trkpt lat="46.0502617" lon="8.705765"><ele>204.5</ele><time>2026-03-29T10:04:12.936Z</time></trkpt><trkpt lat="46.0503783" lon="8.7058467"><ele>201.0</ele><time>2026-03-29T10:04:13.936Z</time></trkpt><trkpt lat="46.0505067" lon="8.70592"><ele>201.0</ele><time>2026-03-29T10:04:14.936Z</time></trkpt><trkpt lat="46.0506583" lon="8.7059517"><ele>201.0</ele><time>2026-03-29T10:04:15.936Z</time></trkpt><trkpt lat="46.0508283" lon="8.7059567"><ele>201.0</ele><time>2026-03-29T10:04:16.936Z</time></trkpt><trkpt lat="46.0510283" lon="8.705955"><ele>208.5</ele><time>2026-03-29T10:04:17.936Z</time></trkpt><trkpt lat="46.05125" lon="8.7059783"><ele>216.0</ele><time>2026-03-29T10:04:18.936Z</time></trkpt><trkpt lat="46.05148" lon="8.7060033"><ele>216.0</ele><time>2026-03-29T10:04:19.936Z</time></trkpt><trkpt lat="46.0516917" lon="8.706015"><ele>216.0</ele><time>2026-03-29T10:04:20.935Z</time></trkpt><trkpt lat="46.051885" lon="8.7059867"><ele>216.0</ele><time>2026-03-29T10:04:21.936Z</time></trkpt><trkpt lat="46.0520717" lon="8.70594"><ele>216.0</ele><time>2026-03-29T10:04:22.936Z</time></trkpt><trkpt lat="46.0522517" lon="8.7059233"><ele>216.0</ele><time>2026-03-29T10:04:23.936Z</time></trkpt><trkpt lat="46.0524183" lon="8.70596"><ele>216.0</ele><time>2026-03-29T10:04:24.936Z</time></trkpt><trkpt lat="46.05258" lon="8.7060367"><ele>210.66666666666669</ele><time>2026-03-29T10:04:25.936Z</time></trkpt><trkpt lat="46.052745" lon="8.706135"><ele>205.33333333333334</ele><time>2026-03-29T10:04:26.936Z</time></trkpt><trkpt lat="46.05291" lon="8.7062417"><ele>200.0</ele><time>2026-03-29T10:04:27.936Z</time></trkpt><trkpt lat="46.053075" lon="8.706315"><ele>200.0</ele><time>2026-03-29T10:04:28.936Z</time></trkpt><trkpt lat="46.05324" lon="8.7063733"><ele>200.0</ele><time>2026-03-29T10:04:29.936Z</time></trkpt><trkpt lat="46.0534017" lon="8.706405"><ele>200.0</ele><time>2026-03-29T10:04:30.936Z</time></trkpt><trkpt lat="46.0535417" lon="8.706415"><ele>199.5</ele><time>2026-03-29T10:04:31.936Z</time></trkpt><trkpt lat="46.0536717" lon="8.706365"><ele>199.0</ele><time>2026-03-29T10:04:32.936Z</time></trkpt><trkpt lat="46.0537883" lon="8.7062783"><ele>198.5</ele><time>2026-03-29T10:04:33.936Z</time></trkpt><trkpt lat="46.0538967" lon="8.706155"><ele>198.0</ele><time>2026-03-29T10:04:34.936Z</time></trkpt><trkpt lat="46.0540033" lon="8.70599"><ele>200.33333333333331</ele><time>2026-03-29T10:04:35.935Z</time></trkpt><trkpt lat="46.05412" lon="8.7058117"><ele>202.66666666666666</ele><time>2026-03-29T10:04:36.936Z</time></trkpt><trkpt lat="46.0542417" lon="8.7056333"><ele>205.0</ele><time>2026-03-29T10:04:37.936Z</time></trkpt><trkpt lat="46.0543817" lon="8.7054783"><ele>205.0</ele><time>2026-03-29T10:04:38.936Z</time></trkpt><trkpt lat="46.0545267" lon="8.70534"><ele>205.0</ele><time>2026-03-29T10:04:39.936Z</time></trkpt><trkpt lat="46.0546983" lon="8.7052117"><ele>205.0</ele><time>2026-03-29T10:04:40.936Z</time></trkpt><trkpt lat="46.0548667" lon="8.70509"><ele>208.33333333333331</ele><time>2026-03-29T10:04:41.936Z</time></trkpt><trkpt lat="46.0550433" lon="8.70496"><ele>211.66666666666669</ele><time>2026-03-29T10:04:42.936Z</time></trkpt><trkpt lat="46.0552083" lon="8.704805"><ele>215.0</ele><time>2026-03-29T10:04:43.936Z</time></trkpt><trkpt lat="46.0553817" lon="8.70466"><ele>215.0</ele><time>2026-03-29T10:04:44.936Z</time></trkpt><trkpt lat="46.055555" lon="8.7045117"><ele>215.0</ele><time>2026-03-29T10:04:45.936Z</time></trkpt><trkpt lat="46.0557217" lon="8.704375"><ele>215.0</ele><time>2026-03-29T10:04:46.936Z</time></trkpt><trkpt lat="46.0558817" lon="8.704225"><ele>217.66666666666669</ele><time>2026-03-29T10:04:47.936Z</time></trkpt><trkpt lat="46.05604" lon="8.7041017"><ele>220.33333333333331</ele><time>2026-03-29T10:04:48.935Z</time></trkpt><trkpt lat="46.0561783" lon="8.7039983"><ele>223.0</ele><time>2026-03-29T10:04:49.936Z</time></trkpt><trkpt lat="46.0563233" lon="8.7039183"><ele>223.0</ele><time>2026-03-29T10:04:50.935Z</time></trkpt><trkpt lat="46.05648" lon="8.703855"><ele>223.0</ele><time>2026-03-29T10:04:51.936Z</time></trkpt><trkpt lat="46.0566617" lon="8.70384"><ele>223.0</ele><time>2026-03-29T10:04:52.936Z</time></trkpt><trkpt lat="46.056845" lon="8.7038567"><ele>218.33333333333331</ele><time>2026-03-29T10:04:53.936Z</time></trkpt><trkpt lat="46.05704" lon="8.7038767"><ele>213.66666666666669</ele><time>2026-03-29T10:04:54.935Z</time></trkpt><trkpt lat="46.057235" lon="8.70388"><ele>209.0</ele><time>2026-03-29T10:04:55.936Z</time></trkpt><trkpt lat="46.0574117" lon="8.703885"><ele>208.0</ele><time>2026-03-29T10:04:56.936Z</time></trkpt><trkpt lat="46.0575633" lon="8.7038583"><ele>207.0</ele><time>2026-03-29T10:04:57.936Z</time></trkpt><trkpt lat="46.05771" lon="8.703825"><ele>206.0</ele><time>2026-03-29T10:04:58.935Z</time></trkpt><trkpt lat="46.05784" lon="8.703755"><ele>205.0</ele><time>2026-03-29T10:04:59.936Z</time></trkpt><trkpt lat="46.0579533" lon="8.703645"><ele>205.5</ele><time>2026-03-29T10:05:00.935Z</time></trkpt><trkpt lat="46.0580467" lon="8.7035133"><ele>206.0</ele><time>2026-03-29T10:05:01.936Z</time></trkpt><trkpt lat="46.05813" lon="8.7033567"><ele>206.5</ele><time>2026-03-29T10:05:02.936Z</time></trkpt><trkpt lat="46.0582117" lon="8.7031783"><ele>207.0</ele><time>2026-03-29T10:05:03.935Z</time></trkpt><trkpt lat="46.0582983" lon="8.702995"><ele>207.0</ele><time>2026-03-29T10:05:04.936Z</time></trkpt><trkpt lat="46.0584133" lon="8.7028167"><ele>207.0</ele><time>2026-03-29T10:05:05.936Z</time></trkpt><trkpt lat="46.0585317" lon="8.70263"><ele>207.0</ele><time>2026-03-29T10:05:06.936Z</time></trkpt><trkpt lat="46.0586433" lon="8.702425"><ele>214.66666666666669</ele><time>2026-03-29T10:05:07.936Z</time></trkpt><trkpt lat="46.05873" lon="8.7021983"><ele>222.33333333333334</ele><time>2026-03-29T10:05:08.936Z</time></trkpt><trkpt lat="46.0587833" lon="8.70196"><ele>230.0</ele><time>2026-03-29T10:05:09.936Z</time></trkpt><trkpt lat="46.058815" lon="8.7016917"><ele>234.33333333333334</ele><time>2026-03-29T10:05:10.936Z</time></trkpt><trkpt lat="46.05884" lon="8.7014183"><ele>238.66666666666669</ele><time>2026-03-29T10:05:11.936Z</time></trkpt><trkpt lat="46.0588533" lon="8.7011883"><ele>243.0</ele><time>2026-03-29T10:05:12.936Z</time></trkpt><trkpt lat="46.0588633" lon="8.7009767"><ele>246.25</ele><time>2026-03-29T10:05:13.936Z</time></trkpt><trkpt lat="46.0588717" lon="8.7007833"><ele>249.5</ele><time>2026-03-29T10:05:14.935Z</time></trkpt><trkpt lat="46.0588967" lon="8.700605"><ele>252.75</ele><time>2026-03-29T10:05:15.936Z</time></trkpt><trkpt lat="46.0589283" lon="8.70043"><ele>256.0</ele><time>2026-03-29T10:05:16.936Z</time></trkpt><trkpt lat="46.0589733" lon="8.7002517"><ele>258.0</ele><time>2026-03-29T10:05:17.935Z</time></trkpt><trkpt lat="46.05902" lon="8.7000617"><ele>260.0</ele><time>2026-03-29T10:05:18.936Z</time></trkpt><trkpt lat="46.0590767" lon="8.6998833"><ele>262.0</ele><time>2026-03-29T10:05:19.936Z</time></trkpt><trkpt lat="46.0591233" lon="8.6996983"><ele>264.0</ele><time>2026-03-29T10:05:20.936Z</time></trkpt><trkpt lat="46.059185" lon="8.69952"><ele>252.25</ele><time>2026-03-29T10:05:21.936Z</time></trkpt><trkpt lat="46.0592417" lon="8.6993367"><ele>240.5</ele><time>2026-03-29T10:05:22.936Z</time></trkpt><trkpt lat="46.0592983" lon="8.6991783"><ele>228.75</ele><time>2026-03-29T10:05:23.936Z</time></trkpt><trkpt lat="46.059365" lon="8.6990367"><ele>217.0</ele><time>2026-03-29T10:05:24.936Z</time></trkpt><trkpt lat="46.0594283" lon="8.6989117"><ele>216.99999999999997</ele><time>2026-03-29T10:05:25.936Z</time></trkpt><trkpt lat="46.0594867" lon="8.6987933"><ele>217.0</ele><time>2026-03-29T10:05:26.936Z</time></trkpt><trkpt lat="46.0595483" lon="8.6986917"><ele>217.0</ele><time>2026-03-29T10:05:27.936Z</time></trkpt><trkpt lat="46.059605" lon="8.6986117"><ele>217.0</ele><time>2026-03-29T10:05:28.936Z</time></trkpt><trkpt lat="46.05966" lon="8.698545"><ele>216.99999999999997</ele><time>2026-03-29T10:05:29.936Z</time></trkpt><trkpt lat="46.059715" lon="8.6984833"><ele>217.0</ele><time>2026-03-29T10:05:30.936Z</time></trkpt><trkpt lat="46.0597717" lon="8.6984317"><ele>216.39999999999998</ele><time>2026-03-29T10:05:31.936Z</time></trkpt><trkpt lat="46.0598383" lon="8.6983783"><ele>215.79999999999998</ele><time>2026-03-29T10:05:32.936Z</time></trkpt><trkpt lat="46.0599217" lon="8.6983067"><ele>215.2</ele><time>2026-03-29T10:05:33.936Z</time></trkpt><trkpt lat="46.06003" lon="8.6982333"><ele>214.6</ele><time>2026-03-29T10:05:34.936Z</time></trkpt><trkpt lat="46.0601467" lon="8.698175"><ele>214.0</ele><time>2026-03-29T10:05:35.936Z</time></trkpt><trkpt lat="46.060265" lon="8.698125"><ele>214.0</ele><time>2026-03-29T10:05:36.936Z</time></trkpt><trkpt lat="46.0603633" lon="8.6980867"><ele>213.99999999999997</ele><time>2026-03-29T10:05:37.936Z</time></trkpt><trkpt lat="46.0604567" lon="8.6980483"><ele>213.99999999999997</ele><time>2026-03-29T10:05:38.936Z</time></trkpt><trkpt lat="46.060545" lon="8.6980317"><ele>214.0</ele><time>2026-03-29T10:05:39.936Z</time></trkpt><trkpt lat="46.0606383" lon="8.6980067"><ele>214.0</ele><time>2026-03-29T10:05:40.936Z</time></trkpt><trkpt lat="46.0607283" lon="8.6979883"><ele>214.33333333333331</ele><time>2026-03-29T10:05:41.935Z</time></trkpt><trkpt lat="46.060805" lon="8.6979667"><ele>214.66666666666666</ele><time>2026-03-29T10:05:42.936Z</time></trkpt><trkpt lat="46.0608667" lon="8.6979433"><ele>215.0</ele><time>2026-03-29T10:05:43.936Z</time></trkpt><trkpt lat="46.06096" lon="8.6978867"><ele>215.33333333333331</ele><time>2026-03-29T10:05:45.935Z</time></trkpt><trkpt lat="46.061055" lon="8.697875"><ele>215.66666666666666</ele><time>2026-03-29T10:05:47.936Z</time></trkpt><trkpt lat="46.06112" lon="8.6978383"><ele>216.0</ele><time>2026-03-29T10:05:49.936Z</time></trkpt><trkpt lat="46.0610033" lon="8.6978733"><ele>216.0</ele><time>2026-03-29T10:06:11.936Z</time></trkpt><trkpt lat="46.0609183" lon="8.6978917"><ele>216.0</ele><time>2026-03-29T10:06:13.936Z</time></trkpt><trkpt lat="46.0608233" lon="8.69789"><ele>216.0</ele><time>2026-03-29T10:06:15.936Z</time></trkpt><trkpt lat="46.0607467" lon="8.6978983"><ele>216.0</ele><time>2026-03-29T10:06:16.935Z</time></trkpt><trkpt lat="46.0606733" lon="8.6979133"><ele>216.0</ele><time>2026-03-29T10:06:17.936Z</time></trkpt><trkpt lat="46.060605" lon="8.697915"><ele>216.0</ele><time>2026-03-29T10:06:18.936Z</time></trkpt><trkpt lat="46.06053" lon="8.6979333"><ele>215.66666666666666</ele><time>2026-03-29T10:06:20.936Z</time></trkpt><trkpt lat="46.0604583" lon="8.6979983"><ele>215.33333333333331</ele><time>2026-03-29T10:10:22.934Z</time></trkpt><trkpt lat="46.0603633" lon="8.6980083"><ele>215.0</ele><time>2026-03-29T10:10:24.934Z</time></trkpt><trkpt lat="46.0602983" lon="8.6980333"><ele>214.66666666666666</ele><time>2026-03-29T10:10:25.934Z</time></trkpt><trkpt lat="46.0602283" lon="8.6980683"><ele>214.33333333333331</ele><time>2026-03-29T10:10:26.934Z</time></trkpt><trkpt lat="46.06015" lon="8.6981117"><ele>214.0</ele><time>2026-03-29T10:10:27.934Z</time></trkpt><trkpt lat="46.0600767" lon="8.6981533"><ele>213.99999999999997</ele><time>2026-03-29T10:10:28.933Z</time></trkpt><trkpt lat="46.0599867" lon="8.698195"><ele>214.0</ele><time>2026-03-29T10:10:29.934Z</time></trkpt><trkpt lat="46.0599067" lon="8.6982417"><ele>214.0</ele><time>2026-03-29T10:10:30.934Z</time></trkpt><trkpt lat="46.0598383" lon="8.6982883"><ele>214.0</ele><time>2026-03-29T10:10:31.933Z</time></trkpt><trkpt lat="46.0597717" lon="8.698315"><ele>213.99999999999997</ele><time>2026-03-29T10:10:32.934Z</time></trkpt><trkpt lat="46.059705" lon="8.698305"><ele>214.0</ele><time>2026-03-29T10:10:33.934Z</time></trkpt><trkpt lat="46.0596383" lon="8.6982667"><ele>215.83333333333331</ele><time>2026-03-29T10:10:34.934Z</time></trkpt><trkpt lat="46.05958" lon="8.6982033"><ele>217.66666666666666</ele><time>2026-03-29T10:10:35.934Z</time></trkpt><trkpt lat="46.05953" lon="8.6981083"><ele>219.5</ele><time>2026-03-29T10:10:36.934Z</time></trkpt><trkpt lat="46.0594933" lon="8.6979967"><ele>221.33333333333331</ele><time>2026-03-29T10:10:37.934Z</time></trkpt><trkpt lat="46.0594583" lon="8.6978567"><ele>223.16666666666666</ele><time>2026-03-29T10:10:38.934Z</time></trkpt><trkpt lat="46.0594467" lon="8.6977217"><ele>225.0</ele><time>2026-03-29T10:10:39.934Z</time></trkpt><trkpt lat="46.059435" lon="8.6975883"><ele>226.25</ele><time>2026-03-29T10:10:40.934Z</time></trkpt><trkpt lat="46.0594483" lon="8.6974333"><ele>227.5</ele><time>2026-03-29T10:10:41.933Z</time></trkpt><trkpt lat="46.0594767" lon="8.69728"><ele>228.75</ele><time>2026-03-29T10:10:42.934Z</time></trkpt><trkpt lat="46.059505" lon="8.6971133"><ele>230.0</ele><time>2026-03-29T10:10:43.934Z</time></trkpt><trkpt lat="46.0595467" lon="8.6969517"><ele>231.5</ele><time>2026-03-29T10:10:44.934Z</time></trkpt><trkpt lat="46.0595833" lon="8.6967917"><ele>233.0</ele><time>2026-03-29T10:10:45.934Z</time></trkpt><trkpt lat="46.0596183" lon="8.6966183"><ele>234.5</ele><time>2026-03-29T10:10:46.934Z</time></trkpt><trkpt lat="46.0596567" lon="8.6964517"><ele>236.0</ele><time>2026-03-29T10:10:47.934Z</time></trkpt><trkpt lat="46.0596867" lon="8.6963117"><ele>236.0</ele><time>2026-03-29T10:10:48.934Z</time></trkpt><trkpt lat="46.0597083" lon="8.69619"><ele>236.00000000000003</ele><time>2026-03-29T10:10:49.934Z</time></trkpt><trkpt lat="46.05973" lon="8.6960767"><ele>236.00000000000003</ele><time>2026-03-29T10:10:50.934Z</time></trkpt><trkpt lat="46.0597583" lon="8.6959383"><ele>236.0</ele><time>2026-03-29T10:10:51.934Z</time></trkpt><trkpt lat="46.0597767" lon="8.695785"><ele>236.0</ele><time>2026-03-29T10:10:52.934Z</time></trkpt><trkpt lat="46.05979" lon="8.6956183"><ele>235.5</ele><time>2026-03-29T10:10:53.934Z</time></trkpt><trkpt lat="46.0598017" lon="8.695455"><ele>235.0</ele><time>2026-03-29T10:10:54.934Z</time></trkpt><trkpt lat="46.05981" lon="8.695275"><ele>234.5</ele><time>2026-03-29T10:10:55.934Z</time></trkpt><trkpt lat="46.0598067" lon="8.6950717"><ele>234.0</ele><time>2026-03-29T10:10:56.934Z</time></trkpt><trkpt lat="46.0597933" lon="8.6948717"><ele>232.66666666666669</ele><time>2026-03-29T10:10:57.934Z</time></trkpt><trkpt lat="46.059775" lon="8.6946567"><ele>231.33333333333334</ele><time>2026-03-29T10:10:58.934Z</time></trkpt><trkpt lat="46.0597533" lon="8.6944333"><ele>230.0</ele><time>2026-03-29T10:10:59.934Z</time></trkpt><trkpt lat="46.0597133" lon="8.69421"><ele>228.66666666666669</ele><time>2026-03-29T10:11:00.933Z</time></trkpt><trkpt lat="46.0596633" lon="8.6939867"><ele>227.33333333333331</ele><time>2026-03-29T10:11:01.933Z</time></trkpt><trkpt lat="46.05961" lon="8.6937617"><ele>226.0</ele><time>2026-03-29T10:11:02.934Z</time></trkpt><trkpt lat="46.0595417" lon="8.6935483"><ele>224.75</ele><time>2026-03-29T10:11:03.934Z</time></trkpt><trkpt lat="46.059475" lon="8.6933533"><ele>223.5</ele><time>2026-03-29T10:11:04.934Z</time></trkpt><trkpt lat="46.0594" lon="8.6931617"><ele>222.25</ele><time>2026-03-29T10:11:05.934Z</time></trkpt><trkpt lat="46.0593283" lon="8.6929833"><ele>221.0</ele><time>2026-03-29T10:11:06.934Z</time></trkpt><trkpt lat="46.059245" lon="8.692815"><ele>221.75</ele><time>2026-03-29T10:11:07.934Z</time></trkpt><trkpt lat="46.0591667" lon="8.692655"><ele>222.5</ele><time>2026-03-29T10:11:08.934Z</time></trkpt><trkpt lat="46.0590967" lon="8.6924967"><ele>223.25</ele><time>2026-03-29T10:11:09.933Z</time></trkpt><trkpt lat="46.0590167" lon="8.6923267"><ele>224.0</ele><time>2026-03-29T10:11:10.934Z</time></trkpt><trkpt lat="46.0589417" lon="8.6921517"><ele>224.0</ele><time>2026-03-29T10:11:11.934Z</time></trkpt><trkpt lat="46.0588717" lon="8.69197"><ele>224.0</ele><time>2026-03-29T10:11:12.933Z</time></trkpt><trkpt lat="46.0588017" lon="8.6917983"><ele>224.0</ele><time>2026-03-29T10:11:13.934Z</time></trkpt><trkpt lat="46.058735" lon="8.6916433"><ele>224.0</ele><time>2026-03-29T10:11:14.934Z</time></trkpt><trkpt lat="46.0586717" lon="8.6914767"><ele>224.0</ele><time>2026-03-29T10:11:15.934Z</time></trkpt><trkpt lat="46.0586167" lon="8.6913283"><ele>224.0</ele><time>2026-03-29T10:11:16.934Z</time></trkpt><trkpt lat="46.0585533" lon="8.691175"><ele>224.0</ele><time>2026-03-29T10:11:17.934Z</time></trkpt><trkpt lat="46.0584883" lon="8.6910133"><ele>224.0</ele><time>2026-03-29T10:11:18.934Z</time></trkpt><trkpt lat="46.0584333" lon="8.6908567"><ele>223.25</ele><time>2026-03-29T10:11:19.934Z</time></trkpt><trkpt lat="46.0583883" lon="8.6907117"><ele>222.5</ele><time>2026-03-29T10:11:20.933Z</time></trkpt><trkpt lat="46.058345" lon="8.6905667"><ele>221.75</ele><time>2026-03-29T10:11:21.933Z</time></trkpt><trkpt lat="46.058305" lon="8.6904133"><ele>221.0</ele><time>2026-03-29T10:11:22.934Z</time></trkpt><trkpt lat="46.0582633" lon="8.690255"><ele>227.0</ele><time>2026-03-29T10:11:23.934Z</time></trkpt><trkpt lat="46.058235" lon="8.6900833"><ele>233.0</ele><time>2026-03-29T10:11:24.934Z</time></trkpt><trkpt lat="46.05819" lon="8.689895"><ele>239.0</ele><time>2026-03-29T10:11:25.933Z</time></trkpt><trkpt lat="46.058155" lon="8.6896983"><ele>245.0</ele><time>2026-03-29T10:11:26.934Z</time></trkpt><trkpt lat="46.058115" lon="8.6895"><ele>242.0</ele><time>2026-03-29T10:11:27.933Z</time></trkpt><trkpt lat="46.0580733" lon="8.6893217"><ele>239.0</ele><time>2026-03-29T10:11:28.934Z</time></trkpt><trkpt lat="46.05806" lon="8.68914"><ele>236.0</ele><time>2026-03-29T10:11:29.934Z</time></trkpt><trkpt lat="46.0580367" lon="8.6889683"><ele>233.0</ele><time>2026-03-29T10:11:30.934Z</time></trkpt><trkpt lat="46.0580083" lon="8.6888"><ele>233.0</ele><time>2026-03-29T10:11:31.934Z</time></trkpt><trkpt lat="46.0579883" lon="8.68863"><ele>233.0</ele><time>2026-03-29T10:11:32.934Z</time></trkpt><trkpt lat="46.0579617" lon="8.6884567"><ele>233.0</ele><time>2026-03-29T10:11:33.934Z</time></trkpt><trkpt lat="46.0579517" lon="8.6882833"><ele>233.0</ele><time>2026-03-29T10:11:34.934Z</time></trkpt><trkpt lat="46.0579433" lon="8.68813"><ele>233.0</ele><time>2026-03-29T10:11:35.934Z</time></trkpt><trkpt lat="46.05794" lon="8.68798"><ele>233.0</ele><time>2026-03-29T10:11:36.934Z</time></trkpt><trkpt lat="46.0579383" lon="8.687835"><ele>233.0</ele><time>2026-03-29T10:11:37.933Z</time></trkpt><trkpt lat="46.0579383" lon="8.687685"><ele>233.0</ele><time>2026-03-29T10:11:38.934Z</time></trkpt><trkpt lat="46.0579317" lon="8.68752"><ele>233.0</ele><time>2026-03-29T10:11:39.934Z</time></trkpt><trkpt lat="46.0579167" lon="8.6873533"><ele>231.25</ele><time>2026-03-29T10:11:40.934Z</time></trkpt><trkpt lat="46.0578867" lon="8.6871933"><ele>229.5</ele><time>2026-03-29T10:11:41.934Z</time></trkpt><trkpt lat="46.0578483" lon="8.6870367"><ele>227.75</ele><time>2026-03-29T10:11:42.933Z</time></trkpt><trkpt lat="46.0578067" lon="8.6868733"><ele>226.0</ele><time>2026-03-29T10:11:43.934Z</time></trkpt><trkpt lat="46.0577733" lon="8.6867233"><ele>225.20000000000002</ele><time>2026-03-29T10:11:44.934Z</time></trkpt><trkpt lat="46.0577383" lon="8.6865633"><ele>224.40000000000003</ele><time>2026-03-29T10:11:45.933Z</time></trkpt><trkpt lat="46.0576983" lon="8.6864183"><ele>223.6</ele><time>2026-03-29T10:11:46.933Z</time></trkpt><trkpt lat="46.0576683" lon="8.6862783"><ele>222.8</ele><time>2026-03-29T10:11:47.934Z</time></trkpt><trkpt lat="46.057645" lon="8.6861533"><ele>222.0</ele><time>2026-03-29T10:11:48.934Z</time></trkpt><trkpt lat="46.0576217" lon="8.68605"><ele>221.2</ele><time>2026-03-29T10:11:49.934Z</time></trkpt><trkpt lat="46.05759" lon="8.68589"><ele>220.39999999999998</ele><time>2026-03-29T10:11:51.934Z</time></trkpt><trkpt lat="46.0575683" lon="8.6857967"><ele>219.60000000000002</ele><time>2026-03-29T10:11:52.934Z</time></trkpt><trkpt lat="46.0575383" lon="8.6856767"><ele>218.8</ele><time>2026-03-29T10:11:53.933Z</time></trkpt><trkpt lat="46.0575067" lon="8.6855417"><ele>218.0</ele><time>2026-03-29T10:11:54.934Z</time></trkpt><trkpt lat="46.0574717" lon="8.6853767"><ele>224.75</ele><time>2026-03-29T10:11:55.934Z</time></trkpt><trkpt lat="46.0574267" lon="8.6851833"><ele>231.5</ele><time>2026-03-29T10:11:56.934Z</time></trkpt><trkpt lat="46.0573883" lon="8.6849883"><ele>238.25</ele><time>2026-03-29T10:11:57.934Z</time></trkpt><trkpt lat="46.05735" lon="8.6847867"><ele>245.0</ele><time>2026-03-29T10:11:58.934Z</time></trkpt><trkpt lat="46.0573" lon="8.68457"><ele>242.33333333333334</ele><time>2026-03-29T10:11:59.934Z</time></trkpt><trkpt lat="46.0572583" lon="8.6843383"><ele>239.66666666666669</ele><time>2026-03-29T10:12:00.934Z</time></trkpt><trkpt lat="46.0572283" lon="8.6841083"><ele>237.0</ele><time>2026-03-29T10:12:01.934Z</time></trkpt><trkpt lat="46.0572033" lon="8.6838583"><ele>237.0</ele><time>2026-03-29T10:12:02.934Z</time></trkpt><trkpt lat="46.05717" lon="8.68361"><ele>237.0</ele><time>2026-03-29T10:12:03.934Z</time></trkpt><trkpt lat="46.057135" lon="8.683375"><ele>237.0</ele><time>2026-03-29T10:12:04.934Z</time></trkpt><trkpt lat="46.0570967" lon="8.68313"><ele>238.66666666666669</ele><time>2026-03-29T10:12:05.933Z</time></trkpt><trkpt lat="46.0570567" lon="8.6828867"><ele>240.33333333333334</ele><time>2026-03-29T10:12:06.934Z</time></trkpt><trkpt lat="46.0570167" lon="8.682645"><ele>242.0</ele><time>2026-03-29T10:12:07.934Z</time></trkpt><trkpt lat="46.0569817" lon="8.6824"><ele>243.5</ele><time>2026-03-29T10:12:08.934Z</time></trkpt><trkpt lat="46.056945" lon="8.68218"><ele>245.0</ele><time>2026-03-29T10:12:09.934Z</time></trkpt><trkpt lat="46.0569267" lon="8.6819717"><ele>246.5</ele><time>2026-03-29T10:12:10.934Z</time></trkpt><trkpt lat="46.0569083" lon="8.681765"><ele>248.0</ele><time>2026-03-29T10:12:11.934Z</time></trkpt><trkpt lat="46.056885" lon="8.6815717"><ele>248.4</ele><time>2026-03-29T10:12:12.934Z</time></trkpt><trkpt lat="46.0568717" lon="8.681385"><ele>248.8</ele><time>2026-03-29T10:12:13.934Z</time></trkpt><trkpt lat="46.0568683" lon="8.6812117"><ele>249.2</ele><time>2026-03-29T10:12:14.934Z</time></trkpt><trkpt lat="46.0568617" lon="8.681065"><ele>249.6</ele><time>2026-03-29T10:12:15.934Z</time></trkpt><trkpt lat="46.0568583" lon="8.6809383"><ele>250.0</ele><time>2026-03-29T10:12:16.934Z</time></trkpt><trkpt lat="46.0568533" lon="8.6808333"><ele>249.99999999999997</ele><time>2026-03-29T10:12:17.934Z</time></trkpt><trkpt lat="46.05685" lon="8.6807383"><ele>250.0</ele><time>2026-03-29T10:12:18.934Z</time></trkpt><trkpt lat="46.056855" lon="8.6806433"><ele>250.0</ele><time>2026-03-29T10:12:19.934Z</time></trkpt><trkpt lat="46.0568717" lon="8.6805517"><ele>250.0</ele><time>2026-03-29T10:12:20.934Z</time></trkpt><trkpt lat="46.0569033" lon="8.68047"><ele>249.99999999999997</ele><time>2026-03-29T10:12:21.933Z</time></trkpt><trkpt lat="46.0569183" lon="8.6803317"><ele>250.0</ele><time>2026-03-29T10:12:23.934Z</time></trkpt><trkpt lat="46.0569367" lon="8.6802017"><ele>251.25</ele><time>2026-03-29T10:12:25.933Z</time></trkpt><trkpt lat="46.05699" lon="8.6800183"><ele>252.5</ele><time>2026-03-29T10:12:27.934Z</time></trkpt><trkpt lat="46.05704" lon="8.6798883"><ele>253.75</ele><time>2026-03-29T10:12:28.934Z</time></trkpt><trkpt lat="46.0571033" lon="8.6797467"><ele>255.0</ele><time>2026-03-29T10:12:29.934Z</time></trkpt><trkpt lat="46.057155" lon="8.6795967"><ele>257.25</ele><time>2026-03-29T10:12:30.934Z</time></trkpt><trkpt lat="46.0571917" lon="8.6794217"><ele>259.5</ele><time>2026-03-29T10:12:31.934Z</time></trkpt><trkpt lat="46.0571983" lon="8.679235"><ele>261.75</ele><time>2026-03-29T10:12:32.933Z</time></trkpt><trkpt lat="46.0571917" lon="8.6790567"><ele>264.0</ele><time>2026-03-29T10:12:33.934Z</time></trkpt><trkpt lat="46.0571583" lon="8.67889"><ele>264.0</ele><time>2026-03-29T10:12:34.934Z</time></trkpt><trkpt lat="46.0571283" lon="8.67871"><ele>264.0</ele><time>2026-03-29T10:12:35.934Z</time></trkpt><trkpt lat="46.05708" lon="8.6785267"><ele>264.0</ele><time>2026-03-29T10:12:36.934Z</time></trkpt><trkpt lat="46.0570383" lon="8.6783533"><ele>264.0</ele><time>2026-03-29T10:12:37.934Z</time></trkpt><trkpt lat="46.0569983" lon="8.678155"><ele>264.25</ele><time>2026-03-29T10:12:38.934Z</time></trkpt><trkpt lat="46.0569617" lon="8.6779567"><ele>264.5</ele><time>2026-03-29T10:12:39.934Z</time></trkpt><trkpt lat="46.0569267" lon="8.677755"><ele>264.75</ele><time>2026-03-29T10:12:40.934Z</time></trkpt><trkpt lat="46.0568983" lon="8.67755"><ele>265.0</ele><time>2026-03-29T10:12:41.933Z</time></trkpt><trkpt lat="46.0568833" lon="8.6773483"><ele>266.3333333333333</ele><time>2026-03-29T10:12:42.934Z</time></trkpt><trkpt lat="46.05691" lon="8.677155"><ele>267.6666666666667</ele><time>2026-03-29T10:12:43.933Z</time></trkpt><trkpt lat="46.0569217" lon="8.6769417"><ele>269.0</ele><time>2026-03-29T10:12:44.934Z</time></trkpt><trkpt lat="46.0569017" lon="8.676705"><ele>269.0</ele><time>2026-03-29T10:12:45.934Z</time></trkpt><trkpt lat="46.0568767" lon="8.67648"><ele>269.0</ele><time>2026-03-29T10:12:46.934Z</time></trkpt><trkpt lat="46.0568533" lon="8.6762533"><ele>269.0</ele><time>2026-03-29T10:12:47.934Z</time></trkpt><trkpt lat="46.05683" lon="8.67603"><ele>270.5</ele><time>2026-03-29T10:12:48.933Z</time></trkpt><trkpt lat="46.0568133" lon="8.675805"><ele>272.0</ele><time>2026-03-29T10:12:49.934Z</time></trkpt><trkpt lat="46.0568033" lon="8.675595"><ele>273.5</ele><time>2026-03-29T10:12:50.934Z</time></trkpt><trkpt lat="46.0568117" lon="8.6753867"><ele>275.0</ele><time>2026-03-29T10:12:51.934Z</time></trkpt><trkpt lat="46.0568317" lon="8.6751883"><ele>278.0</ele><time>2026-03-29T10:12:52.934Z</time></trkpt><trkpt lat="46.056865" lon="8.67497"><ele>281.0</ele><time>2026-03-29T10:12:53.934Z</time></trkpt><trkpt lat="46.0568983" lon="8.67476"><ele>284.0</ele><time>2026-03-29T10:12:54.934Z</time></trkpt><trkpt lat="46.056925" lon="8.67455"><ele>290.0</ele><time>2026-03-29T10:12:55.934Z</time></trkpt><trkpt lat="46.0569683" lon="8.6743367"><ele>296.0</ele><time>2026-03-29T10:12:56.934Z</time></trkpt><trkpt lat="46.0570117" lon="8.6741333"><ele>302.0</ele><time>2026-03-29T10:12:57.934Z</time></trkpt><trkpt lat="46.05707" lon="8.67393"><ele>302.0</ele><time>2026-03-29T10:12:58.934Z</time></trkpt><trkpt lat="46.05713" lon="8.6737283"><ele>302.0</ele><time>2026-03-29T10:12:59.934Z</time></trkpt><trkpt lat="46.0571933" lon="8.6735183"><ele>302.0</ele><time>2026-03-29T10:13:00.934Z</time></trkpt><trkpt lat="46.0572667" lon="8.6733017"><ele>294.33333333333337</ele><time>2026-03-29T10:13:01.933Z</time></trkpt><trkpt lat="46.0573383" lon="8.6730783"><ele>286.6666666666667</ele><time>2026-03-29T10:13:02.934Z</time></trkpt><trkpt lat="46.0574183" lon="8.67285"><ele>279.0</ele><time>2026-03-29T10:13:03.934Z</time></trkpt><trkpt lat="46.0575183" lon="8.6726267"><ele>279.0</ele><time>2026-03-29T10:13:04.934Z</time></trkpt><trkpt lat="46.0576083" lon="8.6724183"><ele>279.0</ele><time>2026-03-29T10:13:05.933Z</time></trkpt><trkpt lat="46.0576767" lon="8.6722117"><ele>279.0</ele><time>2026-03-29T10:13:06.934Z</time></trkpt><trkpt lat="46.0577383" lon="8.6720167"><ele>284.75</ele><time>2026-03-29T10:13:07.934Z</time></trkpt><trkpt lat="46.0577917" lon="8.6717983"><ele>290.5</ele><time>2026-03-29T10:13:08.934Z</time></trkpt><trkpt lat="46.057815" lon="8.67159"><ele>296.25</ele><time>2026-03-29T10:13:09.934Z</time></trkpt><trkpt lat="46.0578467" lon="8.6714017"><ele>302.0</ele><time>2026-03-29T10:13:10.934Z</time></trkpt><trkpt lat="46.0579" lon="8.6712333"><ele>306.6</ele><time>2026-03-29T10:13:11.934Z</time></trkpt><trkpt lat="46.0579617" lon="8.671085"><ele>311.2</ele><time>2026-03-29T10:13:12.934Z</time></trkpt><trkpt lat="46.058035" lon="8.6709517"><ele>315.8</ele><time>2026-03-29T10:13:13.934Z</time></trkpt><trkpt lat="46.0580783" lon="8.6708233"><ele>320.4</ele><time>2026-03-29T10:13:14.934Z</time></trkpt><trkpt lat="46.0581083" lon="8.67067"><ele>325.0</ele><time>2026-03-29T10:13:15.934Z</time></trkpt><trkpt lat="46.0581267" lon="8.6705217"><ele>325.0</ele><time>2026-03-29T10:13:16.934Z</time></trkpt><trkpt lat="46.0581617" lon="8.6703617"><ele>325.0</ele><time>2026-03-29T10:13:17.934Z</time></trkpt><trkpt lat="46.0582117" lon="8.6701967"><ele>325.0</ele><time>2026-03-29T10:13:18.933Z</time></trkpt><trkpt lat="46.0582783" lon="8.6700133"><ele>325.0</ele><time>2026-03-29T10:13:19.933Z</time></trkpt><trkpt lat="46.05835" lon="8.6698183"><ele>323.0</ele><time>2026-03-29T10:13:20.934Z</time></trkpt><trkpt lat="46.05844" lon="8.6696433"><ele>321.0</ele><time>2026-03-29T10:13:21.934Z</time></trkpt><trkpt lat="46.05852" lon="8.669475"><ele>319.0</ele><time>2026-03-29T10:13:22.934Z</time></trkpt><trkpt lat="46.0586033" lon="8.66931"><ele>317.0</ele><time>2026-03-29T10:13:23.934Z</time></trkpt><trkpt lat="46.0586783" lon="8.66915"><ele>317.0</ele><time>2026-03-29T10:13:24.934Z</time></trkpt><trkpt lat="46.0587617" lon="8.669005"><ele>317.0</ele><time>2026-03-29T10:13:25.934Z</time></trkpt><trkpt lat="46.05885" lon="8.6688717"><ele>317.0</ele><time>2026-03-29T10:13:26.934Z</time></trkpt><trkpt lat="46.0589217" lon="8.6687267"><ele>317.0</ele><time>2026-03-29T10:13:27.934Z</time></trkpt><trkpt lat="46.058965" lon="8.6685683"><ele>313.4</ele><time>2026-03-29T10:13:28.934Z</time></trkpt><trkpt lat="46.0590083" lon="8.6683833"><ele>309.79999999999995</ele><time>2026-03-29T10:13:29.934Z</time></trkpt><trkpt lat="46.0590467" lon="8.6682217"><ele>306.2</ele><time>2026-03-29T10:13:30.933Z</time></trkpt><trkpt lat="46.0590833" lon="8.668095"><ele>302.59999999999997</ele><time>2026-03-29T10:13:31.934Z</time></trkpt><trkpt lat="46.0591233" lon="8.6680033"><ele>299.0</ele><time>2026-03-29T10:13:32.934Z</time></trkpt><trkpt lat="46.0591817" lon="8.66794"><ele>299.0</ele><time>2026-03-29T10:13:33.934Z</time></trkpt><trkpt lat="46.0592483" lon="8.6678883"><ele>299.0</ele><time>2026-03-29T10:13:34.934Z</time></trkpt><trkpt lat="46.0593583" lon="8.6678567"><ele>299.0</ele><time>2026-03-29T10:13:35.934Z</time></trkpt><trkpt lat="46.0594883" lon="8.667835"><ele>299.0</ele><time>2026-03-29T10:13:36.934Z</time></trkpt><trkpt lat="46.0596217" lon="8.6677917"><ele>302.5</ele><time>2026-03-29T10:13:37.934Z</time></trkpt><trkpt lat="46.0597567" lon="8.6677367"><ele>306.0</ele><time>2026-03-29T10:13:38.934Z</time></trkpt><trkpt lat="46.0598833" lon="8.6676583"><ele>309.5</ele><time>2026-03-29T10:13:39.934Z</time></trkpt><trkpt lat="46.0600067" lon="8.667565"><ele>313.0</ele><time>2026-03-29T10:13:40.934Z</time></trkpt><trkpt lat="46.0601183" lon="8.6674683"><ele>313.0</ele><time>2026-03-29T10:13:41.934Z</time></trkpt><trkpt lat="46.0602217" lon="8.6673683"><ele>313.0</ele><time>2026-03-29T10:13:42.934Z</time></trkpt><trkpt lat="46.060315" lon="8.6672733"><ele>313.0</ele><time>2026-03-29T10:13:43.934Z</time></trkpt><trkpt lat="46.0603817" lon="8.667175"><ele>313.0</ele><time>2026-03-29T10:13:44.934Z</time></trkpt><trkpt lat="46.0604267" lon="8.6670983"><ele>313.0</ele><time>2026-03-29T10:13:45.933Z</time></trkpt><trkpt lat="46.0605167" lon="8.66701"><ele>313.0</ele><time>2026-03-29T10:13:47.934Z</time></trkpt><trkpt lat="46.060585" lon="8.6670167"><ele>313.0</ele><time>2026-03-29T10:13:49.934Z</time></trkpt><trkpt lat="46.0606583" lon="8.66706"><ele>313.0</ele><time>2026-03-29T10:13:52.933Z</time></trkpt><trkpt lat="46.0607683" lon="8.6671033"><ele>313.0</ele><time>2026-03-29T10:13:54.932Z</time></trkpt><trkpt lat="46.0608517" lon="8.667115"><ele>313.0</ele><time>2026-03-29T10:13:55.933Z</time></trkpt><trkpt lat="46.06095" lon="8.6670967"><ele>313.0</ele><time>2026-03-29T10:13:56.933Z</time></trkpt><trkpt lat="46.0610583" lon="8.66707"><ele>311.5</ele><time>2026-03-29T10:13:57.933Z</time></trkpt><trkpt lat="46.06117" lon="8.66705"><ele>310.0</ele><time>2026-03-29T10:13:58.932Z</time></trkpt><trkpt lat="46.061265" lon="8.6670267"><ele>308.5</ele><time>2026-03-29T10:13:59.933Z</time></trkpt><trkpt lat="46.0613333" lon="8.6669983"><ele>307.0</ele><time>2026-03-29T10:14:00.933Z</time></trkpt><trkpt lat="46.06141" lon="8.6669783"><ele>305.5</ele><time>2026-03-29T10:14:01.933Z</time></trkpt><trkpt lat="46.061485" lon="8.66698"><ele>304.0</ele><time>2026-03-29T10:14:02.933Z</time></trkpt><trkpt lat="46.0616117" lon="8.667055"><ele>305.66666666666663</ele><time>2026-03-29T10:14:04.933Z</time></trkpt><trkpt lat="46.06169" lon="8.6670983"><ele>307.3333333333333</ele><time>2026-03-29T10:14:05.933Z</time></trkpt><trkpt lat="46.0617733" lon="8.6671433"><ele>309.0</ele><time>2026-03-29T10:14:06.933Z</time></trkpt><trkpt lat="46.0618533" lon="8.667195"><ele>310.6666666666667</ele><time>2026-03-29T10:14:07.933Z</time></trkpt><trkpt lat="46.0619367" lon="8.667245"><ele>312.33333333333337</ele><time>2026-03-29T10:14:08.933Z</time></trkpt><trkpt lat="46.06201" lon="8.6673"><ele>314.0</ele><time>2026-03-29T10:14:09.933Z</time></trkpt><trkpt lat="46.0620917" lon="8.6673417"><ele>314.0</ele><time>2026-03-29T10:14:10.933Z</time></trkpt><trkpt lat="46.06218" lon="8.6673533"><ele>314.0</ele><time>2026-03-29T10:14:11.933Z</time></trkpt><trkpt lat="46.06226" lon="8.667365"><ele>314.0</ele><time>2026-03-29T10:14:12.933Z</time></trkpt><trkpt lat="46.06233" lon="8.6673583"><ele>314.0</ele><time>2026-03-29T10:14:13.932Z</time></trkpt><trkpt lat="46.0623933" lon="8.6673417"><ele>314.0</ele><time>2026-03-29T10:14:14.933Z</time></trkpt><trkpt lat="46.0624983" lon="8.6673267"><ele>314.0</ele><time>2026-03-29T10:14:16.933Z</time></trkpt><trkpt lat="46.0625933" lon="8.6672317"><ele>312.0</ele><time>2026-03-29T10:14:18.933Z</time></trkpt><trkpt lat="46.06262" lon="8.6671417"><ele>310.0</ele><time>2026-03-29T10:14:19.933Z</time></trkpt><trkpt lat="46.0626333" lon="8.667025"><ele>308.0</ele><time>2026-03-29T10:14:20.932Z</time></trkpt><trkpt lat="46.062645" lon="8.6669083"><ele>306.0</ele><time>2026-03-29T10:14:21.933Z</time></trkpt><trkpt lat="46.06266" lon="8.66678"><ele>304.0</ele><time>2026-03-29T10:14:22.933Z</time></trkpt><trkpt lat="46.0626767" lon="8.6666517"><ele>302.0</ele><time>2026-03-29T10:14:23.932Z</time></trkpt><trkpt lat="46.0627" lon="8.6665217"><ele>311.2</ele><time>2026-03-29T10:14:24.932Z</time></trkpt><trkpt lat="46.0627217" lon="8.6663967"><ele>320.4</ele><time>2026-03-29T10:14:25.933Z</time></trkpt><trkpt lat="46.0627533" lon="8.6662817"><ele>329.59999999999997</ele><time>2026-03-29T10:14:26.933Z</time></trkpt><trkpt lat="46.062795" lon="8.6661633"><ele>338.79999999999995</ele><time>2026-03-29T10:14:27.933Z</time></trkpt><trkpt lat="46.0628417" lon="8.6660467"><ele>348.0</ele><time>2026-03-29T10:14:28.933Z</time></trkpt><trkpt lat="46.0629017" lon="8.6659333"><ele>357.4</ele><time>2026-03-29T10:14:29.933Z</time></trkpt><trkpt lat="46.0629867" lon="8.6658217"><ele>366.79999999999995</ele><time>2026-03-29T10:14:30.932Z</time></trkpt><trkpt lat="46.0630617" lon="8.6657217"><ele>376.2</ele><time>2026-03-29T10:14:31.933Z</time></trkpt><trkpt lat="46.0631333" lon="8.6656333"><ele>385.6</ele><time>2026-03-29T10:14:32.933Z</time></trkpt><trkpt lat="46.0631983" lon="8.6655517"><ele>395.0</ele><time>2026-03-29T10:14:33.933Z</time></trkpt><trkpt lat="46.063265" lon="8.6654833"><ele>385.99999999999994</ele><time>2026-03-29T10:14:34.933Z</time></trkpt><trkpt lat="46.063335" lon="8.6654283"><ele>377.0</ele><time>2026-03-29T10:14:35.933Z</time></trkpt><trkpt lat="46.0634183" lon="8.66539"><ele>368.0</ele><time>2026-03-29T10:14:36.933Z</time></trkpt><trkpt lat="46.0634967" lon="8.6653817"><ele>359.0</ele><time>2026-03-29T10:14:37.933Z</time></trkpt><trkpt lat="46.0635867" lon="8.6653683"><ele>350.0</ele><time>2026-03-29T10:14:38.933Z</time></trkpt><trkpt lat="46.0636767" lon="8.6653383"><ele>341.0</ele><time>2026-03-29T10:14:39.933Z</time></trkpt><trkpt lat="46.0637633" lon="8.6652833"><ele>344.0</ele><time>2026-03-29T10:14:40.933Z</time></trkpt><trkpt lat="46.06384" lon="8.6652317"><ele>347.0</ele><time>2026-03-29T10:14:41.933Z</time></trkpt><trkpt lat="46.0639117" lon="8.66517"><ele>350.0</ele><time>2026-03-29T10:14:42.933Z</time></trkpt><trkpt lat="46.06398" lon="8.6650917"><ele>353.0</ele><time>2026-03-29T10:14:43.933Z</time></trkpt><trkpt lat="46.0640433" lon="8.6650317"><ele>356.0</ele><time>2026-03-29T10:14:44.933Z</time></trkpt><trkpt lat="46.0641083" lon="8.6650017"><ele>359.0</ele><time>2026-03-29T10:14:45.933Z</time></trkpt><trkpt lat="46.0641733" lon="8.6650133"><ele>359.0</ele><time>2026-03-29T10:14:46.933Z</time></trkpt><trkpt lat="46.064235" lon="8.6650367"><ele>359.0</ele><time>2026-03-29T10:14:47.933Z</time></trkpt><trkpt lat="46.0643283" lon="8.665085"><ele>359.0</ele><time>2026-03-29T10:14:49.932Z</time></trkpt><trkpt lat="46.0644033" lon="8.6651217"><ele>359.0</ele><time>2026-03-29T10:14:51.933Z</time></trkpt><trkpt lat="46.0644883" lon="8.665125"><ele>359.0</ele><time>2026-03-29T10:14:53.932Z</time></trkpt><trkpt lat="46.0645717" lon="8.6650883"><ele>359.0</ele><time>2026-03-29T10:14:55.933Z</time></trkpt><trkpt lat="46.0646633" lon="8.6649333"><ele>359.0</ele><time>2026-03-29T10:14:57.933Z</time></trkpt><trkpt lat="46.064705" lon="8.6648583"><ele>359.0</ele><time>2026-03-29T10:14:58.933Z</time></trkpt><trkpt lat="46.06474" lon="8.6647567"><ele>359.0</ele><time>2026-03-29T10:14:59.933Z</time></trkpt><trkpt lat="46.06476" lon="8.66464"><ele>359.0</ele><time>2026-03-29T10:15:00.933Z</time></trkpt><trkpt lat="46.0647667" lon="8.6644983"><ele>359.0</ele><time>2026-03-29T10:15:01.932Z</time></trkpt><trkpt lat="46.0647733" lon="8.664325"><ele>359.0</ele><time>2026-03-29T10:15:02.933Z</time></trkpt><trkpt lat="46.0647817" lon="8.66412"><ele>365.75</ele><time>2026-03-29T10:15:03.933Z</time></trkpt><trkpt lat="46.0648" lon="8.663935"><ele>372.5</ele><time>2026-03-29T10:15:04.933Z</time></trkpt><trkpt lat="46.0648317" lon="8.6637467"><ele>379.25</ele><time>2026-03-29T10:15:05.933Z</time></trkpt><trkpt lat="46.0648733" lon="8.663555"><ele>386.0</ele><time>2026-03-29T10:15:06.933Z</time></trkpt><trkpt lat="46.064885" lon="8.6633567"><ele>390.3333333333333</ele><time>2026-03-29T10:15:07.933Z</time></trkpt><trkpt lat="46.0648683" lon="8.66319"><ele>394.66666666666663</ele><time>2026-03-29T10:15:08.933Z</time></trkpt><trkpt lat="46.0648483" lon="8.6630483"><ele>399.0</ele><time>2026-03-29T10:15:09.933Z</time></trkpt><trkpt lat="46.06483" lon="8.6629333"><ele>403.33333333333337</ele><time>2026-03-29T10:15:10.933Z</time></trkpt><trkpt lat="46.0648267" lon="8.6628317"><ele>407.6666666666667</ele><time>2026-03-29T10:15:11.933Z</time></trkpt><trkpt lat="46.0648467" lon="8.662735"><ele>412.0</ele><time>2026-03-29T10:15:12.933Z</time></trkpt><trkpt lat="46.0649183" lon="8.6625683"><ele>406.25</ele><time>2026-03-29T10:15:14.933Z</time></trkpt><trkpt lat="46.0649733" lon="8.662395"><ele>400.5</ele><time>2026-03-29T10:15:16.933Z</time></trkpt><trkpt lat="46.064995" lon="8.6622783"><ele>394.75</ele><time>2026-03-29T10:15:17.933Z</time></trkpt><trkpt lat="46.0650317" lon="8.662065"><ele>389.0</ele><time>2026-03-29T10:15:19.933Z</time></trkpt><trkpt lat="46.0650517" lon="8.6619433"><ele>388.99999999999994</ele><time>2026-03-29T10:15:20.933Z</time></trkpt><trkpt lat="46.0650767" lon="8.6618417"><ele>389.0</ele><time>2026-03-29T10:15:21.932Z</time></trkpt><trkpt lat="46.0651267" lon="8.6617467"><ele>389.0</ele><time>2026-03-29T10:15:22.933Z</time></trkpt><trkpt lat="46.0651933" lon="8.6616683"><ele>389.0</ele><time>2026-03-29T10:15:23.933Z</time></trkpt><trkpt lat="46.0652617" lon="8.66161"><ele>388.99999999999994</ele><time>2026-03-29T10:15:24.933Z</time></trkpt><trkpt lat="46.0653233" lon="8.66156"><ele>389.0</ele><time>2026-03-29T10:15:25.933Z</time></trkpt><trkpt lat="46.06538" lon="8.6614967"><ele>389.0</ele><time>2026-03-29T10:15:26.933Z</time></trkpt><trkpt lat="46.065425" lon="8.6613983"><ele>389.0</ele><time>2026-03-29T10:15:27.933Z</time></trkpt><trkpt lat="46.065465" lon="8.6612417"><ele>389.0</ele><time>2026-03-29T10:15:28.933Z</time></trkpt><trkpt lat="46.0655083" lon="8.66104"><ele>389.0</ele><time>2026-03-29T10:15:29.933Z</time></trkpt><trkpt lat="46.0655633" lon="8.6607983"><ele>391.25</ele><time>2026-03-29T10:15:30.933Z</time></trkpt><trkpt lat="46.0656" lon="8.6605833"><ele>393.5</ele><time>2026-03-29T10:15:31.933Z</time></trkpt><trkpt lat="46.0656067" lon="8.6603817"><ele>395.75</ele><time>2026-03-29T10:15:32.933Z</time></trkpt><trkpt lat="46.0655683" lon="8.6602067"><ele>398.0</ele><time>2026-03-29T10:15:33.933Z</time></trkpt><trkpt lat="46.06549" lon="8.66003"><ele>398.3333333333333</ele><time>2026-03-29T10:15:34.932Z</time></trkpt><trkpt lat="46.06541" lon="8.6598583"><ele>398.66666666666663</ele><time>2026-03-29T10:15:35.933Z</time></trkpt><trkpt lat="46.0653133" lon="8.6596733"><ele>399.0</ele><time>2026-03-29T10:15:36.933Z</time></trkpt><trkpt lat="46.065235" lon="8.659465"><ele>394.66666666666663</ele><time>2026-03-29T10:15:37.933Z</time></trkpt><trkpt lat="46.0651533" lon="8.6592367"><ele>390.3333333333333</ele><time>2026-03-29T10:15:38.933Z</time></trkpt><trkpt lat="46.065085" lon="8.6590117"><ele>386.0</ele><time>2026-03-29T10:15:39.933Z</time></trkpt><trkpt lat="46.0650167" lon="8.6588067"><ele>400.3333333333333</ele><time>2026-03-29T10:15:40.932Z</time></trkpt><trkpt lat="46.0649367" lon="8.6586067"><ele>414.66666666666663</ele><time>2026-03-29T10:15:41.933Z</time></trkpt><trkpt lat="46.0648517" lon="8.6584233"><ele>429.0</ele><time>2026-03-29T10:15:42.933Z</time></trkpt><trkpt lat="46.0647717" lon="8.6582617"><ele>429.0</ele><time>2026-03-29T10:15:43.933Z</time></trkpt><trkpt lat="46.0647" lon="8.65812"><ele>429.0</ele><time>2026-03-29T10:15:44.933Z</time></trkpt><trkpt lat="46.0646267" lon="8.6579683"><ele>429.0</ele><time>2026-03-29T10:15:45.932Z</time></trkpt><trkpt lat="46.0645567" lon="8.6578217"><ele>429.0</ele><time>2026-03-29T10:15:46.933Z</time></trkpt><trkpt lat="46.0645383" lon="8.657675"><ele>427.2</ele><time>2026-03-29T10:15:47.933Z</time></trkpt><trkpt lat="46.064525" lon="8.65753"><ele>425.4</ele><time>2026-03-29T10:15:48.933Z</time></trkpt><trkpt lat="46.0645217" lon="8.6573833"><ele>423.6</ele><time>2026-03-29T10:15:49.932Z</time></trkpt><trkpt lat="46.06452" lon="8.6572233"><ele>421.8</ele><time>2026-03-29T10:15:50.933Z</time></trkpt><trkpt lat="46.0645167" lon="8.65705"><ele>420.0</ele><time>2026-03-29T10:15:51.933Z</time></trkpt><trkpt lat="46.0645067" lon="8.6568783"><ele>419.2</ele><time>2026-03-29T10:15:52.933Z</time></trkpt><trkpt lat="46.064495" lon="8.65673"><ele>418.4</ele><time>2026-03-29T10:15:53.933Z</time></trkpt><trkpt lat="46.0644683" lon="8.6565833"><ele>417.6</ele><time>2026-03-29T10:15:54.932Z</time></trkpt><trkpt lat="46.0644117" lon="8.6564483"><ele>416.8</ele><time>2026-03-29T10:15:55.933Z</time></trkpt><trkpt lat="46.0643433" lon="8.65629"><ele>416.0</ele><time>2026-03-29T10:15:56.933Z</time></trkpt><trkpt lat="46.0642817" lon="8.6561017"><ele>414.75</ele><time>2026-03-29T10:15:57.933Z</time></trkpt><trkpt lat="46.0642333" lon="8.6559117"><ele>413.5</ele><time>2026-03-29T10:15:58.933Z</time></trkpt><trkpt lat="46.06419" lon="8.6557333"><ele>412.25</ele><time>2026-03-29T10:15:59.933Z</time></trkpt><trkpt lat="46.0641567" lon="8.655575"><ele>411.0</ele><time>2026-03-29T10:16:00.933Z</time></trkpt><trkpt lat="46.06413" lon="8.6554167"><ele>411.0</ele><time>2026-03-29T10:16:01.933Z</time></trkpt><trkpt lat="46.064115" lon="8.6552917"><ele>411.0</ele><time>2026-03-29T10:16:02.933Z</time></trkpt><trkpt lat="46.064115" lon="8.6551883"><ele>411.0</ele><time>2026-03-29T10:16:03.933Z</time></trkpt><trkpt lat="46.06419" lon="8.6550517"><ele>411.0</ele><time>2026-03-29T10:16:05.933Z</time></trkpt><trkpt lat="46.0642967" lon="8.6550517"><ele>411.0</ele><time>2026-03-29T10:16:06.933Z</time></trkpt><trkpt lat="46.06441" lon="8.6550683"><ele>410.4</ele><time>2026-03-29T10:16:07.933Z</time></trkpt><trkpt lat="46.06451" lon="8.65505"><ele>409.8</ele><time>2026-03-29T10:16:08.933Z</time></trkpt><trkpt lat="46.0645733" lon="8.6549833"><ele>409.2</ele><time>2026-03-29T10:16:09.933Z</time></trkpt><trkpt lat="46.0646233" lon="8.6548867"><ele>408.59999999999997</ele><time>2026-03-29T10:16:10.933Z</time></trkpt><trkpt lat="46.0646667" lon="8.65475"><ele>408.0</ele><time>2026-03-29T10:16:11.933Z</time></trkpt><trkpt lat="46.0646917" lon="8.6546267"><ele>408.0</ele><time>2026-03-29T10:16:12.933Z</time></trkpt><trkpt lat="46.0647467" lon="8.65453"><ele>408.0</ele><time>2026-03-29T10:16:13.933Z</time></trkpt><trkpt lat="46.064815" lon="8.6544517"><ele>408.0</ele><time>2026-03-29T10:16:14.933Z</time></trkpt><trkpt lat="46.0649033" lon="8.6543983"><ele>408.0</ele><time>2026-03-29T10:16:15.932Z</time></trkpt><trkpt lat="46.06498" lon="8.6543217"><ele>408.0</ele><time>2026-03-29T10:16:16.933Z</time></trkpt><trkpt lat="46.0650333" lon="8.6542133"><ele>403.2</ele><time>2026-03-29T10:16:17.933Z</time></trkpt><trkpt lat="46.0650667" lon="8.6540933"><ele>398.4</ele><time>2026-03-29T10:16:18.933Z</time></trkpt><trkpt lat="46.0650817" lon="8.65397"><ele>393.59999999999997</ele><time>2026-03-29T10:16:19.933Z</time></trkpt><trkpt lat="46.0650717" lon="8.6538167"><ele>388.79999999999995</ele><time>2026-03-29T10:16:20.933Z</time></trkpt><trkpt lat="46.0650517" lon="8.6536433"><ele>384.0</ele><time>2026-03-29T10:16:21.933Z</time></trkpt><trkpt lat="46.065035" lon="8.6534467"><ele>384.0</ele><time>2026-03-29T10:16:22.933Z</time></trkpt><trkpt lat="46.0650417" lon="8.6532533"><ele>384.0</ele><time>2026-03-29T10:16:23.932Z</time></trkpt><trkpt lat="46.065005" lon="8.6530483"><ele>384.0</ele><time>2026-03-29T10:16:24.932Z</time></trkpt><trkpt lat="46.0650017" lon="8.6528717"><ele>384.0</ele><time>2026-03-29T10:16:25.932Z</time></trkpt><trkpt lat="46.0649783" lon="8.6527233"><ele>384.79999999999995</ele><time>2026-03-29T10:16:26.933Z</time></trkpt><trkpt lat="46.0649667" lon="8.6526133"><ele>385.59999999999997</ele><time>2026-03-29T10:16:27.933Z</time></trkpt><trkpt lat="46.0649633" lon="8.6525067"><ele>386.4</ele><time>2026-03-29T10:16:28.933Z</time></trkpt><trkpt lat="46.0650333" lon="8.65236"><ele>387.2</ele><time>2026-03-29T10:16:30.933Z</time></trkpt><trkpt lat="46.0651133" lon="8.652315"><ele>388.0</ele><time>2026-03-29T10:16:31.933Z</time></trkpt><trkpt lat="46.06521" lon="8.6522517"><ele>388.0</ele><time>2026-03-29T10:16:32.933Z</time></trkpt><trkpt lat="46.0652917" lon="8.6521617"><ele>388.0</ele><time>2026-03-29T10:16:33.933Z</time></trkpt><trkpt lat="46.06535" lon="8.6520317"><ele>388.0</ele><time>2026-03-29T10:16:34.932Z</time></trkpt><trkpt lat="46.0654" lon="8.6518967"><ele>388.0</ele><time>2026-03-29T10:16:35.932Z</time></trkpt><trkpt lat="46.0654217" lon="8.6517567"><ele>388.0</ele><time>2026-03-29T10:16:36.933Z</time></trkpt><trkpt lat="46.065425" lon="8.6515983"><ele>386.75</ele><time>2026-03-29T10:16:37.933Z</time></trkpt><trkpt lat="46.0654133" lon="8.651435"><ele>385.5</ele><time>2026-03-29T10:16:38.933Z</time></trkpt><trkpt lat="46.0653817" lon="8.6512683"><ele>384.25</ele><time>2026-03-29T10:16:39.933Z</time></trkpt><trkpt lat="46.0653417" lon="8.6511133"><ele>383.0</ele><time>2026-03-29T10:16:40.932Z</time></trkpt><trkpt lat="46.0652617" lon="8.650935"><ele>383.0</ele><time>2026-03-29T10:16:41.933Z</time></trkpt><trkpt lat="46.065165" lon="8.65077"><ele>383.0</ele><time>2026-03-29T10:16:42.933Z</time></trkpt><trkpt lat="46.0650633" lon="8.650605"><ele>383.0</ele><time>2026-03-29T10:16:43.933Z</time></trkpt><trkpt lat="46.06496" lon="8.65046"><ele>383.0</ele><time>2026-03-29T10:16:44.933Z</time></trkpt><trkpt lat="46.06486" lon="8.65033"><ele>388.2</ele><time>2026-03-29T10:16:45.933Z</time></trkpt><trkpt lat="46.064785" lon="8.6502117"><ele>393.4</ele><time>2026-03-29T10:16:46.933Z</time></trkpt><trkpt lat="46.0647317" lon="8.6500933"><ele>398.59999999999997</ele><time>2026-03-29T10:16:47.933Z</time></trkpt><trkpt lat="46.064695" lon="8.649945"><ele>403.79999999999995</ele><time>2026-03-29T10:16:48.933Z</time></trkpt><trkpt lat="46.0646783" lon="8.6498"><ele>409.0</ele><time>2026-03-29T10:16:49.933Z</time></trkpt><trkpt lat="46.0646617" lon="8.6496617"><ele>409.0</ele><time>2026-03-29T10:16:50.933Z</time></trkpt><trkpt lat="46.0646467" lon="8.6495267"><ele>409.0</ele><time>2026-03-29T10:16:51.933Z</time></trkpt><trkpt lat="46.0646267" lon="8.64938"><ele>409.0</ele><time>2026-03-29T10:16:52.933Z</time></trkpt><trkpt lat="46.0646067" lon="8.649195"><ele>409.0</ele><time>2026-03-29T10:16:53.933Z</time></trkpt><trkpt lat="46.0645967" lon="8.6489883"><ele>411.6666666666667</ele><time>2026-03-29T10:16:54.933Z</time></trkpt><trkpt lat="46.0645817" lon="8.6487467"><ele>414.33333333333337</ele><time>2026-03-29T10:16:55.933Z</time></trkpt><trkpt lat="46.06458" lon="8.64848"><ele>417.0</ele><time>2026-03-29T10:16:56.933Z</time></trkpt><trkpt lat="46.06456" lon="8.64824"><ele>418.75</ele><time>2026-03-29T10:16:57.933Z</time></trkpt><trkpt lat="46.0645717" lon="8.6480183"><ele>420.5</ele><time>2026-03-29T10:16:58.933Z</time></trkpt><trkpt lat="46.0646083" lon="8.6478333"><ele>422.25</ele><time>2026-03-29T10:16:59.933Z</time></trkpt><trkpt lat="46.0646683" lon="8.6476917"><ele>424.0</ele><time>2026-03-29T10:17:00.933Z</time></trkpt><trkpt lat="46.0647067" lon="8.6475867"><ele>426.6</ele><time>2026-03-29T10:17:01.932Z</time></trkpt><trkpt lat="46.0647483" lon="8.6474833"><ele>429.2</ele><time>2026-03-29T10:17:02.932Z</time></trkpt><trkpt lat="46.0648" lon="8.647375"><ele>431.80000000000007</ele><time>2026-03-29T10:17:03.932Z</time></trkpt><trkpt lat="46.06482" lon="8.647255"><ele>434.40000000000003</ele><time>2026-03-29T10:17:04.932Z</time></trkpt><trkpt lat="46.064835" lon="8.6471083"><ele>437.0</ele><time>2026-03-29T10:17:05.932Z</time></trkpt><trkpt lat="46.06485" lon="8.6469283"><ele>437.20000000000005</ele><time>2026-03-29T10:17:06.932Z</time></trkpt><trkpt lat="46.0648817" lon="8.6467533"><ele>437.40000000000003</ele><time>2026-03-29T10:17:07.931Z</time></trkpt><trkpt lat="46.064925" lon="8.6466"><ele>437.59999999999997</ele><time>2026-03-29T10:17:08.932Z</time></trkpt><trkpt lat="46.064955" lon="8.6464517"><ele>437.79999999999995</ele><time>2026-03-29T10:17:09.931Z</time></trkpt><trkpt lat="46.0649583" lon="8.646315"><ele>438.0</ele><time>2026-03-29T10:17:10.932Z</time></trkpt><trkpt lat="46.0649367" lon="8.6461717"><ele>439.8333333333333</ele><time>2026-03-29T10:17:11.932Z</time></trkpt><trkpt lat="46.0649133" lon="8.64604"><ele>441.66666666666663</ele><time>2026-03-29T10:17:12.932Z</time></trkpt><trkpt lat="46.06491" lon="8.64592"><ele>443.5</ele><time>2026-03-29T10:17:13.932Z</time></trkpt><trkpt lat="46.0649233" lon="8.6458067"><ele>445.3333333333333</ele><time>2026-03-29T10:17:14.932Z</time></trkpt><trkpt lat="46.06496" lon="8.6457117"><ele>447.16666666666663</ele><time>2026-03-29T10:17:15.932Z</time></trkpt><trkpt lat="46.0650233" lon="8.6456217"><ele>449.0</ele><time>2026-03-29T10:17:16.932Z</time></trkpt><trkpt lat="46.065135" lon="8.6455283"><ele>442.5</ele><time>2026-03-29T10:17:17.932Z</time></trkpt><trkpt lat="46.0652517" lon="8.6454467"><ele>436.0</ele><time>2026-03-29T10:17:18.932Z</time></trkpt><trkpt lat="46.0653317" lon="8.64535"><ele>429.5</ele><time>2026-03-29T10:17:19.932Z</time></trkpt><trkpt lat="46.0653883" lon="8.6452417"><ele>423.0</ele><time>2026-03-29T10:17:20.932Z</time></trkpt><trkpt lat="46.06544" lon="8.6450833"><ele>423.0</ele><time>2026-03-29T10:17:21.932Z</time></trkpt><trkpt lat="46.065485" lon="8.64493"><ele>423.0</ele><time>2026-03-29T10:17:22.932Z</time></trkpt><trkpt lat="46.0655283" lon="8.6447733"><ele>423.0</ele><time>2026-03-29T10:17:23.932Z</time></trkpt><trkpt lat="46.0655767" lon="8.644645"><ele>423.0</ele><time>2026-03-29T10:17:24.932Z</time></trkpt><trkpt lat="46.065645" lon="8.6445517"><ele>423.0</ele><time>2026-03-29T10:17:25.932Z</time></trkpt><trkpt lat="46.065735" lon="8.6444933"><ele>416.2</ele><time>2026-03-29T10:17:26.932Z</time></trkpt><trkpt lat="46.065835" lon="8.6444433"><ele>409.4</ele><time>2026-03-29T10:17:27.932Z</time></trkpt><trkpt lat="46.0659333" lon="8.6444083"><ele>402.59999999999997</ele><time>2026-03-29T10:17:28.931Z</time></trkpt><trkpt lat="46.0660467" lon="8.6444083"><ele>395.79999999999995</ele><time>2026-03-29T10:17:29.932Z</time></trkpt><trkpt lat="46.0661333" lon="8.6443783"><ele>389.0</ele><time>2026-03-29T10:17:30.932Z</time></trkpt><trkpt lat="46.0661967" lon="8.64431"><ele>389.0</ele><time>2026-03-29T10:17:31.932Z</time></trkpt><trkpt lat="46.0662417" lon="8.6441983"><ele>389.0</ele><time>2026-03-29T10:17:32.931Z</time></trkpt><trkpt lat="46.0662633" lon="8.6440517"><ele>389.0</ele><time>2026-03-29T10:17:33.932Z</time></trkpt><trkpt lat="46.0662433" lon="8.6438583"><ele>389.0</ele><time>2026-03-29T10:17:34.932Z</time></trkpt><trkpt lat="46.0662017" lon="8.6436517"><ele>389.5</ele><time>2026-03-29T10:17:35.932Z</time></trkpt><trkpt lat="46.0661433" lon="8.6434617"><ele>390.0</ele><time>2026-03-29T10:17:36.932Z</time></trkpt><trkpt lat="46.0660633" lon="8.643295"><ele>390.5</ele><time>2026-03-29T10:17:37.932Z</time></trkpt><trkpt lat="46.0659517" lon="8.6431467"><ele>391.0</ele><time>2026-03-29T10:17:38.932Z</time></trkpt><trkpt lat="46.0658633" lon="8.64299"><ele>391.0</ele><time>2026-03-29T10:17:39.932Z</time></trkpt><trkpt lat="46.0657983" lon="8.6428033"><ele>391.0</ele><time>2026-03-29T10:17:40.932Z</time></trkpt><trkpt lat="46.0657417" lon="8.6425967"><ele>391.0</ele><time>2026-03-29T10:17:41.931Z</time></trkpt><trkpt lat="46.0656917" lon="8.6424233"><ele>391.0</ele><time>2026-03-29T10:17:42.932Z</time></trkpt><trkpt lat="46.0656517" lon="8.6422633"><ele>389.50000000000006</ele><time>2026-03-29T10:17:43.932Z</time></trkpt><trkpt lat="46.06559" lon="8.6421333"><ele>388.0</ele><time>2026-03-29T10:17:44.931Z</time></trkpt><trkpt lat="46.0655767" lon="8.642025"><ele>386.5</ele><time>2026-03-29T10:17:45.932Z</time></trkpt><trkpt lat="46.0656067" lon="8.6418717"><ele>385.0</ele><time>2026-03-29T10:17:47.932Z</time></trkpt><trkpt lat="46.0656717" lon="8.6418383"><ele>383.5</ele><time>2026-03-29T10:17:48.932Z</time></trkpt><trkpt lat="46.0657483" lon="8.6417967"><ele>382.0</ele><time>2026-03-29T10:17:49.931Z</time></trkpt><trkpt lat="46.065805" lon="8.6417333"><ele>382.0</ele><time>2026-03-29T10:17:50.932Z</time></trkpt><trkpt lat="46.0658517" lon="8.6416283"><ele>382.0</ele><time>2026-03-29T10:17:51.932Z</time></trkpt><trkpt lat="46.0659133" lon="8.64148"><ele>382.0</ele><time>2026-03-29T10:17:52.932Z</time></trkpt><trkpt lat="46.0659483" lon="8.641315"><ele>382.0</ele><time>2026-03-29T10:17:53.932Z</time></trkpt><trkpt lat="46.0659883" lon="8.641135"><ele>383.3333333333333</ele><time>2026-03-29T10:17:54.932Z</time></trkpt><trkpt lat="46.0660233" lon="8.6409333"><ele>384.66666666666663</ele><time>2026-03-29T10:17:55.932Z</time></trkpt><trkpt lat="46.06603" lon="8.64072"><ele>386.0</ele><time>2026-03-29T10:17:56.932Z</time></trkpt><trkpt lat="46.0660267" lon="8.64048"><ele>385.0</ele><time>2026-03-29T10:17:57.932Z</time></trkpt><trkpt lat="46.06603" lon="8.6402583"><ele>384.0</ele><time>2026-03-29T10:17:58.932Z</time></trkpt><trkpt lat="46.066025" lon="8.6400283"><ele>383.0</ele><time>2026-03-29T10:17:59.932Z</time></trkpt><trkpt lat="46.066005" lon="8.6397983"><ele>383.0</ele><time>2026-03-29T10:18:00.932Z</time></trkpt><trkpt lat="46.065975" lon="8.6395817"><ele>383.0</ele><time>2026-03-29T10:18:01.932Z</time></trkpt><trkpt lat="46.06593" lon="8.6393767"><ele>383.0</ele><time>2026-03-29T10:18:02.932Z</time></trkpt><trkpt lat="46.06588" lon="8.6391867"><ele>383.0</ele><time>2026-03-29T10:18:03.932Z</time></trkpt><trkpt lat="46.0658133" lon="8.6390167"><ele>393.0</ele><time>2026-03-29T10:18:04.932Z</time></trkpt><trkpt lat="46.065765" lon="8.63885"><ele>403.0</ele><time>2026-03-29T10:18:05.932Z</time></trkpt><trkpt lat="46.0657283" lon="8.638695"><ele>413.0</ele><time>2026-03-29T10:18:06.931Z</time></trkpt><trkpt lat="46.065695" lon="8.63853"><ele>423.0</ele><time>2026-03-29T10:18:07.932Z</time></trkpt><trkpt lat="46.0656617" lon="8.6383417"><ele>423.0</ele><time>2026-03-29T10:18:08.932Z</time></trkpt><trkpt lat="46.0656333" lon="8.638145"><ele>423.0</ele><time>2026-03-29T10:18:09.932Z</time></trkpt><trkpt lat="46.0656" lon="8.63796"><ele>423.0</ele><time>2026-03-29T10:18:10.931Z</time></trkpt><trkpt lat="46.0655717" lon="8.6377833"><ele>423.0</ele><time>2026-03-29T10:18:11.932Z</time></trkpt><trkpt lat="46.0655567" lon="8.63761"><ele>428.25</ele><time>2026-03-29T10:18:12.932Z</time></trkpt><trkpt lat="46.06556" lon="8.6374317"><ele>433.5</ele><time>2026-03-29T10:18:13.932Z</time></trkpt><trkpt lat="46.06559" lon="8.637245"><ele>438.75</ele><time>2026-03-29T10:18:14.932Z</time></trkpt><trkpt lat="46.0656367" lon="8.637065"><ele>444.0</ele><time>2026-03-29T10:18:15.932Z</time></trkpt><trkpt lat="46.065695" lon="8.63689"><ele>431.0</ele><time>2026-03-29T10:18:16.932Z</time></trkpt><trkpt lat="46.06578" lon="8.63674"><ele>418.0</ele><time>2026-03-29T10:18:17.932Z</time></trkpt><trkpt lat="46.065865" lon="8.6365883"><ele>405.0</ele><time>2026-03-29T10:18:18.932Z</time></trkpt><trkpt lat="46.0659633" lon="8.6364433"><ele>392.0</ele><time>2026-03-29T10:18:19.932Z</time></trkpt><trkpt lat="46.06603" lon="8.6363033"><ele>392.0</ele><time>2026-03-29T10:18:20.932Z</time></trkpt><trkpt lat="46.06607" lon="8.636175"><ele>392.0</ele><time>2026-03-29T10:18:21.932Z</time></trkpt><trkpt lat="46.0661083" lon="8.63605"><ele>392.0</ele><time>2026-03-29T10:18:22.932Z</time></trkpt><trkpt lat="46.0661567" lon="8.6359517"><ele>392.0</ele><time>2026-03-29T10:18:23.932Z</time></trkpt><trkpt lat="46.06623" lon="8.6358767"><ele>392.0</ele><time>2026-03-29T10:18:24.932Z</time></trkpt><trkpt lat="46.0663183" lon="8.63584"><ele>393.49999999999994</ele><time>2026-03-29T10:18:25.932Z</time></trkpt><trkpt lat="46.0663883" lon="8.635785"><ele>395.0</ele><time>2026-03-29T10:18:26.932Z</time></trkpt><trkpt lat="46.0664383" lon="8.6357233"><ele>396.5</ele><time>2026-03-29T10:18:27.931Z</time></trkpt><trkpt lat="46.0664633" lon="8.6356367"><ele>398.0</ele><time>2026-03-29T10:18:28.932Z</time></trkpt><trkpt lat="46.066455" lon="8.6355183"><ele>399.49999999999994</ele><time>2026-03-29T10:18:29.932Z</time></trkpt><trkpt lat="46.066405" lon="8.6353583"><ele>401.0</ele><time>2026-03-29T10:18:30.932Z</time></trkpt><trkpt lat="46.0663467" lon="8.6351733"><ele>403.66666666666663</ele><time>2026-03-29T10:18:31.932Z</time></trkpt><trkpt lat="46.06628" lon="8.6349417"><ele>406.33333333333337</ele><time>2026-03-29T10:18:32.932Z</time></trkpt><trkpt lat="46.06623" lon="8.6347083"><ele>409.0</ele><time>2026-03-29T10:18:33.931Z</time></trkpt><trkpt lat="46.066215" lon="8.63446"><ele>409.0</ele><time>2026-03-29T10:18:34.932Z</time></trkpt><trkpt lat="46.06619" lon="8.63421"><ele>409.0</ele><time>2026-03-29T10:18:35.932Z</time></trkpt><trkpt lat="46.06616" lon="8.6339633"><ele>409.0</ele><time>2026-03-29T10:18:36.932Z</time></trkpt><trkpt lat="46.0661183" lon="8.6337183"><ele>404.6666666666667</ele><time>2026-03-29T10:18:37.932Z</time></trkpt><trkpt lat="46.0660533" lon="8.6334817"><ele>400.33333333333337</ele><time>2026-03-29T10:18:38.932Z</time></trkpt><trkpt lat="46.06598" lon="8.6332733"><ele>396.0</ele><time>2026-03-29T10:18:39.932Z</time></trkpt><trkpt lat="46.0659117" lon="8.6330917"><ele>396.0</ele><time>2026-03-29T10:18:40.932Z</time></trkpt><trkpt lat="46.065865" lon="8.6329333"><ele>396.0</ele><time>2026-03-29T10:18:41.932Z</time></trkpt><trkpt lat="46.0658" lon="8.632795"><ele>396.0</ele><time>2026-03-29T10:18:42.932Z</time></trkpt><trkpt lat="46.0657467" lon="8.6326933"><ele>396.0</ele><time>2026-03-29T10:18:43.932Z</time></trkpt><trkpt lat="46.0656983" lon="8.6325917"><ele>396.0</ele><time>2026-03-29T10:18:44.932Z</time></trkpt><trkpt lat="46.0656783" lon="8.6324883"><ele>396.20000000000005</ele><time>2026-03-29T10:18:45.932Z</time></trkpt><trkpt lat="46.0656817" lon="8.6323967"><ele>396.40000000000003</ele><time>2026-03-29T10:18:46.932Z</time></trkpt><trkpt lat="46.0657433" lon="8.632295"><ele>396.6</ele><time>2026-03-29T10:18:48.932Z</time></trkpt><trkpt lat="46.0658217" lon="8.6322717"><ele>396.8</ele><time>2026-03-29T10:18:49.931Z</time></trkpt><trkpt lat="46.065905" lon="8.632305"><ele>397.0</ele><time>2026-03-29T10:18:50.932Z</time></trkpt><trkpt lat="46.066035" lon="8.6323583"><ele>397.0</ele><time>2026-03-29T10:18:51.932Z</time></trkpt><trkpt lat="46.0661533" lon="8.6324067"><ele>397.0</ele><time>2026-03-29T10:18:52.932Z</time></trkpt><trkpt lat="46.0662467" lon="8.63237"><ele>397.0</ele><time>2026-03-29T10:18:53.932Z</time></trkpt><trkpt lat="46.0663483" lon="8.632295"><ele>397.0</ele><time>2026-03-29T10:18:54.931Z</time></trkpt><trkpt lat="46.06646" lon="8.6322033"><ele>397.0</ele><time>2026-03-29T10:18:55.932Z</time></trkpt><trkpt lat="46.0665567" lon="8.6320917"><ele>397.0</ele><time>2026-03-29T10:18:56.932Z</time></trkpt><trkpt lat="46.0666317" lon="8.6319667"><ele>397.0</ele><time>2026-03-29T10:18:57.931Z</time></trkpt><trkpt lat="46.066685" lon="8.6317967"><ele>397.0</ele><time>2026-03-29T10:18:58.931Z</time></trkpt><trkpt lat="46.06673" lon="8.6316183"><ele>393.6</ele><time>2026-03-29T10:18:59.932Z</time></trkpt><trkpt lat="46.0667417" lon="8.6314367"><ele>390.20000000000005</ele><time>2026-03-29T10:19:00.932Z</time></trkpt><trkpt lat="46.0667333" lon="8.6312767"><ele>386.8</ele><time>2026-03-29T10:19:01.931Z</time></trkpt><trkpt lat="46.06672" lon="8.6311333"><ele>383.4</ele><time>2026-03-29T10:19:02.932Z</time></trkpt><trkpt lat="46.0667017" lon="8.6309967"><ele>380.0</ele><time>2026-03-29T10:19:03.931Z</time></trkpt><trkpt lat="46.0666783" lon="8.6308617"><ele>379.8</ele><time>2026-03-29T10:19:04.932Z</time></trkpt><trkpt lat="46.0666617" lon="8.6307183"><ele>379.6</ele><time>2026-03-29T10:19:05.932Z</time></trkpt><trkpt lat="46.0666517" lon="8.6305617"><ele>379.4</ele><time>2026-03-29T10:19:06.931Z</time></trkpt><trkpt lat="46.0666583" lon="8.6304067"><ele>379.2</ele><time>2026-03-29T10:19:07.931Z</time></trkpt><trkpt lat="46.0666767" lon="8.6302467"><ele>379.0</ele><time>2026-03-29T10:19:08.932Z</time></trkpt><trkpt lat="46.066705" lon="8.6300967"><ele>378.16666666666663</ele><time>2026-03-29T10:19:09.932Z</time></trkpt><trkpt lat="46.0667433" lon="8.6299733"><ele>377.3333333333333</ele><time>2026-03-29T10:19:10.932Z</time></trkpt><trkpt lat="46.066775" lon="8.6298617"><ele>376.5</ele><time>2026-03-29T10:19:11.932Z</time></trkpt><trkpt lat="46.0668117" lon="8.6297583"><ele>375.6666666666667</ele><time>2026-03-29T10:19:12.932Z</time></trkpt><trkpt lat="46.0668333" lon="8.6296633"><ele>374.83333333333337</ele><time>2026-03-29T10:19:13.932Z</time></trkpt><trkpt lat="46.066865" lon="8.6295633"><ele>374.0</ele><time>2026-03-29T10:19:14.932Z</time></trkpt><trkpt lat="46.0668917" lon="8.6294683"><ele>372.79999999999995</ele><time>2026-03-29T10:19:15.932Z</time></trkpt><trkpt lat="46.0669183" lon="8.6293033"><ele>371.59999999999997</ele><time>2026-03-29T10:19:17.932Z</time></trkpt><trkpt lat="46.0668583" lon="8.6291967"><ele>370.4</ele><time>2026-03-29T10:19:19.932Z</time></trkpt><trkpt lat="46.0667333" lon="8.6292317"><ele>369.2</ele><time>2026-03-29T10:19:21.932Z</time></trkpt><trkpt lat="46.06666" lon="8.629275"><ele>368.0</ele><time>2026-03-29T10:19:22.931Z</time></trkpt><trkpt lat="46.0665917" lon="8.6293117"><ele>373.5</ele><time>2026-03-29T10:19:23.932Z</time></trkpt><trkpt lat="46.0665233" lon="8.6293217"><ele>379.0</ele><time>2026-03-29T10:19:24.932Z</time></trkpt><trkpt lat="46.0664583" lon="8.629295"><ele>384.5</ele><time>2026-03-29T10:19:25.932Z</time></trkpt><trkpt lat="46.0663967" lon="8.62923"><ele>390.0</ele><time>2026-03-29T10:19:26.932Z</time></trkpt><trkpt lat="46.066345" lon="8.6291317"><ele>395.49999999999994</ele><time>2026-03-29T10:19:27.932Z</time></trkpt><trkpt lat="46.0663117" lon="8.6290133"><ele>401.0</ele><time>2026-03-29T10:19:28.932Z</time></trkpt><trkpt lat="46.0663033" lon="8.628865"><ele>401.0</ele><time>2026-03-29T10:19:29.931Z</time></trkpt><trkpt lat="46.0663233" lon="8.6287117"><ele>401.0</ele><time>2026-03-29T10:19:30.932Z</time></trkpt><trkpt lat="46.066355" lon="8.6285833"><ele>401.0</ele><time>2026-03-29T10:19:31.931Z</time></trkpt><trkpt lat="46.066415" lon="8.6284567"><ele>401.0</ele><time>2026-03-29T10:19:32.932Z</time></trkpt><trkpt lat="46.0664783" lon="8.6283467"><ele>401.0</ele><time>2026-03-29T10:19:33.932Z</time></trkpt><trkpt lat="46.066545" lon="8.6282533"><ele>401.3333333333333</ele><time>2026-03-29T10:19:34.932Z</time></trkpt><trkpt lat="46.0666083" lon="8.628155"><ele>401.66666666666663</ele><time>2026-03-29T10:19:35.932Z</time></trkpt><trkpt lat="46.0666567" lon="8.6280583"><ele>402.0</ele><time>2026-03-29T10:19:36.932Z</time></trkpt><trkpt lat="46.0666733" lon="8.627955"><ele>402.33333333333337</ele><time>2026-03-29T10:19:37.932Z</time></trkpt><trkpt lat="46.06667" lon="8.6278583"><ele>402.6666666666667</ele><time>2026-03-29T10:19:38.932Z</time></trkpt><trkpt lat="46.0666417" lon="8.6277617"><ele>403.0</ele><time>2026-03-29T10:19:39.932Z</time></trkpt><trkpt lat="46.0665983" lon="8.6276633"><ele>403.4</ele><time>2026-03-29T10:19:40.932Z</time></trkpt><trkpt lat="46.066565" lon="8.6275467"><ele>403.79999999999995</ele><time>2026-03-29T10:19:41.931Z</time></trkpt><trkpt lat="46.0665367" lon="8.627415"><ele>404.2</ele><time>2026-03-29T10:19:42.932Z</time></trkpt><trkpt lat="46.0665433" lon="8.6272567"><ele>404.6</ele><time>2026-03-29T10:19:43.932Z</time></trkpt><trkpt lat="46.0665633" lon="8.6271033"><ele>405.0</ele><time>2026-03-29T10:19:44.931Z</time></trkpt><trkpt lat="46.0665783" lon="8.626925"><ele>407.25</ele><time>2026-03-29T10:19:45.931Z</time></trkpt><trkpt lat="46.0665683" lon="8.626735"><ele>409.5</ele><time>2026-03-29T10:19:46.932Z</time></trkpt><trkpt lat="46.0665383" lon="8.6265533"><ele>411.75</ele><time>2026-03-29T10:19:47.932Z</time></trkpt><trkpt lat="46.0665017" lon="8.6263717"><ele>414.0</ele><time>2026-03-29T10:19:48.931Z</time></trkpt><trkpt lat="46.06646" lon="8.62619"><ele>413.75</ele><time>2026-03-29T10:19:49.932Z</time></trkpt><trkpt lat="46.0664267" lon="8.6260033"><ele>413.5</ele><time>2026-03-29T10:19:50.932Z</time></trkpt><trkpt lat="46.0664017" lon="8.625825"><ele>413.25</ele><time>2026-03-29T10:19:51.932Z</time></trkpt><trkpt lat="46.0663933" lon="8.6256617"><ele>413.0</ele><time>2026-03-29T10:19:52.932Z</time></trkpt><trkpt lat="46.0664267" lon="8.625495"><ele>413.0</ele><time>2026-03-29T10:19:53.932Z</time></trkpt><trkpt lat="46.06648" lon="8.62534"><ele>413.0</ele><time>2026-03-29T10:19:54.932Z</time></trkpt><trkpt lat="46.066525" lon="8.6251933"><ele>413.0</ele><time>2026-03-29T10:19:55.931Z</time></trkpt><trkpt lat="46.0665633" lon="8.6250783"><ele>413.0</ele><time>2026-03-29T10:19:56.932Z</time></trkpt><trkpt lat="46.066605" lon="8.62499"><ele>413.0</ele><time>2026-03-29T10:19:57.932Z</time></trkpt><trkpt lat="46.0666517" lon="8.6249033"><ele>407.59999999999997</ele><time>2026-03-29T10:19:58.932Z</time></trkpt><trkpt lat="46.0667233" lon="8.6248333"><ele>402.2</ele><time>2026-03-29T10:19:59.931Z</time></trkpt><trkpt lat="46.0668083" lon="8.6247633"><ele>396.8</ele><time>2026-03-29T10:20:00.932Z</time></trkpt><trkpt lat="46.06692" lon="8.6247267"><ele>391.4</ele><time>2026-03-29T10:20:01.932Z</time></trkpt><trkpt lat="46.067035" lon="8.6246867"><ele>386.0</ele><time>2026-03-29T10:20:02.932Z</time></trkpt><trkpt lat="46.0671283" lon="8.6246267"><ele>386.0</ele><time>2026-03-29T10:20:03.932Z</time></trkpt><trkpt lat="46.0672" lon="8.6245333"><ele>386.0</ele><time>2026-03-29T10:20:04.932Z</time></trkpt><trkpt lat="46.0672433" lon="8.624395"><ele>386.0</ele><time>2026-03-29T10:20:05.932Z</time></trkpt><trkpt lat="46.0672833" lon="8.6242133"><ele>386.0</ele><time>2026-03-29T10:20:06.932Z</time></trkpt><trkpt lat="46.0673333" lon="8.6240367"><ele>385.5</ele><time>2026-03-29T10:20:07.932Z</time></trkpt><trkpt lat="46.0674117" lon="8.6238767"><ele>385.0</ele><time>2026-03-29T10:20:08.931Z</time></trkpt><trkpt lat="46.0675067" lon="8.6236983"><ele>384.5</ele><time>2026-03-29T10:20:09.932Z</time></trkpt><trkpt lat="46.0676083" lon="8.6235283"><ele>384.0</ele><time>2026-03-29T10:20:10.931Z</time></trkpt><trkpt lat="46.0676967" lon="8.6233533"><ele>384.0</ele><time>2026-03-29T10:20:11.932Z</time></trkpt><trkpt lat="46.0677667" lon="8.6231483"><ele>384.0</ele><time>2026-03-29T10:20:12.932Z</time></trkpt><trkpt lat="46.0678117" lon="8.6229217"><ele>384.0</ele><time>2026-03-29T10:20:13.932Z</time></trkpt><trkpt lat="46.06786" lon="8.622655"><ele>384.0</ele><time>2026-03-29T10:20:14.931Z</time></trkpt><trkpt lat="46.067925" lon="8.622405"><ele>384.0</ele><time>2026-03-29T10:20:15.932Z</time></trkpt><trkpt lat="46.0680017" lon="8.6221917"><ele>384.0</ele><time>2026-03-29T10:20:16.931Z</time></trkpt><trkpt lat="46.06806" lon="8.6219533"><ele>384.0</ele><time>2026-03-29T10:20:17.931Z</time></trkpt><trkpt lat="46.0680983" lon="8.6217083"><ele>384.0</ele><time>2026-03-29T10:20:18.931Z</time></trkpt><trkpt lat="46.0681283" lon="8.6214783"><ele>384.0</ele><time>2026-03-29T10:20:19.931Z</time></trkpt><trkpt lat="46.06816" lon="8.6212517"><ele>386.25</ele><time>2026-03-29T10:20:20.931Z</time></trkpt><trkpt lat="46.0681883" lon="8.6210483"><ele>388.5</ele><time>2026-03-29T10:20:21.931Z</time></trkpt><trkpt lat="46.0681883" lon="8.6208633"><ele>390.75</ele><time>2026-03-29T10:20:22.931Z</time></trkpt><trkpt lat="46.0681633" lon="8.6206833"><ele>393.0</ele><time>2026-03-29T10:20:23.931Z</time></trkpt><trkpt lat="46.0681083" lon="8.620495"><ele>392.0</ele><time>2026-03-29T10:20:24.93Z</time></trkpt><trkpt lat="46.06802" lon="8.620305"><ele>391.0</ele><time>2026-03-29T10:20:25.931Z</time></trkpt><trkpt lat="46.0679517" lon="8.6201117"><ele>390.0</ele><time>2026-03-29T10:20:26.931Z</time></trkpt><trkpt lat="46.067885" lon="8.6199317"><ele>390.0</ele><time>2026-03-29T10:20:27.931Z</time></trkpt><trkpt lat="46.0678217" lon="8.6197633"><ele>390.0</ele><time>2026-03-29T10:20:28.931Z</time></trkpt><trkpt lat="46.06778" lon="8.6195883"><ele>390.0</ele><time>2026-03-29T10:20:29.931Z</time></trkpt><trkpt lat="46.067755" lon="8.6193933"><ele>390.0</ele><time>2026-03-29T10:20:30.931Z</time></trkpt><trkpt lat="46.0677283" lon="8.6192067"><ele>388.75</ele><time>2026-03-29T10:20:31.931Z</time></trkpt><trkpt lat="46.0677333" lon="8.6190017"><ele>387.5</ele><time>2026-03-29T10:20:32.931Z</time></trkpt><trkpt lat="46.0677483" lon="8.6188067"><ele>386.25</ele><time>2026-03-29T10:20:33.931Z</time></trkpt><trkpt lat="46.0677683" lon="8.6186317"><ele>385.0</ele><time>2026-03-29T10:20:34.931Z</time></trkpt><trkpt lat="46.0678083" lon="8.6184583"><ele>384.6666666666667</ele><time>2026-03-29T10:20:35.931Z</time></trkpt><trkpt lat="46.0678683" lon="8.618265"><ele>384.33333333333337</ele><time>2026-03-29T10:20:36.931Z</time></trkpt><trkpt lat="46.06794" lon="8.6180683"><ele>384.0</ele><time>2026-03-29T10:20:37.931Z</time></trkpt><trkpt lat="46.068" lon="8.6178617"><ele>383.0</ele><time>2026-03-29T10:20:38.931Z</time></trkpt><trkpt lat="46.0680533" lon="8.6176783"><ele>382.0</ele><time>2026-03-29T10:20:39.931Z</time></trkpt><trkpt lat="46.0681067" lon="8.617525"><ele>381.0</ele><time>2026-03-29T10:20:40.931Z</time></trkpt><trkpt lat="46.06818" lon="8.61739"><ele>380.0</ele><time>2026-03-29T10:20:41.931Z</time></trkpt><trkpt lat="46.0682633" lon="8.6172917"><ele>383.5</ele><time>2026-03-29T10:20:42.931Z</time></trkpt><trkpt lat="46.0683733" lon="8.617195"><ele>387.0</ele><time>2026-03-29T10:20:43.931Z</time></trkpt><trkpt lat="46.0684933" lon="8.6171083"><ele>390.5</ele><time>2026-03-29T10:20:44.93Z</time></trkpt><trkpt lat="46.0686317" lon="8.6170483"><ele>394.0</ele><time>2026-03-29T10:20:45.931Z</time></trkpt><trkpt lat="46.0687617" lon="8.6169967"><ele>394.0</ele><time>2026-03-29T10:20:46.931Z</time></trkpt><trkpt lat="46.0688867" lon="8.6169933"><ele>394.0</ele><time>2026-03-29T10:20:47.931Z</time></trkpt><trkpt lat="46.068995" lon="8.6169383"><ele>394.0</ele><time>2026-03-29T10:20:48.931Z</time></trkpt><trkpt lat="46.0690817" lon="8.6168833"><ele>394.0</ele><time>2026-03-29T10:20:49.931Z</time></trkpt><trkpt lat="46.069135" lon="8.61679"><ele>394.0</ele><time>2026-03-29T10:20:50.931Z</time></trkpt><trkpt lat="46.06915" lon="8.616665"><ele>391.79999999999995</ele><time>2026-03-29T10:20:51.931Z</time></trkpt><trkpt lat="46.06914" lon="8.6165317"><ele>389.59999999999997</ele><time>2026-03-29T10:20:52.931Z</time></trkpt><trkpt lat="46.0691067" lon="8.6164117"><ele>387.4</ele><time>2026-03-29T10:20:53.931Z</time></trkpt><trkpt lat="46.06903" lon="8.616305"><ele>385.2</ele><time>2026-03-29T10:20:54.931Z</time></trkpt><trkpt lat="46.0689367" lon="8.6162317"><ele>383.0</ele><time>2026-03-29T10:20:55.931Z</time></trkpt><trkpt lat="46.068835" lon="8.6161517"><ele>383.0</ele><time>2026-03-29T10:20:56.93Z</time></trkpt><trkpt lat="46.068735" lon="8.6160833"><ele>383.0</ele><time>2026-03-29T10:20:57.931Z</time></trkpt><trkpt lat="46.068665" lon="8.615975"><ele>383.0</ele><time>2026-03-29T10:20:58.931Z</time></trkpt><trkpt lat="46.0686483" lon="8.61584"><ele>383.0</ele><time>2026-03-29T10:20:59.93Z</time></trkpt><trkpt lat="46.06865" lon="8.6157117"><ele>383.0</ele><time>2026-03-29T10:21:00.931Z</time></trkpt><trkpt lat="46.0686717" lon="8.6155617"><ele>383.0</ele><time>2026-03-29T10:21:01.931Z</time></trkpt><trkpt lat="46.06871" lon="8.6154317"><ele>383.0</ele><time>2026-03-29T10:21:02.93Z</time></trkpt><trkpt lat="46.068775" lon="8.6152967"><ele>383.0</ele><time>2026-03-29T10:21:03.931Z</time></trkpt><trkpt lat="46.06886" lon="8.6151967"><ele>383.0</ele><time>2026-03-29T10:21:04.931Z</time></trkpt><trkpt lat="46.06895" lon="8.615145"><ele>383.0</ele><time>2026-03-29T10:21:05.931Z</time></trkpt><trkpt lat="46.0690533" lon="8.6150967"><ele>384.79999999999995</ele><time>2026-03-29T10:21:06.931Z</time></trkpt><trkpt lat="46.0691533" lon="8.6150667"><ele>386.6</ele><time>2026-03-29T10:21:07.931Z</time></trkpt><trkpt lat="46.069265" lon="8.615045"><ele>388.4</ele><time>2026-03-29T10:21:08.931Z</time></trkpt><trkpt lat="46.0693733" lon="8.6149933"><ele>390.20000000000005</ele><time>2026-03-29T10:21:09.931Z</time></trkpt><trkpt lat="46.0694433" lon="8.614905"><ele>392.0</ele><time>2026-03-29T10:21:10.931Z</time></trkpt><trkpt lat="46.0695117" lon="8.6148167"><ele>392.0</ele><time>2026-03-29T10:21:11.931Z</time></trkpt><trkpt lat="46.069565" lon="8.6146733"><ele>392.0</ele><time>2026-03-29T10:21:12.931Z</time></trkpt><trkpt lat="46.0696183" lon="8.614535"><ele>392.0</ele><time>2026-03-29T10:21:13.931Z</time></trkpt><trkpt lat="46.0696667" lon="8.6143983"><ele>392.0</ele><time>2026-03-29T10:21:14.931Z</time></trkpt><trkpt lat="46.0697367" lon="8.6143133"><ele>392.0</ele><time>2026-03-29T10:21:15.931Z</time></trkpt><trkpt lat="46.0697917" lon="8.6142367"><ele>391.40000000000003</ele><time>2026-03-29T10:21:16.931Z</time></trkpt><trkpt lat="46.0698383" lon="8.6141383"><ele>390.8</ele><time>2026-03-29T10:21:17.931Z</time></trkpt><trkpt lat="46.069875" lon="8.6140117"><ele>390.2</ele><time>2026-03-29T10:21:18.931Z</time></trkpt><trkpt lat="46.0698733" lon="8.613885"><ele>389.6</ele><time>2026-03-29T10:21:19.931Z</time></trkpt><trkpt lat="46.0698483" lon="8.6137467"><ele>389.0</ele><time>2026-03-29T10:21:20.931Z</time></trkpt><trkpt lat="46.0697933" lon="8.61361"><ele>389.0</ele><time>2026-03-29T10:21:21.93Z</time></trkpt><trkpt lat="46.0697733" lon="8.61346"><ele>389.0</ele><time>2026-03-29T10:21:22.931Z</time></trkpt><trkpt lat="46.06977" lon="8.61332"><ele>389.0</ele><time>2026-03-29T10:21:23.931Z</time></trkpt><trkpt lat="46.0697967" lon="8.6131567"><ele>389.0</ele><time>2026-03-29T10:21:24.931Z</time></trkpt><trkpt lat="46.069835" lon="8.61297"><ele>394.3333333333333</ele><time>2026-03-29T10:21:25.931Z</time></trkpt><trkpt lat="46.0698883" lon="8.6127783"><ele>399.66666666666663</ele><time>2026-03-29T10:21:26.931Z</time></trkpt><trkpt lat="46.06995" lon="8.6125667"><ele>405.0</ele><time>2026-03-29T10:21:27.93Z</time></trkpt><trkpt lat="46.0700333" lon="8.6123467"><ele>404.25</ele><time>2026-03-29T10:21:28.93Z</time></trkpt><trkpt lat="46.070095" lon="8.6121517"><ele>403.5</ele><time>2026-03-29T10:21:29.931Z</time></trkpt><trkpt lat="46.0701383" lon="8.6119717"><ele>402.75</ele><time>2026-03-29T10:21:30.931Z</time></trkpt><trkpt lat="46.0701583" lon="8.6117983"><ele>402.0</ele><time>2026-03-29T10:21:31.931Z</time></trkpt><trkpt lat="46.07017" lon="8.6116317"><ele>402.0</ele><time>2026-03-29T10:21:32.93Z</time></trkpt><trkpt lat="46.0701917" lon="8.6114633"><ele>402.0</ele><time>2026-03-29T10:21:33.931Z</time></trkpt><trkpt lat="46.0702383" lon="8.6112833"><ele>402.0</ele><time>2026-03-29T10:21:34.931Z</time></trkpt><trkpt lat="46.0703067" lon="8.6111283"><ele>402.0</ele><time>2026-03-29T10:21:35.931Z</time></trkpt><trkpt lat="46.070345" lon="8.6109683"><ele>401.8</ele><time>2026-03-29T10:21:36.931Z</time></trkpt><trkpt lat="46.0703617" lon="8.610815"><ele>401.6</ele><time>2026-03-29T10:21:37.931Z</time></trkpt><trkpt lat="46.0703617" lon="8.610665"><ele>401.40000000000003</ele><time>2026-03-29T10:21:38.931Z</time></trkpt><trkpt lat="46.0703633" lon="8.610495"><ele>401.20000000000005</ele><time>2026-03-29T10:21:39.93Z</time></trkpt><trkpt lat="46.0703783" lon="8.61034"><ele>401.0</ele><time>2026-03-29T10:21:40.931Z</time></trkpt><trkpt lat="46.0704233" lon="8.6101733"><ele>402.0</ele><time>2026-03-29T10:21:41.931Z</time></trkpt><trkpt lat="46.0704833" lon="8.6100017"><ele>403.0</ele><time>2026-03-29T10:21:42.931Z</time></trkpt><trkpt lat="46.0705717" lon="8.6098217"><ele>404.0</ele><time>2026-03-29T10:21:43.931Z</time></trkpt><trkpt lat="46.0706783" lon="8.6096217"><ele>406.3333333333333</ele><time>2026-03-29T10:21:44.931Z</time></trkpt><trkpt lat="46.0707867" lon="8.6094233"><ele>408.66666666666663</ele><time>2026-03-29T10:21:45.931Z</time></trkpt><trkpt lat="46.0709" lon="8.6092467"><ele>411.0</ele><time>2026-03-29T10:21:46.931Z</time></trkpt><trkpt lat="46.0710067" lon="8.609055"><ele>411.0</ele><time>2026-03-29T10:21:47.931Z</time></trkpt><trkpt lat="46.0711017" lon="8.6088717"><ele>411.0</ele><time>2026-03-29T10:21:48.931Z</time></trkpt><trkpt lat="46.0711783" lon="8.6086733"><ele>411.0</ele><time>2026-03-29T10:21:49.931Z</time></trkpt><trkpt lat="46.07123" lon="8.608485"><ele>407.75</ele><time>2026-03-29T10:21:50.931Z</time></trkpt><trkpt lat="46.0712633" lon="8.6082867"><ele>404.5</ele><time>2026-03-29T10:21:51.931Z</time></trkpt><trkpt lat="46.071285" lon="8.60808"><ele>401.25</ele><time>2026-03-29T10:21:52.931Z</time></trkpt><trkpt lat="46.0713133" lon="8.607885"><ele>398.0</ele><time>2026-03-29T10:21:53.931Z</time></trkpt><trkpt lat="46.071335" lon="8.6076883"><ele>398.0</ele><time>2026-03-29T10:21:54.93Z</time></trkpt><trkpt lat="46.0713783" lon="8.6075167"><ele>398.0</ele><time>2026-03-29T10:21:55.93Z</time></trkpt><trkpt lat="46.07141" lon="8.60737"><ele>398.0</ele><time>2026-03-29T10:21:56.931Z</time></trkpt><trkpt lat="46.071455" lon="8.60722"><ele>398.0</ele><time>2026-03-29T10:21:57.931Z</time></trkpt><trkpt lat="46.0714967" lon="8.607075"><ele>400.59999999999997</ele><time>2026-03-29T10:21:58.931Z</time></trkpt><trkpt lat="46.0715433" lon="8.6069433"><ele>403.2</ele><time>2026-03-29T10:21:59.931Z</time></trkpt><trkpt lat="46.0715983" lon="8.6068083"><ele>405.8</ele><time>2026-03-29T10:22:00.931Z</time></trkpt><trkpt lat="46.07166" lon="8.6067017"><ele>408.4</ele><time>2026-03-29T10:22:01.931Z</time></trkpt><trkpt lat="46.07173" lon="8.6065817"><ele>411.0</ele><time>2026-03-29T10:22:02.931Z</time></trkpt><trkpt lat="46.0717867" lon="8.6064567"><ele>411.20000000000005</ele><time>2026-03-29T10:22:03.931Z</time></trkpt><trkpt lat="46.071815" lon="8.60632"><ele>411.40000000000003</ele><time>2026-03-29T10:22:04.931Z</time></trkpt><trkpt lat="46.071825" lon="8.6061667"><ele>411.6</ele><time>2026-03-29T10:22:05.931Z</time></trkpt><trkpt lat="46.0718233" lon="8.6060117"><ele>411.8</ele><time>2026-03-29T10:22:06.931Z</time></trkpt><trkpt lat="46.071845" lon="8.6058767"><ele>412.0</ele><time>2026-03-29T10:22:07.931Z</time></trkpt><trkpt lat="46.0718817" lon="8.6057517"><ele>412.50000000000006</ele><time>2026-03-29T10:22:08.931Z</time></trkpt><trkpt lat="46.071915" lon="8.6056483"><ele>413.0</ele><time>2026-03-29T10:22:09.931Z</time></trkpt><trkpt lat="46.0719283" lon="8.6055017"><ele>413.5</ele><time>2026-03-29T10:22:11.931Z</time></trkpt><trkpt lat="46.0718517" lon="8.605385"><ele>414.0</ele><time>2026-03-29T10:22:13.93Z</time></trkpt><trkpt lat="46.0717967" lon="8.6053217"><ele>414.50000000000006</ele><time>2026-03-29T10:22:14.931Z</time></trkpt><trkpt lat="46.0717517" lon="8.6052433"><ele>415.0</ele><time>2026-03-29T10:22:15.93Z</time></trkpt><trkpt lat="46.0717233" lon="8.6051317"><ele>418.25</ele><time>2026-03-29T10:22:16.931Z</time></trkpt><trkpt lat="46.071715" lon="8.60499"><ele>421.5</ele><time>2026-03-29T10:22:17.931Z</time></trkpt><trkpt lat="46.0717283" lon="8.6048283"><ele>424.75</ele><time>2026-03-29T10:22:18.931Z</time></trkpt><trkpt lat="46.0717567" lon="8.6046167"><ele>428.0</ele><time>2026-03-29T10:22:19.931Z</time></trkpt><trkpt lat="46.0718183" lon="8.60437"><ele>430.66666666666663</ele><time>2026-03-29T10:22:20.93Z</time></trkpt><trkpt lat="46.07185" lon="8.60413"><ele>433.33333333333337</ele><time>2026-03-29T10:22:21.931Z</time></trkpt><trkpt lat="46.0718667" lon="8.60385"><ele>436.0</ele><time>2026-03-29T10:22:22.931Z</time></trkpt><trkpt lat="46.0718967" lon="8.60365"><ele>436.25</ele><time>2026-03-29T10:22:23.931Z</time></trkpt><trkpt lat="46.0719267" lon="8.603475"><ele>436.5</ele><time>2026-03-29T10:22:24.931Z</time></trkpt><trkpt lat="46.0719917" lon="8.6033283"><ele>436.75</ele><time>2026-03-29T10:22:25.931Z</time></trkpt><trkpt lat="46.0720783" lon="8.6031883"><ele>437.0</ele><time>2026-03-29T10:22:26.931Z</time></trkpt><trkpt lat="46.07219" lon="8.603085"><ele>437.0</ele><time>2026-03-29T10:22:27.93Z</time></trkpt><trkpt lat="46.0723083" lon="8.602985"><ele>437.0</ele><time>2026-03-29T10:22:28.931Z</time></trkpt><trkpt lat="46.072425" lon="8.6028683"><ele>437.0</ele><time>2026-03-29T10:22:29.931Z</time></trkpt><trkpt lat="46.072535" lon="8.6027533"><ele>437.0</ele><time>2026-03-29T10:22:30.931Z</time></trkpt><trkpt lat="46.072645" lon="8.6026233"><ele>434.5</ele><time>2026-03-29T10:22:31.931Z</time></trkpt><trkpt lat="46.0727283" lon="8.6024933"><ele>432.0</ele><time>2026-03-29T10:22:32.931Z</time></trkpt><trkpt lat="46.0728" lon="8.6023483"><ele>429.5</ele><time>2026-03-29T10:22:33.931Z</time></trkpt><trkpt lat="46.0728617" lon="8.6022133"><ele>427.0</ele><time>2026-03-29T10:22:34.931Z</time></trkpt><trkpt lat="46.0729133" lon="8.6020967"><ele>427.0</ele><time>2026-03-29T10:22:35.931Z</time></trkpt><trkpt lat="46.0729717" lon="8.602005"><ele>427.00000000000006</ele><time>2026-03-29T10:22:36.931Z</time></trkpt><trkpt lat="46.07309" lon="8.60192"><ele>427.00000000000006</ele><time>2026-03-29T10:22:38.931Z</time></trkpt><trkpt lat="46.07316" lon="8.601885"><ele>427.0</ele><time>2026-03-29T10:22:39.931Z</time></trkpt><trkpt lat="46.0732467" lon="8.6018317"><ele>427.0</ele><time>2026-03-29T10:22:40.931Z</time></trkpt><trkpt lat="46.0733283" lon="8.6017683"><ele>426.5</ele><time>2026-03-29T10:22:41.931Z</time></trkpt><trkpt lat="46.0734267" lon="8.60172"><ele>426.0</ele><time>2026-03-29T10:22:42.931Z</time></trkpt><trkpt lat="46.0735383" lon="8.601695"><ele>425.5</ele><time>2026-03-29T10:22:43.931Z</time></trkpt><trkpt lat="46.07366" lon="8.6017017"><ele>425.0</ele><time>2026-03-29T10:22:44.931Z</time></trkpt><trkpt lat="46.0737733" lon="8.6017317"><ele>425.0</ele><time>2026-03-29T10:22:45.931Z</time></trkpt><trkpt lat="46.0738783" lon="8.6017733"><ele>425.0</ele><time>2026-03-29T10:22:46.931Z</time></trkpt><trkpt lat="46.0739667" lon="8.6018433"><ele>425.0</ele><time>2026-03-29T10:22:47.931Z</time></trkpt><trkpt lat="46.0740483" lon="8.60192"><ele>425.0</ele><time>2026-03-29T10:22:48.931Z</time></trkpt><trkpt lat="46.0741317" lon="8.6020333"><ele>425.0</ele><time>2026-03-29T10:22:49.931Z</time></trkpt><trkpt lat="46.0741867" lon="8.6021783"><ele>432.2</ele><time>2026-03-29T10:22:50.93Z</time></trkpt><trkpt lat="46.0742417" lon="8.6023033"><ele>439.4</ele><time>2026-03-29T10:22:51.93Z</time></trkpt><trkpt lat="46.0743" lon="8.6024067"><ele>446.6</ele><time>2026-03-29T10:22:52.931Z</time></trkpt><trkpt lat="46.0743667" lon="8.6025067"><ele>453.8</ele><time>2026-03-29T10:22:53.931Z</time></trkpt><trkpt lat="46.0744533" lon="8.6025817"><ele>461.0</ele><time>2026-03-29T10:22:54.93Z</time></trkpt><trkpt lat="46.0745517" lon="8.6026367"><ele>461.0</ele><time>2026-03-29T10:22:55.931Z</time></trkpt><trkpt lat="46.0746567" lon="8.6026617"><ele>461.0</ele><time>2026-03-29T10:22:56.93Z</time></trkpt><trkpt lat="46.0747617" lon="8.6026533"><ele>461.0</ele><time>2026-03-29T10:22:57.931Z</time></trkpt><trkpt lat="46.0748567" lon="8.602615"><ele>461.0</ele><time>2026-03-29T10:22:58.931Z</time></trkpt><trkpt lat="46.0749533" lon="8.60257"><ele>461.0</ele><time>2026-03-29T10:22:59.93Z</time></trkpt><trkpt lat="46.0750333" lon="8.6025117"><ele>457.20000000000005</ele><time>2026-03-29T10:23:00.93Z</time></trkpt><trkpt lat="46.0750983" lon="8.60245"><ele>453.40000000000003</ele><time>2026-03-29T10:23:01.931Z</time></trkpt><trkpt lat="46.0751633" lon="8.6023333"><ele>449.6</ele><time>2026-03-29T10:23:03.931Z</time></trkpt><trkpt lat="46.0751567" lon="8.6021567"><ele>445.8</ele><time>2026-03-29T10:23:05.931Z</time></trkpt><trkpt lat="46.0751617" lon="8.6020367"><ele>442.0</ele><time>2026-03-29T10:23:06.931Z</time></trkpt><trkpt lat="46.0751633" lon="8.6019"><ele>441.1666666666667</ele><time>2026-03-29T10:23:07.931Z</time></trkpt><trkpt lat="46.0751783" lon="8.60178"><ele>440.33333333333337</ele><time>2026-03-29T10:23:08.931Z</time></trkpt><trkpt lat="46.0751933" lon="8.6016817"><ele>439.5</ele><time>2026-03-29T10:23:09.931Z</time></trkpt><trkpt lat="46.07521" lon="8.6015883"><ele>438.66666666666663</ele><time>2026-03-29T10:23:10.931Z</time></trkpt><trkpt lat="46.075255" lon="8.6015217"><ele>437.8333333333333</ele><time>2026-03-29T10:23:11.931Z</time></trkpt><trkpt lat="46.0753183" lon="8.6014917"><ele>437.0</ele><time>2026-03-29T10:23:12.931Z</time></trkpt><trkpt lat="46.0755033" lon="8.60152"><ele>437.0</ele><time>2026-03-29T10:23:14.931Z</time></trkpt><trkpt lat="46.0756167" lon="8.601515"><ele>437.0</ele><time>2026-03-29T10:23:15.931Z</time></trkpt><trkpt lat="46.0757283" lon="8.6015083"><ele>437.0</ele><time>2026-03-29T10:23:16.931Z</time></trkpt><trkpt lat="46.0758183" lon="8.601435"><ele>437.0</ele><time>2026-03-29T10:23:17.931Z</time></trkpt><trkpt lat="46.0759867" lon="8.601225"><ele>443.6</ele><time>2026-03-29T10:23:19.931Z</time></trkpt><trkpt lat="46.0760683" lon="8.6010883"><ele>450.20000000000005</ele><time>2026-03-29T10:23:20.931Z</time></trkpt><trkpt lat="46.07615" lon="8.6009717"><ele>456.8</ele><time>2026-03-29T10:23:21.931Z</time></trkpt><trkpt lat="46.0762267" lon="8.6008767"><ele>463.4</ele><time>2026-03-29T10:23:22.931Z</time></trkpt><trkpt lat="46.0763033" lon="8.6008033"><ele>470.0</ele><time>2026-03-29T10:23:23.931Z</time></trkpt><trkpt lat="46.0763867" lon="8.6007567"><ele>470.0</ele><time>2026-03-29T10:23:24.93Z</time></trkpt><trkpt lat="46.07649" lon="8.6007283"><ele>470.0</ele><time>2026-03-29T10:23:25.93Z</time></trkpt><trkpt lat="46.0765983" lon="8.600685"><ele>470.0</ele><time>2026-03-29T10:23:26.931Z</time></trkpt><trkpt lat="46.076725" lon="8.600615"><ele>470.0</ele><time>2026-03-29T10:23:27.93Z</time></trkpt><trkpt lat="46.0768617" lon="8.6005283"><ele>479.0</ele><time>2026-03-29T10:23:28.931Z</time></trkpt><trkpt lat="46.0770167" lon="8.6004233"><ele>488.0</ele><time>2026-03-29T10:23:29.931Z</time></trkpt><trkpt lat="46.077325" lon="8.6001983"><ele>479.0</ele><time>2026-03-29T10:23:31.93Z</time></trkpt><trkpt lat="46.0774683" lon="8.600105"><ele>470.0</ele><time>2026-03-29T10:23:32.93Z</time></trkpt><trkpt lat="46.077595" lon="8.60004"><ele>461.0</ele><time>2026-03-29T10:23:33.93Z</time></trkpt><trkpt lat="46.0777183" lon="8.59997"><ele>452.0</ele><time>2026-03-29T10:23:34.929Z</time></trkpt><trkpt lat="46.0778233" lon="8.5998783"><ele>452.0</ele><time>2026-03-29T10:23:35.93Z</time></trkpt><trkpt lat="46.0779133" lon="8.5997767"><ele>452.0</ele><time>2026-03-29T10:23:36.929Z</time></trkpt><trkpt lat="46.0780017" lon="8.5996417"><ele>452.0</ele><time>2026-03-29T10:23:37.929Z</time></trkpt><trkpt lat="46.07808" lon="8.599465"><ele>452.0</ele><time>2026-03-29T10:23:38.93Z</time></trkpt><trkpt lat="46.0781617" lon="8.59929"><ele>452.25</ele><time>2026-03-29T10:23:39.93Z</time></trkpt><trkpt lat="46.07825" lon="8.5991233"><ele>452.5</ele><time>2026-03-29T10:23:40.929Z</time></trkpt><trkpt lat="46.0783417" lon="8.5989667"><ele>452.75</ele><time>2026-03-29T10:23:41.93Z</time></trkpt><trkpt lat="46.0784417" lon="8.5988383"><ele>453.0</ele><time>2026-03-29T10:23:42.93Z</time></trkpt><trkpt lat="46.0785683" lon="8.598725"><ele>462.5</ele><time>2026-03-29T10:23:43.93Z</time></trkpt><trkpt lat="46.0787033" lon="8.59862"><ele>472.0</ele><time>2026-03-29T10:23:44.93Z</time></trkpt><trkpt lat="46.07884" lon="8.5985317"><ele>481.5</ele><time>2026-03-29T10:23:45.93Z</time></trkpt><trkpt lat="46.0789683" lon="8.59846"><ele>491.0</ele><time>2026-03-29T10:23:46.93Z</time></trkpt><trkpt lat="46.0791017" lon="8.5983967"><ele>491.0</ele><time>2026-03-29T10:23:47.93Z</time></trkpt><trkpt lat="46.07923" lon="8.5983617"><ele>491.0</ele><time>2026-03-29T10:23:48.93Z</time></trkpt><trkpt lat="46.0793267" lon="8.59837"><ele>491.0</ele><time>2026-03-29T10:23:49.93Z</time></trkpt><trkpt lat="46.079425" lon="8.59842"><ele>491.0</ele><time>2026-03-29T10:23:50.93Z</time></trkpt><trkpt lat="46.07953" lon="8.598475"><ele>491.0</ele><time>2026-03-29T10:23:51.929Z</time></trkpt><trkpt lat="46.0796417" lon="8.5985783"><ele>485.0</ele><time>2026-03-29T10:23:52.93Z</time></trkpt><trkpt lat="46.0797617" lon="8.5987517"><ele>479.0</ele><time>2026-03-29T10:23:53.929Z</time></trkpt><trkpt lat="46.0798867" lon="8.5989217"><ele>473.0</ele><time>2026-03-29T10:23:54.93Z</time></trkpt><trkpt lat="46.08002" lon="8.5990633"><ele>473.0</ele><time>2026-03-29T10:23:55.93Z</time></trkpt><trkpt lat="46.0801517" lon="8.5991883"><ele>473.0</ele><time>2026-03-29T10:23:56.93Z</time></trkpt><trkpt lat="46.0804483" lon="8.5994033"><ele>469.0</ele><time>2026-03-29T10:23:58.93Z</time></trkpt><trkpt lat="46.0805783" lon="8.5995283"><ele>465.0</ele><time>2026-03-29T10:23:59.93Z</time></trkpt><trkpt lat="46.08071" lon="8.5996767"><ele>461.0</ele><time>2026-03-29T10:24:00.93Z</time></trkpt><trkpt lat="46.080845" lon="8.599815"><ele>460.3333333333333</ele><time>2026-03-29T10:24:01.93Z</time></trkpt><trkpt lat="46.0809783" lon="8.5999383"><ele>459.66666666666663</ele><time>2026-03-29T10:24:02.93Z</time></trkpt><trkpt lat="46.0811083" lon="8.6000417"><ele>459.0</ele><time>2026-03-29T10:24:03.93Z</time></trkpt><trkpt lat="46.0812483" lon="8.600125"><ele>459.0</ele><time>2026-03-29T10:24:04.93Z</time></trkpt><trkpt lat="46.0813967" lon="8.6002067"><ele>459.0</ele><time>2026-03-29T10:24:05.93Z</time></trkpt><trkpt lat="46.0815433" lon="8.60027"><ele>459.0</ele><time>2026-03-29T10:24:06.929Z</time></trkpt><trkpt lat="46.0817133" lon="8.6002883"><ele>468.33333333333337</ele><time>2026-03-29T10:24:07.93Z</time></trkpt><trkpt lat="46.08188" lon="8.6002883"><ele>477.6666666666667</ele><time>2026-03-29T10:24:08.93Z</time></trkpt><trkpt lat="46.0820283" lon="8.6002517"><ele>487.0</ele><time>2026-03-29T10:24:09.93Z</time></trkpt><trkpt lat="46.0821667" lon="8.6002583"><ele>487.0</ele><time>2026-03-29T10:24:10.93Z</time></trkpt><trkpt lat="46.0822733" lon="8.60028"><ele>487.0</ele><time>2026-03-29T10:24:11.93Z</time></trkpt><trkpt lat="46.0823783" lon="8.600345"><ele>487.0</ele><time>2026-03-29T10:24:12.93Z</time></trkpt><trkpt lat="46.0824933" lon="8.6004217"><ele>487.0</ele><time>2026-03-29T10:24:13.93Z</time></trkpt><trkpt lat="46.0826267" lon="8.6005167"><ele>479.33333333333337</ele><time>2026-03-29T10:24:14.93Z</time></trkpt><trkpt lat="46.082775" lon="8.6006167"><ele>471.66666666666663</ele><time>2026-03-29T10:24:15.929Z</time></trkpt><trkpt lat="46.08292" lon="8.6007183"><ele>464.0</ele><time>2026-03-29T10:24:16.93Z</time></trkpt><trkpt lat="46.0830483" lon="8.6008167"><ele>464.0</ele><time>2026-03-29T10:24:17.93Z</time></trkpt><trkpt lat="46.083155" lon="8.6008967"><ele>464.0</ele><time>2026-03-29T10:24:18.93Z</time></trkpt><trkpt lat="46.0832467" lon="8.6009483"><ele>464.0</ele><time>2026-03-29T10:24:19.93Z</time></trkpt><trkpt lat="46.0833283" lon="8.6009567"><ele>464.0</ele><time>2026-03-29T10:24:20.93Z</time></trkpt><trkpt lat="46.0834117" lon="8.600905"><ele>464.0</ele><time>2026-03-29T10:24:21.93Z</time></trkpt><trkpt lat="46.0834883" lon="8.6007817"><ele>467.0</ele><time>2026-03-29T10:24:22.93Z</time></trkpt><trkpt lat="46.0835683" lon="8.60062"><ele>470.0</ele><time>2026-03-29T10:24:23.93Z</time></trkpt><trkpt lat="46.08364" lon="8.600425"><ele>473.0</ele><time>2026-03-29T10:24:24.93Z</time></trkpt><trkpt lat="46.08373" lon="8.60027"><ele>476.0</ele><time>2026-03-29T10:24:25.93Z</time></trkpt><trkpt lat="46.0838267" lon="8.600125"><ele>479.25</ele><time>2026-03-29T10:24:26.93Z</time></trkpt><trkpt lat="46.0839283" lon="8.59999"><ele>482.5</ele><time>2026-03-29T10:24:27.93Z</time></trkpt><trkpt lat="46.0840317" lon="8.5998667"><ele>485.75</ele><time>2026-03-29T10:24:28.93Z</time></trkpt><trkpt lat="46.0841333" lon="8.5997733"><ele>489.0</ele><time>2026-03-29T10:24:29.93Z</time></trkpt><trkpt lat="46.0842417" lon="8.5997083"><ele>489.0</ele><time>2026-03-29T10:24:30.93Z</time></trkpt><trkpt lat="46.0843717" lon="8.59964"><ele>489.0</ele><time>2026-03-29T10:24:31.93Z</time></trkpt><trkpt lat="46.0845133" lon="8.599595"><ele>489.0</ele><time>2026-03-29T10:24:32.93Z</time></trkpt><trkpt lat="46.0846617" lon="8.5995517"><ele>489.0</ele><time>2026-03-29T10:24:33.93Z</time></trkpt><trkpt lat="46.0847967" lon="8.5995167"><ele>485.5</ele><time>2026-03-29T10:24:34.93Z</time></trkpt><trkpt lat="46.084925" lon="8.5995"><ele>482.0</ele><time>2026-03-29T10:24:35.93Z</time></trkpt><trkpt lat="46.0850567" lon="8.5995033"><ele>478.5</ele><time>2026-03-29T10:24:36.93Z</time></trkpt><trkpt lat="46.0851733" lon="8.5994867"><ele>475.0</ele><time>2026-03-29T10:24:37.929Z</time></trkpt><trkpt lat="46.0852833" lon="8.5994433"><ele>483.5</ele><time>2026-03-29T10:24:38.93Z</time></trkpt><trkpt lat="46.0854917" lon="8.5992933"><ele>492.0</ele><time>2026-03-29T10:24:40.929Z</time></trkpt><trkpt lat="46.0855767" lon="8.5992367"><ele>500.5</ele><time>2026-03-29T10:24:41.93Z</time></trkpt><trkpt lat="46.0856483" lon="8.5991733"><ele>509.0</ele><time>2026-03-29T10:24:42.93Z</time></trkpt><trkpt lat="46.0857333" lon="8.5991217"><ele>503.8333333333333</ele><time>2026-03-29T10:24:43.93Z</time></trkpt><trkpt lat="46.0858217" lon="8.59908"><ele>498.66666666666663</ele><time>2026-03-29T10:24:44.93Z</time></trkpt><trkpt lat="46.0859" lon="8.5990617"><ele>493.5</ele><time>2026-03-29T10:24:45.929Z</time></trkpt><trkpt lat="46.085985" lon="8.5990617"><ele>488.33333333333337</ele><time>2026-03-29T10:24:46.93Z</time></trkpt><trkpt lat="46.0860733" lon="8.59909"><ele>483.1666666666667</ele><time>2026-03-29T10:24:47.93Z</time></trkpt><trkpt lat="46.0861433" lon="8.5991433"><ele>478.0</ele><time>2026-03-29T10:24:48.93Z</time></trkpt><trkpt lat="46.0862083" lon="8.5992167"><ele>478.0</ele><time>2026-03-29T10:24:49.93Z</time></trkpt><trkpt lat="46.0862583" lon="8.5993217"><ele>477.99999999999994</ele><time>2026-03-29T10:24:50.93Z</time></trkpt><trkpt lat="46.08631" lon="8.5994183"><ele>477.99999999999994</ele><time>2026-03-29T10:24:51.93Z</time></trkpt><trkpt lat="46.0863617" lon="8.5995383"><ele>478.0</ele><time>2026-03-29T10:24:52.93Z</time></trkpt><trkpt lat="46.0864333" lon="8.5996617"><ele>478.0</ele><time>2026-03-29T10:24:53.93Z</time></trkpt><trkpt lat="46.0865283" lon="8.59975"><ele>478.0</ele><time>2026-03-29T10:24:54.93Z</time></trkpt><trkpt lat="46.0866533" lon="8.5998333"><ele>478.0</ele><time>2026-03-29T10:24:55.93Z</time></trkpt><trkpt lat="46.08678" lon="8.59991"><ele>478.0</ele><time>2026-03-29T10:24:56.93Z</time></trkpt><trkpt lat="46.0868817" lon="8.5999483"><ele>478.0</ele><time>2026-03-29T10:24:57.93Z</time></trkpt><trkpt lat="46.0870033" lon="8.5999917"><ele>478.0</ele><time>2026-03-29T10:24:58.93Z</time></trkpt><trkpt lat="46.0871267" lon="8.6000217"><ele>478.0</ele><time>2026-03-29T10:24:59.93Z</time></trkpt><trkpt lat="46.08724" lon="8.6000233"><ele>478.0</ele><time>2026-03-29T10:25:00.93Z</time></trkpt><trkpt lat="46.0873567" lon="8.599995"><ele>478.0</ele><time>2026-03-29T10:25:01.93Z</time></trkpt><trkpt lat="46.0874667" lon="8.5999667"><ele>478.4</ele><time>2026-03-29T10:25:02.929Z</time></trkpt><trkpt lat="46.087565" lon="8.599905"><ele>478.79999999999995</ele><time>2026-03-29T10:25:03.929Z</time></trkpt><trkpt lat="46.0876517" lon="8.599825"><ele>479.2</ele><time>2026-03-29T10:25:04.93Z</time></trkpt><trkpt lat="46.087725" lon="8.5997167"><ele>479.6</ele><time>2026-03-29T10:25:05.93Z</time></trkpt><trkpt lat="46.08779" lon="8.599575"><ele>480.0</ele><time>2026-03-29T10:25:06.93Z</time></trkpt><trkpt lat="46.0878367" lon="8.5994333"><ele>480.0</ele><time>2026-03-29T10:25:07.93Z</time></trkpt><trkpt lat="46.0878683" lon="8.599235"><ele>480.0</ele><time>2026-03-29T10:25:08.93Z</time></trkpt><trkpt lat="46.0878617" lon="8.598935"><ele>480.0</ele><time>2026-03-29T10:25:09.93Z</time></trkpt><trkpt lat="46.0878717" lon="8.5986933"><ele>482.0</ele><time>2026-03-29T10:25:10.93Z</time></trkpt><trkpt lat="46.0878767" lon="8.5984317"><ele>484.0</ele><time>2026-03-29T10:25:11.929Z</time></trkpt><trkpt lat="46.0878433" lon="8.5979833"><ele>485.0</ele><time>2026-03-29T10:25:13.93Z</time></trkpt><trkpt lat="46.0877783" lon="8.5977117"><ele>486.0</ele><time>2026-03-29T10:25:14.93Z</time></trkpt><trkpt lat="46.0876783" lon="8.5974833"><ele>487.0</ele><time>2026-03-29T10:25:15.93Z</time></trkpt><trkpt lat="46.0875433" lon="8.59725"><ele>487.0</ele><time>2026-03-29T10:25:16.93Z</time></trkpt><trkpt lat="46.0874317" lon="8.5970433"><ele>487.0</ele><time>2026-03-29T10:25:17.93Z</time></trkpt><trkpt lat="46.087345" lon="8.596895"><ele>487.0</ele><time>2026-03-29T10:25:18.929Z</time></trkpt><trkpt lat="46.0872867" lon="8.5967617"><ele>487.0</ele><time>2026-03-29T10:25:19.93Z</time></trkpt><trkpt lat="46.08725" lon="8.5966467"><ele>486.50000000000006</ele><time>2026-03-29T10:25:20.93Z</time></trkpt><trkpt lat="46.0872417" lon="8.5965417"><ele>486.0</ele><time>2026-03-29T10:25:21.93Z</time></trkpt><trkpt lat="46.08727" lon="8.5964517"><ele>485.5</ele><time>2026-03-29T10:25:22.93Z</time></trkpt><trkpt lat="46.0873367" lon="8.596385"><ele>485.0</ele><time>2026-03-29T10:25:23.93Z</time></trkpt><trkpt lat="46.08743" lon="8.59632"><ele>484.50000000000006</ele><time>2026-03-29T10:25:24.93Z</time></trkpt><trkpt lat="46.0875267" lon="8.596245"><ele>484.0</ele><time>2026-03-29T10:25:25.93Z</time></trkpt><trkpt lat="46.0876083" lon="8.5961467"><ele>484.0</ele><time>2026-03-29T10:25:26.93Z</time></trkpt><trkpt lat="46.0877133" lon="8.5960483"><ele>484.0</ele><time>2026-03-29T10:25:27.93Z</time></trkpt><trkpt lat="46.0878167" lon="8.5959283"><ele>484.0</ele><time>2026-03-29T10:25:28.93Z</time></trkpt><trkpt lat="46.08802" lon="8.59592"><ele>484.0</ele><time>2026-03-29T10:25:29.93Z</time></trkpt><trkpt lat="46.0882083" lon="8.5959233"><ele>484.0</ele><time>2026-03-29T10:25:30.93Z</time></trkpt><trkpt lat="46.088355" lon="8.5958967"><ele>484.0</ele><time>2026-03-29T10:25:31.93Z</time></trkpt><trkpt lat="46.0885083" lon="8.5958517"><ele>485.25</ele><time>2026-03-29T10:25:32.93Z</time></trkpt><trkpt lat="46.08865" lon="8.5957633"><ele>486.5</ele><time>2026-03-29T10:25:33.93Z</time></trkpt><trkpt lat="46.0887667" lon="8.59565"><ele>487.75</ele><time>2026-03-29T10:25:34.93Z</time></trkpt><trkpt lat="46.088865" lon="8.5955333"><ele>489.0</ele><time>2026-03-29T10:25:35.93Z</time></trkpt><trkpt lat="46.0889683" lon="8.5954367"><ele>489.0</ele><time>2026-03-29T10:25:36.93Z</time></trkpt><trkpt lat="46.0890667" lon="8.5953533"><ele>489.0</ele><time>2026-03-29T10:25:37.929Z</time></trkpt><trkpt lat="46.0891633" lon="8.5952517"><ele>489.0</ele><time>2026-03-29T10:25:38.93Z</time></trkpt><trkpt lat="46.089265" lon="8.5951267"><ele>489.0</ele><time>2026-03-29T10:25:39.93Z</time></trkpt><trkpt lat="46.0893583" lon="8.59499"><ele>489.66666666666663</ele><time>2026-03-29T10:25:40.93Z</time></trkpt><trkpt lat="46.089455" lon="8.5948283"><ele>490.3333333333333</ele><time>2026-03-29T10:25:41.93Z</time></trkpt><trkpt lat="46.08953" lon="8.5946583"><ele>491.0</ele><time>2026-03-29T10:25:42.93Z</time></trkpt><trkpt lat="46.089585" lon="8.5944383"><ele>493.0</ele><time>2026-03-29T10:25:43.93Z</time></trkpt><trkpt lat="46.089645" lon="8.5942367"><ele>495.0</ele><time>2026-03-29T10:25:44.93Z</time></trkpt><trkpt lat="46.089715" lon="8.5940667"><ele>497.0</ele><time>2026-03-29T10:25:45.93Z</time></trkpt><trkpt lat="46.0897717" lon="8.59389"><ele>499.0</ele><time>2026-03-29T10:25:46.93Z</time></trkpt><trkpt lat="46.0898167" lon="8.5937317"><ele>498.79999999999995</ele><time>2026-03-29T10:25:47.93Z</time></trkpt><trkpt lat="46.089825" lon="8.5935733"><ele>498.59999999999997</ele><time>2026-03-29T10:25:48.929Z</time></trkpt><trkpt lat="46.08984" lon="8.5934483"><ele>498.4</ele><time>2026-03-29T10:25:49.929Z</time></trkpt><trkpt lat="46.089865" lon="8.5933633"><ele>498.2</ele><time>2026-03-29T10:25:50.93Z</time></trkpt><trkpt lat="46.08998" lon="8.593295"><ele>498.0</ele><time>2026-03-29T10:25:52.93Z</time></trkpt><trkpt lat="46.0901033" lon="8.5932817"><ele>498.0</ele><time>2026-03-29T10:25:53.93Z</time></trkpt><trkpt lat="46.09025" lon="8.593285"><ele>498.0</ele><time>2026-03-29T10:25:54.93Z</time></trkpt><trkpt lat="46.0904317" lon="8.593285"><ele>498.0</ele><time>2026-03-29T10:25:55.93Z</time></trkpt><trkpt lat="46.0906" lon="8.5932467"><ele>505.66666666666663</ele><time>2026-03-29T10:25:56.93Z</time></trkpt><trkpt lat="46.09076" lon="8.5931783"><ele>513.3333333333333</ele><time>2026-03-29T10:25:57.93Z</time></trkpt><trkpt lat="46.0909083" lon="8.5930967"><ele>521.0</ele><time>2026-03-29T10:25:58.93Z</time></trkpt><trkpt lat="46.09105" lon="8.5929717"><ele>521.0</ele><time>2026-03-29T10:25:59.93Z</time></trkpt><trkpt lat="46.0911917" lon="8.5928417"><ele>521.0</ele><time>2026-03-29T10:26:00.93Z</time></trkpt><trkpt lat="46.0913283" lon="8.59268"><ele>521.0</ele><time>2026-03-29T10:26:01.93Z</time></trkpt><trkpt lat="46.0914533" lon="8.5925333"><ele>518.0</ele><time>2026-03-29T10:26:02.93Z</time></trkpt><trkpt lat="46.091555" lon="8.5923733"><ele>515.0</ele><time>2026-03-29T10:26:03.93Z</time></trkpt><trkpt lat="46.0916367" lon="8.5922283"><ele>512.0</ele><time>2026-03-29T10:26:04.93Z</time></trkpt><trkpt lat="46.091705" lon="8.5921017"><ele>509.0</ele><time>2026-03-29T10:26:05.93Z</time></trkpt><trkpt lat="46.0917417" lon="8.59201"><ele>508.4</ele><time>2026-03-29T10:26:06.93Z</time></trkpt><trkpt lat="46.0918417" lon="8.59199"><ele>507.79999999999995</ele><time>2026-03-29T10:26:08.93Z</time></trkpt><trkpt lat="46.0919017" lon="8.5920367"><ele>507.20000000000005</ele><time>2026-03-29T10:26:09.93Z</time></trkpt><trkpt lat="46.0919617" lon="8.59214"><ele>506.6</ele><time>2026-03-29T10:26:10.93Z</time></trkpt><trkpt lat="46.0920167" lon="8.5922783"><ele>506.0</ele><time>2026-03-29T10:26:11.93Z</time></trkpt><trkpt lat="46.09208" lon="8.59244"><ele>506.0</ele><time>2026-03-29T10:26:12.93Z</time></trkpt><trkpt lat="46.0921433" lon="8.5926033"><ele>506.0</ele><time>2026-03-29T10:26:13.93Z</time></trkpt><trkpt lat="46.09222" lon="8.5927567"><ele>506.0</ele><time>2026-03-29T10:26:14.93Z</time></trkpt><trkpt lat="46.09234" lon="8.5928783"><ele>506.0</ele><time>2026-03-29T10:26:15.93Z</time></trkpt><trkpt lat="46.0924517" lon="8.5929783"><ele>517.25</ele><time>2026-03-29T10:26:16.93Z</time></trkpt><trkpt lat="46.0925783" lon="8.59305"><ele>528.5</ele><time>2026-03-29T10:26:17.93Z</time></trkpt><trkpt lat="46.0927217" lon="8.5931117"><ele>539.75</ele><time>2026-03-29T10:26:18.93Z</time></trkpt><trkpt lat="46.0928617" lon="8.593175"><ele>551.0</ele><time>2026-03-29T10:26:19.93Z</time></trkpt><trkpt lat="46.0929817" lon="8.59325"><ele>551.0</ele><time>2026-03-29T10:26:20.929Z</time></trkpt><trkpt lat="46.09309" lon="8.5933233"><ele>551.0</ele><time>2026-03-29T10:26:21.93Z</time></trkpt><trkpt lat="46.0932233" lon="8.5933633"><ele>551.0</ele><time>2026-03-29T10:26:22.93Z</time></trkpt><trkpt lat="46.093345" lon="8.593405"><ele>551.0</ele><time>2026-03-29T10:26:23.93Z</time></trkpt><trkpt lat="46.09346" lon="8.5934367"><ele>548.5</ele><time>2026-03-29T10:26:24.93Z</time></trkpt><trkpt lat="46.0935883" lon="8.593455"><ele>546.0</ele><time>2026-03-29T10:26:25.929Z</time></trkpt><trkpt lat="46.09373" lon="8.59346"><ele>543.5</ele><time>2026-03-29T10:26:26.93Z</time></trkpt><trkpt lat="46.0938767" lon="8.5934533"><ele>541.0</ele><time>2026-03-29T10:26:27.93Z</time></trkpt><trkpt lat="46.0940267" lon="8.5934167"><ele>546.3333333333334</ele><time>2026-03-29T10:26:28.93Z</time></trkpt><trkpt lat="46.0941767" lon="8.593375"><ele>551.6666666666666</ele><time>2026-03-29T10:26:29.93Z</time></trkpt><trkpt lat="46.094325" lon="8.59333"><ele>557.0</ele><time>2026-03-29T10:26:30.93Z</time></trkpt><trkpt lat="46.0944767" lon="8.5932667"><ele>557.0</ele><time>2026-03-29T10:26:31.93Z</time></trkpt><trkpt lat="46.09461" lon="8.5931967"><ele>557.0</ele><time>2026-03-29T10:26:32.929Z</time></trkpt><trkpt lat="46.0947417" lon="8.593155"><ele>557.0</ele><time>2026-03-29T10:26:33.929Z</time></trkpt><trkpt lat="46.0948683" lon="8.5931117"><ele>557.0</ele><time>2026-03-29T10:26:34.929Z</time></trkpt><trkpt lat="46.094985" lon="8.5931167"><ele>556.75</ele><time>2026-03-29T10:26:35.928Z</time></trkpt><trkpt lat="46.0950983" lon="8.5931383"><ele>556.5</ele><time>2026-03-29T10:26:36.929Z</time></trkpt><trkpt lat="46.0952017" lon="8.5931767"><ele>556.25</ele><time>2026-03-29T10:26:37.929Z</time></trkpt><trkpt lat="46.09532" lon="8.5932883"><ele>556.0</ele><time>2026-03-29T10:26:38.928Z</time></trkpt><trkpt lat="46.0954283" lon="8.5934117"><ele>556.0</ele><time>2026-03-29T10:26:39.929Z</time></trkpt><trkpt lat="46.0955183" lon="8.5935283"><ele>556.0</ele><time>2026-03-29T10:26:40.929Z</time></trkpt><trkpt lat="46.0956033" lon="8.5936417"><ele>556.0</ele><time>2026-03-29T10:26:41.929Z</time></trkpt><trkpt lat="46.09568" lon="8.5937567"><ele>556.0</ele><time>2026-03-29T10:26:42.928Z</time></trkpt><trkpt lat="46.0957583" lon="8.5938767"><ele>555.1666666666667</ele><time>2026-03-29T10:26:43.929Z</time></trkpt><trkpt lat="46.0958233" lon="8.593965"><ele>554.3333333333334</ele><time>2026-03-29T10:26:44.928Z</time></trkpt><trkpt lat="46.095835" lon="8.5940717"><ele>553.5</ele><time>2026-03-29T10:26:45.929Z</time></trkpt><trkpt lat="46.0958833" lon="8.5941483"><ele>552.6666666666666</ele><time>2026-03-29T10:26:46.929Z</time></trkpt><trkpt lat="46.0959667" lon="8.5942067"><ele>551.8333333333333</ele><time>2026-03-29T10:26:48.928Z</time></trkpt><trkpt lat="46.0960733" lon="8.5941317"><ele>551.0</ele><time>2026-03-29T10:26:50.929Z</time></trkpt><trkpt lat="46.0960983" lon="8.594045"><ele>551.0</ele><time>2026-03-29T10:26:51.929Z</time></trkpt><trkpt lat="46.0961117" lon="8.59395"><ele>551.0</ele><time>2026-03-29T10:26:52.929Z</time></trkpt><trkpt lat="46.0961167" lon="8.5937633"><ele>551.0</ele><time>2026-03-29T10:26:53.929Z</time></trkpt><trkpt lat="46.096095" lon="8.5936217"><ele>551.0</ele><time>2026-03-29T10:26:54.929Z</time></trkpt><trkpt lat="46.0960483" lon="8.593465"><ele>551.0</ele><time>2026-03-29T10:26:55.929Z</time></trkpt><trkpt lat="46.096005" lon="8.59333"><ele>553.0</ele><time>2026-03-29T10:26:56.928Z</time></trkpt><trkpt lat="46.0959667" lon="8.5932033"><ele>555.0</ele><time>2026-03-29T10:26:57.929Z</time></trkpt><trkpt lat="46.0958583" lon="8.5929967"><ele>557.0</ele><time>2026-03-29T10:26:58.929Z</time></trkpt><trkpt lat="46.0957367" lon="8.592815"><ele>567.0</ele><time>2026-03-29T10:26:59.929Z</time></trkpt><trkpt lat="46.0956017" lon="8.5926733"><ele>577.0</ele><time>2026-03-29T10:27:00.929Z</time></trkpt><trkpt lat="46.0954067" lon="8.5925833"><ele>587.0</ele><time>2026-03-29T10:27:01.929Z</time></trkpt><trkpt lat="46.0952267" lon="8.5925067"><ele>587.0</ele><time>2026-03-29T10:27:02.929Z</time></trkpt><trkpt lat="46.0950567" lon="8.5924617"><ele>587.0</ele><time>2026-03-29T10:27:03.929Z</time></trkpt><trkpt lat="46.0948483" lon="8.59246"><ele>587.0</ele><time>2026-03-29T10:27:04.929Z</time></trkpt><trkpt lat="46.0946267" lon="8.59248"><ele>585.0</ele><time>2026-03-29T10:27:05.929Z</time></trkpt><trkpt lat="46.0944283" lon="8.5924833"><ele>583.0</ele><time>2026-03-29T10:27:06.929Z</time></trkpt><trkpt lat="46.0942517" lon="8.59248"><ele>581.0</ele><time>2026-03-29T10:27:07.929Z</time></trkpt><trkpt lat="46.0941033" lon="8.5924883"><ele>577.6</ele><time>2026-03-29T10:27:08.929Z</time></trkpt><trkpt lat="46.0939717" lon="8.5924983"><ele>574.2</ele><time>2026-03-29T10:27:09.929Z</time></trkpt><trkpt lat="46.09385" lon="8.592515"><ele>570.8</ele><time>2026-03-29T10:27:10.929Z</time></trkpt><trkpt lat="46.093755" lon="8.592525"><ele>567.4</ele><time>2026-03-29T10:27:11.929Z</time></trkpt><trkpt lat="46.0936583" lon="8.5925167"><ele>564.0</ele><time>2026-03-29T10:27:12.929Z</time></trkpt><trkpt lat="46.0935883" lon="8.5924633"><ele>564.0</ele><time>2026-03-29T10:27:13.929Z</time></trkpt><trkpt lat="46.0935033" lon="8.5923883"><ele>564.0</ele><time>2026-03-29T10:27:14.929Z</time></trkpt><trkpt lat="46.0933983" lon="8.59231"><ele>564.0</ele><time>2026-03-29T10:27:15.929Z</time></trkpt><trkpt lat="46.0932917" lon="8.59222"><ele>564.0</ele><time>2026-03-29T10:27:16.929Z</time></trkpt><trkpt lat="46.0931683" lon="8.592125"><ele>561.25</ele><time>2026-03-29T10:27:17.929Z</time></trkpt><trkpt lat="46.0930567" lon="8.59202"><ele>558.5</ele><time>2026-03-29T10:27:18.929Z</time></trkpt><trkpt lat="46.0929617" lon="8.591915"><ele>555.75</ele><time>2026-03-29T10:27:19.929Z</time></trkpt><trkpt lat="46.09288" lon="8.5918283"><ele>553.0</ele><time>2026-03-29T10:27:20.929Z</time></trkpt><trkpt lat="46.0928217" lon="8.5916983"><ele>553.0</ele><time>2026-03-29T10:27:21.929Z</time></trkpt><trkpt lat="46.0927633" lon="8.5915683"><ele>553.0</ele><time>2026-03-29T10:27:22.929Z</time></trkpt><trkpt lat="46.0927217" lon="8.5914167"><ele>553.0</ele><time>2026-03-29T10:27:23.929Z</time></trkpt><trkpt lat="46.0926967" lon="8.5912567"><ele>553.0</ele><time>2026-03-29T10:27:24.929Z</time></trkpt><trkpt lat="46.0926833" lon="8.5910917"><ele>553.0</ele><time>2026-03-29T10:27:25.929Z</time></trkpt><trkpt lat="46.092685" lon="8.5909333"><ele>554.0</ele><time>2026-03-29T10:27:26.929Z</time></trkpt><trkpt lat="46.0926983" lon="8.590765"><ele>555.0</ele><time>2026-03-29T10:27:27.929Z</time></trkpt><trkpt lat="46.0927167" lon="8.590595"><ele>556.0</ele><time>2026-03-29T10:27:28.929Z</time></trkpt><trkpt lat="46.0927333" lon="8.5904367"><ele>557.0</ele><time>2026-03-29T10:27:29.929Z</time></trkpt><trkpt lat="46.0927467" lon="8.5902983"><ele>558.0</ele><time>2026-03-29T10:27:30.929Z</time></trkpt><trkpt lat="46.0927583" lon="8.59017"><ele>555.6666666666666</ele><time>2026-03-29T10:27:31.929Z</time></trkpt><trkpt lat="46.0927733" lon="8.59006"><ele>553.3333333333334</ele><time>2026-03-29T10:27:32.929Z</time></trkpt><trkpt lat="46.0927933" lon="8.5899683"><ele>551.0</ele><time>2026-03-29T10:27:33.929Z</time></trkpt><trkpt lat="46.09285" lon="8.589845"><ele>548.6666666666667</ele><time>2026-03-29T10:27:35.929Z</time></trkpt><trkpt lat="46.0929233" lon="8.5898517"><ele>546.3333333333334</ele><time>2026-03-29T10:27:37.929Z</time></trkpt><trkpt lat="46.09295" lon="8.5899933"><ele>544.0</ele><time>2026-03-29T10:27:39.929Z</time></trkpt><trkpt lat="46.0929233" lon="8.590115"><ele>544.0</ele><time>2026-03-29T10:27:40.929Z</time></trkpt><trkpt lat="46.0929033" lon="8.59026"><ele>544.0</ele><time>2026-03-29T10:27:41.929Z</time></trkpt><trkpt lat="46.09289" lon="8.59044"><ele>544.0</ele><time>2026-03-29T10:27:42.929Z</time></trkpt><trkpt lat="46.0928917" lon="8.5906433"><ele>544.0</ele><time>2026-03-29T10:27:43.929Z</time></trkpt><trkpt lat="46.0929067" lon="8.59088"><ele>546.25</ele><time>2026-03-29T10:27:44.929Z</time></trkpt><trkpt lat="46.0929317" lon="8.591105"><ele>548.5</ele><time>2026-03-29T10:27:45.929Z</time></trkpt><trkpt lat="46.0929583" lon="8.5912967"><ele>550.75</ele><time>2026-03-29T10:27:46.929Z</time></trkpt><trkpt lat="46.0929867" lon="8.59142"><ele>553.0</ele><time>2026-03-29T10:27:47.929Z</time></trkpt><trkpt lat="46.093025" lon="8.5915167"><ele>553.0</ele><time>2026-03-29T10:27:48.929Z</time></trkpt><trkpt lat="46.0930783" lon="8.5915733"><ele>553.0</ele><time>2026-03-29T10:27:49.928Z</time></trkpt><trkpt lat="46.0931333" lon="8.5915117"><ele>553.0</ele><time>2026-03-29T10:27:51.929Z</time></trkpt><trkpt lat="46.0931217" lon="8.59133"><ele>553.0</ele><time>2026-03-29T10:27:53.929Z</time></trkpt><trkpt lat="46.0931083" lon="8.5912067"><ele>553.0</ele><time>2026-03-29T10:27:54.929Z</time></trkpt><trkpt lat="46.0930933" lon="8.591085"><ele>553.0</ele><time>2026-03-29T10:27:55.929Z</time></trkpt><trkpt lat="46.0930817" lon="8.5909467"><ele>553.8333333333334</ele><time>2026-03-29T10:27:56.928Z</time></trkpt><trkpt lat="46.09306" lon="8.5908167"><ele>554.6666666666667</ele><time>2026-03-29T10:27:57.929Z</time></trkpt><trkpt lat="46.0930433" lon="8.5906833"><ele>555.5</ele><time>2026-03-29T10:27:58.929Z</time></trkpt><trkpt lat="46.0930317" lon="8.5905567"><ele>556.3333333333334</ele><time>2026-03-29T10:27:59.929Z</time></trkpt><trkpt lat="46.093035" lon="8.5904317"><ele>557.1666666666666</ele><time>2026-03-29T10:28:00.929Z</time></trkpt><trkpt lat="46.0930533" lon="8.5903117"><ele>558.0</ele><time>2026-03-29T10:28:01.929Z</time></trkpt><trkpt lat="46.0930883" lon="8.5902183"><ele>555.1999999999999</ele><time>2026-03-29T10:28:02.929Z</time></trkpt><trkpt lat="46.0931483" lon="8.5901433"><ele>552.4</ele><time>2026-03-29T10:28:03.929Z</time></trkpt><trkpt lat="46.0932117" lon="8.59006"><ele>549.5999999999999</ele><time>2026-03-29T10:28:04.929Z</time></trkpt><trkpt lat="46.09329" lon="8.5899767"><ele>546.8</ele><time>2026-03-29T10:28:05.928Z</time></trkpt><trkpt lat="46.0933533" lon="8.58986"><ele>544.0</ele><time>2026-03-29T10:28:06.929Z</time></trkpt><trkpt lat="46.0934017" lon="8.5897167"><ele>557.75</ele><time>2026-03-29T10:28:07.929Z</time></trkpt><trkpt lat="46.0934367" lon="8.589535"><ele>571.5</ele><time>2026-03-29T10:28:08.928Z</time></trkpt><trkpt lat="46.0934367" lon="8.589345"><ele>585.25</ele><time>2026-03-29T10:28:09.929Z</time></trkpt><trkpt lat="46.0934217" lon="8.5891733"><ele>599.0</ele><time>2026-03-29T10:28:10.929Z</time></trkpt><trkpt lat="46.093395" lon="8.5890217"><ele>599.0</ele><time>2026-03-29T10:28:11.929Z</time></trkpt><trkpt lat="46.0933767" lon="8.58889"><ele>599.0</ele><time>2026-03-29T10:28:12.929Z</time></trkpt><trkpt lat="46.0933583" lon="8.5887767"><ele>599.0</ele><time>2026-03-29T10:28:13.929Z</time></trkpt><trkpt lat="46.0933767" lon="8.58866"><ele>599.0</ele><time>2026-03-29T10:28:15.929Z</time></trkpt><trkpt lat="46.0934483" lon="8.5888717"><ele>599.0</ele><time>2026-03-29T10:28:19.929Z</time></trkpt><trkpt lat="46.0934733" lon="8.58903"><ele>599.0</ele><time>2026-03-29T10:28:20.929Z</time></trkpt><trkpt lat="46.0935" lon="8.5892233"><ele>599.0</ele><time>2026-03-29T10:28:21.929Z</time></trkpt><trkpt lat="46.0935117" lon="8.589445"><ele>599.0</ele><time>2026-03-29T10:28:22.929Z</time></trkpt><trkpt lat="46.0935017" lon="8.58965"><ele>599.0</ele><time>2026-03-29T10:28:23.929Z</time></trkpt><trkpt lat="46.0934883" lon="8.5898383"><ele>600.8333333333333</ele><time>2026-03-29T10:28:24.929Z</time></trkpt><trkpt lat="46.0934767" lon="8.5899917"><ele>602.6666666666666</ele><time>2026-03-29T10:28:25.929Z</time></trkpt><trkpt lat="46.0934483" lon="8.590125"><ele>604.5</ele><time>2026-03-29T10:28:26.928Z</time></trkpt><trkpt lat="46.0934117" lon="8.5902483"><ele>606.3333333333334</ele><time>2026-03-29T10:28:27.929Z</time></trkpt><trkpt lat="46.0933817" lon="8.5903517"><ele>608.1666666666667</ele><time>2026-03-29T10:28:28.928Z</time></trkpt><trkpt lat="46.0933517" lon="8.590435"><ele>610.0</ele><time>2026-03-29T10:28:29.929Z</time></trkpt><trkpt lat="46.0934" lon="8.590535"><ele>610.0</ele><time>2026-03-29T10:28:32.929Z</time></trkpt><trkpt lat="46.093505" lon="8.5904617"><ele>610.0</ele><time>2026-03-29T10:28:34.929Z</time></trkpt><trkpt lat="46.09356" lon="8.5903717"><ele>610.0</ele><time>2026-03-29T10:28:35.928Z</time></trkpt><trkpt lat="46.0936117" lon="8.590255"><ele>610.0</ele><time>2026-03-29T10:28:36.929Z</time></trkpt><trkpt lat="46.0936567" lon="8.590115"><ele>610.0</ele><time>2026-03-29T10:28:37.928Z</time></trkpt><trkpt lat="46.0936967" lon="8.5899467"><ele>610.0</ele><time>2026-03-29T10:28:38.929Z</time></trkpt><trkpt lat="46.0937367" lon="8.5897633"><ele>610.0</ele><time>2026-03-29T10:28:39.929Z</time></trkpt><trkpt lat="46.0937967" lon="8.58958"><ele>610.0</ele><time>2026-03-29T10:28:40.929Z</time></trkpt><trkpt lat="46.09383" lon="8.5893883"><ele>610.0</ele><time>2026-03-29T10:28:41.929Z</time></trkpt><trkpt lat="46.0938433" lon="8.5891883"><ele>607.8</ele><time>2026-03-29T10:28:42.929Z</time></trkpt><trkpt lat="46.0938383" lon="8.5889983"><ele>605.6</ele><time>2026-03-29T10:28:43.929Z</time></trkpt><trkpt lat="46.0938217" lon="8.5888467"><ele>603.4</ele><time>2026-03-29T10:28:44.928Z</time></trkpt><trkpt lat="46.0938067" lon="8.5887217"><ele>601.2</ele><time>2026-03-29T10:28:45.929Z</time></trkpt><trkpt lat="46.0937983" lon="8.5886233"><ele>599.0</ele><time>2026-03-29T10:28:46.929Z</time></trkpt><trkpt lat="46.0938133" lon="8.5885283"><ele>599.0</ele><time>2026-03-29T10:28:47.929Z</time></trkpt><trkpt lat="46.09386" lon="8.5884383"><ele>599.0</ele><time>2026-03-29T10:28:48.929Z</time></trkpt><trkpt lat="46.09393" lon="8.5883733"><ele>599.0</ele><time>2026-03-29T10:28:49.929Z</time></trkpt><trkpt lat="46.0939983" lon="8.588315"><ele>599.0</ele><time>2026-03-29T10:28:50.929Z</time></trkpt><trkpt lat="46.0940433" lon="8.5882367"><ele>599.0</ele><time>2026-03-29T10:28:51.929Z</time></trkpt><trkpt lat="46.094075" lon="8.588155"><ele>599.0</ele><time>2026-03-29T10:28:52.928Z</time></trkpt><trkpt lat="46.0940833" lon="8.5880117"><ele>597.75</ele><time>2026-03-29T10:28:54.929Z</time></trkpt><trkpt lat="46.09408" lon="8.5878133"><ele>596.5</ele><time>2026-03-29T10:28:56.929Z</time></trkpt><trkpt lat="46.09407" lon="8.5876733"><ele>595.25</ele><time>2026-03-29T10:28:57.929Z</time></trkpt><trkpt lat="46.0940633" lon="8.587505"><ele>594.0</ele><time>2026-03-29T10:28:58.929Z</time></trkpt><trkpt lat="46.0940433" lon="8.5873083"><ele>594.0</ele><time>2026-03-29T10:28:59.929Z</time></trkpt><trkpt lat="46.0940233" lon="8.587125"><ele>594.0</ele><time>2026-03-29T10:29:00.929Z</time></trkpt><trkpt lat="46.0940067" lon="8.58697"><ele>594.0</ele><time>2026-03-29T10:29:01.929Z</time></trkpt><trkpt lat="46.094005" lon="8.5868333"><ele>594.0</ele><time>2026-03-29T10:29:02.928Z</time></trkpt><trkpt lat="46.09402" lon="8.5866967"><ele>594.0</ele><time>2026-03-29T10:29:03.929Z</time></trkpt><trkpt lat="46.094045" lon="8.5865733"><ele>597.3333333333334</ele><time>2026-03-29T10:29:04.929Z</time></trkpt><trkpt lat="46.0940533" lon="8.5864317"><ele>600.6666666666666</ele><time>2026-03-29T10:29:05.929Z</time></trkpt><trkpt lat="46.0940217" lon="8.5862967"><ele>604.0</ele><time>2026-03-29T10:29:06.929Z</time></trkpt><trkpt lat="46.0939833" lon="8.5861833"><ele>607.3333333333333</ele><time>2026-03-29T10:29:07.929Z</time></trkpt><trkpt lat="46.0939617" lon="8.5860817"><ele>610.6666666666666</ele><time>2026-03-29T10:29:08.929Z</time></trkpt><trkpt lat="46.0939567" lon="8.5859783"><ele>614.0</ele><time>2026-03-29T10:29:09.929Z</time></trkpt><trkpt lat="46.0939717" lon="8.5858817"><ele>614.8333333333333</ele><time>2026-03-29T10:29:10.929Z</time></trkpt><trkpt lat="46.094005" lon="8.58579"><ele>615.6666666666666</ele><time>2026-03-29T10:29:11.929Z</time></trkpt><trkpt lat="46.0940567" lon="8.5856967"><ele>616.5</ele><time>2026-03-29T10:29:12.929Z</time></trkpt><trkpt lat="46.0940967" lon="8.585615"><ele>617.3333333333334</ele><time>2026-03-29T10:29:13.929Z</time></trkpt><trkpt lat="46.09412" lon="8.5854467"><ele>618.1666666666667</ele><time>2026-03-29T10:29:15.929Z</time></trkpt><trkpt lat="46.0941067" lon="8.5853533"><ele>619.0</ele><time>2026-03-29T10:29:16.929Z</time></trkpt><trkpt lat="46.0940867" lon="8.585245"><ele>617.1666666666667</ele><time>2026-03-29T10:29:17.929Z</time></trkpt><trkpt lat="46.0940617" lon="8.5851117"><ele>615.3333333333334</ele><time>2026-03-29T10:29:18.929Z</time></trkpt><trkpt lat="46.0940467" lon="8.584985"><ele>613.5</ele><time>2026-03-29T10:29:19.929Z</time></trkpt><trkpt lat="46.0940467" lon="8.58487"><ele>611.6666666666666</ele><time>2026-03-29T10:29:20.929Z</time></trkpt><trkpt lat="46.0940583" lon="8.58477"><ele>609.8333333333333</ele><time>2026-03-29T10:29:21.929Z</time></trkpt><trkpt lat="46.09408" lon="8.584665"><ele>608.0</ele><time>2026-03-29T10:29:22.929Z</time></trkpt><trkpt lat="46.09413" lon="8.5845467"><ele>619.5</ele><time>2026-03-29T10:29:23.929Z</time></trkpt><trkpt lat="46.0941817" lon="8.5844267"><ele>631.0</ele><time>2026-03-29T10:29:24.929Z</time></trkpt><trkpt lat="46.0942283" lon="8.58428"><ele>642.5</ele><time>2026-03-29T10:29:25.929Z</time></trkpt><trkpt lat="46.0942733" lon="8.5840983"><ele>654.0</ele><time>2026-03-29T10:29:26.929Z</time></trkpt><trkpt lat="46.0943133" lon="8.5839067"><ele>654.0</ele><time>2026-03-29T10:29:27.929Z</time></trkpt><trkpt lat="46.09436" lon="8.583715"><ele>654.0</ele><time>2026-03-29T10:29:28.929Z</time></trkpt><trkpt lat="46.0944083" lon="8.5835167"><ele>654.0</ele><time>2026-03-29T10:29:29.929Z</time></trkpt><trkpt lat="46.09446" lon="8.58332"><ele>654.0</ele><time>2026-03-29T10:29:30.929Z</time></trkpt><trkpt lat="46.094505" lon="8.5831267"><ele>653.8000000000001</ele><time>2026-03-29T10:29:31.929Z</time></trkpt><trkpt lat="46.094545" lon="8.5829567"><ele>653.6</ele><time>2026-03-29T10:29:32.929Z</time></trkpt><trkpt lat="46.0945783" lon="8.5828133"><ele>653.4</ele><time>2026-03-29T10:29:33.928Z</time></trkpt><trkpt lat="46.094655" lon="8.5827067"><ele>653.2</ele><time>2026-03-29T10:29:35.929Z</time></trkpt><trkpt lat="46.09472" lon="8.5827417"><ele>653.0</ele><time>2026-03-29T10:29:37.928Z</time></trkpt><trkpt lat="46.0947983" lon="8.5828483"><ele>653.0</ele><time>2026-03-29T10:29:39.928Z</time></trkpt><trkpt lat="46.0948383" lon="8.5829317"><ele>653.0</ele><time>2026-03-29T10:29:40.928Z</time></trkpt><trkpt lat="46.0948983" lon="8.5830517"><ele>653.0</ele><time>2026-03-29T10:29:42.927Z</time></trkpt><trkpt lat="46.0949717" lon="8.5830917"><ele>653.0</ele><time>2026-03-29T10:29:44.928Z</time></trkpt><trkpt lat="46.095075" lon="8.5829683"><ele>653.0</ele><time>2026-03-29T10:29:46.928Z</time></trkpt><trkpt lat="46.095155" lon="8.582845"><ele>653.8</ele><time>2026-03-29T10:29:47.928Z</time></trkpt><trkpt lat="46.0952467" lon="8.582745"><ele>654.5999999999999</ele><time>2026-03-29T10:29:48.928Z</time></trkpt><trkpt lat="46.0953317" lon="8.5826517"><ele>655.4000000000001</ele><time>2026-03-29T10:29:49.928Z</time></trkpt><trkpt lat="46.09541" lon="8.5825567"><ele>656.2</ele><time>2026-03-29T10:29:50.928Z</time></trkpt><trkpt lat="46.0954933" lon="8.5824817"><ele>657.0</ele><time>2026-03-29T10:29:51.928Z</time></trkpt><trkpt lat="46.09559" lon="8.58242"><ele>657.0</ele><time>2026-03-29T10:29:52.928Z</time></trkpt><trkpt lat="46.0956783" lon="8.58235"><ele>657.0</ele><time>2026-03-29T10:29:53.928Z</time></trkpt><trkpt lat="46.095755" lon="8.5822667"><ele>657.0</ele><time>2026-03-29T10:29:54.928Z</time></trkpt><trkpt lat="46.0958283" lon="8.5821417"><ele>657.0</ele><time>2026-03-29T10:29:55.928Z</time></trkpt><trkpt lat="46.0958933" lon="8.5820033"><ele>657.0</ele><time>2026-03-29T10:29:56.927Z</time></trkpt><trkpt lat="46.095955" lon="8.5818683"><ele>658.6</ele><time>2026-03-29T10:29:57.927Z</time></trkpt><trkpt lat="46.096015" lon="8.581735"><ele>660.2</ele><time>2026-03-29T10:29:58.928Z</time></trkpt><trkpt lat="46.096075" lon="8.5815967"><ele>661.8</ele><time>2026-03-29T10:29:59.928Z</time></trkpt><trkpt lat="46.0961383" lon="8.581465"><ele>663.4</ele><time>2026-03-29T10:30:00.928Z</time></trkpt><trkpt lat="46.09619" lon="8.5813233"><ele>665.0</ele><time>2026-03-29T10:30:01.928Z</time></trkpt><trkpt lat="46.0962183" lon="8.5811717"><ele>660.6666666666666</ele><time>2026-03-29T10:30:02.928Z</time></trkpt><trkpt lat="46.096235" lon="8.5810317"><ele>656.3333333333333</ele><time>2026-03-29T10:30:03.928Z</time></trkpt><trkpt lat="46.0962267" lon="8.5809133"><ele>652.0</ele><time>2026-03-29T10:30:04.928Z</time></trkpt><trkpt lat="46.096225" lon="8.5807967"><ele>647.6666666666666</ele><time>2026-03-29T10:30:05.928Z</time></trkpt><trkpt lat="46.0962217" lon="8.5807"><ele>643.3333333333334</ele><time>2026-03-29T10:30:06.928Z</time></trkpt><trkpt lat="46.0962217" lon="8.5806033"><ele>639.0</ele><time>2026-03-29T10:30:07.927Z</time></trkpt><trkpt lat="46.0962533" lon="8.5805033"><ele>639.0</ele><time>2026-03-29T10:30:09.928Z</time></trkpt><trkpt lat="46.0963517" lon="8.5805183"><ele>639.0</ele><time>2026-03-29T10:30:11.928Z</time></trkpt><trkpt lat="46.0964233" lon="8.5805417"><ele>639.0</ele><time>2026-03-29T10:30:12.928Z</time></trkpt><trkpt lat="46.09653" lon="8.580545"><ele>639.0</ele><time>2026-03-29T10:30:14.928Z</time></trkpt><trkpt lat="46.0965167" lon="8.580315"><ele>639.0</ele><time>2026-03-29T10:30:16.928Z</time></trkpt><trkpt lat="46.0964933" lon="8.5801783"><ele>635.1666666666666</ele><time>2026-03-29T10:30:17.928Z</time></trkpt><trkpt lat="46.0964733" lon="8.58003"><ele>631.3333333333334</ele><time>2026-03-29T10:30:18.927Z</time></trkpt><trkpt lat="46.0964567" lon="8.5799067"><ele>627.5</ele><time>2026-03-29T10:30:19.928Z</time></trkpt><trkpt lat="46.0964433" lon="8.5797867"><ele>623.6666666666667</ele><time>2026-03-29T10:30:20.928Z</time></trkpt><trkpt lat="46.0964533" lon="8.579665"><ele>619.8333333333334</ele><time>2026-03-29T10:30:21.928Z</time></trkpt><trkpt lat="46.096485" lon="8.5795667"><ele>616.0</ele><time>2026-03-29T10:30:22.928Z</time></trkpt><trkpt lat="46.0965367" lon="8.5794633"><ele>628.2</ele><time>2026-03-29T10:30:23.928Z</time></trkpt><trkpt lat="46.0966083" lon="8.5793367"><ele>640.4000000000001</ele><time>2026-03-29T10:30:24.928Z</time></trkpt><trkpt lat="46.0966783" lon="8.579205"><ele>652.6</ele><time>2026-03-29T10:30:25.928Z</time></trkpt><trkpt lat="46.0967317" lon="8.5790667"><ele>664.8000000000001</ele><time>2026-03-29T10:30:26.927Z</time></trkpt><trkpt lat="46.0967767" lon="8.5789583"><ele>677.0</ele><time>2026-03-29T10:30:27.928Z</time></trkpt><trkpt lat="46.0968167" lon="8.5788417"><ele>677.0</ele><time>2026-03-29T10:30:28.928Z</time></trkpt><trkpt lat="46.0968733" lon="8.5787583"><ele>677.0</ele><time>2026-03-29T10:30:29.928Z</time></trkpt><trkpt lat="46.0969383" lon="8.5786683"><ele>677.0</ele><time>2026-03-29T10:30:30.928Z</time></trkpt><trkpt lat="46.097005" lon="8.578545"><ele>677.0</ele><time>2026-03-29T10:30:31.928Z</time></trkpt><trkpt lat="46.0970567" lon="8.5784033"><ele>677.0</ele><time>2026-03-29T10:30:32.928Z</time></trkpt><trkpt lat="46.0971033" lon="8.5782567"><ele>674.1666666666666</ele><time>2026-03-29T10:30:33.928Z</time></trkpt><trkpt lat="46.097135" lon="8.578135"><ele>671.3333333333333</ele><time>2026-03-29T10:30:34.928Z</time></trkpt><trkpt lat="46.09715" lon="8.5780217"><ele>668.5</ele><time>2026-03-29T10:30:35.928Z</time></trkpt><trkpt lat="46.0971583" lon="8.577925"><ele>665.6666666666666</ele><time>2026-03-29T10:30:36.928Z</time></trkpt><trkpt lat="46.0972" lon="8.5777567"><ele>662.8333333333334</ele><time>2026-03-29T10:30:38.928Z</time></trkpt><trkpt lat="46.09722" lon="8.5776433"><ele>660.0</ele><time>2026-03-29T10:30:39.927Z</time></trkpt><trkpt lat="46.0972417" lon="8.5775217"><ele>658.8333333333334</ele><time>2026-03-29T10:30:40.928Z</time></trkpt><trkpt lat="46.097245" lon="8.577395"><ele>657.6666666666666</ele><time>2026-03-29T10:30:41.927Z</time></trkpt><trkpt lat="46.09723" lon="8.57726"><ele>656.5</ele><time>2026-03-29T10:30:42.928Z</time></trkpt><trkpt lat="46.0972333" lon="8.5771267"><ele>655.3333333333333</ele><time>2026-03-29T10:30:43.928Z</time></trkpt><trkpt lat="46.097235" lon="8.5770117"><ele>654.1666666666666</ele><time>2026-03-29T10:30:44.928Z</time></trkpt><trkpt lat="46.09725" lon="8.5768817"><ele>653.0</ele><time>2026-03-29T10:30:45.928Z</time></trkpt><trkpt lat="46.097275" lon="8.5767483"><ele>653.0</ele><time>2026-03-29T10:30:46.928Z</time></trkpt><trkpt lat="46.097305" lon="8.5766167"><ele>653.0</ele><time>2026-03-29T10:30:47.927Z</time></trkpt><trkpt lat="46.097355" lon="8.5765033"><ele>653.0</ele><time>2026-03-29T10:30:48.927Z</time></trkpt><trkpt lat="46.0974017" lon="8.5763867"><ele>653.0</ele><time>2026-03-29T10:30:49.927Z</time></trkpt><trkpt lat="46.0974383" lon="8.5762783"><ele>653.0</ele><time>2026-03-29T10:30:50.928Z</time></trkpt><trkpt lat="46.0974367" lon="8.5761617"><ele>653.0</ele><time>2026-03-29T10:30:51.928Z</time></trkpt><trkpt lat="46.0974067" lon="8.57604"><ele>658.5</ele><time>2026-03-29T10:30:52.928Z</time></trkpt><trkpt lat="46.0973567" lon="8.5758967"><ele>664.0</ele><time>2026-03-29T10:30:53.928Z</time></trkpt><trkpt lat="46.0972967" lon="8.5757583"><ele>669.5</ele><time>2026-03-29T10:30:54.928Z</time></trkpt><trkpt lat="46.097235" lon="8.575615"><ele>675.0</ele><time>2026-03-29T10:30:55.928Z</time></trkpt><trkpt lat="46.0971883" lon="8.5754667"><ele>676.6</ele><time>2026-03-29T10:30:56.928Z</time></trkpt><trkpt lat="46.0971517" lon="8.5753183"><ele>678.2</ele><time>2026-03-29T10:30:57.928Z</time></trkpt><trkpt lat="46.0971183" lon="8.5751917"><ele>679.8</ele><time>2026-03-29T10:30:58.928Z</time></trkpt><trkpt lat="46.0970767" lon="8.5750783"><ele>681.4</ele><time>2026-03-29T10:30:59.928Z</time></trkpt><trkpt lat="46.0970183" lon="8.5749783"><ele>683.0</ele><time>2026-03-29T10:31:00.928Z</time></trkpt><trkpt lat="46.0969483" lon="8.5749067"><ele>683.0</ele><time>2026-03-29T10:31:01.928Z</time></trkpt><trkpt lat="46.0968883" lon="8.5748283"><ele>683.0</ele><time>2026-03-29T10:31:02.928Z</time></trkpt><trkpt lat="46.0968417" lon="8.5747467"><ele>683.0</ele><time>2026-03-29T10:31:03.927Z</time></trkpt><trkpt lat="46.096815" lon="8.5746433"><ele>683.0</ele><time>2026-03-29T10:31:04.927Z</time></trkpt><trkpt lat="46.0967983" lon="8.5745383"><ele>683.0</ele><time>2026-03-29T10:31:05.927Z</time></trkpt><trkpt lat="46.0968183" lon="8.5743533"><ele>683.0</ele><time>2026-03-29T10:31:07.928Z</time></trkpt><trkpt lat="46.096845" lon="8.5742483"><ele>684.5</ele><time>2026-03-29T10:31:08.927Z</time></trkpt><trkpt lat="46.096885" lon="8.574135"><ele>686.0</ele><time>2026-03-29T10:31:09.927Z</time></trkpt><trkpt lat="46.0969233" lon="8.5739983"><ele>687.5</ele><time>2026-03-29T10:31:10.927Z</time></trkpt><trkpt lat="46.09694" lon="8.5738917"><ele>689.0</ele><time>2026-03-29T10:31:11.928Z</time></trkpt><trkpt lat="46.0969383" lon="8.5737883"><ele>690.5</ele><time>2026-03-29T10:31:12.928Z</time></trkpt><trkpt lat="46.09691" lon="8.5736767"><ele>692.0</ele><time>2026-03-29T10:31:13.927Z</time></trkpt><trkpt lat="46.0968583" lon="8.5735667"><ele>693.8</ele><time>2026-03-29T10:31:14.928Z</time></trkpt><trkpt lat="46.0968033" lon="8.57347"><ele>695.6</ele><time>2026-03-29T10:31:15.928Z</time></trkpt><trkpt lat="46.09675" lon="8.5733617"><ele>697.4</ele><time>2026-03-29T10:31:16.928Z</time></trkpt><trkpt lat="46.0966867" lon="8.5732583"><ele>699.1999999999999</ele><time>2026-03-29T10:31:17.928Z</time></trkpt><trkpt lat="46.096615" lon="8.5731667"><ele>701.0</ele><time>2026-03-29T10:31:18.928Z</time></trkpt><trkpt lat="46.0965383" lon="8.5730783"><ele>698.0</ele><time>2026-03-29T10:31:19.927Z</time></trkpt><trkpt lat="46.0964567" lon="8.573005"><ele>695.0</ele><time>2026-03-29T10:31:20.928Z</time></trkpt><trkpt lat="46.096385" lon="8.5729367"><ele>692.0</ele><time>2026-03-29T10:31:21.928Z</time></trkpt><trkpt lat="46.0963267" lon="8.5728417"><ele>689.0</ele><time>2026-03-29T10:31:22.928Z</time></trkpt><trkpt lat="46.0962967" lon="8.57273"><ele>686.0</ele><time>2026-03-29T10:31:23.928Z</time></trkpt><trkpt lat="46.0962867" lon="8.5725967"><ele>683.0</ele><time>2026-03-29T10:31:24.928Z</time></trkpt><trkpt lat="46.0962817" lon="8.572445"><ele>683.0</ele><time>2026-03-29T10:31:25.928Z</time></trkpt><trkpt lat="46.0962583" lon="8.572295"><ele>683.0</ele><time>2026-03-29T10:31:26.928Z</time></trkpt><trkpt lat="46.096225" lon="8.572135"><ele>683.0</ele><time>2026-03-29T10:31:27.928Z</time></trkpt><trkpt lat="46.09617" lon="8.5719767"><ele>683.0</ele><time>2026-03-29T10:31:28.928Z</time></trkpt><trkpt lat="46.096115" lon="8.571815"><ele>687.0</ele><time>2026-03-29T10:31:29.928Z</time></trkpt><trkpt lat="46.0960533" lon="8.571645"><ele>691.0</ele><time>2026-03-29T10:31:30.927Z</time></trkpt><trkpt lat="46.0959867" lon="8.5714583"><ele>695.0</ele><time>2026-03-29T10:31:31.928Z</time></trkpt><trkpt lat="46.0959317" lon="8.5712567"><ele>699.0</ele><time>2026-03-29T10:31:32.928Z</time></trkpt><trkpt lat="46.0958617" lon="8.57106"><ele>695.25</ele><time>2026-03-29T10:31:33.928Z</time></trkpt><trkpt lat="46.095805" lon="8.5708617"><ele>691.5</ele><time>2026-03-29T10:31:34.928Z</time></trkpt><trkpt lat="46.0957333" lon="8.57069"><ele>687.75</ele><time>2026-03-29T10:31:35.928Z</time></trkpt><trkpt lat="46.0956633" lon="8.5705517"><ele>684.0</ele><time>2026-03-29T10:31:36.928Z</time></trkpt><trkpt lat="46.095575" lon="8.570435"><ele>687.4000000000001</ele><time>2026-03-29T10:31:37.928Z</time></trkpt><trkpt lat="46.09547" lon="8.5703267"><ele>690.8</ele><time>2026-03-29T10:31:38.928Z</time></trkpt><trkpt lat="46.0953717" lon="8.5702167"><ele>694.2</ele><time>2026-03-29T10:31:39.928Z</time></trkpt><trkpt lat="46.0952867" lon="8.570135"><ele>697.5999999999999</ele><time>2026-03-29T10:31:40.927Z</time></trkpt><trkpt lat="46.095235" lon="8.5700717"><ele>701.0</ele><time>2026-03-29T10:31:41.928Z</time></trkpt><trkpt lat="46.095185" lon="8.5699283"><ele>701.0</ele><time>2026-03-29T10:31:43.928Z</time></trkpt><trkpt lat="46.0952333" lon="8.569755"><ele>701.0</ele><time>2026-03-29T10:31:45.928Z</time></trkpt><trkpt lat="46.0952817" lon="8.5696483"><ele>701.0</ele><time>2026-03-29T10:31:46.928Z</time></trkpt><trkpt lat="46.0953133" lon="8.5695333"><ele>701.0</ele><time>2026-03-29T10:31:47.928Z</time></trkpt><trkpt lat="46.095335" lon="8.56943"><ele>701.0</ele><time>2026-03-29T10:31:48.928Z</time></trkpt><trkpt lat="46.095325" lon="8.5692967"><ele>703.1999999999999</ele><time>2026-03-29T10:31:49.928Z</time></trkpt><trkpt lat="46.0953" lon="8.5691717"><ele>705.4</ele><time>2026-03-29T10:31:50.928Z</time></trkpt><trkpt lat="46.0952617" lon="8.5690383"><ele>707.6</ele><time>2026-03-29T10:31:51.928Z</time></trkpt><trkpt lat="46.09519" lon="8.5689167"><ele>709.8</ele><time>2026-03-29T10:31:52.928Z</time></trkpt><trkpt lat="46.09511" lon="8.5688517"><ele>712.0</ele><time>2026-03-29T10:31:53.928Z</time></trkpt><trkpt lat="46.0950217" lon="8.5688117"><ele>712.0</ele><time>2026-03-29T10:31:54.927Z</time></trkpt><trkpt lat="46.0949483" lon="8.5687583"><ele>712.0</ele><time>2026-03-29T10:31:55.928Z</time></trkpt><trkpt lat="46.0948917" lon="8.568705"><ele>712.0</ele><time>2026-03-29T10:31:56.928Z</time></trkpt><trkpt lat="46.0948417" lon="8.5685883"><ele>712.0</ele><time>2026-03-29T10:31:58.928Z</time></trkpt><trkpt lat="46.0948783" lon="8.568435"><ele>712.0</ele><time>2026-03-29T10:32:00.928Z</time></trkpt><trkpt lat="46.0949317" lon="8.5683483"><ele>712.0</ele><time>2026-03-29T10:32:01.928Z</time></trkpt><trkpt lat="46.0950083" lon="8.5682383"><ele>713.8</ele><time>2026-03-29T10:32:02.928Z</time></trkpt><trkpt lat="46.0950883" lon="8.5681133"><ele>715.6</ele><time>2026-03-29T10:32:03.928Z</time></trkpt><trkpt lat="46.0951517" lon="8.567995"><ele>717.4</ele><time>2026-03-29T10:32:04.928Z</time></trkpt><trkpt lat="46.0951933" lon="8.5678883"><ele>719.1999999999999</ele><time>2026-03-29T10:32:05.927Z</time></trkpt><trkpt lat="46.0952" lon="8.56777"><ele>721.0</ele><time>2026-03-29T10:32:06.927Z</time></trkpt><trkpt lat="46.09519" lon="8.5676483"><ele>723.5</ele><time>2026-03-29T10:32:07.928Z</time></trkpt><trkpt lat="46.095135" lon="8.5675267"><ele>726.0</ele><time>2026-03-29T10:32:08.928Z</time></trkpt><trkpt lat="46.0950617" lon="8.5673917"><ele>728.5</ele><time>2026-03-29T10:32:09.928Z</time></trkpt><trkpt lat="46.09497" lon="8.56725"><ele>731.0</ele><time>2026-03-29T10:32:10.928Z</time></trkpt><trkpt lat="46.0948583" lon="8.5671333"><ele>726.8</ele><time>2026-03-29T10:32:11.928Z</time></trkpt><trkpt lat="46.0947517" lon="8.56704"><ele>722.5999999999999</ele><time>2026-03-29T10:32:12.928Z</time></trkpt><trkpt lat="46.0946683" lon="8.5669567"><ele>718.4</ele><time>2026-03-29T10:32:13.928Z</time></trkpt><trkpt lat="46.0946117" lon="8.56687"><ele>714.2</ele><time>2026-03-29T10:32:14.928Z</time></trkpt><trkpt lat="46.0945733" lon="8.5667717"><ele>710.0</ele><time>2026-03-29T10:32:15.928Z</time></trkpt><trkpt lat="46.0945583" lon="8.5666483"><ele>710.0</ele><time>2026-03-29T10:32:16.928Z</time></trkpt><trkpt lat="46.0945483" lon="8.5665067"><ele>710.0</ele><time>2026-03-29T10:32:17.928Z</time></trkpt><trkpt lat="46.0945533" lon="8.5663633"><ele>710.0</ele><time>2026-03-29T10:32:18.928Z</time></trkpt><trkpt lat="46.09457" lon="8.5662133"><ele>710.0</ele><time>2026-03-29T10:32:19.928Z</time></trkpt><trkpt lat="46.09458" lon="8.5660683"><ele>710.0</ele><time>2026-03-29T10:32:20.928Z</time></trkpt><trkpt lat="46.0945833" lon="8.5659267"><ele>710.0</ele><time>2026-03-29T10:32:21.927Z</time></trkpt><trkpt lat="46.0946" lon="8.565765"><ele>710.0</ele><time>2026-03-29T10:32:22.928Z</time></trkpt><trkpt lat="46.0946167" lon="8.5655867"><ele>710.0</ele><time>2026-03-29T10:32:23.928Z</time></trkpt><trkpt lat="46.0946433" lon="8.56541"><ele>710.0</ele><time>2026-03-29T10:32:24.928Z</time></trkpt><trkpt lat="46.09466" lon="8.5652383"><ele>710.0</ele><time>2026-03-29T10:32:25.927Z</time></trkpt><trkpt lat="46.0946517" lon="8.565085"><ele>710.0</ele><time>2026-03-29T10:32:26.928Z</time></trkpt><trkpt lat="46.09464" lon="8.56495"><ele>710.0</ele><time>2026-03-29T10:32:27.927Z</time></trkpt><trkpt lat="46.0946083" lon="8.5647383"><ele>710.0</ele><time>2026-03-29T10:32:29.928Z</time></trkpt><trkpt lat="46.0946217" lon="8.564645"><ele>710.0</ele><time>2026-03-29T10:32:30.928Z</time></trkpt><trkpt lat="46.0947" lon="8.56449"><ele>707.75</ele><time>2026-03-29T10:32:32.928Z</time></trkpt><trkpt lat="46.0947633" lon="8.5643833"><ele>705.5</ele><time>2026-03-29T10:32:33.928Z</time></trkpt><trkpt lat="46.0948283" lon="8.5642533"><ele>703.25</ele><time>2026-03-29T10:32:34.928Z</time></trkpt><trkpt lat="46.09488" lon="8.5640867"><ele>701.0</ele><time>2026-03-29T10:32:35.928Z</time></trkpt><trkpt lat="46.0949233" lon="8.5638883"><ele>715.0</ele><time>2026-03-29T10:32:36.927Z</time></trkpt><trkpt lat="46.094965" lon="8.56367"><ele>729.0</ele><time>2026-03-29T10:32:37.927Z</time></trkpt><trkpt lat="46.0950067" lon="8.5634383"><ele>743.0</ele><time>2026-03-29T10:32:38.927Z</time></trkpt><trkpt lat="46.0950517" lon="8.5632067"><ele>743.0</ele><time>2026-03-29T10:32:39.927Z</time></trkpt><trkpt lat="46.0950917" lon="8.5629883"><ele>743.0</ele><time>2026-03-29T10:32:40.927Z</time></trkpt><trkpt lat="46.0951433" lon="8.56278"><ele>743.0</ele><time>2026-03-29T10:32:41.927Z</time></trkpt><trkpt lat="46.0951817" lon="8.5625733"><ele>739.25</ele><time>2026-03-29T10:32:42.926Z</time></trkpt><trkpt lat="46.0952183" lon="8.5623867"><ele>735.5</ele><time>2026-03-29T10:32:43.927Z</time></trkpt><trkpt lat="46.09526" lon="8.5622267"><ele>731.75</ele><time>2026-03-29T10:32:44.927Z</time></trkpt><trkpt lat="46.0952983" lon="8.5620733"><ele>728.0</ele><time>2026-03-29T10:32:45.927Z</time></trkpt><trkpt lat="46.09534" lon="8.5619217"><ele>725.0</ele><time>2026-03-29T10:32:46.927Z</time></trkpt><trkpt lat="46.0954033" lon="8.5617667"><ele>722.0</ele><time>2026-03-29T10:32:47.927Z</time></trkpt><trkpt lat="46.0954483" lon="8.5615983"><ele>719.0</ele><time>2026-03-29T10:32:48.927Z</time></trkpt><trkpt lat="46.0955317" lon="8.5612817"><ele>719.0</ele><time>2026-03-29T10:32:50.927Z</time></trkpt><trkpt lat="46.0955583" lon="8.5611467"><ele>719.0</ele><time>2026-03-29T10:32:51.927Z</time></trkpt><trkpt lat="46.0956117" lon="8.5610283"><ele>719.0</ele><time>2026-03-29T10:32:52.927Z</time></trkpt><trkpt lat="46.095675" lon="8.5609167"><ele>719.0</ele><time>2026-03-29T10:32:53.927Z</time></trkpt><trkpt lat="46.0957567" lon="8.5608183"><ele>719.0</ele><time>2026-03-29T10:32:54.927Z</time></trkpt><trkpt lat="46.0958283" lon="8.560735"><ele>725.3333333333333</ele><time>2026-03-29T10:32:55.927Z</time></trkpt><trkpt lat="46.0959" lon="8.5606733"><ele>731.6666666666666</ele><time>2026-03-29T10:32:56.926Z</time></trkpt><trkpt lat="46.0959717" lon="8.56064"><ele>738.0</ele><time>2026-03-29T10:32:57.927Z</time></trkpt><trkpt lat="46.0960467" lon="8.5606183"><ele>744.3333333333334</ele><time>2026-03-29T10:32:58.927Z</time></trkpt><trkpt lat="46.0961167" lon="8.5605833"><ele>750.6666666666667</ele><time>2026-03-29T10:32:59.927Z</time></trkpt><trkpt lat="46.0961783" lon="8.5605267"><ele>757.0</ele><time>2026-03-29T10:33:00.927Z</time></trkpt><trkpt lat="46.0962283" lon="8.5604417"><ele>757.0</ele><time>2026-03-29T10:33:02.927Z</time></trkpt></trkseg><trkseg><trkpt lat="45.8830767" lon="8.5453467"><ele>197.0</ele><time>2026-03-29T12:37:26.951Z</time></trkpt><trkpt lat="45.88303" lon="8.5456417"><ele>197.0</ele><time>2026-03-29T12:37:28.951Z</time></trkpt><trkpt lat="45.8829867" lon="8.54584"><ele>197.0</ele><time>2026-03-29T12:37:29.951Z</time></trkpt><trkpt lat="45.8829567" lon="8.5460317"><ele>196.25</ele><time>2026-03-29T12:37:30.95Z</time></trkpt><trkpt lat="45.8829117" lon="8.5462283"><ele>195.5</ele><time>2026-03-29T12:37:31.951Z</time></trkpt><trkpt lat="45.882865" lon="8.546395"><ele>194.75</ele><time>2026-03-29T12:37:32.951Z</time></trkpt><trkpt lat="45.8827833" lon="8.5465617"><ele>194.0</ele><time>2026-03-29T12:37:33.951Z</time></trkpt><trkpt lat="45.8826783" lon="8.5467183"><ele>196.33333333333334</ele><time>2026-03-29T12:37:34.951Z</time></trkpt><trkpt lat="45.88257" lon="8.5468667"><ele>198.66666666666669</ele><time>2026-03-29T12:37:35.951Z</time></trkpt><trkpt lat="45.882465" lon="8.5470433"><ele>201.0</ele><time>2026-03-29T12:37:36.951Z</time></trkpt><trkpt lat="45.8823583" lon="8.54723"><ele>201.0</ele><time>2026-03-29T12:37:37.951Z</time></trkpt><trkpt lat="45.8822617" lon="8.5474267"><ele>201.0</ele><time>2026-03-29T12:37:38.951Z</time></trkpt><trkpt lat="45.8821583" lon="8.5476267"><ele>201.0</ele><time>2026-03-29T12:37:39.951Z</time></trkpt><trkpt lat="45.88206" lon="8.547855"><ele>198.66666666666669</ele><time>2026-03-29T12:37:40.951Z</time></trkpt><trkpt lat="45.8819533" lon="8.548085"><ele>196.33333333333334</ele><time>2026-03-29T12:37:41.951Z</time></trkpt><trkpt lat="45.881845" lon="8.5483217"><ele>194.0</ele><time>2026-03-29T12:37:42.951Z</time></trkpt><trkpt lat="45.8817467" lon="8.5485417"><ele>197.33333333333334</ele><time>2026-03-29T12:37:43.951Z</time></trkpt><trkpt lat="45.881645" lon="8.548755"><ele>200.66666666666669</ele><time>2026-03-29T12:37:44.951Z</time></trkpt><trkpt lat="45.8815433" lon="8.548955"><ele>204.0</ele><time>2026-03-29T12:37:45.951Z</time></trkpt><trkpt lat="45.8814517" lon="8.549175"><ele>204.0</ele><time>2026-03-29T12:37:46.951Z</time></trkpt><trkpt lat="45.8813717" lon="8.5494033"><ele>204.0</ele><time>2026-03-29T12:37:47.951Z</time></trkpt><trkpt lat="45.8812883" lon="8.5496333"><ele>204.0</ele><time>2026-03-29T12:37:48.951Z</time></trkpt><trkpt lat="45.8812217" lon="8.5498717"><ele>201.0</ele><time>2026-03-29T12:37:49.951Z</time></trkpt><trkpt lat="45.88116" lon="8.5501217"><ele>198.0</ele><time>2026-03-29T12:37:50.951Z</time></trkpt><trkpt lat="45.8811117" lon="8.5503767"><ele>195.0</ele><time>2026-03-29T12:37:51.951Z</time></trkpt><trkpt lat="45.8810733" lon="8.5506283"><ele>194.0</ele><time>2026-03-29T12:37:52.951Z</time></trkpt><trkpt lat="45.881035" lon="8.5508667"><ele>193.0</ele><time>2026-03-29T12:37:53.951Z</time></trkpt><trkpt lat="45.8809917" lon="8.5511017"><ele>192.0</ele><time>2026-03-29T12:37:54.951Z</time></trkpt><trkpt lat="45.8809517" lon="8.5513133"><ele>194.25</ele><time>2026-03-29T12:37:55.951Z</time></trkpt><trkpt lat="45.8809183" lon="8.5515167"><ele>196.5</ele><time>2026-03-29T12:37:56.951Z</time></trkpt><trkpt lat="45.880885" lon="8.551725"><ele>198.75</ele><time>2026-03-29T12:37:57.951Z</time></trkpt><trkpt lat="45.88085" lon="8.5519333"><ele>201.0</ele><time>2026-03-29T12:37:58.951Z</time></trkpt><trkpt lat="45.88082" lon="8.5521267"><ele>201.0</ele><time>2026-03-29T12:37:59.949Z</time></trkpt><trkpt lat="45.8807767" lon="8.552315"><ele>201.0</ele><time>2026-03-29T12:38:00.95Z</time></trkpt><trkpt lat="45.880715" lon="8.5524783"><ele>201.0</ele><time>2026-03-29T12:38:01.949Z</time></trkpt><trkpt lat="45.8806283" lon="8.55264"><ele>201.0</ele><time>2026-03-29T12:38:02.95Z</time></trkpt><trkpt lat="45.88052" lon="8.5528033"><ele>197.66666666666666</ele><time>2026-03-29T12:38:03.95Z</time></trkpt><trkpt lat="45.8804033" lon="8.5529867"><ele>194.33333333333331</ele><time>2026-03-29T12:38:04.95Z</time></trkpt><trkpt lat="45.8802783" lon="8.5531983"><ele>191.0</ele><time>2026-03-29T12:38:05.95Z</time></trkpt><trkpt lat="45.8801533" lon="8.5534017"><ele>194.33333333333331</ele><time>2026-03-29T12:38:06.95Z</time></trkpt><trkpt lat="45.88003" lon="8.5535883"><ele>197.66666666666666</ele><time>2026-03-29T12:38:07.95Z</time></trkpt><trkpt lat="45.87991" lon="8.5537867"><ele>201.0</ele><time>2026-03-29T12:38:08.95Z</time></trkpt><trkpt lat="45.8797917" lon="8.5539933"><ele>201.0</ele><time>2026-03-29T12:38:09.95Z</time></trkpt><trkpt lat="45.8796883" lon="8.5541967"><ele>201.0</ele><time>2026-03-29T12:38:10.95Z</time></trkpt><trkpt lat="45.8795817" lon="8.5544083"><ele>201.0</ele><time>2026-03-29T12:38:11.95Z</time></trkpt><trkpt lat="45.8794867" lon="8.5546167"><ele>198.66666666666669</ele><time>2026-03-29T12:38:12.95Z</time></trkpt><trkpt lat="45.8793933" lon="8.5548133"><ele>196.33333333333334</ele><time>2026-03-29T12:38:13.95Z</time></trkpt><trkpt lat="45.879305" lon="8.55502"><ele>194.0</ele><time>2026-03-29T12:38:14.95Z</time></trkpt><trkpt lat="45.8792283" lon="8.5552033"><ele>195.25</ele><time>2026-03-29T12:38:15.95Z</time></trkpt><trkpt lat="45.8791583" lon="8.5553733"><ele>196.5</ele><time>2026-03-29T12:38:16.95Z</time></trkpt><trkpt lat="45.879075" lon="8.55554"><ele>197.75</ele><time>2026-03-29T12:38:17.95Z</time></trkpt><trkpt lat="45.8789717" lon="8.5557067"><ele>199.0</ele><time>2026-03-29T12:38:18.95Z</time></trkpt><trkpt lat="45.878855" lon="8.5558517"><ele>199.0</ele><time>2026-03-29T12:38:19.95Z</time></trkpt><trkpt lat="45.8787267" lon="8.55597"><ele>199.0</ele><time>2026-03-29T12:38:20.95Z</time></trkpt><trkpt lat="45.8785983" lon="8.556095"><ele>199.0</ele><time>2026-03-29T12:38:21.95Z</time></trkpt><trkpt lat="45.8784667" lon="8.5562333"><ele>199.66666666666666</ele><time>2026-03-29T12:38:22.95Z</time></trkpt><trkpt lat="45.8783283" lon="8.5563667"><ele>200.33333333333331</ele><time>2026-03-29T12:38:23.95Z</time></trkpt><trkpt lat="45.8781967" lon="8.5565117"><ele>201.0</ele><time>2026-03-29T12:38:24.95Z</time></trkpt><trkpt lat="45.87807" lon="8.5566667"><ele>201.0</ele><time>2026-03-29T12:38:25.95Z</time></trkpt><trkpt lat="45.87795" lon="8.5568433"><ele>201.0</ele><time>2026-03-29T12:38:26.95Z</time></trkpt><trkpt lat="45.8778333" lon="8.55702"><ele>201.0</ele><time>2026-03-29T12:38:27.95Z</time></trkpt><trkpt lat="45.877715" lon="8.5572017"><ele>204.33333333333331</ele><time>2026-03-29T12:38:28.95Z</time></trkpt><trkpt lat="45.8775933" lon="8.55738"><ele>207.66666666666666</ele><time>2026-03-29T12:38:29.95Z</time></trkpt><trkpt lat="45.877465" lon="8.55756"><ele>211.0</ele><time>2026-03-29T12:38:30.95Z</time></trkpt><trkpt lat="45.877355" lon="8.5577467"><ele>207.0</ele><time>2026-03-29T12:38:31.95Z</time></trkpt><trkpt lat="45.877245" lon="8.5579167"><ele>203.0</ele><time>2026-03-29T12:38:32.949Z</time></trkpt><trkpt lat="45.8771167" lon="8.5580817"><ele>199.0</ele><time>2026-03-29T12:38:33.95Z</time></trkpt><trkpt lat="45.87698" lon="8.5582233"><ele>199.0</ele><time>2026-03-29T12:38:34.95Z</time></trkpt><trkpt lat="45.8768317" lon="8.55836"><ele>199.0</ele><time>2026-03-29T12:38:35.95Z</time></trkpt><trkpt lat="45.8766933" lon="8.5584983"><ele>199.0</ele><time>2026-03-29T12:38:36.95Z</time></trkpt><trkpt lat="45.8765383" lon="8.558635"><ele>199.33333333333331</ele><time>2026-03-29T12:38:37.949Z</time></trkpt><trkpt lat="45.8763833" lon="8.5587817"><ele>199.66666666666669</ele><time>2026-03-29T12:38:38.949Z</time></trkpt><trkpt lat="45.8762317" lon="8.5589367"><ele>200.0</ele><time>2026-03-29T12:38:39.95Z</time></trkpt><trkpt lat="45.8760783" lon="8.55908"><ele>202.33333333333334</ele><time>2026-03-29T12:38:40.949Z</time></trkpt><trkpt lat="45.87592" lon="8.5592217"><ele>204.66666666666669</ele><time>2026-03-29T12:38:41.95Z</time></trkpt><trkpt lat="45.8757817" lon="8.5593517"><ele>207.0</ele><time>2026-03-29T12:38:42.95Z</time></trkpt><trkpt lat="45.8756383" lon="8.559485"><ele>204.0</ele><time>2026-03-29T12:38:43.95Z</time></trkpt><trkpt lat="45.875495" lon="8.5596083"><ele>201.0</ele><time>2026-03-29T12:38:44.949Z</time></trkpt><trkpt lat="45.8753567" lon="8.559705"><ele>198.0</ele><time>2026-03-29T12:38:45.95Z</time></trkpt><trkpt lat="45.8752217" lon="8.55985"><ele>200.66666666666669</ele><time>2026-03-29T12:38:46.95Z</time></trkpt><trkpt lat="45.8750867" lon="8.55999"><ele>203.33333333333334</ele><time>2026-03-29T12:38:47.95Z</time></trkpt><trkpt lat="45.8749483" lon="8.5601333"><ele>206.0</ele><time>2026-03-29T12:38:48.95Z</time></trkpt><trkpt lat="45.8748167" lon="8.56026"><ele>202.33333333333334</ele><time>2026-03-29T12:38:49.95Z</time></trkpt><trkpt lat="45.8746817" lon="8.560395"><ele>198.66666666666669</ele><time>2026-03-29T12:38:50.95Z</time></trkpt><trkpt lat="45.8745533" lon="8.5605083"><ele>195.0</ele><time>2026-03-29T12:38:51.95Z</time></trkpt><trkpt lat="45.87443" lon="8.56063"><ele>195.0</ele><time>2026-03-29T12:38:52.95Z</time></trkpt><trkpt lat="45.874295" lon="8.56076"><ele>195.0</ele><time>2026-03-29T12:38:53.95Z</time></trkpt><trkpt lat="45.8741667" lon="8.5608883"><ele>195.0</ele><time>2026-03-29T12:38:54.95Z</time></trkpt><trkpt lat="45.8740183" lon="8.5610333"><ele>197.0</ele><time>2026-03-29T12:38:55.95Z</time></trkpt><trkpt lat="45.87387" lon="8.5612083"><ele>199.0</ele><time>2026-03-29T12:38:56.949Z</time></trkpt><trkpt lat="45.8737283" lon="8.5613783"><ele>201.0</ele><time>2026-03-29T12:38:57.95Z</time></trkpt><trkpt lat="45.8735917" lon="8.5615783"><ele>201.0</ele><time>2026-03-29T12:38:58.949Z</time></trkpt><trkpt lat="45.87347" lon="8.561785"><ele>201.0</ele><time>2026-03-29T12:38:59.95Z</time></trkpt><trkpt lat="45.873345" lon="8.5619867"><ele>201.0</ele><time>2026-03-29T12:39:00.95Z</time></trkpt><trkpt lat="45.8732133" lon="8.5621683"><ele>200.0</ele><time>2026-03-29T12:39:01.949Z</time></trkpt><trkpt lat="45.8730667" lon="8.5623083"><ele>199.0</ele><time>2026-03-29T12:39:02.95Z</time></trkpt><trkpt lat="45.8728967" lon="8.5624167"><ele>198.0</ele><time>2026-03-29T12:39:03.949Z</time></trkpt><trkpt lat="45.8727183" lon="8.5625233"><ele>201.0</ele><time>2026-03-29T12:39:04.95Z</time></trkpt><trkpt lat="45.87254" lon="8.56261"><ele>204.0</ele><time>2026-03-29T12:39:05.95Z</time></trkpt><trkpt lat="45.872355" lon="8.5627133"><ele>207.0</ele><time>2026-03-29T12:39:06.95Z</time></trkpt><trkpt lat="45.8721717" lon="8.5628133"><ele>205.0</ele><time>2026-03-29T12:39:07.95Z</time></trkpt><trkpt lat="45.8719933" lon="8.5629133"><ele>203.0</ele><time>2026-03-29T12:39:08.95Z</time></trkpt><trkpt lat="45.87182" lon="8.5630117"><ele>201.0</ele><time>2026-03-29T12:39:09.95Z</time></trkpt><trkpt lat="45.87166" lon="8.5631133"><ele>201.0</ele><time>2026-03-29T12:39:10.95Z</time></trkpt><trkpt lat="45.871515" lon="8.5632533"><ele>201.0</ele><time>2026-03-29T12:39:11.95Z</time></trkpt><trkpt lat="45.871395" lon="8.56343"><ele>201.0</ele><time>2026-03-29T12:39:12.95Z</time></trkpt><trkpt lat="45.8712817" lon="8.563605"><ele>201.33333333333331</ele><time>2026-03-29T12:39:13.95Z</time></trkpt><trkpt lat="45.8711767" lon="8.5637833"><ele>201.66666666666666</ele><time>2026-03-29T12:39:14.95Z</time></trkpt><trkpt lat="45.8710617" lon="8.5639433"><ele>202.0</ele><time>2026-03-29T12:39:15.95Z</time></trkpt><trkpt lat="45.8709233" lon="8.56409"><ele>202.0</ele><time>2026-03-29T12:39:16.95Z</time></trkpt><trkpt lat="45.8707783" lon="8.5641983"><ele>202.0</ele><time>2026-03-29T12:39:17.95Z</time></trkpt><trkpt lat="45.8706217" lon="8.5642783"><ele>202.0</ele><time>2026-03-29T12:39:18.95Z</time></trkpt><trkpt lat="45.8704517" lon="8.56434"><ele>202.0</ele><time>2026-03-29T12:39:19.95Z</time></trkpt><trkpt lat="45.8702683" lon="8.5644183"><ele>202.0</ele><time>2026-03-29T12:39:20.95Z</time></trkpt><trkpt lat="45.870085" lon="8.5644917"><ele>202.0</ele><time>2026-03-29T12:39:21.95Z</time></trkpt><trkpt lat="45.8699067" lon="8.5645733"><ele>200.33333333333331</ele><time>2026-03-29T12:39:22.95Z</time></trkpt><trkpt lat="45.8697217" lon="8.5646533"><ele>198.66666666666669</ele><time>2026-03-29T12:39:23.95Z</time></trkpt><trkpt lat="45.8695217" lon="8.5647383"><ele>197.0</ele><time>2026-03-29T12:39:24.95Z</time></trkpt><trkpt lat="45.8693383" lon="8.5648283"><ele>201.33333333333334</ele><time>2026-03-29T12:39:25.95Z</time></trkpt><trkpt lat="45.8691517" lon="8.5649217"><ele>205.66666666666669</ele><time>2026-03-29T12:39:26.95Z</time></trkpt><trkpt lat="45.8689667" lon="8.565005"><ele>210.0</ele><time>2026-03-29T12:39:27.949Z</time></trkpt><trkpt lat="45.868785" lon="8.5650717"><ele>210.0</ele><time>2026-03-29T12:39:28.95Z</time></trkpt><trkpt lat="45.8685883" lon="8.5651483"><ele>210.0</ele><time>2026-03-29T12:39:29.95Z</time></trkpt><trkpt lat="45.8683933" lon="8.56522"><ele>210.0</ele><time>2026-03-29T12:39:30.95Z</time></trkpt><trkpt lat="45.8681983" lon="8.5652883"><ele>209.0</ele><time>2026-03-29T12:39:31.95Z</time></trkpt><trkpt lat="45.8679883" lon="8.5653667"><ele>208.0</ele><time>2026-03-29T12:39:32.95Z</time></trkpt><trkpt lat="45.8677817" lon="8.565425"><ele>207.0</ele><time>2026-03-29T12:39:33.95Z</time></trkpt><trkpt lat="45.8675683" lon="8.565505"><ele>206.0</ele><time>2026-03-29T12:39:34.95Z</time></trkpt><trkpt lat="45.86737" lon="8.5655833"><ele>205.0</ele><time>2026-03-29T12:39:35.95Z</time></trkpt><trkpt lat="45.867165" lon="8.5656483"><ele>204.0</ele><time>2026-03-29T12:39:36.95Z</time></trkpt><trkpt lat="45.866955" lon="8.56574"><ele>204.66666666666669</ele><time>2026-03-29T12:39:37.95Z</time></trkpt><trkpt lat="45.8667467" lon="8.5658483"><ele>205.33333333333334</ele><time>2026-03-29T12:39:38.95Z</time></trkpt><trkpt lat="45.8665567" lon="8.5659667"><ele>206.0</ele><time>2026-03-29T12:39:39.95Z</time></trkpt><trkpt lat="45.86637" lon="8.5660967"><ele>205.0</ele><time>2026-03-29T12:39:40.95Z</time></trkpt><trkpt lat="45.866185" lon="8.5662333"><ele>204.0</ele><time>2026-03-29T12:39:41.95Z</time></trkpt><trkpt lat="45.866" lon="8.5663733"><ele>203.0</ele><time>2026-03-29T12:39:42.95Z</time></trkpt><trkpt lat="45.86581" lon="8.5665083"><ele>203.0</ele><time>2026-03-29T12:39:43.95Z</time></trkpt><trkpt lat="45.86562" lon="8.56664"><ele>203.0</ele><time>2026-03-29T12:39:44.95Z</time></trkpt><trkpt lat="45.8654367" lon="8.5667667"><ele>203.0</ele><time>2026-03-29T12:39:45.95Z</time></trkpt><trkpt lat="45.865265" lon="8.566885"><ele>203.0</ele><time>2026-03-29T12:39:46.95Z</time></trkpt><trkpt lat="45.8650983" lon="8.56699"><ele>203.0</ele><time>2026-03-29T12:39:47.95Z</time></trkpt><trkpt lat="45.86493" lon="8.5670867"><ele>203.0</ele><time>2026-03-29T12:39:48.95Z</time></trkpt><trkpt lat="45.8647533" lon="8.56716"><ele>203.0</ele><time>2026-03-29T12:39:49.95Z</time></trkpt><trkpt lat="45.86456" lon="8.567205"><ele>203.0</ele><time>2026-03-29T12:39:50.95Z</time></trkpt><trkpt lat="45.8643683" lon="8.567225"><ele>203.0</ele><time>2026-03-29T12:39:51.95Z</time></trkpt><trkpt lat="45.8641733" lon="8.5672517"><ele>202.0</ele><time>2026-03-29T12:39:52.95Z</time></trkpt><trkpt lat="45.86399" lon="8.56726"><ele>201.0</ele><time>2026-03-29T12:39:53.95Z</time></trkpt><trkpt lat="45.8638067" lon="8.567305"><ele>200.0</ele><time>2026-03-29T12:39:54.95Z</time></trkpt><trkpt lat="45.8636283" lon="8.567305"><ele>200.0</ele><time>2026-03-29T12:39:55.95Z</time></trkpt><trkpt lat="45.8634483" lon="8.567325"><ele>200.0</ele><time>2026-03-29T12:39:56.95Z</time></trkpt><trkpt lat="45.8632633" lon="8.56735"><ele>200.0</ele><time>2026-03-29T12:39:57.95Z</time></trkpt><trkpt lat="45.8630817" lon="8.5673717"><ele>200.66666666666669</ele><time>2026-03-29T12:39:58.95Z</time></trkpt><trkpt lat="45.8628983" lon="8.567385"><ele>201.33333333333331</ele><time>2026-03-29T12:39:59.949Z</time></trkpt><trkpt lat="45.8627133" lon="8.5674"><ele>202.0</ele><time>2026-03-29T12:40:00.949Z</time></trkpt><trkpt lat="45.86252" lon="8.5674017"><ele>202.33333333333331</ele><time>2026-03-29T12:40:01.95Z</time></trkpt><trkpt lat="45.8623233" lon="8.5674083"><ele>202.66666666666669</ele><time>2026-03-29T12:40:02.95Z</time></trkpt><trkpt lat="45.86212" lon="8.5674067"><ele>203.0</ele><time>2026-03-29T12:40:03.95Z</time></trkpt><trkpt lat="45.861915" lon="8.5674067"><ele>203.66666666666669</ele><time>2026-03-29T12:40:04.95Z</time></trkpt><trkpt lat="45.8616983" lon="8.567415"><ele>204.33333333333331</ele><time>2026-03-29T12:40:05.95Z</time></trkpt><trkpt lat="45.861485" lon="8.5674333"><ele>205.0</ele><time>2026-03-29T12:40:06.95Z</time></trkpt><trkpt lat="45.8612717" lon="8.5674683"><ele>205.0</ele><time>2026-03-29T12:40:07.95Z</time></trkpt><trkpt lat="45.8610583" lon="8.5675183"><ele>205.0</ele><time>2026-03-29T12:40:08.949Z</time></trkpt><trkpt lat="45.8608583" lon="8.567575"><ele>205.0</ele><time>2026-03-29T12:40:09.95Z</time></trkpt><trkpt lat="45.8606467" lon="8.56764"><ele>206.0</ele><time>2026-03-29T12:40:10.95Z</time></trkpt><trkpt lat="45.8604367" lon="8.5676983"><ele>207.0</ele><time>2026-03-29T12:40:11.95Z</time></trkpt><trkpt lat="45.8602183" lon="8.5677567"><ele>208.0</ele><time>2026-03-29T12:40:12.95Z</time></trkpt><trkpt lat="45.86" lon="8.5678117"><ele>205.0</ele><time>2026-03-29T12:40:13.95Z</time></trkpt><trkpt lat="45.8597833" lon="8.5678817"><ele>202.0</ele><time>2026-03-29T12:40:14.95Z</time></trkpt><trkpt lat="45.85957" lon="8.56794"><ele>199.0</ele><time>2026-03-29T12:40:15.949Z</time></trkpt><trkpt lat="45.8593567" lon="8.5679967"><ele>199.33333333333331</ele><time>2026-03-29T12:40:16.95Z</time></trkpt><trkpt lat="45.8591367" lon="8.5680533"><ele>199.66666666666669</ele><time>2026-03-29T12:40:17.95Z</time></trkpt><trkpt lat="45.8589217" lon="8.5681"><ele>200.0</ele><time>2026-03-29T12:40:18.95Z</time></trkpt><trkpt lat="45.85872" lon="8.5681567"><ele>200.0</ele><time>2026-03-29T12:40:19.95Z</time></trkpt><trkpt lat="45.85853" lon="8.5681917"><ele>200.0</ele><time>2026-03-29T12:40:20.949Z</time></trkpt><trkpt lat="45.858335" lon="8.568215"><ele>200.0</ele><time>2026-03-29T12:40:21.95Z</time></trkpt><trkpt lat="45.85815" lon="8.5682267"><ele>202.33333333333334</ele><time>2026-03-29T12:40:22.949Z</time></trkpt><trkpt lat="45.857965" lon="8.5682417"><ele>204.66666666666669</ele><time>2026-03-29T12:40:23.95Z</time></trkpt><trkpt lat="45.85778" lon="8.5682567"><ele>207.0</ele><time>2026-03-29T12:40:24.95Z</time></trkpt><trkpt lat="45.857605" lon="8.5682733"><ele>208.33333333333331</ele><time>2026-03-29T12:40:25.95Z</time></trkpt><trkpt lat="45.85745" lon="8.5682917"><ele>209.66666666666666</ele><time>2026-03-29T12:40:26.95Z</time></trkpt><trkpt lat="45.8572917" lon="8.5683117"><ele>211.0</ele><time>2026-03-29T12:40:27.95Z</time></trkpt><trkpt lat="45.8571217" lon="8.56834"><ele>211.0</ele><time>2026-03-29T12:40:28.95Z</time></trkpt><trkpt lat="45.85695" lon="8.5683467"><ele>211.0</ele><time>2026-03-29T12:40:29.95Z</time></trkpt><trkpt lat="45.8567783" lon="8.5683667"><ele>211.0</ele><time>2026-03-29T12:40:30.95Z</time></trkpt><trkpt lat="45.8565933" lon="8.5684133"><ele>211.33333333333331</ele><time>2026-03-29T12:40:31.95Z</time></trkpt><trkpt lat="45.8564033" lon="8.568485"><ele>211.66666666666669</ele><time>2026-03-29T12:40:32.95Z</time></trkpt><trkpt lat="45.8562083" lon="8.5685383"><ele>212.0</ele><time>2026-03-29T12:40:33.95Z</time></trkpt><trkpt lat="45.8560217" lon="8.5685983"><ele>212.66666666666669</ele><time>2026-03-29T12:40:34.95Z</time></trkpt><trkpt lat="45.85584" lon="8.5686567"><ele>213.33333333333331</ele><time>2026-03-29T12:40:35.95Z</time></trkpt><trkpt lat="45.85566" lon="8.56872"><ele>214.0</ele><time>2026-03-29T12:40:36.95Z</time></trkpt><trkpt lat="45.8554883" lon="8.5687667"><ele>210.0</ele><time>2026-03-29T12:40:37.949Z</time></trkpt><trkpt lat="45.8553167" lon="8.5688167"><ele>206.0</ele><time>2026-03-29T12:40:38.95Z</time></trkpt><trkpt lat="45.8551483" lon="8.568865"><ele>202.0</ele><time>2026-03-29T12:40:39.95Z</time></trkpt><trkpt lat="45.8549733" lon="8.568935"><ele>201.66666666666666</ele><time>2026-03-29T12:40:40.95Z</time></trkpt><trkpt lat="45.8547983" lon="8.5689983"><ele>201.33333333333331</ele><time>2026-03-29T12:40:41.95Z</time></trkpt><trkpt lat="45.8546283" lon="8.569065"><ele>201.0</ele><time>2026-03-29T12:40:42.95Z</time></trkpt><trkpt lat="45.8544567" lon="8.5691183"><ele>201.0</ele><time>2026-03-29T12:40:43.95Z</time></trkpt><trkpt lat="45.8542883" lon="8.569165"><ele>201.0</ele><time>2026-03-29T12:40:44.95Z</time></trkpt><trkpt lat="45.8541167" lon="8.5692183"><ele>201.0</ele><time>2026-03-29T12:40:45.95Z</time></trkpt><trkpt lat="45.853945" lon="8.5692633"><ele>204.0</ele><time>2026-03-29T12:40:46.95Z</time></trkpt><trkpt lat="45.8537717" lon="8.5693183"><ele>207.0</ele><time>2026-03-29T12:40:47.95Z</time></trkpt><trkpt lat="45.8535917" lon="8.56937"><ele>210.0</ele><time>2026-03-29T12:40:48.95Z</time></trkpt><trkpt lat="45.85341" lon="8.5694217"><ele>212.33333333333331</ele><time>2026-03-29T12:40:49.95Z</time></trkpt><trkpt lat="45.8532283" lon="8.5694683"><ele>214.66666666666666</ele><time>2026-03-29T12:40:50.95Z</time></trkpt><trkpt lat="45.85305" lon="8.569515"><ele>217.0</ele><time>2026-03-29T12:40:51.95Z</time></trkpt><trkpt lat="45.8528767" lon="8.569565"><ele>211.33333333333331</ele><time>2026-03-29T12:40:52.95Z</time></trkpt><trkpt lat="45.85272" lon="8.569605"><ele>205.66666666666669</ele><time>2026-03-29T12:40:53.95Z</time></trkpt><trkpt lat="45.8525583" lon="8.5696517"><ele>200.0</ele><time>2026-03-29T12:40:54.95Z</time></trkpt><trkpt lat="45.8524" lon="8.5696917"><ele>199.66666666666669</ele><time>2026-03-29T12:40:55.95Z</time></trkpt><trkpt lat="45.85224" lon="8.5697283"><ele>199.33333333333331</ele><time>2026-03-29T12:40:56.95Z</time></trkpt><trkpt lat="45.85207" lon="8.56976"><ele>199.0</ele><time>2026-03-29T12:40:57.949Z</time></trkpt><trkpt lat="45.851905" lon="8.5697733"><ele>200.0</ele><time>2026-03-29T12:40:58.95Z</time></trkpt><trkpt lat="45.8517533" lon="8.5697583"><ele>201.0</ele><time>2026-03-29T12:40:59.95Z</time></trkpt><trkpt lat="45.851595" lon="8.5697733"><ele>202.0</ele><time>2026-03-29T12:41:00.95Z</time></trkpt><trkpt lat="45.8514467" lon="8.5697733"><ele>202.0</ele><time>2026-03-29T12:41:01.95Z</time></trkpt><trkpt lat="45.8513033" lon="8.569775"><ele>202.0</ele><time>2026-03-29T12:41:02.95Z</time></trkpt><trkpt lat="45.8511617" lon="8.5697867"><ele>202.0</ele><time>2026-03-29T12:41:03.95Z</time></trkpt><trkpt lat="45.851025" lon="8.5697967"><ele>202.0</ele><time>2026-03-29T12:41:04.95Z</time></trkpt><trkpt lat="45.850895" lon="8.5698133"><ele>203.0</ele><time>2026-03-29T12:41:05.95Z</time></trkpt><trkpt lat="45.850765" lon="8.569835"><ele>204.0</ele><time>2026-03-29T12:41:06.95Z</time></trkpt><trkpt lat="45.8506333" lon="8.56988"><ele>205.0</ele><time>2026-03-29T12:41:07.95Z</time></trkpt><trkpt lat="45.8504883" lon="8.5699517"><ele>206.0</ele><time>2026-03-29T12:41:08.95Z</time></trkpt><trkpt lat="45.85033" lon="8.57005"><ele>206.0</ele><time>2026-03-29T12:41:09.949Z</time></trkpt><trkpt lat="45.850145" lon="8.57017"><ele>206.0</ele><time>2026-03-29T12:41:10.95Z</time></trkpt><trkpt lat="45.8499483" lon="8.570285"><ele>206.0</ele><time>2026-03-29T12:41:11.95Z</time></trkpt><trkpt lat="45.8497517" lon="8.5703967"><ele>205.66666666666669</ele><time>2026-03-29T12:41:12.95Z</time></trkpt><trkpt lat="45.8495533" lon="8.5705017"><ele>205.33333333333331</ele><time>2026-03-29T12:41:13.949Z</time></trkpt><trkpt lat="45.8493517" lon="8.5706217"><ele>205.0</ele><time>2026-03-29T12:41:14.95Z</time></trkpt><trkpt lat="45.8491533" lon="8.5707267"><ele>205.0</ele><time>2026-03-29T12:41:15.95Z</time></trkpt><trkpt lat="45.8489533" lon="8.5708017"><ele>205.0</ele><time>2026-03-29T12:41:16.95Z</time></trkpt><trkpt lat="45.8487583" lon="8.5708417"><ele>205.0</ele><time>2026-03-29T12:41:17.95Z</time></trkpt><trkpt lat="45.848555" lon="8.57088"><ele>206.33333333333331</ele><time>2026-03-29T12:41:18.95Z</time></trkpt><trkpt lat="45.8483317" lon="8.570915"><ele>207.66666666666669</ele><time>2026-03-29T12:41:19.95Z</time></trkpt><trkpt lat="45.8481183" lon="8.5709417"><ele>209.0</ele><time>2026-03-29T12:41:20.949Z</time></trkpt><trkpt lat="45.8479" lon="8.5709967"><ele>209.0</ele><time>2026-03-29T12:41:21.95Z</time></trkpt><trkpt lat="45.8476717" lon="8.5710917"><ele>209.0</ele><time>2026-03-29T12:41:22.95Z</time></trkpt><trkpt lat="45.847445" lon="8.5711833"><ele>208.5</ele><time>2026-03-29T12:41:23.95Z</time></trkpt><trkpt lat="45.8472217" lon="8.5712917"><ele>208.0</ele><time>2026-03-29T12:41:24.95Z</time></trkpt><trkpt lat="45.8469867" lon="8.5714217"><ele>209.5</ele><time>2026-03-29T12:41:25.95Z</time></trkpt><trkpt lat="45.8467617" lon="8.5715467"><ele>211.0</ele><time>2026-03-29T12:41:26.95Z</time></trkpt><trkpt lat="45.8465317" lon="8.5717017"><ele>211.0</ele><time>2026-03-29T12:41:27.95Z</time></trkpt><trkpt lat="45.8463" lon="8.57184"><ele>211.0</ele><time>2026-03-29T12:41:28.95Z</time></trkpt><trkpt lat="45.846075" lon="8.5719617"><ele>208.66666666666666</ele><time>2026-03-29T12:41:29.95Z</time></trkpt><trkpt lat="45.8458833" lon="8.5720567"><ele>206.33333333333331</ele><time>2026-03-29T12:41:30.95Z</time></trkpt><trkpt lat="45.8457117" lon="8.5721467"><ele>204.0</ele><time>2026-03-29T12:41:31.95Z</time></trkpt><trkpt lat="45.8455417" lon="8.5722467"><ele>204.0</ele><time>2026-03-29T12:41:32.95Z</time></trkpt><trkpt lat="45.8453867" lon="8.572315"><ele>204.0</ele><time>2026-03-29T12:41:33.95Z</time></trkpt><trkpt lat="45.8452167" lon="8.57238"><ele>204.0</ele><time>2026-03-29T12:41:34.95Z</time></trkpt><trkpt lat="45.845055" lon="8.572425"><ele>204.0</ele><time>2026-03-29T12:41:35.95Z</time></trkpt><trkpt lat="45.8449" lon="8.5724383"><ele>204.0</ele><time>2026-03-29T12:41:36.95Z</time></trkpt><trkpt lat="45.8447483" lon="8.5724283"><ele>204.0</ele><time>2026-03-29T12:41:37.95Z</time></trkpt><trkpt lat="45.8445983" lon="8.5724233"><ele>204.0</ele><time>2026-03-29T12:41:38.95Z</time></trkpt><trkpt lat="45.84444" lon="8.5724367"><ele>204.0</ele><time>2026-03-29T12:41:39.95Z</time></trkpt><trkpt lat="45.844275" lon="8.5724767"><ele>204.0</ele><time>2026-03-29T12:41:40.95Z</time></trkpt><trkpt lat="45.8441083" lon="8.572545"><ele>206.33333333333331</ele><time>2026-03-29T12:41:41.95Z</time></trkpt><trkpt lat="45.8439383" lon="8.5726317"><ele>208.66666666666666</ele><time>2026-03-29T12:41:42.95Z</time></trkpt><trkpt lat="45.843765" lon="8.572705"><ele>211.0</ele><time>2026-03-29T12:41:43.95Z</time></trkpt><trkpt lat="45.8435917" lon="8.5727883"><ele>207.33333333333331</ele><time>2026-03-29T12:41:44.949Z</time></trkpt><trkpt lat="45.8434217" lon="8.5728767"><ele>203.66666666666669</ele><time>2026-03-29T12:41:45.95Z</time></trkpt><trkpt lat="45.84325" lon="8.572955"><ele>200.0</ele><time>2026-03-29T12:41:46.95Z</time></trkpt><trkpt lat="45.84308" lon="8.5730333"><ele>200.0</ele><time>2026-03-29T12:41:47.95Z</time></trkpt><trkpt lat="45.842925" lon="8.5730883"><ele>200.0</ele><time>2026-03-29T12:41:48.95Z</time></trkpt><trkpt lat="45.8427667" lon="8.573135"><ele>200.0</ele><time>2026-03-29T12:41:49.95Z</time></trkpt><trkpt lat="45.84261" lon="8.5731833"><ele>200.66666666666669</ele><time>2026-03-29T12:41:50.95Z</time></trkpt><trkpt lat="45.8424267" lon="8.57323"><ele>201.33333333333331</ele><time>2026-03-29T12:41:51.95Z</time></trkpt><trkpt lat="45.842235" lon="8.5732867"><ele>202.0</ele><time>2026-03-29T12:41:52.95Z</time></trkpt><trkpt lat="45.84203" lon="8.5733533"><ele>202.0</ele><time>2026-03-29T12:41:53.95Z</time></trkpt><trkpt lat="45.841835" lon="8.5734017"><ele>202.0</ele><time>2026-03-29T12:41:54.949Z</time></trkpt><trkpt lat="45.8416467" lon="8.5734383"><ele>202.0</ele><time>2026-03-29T12:41:55.95Z</time></trkpt><trkpt lat="45.8414717" lon="8.5734733"><ele>201.66666666666666</ele><time>2026-03-29T12:41:56.95Z</time></trkpt><trkpt lat="45.84131" lon="8.57351"><ele>201.33333333333331</ele><time>2026-03-29T12:41:57.95Z</time></trkpt><trkpt lat="45.8411533" lon="8.5735483"><ele>201.0</ele><time>2026-03-29T12:41:58.95Z</time></trkpt><trkpt lat="45.841005" lon="8.57358"><ele>203.33333333333331</ele><time>2026-03-29T12:41:59.95Z</time></trkpt><trkpt lat="45.8408583" lon="8.5736033"><ele>205.66666666666666</ele><time>2026-03-29T12:42:00.95Z</time></trkpt><trkpt lat="45.8407117" lon="8.5736"><ele>208.0</ele><time>2026-03-29T12:42:01.95Z</time></trkpt><trkpt lat="45.8405567" lon="8.5735733"><ele>208.0</ele><time>2026-03-29T12:42:02.95Z</time></trkpt><trkpt lat="45.84041" lon="8.5735333"><ele>208.0</ele><time>2026-03-29T12:42:03.95Z</time></trkpt><trkpt lat="45.8402683" lon="8.5734917"><ele>208.0</ele><time>2026-03-29T12:42:04.95Z</time></trkpt><trkpt lat="45.8401217" lon="8.57344"><ele>208.0</ele><time>2026-03-29T12:42:05.95Z</time></trkpt><trkpt lat="45.839975" lon="8.57339"><ele>207.33333333333331</ele><time>2026-03-29T12:42:06.949Z</time></trkpt><trkpt lat="45.839825" lon="8.5733333"><ele>206.66666666666669</ele><time>2026-03-29T12:42:07.95Z</time></trkpt><trkpt lat="45.8396717" lon="8.573285"><ele>206.0</ele><time>2026-03-29T12:42:08.95Z</time></trkpt><trkpt lat="45.839525" lon="8.5731967"><ele>206.0</ele><time>2026-03-29T12:42:09.949Z</time></trkpt><trkpt lat="45.8393817" lon="8.57309"><ele>206.0</ele><time>2026-03-29T12:42:10.95Z</time></trkpt><trkpt lat="45.8392383" lon="8.5729583"><ele>206.0</ele><time>2026-03-29T12:42:11.949Z</time></trkpt><trkpt lat="45.8390967" lon="8.5728333"><ele>207.33333333333334</ele><time>2026-03-29T12:42:12.949Z</time></trkpt><trkpt lat="45.83895" lon="8.57268"><ele>208.66666666666669</ele><time>2026-03-29T12:42:13.95Z</time></trkpt><trkpt lat="45.8388017" lon="8.5725333"><ele>210.0</ele><time>2026-03-29T12:42:14.95Z</time></trkpt><trkpt lat="45.8386767" lon="8.5723367"><ele>210.0</ele><time>2026-03-29T12:42:15.95Z</time></trkpt><trkpt lat="45.838525" lon="8.5722083"><ele>210.0</ele><time>2026-03-29T12:42:16.95Z</time></trkpt><trkpt lat="45.8383917" lon="8.5720967"><ele>210.0</ele><time>2026-03-29T12:42:17.95Z</time></trkpt><trkpt lat="45.8382583" lon="8.572005"><ele>210.25</ele><time>2026-03-29T12:42:18.95Z</time></trkpt><trkpt lat="45.8381383" lon="8.57189"><ele>210.5</ele><time>2026-03-29T12:42:19.95Z</time></trkpt><trkpt lat="45.8380233" lon="8.5717883"><ele>210.75</ele><time>2026-03-29T12:42:20.95Z</time></trkpt><trkpt lat="45.837915" lon="8.5716917"><ele>211.0</ele><time>2026-03-29T12:42:21.95Z</time></trkpt><trkpt lat="45.8378033" lon="8.5716117"><ele>211.0</ele><time>2026-03-29T12:42:22.95Z</time></trkpt><trkpt lat="45.8376917" lon="8.5715567"><ele>211.0</ele><time>2026-03-29T12:42:23.95Z</time></trkpt><trkpt lat="45.8375933" lon="8.571505"><ele>211.0</ele><time>2026-03-29T12:42:24.95Z</time></trkpt><trkpt lat="45.8375133" lon="8.5714667"><ele>211.0</ele><time>2026-03-29T12:42:25.95Z</time></trkpt><trkpt lat="45.8374433" lon="8.5714483"><ele>211.0</ele><time>2026-03-29T12:42:26.95Z</time></trkpt><trkpt lat="45.8373517" lon="8.57147"><ele>210.99999999999997</ele><time>2026-03-29T12:42:28.95Z</time></trkpt><trkpt lat="45.8373467" lon="8.5715633"><ele>211.0</ele><time>2026-03-29T12:42:30.95Z</time></trkpt><trkpt lat="45.837425" lon="8.57163"><ele>211.0</ele><time>2026-03-29T12:42:32.95Z</time></trkpt><trkpt lat="45.8374967" lon="8.571665"><ele>211.0</ele><time>2026-03-29T12:42:34.95Z</time></trkpt><trkpt lat="45.8375683" lon="8.571725"><ele>210.99999999999997</ele><time>2026-03-29T12:42:36.95Z</time></trkpt><trkpt lat="45.8376533" lon="8.571785"><ele>211.0</ele><time>2026-03-29T12:42:38.95Z</time></trkpt><trkpt lat="45.8377367" lon="8.5718233"><ele>211.0</ele><time>2026-03-29T12:42:40.95Z</time></trkpt><trkpt lat="45.8378117" lon="8.57182"><ele>211.0</ele><time>2026-03-29T12:42:43.949Z</time></trkpt><trkpt lat="45.8378883" lon="8.5718217"><ele>211.0</ele><time>2026-03-29T12:42:50.95Z</time></trkpt><trkpt lat="45.837965" lon="8.5718567"><ele>211.0</ele><time>2026-03-29T12:42:51.95Z</time></trkpt><trkpt lat="45.8380617" lon="8.5719233"><ele>211.0</ele><time>2026-03-29T12:42:52.95Z</time></trkpt><trkpt lat="45.8381733" lon="8.57201"><ele>210.8</ele><time>2026-03-29T12:42:53.95Z</time></trkpt><trkpt lat="45.83828" lon="8.572095"><ele>210.60000000000002</ele><time>2026-03-29T12:42:54.95Z</time></trkpt><trkpt lat="45.838385" lon="8.57219"><ele>210.4</ele><time>2026-03-29T12:42:55.95Z</time></trkpt><trkpt lat="45.8384667" lon="8.5722683"><ele>210.2</ele><time>2026-03-29T12:42:56.95Z</time></trkpt><trkpt lat="45.8385333" lon="8.5723467"><ele>210.0</ele><time>2026-03-29T12:42:57.95Z</time></trkpt><trkpt lat="45.8385983" lon="8.5724117"><ele>210.0</ele><time>2026-03-29T12:42:58.95Z</time></trkpt><trkpt lat="45.838665" lon="8.572475"><ele>210.0</ele><time>2026-03-29T12:42:59.95Z</time></trkpt><trkpt lat="45.8387283" lon="8.5725317"><ele>210.0</ele><time>2026-03-29T12:43:00.95Z</time></trkpt><trkpt lat="45.8388133" lon="8.5726017"><ele>210.0</ele><time>2026-03-29T12:43:02.95Z</time></trkpt><trkpt lat="45.8388867" lon="8.572655"><ele>210.0</ele><time>2026-03-29T12:43:13.95Z</time></trkpt><trkpt lat="45.8389467" lon="8.57272"><ele>210.0</ele><time>2026-03-29T12:43:16.95Z</time></trkpt><trkpt lat="45.8389983" lon="8.572775"><ele>210.0</ele><time>2026-03-29T12:43:18.95Z</time></trkpt><trkpt lat="45.8390583" lon="8.5728333"><ele>210.0</ele><time>2026-03-29T12:43:20.949Z</time></trkpt><trkpt lat="45.8390933" lon="8.572935"><ele>210.0</ele><time>2026-03-29T12:43:42.95Z</time></trkpt><trkpt lat="45.839085" lon="8.5728367"><ele>210.0</ele><time>2026-03-29T12:44:10.949Z</time></trkpt><trkpt lat="45.839025" lon="8.572775"><ele>210.0</ele><time>2026-03-29T12:44:11.949Z</time></trkpt><trkpt lat="45.8389517" lon="8.5727133"><ele>210.0</ele><time>2026-03-29T12:44:12.949Z</time></trkpt><trkpt lat="45.8388867" lon="8.57265"><ele>210.0</ele><time>2026-03-29T12:44:13.949Z</time></trkpt><trkpt lat="45.838815" lon="8.5725833"><ele>210.0</ele><time>2026-03-29T12:44:14.949Z</time></trkpt><trkpt lat="45.8387367" lon="8.57251"><ele>210.0</ele><time>2026-03-29T12:44:15.949Z</time></trkpt><trkpt lat="45.8386517" lon="8.5724233"><ele>210.0</ele><time>2026-03-29T12:44:16.949Z</time></trkpt><trkpt lat="45.83856" lon="8.572325"><ele>210.0</ele><time>2026-03-29T12:44:17.948Z</time></trkpt><trkpt lat="45.8384683" lon="8.5722233"><ele>210.25</ele><time>2026-03-29T12:44:18.949Z</time></trkpt><trkpt lat="45.8383717" lon="8.5721383"><ele>210.5</ele><time>2026-03-29T12:44:19.949Z</time></trkpt><trkpt lat="45.838285" lon="8.572025"><ele>210.75</ele><time>2026-03-29T12:44:20.949Z</time></trkpt><trkpt lat="45.8381967" lon="8.5719367"><ele>211.0</ele><time>2026-03-29T12:44:21.949Z</time></trkpt><trkpt lat="45.8380933" lon="8.5718483"><ele>211.0</ele><time>2026-03-29T12:44:22.949Z</time></trkpt><trkpt lat="45.8379867" lon="8.571765"><ele>211.0</ele><time>2026-03-29T12:44:23.949Z</time></trkpt><trkpt lat="45.8378767" lon="8.571705"><ele>211.0</ele><time>2026-03-29T12:44:24.949Z</time></trkpt><trkpt lat="45.8377667" lon="8.57163"><ele>211.0</ele><time>2026-03-29T12:44:25.949Z</time></trkpt><trkpt lat="45.8376633" lon="8.5715617"><ele>209.20000000000002</ele><time>2026-03-29T12:44:26.949Z</time></trkpt><trkpt lat="45.8375567" lon="8.5714983"><ele>207.4</ele><time>2026-03-29T12:44:27.948Z</time></trkpt><trkpt lat="45.8374583" lon="8.5714333"><ele>205.6</ele><time>2026-03-29T12:44:28.949Z</time></trkpt><trkpt lat="45.837365" lon="8.5713667"><ele>203.8</ele><time>2026-03-29T12:44:29.949Z</time></trkpt><trkpt lat="45.8372783" lon="8.571305"><ele>202.0</ele><time>2026-03-29T12:44:30.949Z</time></trkpt><trkpt lat="45.83719" lon="8.5712467"><ele>202.0</ele><time>2026-03-29T12:44:31.949Z</time></trkpt><trkpt lat="45.8370917" lon="8.57122"><ele>202.0</ele><time>2026-03-29T12:44:32.949Z</time></trkpt><trkpt lat="45.8369817" lon="8.571155"><ele>202.0</ele><time>2026-03-29T12:44:33.949Z</time></trkpt><trkpt lat="45.8368733" lon="8.5711017"><ele>202.0</ele><time>2026-03-29T12:44:34.948Z</time></trkpt><trkpt lat="45.836785" lon="8.57099"><ele>202.5</ele><time>2026-03-29T12:44:35.949Z</time></trkpt><trkpt lat="45.83668" lon="8.57093"><ele>203.0</ele><time>2026-03-29T12:44:36.948Z</time></trkpt><trkpt lat="45.8365817" lon="8.5708483"><ele>203.5</ele><time>2026-03-29T12:44:37.949Z</time></trkpt><trkpt lat="45.836485" lon="8.5707517"><ele>204.0</ele><time>2026-03-29T12:44:38.949Z</time></trkpt><trkpt lat="45.8363917" lon="8.5706533"><ele>204.0</ele><time>2026-03-29T12:44:39.949Z</time></trkpt><trkpt lat="45.8362883" lon="8.570555"><ele>204.0</ele><time>2026-03-29T12:44:40.949Z</time></trkpt><trkpt lat="45.8361917" lon="8.5704267"><ele>204.0</ele><time>2026-03-29T12:44:41.949Z</time></trkpt><trkpt lat="45.8360967" lon="8.5702983"><ele>204.0</ele><time>2026-03-29T12:44:42.949Z</time></trkpt><trkpt lat="45.8359917" lon="8.570165"><ele>204.5</ele><time>2026-03-29T12:44:43.949Z</time></trkpt><trkpt lat="45.8358867" lon="8.5700283"><ele>205.0</ele><time>2026-03-29T12:44:44.948Z</time></trkpt><trkpt lat="45.8357783" lon="8.569895"><ele>205.5</ele><time>2026-03-29T12:44:45.949Z</time></trkpt><trkpt lat="45.8356683" lon="8.5697633"><ele>206.0</ele><time>2026-03-29T12:44:46.949Z</time></trkpt><trkpt lat="45.8355617" lon="8.5696367"><ele>206.25</ele><time>2026-03-29T12:44:47.949Z</time></trkpt><trkpt lat="45.8354433" lon="8.5695167"><ele>206.5</ele><time>2026-03-29T12:44:48.949Z</time></trkpt><trkpt lat="45.835325" lon="8.5694117"><ele>206.75</ele><time>2026-03-29T12:44:49.949Z</time></trkpt><trkpt lat="45.8351917" lon="8.5693"><ele>207.0</ele><time>2026-03-29T12:44:50.949Z</time></trkpt><trkpt lat="45.8350417" lon="8.5691983"><ele>207.0</ele><time>2026-03-29T12:44:51.949Z</time></trkpt><trkpt lat="45.8348817" lon="8.569105"><ele>207.0</ele><time>2026-03-29T12:44:52.949Z</time></trkpt><trkpt lat="45.8347233" lon="8.5690267"><ele>207.0</ele><time>2026-03-29T12:44:53.949Z</time></trkpt><trkpt lat="45.8345783" lon="8.568925"><ele>207.0</ele><time>2026-03-29T12:44:54.949Z</time></trkpt><trkpt lat="45.8344433" lon="8.5688367"><ele>207.0</ele><time>2026-03-29T12:44:55.949Z</time></trkpt><trkpt lat="45.8343033" lon="8.56874"><ele>207.0</ele><time>2026-03-29T12:44:56.949Z</time></trkpt><trkpt lat="45.8341717" lon="8.568625"><ele>207.66666666666669</ele><time>2026-03-29T12:44:57.949Z</time></trkpt><trkpt lat="45.8340533" lon="8.5684917"><ele>208.33333333333334</ele><time>2026-03-29T12:44:58.949Z</time></trkpt><trkpt lat="45.8339317" lon="8.568345"><ele>209.0</ele><time>2026-03-29T12:44:59.948Z</time></trkpt><trkpt lat="45.8338067" lon="8.5682017"><ele>209.0</ele><time>2026-03-29T12:45:00.949Z</time></trkpt><trkpt lat="45.8336783" lon="8.5680567"><ele>209.0</ele><time>2026-03-29T12:45:01.949Z</time></trkpt><trkpt lat="45.8335483" lon="8.5679133"><ele>209.0</ele><time>2026-03-29T12:45:02.949Z</time></trkpt><trkpt lat="45.8334133" lon="8.5677583"><ele>211.33333333333334</ele><time>2026-03-29T12:45:03.949Z</time></trkpt><trkpt lat="45.83328" lon="8.5676083"><ele>213.66666666666669</ele><time>2026-03-29T12:45:04.949Z</time></trkpt><trkpt lat="45.8331367" lon="8.5674583"><ele>216.0</ele><time>2026-03-29T12:45:05.949Z</time></trkpt><trkpt lat="45.8329983" lon="8.5672983"><ele>216.0</ele><time>2026-03-29T12:45:06.949Z</time></trkpt><trkpt lat="45.8328517" lon="8.5671383"><ele>216.0</ele><time>2026-03-29T12:45:07.949Z</time></trkpt><trkpt lat="45.832715" lon="8.56697"><ele>216.0</ele><time>2026-03-29T12:45:08.949Z</time></trkpt><trkpt lat="45.832565" lon="8.5668233"><ele>213.66666666666669</ele><time>2026-03-29T12:45:09.948Z</time></trkpt><trkpt lat="45.832425" lon="8.5666617"><ele>211.33333333333334</ele><time>2026-03-29T12:45:10.949Z</time></trkpt><trkpt lat="45.8322833" lon="8.5664933"><ele>209.0</ele><time>2026-03-29T12:45:11.949Z</time></trkpt><trkpt lat="45.8321317" lon="8.5663367"><ele>208.33333333333334</ele><time>2026-03-29T12:45:12.949Z</time></trkpt><trkpt lat="45.83199" lon="8.566175"><ele>207.66666666666669</ele><time>2026-03-29T12:45:13.949Z</time></trkpt><trkpt lat="45.83185" lon="8.5660267"><ele>207.0</ele><time>2026-03-29T12:45:14.949Z</time></trkpt><trkpt lat="45.8317283" lon="8.5658917"><ele>207.0</ele><time>2026-03-29T12:45:15.948Z</time></trkpt><trkpt lat="45.8316133" lon="8.5657467"><ele>207.0</ele><time>2026-03-29T12:45:16.949Z</time></trkpt><trkpt lat="45.8315067" lon="8.56562"><ele>207.0</ele><time>2026-03-29T12:45:17.949Z</time></trkpt><trkpt lat="45.8314033" lon="8.56551"><ele>207.0</ele><time>2026-03-29T12:45:18.949Z</time></trkpt><trkpt lat="45.8312933" lon="8.565405"><ele>206.75</ele><time>2026-03-29T12:45:19.949Z</time></trkpt><trkpt lat="45.8311833" lon="8.565285"><ele>206.5</ele><time>2026-03-29T12:45:20.949Z</time></trkpt><trkpt lat="45.8310717" lon="8.5651633"><ele>206.25</ele><time>2026-03-29T12:45:21.949Z</time></trkpt><trkpt lat="45.83096" lon="8.5650417"><ele>206.0</ele><time>2026-03-29T12:45:22.949Z</time></trkpt><trkpt lat="45.8308517" lon="8.5649517"><ele>206.0</ele><time>2026-03-29T12:45:23.949Z</time></trkpt><trkpt lat="45.8307317" lon="8.5648767"><ele>206.0</ele><time>2026-03-29T12:45:24.949Z</time></trkpt><trkpt lat="45.8306033" lon="8.5648483"><ele>206.0</ele><time>2026-03-29T12:45:25.949Z</time></trkpt><trkpt lat="45.8304717" lon="8.5648583"><ele>206.0</ele><time>2026-03-29T12:45:26.949Z</time></trkpt><trkpt lat="45.8303467" lon="8.5648867"><ele>206.0</ele><time>2026-03-29T12:45:27.949Z</time></trkpt><trkpt lat="45.830215" lon="8.5649183"><ele>206.0</ele><time>2026-03-29T12:45:28.949Z</time></trkpt><trkpt lat="45.8300817" lon="8.564955"><ele>206.0</ele><time>2026-03-29T12:45:29.949Z</time></trkpt><trkpt lat="45.829945" lon="8.565"><ele>206.0</ele><time>2026-03-29T12:45:30.949Z</time></trkpt><trkpt lat="45.8298117" lon="8.5650833"><ele>205.75</ele><time>2026-03-29T12:45:31.949Z</time></trkpt><trkpt lat="45.82968" lon="8.5651583"><ele>205.5</ele><time>2026-03-29T12:45:32.948Z</time></trkpt><trkpt lat="45.829555" lon="8.5652533"><ele>205.25</ele><time>2026-03-29T12:45:33.949Z</time></trkpt><trkpt lat="45.8294217" lon="8.565365"><ele>205.0</ele><time>2026-03-29T12:45:34.949Z</time></trkpt><trkpt lat="45.8292883" lon="8.5654783"><ele>203.66666666666666</ele><time>2026-03-29T12:45:35.949Z</time></trkpt><trkpt lat="45.8291433" lon="8.56559"><ele>202.33333333333331</ele><time>2026-03-29T12:45:36.949Z</time></trkpt><trkpt lat="45.828995" lon="8.5656883"><ele>201.0</ele><time>2026-03-29T12:45:37.949Z</time></trkpt><trkpt lat="45.8288567" lon="8.56579"><ele>201.0</ele><time>2026-03-29T12:45:38.949Z</time></trkpt><trkpt lat="45.82872" lon="8.565865"><ele>201.0</ele><time>2026-03-29T12:45:39.949Z</time></trkpt><trkpt lat="45.828575" lon="8.5659383"><ele>201.0</ele><time>2026-03-29T12:45:40.948Z</time></trkpt><trkpt lat="45.8284333" lon="8.5660067"><ele>202.0</ele><time>2026-03-29T12:45:41.949Z</time></trkpt><trkpt lat="45.8282817" lon="8.5660467"><ele>203.0</ele><time>2026-03-29T12:45:42.949Z</time></trkpt><trkpt lat="45.8281417" lon="8.5660667"><ele>204.0</ele><time>2026-03-29T12:45:43.949Z</time></trkpt><trkpt lat="45.8280083" lon="8.566015"><ele>205.0</ele><time>2026-03-29T12:45:44.948Z</time></trkpt><trkpt lat="45.82789" lon="8.5659083"><ele>205.0</ele><time>2026-03-29T12:45:45.949Z</time></trkpt><trkpt lat="45.8277783" lon="8.565785"><ele>205.0</ele><time>2026-03-29T12:45:46.948Z</time></trkpt><trkpt lat="45.827675" lon="8.5656383"><ele>205.0</ele><time>2026-03-29T12:45:47.949Z</time></trkpt><trkpt lat="45.8275633" lon="8.5654867"><ele>205.0</ele><time>2026-03-29T12:45:48.948Z</time></trkpt><trkpt lat="45.827465" lon="8.56529"><ele>207.0</ele><time>2026-03-29T12:45:49.948Z</time></trkpt><trkpt lat="45.8273467" lon="8.5651017"><ele>209.0</ele><time>2026-03-29T12:45:50.949Z</time></trkpt><trkpt lat="45.8272333" lon="8.5649233"><ele>211.0</ele><time>2026-03-29T12:45:51.949Z</time></trkpt><trkpt lat="45.82711" lon="8.5647567"><ele>211.0</ele><time>2026-03-29T12:45:52.949Z</time></trkpt><trkpt lat="45.827015" lon="8.5645833"><ele>211.0</ele><time>2026-03-29T12:45:53.949Z</time></trkpt><trkpt lat="45.8269033" lon="8.5643967"><ele>211.0</ele><time>2026-03-29T12:45:54.949Z</time></trkpt><trkpt lat="45.8267933" lon="8.56421"><ele>211.33333333333331</ele><time>2026-03-29T12:45:55.949Z</time></trkpt><trkpt lat="45.8266767" lon="8.5640433"><ele>211.66666666666669</ele><time>2026-03-29T12:45:56.949Z</time></trkpt><trkpt lat="45.8265683" lon="8.5638733"><ele>212.0</ele><time>2026-03-29T12:45:57.949Z</time></trkpt><trkpt lat="45.8264633" lon="8.5637167"><ele>212.0</ele><time>2026-03-29T12:45:58.949Z</time></trkpt><trkpt lat="45.8263583" lon="8.5635783"><ele>212.0</ele><time>2026-03-29T12:45:59.949Z</time></trkpt><trkpt lat="45.8262567" lon="8.563435"><ele>212.0</ele><time>2026-03-29T12:46:00.949Z</time></trkpt><trkpt lat="45.82616" lon="8.5632933"><ele>212.0</ele><time>2026-03-29T12:46:01.949Z</time></trkpt><trkpt lat="45.8260717" lon="8.5631467"><ele>212.0</ele><time>2026-03-29T12:46:02.948Z</time></trkpt><trkpt lat="45.825975" lon="8.5630033"><ele>212.0</ele><time>2026-03-29T12:46:03.949Z</time></trkpt><trkpt lat="45.8258817" lon="8.5628567"><ele>212.0</ele><time>2026-03-29T12:46:04.949Z</time></trkpt><trkpt lat="45.8257883" lon="8.5627233"><ele>212.0</ele><time>2026-03-29T12:46:05.949Z</time></trkpt><trkpt lat="45.8257083" lon="8.5626033"><ele>212.0</ele><time>2026-03-29T12:46:06.949Z</time></trkpt><trkpt lat="45.8256367" lon="8.5624867"><ele>212.0</ele><time>2026-03-29T12:46:07.949Z</time></trkpt><trkpt lat="45.825565" lon="8.56236"><ele>212.0</ele><time>2026-03-29T12:46:08.949Z</time></trkpt><trkpt lat="45.825485" lon="8.5622283"><ele>212.0</ele><time>2026-03-29T12:46:09.949Z</time></trkpt><trkpt lat="45.82539" lon="8.562085"><ele>212.5</ele><time>2026-03-29T12:46:10.949Z</time></trkpt><trkpt lat="45.8252983" lon="8.5619467"><ele>213.0</ele><time>2026-03-29T12:46:11.949Z</time></trkpt><trkpt lat="45.8252083" lon="8.5617883"><ele>213.5</ele><time>2026-03-29T12:46:12.949Z</time></trkpt><trkpt lat="45.8251167" lon="8.561655"><ele>214.0</ele><time>2026-03-29T12:46:13.949Z</time></trkpt><trkpt lat="45.825025" lon="8.561525"><ele>214.0</ele><time>2026-03-29T12:46:14.949Z</time></trkpt><trkpt lat="45.82494" lon="8.5614"><ele>213.99999999999997</ele><time>2026-03-29T12:46:15.949Z</time></trkpt><trkpt lat="45.824875" lon="8.5612867"><ele>213.99999999999997</ele><time>2026-03-29T12:46:16.949Z</time></trkpt><trkpt lat="45.824805" lon="8.5611683"><ele>214.0</ele><time>2026-03-29T12:46:17.949Z</time></trkpt><trkpt lat="45.8247267" lon="8.5610433"><ele>214.0</ele><time>2026-03-29T12:46:18.949Z</time></trkpt><trkpt lat="45.8246467" lon="8.5609217"><ele>214.2</ele><time>2026-03-29T12:46:19.949Z</time></trkpt><trkpt lat="45.82457" lon="8.56081"><ele>214.39999999999998</ele><time>2026-03-29T12:46:20.949Z</time></trkpt><trkpt lat="45.8245" lon="8.560685"><ele>214.6</ele><time>2026-03-29T12:46:21.949Z</time></trkpt><trkpt lat="45.8244333" lon="8.5605667"><ele>214.8</ele><time>2026-03-29T12:46:22.949Z</time></trkpt><trkpt lat="45.8243633" lon="8.5604667"><ele>215.0</ele><time>2026-03-29T12:46:23.949Z</time></trkpt><trkpt lat="45.8243033" lon="8.5603717"><ele>215.33333333333334</ele><time>2026-03-29T12:46:24.948Z</time></trkpt><trkpt lat="45.82425" lon="8.5602883"><ele>215.66666666666669</ele><time>2026-03-29T12:46:25.949Z</time></trkpt><trkpt lat="45.8241967" lon="8.560195"><ele>216.0</ele><time>2026-03-29T12:46:26.949Z</time></trkpt><trkpt lat="45.82413" lon="8.5601083"><ele>216.33333333333331</ele><time>2026-03-29T12:46:27.949Z</time></trkpt><trkpt lat="45.8240617" lon="8.5600167"><ele>216.66666666666666</ele><time>2026-03-29T12:46:28.949Z</time></trkpt><trkpt lat="45.8239867" lon="8.5599183"><ele>217.0</ele><time>2026-03-29T12:46:29.949Z</time></trkpt><trkpt lat="45.82391" lon="8.5598167"><ele>217.0</ele><time>2026-03-29T12:46:30.949Z</time></trkpt><trkpt lat="45.8238333" lon="8.5597"><ele>217.0</ele><time>2026-03-29T12:46:31.949Z</time></trkpt><trkpt lat="45.8237517" lon="8.5595783"><ele>217.0</ele><time>2026-03-29T12:46:32.949Z</time></trkpt><trkpt lat="45.8236667" lon="8.5594517"><ele>217.0</ele><time>2026-03-29T12:46:33.949Z</time></trkpt><trkpt lat="45.8235783" lon="8.5593217"><ele>217.25</ele><time>2026-03-29T12:46:34.949Z</time></trkpt><trkpt lat="45.8234917" lon="8.5591933"><ele>217.5</ele><time>2026-03-29T12:46:35.949Z</time></trkpt><trkpt lat="45.823405" lon="8.55906"><ele>217.75</ele><time>2026-03-29T12:46:36.949Z</time></trkpt><trkpt lat="45.8233167" lon="8.55893"><ele>218.0</ele><time>2026-03-29T12:46:37.948Z</time></trkpt><trkpt lat="45.8232283" lon="8.5588"><ele>218.25</ele><time>2026-03-29T12:46:38.949Z</time></trkpt><trkpt lat="45.8231367" lon="8.5586683"><ele>218.5</ele><time>2026-03-29T12:46:39.949Z</time></trkpt><trkpt lat="45.8230417" lon="8.55853"><ele>218.75</ele><time>2026-03-29T12:46:40.949Z</time></trkpt><trkpt lat="45.8229483" lon="8.5583933"><ele>219.0</ele><time>2026-03-29T12:46:41.949Z</time></trkpt><trkpt lat="45.822865" lon="8.5582567"><ele>219.0</ele><time>2026-03-29T12:46:42.949Z</time></trkpt><trkpt lat="45.82278" lon="8.558115"><ele>219.0</ele><time>2026-03-29T12:46:43.949Z</time></trkpt><trkpt lat="45.8226983" lon="8.55797"><ele>219.0</ele><time>2026-03-29T12:46:44.949Z</time></trkpt><trkpt lat="45.8226067" lon="8.5578283"><ele>219.0</ele><time>2026-03-29T12:46:45.948Z</time></trkpt><trkpt lat="45.8225167" lon="8.5576983"><ele>218.5</ele><time>2026-03-29T12:46:46.949Z</time></trkpt><trkpt lat="45.822435" lon="8.5575617"><ele>218.0</ele><time>2026-03-29T12:46:47.948Z</time></trkpt><trkpt lat="45.822355" lon="8.55744"><ele>217.5</ele><time>2026-03-29T12:46:48.949Z</time></trkpt><trkpt lat="45.8222717" lon="8.5573133"><ele>217.0</ele><time>2026-03-29T12:46:49.949Z</time></trkpt><trkpt lat="45.8221833" lon="8.557195"><ele>217.0</ele><time>2026-03-29T12:46:50.949Z</time></trkpt><trkpt lat="45.8220833" lon="8.5570583"><ele>217.0</ele><time>2026-03-29T12:46:51.949Z</time></trkpt><trkpt lat="45.8219717" lon="8.5568967"><ele>217.0</ele><time>2026-03-29T12:46:52.949Z</time></trkpt><trkpt lat="45.8218533" lon="8.556735"><ele>216.0</ele><time>2026-03-29T12:46:53.949Z</time></trkpt><trkpt lat="45.821735" lon="8.556545"><ele>215.0</ele><time>2026-03-29T12:46:54.949Z</time></trkpt><trkpt lat="45.8216083" lon="8.55634"><ele>214.0</ele><time>2026-03-29T12:46:55.949Z</time></trkpt><trkpt lat="45.8214767" lon="8.5561483"><ele>214.0</ele><time>2026-03-29T12:46:56.949Z</time></trkpt><trkpt lat="45.8213467" lon="8.5559533"><ele>214.0</ele><time>2026-03-29T12:46:57.949Z</time></trkpt><trkpt lat="45.8212167" lon="8.5557667"><ele>214.0</ele><time>2026-03-29T12:46:58.949Z</time></trkpt><trkpt lat="45.82108" lon="8.555555"><ele>212.66666666666666</ele><time>2026-03-29T12:46:59.949Z</time></trkpt><trkpt lat="45.8209317" lon="8.5553433"><ele>211.33333333333331</ele><time>2026-03-29T12:47:00.949Z</time></trkpt><trkpt lat="45.8207867" lon="8.5551267"><ele>210.0</ele><time>2026-03-29T12:47:01.949Z</time></trkpt><trkpt lat="45.8206317" lon="8.554905"><ele>210.0</ele><time>2026-03-29T12:47:02.949Z</time></trkpt><trkpt lat="45.8204783" lon="8.554675"><ele>210.0</ele><time>2026-03-29T12:47:03.949Z</time></trkpt><trkpt lat="45.8203317" lon="8.5544467"><ele>210.0</ele><time>2026-03-29T12:47:04.949Z</time></trkpt><trkpt lat="45.8201917" lon="8.55423"><ele>210.0</ele><time>2026-03-29T12:47:05.949Z</time></trkpt><trkpt lat="45.8200633" lon="8.5540267"><ele>210.0</ele><time>2026-03-29T12:47:06.949Z</time></trkpt><trkpt lat="45.8199367" lon="8.5538317"><ele>210.0</ele><time>2026-03-29T12:47:07.949Z</time></trkpt><trkpt lat="45.8198067" lon="8.5536333"><ele>210.0</ele><time>2026-03-29T12:47:08.949Z</time></trkpt><trkpt lat="45.8196667" lon="8.553435"><ele>210.0</ele><time>2026-03-29T12:47:09.949Z</time></trkpt><trkpt lat="45.8195283" lon="8.5532333"><ele>210.0</ele><time>2026-03-29T12:47:10.949Z</time></trkpt><trkpt lat="45.8193967" lon="8.5530367"><ele>209.66666666666669</ele><time>2026-03-29T12:47:11.949Z</time></trkpt><trkpt lat="45.8192633" lon="8.5528317"><ele>209.33333333333334</ele><time>2026-03-29T12:47:12.949Z</time></trkpt><trkpt lat="45.8191333" lon="8.5526233"><ele>209.0</ele><time>2026-03-29T12:47:13.949Z</time></trkpt><trkpt lat="45.8189983" lon="8.552415"><ele>209.0</ele><time>2026-03-29T12:47:14.949Z</time></trkpt><trkpt lat="45.8188517" lon="8.5522083"><ele>209.0</ele><time>2026-03-29T12:47:15.949Z</time></trkpt><trkpt lat="45.8187133" lon="8.5519883"><ele>209.0</ele><time>2026-03-29T12:47:16.949Z</time></trkpt><trkpt lat="45.818575" lon="8.5517783"><ele>208.0</ele><time>2026-03-29T12:47:17.949Z</time></trkpt><trkpt lat="45.81843" lon="8.551555"><ele>207.0</ele><time>2026-03-29T12:47:18.949Z</time></trkpt><trkpt lat="45.8182717" lon="8.5513383"><ele>206.0</ele><time>2026-03-29T12:47:19.949Z</time></trkpt><trkpt lat="45.81813" lon="8.5511017"><ele>206.0</ele><time>2026-03-29T12:47:20.949Z</time></trkpt><trkpt lat="45.8179933" lon="8.5508767"><ele>206.0</ele><time>2026-03-29T12:47:21.949Z</time></trkpt><trkpt lat="45.8178567" lon="8.5506667"><ele>206.0</ele><time>2026-03-29T12:47:22.949Z</time></trkpt><trkpt lat="45.8177317" lon="8.5504833"><ele>205.33333333333334</ele><time>2026-03-29T12:47:23.949Z</time></trkpt><trkpt lat="45.8175967" lon="8.550295"><ele>204.66666666666669</ele><time>2026-03-29T12:47:24.949Z</time></trkpt><trkpt lat="45.817475" lon="8.5501067"><ele>204.0</ele><time>2026-03-29T12:47:25.949Z</time></trkpt><trkpt lat="45.8173533" lon="8.5499133"><ele>204.0</ele><time>2026-03-29T12:47:26.948Z</time></trkpt><trkpt lat="45.8172367" lon="8.5497233"><ele>204.0</ele><time>2026-03-29T12:47:27.949Z</time></trkpt><trkpt lat="45.8171233" lon="8.54956"><ele>204.0</ele><time>2026-03-29T12:47:28.949Z</time></trkpt><trkpt lat="45.8170117" lon="8.549395"><ele>204.0</ele><time>2026-03-29T12:47:29.949Z</time></trkpt><trkpt lat="45.8169083" lon="8.5492467"><ele>204.0</ele><time>2026-03-29T12:47:30.949Z</time></trkpt><trkpt lat="45.8168133" lon="8.5490983"><ele>204.0</ele><time>2026-03-29T12:47:31.949Z</time></trkpt><trkpt lat="45.81672" lon="8.5489567"><ele>204.0</ele><time>2026-03-29T12:47:32.949Z</time></trkpt><trkpt lat="45.8166417" lon="8.5488183"><ele>204.0</ele><time>2026-03-29T12:47:33.949Z</time></trkpt><trkpt lat="45.8165817" lon="8.548685"><ele>204.0</ele><time>2026-03-29T12:47:34.949Z</time></trkpt><trkpt lat="45.8165367" lon="8.5485367"><ele>204.0</ele><time>2026-03-29T12:47:35.949Z</time></trkpt><trkpt lat="45.8165067" lon="8.5483867"><ele>204.0</ele><time>2026-03-29T12:47:36.949Z</time></trkpt><trkpt lat="45.8164833" lon="8.54824"><ele>204.0</ele><time>2026-03-29T12:47:37.948Z</time></trkpt><trkpt lat="45.81646" lon="8.5480983"><ele>204.0</ele><time>2026-03-29T12:47:38.949Z</time></trkpt><trkpt lat="45.8164483" lon="8.5479583"><ele>204.0</ele><time>2026-03-29T12:47:39.948Z</time></trkpt><trkpt lat="45.8164383" lon="8.5478283"><ele>204.0</ele><time>2026-03-29T12:47:40.949Z</time></trkpt><trkpt lat="45.8164183" lon="8.5476967"><ele>204.0</ele><time>2026-03-29T12:47:41.949Z</time></trkpt><trkpt lat="45.8163817" lon="8.5475517"><ele>204.0</ele><time>2026-03-29T12:47:42.949Z</time></trkpt><trkpt lat="45.8163417" lon="8.5473967"><ele>205.25</ele><time>2026-03-29T12:47:43.949Z</time></trkpt><trkpt lat="45.8162883" lon="8.5472433"><ele>206.5</ele><time>2026-03-29T12:47:44.949Z</time></trkpt><trkpt lat="45.8162217" lon="8.5471083"><ele>207.75</ele><time>2026-03-29T12:47:45.949Z</time></trkpt><trkpt lat="45.816155" lon="8.5469683"><ele>209.0</ele><time>2026-03-29T12:47:46.949Z</time></trkpt><trkpt lat="45.816075" lon="8.54684"><ele>208.25</ele><time>2026-03-29T12:47:47.949Z</time></trkpt><trkpt lat="45.815985" lon="8.5467067"><ele>207.5</ele><time>2026-03-29T12:47:48.949Z</time></trkpt><trkpt lat="45.8158817" lon="8.5465783"><ele>206.75</ele><time>2026-03-29T12:47:49.949Z</time></trkpt><trkpt lat="45.81574" lon="8.5464417"><ele>206.0</ele><time>2026-03-29T12:47:50.949Z</time></trkpt><trkpt lat="45.81559" lon="8.5462683"><ele>205.66666666666669</ele><time>2026-03-29T12:47:51.949Z</time></trkpt><trkpt lat="45.8154317" lon="8.546075"><ele>205.33333333333331</ele><time>2026-03-29T12:47:52.949Z</time></trkpt><trkpt lat="45.81526" lon="8.545885"><ele>205.0</ele><time>2026-03-29T12:47:53.949Z</time></trkpt><trkpt lat="45.8150967" lon="8.5457117"><ele>205.0</ele><time>2026-03-29T12:47:54.949Z</time></trkpt><trkpt lat="45.814925" lon="8.54556"><ele>205.0</ele><time>2026-03-29T12:47:55.949Z</time></trkpt><trkpt lat="45.8147467" lon="8.5454"><ele>205.0</ele><time>2026-03-29T12:47:56.949Z</time></trkpt><trkpt lat="45.8145783" lon="8.5452433"><ele>208.0</ele><time>2026-03-29T12:47:57.949Z</time></trkpt><trkpt lat="45.8144167" lon="8.5451067"><ele>211.0</ele><time>2026-03-29T12:47:58.949Z</time></trkpt><trkpt lat="45.8142517" lon="8.5450067"><ele>214.0</ele><time>2026-03-29T12:47:59.949Z</time></trkpt><trkpt lat="45.8140683" lon="8.54495"><ele>214.0</ele><time>2026-03-29T12:48:00.949Z</time></trkpt><trkpt lat="45.8138683" lon="8.5448883"><ele>214.0</ele><time>2026-03-29T12:48:01.949Z</time></trkpt><trkpt lat="45.813655" lon="8.5448383"><ele>214.0</ele><time>2026-03-29T12:48:02.949Z</time></trkpt><trkpt lat="45.81345" lon="8.5447883"><ele>210.0</ele><time>2026-03-29T12:48:03.949Z</time></trkpt><trkpt lat="45.8132333" lon="8.5447317"><ele>206.0</ele><time>2026-03-29T12:48:04.949Z</time></trkpt><trkpt lat="45.81302" lon="8.5446633"><ele>202.0</ele><time>2026-03-29T12:48:05.949Z</time></trkpt><trkpt lat="45.8128233" lon="8.5445933"><ele>203.66666666666666</ele><time>2026-03-29T12:48:06.949Z</time></trkpt><trkpt lat="45.8126517" lon="8.5445183"><ele>205.33333333333331</ele><time>2026-03-29T12:48:07.948Z</time></trkpt><trkpt lat="45.8124983" lon="8.5444383"><ele>207.0</ele><time>2026-03-29T12:48:08.949Z</time></trkpt><trkpt lat="45.8123633" lon="8.5443367"><ele>207.0</ele><time>2026-03-29T12:48:09.949Z</time></trkpt><trkpt lat="45.8122433" lon="8.5441967"><ele>207.0</ele><time>2026-03-29T12:48:10.949Z</time></trkpt><trkpt lat="45.81212" lon="8.54404"><ele>207.0</ele><time>2026-03-29T12:48:11.949Z</time></trkpt><trkpt lat="45.8119567" lon="8.5439033"><ele>203.0</ele><time>2026-03-29T12:48:12.948Z</time></trkpt><trkpt lat="45.8117633" lon="8.543785"><ele>199.0</ele><time>2026-03-29T12:48:13.949Z</time></trkpt><trkpt lat="45.8115633" lon="8.5436733"><ele>195.0</ele><time>2026-03-29T12:48:14.949Z</time></trkpt><trkpt lat="45.811365" lon="8.54355"><ele>201.0</ele><time>2026-03-29T12:48:15.949Z</time></trkpt><trkpt lat="45.81119" lon="8.5434233"><ele>207.0</ele><time>2026-03-29T12:48:16.949Z</time></trkpt><trkpt lat="45.81103" lon="8.5433383"><ele>213.0</ele><time>2026-03-29T12:48:17.949Z</time></trkpt><trkpt lat="45.8108617" lon="8.5432667"><ele>213.0</ele><time>2026-03-29T12:48:18.949Z</time></trkpt><trkpt lat="45.8106867" lon="8.5432333"><ele>213.0</ele><time>2026-03-29T12:48:19.949Z</time></trkpt><trkpt lat="45.8105" lon="8.543245"><ele>213.0</ele><time>2026-03-29T12:48:20.949Z</time></trkpt><trkpt lat="45.8103083" lon="8.5432833"><ele>213.0</ele><time>2026-03-29T12:48:21.948Z</time></trkpt><trkpt lat="45.810105" lon="8.5433267"><ele>213.0</ele><time>2026-03-29T12:48:22.949Z</time></trkpt><trkpt lat="45.809885" lon="8.5433733"><ele>213.0</ele><time>2026-03-29T12:48:23.948Z</time></trkpt><trkpt lat="45.8096617" lon="8.543415"><ele>213.0</ele><time>2026-03-29T12:48:24.949Z</time></trkpt><trkpt lat="45.8094483" lon="8.5434667"><ele>213.0</ele><time>2026-03-29T12:48:25.949Z</time></trkpt><trkpt lat="45.8092517" lon="8.54351"><ele>213.0</ele><time>2026-03-29T12:48:26.948Z</time></trkpt><trkpt lat="45.8090617" lon="8.5435483"><ele>212.0</ele><time>2026-03-29T12:48:27.948Z</time></trkpt><trkpt lat="45.8088783" lon="8.5435633"><ele>211.0</ele><time>2026-03-29T12:48:28.949Z</time></trkpt><trkpt lat="45.8087" lon="8.543535"><ele>210.0</ele><time>2026-03-29T12:48:29.949Z</time></trkpt><trkpt lat="45.808515" lon="8.54348"><ele>208.33333333333331</ele><time>2026-03-29T12:48:30.949Z</time></trkpt><trkpt lat="45.8083283" lon="8.543405"><ele>206.66666666666666</ele><time>2026-03-29T12:48:31.949Z</time></trkpt><trkpt lat="45.8081533" lon="8.543335"><ele>205.0</ele><time>2026-03-29T12:48:32.949Z</time></trkpt><trkpt lat="45.807985" lon="8.5432767"><ele>205.0</ele><time>2026-03-29T12:48:33.949Z</time></trkpt><trkpt lat="45.8078317" lon="8.543215"><ele>205.0</ele><time>2026-03-29T12:48:34.949Z</time></trkpt><trkpt lat="45.8076833" lon="8.5431533"><ele>205.0</ele><time>2026-03-29T12:48:35.948Z</time></trkpt><trkpt lat="45.8075433" lon="8.5430933"><ele>205.5</ele><time>2026-03-29T12:48:36.949Z</time></trkpt><trkpt lat="45.8074283" lon="8.5429917"><ele>206.0</ele><time>2026-03-29T12:48:37.948Z</time></trkpt><trkpt lat="45.807315" lon="8.5428583"><ele>206.5</ele><time>2026-03-29T12:48:38.948Z</time></trkpt><trkpt lat="45.8072283" lon="8.5426783"><ele>207.0</ele><time>2026-03-29T12:48:39.948Z</time></trkpt><trkpt lat="45.807165" lon="8.5424617"><ele>207.0</ele><time>2026-03-29T12:48:40.948Z</time></trkpt><trkpt lat="45.8071217" lon="8.542235"><ele>207.0</ele><time>2026-03-29T12:48:41.948Z</time></trkpt><trkpt lat="45.8070833" lon="8.5420283"><ele>207.0</ele><time>2026-03-29T12:48:42.948Z</time></trkpt><trkpt lat="45.8070633" lon="8.5418383"><ele>207.0</ele><time>2026-03-29T12:48:43.948Z</time></trkpt><trkpt lat="45.8069983" lon="8.54167"><ele>207.5</ele><time>2026-03-29T12:48:44.948Z</time></trkpt><trkpt lat="45.8069433" lon="8.5415167"><ele>208.0</ele><time>2026-03-29T12:48:45.948Z</time></trkpt><trkpt lat="45.8068867" lon="8.541385"><ele>208.5</ele><time>2026-03-29T12:48:46.948Z</time></trkpt><trkpt lat="45.8068233" lon="8.54126"><ele>209.0</ele><time>2026-03-29T12:48:47.947Z</time></trkpt><trkpt lat="45.8067267" lon="8.54113"><ele>209.0</ele><time>2026-03-29T12:48:48.948Z</time></trkpt><trkpt lat="45.8066233" lon="8.5409833"><ele>209.0</ele><time>2026-03-29T12:48:49.948Z</time></trkpt><trkpt lat="45.8065117" lon="8.540855"><ele>209.0</ele><time>2026-03-29T12:48:50.948Z</time></trkpt><trkpt lat="45.8063967" lon="8.5407483"><ele>209.0</ele><time>2026-03-29T12:48:51.948Z</time></trkpt><trkpt lat="45.80628" lon="8.540665"><ele>209.0</ele><time>2026-03-29T12:48:52.947Z</time></trkpt><trkpt lat="45.8061533" lon="8.5406117"><ele>209.0</ele><time>2026-03-29T12:48:53.948Z</time></trkpt><trkpt lat="45.8060217" lon="8.540585"><ele>209.0</ele><time>2026-03-29T12:48:54.948Z</time></trkpt><trkpt lat="45.8058967" lon="8.5405783"><ele>209.0</ele><time>2026-03-29T12:48:55.948Z</time></trkpt><trkpt lat="45.8057783" lon="8.540575"><ele>208.5</ele><time>2026-03-29T12:48:56.948Z</time></trkpt><trkpt lat="45.8056583" lon="8.5405733"><ele>208.0</ele><time>2026-03-29T12:48:57.948Z</time></trkpt><trkpt lat="45.8055217" lon="8.5405783"><ele>207.5</ele><time>2026-03-29T12:48:58.948Z</time></trkpt><trkpt lat="45.8053667" lon="8.5405917"><ele>207.0</ele><time>2026-03-29T12:48:59.948Z</time></trkpt><trkpt lat="45.8051917" lon="8.54059"><ele>205.66666666666669</ele><time>2026-03-29T12:49:00.948Z</time></trkpt><trkpt lat="45.8050133" lon="8.5405833"><ele>204.33333333333334</ele><time>2026-03-29T12:49:01.948Z</time></trkpt><trkpt lat="45.80483" lon="8.540575"><ele>203.0</ele><time>2026-03-29T12:49:02.948Z</time></trkpt><trkpt lat="45.804645" lon="8.5405633"><ele>203.0</ele><time>2026-03-29T12:49:03.948Z</time></trkpt><trkpt lat="45.8044717" lon="8.5405483"><ele>203.0</ele><time>2026-03-29T12:49:04.948Z</time></trkpt><trkpt lat="45.8043117" lon="8.5405317"><ele>203.0</ele><time>2026-03-29T12:49:05.948Z</time></trkpt><trkpt lat="45.8041717" lon="8.5405133"><ele>203.25</ele><time>2026-03-29T12:49:06.948Z</time></trkpt><trkpt lat="45.80404" lon="8.5404867"><ele>203.5</ele><time>2026-03-29T12:49:07.948Z</time></trkpt><trkpt lat="45.8039183" lon="8.5404417"><ele>203.75</ele><time>2026-03-29T12:49:08.948Z</time></trkpt><trkpt lat="45.8037983" lon="8.54038"><ele>204.0</ele><time>2026-03-29T12:49:09.948Z</time></trkpt><trkpt lat="45.8036783" lon="8.5402933"><ele>205.33333333333331</ele><time>2026-03-29T12:49:10.947Z</time></trkpt><trkpt lat="45.8035417" lon="8.5401633"><ele>206.66666666666666</ele><time>2026-03-29T12:49:11.948Z</time></trkpt><trkpt lat="45.8033917" lon="8.5400133"><ele>208.0</ele><time>2026-03-29T12:49:12.948Z</time></trkpt><trkpt lat="45.8032383" lon="8.5398783"><ele>210.0</ele><time>2026-03-29T12:49:13.948Z</time></trkpt><trkpt lat="45.8030783" lon="8.53974"><ele>212.0</ele><time>2026-03-29T12:49:14.948Z</time></trkpt><trkpt lat="45.8029217" lon="8.5396083"><ele>214.0</ele><time>2026-03-29T12:49:15.947Z</time></trkpt><trkpt lat="45.802785" lon="8.539485"><ele>214.0</ele><time>2026-03-29T12:49:16.948Z</time></trkpt><trkpt lat="45.80266" lon="8.5393767"><ele>214.0</ele><time>2026-03-29T12:49:17.948Z</time></trkpt><trkpt lat="45.802545" lon="8.53928"><ele>214.0</ele><time>2026-03-29T12:49:18.948Z</time></trkpt><trkpt lat="45.8024417" lon="8.5391933"><ele>214.0</ele><time>2026-03-29T12:49:19.948Z</time></trkpt><trkpt lat="45.8023383" lon="8.5391033"><ele>214.0</ele><time>2026-03-29T12:49:20.947Z</time></trkpt><trkpt lat="45.8022167" lon="8.538995"><ele>214.0</ele><time>2026-03-29T12:49:21.948Z</time></trkpt><trkpt lat="45.80209" lon="8.538875"><ele>214.0</ele><time>2026-03-29T12:49:22.948Z</time></trkpt><trkpt lat="45.8019717" lon="8.5387717"><ele>214.0</ele><time>2026-03-29T12:49:23.948Z</time></trkpt><trkpt lat="45.80186" lon="8.53867"><ele>213.0</ele><time>2026-03-29T12:49:24.948Z</time></trkpt><trkpt lat="45.8017533" lon="8.53858"><ele>212.0</ele><time>2026-03-29T12:49:25.948Z</time></trkpt><trkpt lat="45.8016233" lon="8.5384967"><ele>211.0</ele><time>2026-03-29T12:49:26.947Z</time></trkpt><trkpt lat="45.8014667" lon="8.5384117"><ele>210.0</ele><time>2026-03-29T12:49:27.948Z</time></trkpt><trkpt lat="45.8012817" lon="8.5383217"><ele>210.0</ele><time>2026-03-29T12:49:28.948Z</time></trkpt><trkpt lat="45.801085" lon="8.538215"><ele>210.0</ele><time>2026-03-29T12:49:29.948Z</time></trkpt><trkpt lat="45.8008883" lon="8.5381217"><ele>210.0</ele><time>2026-03-29T12:49:30.948Z</time></trkpt><trkpt lat="45.8006983" lon="8.5380117"><ele>209.33333333333331</ele><time>2026-03-29T12:49:31.948Z</time></trkpt><trkpt lat="45.8004967" lon="8.5379083"><ele>208.66666666666666</ele><time>2026-03-29T12:49:32.948Z</time></trkpt><trkpt lat="45.8002867" lon="8.5378067"><ele>208.0</ele><time>2026-03-29T12:49:33.948Z</time></trkpt><trkpt lat="45.8000817" lon="8.5376983"><ele>206.33333333333331</ele><time>2026-03-29T12:49:34.948Z</time></trkpt><trkpt lat="45.7998833" lon="8.5375883"><ele>204.66666666666669</ele><time>2026-03-29T12:49:35.948Z</time></trkpt><trkpt lat="45.7997033" lon="8.5375"><ele>203.0</ele><time>2026-03-29T12:49:36.948Z</time></trkpt><trkpt lat="45.7995167" lon="8.5374117"><ele>203.0</ele><time>2026-03-29T12:49:37.948Z</time></trkpt><trkpt lat="45.7993383" lon="8.5373333"><ele>203.0</ele><time>2026-03-29T12:49:38.948Z</time></trkpt><trkpt lat="45.7991833" lon="8.5372617"><ele>203.0</ele><time>2026-03-29T12:49:39.948Z</time></trkpt><trkpt lat="45.7990367" lon="8.537215"><ele>202.33333333333334</ele><time>2026-03-29T12:49:40.948Z</time></trkpt><trkpt lat="45.7988867" lon="8.5371867"><ele>201.66666666666669</ele><time>2026-03-29T12:49:41.947Z</time></trkpt><trkpt lat="45.7987183" lon="8.537185"><ele>201.0</ele><time>2026-03-29T12:49:42.948Z</time></trkpt><trkpt lat="45.7985417" lon="8.53722"><ele>201.33333333333331</ele><time>2026-03-29T12:49:43.948Z</time></trkpt><trkpt lat="45.79836" lon="8.537265"><ele>201.66666666666666</ele><time>2026-03-29T12:49:44.948Z</time></trkpt><trkpt lat="45.7981717" lon="8.5373167"><ele>202.0</ele><time>2026-03-29T12:49:45.948Z</time></trkpt><trkpt lat="45.7979783" lon="8.53737"><ele>202.0</ele><time>2026-03-29T12:49:46.948Z</time></trkpt><trkpt lat="45.797795" lon="8.5374483"><ele>202.0</ele><time>2026-03-29T12:49:47.948Z</time></trkpt><trkpt lat="45.797615" lon="8.5375083"><ele>202.0</ele><time>2026-03-29T12:49:48.948Z</time></trkpt><trkpt lat="45.7974467" lon="8.53756"><ele>202.33333333333331</ele><time>2026-03-29T12:49:49.948Z</time></trkpt><trkpt lat="45.7972783" lon="8.537595"><ele>202.66666666666669</ele><time>2026-03-29T12:49:50.948Z</time></trkpt><trkpt lat="45.7971083" lon="8.5376067"><ele>203.0</ele><time>2026-03-29T12:49:51.948Z</time></trkpt><trkpt lat="45.79694" lon="8.5375733"><ele>203.33333333333334</ele><time>2026-03-29T12:49:52.948Z</time></trkpt><trkpt lat="45.79677" lon="8.5375267"><ele>203.66666666666669</ele><time>2026-03-29T12:49:53.947Z</time></trkpt><trkpt lat="45.79659" lon="8.537515"><ele>204.0</ele><time>2026-03-29T12:49:54.948Z</time></trkpt><trkpt lat="45.7963917" lon="8.5375267"><ele>204.0</ele><time>2026-03-29T12:49:55.948Z</time></trkpt><trkpt lat="45.796195" lon="8.5375633"><ele>204.0</ele><time>2026-03-29T12:49:56.948Z</time></trkpt><trkpt lat="45.7959833" lon="8.537625"><ele>204.0</ele><time>2026-03-29T12:49:57.948Z</time></trkpt><trkpt lat="45.7957833" lon="8.5376983"><ele>204.0</ele><time>2026-03-29T12:49:58.948Z</time></trkpt><trkpt lat="45.795585" lon="8.537785"><ele>204.0</ele><time>2026-03-29T12:49:59.948Z</time></trkpt><trkpt lat="45.79539" lon="8.537865"><ele>204.0</ele><time>2026-03-29T12:50:00.948Z</time></trkpt><trkpt lat="45.7951917" lon="8.5379467"><ele>202.66666666666669</ele><time>2026-03-29T12:50:01.948Z</time></trkpt><trkpt lat="45.794985" lon="8.538025"><ele>201.33333333333334</ele><time>2026-03-29T12:50:02.948Z</time></trkpt><trkpt lat="45.794785" lon="8.5381"><ele>200.0</ele><time>2026-03-29T12:50:03.948Z</time></trkpt><trkpt lat="45.794585" lon="8.5381833"><ele>200.0</ele><time>2026-03-29T12:50:04.948Z</time></trkpt><trkpt lat="45.7943783" lon="8.538265"><ele>200.0</ele><time>2026-03-29T12:50:05.948Z</time></trkpt><trkpt lat="45.7941667" lon="8.538345"><ele>200.0</ele><time>2026-03-29T12:50:06.948Z</time></trkpt><trkpt lat="45.7939667" lon="8.5384283"><ele>201.0</ele><time>2026-03-29T12:50:07.948Z</time></trkpt><trkpt lat="45.7937667" lon="8.5385117"><ele>202.0</ele><time>2026-03-29T12:50:08.948Z</time></trkpt><trkpt lat="45.7935717" lon="8.5385967"><ele>203.0</ele><time>2026-03-29T12:50:09.948Z</time></trkpt><trkpt lat="45.7933817" lon="8.5386717"><ele>203.33333333333334</ele><time>2026-03-29T12:50:10.948Z</time></trkpt><trkpt lat="45.79319" lon="8.5387533"><ele>203.66666666666669</ele><time>2026-03-29T12:50:11.948Z</time></trkpt><trkpt lat="45.7929967" lon="8.5388317"><ele>204.0</ele><time>2026-03-29T12:50:12.948Z</time></trkpt><trkpt lat="45.7928083" lon="8.5388983"><ele>204.33333333333331</ele><time>2026-03-29T12:50:13.948Z</time></trkpt><trkpt lat="45.79262" lon="8.5389717"><ele>204.66666666666666</ele><time>2026-03-29T12:50:14.948Z</time></trkpt><trkpt lat="45.7924367" lon="8.5390467"><ele>205.0</ele><time>2026-03-29T12:50:15.948Z</time></trkpt><trkpt lat="45.79225" lon="8.5391267"><ele>205.0</ele><time>2026-03-29T12:50:16.948Z</time></trkpt><trkpt lat="45.79208" lon="8.5391933"><ele>205.0</ele><time>2026-03-29T12:50:17.948Z</time></trkpt><trkpt lat="45.7919117" lon="8.5392567"><ele>205.0</ele><time>2026-03-29T12:50:18.948Z</time></trkpt><trkpt lat="45.7917533" lon="8.5393317"><ele>205.33333333333331</ele><time>2026-03-29T12:50:19.948Z</time></trkpt><trkpt lat="45.7916017" lon="8.5393833"><ele>205.66666666666669</ele><time>2026-03-29T12:50:20.948Z</time></trkpt><trkpt lat="45.7914467" lon="8.5394433"><ele>206.0</ele><time>2026-03-29T12:50:21.948Z</time></trkpt><trkpt lat="45.7913133" lon="8.5394933"><ele>206.0</ele><time>2026-03-29T12:50:22.948Z</time></trkpt><trkpt lat="45.7911883" lon="8.5395367"><ele>206.0</ele><time>2026-03-29T12:50:23.948Z</time></trkpt><trkpt lat="45.7910633" lon="8.53954"><ele>206.0</ele><time>2026-03-29T12:50:24.948Z</time></trkpt><trkpt lat="45.7909417" lon="8.5395"><ele>206.0</ele><time>2026-03-29T12:50:25.948Z</time></trkpt><trkpt lat="45.7908" lon="8.5394583"><ele>206.25</ele><time>2026-03-29T12:50:26.947Z</time></trkpt><trkpt lat="45.7906567" lon="8.5394317"><ele>206.5</ele><time>2026-03-29T12:50:27.948Z</time></trkpt><trkpt lat="45.7905283" lon="8.5394317"><ele>206.75</ele><time>2026-03-29T12:50:28.948Z</time></trkpt><trkpt lat="45.79039" lon="8.539465"><ele>207.0</ele><time>2026-03-29T12:50:29.948Z</time></trkpt><trkpt lat="45.7902733" lon="8.5395183"><ele>206.39999999999998</ele><time>2026-03-29T12:50:30.948Z</time></trkpt><trkpt lat="45.790165" lon="8.5395667"><ele>205.79999999999998</ele><time>2026-03-29T12:50:31.948Z</time></trkpt><trkpt lat="45.7900717" lon="8.53963"><ele>205.2</ele><time>2026-03-29T12:50:32.948Z</time></trkpt><trkpt lat="45.78998" lon="8.539685"><ele>204.6</ele><time>2026-03-29T12:50:33.948Z</time></trkpt><trkpt lat="45.7899" lon="8.53973"><ele>204.0</ele><time>2026-03-29T12:50:34.948Z</time></trkpt><trkpt lat="45.78982" lon="8.539775"><ele>204.0</ele><time>2026-03-29T12:50:35.948Z</time></trkpt><trkpt lat="45.7897517" lon="8.539815"><ele>204.0</ele><time>2026-03-29T12:50:36.948Z</time></trkpt><trkpt lat="45.78967" lon="8.5398567"><ele>204.0</ele><time>2026-03-29T12:50:37.948Z</time></trkpt><trkpt lat="45.789595" lon="8.5398933"><ele>204.0</ele><time>2026-03-29T12:50:38.948Z</time></trkpt><trkpt lat="45.789515" lon="8.53994"><ele>204.0</ele><time>2026-03-29T12:50:39.948Z</time></trkpt><trkpt lat="45.7894517" lon="8.539975"><ele>204.0</ele><time>2026-03-29T12:50:40.948Z</time></trkpt><trkpt lat="45.7893917" lon="8.54003"><ele>205.0</ele><time>2026-03-29T12:50:42.948Z</time></trkpt><trkpt lat="45.789315" lon="8.5400833"><ele>206.0</ele><time>2026-03-29T12:50:46.947Z</time></trkpt><trkpt lat="45.7892383" lon="8.5401267"><ele>207.0</ele><time>2026-03-29T12:50:48.948Z</time></trkpt><trkpt lat="45.78913" lon="8.5401883"><ele>208.0</ele><time>2026-03-29T12:50:50.948Z</time></trkpt><trkpt lat="45.7890633" lon="8.5402167"><ele>209.0</ele><time>2026-03-29T12:50:51.948Z</time></trkpt><trkpt lat="45.78899" lon="8.5402333"><ele>210.0</ele><time>2026-03-29T12:50:52.947Z</time></trkpt><trkpt lat="45.7889117" lon="8.5402383"><ele>210.0</ele><time>2026-03-29T12:50:53.948Z</time></trkpt><trkpt lat="45.7888283" lon="8.5402417"><ele>210.0</ele><time>2026-03-29T12:50:54.948Z</time></trkpt><trkpt lat="45.7887567" lon="8.5402383"><ele>210.0</ele><time>2026-03-29T12:50:55.948Z</time></trkpt><trkpt lat="45.788675" lon="8.5402167"><ele>210.0</ele><time>2026-03-29T12:50:56.948Z</time></trkpt><trkpt lat="45.78859" lon="8.54019"><ele>210.0</ele><time>2026-03-29T12:50:57.948Z</time></trkpt><trkpt lat="45.7885033" lon="8.5401633"><ele>210.0</ele><time>2026-03-29T12:50:58.948Z</time></trkpt><trkpt lat="45.7884183" lon="8.5401283"><ele>209.4</ele><time>2026-03-29T12:50:59.948Z</time></trkpt><trkpt lat="45.7883233" lon="8.540085"><ele>208.8</ele><time>2026-03-29T12:51:00.948Z</time></trkpt><trkpt lat="45.788215" lon="8.540055"><ele>208.2</ele><time>2026-03-29T12:51:01.948Z</time></trkpt><trkpt lat="45.788105" lon="8.540025"><ele>207.6</ele><time>2026-03-29T12:51:02.948Z</time></trkpt><trkpt lat="45.7879933" lon="8.5399917"><ele>207.0</ele><time>2026-03-29T12:51:03.948Z</time></trkpt><trkpt lat="45.7878767" lon="8.54"><ele>207.0</ele><time>2026-03-29T12:51:04.948Z</time></trkpt><trkpt lat="45.7877567" lon="8.5399817"><ele>207.0</ele><time>2026-03-29T12:51:05.948Z</time></trkpt><trkpt lat="45.7876433" lon="8.5399833"><ele>207.0</ele><time>2026-03-29T12:51:06.948Z</time></trkpt><trkpt lat="45.7875417" lon="8.539945"><ele>207.0</ele><time>2026-03-29T12:51:07.948Z</time></trkpt><trkpt lat="45.7874333" lon="8.53994"><ele>207.0</ele><time>2026-03-29T12:51:08.948Z</time></trkpt><trkpt lat="45.787315" lon="8.5399517"><ele>206.75</ele><time>2026-03-29T12:51:09.947Z</time></trkpt><trkpt lat="45.7872017" lon="8.5399733"><ele>206.5</ele><time>2026-03-29T12:51:10.948Z</time></trkpt><trkpt lat="45.7870767" lon="8.5400183"><ele>206.25</ele><time>2026-03-29T12:51:11.948Z</time></trkpt><trkpt lat="45.7869433" lon="8.540065"><ele>206.0</ele><time>2026-03-29T12:51:12.948Z</time></trkpt><trkpt lat="45.7868033" lon="8.540125"><ele>208.66666666666669</ele><time>2026-03-29T12:51:13.948Z</time></trkpt><trkpt lat="45.7866567" lon="8.54019"><ele>211.33333333333331</ele><time>2026-03-29T12:51:14.948Z</time></trkpt><trkpt lat="45.7865067" lon="8.5402683"><ele>214.0</ele><time>2026-03-29T12:51:15.948Z</time></trkpt><trkpt lat="45.7863467" lon="8.540345"><ele>209.33333333333331</ele><time>2026-03-29T12:51:16.948Z</time></trkpt><trkpt lat="45.786195" lon="8.5404083"><ele>204.66666666666669</ele><time>2026-03-29T12:51:17.948Z</time></trkpt><trkpt lat="45.7860283" lon="8.5404717"><ele>200.0</ele><time>2026-03-29T12:51:18.948Z</time></trkpt><trkpt lat="45.785855" lon="8.540515"><ele>200.0</ele><time>2026-03-29T12:51:19.948Z</time></trkpt><trkpt lat="45.7856717" lon="8.5405583"><ele>200.0</ele><time>2026-03-29T12:51:20.948Z</time></trkpt><trkpt lat="45.7854867" lon="8.5405867"><ele>200.0</ele><time>2026-03-29T12:51:21.947Z</time></trkpt><trkpt lat="45.78529" lon="8.54061"><ele>200.0</ele><time>2026-03-29T12:51:22.948Z</time></trkpt><trkpt lat="45.785085" lon="8.540635"><ele>200.0</ele><time>2026-03-29T12:51:23.948Z</time></trkpt><trkpt lat="45.7848783" lon="8.5406617"><ele>200.0</ele><time>2026-03-29T12:51:24.948Z</time></trkpt><trkpt lat="45.784675" lon="8.540695"><ele>200.0</ele><time>2026-03-29T12:51:25.948Z</time></trkpt><trkpt lat="45.7844783" lon="8.5407367"><ele>200.0</ele><time>2026-03-29T12:51:26.948Z</time></trkpt><trkpt lat="45.7843067" lon="8.5407833"><ele>200.0</ele><time>2026-03-29T12:51:27.948Z</time></trkpt><trkpt lat="45.7841417" lon="8.5408417"><ele>204.33333333333334</ele><time>2026-03-29T12:51:28.948Z</time></trkpt><trkpt lat="45.7839783" lon="8.5409183"><ele>208.66666666666669</ele><time>2026-03-29T12:51:29.948Z</time></trkpt><trkpt lat="45.7838233" lon="8.5410317"><ele>213.0</ele><time>2026-03-29T12:51:30.948Z</time></trkpt><trkpt lat="45.7836817" lon="8.5411767"><ele>209.0</ele><time>2026-03-29T12:51:31.948Z</time></trkpt><trkpt lat="45.7835433" lon="8.5413117"><ele>205.0</ele><time>2026-03-29T12:51:32.948Z</time></trkpt><trkpt lat="45.78342" lon="8.5414233"><ele>201.0</ele><time>2026-03-29T12:51:33.948Z</time></trkpt><trkpt lat="45.7832883" lon="8.541495"><ele>201.0</ele><time>2026-03-29T12:51:34.948Z</time></trkpt><trkpt lat="45.78314" lon="8.5415283"><ele>201.0</ele><time>2026-03-29T12:51:35.948Z</time></trkpt><trkpt lat="45.782975" lon="8.54156"><ele>201.0</ele><time>2026-03-29T12:51:36.948Z</time></trkpt><trkpt lat="45.7827983" lon="8.5415933"><ele>202.0</ele><time>2026-03-29T12:51:37.947Z</time></trkpt><trkpt lat="45.78262" lon="8.54162"><ele>203.0</ele><time>2026-03-29T12:51:38.948Z</time></trkpt><trkpt lat="45.782445" lon="8.54165"><ele>204.0</ele><time>2026-03-29T12:51:39.948Z</time></trkpt><trkpt lat="45.7822717" lon="8.5416833"><ele>204.0</ele><time>2026-03-29T12:51:40.948Z</time></trkpt><trkpt lat="45.782085" lon="8.5417317"><ele>204.0</ele><time>2026-03-29T12:51:41.948Z</time></trkpt><trkpt lat="45.781895" lon="8.541755"><ele>204.0</ele><time>2026-03-29T12:51:42.948Z</time></trkpt><trkpt lat="45.7817067" lon="8.5417883"><ele>204.66666666666669</ele><time>2026-03-29T12:51:43.948Z</time></trkpt><trkpt lat="45.7815117" lon="8.541835"><ele>205.33333333333334</ele><time>2026-03-29T12:51:44.948Z</time></trkpt><trkpt lat="45.7813083" lon="8.5418767"><ele>206.0</ele><time>2026-03-29T12:51:45.948Z</time></trkpt><trkpt lat="45.7811033" lon="8.54191"><ele>205.66666666666669</ele><time>2026-03-29T12:51:46.948Z</time></trkpt><trkpt lat="45.780905" lon="8.5419467"><ele>205.33333333333331</ele><time>2026-03-29T12:51:47.948Z</time></trkpt><trkpt lat="45.7807233" lon="8.541965"><ele>205.0</ele><time>2026-03-29T12:51:48.948Z</time></trkpt><trkpt lat="45.7805517" lon="8.5419883"><ele>205.0</ele><time>2026-03-29T12:51:49.948Z</time></trkpt><trkpt lat="45.78039" lon="8.542005"><ele>205.0</ele><time>2026-03-29T12:51:50.948Z</time></trkpt><trkpt lat="45.7802317" lon="8.5420183"><ele>205.0</ele><time>2026-03-29T12:51:51.948Z</time></trkpt><trkpt lat="45.78007" lon="8.54204"><ele>206.33333333333331</ele><time>2026-03-29T12:51:52.948Z</time></trkpt><trkpt lat="45.779895" lon="8.542045"><ele>207.66666666666669</ele><time>2026-03-29T12:51:53.948Z</time></trkpt><trkpt lat="45.7797183" lon="8.5420583"><ele>209.0</ele><time>2026-03-29T12:51:54.948Z</time></trkpt><trkpt lat="45.77954" lon="8.5420717"><ele>205.66666666666669</ele><time>2026-03-29T12:51:55.948Z</time></trkpt><trkpt lat="45.7793517" lon="8.5420933"><ele>202.33333333333331</ele><time>2026-03-29T12:51:56.948Z</time></trkpt><trkpt lat="45.7791583" lon="8.5421067"><ele>199.0</ele><time>2026-03-29T12:51:57.948Z</time></trkpt><trkpt lat="45.7789683" lon="8.5421283"><ele>199.0</ele><time>2026-03-29T12:51:58.947Z</time></trkpt><trkpt lat="45.7787733" lon="8.54214"><ele>199.0</ele><time>2026-03-29T12:51:59.948Z</time></trkpt><trkpt lat="45.77858" lon="8.5421567"><ele>199.0</ele><time>2026-03-29T12:52:00.948Z</time></trkpt><trkpt lat="45.7783933" lon="8.5421733"><ele>199.0</ele><time>2026-03-29T12:52:01.948Z</time></trkpt><trkpt lat="45.77822" lon="8.5421867"><ele>199.0</ele><time>2026-03-29T12:52:02.948Z</time></trkpt><trkpt lat="45.7780483" lon="8.5422"><ele>199.0</ele><time>2026-03-29T12:52:03.947Z</time></trkpt><trkpt lat="45.7778783" lon="8.5422083"><ele>199.0</ele><time>2026-03-29T12:52:04.947Z</time></trkpt><trkpt lat="45.7777" lon="8.5422233"><ele>199.0</ele><time>2026-03-29T12:52:05.948Z</time></trkpt><trkpt lat="45.777515" lon="8.542245"><ele>199.0</ele><time>2026-03-29T12:52:06.948Z</time></trkpt><trkpt lat="45.777345" lon="8.542265"><ele>201.0</ele><time>2026-03-29T12:52:07.948Z</time></trkpt><trkpt lat="45.7771917" lon="8.5422833"><ele>203.0</ele><time>2026-03-29T12:52:08.948Z</time></trkpt><trkpt lat="45.77704" lon="8.5422933"><ele>205.0</ele><time>2026-03-29T12:52:09.948Z</time></trkpt><trkpt lat="45.7768817" lon="8.54232"><ele>207.33333333333331</ele><time>2026-03-29T12:52:10.948Z</time></trkpt><trkpt lat="45.77673" lon="8.542335"><ele>209.66666666666669</ele><time>2026-03-29T12:52:11.948Z</time></trkpt><trkpt lat="45.7765783" lon="8.542385"><ele>212.0</ele><time>2026-03-29T12:52:12.948Z</time></trkpt><trkpt lat="45.776425" lon="8.5424517"><ele>212.0</ele><time>2026-03-29T12:52:13.948Z</time></trkpt><trkpt lat="45.7762833" lon="8.5425417"><ele>212.0</ele><time>2026-03-29T12:52:14.947Z</time></trkpt><trkpt lat="45.7761417" lon="8.5426317"><ele>212.0</ele><time>2026-03-29T12:52:15.948Z</time></trkpt><trkpt lat="45.7760167" lon="8.542725"><ele>209.75</ele><time>2026-03-29T12:52:16.948Z</time></trkpt><trkpt lat="45.7758983" lon="8.5428283"><ele>207.5</ele><time>2026-03-29T12:52:17.948Z</time></trkpt><trkpt lat="45.7757667" lon="8.542935"><ele>205.25</ele><time>2026-03-29T12:52:18.948Z</time></trkpt><trkpt lat="45.77564" lon="8.54304"><ele>203.0</ele><time>2026-03-29T12:52:19.947Z</time></trkpt><trkpt lat="45.7755117" lon="8.5431433"><ele>203.0</ele><time>2026-03-29T12:52:20.948Z</time></trkpt><trkpt lat="45.7753883" lon="8.5432367"><ele>203.0</ele><time>2026-03-29T12:52:21.948Z</time></trkpt><trkpt lat="45.77526" lon="8.5433283"><ele>203.0</ele><time>2026-03-29T12:52:22.948Z</time></trkpt><trkpt lat="45.7751333" lon="8.54343"><ele>203.0</ele><time>2026-03-29T12:52:23.948Z</time></trkpt><trkpt lat="45.7750067" lon="8.5435283"><ele>203.0</ele><time>2026-03-29T12:52:24.948Z</time></trkpt><trkpt lat="45.7748783" lon="8.5436283"><ele>203.0</ele><time>2026-03-29T12:52:25.948Z</time></trkpt><trkpt lat="45.7747517" lon="8.5437317"><ele>203.0</ele><time>2026-03-29T12:52:26.947Z</time></trkpt><trkpt lat="45.7746383" lon="8.54382"><ele>203.0</ele><time>2026-03-29T12:52:27.947Z</time></trkpt><trkpt lat="45.77453" lon="8.5439167"><ele>203.0</ele><time>2026-03-29T12:52:28.948Z</time></trkpt><trkpt lat="45.7744283" lon="8.5440367"><ele>203.0</ele><time>2026-03-29T12:52:29.948Z</time></trkpt><trkpt lat="45.7743333" lon="8.5441667"><ele>203.0</ele><time>2026-03-29T12:52:30.948Z</time></trkpt><trkpt lat="45.7742383" lon="8.5442933"><ele>203.0</ele><time>2026-03-29T12:52:31.948Z</time></trkpt><trkpt lat="45.774135" lon="8.5444117"><ele>204.0</ele><time>2026-03-29T12:52:32.948Z</time></trkpt><trkpt lat="45.7740233" lon="8.5445133"><ele>205.0</ele><time>2026-03-29T12:52:33.948Z</time></trkpt><trkpt lat="45.773895" lon="8.544595"><ele>206.0</ele><time>2026-03-29T12:52:34.948Z</time></trkpt><trkpt lat="45.773755" lon="8.5446567"><ele>207.0</ele><time>2026-03-29T12:52:35.948Z</time></trkpt><trkpt lat="45.7736233" lon="8.5446967"><ele>206.0</ele><time>2026-03-29T12:52:36.947Z</time></trkpt><trkpt lat="45.773485" lon="8.544735"><ele>205.0</ele><time>2026-03-29T12:52:37.948Z</time></trkpt><trkpt lat="45.7733433" lon="8.5447817"><ele>204.0</ele><time>2026-03-29T12:52:38.948Z</time></trkpt><trkpt lat="45.773195" lon="8.5448383"><ele>203.0</ele><time>2026-03-29T12:52:39.948Z</time></trkpt><trkpt lat="45.7730367" lon="8.544895"><ele>203.0</ele><time>2026-03-29T12:52:40.948Z</time></trkpt><trkpt lat="45.7728817" lon="8.54495"><ele>203.0</ele><time>2026-03-29T12:52:41.947Z</time></trkpt><trkpt lat="45.7727317" lon="8.54501"><ele>203.0</ele><time>2026-03-29T12:52:42.948Z</time></trkpt><trkpt lat="45.7725767" lon="8.545065"><ele>205.33333333333334</ele><time>2026-03-29T12:52:43.948Z</time></trkpt><trkpt lat="45.7724233" lon="8.5451317"><ele>207.66666666666669</ele><time>2026-03-29T12:52:44.948Z</time></trkpt><trkpt lat="45.7722683" lon="8.545195"><ele>210.0</ele><time>2026-03-29T12:52:45.948Z</time></trkpt><trkpt lat="45.772125" lon="8.54527"><ele>210.0</ele><time>2026-03-29T12:52:46.948Z</time></trkpt><trkpt lat="45.7719967" lon="8.545345"><ele>210.0</ele><time>2026-03-29T12:52:47.948Z</time></trkpt><trkpt lat="45.7718783" lon="8.5454283"><ele>210.0</ele><time>2026-03-29T12:52:48.948Z</time></trkpt><trkpt lat="45.7717733" lon="8.54552"><ele>210.0</ele><time>2026-03-29T12:52:49.948Z</time></trkpt><trkpt lat="45.7716867" lon="8.545605"><ele>209.4</ele><time>2026-03-29T12:52:50.947Z</time></trkpt><trkpt lat="45.771605" lon="8.5456883"><ele>208.8</ele><time>2026-03-29T12:52:51.947Z</time></trkpt><trkpt lat="45.7715267" lon="8.5457683"><ele>208.2</ele><time>2026-03-29T12:52:52.947Z</time></trkpt><trkpt lat="45.7714467" lon="8.545855"><ele>207.6</ele><time>2026-03-29T12:52:53.947Z</time></trkpt><trkpt lat="45.7713567" lon="8.5459483"><ele>207.0</ele><time>2026-03-29T12:52:54.947Z</time></trkpt><trkpt lat="45.7712667" lon="8.546035"><ele>207.0</ele><time>2026-03-29T12:52:55.947Z</time></trkpt><trkpt lat="45.7711867" lon="8.5461217"><ele>207.0</ele><time>2026-03-29T12:52:56.947Z</time></trkpt><trkpt lat="45.7711083" lon="8.5462067"><ele>207.0</ele><time>2026-03-29T12:52:57.947Z</time></trkpt><trkpt lat="45.771025" lon="8.5462867"><ele>207.0</ele><time>2026-03-29T12:52:58.947Z</time></trkpt><trkpt lat="45.7709517" lon="8.54637"><ele>207.0</ele><time>2026-03-29T12:52:59.947Z</time></trkpt><trkpt lat="45.77088" lon="8.5464517"><ele>207.0</ele><time>2026-03-29T12:53:00.947Z</time></trkpt><trkpt lat="45.770815" lon="8.5465383"><ele>207.0</ele><time>2026-03-29T12:53:01.947Z</time></trkpt><trkpt lat="45.7707517" lon="8.5466217"><ele>207.0</ele><time>2026-03-29T12:53:02.947Z</time></trkpt><trkpt lat="45.77069" lon="8.5467"><ele>207.0</ele><time>2026-03-29T12:53:03.947Z</time></trkpt><trkpt lat="45.7706317" lon="8.5467783"><ele>207.0</ele><time>2026-03-29T12:53:04.947Z</time></trkpt><trkpt lat="45.770565" lon="8.546865"><ele>207.0</ele><time>2026-03-29T12:53:05.947Z</time></trkpt><trkpt lat="45.7704933" lon="8.5469633"><ele>208.0</ele><time>2026-03-29T12:53:06.947Z</time></trkpt><trkpt lat="45.7704267" lon="8.5470667"><ele>209.0</ele><time>2026-03-29T12:53:07.946Z</time></trkpt><trkpt lat="45.7703533" lon="8.5471733"><ele>210.0</ele><time>2026-03-29T12:53:08.947Z</time></trkpt><trkpt lat="45.7702733" lon="8.5472717"><ele>211.0</ele><time>2026-03-29T12:53:09.947Z</time></trkpt><trkpt lat="45.7702" lon="8.5473767"><ele>212.0</ele><time>2026-03-29T12:53:10.947Z</time></trkpt><trkpt lat="45.7701233" lon="8.5474917"><ele>212.0</ele><time>2026-03-29T12:53:11.947Z</time></trkpt><trkpt lat="45.7700433" lon="8.5476067"><ele>212.0</ele><time>2026-03-29T12:53:12.947Z</time></trkpt><trkpt lat="45.769965" lon="8.5477167"><ele>212.0</ele><time>2026-03-29T12:53:13.947Z</time></trkpt><trkpt lat="45.7698717" lon="8.547815"><ele>212.0</ele><time>2026-03-29T12:53:14.947Z</time></trkpt><trkpt lat="45.7697817" lon="8.5479167"><ele>208.75</ele><time>2026-03-29T12:53:15.947Z</time></trkpt><trkpt lat="45.7696933" lon="8.54801"><ele>205.5</ele><time>2026-03-29T12:53:16.947Z</time></trkpt><trkpt lat="45.7695983" lon="8.5480933"><ele>202.25</ele><time>2026-03-29T12:53:17.947Z</time></trkpt><trkpt lat="45.7694983" lon="8.54818"><ele>199.0</ele><time>2026-03-29T12:53:18.947Z</time></trkpt><trkpt lat="45.7694" lon="8.5482867"><ele>200.5</ele><time>2026-03-29T12:53:19.947Z</time></trkpt><trkpt lat="45.769305" lon="8.5483967"><ele>202.0</ele><time>2026-03-29T12:53:20.947Z</time></trkpt><trkpt lat="45.7692233" lon="8.54851"><ele>203.5</ele><time>2026-03-29T12:53:21.947Z</time></trkpt><trkpt lat="45.7691367" lon="8.5486433"><ele>205.0</ele><time>2026-03-29T12:53:22.947Z</time></trkpt><trkpt lat="45.76907" lon="8.5487717"><ele>205.0</ele><time>2026-03-29T12:53:23.947Z</time></trkpt><trkpt lat="45.7690067" lon="8.5488783"><ele>205.0</ele><time>2026-03-29T12:53:24.947Z</time></trkpt><trkpt lat="45.768945" lon="8.5489983"><ele>205.0</ele><time>2026-03-29T12:53:25.947Z</time></trkpt><trkpt lat="45.768885" lon="8.5491133"><ele>205.0</ele><time>2026-03-29T12:53:26.947Z</time></trkpt><trkpt lat="45.7688133" lon="8.5492317"><ele>205.0</ele><time>2026-03-29T12:53:27.946Z</time></trkpt><trkpt lat="45.7687417" lon="8.5493683"><ele>205.0</ele><time>2026-03-29T12:53:28.947Z</time></trkpt><trkpt lat="45.7686717" lon="8.5494933"><ele>205.0</ele><time>2026-03-29T12:53:29.947Z</time></trkpt><trkpt lat="45.768605" lon="8.5496217"><ele>205.0</ele><time>2026-03-29T12:53:30.947Z</time></trkpt><trkpt lat="45.7685367" lon="8.5497567"><ele>205.0</ele><time>2026-03-29T12:53:31.947Z</time></trkpt><trkpt lat="45.7684617" lon="8.5498867"><ele>205.6</ele><time>2026-03-29T12:53:32.947Z</time></trkpt><trkpt lat="45.768395" lon="8.5500117"><ele>206.2</ele><time>2026-03-29T12:53:33.947Z</time></trkpt><trkpt lat="45.7683333" lon="8.550125"><ele>206.8</ele><time>2026-03-29T12:53:34.946Z</time></trkpt><trkpt lat="45.7682583" lon="8.55024"><ele>207.4</ele><time>2026-03-29T12:53:35.947Z</time></trkpt><trkpt lat="45.76819" lon="8.55036"><ele>208.0</ele><time>2026-03-29T12:53:36.947Z</time></trkpt><trkpt lat="45.7681233" lon="8.5504783"><ele>205.8</ele><time>2026-03-29T12:53:37.947Z</time></trkpt><trkpt lat="45.7680683" lon="8.550595"><ele>203.60000000000002</ele><time>2026-03-29T12:53:38.947Z</time></trkpt><trkpt lat="45.768" lon="8.5507117"><ele>201.39999999999998</ele><time>2026-03-29T12:53:39.947Z</time></trkpt><trkpt lat="45.7679417" lon="8.5508333"><ele>199.2</ele><time>2026-03-29T12:53:40.946Z</time></trkpt><trkpt lat="45.767875" lon="8.5509517"><ele>197.0</ele><time>2026-03-29T12:53:41.947Z</time></trkpt><trkpt lat="45.7677983" lon="8.5510917"><ele>196.25</ele><time>2026-03-29T12:53:42.946Z</time></trkpt><trkpt lat="45.76773" lon="8.551235"><ele>195.5</ele><time>2026-03-29T12:53:43.947Z</time></trkpt><trkpt lat="45.7676633" lon="8.55138"><ele>194.75</ele><time>2026-03-29T12:53:44.947Z</time></trkpt><trkpt lat="45.76759" lon="8.551515"><ele>194.0</ele><time>2026-03-29T12:53:45.947Z</time></trkpt><trkpt lat="45.76752" lon="8.551635"><ele>195.25</ele><time>2026-03-29T12:53:46.947Z</time></trkpt><trkpt lat="45.7674367" lon="8.5517617"><ele>196.5</ele><time>2026-03-29T12:53:47.947Z</time></trkpt><trkpt lat="45.76737" lon="8.5518883"><ele>197.75</ele><time>2026-03-29T12:53:48.947Z</time></trkpt><trkpt lat="45.7673" lon="8.5520117"><ele>199.0</ele><time>2026-03-29T12:53:49.947Z</time></trkpt><trkpt lat="45.7672233" lon="8.5521267"><ele>199.0</ele><time>2026-03-29T12:53:50.947Z</time></trkpt><trkpt lat="45.7671383" lon="8.5522367"><ele>199.0</ele><time>2026-03-29T12:53:51.946Z</time></trkpt><trkpt lat="45.7670483" lon="8.5523367"><ele>199.0</ele><time>2026-03-29T12:53:52.947Z</time></trkpt><trkpt lat="45.7669567" lon="8.5524483"><ele>199.0</ele><time>2026-03-29T12:53:53.946Z</time></trkpt><trkpt lat="45.76686" lon="8.55255"><ele>198.75</ele><time>2026-03-29T12:53:54.947Z</time></trkpt><trkpt lat="45.7667617" lon="8.5526483"><ele>198.5</ele><time>2026-03-29T12:53:55.947Z</time></trkpt><trkpt lat="45.7666683" lon="8.552755"><ele>198.25</ele><time>2026-03-29T12:53:56.946Z</time></trkpt><trkpt lat="45.76657" lon="8.5528683"><ele>198.0</ele><time>2026-03-29T12:53:57.947Z</time></trkpt><trkpt lat="45.7664767" lon="8.55297"><ele>198.0</ele><time>2026-03-29T12:53:58.947Z</time></trkpt><trkpt lat="45.7663933" lon="8.553075"><ele>198.0</ele><time>2026-03-29T12:53:59.946Z</time></trkpt><trkpt lat="45.7663067" lon="8.55318"><ele>198.0</ele><time>2026-03-29T12:54:00.947Z</time></trkpt><trkpt lat="45.7661367" lon="8.55338"><ele>198.0</ele><time>2026-03-29T12:54:02.947Z</time></trkpt><trkpt lat="45.7660583" lon="8.5534883"><ele>201.5</ele><time>2026-03-29T12:54:03.947Z</time></trkpt><trkpt lat="45.76595" lon="8.5537233"><ele>205.0</ele><time>2026-03-29T12:54:05.947Z</time></trkpt><trkpt lat="45.76591" lon="8.5538367"><ele>208.5</ele><time>2026-03-29T12:54:06.947Z</time></trkpt><trkpt lat="45.7658733" lon="8.5539517"><ele>212.0</ele><time>2026-03-29T12:54:07.947Z</time></trkpt><trkpt lat="45.765835" lon="8.5540617"><ele>212.0</ele><time>2026-03-29T12:54:08.946Z</time></trkpt><trkpt lat="45.7657633" lon="8.5542717"><ele>212.0</ele><time>2026-03-29T12:54:10.947Z</time></trkpt><trkpt lat="45.7657283" lon="8.5543867"><ele>212.0</ele><time>2026-03-29T12:54:11.947Z</time></trkpt><trkpt lat="45.7656883" lon="8.554505"><ele>212.0</ele><time>2026-03-29T12:54:12.947Z</time></trkpt><trkpt lat="45.7656483" lon="8.554625"><ele>212.0</ele><time>2026-03-29T12:54:13.947Z</time></trkpt><trkpt lat="45.7655667" lon="8.5548933"><ele>208.0</ele><time>2026-03-29T12:54:15.946Z</time></trkpt><trkpt lat="45.7655233" lon="8.5550217"><ele>204.0</ele><time>2026-03-29T12:54:16.947Z</time></trkpt><trkpt lat="45.7654883" lon="8.5551433"><ele>200.0</ele><time>2026-03-29T12:54:17.947Z</time></trkpt><trkpt lat="45.7653333" lon="8.5556533"><ele>200.50000000000003</ele><time>2026-03-29T12:54:21.947Z</time></trkpt><trkpt lat="45.7652917" lon="8.5557733"><ele>201.0</ele><time>2026-03-29T12:54:22.946Z</time></trkpt><trkpt lat="45.765255" lon="8.5558867"><ele>201.5</ele><time>2026-03-29T12:54:23.947Z</time></trkpt><trkpt lat="45.7652133" lon="8.555985"><ele>202.0</ele><time>2026-03-29T12:54:24.947Z</time></trkpt><trkpt lat="45.7651683" lon="8.5560767"><ele>202.50000000000003</ele><time>2026-03-29T12:54:25.947Z</time></trkpt><trkpt lat="45.7651217" lon="8.55615"><ele>203.0</ele><time>2026-03-29T12:54:26.947Z</time></trkpt><trkpt lat="45.76507" lon="8.55621"><ele>203.00000000000003</ele><time>2026-03-29T12:54:27.947Z</time></trkpt><trkpt lat="45.76501" lon="8.5562683"><ele>203.0</ele><time>2026-03-29T12:54:28.947Z</time></trkpt><trkpt lat="45.7649367" lon="8.556315"><ele>203.0</ele><time>2026-03-29T12:54:29.947Z</time></trkpt><trkpt lat="45.7648683" lon="8.55637"><ele>203.0</ele><time>2026-03-29T12:54:30.947Z</time></trkpt><trkpt lat="45.7647967" lon="8.5564183"><ele>203.00000000000003</ele><time>2026-03-29T12:54:31.947Z</time></trkpt><trkpt lat="45.7647383" lon="8.5564583"><ele>203.0</ele><time>2026-03-29T12:54:32.947Z</time></trkpt><trkpt lat="45.7646233" lon="8.5565267"><ele>203.0</ele><time>2026-03-29T12:54:40.946Z</time></trkpt><trkpt lat="45.7645183" lon="8.5566"><ele>203.0</ele><time>2026-03-29T12:54:42.947Z</time></trkpt><trkpt lat="45.76441" lon="8.5566783"><ele>203.0</ele><time>2026-03-29T12:54:44.947Z</time></trkpt><trkpt lat="45.7643483" lon="8.5567317"><ele>203.0</ele><time>2026-03-29T12:54:45.947Z</time></trkpt><trkpt lat="45.7642667" lon="8.5567633"><ele>203.0</ele><time>2026-03-29T12:54:46.947Z</time></trkpt><trkpt lat="45.76418" lon="8.5567833"><ele>207.60000000000002</ele><time>2026-03-29T12:54:47.946Z</time></trkpt><trkpt lat="45.76409" lon="8.5567867"><ele>212.20000000000002</ele><time>2026-03-29T12:54:48.947Z</time></trkpt><trkpt lat="45.763985" lon="8.5567717"><ele>216.8</ele><time>2026-03-29T12:54:49.947Z</time></trkpt><trkpt lat="45.7638683" lon="8.556755"><ele>221.4</ele><time>2026-03-29T12:54:50.947Z</time></trkpt><trkpt lat="45.7637517" lon="8.5567483"><ele>226.0</ele><time>2026-03-29T12:54:51.947Z</time></trkpt><trkpt lat="45.76364" lon="8.55672"><ele>226.0</ele><time>2026-03-29T12:54:52.947Z</time></trkpt><trkpt lat="45.763535" lon="8.5566967"><ele>226.00000000000003</ele><time>2026-03-29T12:54:53.946Z</time></trkpt><trkpt lat="45.763435" lon="8.556675"><ele>226.00000000000003</ele><time>2026-03-29T12:54:54.947Z</time></trkpt><trkpt lat="45.763335" lon="8.55667"><ele>226.0</ele><time>2026-03-29T12:54:55.947Z</time></trkpt><trkpt lat="45.7632333" lon="8.5566617"><ele>226.0</ele><time>2026-03-29T12:54:56.947Z</time></trkpt><trkpt lat="45.7631383" lon="8.5566417"><ele>225.0</ele><time>2026-03-29T12:54:57.947Z</time></trkpt><trkpt lat="45.763055" lon="8.5566167"><ele>224.00000000000003</ele><time>2026-03-29T12:54:58.947Z</time></trkpt><trkpt lat="45.762955" lon="8.5565817"><ele>223.00000000000003</ele><time>2026-03-29T12:55:00.947Z</time></trkpt><trkpt lat="45.76287" lon="8.5565367"><ele>222.0</ele><time>2026-03-29T12:55:02.947Z</time></trkpt><trkpt lat="45.76279" lon="8.556465"><ele>221.0</ele><time>2026-03-29T12:55:04.947Z</time></trkpt><trkpt lat="45.7627283" lon="8.5563567"><ele>221.20000000000002</ele><time>2026-03-29T12:55:06.946Z</time></trkpt><trkpt lat="45.762675" lon="8.556265"><ele>221.40000000000003</ele><time>2026-03-29T12:55:08.946Z</time></trkpt><trkpt lat="45.7626017" lon="8.5561317"><ele>221.6</ele><time>2026-03-29T12:55:10.946Z</time></trkpt><trkpt lat="45.7625583" lon="8.55604"><ele>221.8</ele><time>2026-03-29T12:55:11.947Z</time></trkpt><trkpt lat="45.762515" lon="8.555925"><ele>222.0</ele><time>2026-03-29T12:55:12.946Z</time></trkpt><trkpt lat="45.76246" lon="8.55578"><ele>222.0</ele><time>2026-03-29T12:55:13.947Z</time></trkpt><trkpt lat="45.7623867" lon="8.5555867"><ele>222.0</ele><time>2026-03-29T12:55:14.947Z</time></trkpt><trkpt lat="45.7622583" lon="8.555255"><ele>222.0</ele><time>2026-03-29T12:55:16.947Z</time></trkpt><trkpt lat="45.7621833" lon="8.55511"><ele>225.0</ele><time>2026-03-29T12:55:17.947Z</time></trkpt><trkpt lat="45.7621217" lon="8.5549733"><ele>228.0</ele><time>2026-03-29T12:55:18.947Z</time></trkpt><trkpt lat="45.7620733" lon="8.5548417"><ele>231.0</ele><time>2026-03-29T12:55:19.946Z</time></trkpt><trkpt lat="45.7620183" lon="8.5547167"><ele>234.0</ele><time>2026-03-29T12:55:20.947Z</time></trkpt><trkpt lat="45.7619633" lon="8.554595"><ele>237.0</ele><time>2026-03-29T12:55:21.947Z</time></trkpt><trkpt lat="45.7619117" lon="8.5544817"><ele>234.0</ele><time>2026-03-29T12:55:22.947Z</time></trkpt><trkpt lat="45.7618617" lon="8.554375"><ele>231.0</ele><time>2026-03-29T12:55:23.946Z</time></trkpt><trkpt lat="45.7618133" lon="8.5542717"><ele>228.0</ele><time>2026-03-29T12:55:24.947Z</time></trkpt><trkpt lat="45.761765" lon="8.554175"><ele>225.0</ele><time>2026-03-29T12:55:25.947Z</time></trkpt><trkpt lat="45.7617233" lon="8.5540783"><ele>222.0</ele><time>2026-03-29T12:55:26.947Z</time></trkpt><trkpt lat="45.761685" lon="8.5539833"><ele>219.0</ele><time>2026-03-29T12:55:27.947Z</time></trkpt><trkpt lat="45.76166" lon="8.5538883"><ele>219.0</ele><time>2026-03-29T12:55:28.947Z</time></trkpt><trkpt lat="45.7616167" lon="8.55373"><ele>218.99999999999997</ele><time>2026-03-29T12:55:30.947Z</time></trkpt><trkpt lat="45.7615517" lon="8.5535867"><ele>218.99999999999997</ele><time>2026-03-29T12:55:32.947Z</time></trkpt><trkpt lat="45.7614717" lon="8.5534583"><ele>219.0</ele><time>2026-03-29T12:55:34.947Z</time></trkpt><trkpt lat="45.761405" lon="8.5533717"><ele>219.0</ele><time>2026-03-29T12:55:36.946Z</time></trkpt><trkpt lat="45.7613117" lon="8.55334"><ele>218.6</ele><time>2026-03-29T12:55:38.947Z</time></trkpt><trkpt lat="45.7611867" lon="8.5533417"><ele>218.2</ele><time>2026-03-29T12:55:40.947Z</time></trkpt><trkpt lat="45.7611183" lon="8.5533583"><ele>217.79999999999998</ele><time>2026-03-29T12:55:41.946Z</time></trkpt><trkpt lat="45.7609933" lon="8.55338"><ele>217.39999999999998</ele><time>2026-03-29T12:55:43.947Z</time></trkpt><trkpt lat="45.7608783" lon="8.5533783"><ele>217.0</ele><time>2026-03-29T12:55:45.947Z</time></trkpt><trkpt lat="45.76077" lon="8.5533717"><ele>217.0</ele><time>2026-03-29T12:55:47.946Z</time></trkpt><trkpt lat="45.7607" lon="8.553335"><ele>217.0</ele><time>2026-03-29T12:55:48.947Z</time></trkpt><trkpt lat="45.76062" lon="8.5533167"><ele>217.0</ele><time>2026-03-29T12:55:49.947Z</time></trkpt><trkpt lat="45.7605333" lon="8.553275"><ele>217.0</ele><time>2026-03-29T12:55:50.946Z</time></trkpt><trkpt lat="45.76041" lon="8.55333"><ele>217.0</ele><time>2026-03-29T12:55:52.947Z</time></trkpt><trkpt lat="45.7603367" lon="8.5534"><ele>217.0</ele><time>2026-03-29T12:55:53.947Z</time></trkpt><trkpt lat="45.7602567" lon="8.5534733"><ele>217.0</ele><time>2026-03-29T12:55:54.947Z</time></trkpt><trkpt lat="45.7601733" lon="8.553555"><ele>217.0</ele><time>2026-03-29T12:55:55.947Z</time></trkpt><trkpt lat="45.760075" lon="8.55364"><ele>217.0</ele><time>2026-03-29T12:55:56.947Z</time></trkpt><trkpt lat="45.7599533" lon="8.55373"><ele>217.0</ele><time>2026-03-29T12:55:57.947Z</time></trkpt><trkpt lat="45.7598167" lon="8.553825"><ele>215.66666666666666</ele><time>2026-03-29T12:55:58.947Z</time></trkpt><trkpt lat="45.7596683" lon="8.5539183"><ele>214.33333333333331</ele><time>2026-03-29T12:55:59.947Z</time></trkpt><trkpt lat="45.7595267" lon="8.5540083"><ele>213.0</ele><time>2026-03-29T12:56:00.947Z</time></trkpt><trkpt lat="45.7594017" lon="8.554095"><ele>212.5</ele><time>2026-03-29T12:56:01.947Z</time></trkpt><trkpt lat="45.7592833" lon="8.5541917"><ele>212.0</ele><time>2026-03-29T12:56:02.947Z</time></trkpt><trkpt lat="45.7591767" lon="8.5542733"><ele>211.5</ele><time>2026-03-29T12:56:03.946Z</time></trkpt><trkpt lat="45.759075" lon="8.55434"><ele>211.0</ele><time>2026-03-29T12:56:04.947Z</time></trkpt><trkpt lat="45.758985" lon="8.5544067"><ele>210.99999999999997</ele><time>2026-03-29T12:56:05.947Z</time></trkpt><trkpt lat="45.7589083" lon="8.5544783"><ele>211.0</ele><time>2026-03-29T12:56:06.946Z</time></trkpt><trkpt lat="45.7588383" lon="8.55457"><ele>211.0</ele><time>2026-03-29T12:56:07.947Z</time></trkpt><trkpt lat="45.7587717" lon="8.5546383"><ele>211.0</ele><time>2026-03-29T12:56:08.947Z</time></trkpt><trkpt lat="45.7587017" lon="8.5547167"><ele>210.99999999999997</ele><time>2026-03-29T12:56:09.946Z</time></trkpt><trkpt lat="45.758625" lon="8.554785"><ele>211.0</ele><time>2026-03-29T12:56:10.947Z</time></trkpt><trkpt lat="45.75854" lon="8.554865"><ele>211.4</ele><time>2026-03-29T12:56:11.947Z</time></trkpt><trkpt lat="45.7584433" lon="8.554945"><ele>211.8</ele><time>2026-03-29T12:56:12.947Z</time></trkpt><trkpt lat="45.7583467" lon="8.5550267"><ele>212.20000000000002</ele><time>2026-03-29T12:56:13.947Z</time></trkpt><trkpt lat="45.7582633" lon="8.555095"><ele>212.60000000000002</ele><time>2026-03-29T12:56:14.947Z</time></trkpt><trkpt lat="45.7581933" lon="8.555155"><ele>213.0</ele><time>2026-03-29T12:56:15.947Z</time></trkpt><trkpt lat="45.7581317" lon="8.5552033"><ele>213.0</ele><time>2026-03-29T12:56:16.947Z</time></trkpt><trkpt lat="45.7580533" lon="8.5552767"><ele>213.0</ele><time>2026-03-29T12:56:18.947Z</time></trkpt><trkpt lat="45.7579717" lon="8.5553267"><ele>213.0</ele><time>2026-03-29T12:56:20.947Z</time></trkpt><trkpt lat="45.757905" lon="8.5553533"><ele>213.0</ele><time>2026-03-29T12:56:23.947Z</time></trkpt><trkpt lat="45.7578233" lon="8.5554117"><ele>213.0</ele><time>2026-03-29T12:56:27.947Z</time></trkpt><trkpt lat="45.7577283" lon="8.5555"><ele>212.33333333333334</ele><time>2026-03-29T12:56:29.947Z</time></trkpt><trkpt lat="45.757675" lon="8.5555567"><ele>211.66666666666669</ele><time>2026-03-29T12:56:30.947Z</time></trkpt><trkpt lat="45.75762" lon="8.5556267"><ele>211.0</ele><time>2026-03-29T12:56:31.947Z</time></trkpt><trkpt lat="45.7575717" lon="8.555705"><ele>210.33333333333334</ele><time>2026-03-29T12:56:32.947Z</time></trkpt><trkpt lat="45.7575383" lon="8.5557883"><ele>209.66666666666669</ele><time>2026-03-29T12:56:33.947Z</time></trkpt><trkpt lat="45.7574867" lon="8.555945"><ele>209.0</ele><time>2026-03-29T12:56:35.947Z</time></trkpt><trkpt lat="45.7574483" lon="8.5560217"><ele>209.00000000000003</ele><time>2026-03-29T12:56:36.946Z</time></trkpt><trkpt lat="45.7574083" lon="8.5561083"><ele>209.0</ele><time>2026-03-29T12:56:37.947Z</time></trkpt><trkpt lat="45.757365" lon="8.5562067"><ele>209.0</ele><time>2026-03-29T12:56:38.947Z</time></trkpt><trkpt lat="45.757305" lon="8.5562817"><ele>209.0</ele><time>2026-03-29T12:56:39.947Z</time></trkpt><trkpt lat="45.757245" lon="8.55636"><ele>209.00000000000003</ele><time>2026-03-29T12:56:40.947Z</time></trkpt><trkpt lat="45.7571933" lon="8.5564267"><ele>209.0</ele><time>2026-03-29T12:56:41.947Z</time></trkpt><trkpt lat="45.757145" lon="8.556495"><ele>208.66666666666669</ele><time>2026-03-29T12:56:42.947Z</time></trkpt><trkpt lat="45.7570933" lon="8.5565717"><ele>208.33333333333334</ele><time>2026-03-29T12:56:43.947Z</time></trkpt><trkpt lat="45.7570317" lon="8.55665"><ele>208.0</ele><time>2026-03-29T12:56:44.947Z</time></trkpt><trkpt lat="45.7569767" lon="8.5567317"><ele>207.66666666666669</ele><time>2026-03-29T12:56:45.947Z</time></trkpt><trkpt lat="45.7569317" lon="8.5568017"><ele>207.33333333333334</ele><time>2026-03-29T12:56:46.947Z</time></trkpt><trkpt lat="45.75686" lon="8.5569067"><ele>207.0</ele><time>2026-03-29T12:56:48.946Z</time></trkpt><trkpt lat="45.7567917" lon="8.5570333"><ele>207.0</ele><time>2026-03-29T12:56:50.946Z</time></trkpt><trkpt lat="45.7567317" lon="8.5571567"><ele>207.0</ele><time>2026-03-29T12:56:52.945Z</time></trkpt><trkpt lat="45.7567083" lon="8.5572683"><ele>207.0</ele><time>2026-03-29T12:56:54.946Z</time></trkpt><trkpt lat="45.7567567" lon="8.5573533"><ele>207.0</ele><time>2026-03-29T12:56:58.946Z</time></trkpt><trkpt lat="45.7568567" lon="8.5573833"><ele>207.0</ele><time>2026-03-29T12:57:00.946Z</time></trkpt><trkpt lat="45.7571567" lon="8.557415"><ele>207.0</ele><time>2026-03-29T12:57:02.946Z</time></trkpt><trkpt lat="45.7573233" lon="8.5574683"><ele>207.0</ele><time>2026-03-29T12:57:03.946Z</time></trkpt><trkpt lat="45.7574983" lon="8.5575383"><ele>207.0</ele><time>2026-03-29T12:57:04.946Z</time></trkpt><trkpt lat="45.7576583" lon="8.5576333"><ele>207.5</ele><time>2026-03-29T12:57:05.946Z</time></trkpt><trkpt lat="45.7577967" lon="8.5577433"><ele>208.0</ele><time>2026-03-29T12:57:06.946Z</time></trkpt><trkpt lat="45.757915" lon="8.5578333"><ele>208.5</ele><time>2026-03-29T12:57:07.946Z</time></trkpt><trkpt lat="45.75802" lon="8.5579017"><ele>209.0</ele><time>2026-03-29T12:57:08.946Z</time></trkpt><trkpt lat="45.7581217" lon="8.5579533"><ele>209.0</ele><time>2026-03-29T12:57:09.946Z</time></trkpt><trkpt lat="45.7582017" lon="8.558"><ele>209.0</ele><time>2026-03-29T12:57:10.946Z</time></trkpt><trkpt lat="45.758265" lon="8.5580617"><ele>209.0</ele><time>2026-03-29T12:57:11.946Z</time></trkpt><trkpt lat="45.7583533" lon="8.5581833"><ele>209.0</ele><time>2026-03-29T12:57:13.946Z</time></trkpt><trkpt lat="45.7583783" lon="8.5583117"><ele>209.0</ele><time>2026-03-29T12:57:15.946Z</time></trkpt><trkpt lat="45.7583517" lon="8.5584633"><ele>209.0</ele><time>2026-03-29T12:57:17.946Z</time></trkpt><trkpt lat="45.75833" lon="8.5585483"><ele>209.0</ele><time>2026-03-29T12:57:18.946Z</time></trkpt><trkpt lat="45.758315" lon="8.55864"><ele>209.0</ele><time>2026-03-29T12:57:19.946Z</time></trkpt><trkpt lat="45.7582983" lon="8.5587333"><ele>209.0</ele><time>2026-03-29T12:57:20.946Z</time></trkpt><trkpt lat="45.7582817" lon="8.5588317"><ele>209.0</ele><time>2026-03-29T12:57:21.946Z</time></trkpt><trkpt lat="45.7582417" lon="8.558935"><ele>209.0</ele><time>2026-03-29T12:57:22.946Z</time></trkpt><trkpt lat="45.7582117" lon="8.559035"><ele>209.0</ele><time>2026-03-29T12:57:23.946Z</time></trkpt><trkpt lat="45.75817" lon="8.55918"><ele>208.39999999999998</ele><time>2026-03-29T12:57:25.946Z</time></trkpt><trkpt lat="45.75814" lon="8.559305"><ele>207.8</ele><time>2026-03-29T12:57:27.946Z</time></trkpt><trkpt lat="45.7581133" lon="8.5594267"><ele>207.2</ele><time>2026-03-29T12:57:29.946Z</time></trkpt><trkpt lat="45.7580833" lon="8.5595667"><ele>206.60000000000002</ele><time>2026-03-29T12:57:31.945Z</time></trkpt><trkpt lat="45.7580633" lon="8.5597133"><ele>206.0</ele><time>2026-03-29T12:57:33.946Z</time></trkpt><trkpt lat="45.7580433" lon="8.5598367"><ele>205.8</ele><time>2026-03-29T12:57:35.946Z</time></trkpt><trkpt lat="45.7580317" lon="8.5599517"><ele>205.60000000000002</ele><time>2026-03-29T12:57:37.946Z</time></trkpt><trkpt lat="45.7580033" lon="8.5600683"><ele>205.4</ele><time>2026-03-29T12:57:39.946Z</time></trkpt><trkpt lat="45.7579717" lon="8.5601883"><ele>205.2</ele><time>2026-03-29T12:57:41.946Z</time></trkpt><trkpt lat="45.7579183" lon="8.5603217"><ele>205.0</ele><time>2026-03-29T12:57:43.945Z</time></trkpt><trkpt lat="45.75792" lon="8.560445"><ele>204.2</ele><time>2026-03-29T12:57:45.946Z</time></trkpt><trkpt lat="45.7579917" lon="8.5604983"><ele>203.4</ele><time>2026-03-29T12:57:47.946Z</time></trkpt><trkpt lat="45.7581233" lon="8.5605033"><ele>202.60000000000002</ele><time>2026-03-29T12:57:49.946Z</time></trkpt><trkpt lat="45.7582" lon="8.560525"><ele>201.8</ele><time>2026-03-29T12:57:50.946Z</time></trkpt><trkpt lat="45.75827" lon="8.5605617"><ele>201.0</ele><time>2026-03-29T12:57:51.946Z</time></trkpt><trkpt lat="45.758355" lon="8.5606067"><ele>201.0</ele><time>2026-03-29T12:57:52.946Z</time></trkpt><trkpt lat="45.7584317" lon="8.5606533"><ele>201.0</ele><time>2026-03-29T12:57:53.946Z</time></trkpt><trkpt lat="45.7584967" lon="8.5606917"><ele>201.0</ele><time>2026-03-29T12:57:54.946Z</time></trkpt><trkpt lat="45.758585" lon="8.5607317"><ele>201.0</ele><time>2026-03-29T12:57:56.946Z</time></trkpt><trkpt lat="45.7586317" lon="8.5608217"><ele>201.0</ele><time>2026-03-29T12:57:59.945Z</time></trkpt><trkpt lat="45.7586033" lon="8.560935"><ele>201.0</ele><time>2026-03-29T12:58:02.946Z</time></trkpt><trkpt lat="45.758575" lon="8.561065"><ele>200.5</ele><time>2026-03-29T12:58:05.946Z</time></trkpt><trkpt lat="45.7585583" lon="8.5611683"><ele>200.0</ele><time>2026-03-29T12:58:08.946Z</time></trkpt><trkpt lat="45.758545" lon="8.5612567"><ele>199.5</ele><time>2026-03-29T12:58:11.946Z</time></trkpt><trkpt lat="45.75852" lon="8.5613417"><ele>199.0</ele><time>2026-03-29T12:58:15.946Z</time></trkpt><trkpt lat="45.7584583" lon="8.561385"><ele>198.5</ele><time>2026-03-29T12:58:22.946Z</time></trkpt><trkpt lat="45.7583683" lon="8.5613483"><ele>198.0</ele><time>2026-03-29T12:58:26.945Z</time></trkpt><trkpt lat="45.7582867" lon="8.5613"><ele>198.5</ele><time>2026-03-29T12:58:29.946Z</time></trkpt><trkpt lat="45.7582817" lon="8.5611917"><ele>199.0</ele><time>2026-03-29T12:58:32.946Z</time></trkpt><trkpt lat="45.758295" lon="8.5610933"><ele>199.5</ele><time>2026-03-29T12:58:34.946Z</time></trkpt><trkpt lat="45.758325" lon="8.56097"><ele>200.0</ele><time>2026-03-29T12:58:37.946Z</time></trkpt><trkpt lat="45.75831" lon="8.5608633"><ele>200.5</ele><time>2026-03-29T12:58:41.946Z</time></trkpt><trkpt lat="45.75824" lon="8.560815"><ele>201.0</ele><time>2026-03-29T12:58:44.946Z</time></trkpt><trkpt lat="45.7581817" lon="8.5607733"><ele>201.0</ele><time>2026-03-29T12:58:46.946Z</time></trkpt><trkpt lat="45.758095" lon="8.560725"><ele>201.0</ele><time>2026-03-29T12:58:48.946Z</time></trkpt><trkpt lat="45.7580217" lon="8.5606967"><ele>201.0</ele><time>2026-03-29T12:58:50.946Z</time></trkpt><trkpt lat="45.7579533" lon="8.5606267"><ele>201.0</ele><time>2026-03-29T12:58:53.946Z</time></trkpt><trkpt lat="45.7579733" lon="8.5605233"><ele>201.0</ele><time>2026-03-29T12:58:56.946Z</time></trkpt><trkpt lat="45.7580233" lon="8.5604"><ele>201.0</ele><time>2026-03-29T12:58:58.946Z</time></trkpt><trkpt lat="45.7579983" lon="8.5602683"><ele>201.5</ele><time>2026-03-29T12:59:00.945Z</time></trkpt><trkpt lat="45.757915" lon="8.5602383"><ele>202.0</ele><time>2026-03-29T12:59:02.946Z</time></trkpt><trkpt lat="45.7578183" lon="8.5602433"><ele>202.5</ele><time>2026-03-29T12:59:04.946Z</time></trkpt><trkpt lat="45.7577467" lon="8.5602383"><ele>203.0</ele><time>2026-03-29T12:59:06.946Z</time></trkpt><trkpt lat="45.75767" lon="8.5602317"><ele>203.5</ele><time>2026-03-29T12:59:12.946Z</time></trkpt><trkpt lat="45.757575" lon="8.5602067"><ele>204.0</ele><time>2026-03-29T12:59:14.946Z</time></trkpt><trkpt lat="45.7575133" lon="8.56017"><ele>204.0</ele><time>2026-03-29T12:59:15.946Z</time></trkpt><trkpt lat="45.7574117" lon="8.56012"><ele>204.0</ele><time>2026-03-29T12:59:17.946Z</time></trkpt><trkpt lat="45.7572983" lon="8.5601"><ele>204.0</ele><time>2026-03-29T12:59:19.946Z</time></trkpt><trkpt lat="45.7572117" lon="8.560075"><ele>204.0</ele><time>2026-03-29T12:59:21.946Z</time></trkpt><trkpt lat="45.7571217" lon="8.560015"><ele>204.0</ele><time>2026-03-29T12:59:23.946Z</time></trkpt><trkpt lat="45.7570217" lon="8.5599917"><ele>204.0</ele><time>2026-03-29T12:59:25.946Z</time></trkpt><trkpt lat="45.7569117" lon="8.5599583"><ele>204.0</ele><time>2026-03-29T12:59:27.946Z</time></trkpt><trkpt lat="45.7568067" lon="8.5599"><ele>204.0</ele><time>2026-03-29T12:59:29.946Z</time></trkpt><trkpt lat="45.7567033" lon="8.5598633"><ele>204.0</ele><time>2026-03-29T12:59:31.945Z</time></trkpt><trkpt lat="45.7566033" lon="8.5598167"><ele>204.0</ele><time>2026-03-29T12:59:33.945Z</time></trkpt><trkpt lat="45.7564967" lon="8.559795"><ele>203.79999999999998</ele><time>2026-03-29T12:59:35.946Z</time></trkpt><trkpt lat="45.756375" lon="8.55977"><ele>203.6</ele><time>2026-03-29T12:59:37.946Z</time></trkpt><trkpt lat="45.7563067" lon="8.5597633"><ele>203.4</ele><time>2026-03-29T12:59:38.946Z</time></trkpt><trkpt lat="45.75619" lon="8.5597667"><ele>203.2</ele><time>2026-03-29T12:59:40.945Z</time></trkpt><trkpt lat="45.7561283" lon="8.5598383"><ele>203.0</ele><time>2026-03-29T12:59:42.946Z</time></trkpt><trkpt lat="45.7561767" lon="8.55993"><ele>203.00000000000003</ele><time>2026-03-29T12:59:45.946Z</time></trkpt><trkpt lat="45.756255" lon="8.5599367"><ele>203.0</ele><time>2026-03-29T12:59:47.946Z</time></trkpt><trkpt lat="45.7563683" lon="8.559945"><ele>203.0</ele><time>2026-03-29T12:59:49.946Z</time></trkpt><trkpt lat="45.7564367" lon="8.559945"><ele>203.0</ele><time>2026-03-29T12:59:50.946Z</time></trkpt><trkpt lat="45.75651" lon="8.559945"><ele>203.00000000000003</ele><time>2026-03-29T12:59:51.946Z</time></trkpt><trkpt lat="45.7565883" lon="8.5599533"><ele>203.0</ele><time>2026-03-29T12:59:52.946Z</time></trkpt><trkpt lat="45.7566717" lon="8.5599583"><ele>203.00000000000003</ele><time>2026-03-29T12:59:53.946Z</time></trkpt><trkpt lat="45.7567517" lon="8.5599733"><ele>203.0</ele><time>2026-03-29T12:59:54.945Z</time></trkpt><trkpt lat="45.75683" lon="8.5599933"><ele>203.0</ele><time>2026-03-29T12:59:55.946Z</time></trkpt><trkpt lat="45.7569233" lon="8.5600383"><ele>203.0</ele><time>2026-03-29T12:59:57.946Z</time></trkpt><trkpt lat="45.757025" lon="8.5600583"><ele>203.00000000000003</ele><time>2026-03-29T13:05:09.944Z</time></trkpt><trkpt lat="45.7570883" lon="8.5600783"><ele>203.0</ele><time>2026-03-29T13:05:10.944Z</time></trkpt><trkpt lat="45.757205" lon="8.5601233"><ele>203.2</ele><time>2026-03-29T13:05:12.944Z</time></trkpt><trkpt lat="45.7573067" lon="8.5601633"><ele>203.4</ele><time>2026-03-29T13:05:14.944Z</time></trkpt><trkpt lat="45.7574017" lon="8.5602"><ele>203.6</ele><time>2026-03-29T13:05:16.944Z</time></trkpt><trkpt lat="45.7575033" lon="8.5602417"><ele>203.79999999999998</ele><time>2026-03-29T13:05:18.944Z</time></trkpt><trkpt lat="45.7576067" lon="8.5602717"><ele>204.0</ele><time>2026-03-29T13:05:20.944Z</time></trkpt><trkpt lat="45.75768" lon="8.56031"><ele>204.16666666666666</ele><time>2026-03-29T13:05:22.944Z</time></trkpt><trkpt lat="45.7577683" lon="8.56036"><ele>204.33333333333331</ele><time>2026-03-29T13:05:31.944Z</time></trkpt><trkpt lat="45.7578483" lon="8.560415"><ele>204.5</ele><time>2026-03-29T13:05:33.944Z</time></trkpt><trkpt lat="45.7579083" lon="8.56045"><ele>204.66666666666666</ele><time>2026-03-29T13:05:34.944Z</time></trkpt><trkpt lat="45.7579933" lon="8.5604233"><ele>204.83333333333331</ele><time>2026-03-29T13:05:36.944Z</time></trkpt><trkpt lat="45.757985" lon="8.5603267"><ele>205.0</ele><time>2026-03-29T13:05:38.943Z</time></trkpt><trkpt lat="45.757885" lon="8.560275"><ele>204.99999999999997</ele><time>2026-03-29T13:05:40.944Z</time></trkpt><trkpt lat="45.7578083" lon="8.5602667"><ele>205.0</ele><time>2026-03-29T13:05:41.944Z</time></trkpt><trkpt lat="45.75773" lon="8.560255"><ele>205.0</ele><time>2026-03-29T13:05:42.944Z</time></trkpt><trkpt lat="45.7576467" lon="8.5602317"><ele>205.0</ele><time>2026-03-29T13:05:43.943Z</time></trkpt><trkpt lat="45.757565" lon="8.5601983"><ele>204.99999999999997</ele><time>2026-03-29T13:05:44.944Z</time></trkpt><trkpt lat="45.75749" lon="8.56017"><ele>205.0</ele><time>2026-03-29T13:05:45.943Z</time></trkpt><trkpt lat="45.7574217" lon="8.560135"><ele>204.8</ele><time>2026-03-29T13:05:46.944Z</time></trkpt><trkpt lat="45.757325" lon="8.5601083"><ele>204.6</ele><time>2026-03-29T13:05:48.944Z</time></trkpt><trkpt lat="45.75725" lon="8.560075"><ele>204.39999999999998</ele><time>2026-03-29T13:05:51.944Z</time></trkpt><trkpt lat="45.7571583" lon="8.560045"><ele>204.2</ele><time>2026-03-29T13:06:00.944Z</time></trkpt><trkpt lat="45.7570567" lon="8.5600217"><ele>204.0</ele><time>2026-03-29T13:06:02.944Z</time></trkpt><trkpt lat="45.7569733" lon="8.55999"><ele>204.0</ele><time>2026-03-29T13:06:03.944Z</time></trkpt><trkpt lat="45.7568817" lon="8.5599467"><ele>204.0</ele><time>2026-03-29T13:06:04.944Z</time></trkpt><trkpt lat="45.7567833" lon="8.5599"><ele>204.0</ele><time>2026-03-29T13:06:05.944Z</time></trkpt><trkpt lat="45.75667" lon="8.55986"><ele>204.0</ele><time>2026-03-29T13:06:06.944Z</time></trkpt><trkpt lat="45.75656" lon="8.5598233"><ele>204.0</ele><time>2026-03-29T13:06:07.944Z</time></trkpt><trkpt lat="45.7564533" lon="8.5598017"><ele>203.79999999999998</ele><time>2026-03-29T13:06:08.944Z</time></trkpt><trkpt lat="45.7563433" lon="8.5597783"><ele>203.6</ele><time>2026-03-29T13:06:09.944Z</time></trkpt><trkpt lat="45.7562367" lon="8.5597767"><ele>203.4</ele><time>2026-03-29T13:06:10.944Z</time></trkpt><trkpt lat="45.7561233" lon="8.5597883"><ele>203.2</ele><time>2026-03-29T13:06:11.944Z</time></trkpt><trkpt lat="45.7560133" lon="8.5598117"><ele>203.0</ele><time>2026-03-29T13:06:12.944Z</time></trkpt><trkpt lat="45.7559217" lon="8.55984"><ele>202.66666666666669</ele><time>2026-03-29T13:06:13.944Z</time></trkpt><trkpt lat="45.7558467" lon="8.559865"><ele>202.33333333333334</ele><time>2026-03-29T13:06:14.944Z</time></trkpt><trkpt lat="45.7557817" lon="8.5598867"><ele>202.0</ele><time>2026-03-29T13:06:15.944Z</time></trkpt><trkpt lat="45.75572" lon="8.559915"><ele>201.66666666666669</ele><time>2026-03-29T13:06:16.944Z</time></trkpt><trkpt lat="45.7556467" lon="8.559955"><ele>201.33333333333334</ele><time>2026-03-29T13:06:17.944Z</time></trkpt><trkpt lat="45.7555583" lon="8.5600283"><ele>201.0</ele><time>2026-03-29T13:06:18.944Z</time></trkpt><trkpt lat="45.7554683" lon="8.5601167"><ele>201.0</ele><time>2026-03-29T13:06:19.944Z</time></trkpt><trkpt lat="45.755375" lon="8.5602083"><ele>201.0</ele><time>2026-03-29T13:06:20.944Z</time></trkpt><trkpt lat="45.7552817" lon="8.5603033"><ele>201.0</ele><time>2026-03-29T13:06:21.944Z</time></trkpt><trkpt lat="45.75519" lon="8.56041"><ele>201.0</ele><time>2026-03-29T13:06:22.944Z</time></trkpt><trkpt lat="45.7550933" lon="8.5605183"><ele>200.8</ele><time>2026-03-29T13:06:23.944Z</time></trkpt><trkpt lat="45.755" lon="8.5606217"><ele>200.60000000000002</ele><time>2026-03-29T13:06:24.944Z</time></trkpt><trkpt lat="45.7549183" lon="8.5607267"><ele>200.4</ele><time>2026-03-29T13:06:25.944Z</time></trkpt><trkpt lat="45.75484" lon="8.5608233"><ele>200.2</ele><time>2026-03-29T13:06:26.943Z</time></trkpt><trkpt lat="45.75478" lon="8.5609017"><ele>200.0</ele><time>2026-03-29T13:06:27.944Z</time></trkpt><trkpt lat="45.7547067" lon="8.5609967"><ele>200.0</ele><time>2026-03-29T13:06:28.944Z</time></trkpt><trkpt lat="45.7546417" lon="8.561085"><ele>200.0</ele><time>2026-03-29T13:06:29.944Z</time></trkpt><trkpt lat="45.75457" lon="8.5611667"><ele>200.0</ele><time>2026-03-29T13:06:30.944Z</time></trkpt><trkpt lat="45.7544917" lon="8.5612517"><ele>200.0</ele><time>2026-03-29T13:06:31.944Z</time></trkpt><trkpt lat="45.7544117" lon="8.56134"><ele>200.0</ele><time>2026-03-29T13:06:32.944Z</time></trkpt><trkpt lat="45.7543283" lon="8.5614317"><ele>200.4</ele><time>2026-03-29T13:06:33.944Z</time></trkpt><trkpt lat="45.754245" lon="8.5615117"><ele>200.8</ele><time>2026-03-29T13:06:34.944Z</time></trkpt><trkpt lat="45.75416" lon="8.5615967"><ele>201.2</ele><time>2026-03-29T13:06:35.943Z</time></trkpt><trkpt lat="45.7540783" lon="8.5616683"><ele>201.6</ele><time>2026-03-29T13:06:36.944Z</time></trkpt><trkpt lat="45.754" lon="8.5617417"><ele>202.0</ele><time>2026-03-29T13:06:37.944Z</time></trkpt><trkpt lat="45.753925" lon="8.5618117"><ele>201.99999999999997</ele><time>2026-03-29T13:06:38.944Z</time></trkpt><trkpt lat="45.7538583" lon="8.5618667"><ele>202.0</ele><time>2026-03-29T13:06:39.944Z</time></trkpt><trkpt lat="45.7538017" lon="8.5619133"><ele>202.0</ele><time>2026-03-29T13:06:40.944Z</time></trkpt><trkpt lat="45.7537367" lon="8.5619617"><ele>202.0</ele><time>2026-03-29T13:06:41.944Z</time></trkpt><trkpt lat="45.7536817" lon="8.5620117"><ele>201.99999999999997</ele><time>2026-03-29T13:06:42.944Z</time></trkpt><trkpt lat="45.753625" lon="8.562055"><ele>202.0</ele><time>2026-03-29T13:06:43.944Z</time></trkpt><trkpt lat="45.7535183" lon="8.5621317"><ele>202.0</ele><time>2026-03-29T13:06:45.943Z</time></trkpt><trkpt lat="45.75342" lon="8.5622067"><ele>202.0</ele><time>2026-03-29T13:06:47.944Z</time></trkpt><trkpt lat="45.7533267" lon="8.5622733"><ele>202.0</ele><time>2026-03-29T13:06:49.944Z</time></trkpt><trkpt lat="45.7532417" lon="8.56232"><ele>202.0</ele><time>2026-03-29T13:06:51.944Z</time></trkpt><trkpt lat="45.7531633" lon="8.5623667"><ele>202.0</ele><time>2026-03-29T13:06:53.944Z</time></trkpt><trkpt lat="45.7530883" lon="8.5624017"><ele>202.0</ele><time>2026-03-29T13:06:55.944Z</time></trkpt><trkpt lat="45.7530067" lon="8.56245"><ele>202.0</ele><time>2026-03-29T13:06:57.944Z</time></trkpt><trkpt lat="45.7528933" lon="8.5625317"><ele>202.0</ele><time>2026-03-29T13:06:59.944Z</time></trkpt><trkpt lat="45.7528283" lon="8.5625783"><ele>202.0</ele><time>2026-03-29T13:07:00.944Z</time></trkpt><trkpt lat="45.7527533" lon="8.56263"><ele>202.0</ele><time>2026-03-29T13:07:01.944Z</time></trkpt><trkpt lat="45.752665" lon="8.5626833"><ele>201.99999999999997</ele><time>2026-03-29T13:07:02.943Z</time></trkpt><trkpt lat="45.7525717" lon="8.5627333"><ele>202.0</ele><time>2026-03-29T13:07:03.943Z</time></trkpt><trkpt lat="45.7524817" lon="8.5627917"><ele>202.0</ele><time>2026-03-29T13:07:04.943Z</time></trkpt><trkpt lat="45.752395" lon="8.562845"><ele>202.0</ele><time>2026-03-29T13:07:05.943Z</time></trkpt><trkpt lat="45.752325" lon="8.562885"><ele>201.99999999999997</ele><time>2026-03-29T13:07:06.943Z</time></trkpt><trkpt lat="45.7522583" lon="8.56292"><ele>202.0</ele><time>2026-03-29T13:07:07.943Z</time></trkpt><trkpt lat="45.7521483" lon="8.5629933"><ele>201.8</ele><time>2026-03-29T13:07:09.943Z</time></trkpt><trkpt lat="45.7520433" lon="8.563055"><ele>201.6</ele><time>2026-03-29T13:07:11.943Z</time></trkpt><trkpt lat="45.7519283" lon="8.5631283"><ele>201.4</ele><time>2026-03-29T13:07:13.943Z</time></trkpt><trkpt lat="45.75185" lon="8.5631767"><ele>201.20000000000002</ele><time>2026-03-29T13:07:14.943Z</time></trkpt><trkpt lat="45.7517667" lon="8.5632317"><ele>201.0</ele><time>2026-03-29T13:07:15.943Z</time></trkpt><trkpt lat="45.751675" lon="8.5632817"><ele>200.8</ele><time>2026-03-29T13:07:16.943Z</time></trkpt><trkpt lat="45.751585" lon="8.563335"><ele>200.60000000000002</ele><time>2026-03-29T13:07:17.943Z</time></trkpt><trkpt lat="45.75149" lon="8.5633783"><ele>200.4</ele><time>2026-03-29T13:07:18.942Z</time></trkpt><trkpt lat="45.751395" lon="8.5634367"><ele>200.2</ele><time>2026-03-29T13:07:19.943Z</time></trkpt><trkpt lat="45.7513067" lon="8.5634983"><ele>200.0</ele><time>2026-03-29T13:07:20.943Z</time></trkpt><trkpt lat="45.751215" lon="8.56356"><ele>200.0</ele><time>2026-03-29T13:07:21.943Z</time></trkpt><trkpt lat="45.7511233" lon="8.563615"><ele>200.0</ele><time>2026-03-29T13:07:22.943Z</time></trkpt><trkpt lat="45.751025" lon="8.5636833"><ele>200.0</ele><time>2026-03-29T13:07:23.943Z</time></trkpt><trkpt lat="45.7509317" lon="8.5637383"><ele>200.0</ele><time>2026-03-29T13:07:24.943Z</time></trkpt><trkpt lat="45.75084" lon="8.563785"><ele>200.0</ele><time>2026-03-29T13:07:25.943Z</time></trkpt><trkpt lat="45.7507467" lon="8.56385"><ele>200.4</ele><time>2026-03-29T13:07:26.943Z</time></trkpt><trkpt lat="45.7506533" lon="8.5639067"><ele>200.8</ele><time>2026-03-29T13:07:27.943Z</time></trkpt><trkpt lat="45.7505567" lon="8.5639617"><ele>201.2</ele><time>2026-03-29T13:07:28.943Z</time></trkpt><trkpt lat="45.750455" lon="8.5640183"><ele>201.6</ele><time>2026-03-29T13:07:29.943Z</time></trkpt><trkpt lat="45.750355" lon="8.5640783"><ele>202.0</ele><time>2026-03-29T13:07:30.942Z</time></trkpt><trkpt lat="45.7502583" lon="8.5641367"><ele>202.0</ele><time>2026-03-29T13:07:31.943Z</time></trkpt><trkpt lat="45.7501583" lon="8.5641967"><ele>202.0</ele><time>2026-03-29T13:07:32.943Z</time></trkpt><trkpt lat="45.75006" lon="8.564255"><ele>202.0</ele><time>2026-03-29T13:07:33.943Z</time></trkpt><trkpt lat="45.7499667" lon="8.5643133"><ele>202.0</ele><time>2026-03-29T13:07:34.942Z</time></trkpt><trkpt lat="45.7498767" lon="8.56437"><ele>202.0</ele><time>2026-03-29T13:07:35.943Z</time></trkpt><trkpt lat="45.7497917" lon="8.5644167"><ele>201.99999999999997</ele><time>2026-03-29T13:07:36.943Z</time></trkpt><trkpt lat="45.74971" lon="8.56445"><ele>202.0</ele><time>2026-03-29T13:07:37.943Z</time></trkpt><trkpt lat="45.74963" lon="8.5644833"><ele>202.0</ele><time>2026-03-29T13:07:38.943Z</time></trkpt><trkpt lat="45.7495533" lon="8.5645067"><ele>202.0</ele><time>2026-03-29T13:07:39.943Z</time></trkpt><trkpt lat="45.749485" lon="8.56453"><ele>201.99999999999997</ele><time>2026-03-29T13:07:40.943Z</time></trkpt><trkpt lat="45.7494117" lon="8.5645633"><ele>202.0</ele><time>2026-03-29T13:07:41.943Z</time></trkpt><trkpt lat="45.7493467" lon="8.5645767"><ele>201.99999999999997</ele><time>2026-03-29T13:07:42.943Z</time></trkpt><trkpt lat="45.7492733" lon="8.5645983"><ele>202.0</ele><time>2026-03-29T13:07:43.943Z</time></trkpt><trkpt lat="45.7492033" lon="8.56461"><ele>202.0</ele><time>2026-03-29T13:07:44.943Z</time></trkpt><trkpt lat="45.7491167" lon="8.5646217"><ele>202.0</ele><time>2026-03-29T13:07:45.943Z</time></trkpt><trkpt lat="45.74903" lon="8.5646317"><ele>201.99999999999997</ele><time>2026-03-29T13:07:46.943Z</time></trkpt><trkpt lat="45.7489533" lon="8.5646367"><ele>202.0</ele><time>2026-03-29T13:07:47.943Z</time></trkpt><trkpt lat="45.7488817" lon="8.564645"><ele>201.99999999999997</ele><time>2026-03-29T13:07:48.943Z</time></trkpt><trkpt lat="45.7488133" lon="8.5646617"><ele>202.0</ele><time>2026-03-29T13:07:49.943Z</time></trkpt><trkpt lat="45.74873" lon="8.564675"><ele>202.0</ele><time>2026-03-29T13:07:50.943Z</time></trkpt><trkpt lat="45.748645" lon="8.56468"><ele>202.0</ele><time>2026-03-29T13:07:51.943Z</time></trkpt><trkpt lat="45.74856" lon="8.5646767"><ele>201.99999999999997</ele><time>2026-03-29T13:07:52.943Z</time></trkpt><trkpt lat="45.7484667" lon="8.5646833"><ele>202.0</ele><time>2026-03-29T13:07:53.943Z</time></trkpt><trkpt lat="45.7483717" lon="8.5646917"><ele>202.0</ele><time>2026-03-29T13:07:54.943Z</time></trkpt><trkpt lat="45.748275" lon="8.5646933"><ele>202.0</ele><time>2026-03-29T13:07:55.942Z</time></trkpt><trkpt lat="45.7481733" lon="8.5646917"><ele>202.0</ele><time>2026-03-29T13:07:56.943Z</time></trkpt><trkpt lat="45.7480683" lon="8.5646917"><ele>202.0</ele><time>2026-03-29T13:07:57.943Z</time></trkpt><trkpt lat="45.7479717" lon="8.5646917"><ele>202.0</ele><time>2026-03-29T13:07:58.943Z</time></trkpt><trkpt lat="45.74788" lon="8.564695"><ele>202.0</ele><time>2026-03-29T13:07:59.943Z</time></trkpt><trkpt lat="45.7478033" lon="8.5646983"><ele>202.0</ele><time>2026-03-29T13:08:00.943Z</time></trkpt><trkpt lat="45.7477383" lon="8.5646917"><ele>202.0</ele><time>2026-03-29T13:08:01.942Z</time></trkpt><trkpt lat="45.7476133" lon="8.5647"><ele>202.0</ele><time>2026-03-29T13:08:03.943Z</time></trkpt><trkpt lat="45.747505" lon="8.5647033"><ele>202.0</ele><time>2026-03-29T13:08:05.943Z</time></trkpt><trkpt lat="45.7474083" lon="8.5646883"><ele>201.83333333333331</ele><time>2026-03-29T13:08:07.943Z</time></trkpt><trkpt lat="45.7473217" lon="8.5646633"><ele>201.66666666666666</ele><time>2026-03-29T13:08:09.943Z</time></trkpt><trkpt lat="45.7472217" lon="8.564615"><ele>201.5</ele><time>2026-03-29T13:08:11.943Z</time></trkpt><trkpt lat="45.747155" lon="8.5645783"><ele>201.33333333333331</ele><time>2026-03-29T13:08:12.943Z</time></trkpt><trkpt lat="45.74708" lon="8.5645567"><ele>201.16666666666666</ele><time>2026-03-29T13:08:13.943Z</time></trkpt><trkpt lat="45.7470017" lon="8.564555"><ele>201.0</ele><time>2026-03-29T13:08:14.943Z</time></trkpt><trkpt lat="45.7469233" lon="8.5645667"><ele>200.83333333333334</ele><time>2026-03-29T13:08:15.943Z</time></trkpt><trkpt lat="45.7468417" lon="8.5645933"><ele>200.66666666666669</ele><time>2026-03-29T13:08:16.943Z</time></trkpt><trkpt lat="45.74676" lon="8.56462"><ele>200.5</ele><time>2026-03-29T13:08:17.943Z</time></trkpt><trkpt lat="45.7466767" lon="8.5646317"><ele>200.33333333333334</ele><time>2026-03-29T13:08:18.943Z</time></trkpt><trkpt lat="45.7465867" lon="8.5646367"><ele>200.16666666666669</ele><time>2026-03-29T13:08:19.943Z</time></trkpt><trkpt lat="45.7464917" lon="8.5646433"><ele>200.0</ele><time>2026-03-29T13:08:20.943Z</time></trkpt><trkpt lat="45.7464" lon="8.5646533"><ele>200.0</ele><time>2026-03-29T13:08:21.943Z</time></trkpt><trkpt lat="45.746305" lon="8.5646683"><ele>200.0</ele><time>2026-03-29T13:08:22.943Z</time></trkpt><trkpt lat="45.74621" lon="8.5646917"><ele>200.0</ele><time>2026-03-29T13:08:23.942Z</time></trkpt><trkpt lat="45.7461233" lon="8.56472"><ele>200.0</ele><time>2026-03-29T13:08:24.943Z</time></trkpt><trkpt lat="45.7460383" lon="8.5647583"><ele>200.0</ele><time>2026-03-29T13:08:25.943Z</time></trkpt><trkpt lat="45.7458817" lon="8.56486"><ele>200.16666666666669</ele><time>2026-03-29T13:08:27.943Z</time></trkpt><trkpt lat="45.74581" lon="8.56491"><ele>200.33333333333334</ele><time>2026-03-29T13:08:28.943Z</time></trkpt><trkpt lat="45.7457367" lon="8.564975"><ele>200.5</ele><time>2026-03-29T13:08:29.942Z</time></trkpt><trkpt lat="45.7456567" lon="8.5650383"><ele>200.66666666666669</ele><time>2026-03-29T13:08:30.943Z</time></trkpt><trkpt lat="45.745575" lon="8.5651017"><ele>200.83333333333334</ele><time>2026-03-29T13:08:31.943Z</time></trkpt><trkpt lat="45.7454983" lon="8.5651667"><ele>201.0</ele><time>2026-03-29T13:08:32.943Z</time></trkpt><trkpt lat="45.7454283" lon="8.5652267"><ele>201.0</ele><time>2026-03-29T13:08:33.943Z</time></trkpt><trkpt lat="45.7453517" lon="8.5652867"><ele>201.0</ele><time>2026-03-29T13:08:34.943Z</time></trkpt><trkpt lat="45.74527" lon="8.5653467"><ele>201.0</ele><time>2026-03-29T13:08:35.943Z</time></trkpt><trkpt lat="45.74519" lon="8.5654133"><ele>201.0</ele><time>2026-03-29T13:08:36.943Z</time></trkpt><trkpt lat="45.74511" lon="8.5654767"><ele>201.0</ele><time>2026-03-29T13:08:37.943Z</time></trkpt><trkpt lat="45.74503" lon="8.5655467"><ele>201.20000000000002</ele><time>2026-03-29T13:08:38.943Z</time></trkpt><trkpt lat="45.74494" lon="8.5656167"><ele>201.4</ele><time>2026-03-29T13:08:39.943Z</time></trkpt><trkpt lat="45.7448533" lon="8.5656933"><ele>201.6</ele><time>2026-03-29T13:08:40.943Z</time></trkpt><trkpt lat="45.7447533" lon="8.5657833"><ele>201.8</ele><time>2026-03-29T13:08:41.943Z</time></trkpt><trkpt lat="45.7446483" lon="8.56587"><ele>202.0</ele><time>2026-03-29T13:08:42.943Z</time></trkpt><trkpt lat="45.7445283" lon="8.5659633"><ele>202.0</ele><time>2026-03-29T13:08:43.943Z</time></trkpt><trkpt lat="45.7444083" lon="8.5660617"><ele>202.0</ele><time>2026-03-29T13:08:44.943Z</time></trkpt><trkpt lat="45.7442733" lon="8.5661617"><ele>202.0</ele><time>2026-03-29T13:08:45.943Z</time></trkpt><trkpt lat="45.7441333" lon="8.5662683"><ele>202.0</ele><time>2026-03-29T13:08:46.943Z</time></trkpt><trkpt lat="45.743985" lon="8.566375"><ele>202.0</ele><time>2026-03-29T13:08:47.943Z</time></trkpt><trkpt lat="45.743845" lon="8.5664817"><ele>202.0</ele><time>2026-03-29T13:08:48.943Z</time></trkpt><trkpt lat="45.7437067" lon="8.5665883"><ele>202.0</ele><time>2026-03-29T13:08:49.943Z</time></trkpt><trkpt lat="45.7435767" lon="8.5666933"><ele>202.0</ele><time>2026-03-29T13:08:50.943Z</time></trkpt><trkpt lat="45.743455" lon="8.56679"><ele>202.0</ele><time>2026-03-29T13:08:51.943Z</time></trkpt><trkpt lat="45.7433433" lon="8.5668783"><ele>202.0</ele><time>2026-03-29T13:08:52.943Z</time></trkpt><trkpt lat="45.7432283" lon="8.5669667"><ele>202.0</ele><time>2026-03-29T13:08:53.943Z</time></trkpt><trkpt lat="45.7431133" lon="8.5670617"><ele>202.0</ele><time>2026-03-29T13:08:54.943Z</time></trkpt><trkpt lat="45.743" lon="8.5671533"><ele>202.0</ele><time>2026-03-29T13:08:55.943Z</time></trkpt><trkpt lat="45.7428833" lon="8.5672483"><ele>202.0</ele><time>2026-03-29T13:08:56.943Z</time></trkpt><trkpt lat="45.7427733" lon="8.5673267"><ele>202.0</ele><time>2026-03-29T13:08:57.943Z</time></trkpt><trkpt lat="45.7426633" lon="8.5674167"><ele>202.0</ele><time>2026-03-29T13:08:58.943Z</time></trkpt><trkpt lat="45.7425683" lon="8.567495"><ele>202.0</ele><time>2026-03-29T13:08:59.942Z</time></trkpt><trkpt lat="45.742475" lon="8.56756"><ele>202.0</ele><time>2026-03-29T13:09:00.942Z</time></trkpt><trkpt lat="45.7422983" lon="8.56771"><ele>202.0</ele><time>2026-03-29T13:09:02.943Z</time></trkpt><trkpt lat="45.742105" lon="8.5678817"><ele>203.5</ele><time>2026-03-29T13:09:04.943Z</time></trkpt><trkpt lat="45.74186" lon="8.5680767"><ele>205.0</ele><time>2026-03-29T13:09:06.943Z</time></trkpt><trkpt lat="45.7416083" lon="8.5682633"><ele>205.0</ele><time>2026-03-29T13:09:08.943Z</time></trkpt><trkpt lat="45.7413833" lon="8.5684383"><ele>205.0</ele><time>2026-03-29T13:09:10.943Z</time></trkpt><trkpt lat="45.7411583" lon="8.568605"><ele>205.0</ele><time>2026-03-29T13:09:12.943Z</time></trkpt><trkpt lat="45.7409467" lon="8.5687683"><ele>205.0</ele><time>2026-03-29T13:09:14.943Z</time></trkpt><trkpt lat="45.7407267" lon="8.5689333"><ele>205.0</ele><time>2026-03-29T13:09:16.943Z</time></trkpt><trkpt lat="45.7405167" lon="8.5691083"><ele>205.0</ele><time>2026-03-29T13:09:18.943Z</time></trkpt><trkpt lat="45.7403067" lon="8.5693017"><ele>206.5</ele><time>2026-03-29T13:09:20.943Z</time></trkpt><trkpt lat="45.7400883" lon="8.5694717"><ele>208.0</ele><time>2026-03-29T13:09:22.943Z</time></trkpt><trkpt lat="45.7398633" lon="8.5696483"><ele>208.0</ele><time>2026-03-29T13:09:24.943Z</time></trkpt><trkpt lat="45.7397467" lon="8.569735"><ele>208.0</ele><time>2026-03-29T13:09:25.943Z</time></trkpt><trkpt lat="45.739535" lon="8.5698967"><ele>208.0</ele><time>2026-03-29T13:09:27.943Z</time></trkpt><trkpt lat="45.7393283" lon="8.57004"><ele>207.66666666666666</ele><time>2026-03-29T13:09:29.943Z</time></trkpt><trkpt lat="45.73914" lon="8.5701817"><ele>207.33333333333331</ele><time>2026-03-29T13:09:31.943Z</time></trkpt><trkpt lat="45.738995" lon="8.5702817"><ele>207.0</ele><time>2026-03-29T13:09:33.943Z</time></trkpt><trkpt lat="45.73891" lon="8.57032"><ele>207.0</ele><time>2026-03-29T13:09:35.943Z</time></trkpt><trkpt lat="45.73882" lon="8.5703417"><ele>207.0</ele><time>2026-03-29T13:09:39.943Z</time></trkpt><trkpt lat="45.738735" lon="8.57042"><ele>207.0</ele><time>2026-03-29T13:13:49.941Z</time></trkpt><trkpt lat="45.73866" lon="8.5705417"><ele>207.0</ele><time>2026-03-29T13:14:05.94Z</time></trkpt><trkpt lat="45.7385433" lon="8.57066"><ele>207.0</ele><time>2026-03-29T13:14:07.941Z</time></trkpt><trkpt lat="45.7383417" lon="8.570825"><ele>207.0</ele><time>2026-03-29T13:14:09.941Z</time></trkpt><trkpt lat="45.7380833" lon="8.5710317"><ele>207.0</ele><time>2026-03-29T13:14:11.941Z</time></trkpt><trkpt lat="45.7378033" lon="8.5712517"><ele>207.5</ele><time>2026-03-29T13:14:13.941Z</time></trkpt><trkpt lat="45.7375017" lon="8.5715"><ele>208.0</ele><time>2026-03-29T13:14:15.941Z</time></trkpt><trkpt lat="45.7371817" lon="8.5717467"><ele>208.0</ele><time>2026-03-29T13:14:17.941Z</time></trkpt><trkpt lat="45.7368917" lon="8.5719817"><ele>208.0</ele><time>2026-03-29T13:14:19.941Z</time></trkpt><trkpt lat="45.7366017" lon="8.5721967"><ele>207.5</ele><time>2026-03-29T13:14:21.941Z</time></trkpt><trkpt lat="45.7363117" lon="8.5724267"><ele>207.0</ele><time>2026-03-29T13:14:23.941Z</time></trkpt><trkpt lat="45.7360333" lon="8.572635"><ele>207.5</ele><time>2026-03-29T13:14:25.941Z</time></trkpt><trkpt lat="45.735795" lon="8.5728183"><ele>208.0</ele><time>2026-03-29T13:14:27.941Z</time></trkpt><trkpt lat="45.7355917" lon="8.5729917"><ele>208.0</ele><time>2026-03-29T13:14:29.941Z</time></trkpt><trkpt lat="45.735405" lon="8.5731467"><ele>208.0</ele><time>2026-03-29T13:14:31.941Z</time></trkpt><trkpt lat="45.7352467" lon="8.573285"><ele>208.0</ele><time>2026-03-29T13:14:33.941Z</time></trkpt><trkpt lat="45.7351033" lon="8.5734533"><ele>208.0</ele><time>2026-03-29T13:14:35.94Z</time></trkpt><trkpt lat="45.7350017" lon="8.5735983"><ele>208.0</ele><time>2026-03-29T13:14:37.941Z</time></trkpt><trkpt lat="45.7348733" lon="8.5736717"><ele>208.0</ele><time>2026-03-29T13:14:39.941Z</time></trkpt><trkpt lat="45.7347333" lon="8.5736917"><ele>208.0</ele><time>2026-03-29T13:14:41.941Z</time></trkpt><trkpt lat="45.734565" lon="8.573805"><ele>207.0</ele><time>2026-03-29T13:14:43.941Z</time></trkpt><trkpt lat="45.7343383" lon="8.5740067"><ele>206.0</ele><time>2026-03-29T13:14:45.941Z</time></trkpt><trkpt lat="45.7340917" lon="8.57421"><ele>206.0</ele><time>2026-03-29T13:14:47.941Z</time></trkpt><trkpt lat="45.7338583" lon="8.574395"><ele>206.0</ele><time>2026-03-29T13:14:49.941Z</time></trkpt><trkpt lat="45.7336383" lon="8.5745717"><ele>205.66666666666669</ele><time>2026-03-29T13:14:51.941Z</time></trkpt><trkpt lat="45.733455" lon="8.5747183"><ele>205.33333333333331</ele><time>2026-03-29T13:14:53.941Z</time></trkpt><trkpt lat="45.7332717" lon="8.5748617"><ele>205.0</ele><time>2026-03-29T13:14:55.941Z</time></trkpt><trkpt lat="45.7330633" lon="8.5750217"><ele>205.0</ele><time>2026-03-29T13:14:57.941Z</time></trkpt><trkpt lat="45.732855" lon="8.5751883"><ele>205.0</ele><time>2026-03-29T13:14:59.941Z</time></trkpt><trkpt lat="45.732635" lon="8.5753683"><ele>204.5</ele><time>2026-03-29T13:15:01.941Z</time></trkpt><trkpt lat="45.7324133" lon="8.5755483"><ele>204.0</ele><time>2026-03-29T13:15:03.941Z</time></trkpt><trkpt lat="45.7321617" lon="8.5757433"><ele>204.0</ele><time>2026-03-29T13:15:05.941Z</time></trkpt><trkpt lat="45.7319217" lon="8.575925"><ele>204.0</ele><time>2026-03-29T13:15:07.941Z</time></trkpt><trkpt lat="45.7317167" lon="8.5760817"><ele>203.33333333333331</ele><time>2026-03-29T13:15:09.941Z</time></trkpt><trkpt lat="45.73152" lon="8.5762417"><ele>202.66666666666666</ele><time>2026-03-29T13:15:11.941Z</time></trkpt><trkpt lat="45.7313333" lon="8.5763833"><ele>202.0</ele><time>2026-03-29T13:15:13.941Z</time></trkpt><trkpt lat="45.7311733" lon="8.5765017"><ele>202.0</ele><time>2026-03-29T13:15:15.941Z</time></trkpt><trkpt lat="45.7310617" lon="8.5765983"><ele>202.0</ele><time>2026-03-29T13:15:17.941Z</time></trkpt><trkpt lat="45.73097" lon="8.57667"><ele>202.0</ele><time>2026-03-29T13:15:19.941Z</time></trkpt><trkpt lat="45.73089" lon="8.57673"><ele>202.0</ele><time>2026-03-29T13:15:22.941Z</time></trkpt><trkpt lat="45.7308183" lon="8.5767783"><ele>202.0</ele><time>2026-03-29T13:15:24.941Z</time></trkpt><trkpt lat="45.73073" lon="8.5768017"><ele>202.0</ele><time>2026-03-29T13:15:28.94Z</time></trkpt><trkpt lat="45.730625" lon="8.5767767"><ele>202.0</ele><time>2026-03-29T13:15:30.941Z</time></trkpt><trkpt lat="45.7305083" lon="8.5768583"><ele>202.0</ele><time>2026-03-29T13:15:32.941Z</time></trkpt><trkpt lat="45.7304283" lon="8.577045"><ele>202.0</ele><time>2026-03-29T13:15:34.941Z</time></trkpt><trkpt lat="45.7302833" lon="8.57721"><ele>203.0</ele><time>2026-03-29T13:15:36.941Z</time></trkpt><trkpt lat="45.730045" lon="8.5774133"><ele>204.0</ele><time>2026-03-29T13:15:38.941Z</time></trkpt><trkpt lat="45.7297667" lon="8.5776333"><ele>204.0</ele><time>2026-03-29T13:15:40.941Z</time></trkpt><trkpt lat="45.7294483" lon="8.5778533"><ele>204.0</ele><time>2026-03-29T13:15:42.941Z</time></trkpt><trkpt lat="45.7291283" lon="8.5780917"><ele>204.0</ele><time>2026-03-29T13:15:44.941Z</time></trkpt><trkpt lat="45.7288233" lon="8.5783467"><ele>204.0</ele><time>2026-03-29T13:15:46.94Z</time></trkpt><trkpt lat="45.72853" lon="8.578585"><ele>203.5</ele><time>2026-03-29T13:15:48.941Z</time></trkpt><trkpt lat="45.7282583" lon="8.5788183"><ele>203.0</ele><time>2026-03-29T13:15:50.941Z</time></trkpt><trkpt lat="45.7280017" lon="8.579025"><ele>203.0</ele><time>2026-03-29T13:15:52.941Z</time></trkpt><trkpt lat="45.7277883" lon="8.5792167"><ele>203.0</ele><time>2026-03-29T13:15:54.941Z</time></trkpt><trkpt lat="45.7275967" lon="8.57935"><ele>202.66666666666669</ele><time>2026-03-29T13:15:56.941Z</time></trkpt><trkpt lat="45.7273983" lon="8.5795033"><ele>202.33333333333331</ele><time>2026-03-29T13:15:58.941Z</time></trkpt><trkpt lat="45.7272033" lon="8.5796433"><ele>202.0</ele><time>2026-03-29T13:16:00.941Z</time></trkpt><trkpt lat="45.7270017" lon="8.579785"><ele>202.0</ele><time>2026-03-29T13:16:02.941Z</time></trkpt><trkpt lat="45.7267983" lon="8.5799383"><ele>202.0</ele><time>2026-03-29T13:16:04.941Z</time></trkpt><trkpt lat="45.7265967" lon="8.580095"><ele>202.0</ele><time>2026-03-29T13:16:06.94Z</time></trkpt><trkpt lat="45.7263883" lon="8.5802733"><ele>202.0</ele><time>2026-03-29T13:16:08.941Z</time></trkpt><trkpt lat="45.7262" lon="8.5804267"><ele>202.33333333333331</ele><time>2026-03-29T13:16:10.941Z</time></trkpt><trkpt lat="45.726005" lon="8.5805717"><ele>202.66666666666669</ele><time>2026-03-29T13:16:12.941Z</time></trkpt><trkpt lat="45.7258083" lon="8.5807383"><ele>203.0</ele><time>2026-03-29T13:16:14.941Z</time></trkpt><trkpt lat="45.7255767" lon="8.5809167"><ele>203.0</ele><time>2026-03-29T13:16:16.941Z</time></trkpt><trkpt lat="45.7253267" lon="8.581135"><ele>203.0</ele><time>2026-03-29T13:16:18.94Z</time></trkpt><trkpt lat="45.7250633" lon="8.5813683"><ele>202.0</ele><time>2026-03-29T13:16:20.941Z</time></trkpt><trkpt lat="45.7247383" lon="8.58161"><ele>201.0</ele><time>2026-03-29T13:16:22.941Z</time></trkpt><trkpt lat="45.7244033" lon="8.5818617"><ele>200.5</ele><time>2026-03-29T13:16:24.94Z</time></trkpt><trkpt lat="45.7240717" lon="8.5820967"><ele>200.0</ele><time>2026-03-29T13:16:26.94Z</time></trkpt><trkpt lat="45.7237817" lon="8.5823367"><ele>201.0</ele><time>2026-03-29T13:16:28.94Z</time></trkpt><trkpt lat="45.7235067" lon="8.5825467"><ele>202.0</ele><time>2026-03-29T13:16:30.94Z</time></trkpt><trkpt lat="45.7232533" lon="8.5827533"><ele>202.0</ele><time>2026-03-29T13:16:32.94Z</time></trkpt><trkpt lat="45.7229917" lon="8.5829667"><ele>202.0</ele><time>2026-03-29T13:16:34.94Z</time></trkpt><trkpt lat="45.7227083" lon="8.5831933"><ele>202.5</ele><time>2026-03-29T13:16:36.94Z</time></trkpt><trkpt lat="45.722415" lon="8.5834117"><ele>203.0</ele><time>2026-03-29T13:16:38.94Z</time></trkpt><trkpt lat="45.7221417" lon="8.5836217"><ele>202.0</ele><time>2026-03-29T13:16:40.94Z</time></trkpt><trkpt lat="45.7218867" lon="8.5838417"><ele>201.0</ele><time>2026-03-29T13:16:42.94Z</time></trkpt><trkpt lat="45.72162" lon="8.58406"><ele>201.0</ele><time>2026-03-29T13:16:44.94Z</time></trkpt><trkpt lat="45.7213483" lon="8.5842683"><ele>201.0</ele><time>2026-03-29T13:16:46.94Z</time></trkpt><trkpt lat="45.721105" lon="8.584485"><ele>201.5</ele><time>2026-03-29T13:16:48.94Z</time></trkpt><trkpt lat="45.7208717" lon="8.5847067"><ele>202.0</ele><time>2026-03-29T13:16:50.939Z</time></trkpt><trkpt lat="45.7206517" lon="8.584905"><ele>202.0</ele><time>2026-03-29T13:16:52.94Z</time></trkpt><trkpt lat="45.720445" lon="8.5850967"><ele>202.0</ele><time>2026-03-29T13:16:54.94Z</time></trkpt><trkpt lat="45.720265" lon="8.585295"><ele>202.0</ele><time>2026-03-29T13:16:56.94Z</time></trkpt><trkpt lat="45.720125" lon="8.58548"><ele>202.0</ele><time>2026-03-29T13:16:58.94Z</time></trkpt><trkpt lat="45.7200083" lon="8.58563"><ele>202.0</ele><time>2026-03-29T13:17:00.94Z</time></trkpt><trkpt lat="45.7198783" lon="8.5857617"><ele>202.0</ele><time>2026-03-29T13:17:02.94Z</time></trkpt><trkpt lat="45.719755" lon="8.5858933"><ele>202.0</ele><time>2026-03-29T13:17:04.94Z</time></trkpt><trkpt lat="45.7196967" lon="8.5860867"><ele>202.0</ele><time>2026-03-29T13:17:06.94Z</time></trkpt><trkpt lat="45.7197567" lon="8.58631"><ele>202.5</ele><time>2026-03-29T13:17:08.94Z</time></trkpt><trkpt lat="45.7198583" lon="8.5865867"><ele>203.0</ele><time>2026-03-29T13:17:10.94Z</time></trkpt><trkpt lat="45.7198933" lon="8.5869433"><ele>203.5</ele><time>2026-03-29T13:17:12.94Z</time></trkpt><trkpt lat="45.7198983" lon="8.5873533"><ele>204.0</ele><time>2026-03-29T13:17:14.94Z</time></trkpt><trkpt lat="45.719885" lon="8.58779"><ele>204.0</ele><time>2026-03-29T13:17:16.94Z</time></trkpt><trkpt lat="45.719865" lon="8.5882033"><ele>204.0</ele><time>2026-03-29T13:17:18.939Z</time></trkpt><trkpt lat="45.7198283" lon="8.588645"><ele>204.0</ele><time>2026-03-29T13:17:20.94Z</time></trkpt><trkpt lat="45.7197917" lon="8.5890833"><ele>204.0</ele><time>2026-03-29T13:17:22.939Z</time></trkpt><trkpt lat="45.71976" lon="8.58948"><ele>204.5</ele><time>2026-03-29T13:17:24.94Z</time></trkpt><trkpt lat="45.7197267" lon="8.5898233"><ele>205.0</ele><time>2026-03-29T13:17:26.94Z</time></trkpt><trkpt lat="45.7196867" lon="8.5901333"><ele>205.0</ele><time>2026-03-29T13:17:28.94Z</time></trkpt><trkpt lat="45.7196383" lon="8.59037"><ele>205.0</ele><time>2026-03-29T13:17:30.939Z</time></trkpt><trkpt lat="45.71958" lon="8.590535"><ele>205.0</ele><time>2026-03-29T13:17:32.94Z</time></trkpt><trkpt lat="45.7194683" lon="8.5906717"><ele>205.0</ele><time>2026-03-29T13:17:34.94Z</time></trkpt><trkpt lat="45.7193333" lon="8.5907967"><ele>205.0</ele><time>2026-03-29T13:17:36.94Z</time></trkpt><trkpt lat="45.7191617" lon="8.5908917"><ele>205.0</ele><time>2026-03-29T13:17:38.939Z</time></trkpt><trkpt lat="45.71895" lon="8.590945"><ele>205.0</ele><time>2026-03-29T13:17:40.94Z</time></trkpt><trkpt lat="45.7187367" lon="8.590975"><ele>205.33333333333331</ele><time>2026-03-29T13:17:42.94Z</time></trkpt><trkpt lat="45.7185267" lon="8.59102"><ele>205.66666666666669</ele><time>2026-03-29T13:17:44.94Z</time></trkpt><trkpt lat="45.71831" lon="8.5910767"><ele>206.0</ele><time>2026-03-29T13:17:46.94Z</time></trkpt><trkpt lat="45.7180733" lon="8.5911383"><ele>207.5</ele><time>2026-03-29T13:17:48.939Z</time></trkpt><trkpt lat="45.7178367" lon="8.5911917"><ele>209.0</ele><time>2026-03-29T13:17:50.94Z</time></trkpt><trkpt lat="45.7175783" lon="8.59126"><ele>210.0</ele><time>2026-03-29T13:17:52.94Z</time></trkpt><trkpt lat="45.7173033" lon="8.591335"><ele>211.0</ele><time>2026-03-29T13:17:54.94Z</time></trkpt><trkpt lat="45.7170217" lon="8.5914"><ele>209.5</ele><time>2026-03-29T13:17:56.94Z</time></trkpt><trkpt lat="45.7167383" lon="8.5914717"><ele>208.0</ele><time>2026-03-29T13:17:58.94Z</time></trkpt><trkpt lat="45.71647" lon="8.5915367"><ele>208.0</ele><time>2026-03-29T13:18:00.94Z</time></trkpt><trkpt lat="45.71621" lon="8.5916017"><ele>208.0</ele><time>2026-03-29T13:18:02.94Z</time></trkpt><trkpt lat="45.7159517" lon="8.5916717"><ele>208.5</ele><time>2026-03-29T13:18:04.939Z</time></trkpt><trkpt lat="45.7156817" lon="8.591755"><ele>209.0</ele><time>2026-03-29T13:18:06.94Z</time></trkpt><trkpt lat="45.7154267" lon="8.59183"><ele>209.66666666666669</ele><time>2026-03-29T13:18:08.94Z</time></trkpt><trkpt lat="45.7151833" lon="8.5918817"><ele>210.33333333333331</ele><time>2026-03-29T13:18:10.94Z</time></trkpt><trkpt lat="45.715055" lon="8.5918933"><ele>211.0</ele><time>2026-03-29T13:18:11.94Z</time></trkpt><trkpt lat="45.714925" lon="8.5919"><ele>211.0</ele><time>2026-03-29T13:18:12.94Z</time></trkpt><trkpt lat="45.7147867" lon="8.5919"><ele>211.0</ele><time>2026-03-29T13:18:13.939Z</time></trkpt><trkpt lat="45.7146467" lon="8.5918883"><ele>211.0</ele><time>2026-03-29T13:18:14.94Z</time></trkpt><trkpt lat="45.7145017" lon="8.59187"><ele>211.0</ele><time>2026-03-29T13:18:15.939Z</time></trkpt><trkpt lat="45.7143583" lon="8.5918433"><ele>211.0</ele><time>2026-03-29T13:18:16.94Z</time></trkpt><trkpt lat="45.714215" lon="8.5918083"><ele>211.0</ele><time>2026-03-29T13:18:17.94Z</time></trkpt><trkpt lat="45.7140717" lon="8.5917633"><ele>211.0</ele><time>2026-03-29T13:18:18.94Z</time></trkpt><trkpt lat="45.7139267" lon="8.5917167"><ele>211.0</ele><time>2026-03-29T13:18:19.94Z</time></trkpt><trkpt lat="45.7137833" lon="8.5916617"><ele>211.0</ele><time>2026-03-29T13:18:20.939Z</time></trkpt><trkpt lat="45.71363" lon="8.591595"><ele>211.0</ele><time>2026-03-29T13:18:21.94Z</time></trkpt><trkpt lat="45.71348" lon="8.591535"><ele>211.0</ele><time>2026-03-29T13:18:22.939Z</time></trkpt><trkpt lat="45.713325" lon="8.5914733"><ele>210.66666666666666</ele><time>2026-03-29T13:18:23.94Z</time></trkpt><trkpt lat="45.7131717" lon="8.5914083"><ele>210.33333333333331</ele><time>2026-03-29T13:18:24.94Z</time></trkpt><trkpt lat="45.7130217" lon="8.5913367"><ele>210.0</ele><time>2026-03-29T13:18:25.94Z</time></trkpt><trkpt lat="45.7128683" lon="8.5912717"><ele>210.0</ele><time>2026-03-29T13:18:26.94Z</time></trkpt><trkpt lat="45.71271" lon="8.5912167"><ele>210.0</ele><time>2026-03-29T13:18:27.94Z</time></trkpt><trkpt lat="45.7125467" lon="8.591145"><ele>210.0</ele><time>2026-03-29T13:18:28.94Z</time></trkpt><trkpt lat="45.7123833" lon="8.5910833"><ele>211.0</ele><time>2026-03-29T13:18:29.94Z</time></trkpt><trkpt lat="45.7122183" lon="8.59101"><ele>212.0</ele><time>2026-03-29T13:18:30.94Z</time></trkpt><trkpt lat="45.712055" lon="8.5909383"><ele>213.0</ele><time>2026-03-29T13:18:31.94Z</time></trkpt><trkpt lat="45.71189" lon="8.5908667"><ele>214.66666666666669</ele><time>2026-03-29T13:18:32.94Z</time></trkpt><trkpt lat="45.7117233" lon="8.5908"><ele>216.33333333333334</ele><time>2026-03-29T13:18:33.94Z</time></trkpt><trkpt lat="45.7115583" lon="8.59073"><ele>218.0</ele><time>2026-03-29T13:18:34.94Z</time></trkpt><trkpt lat="45.7113917" lon="8.5906533"><ele>218.0</ele><time>2026-03-29T13:18:35.94Z</time></trkpt><trkpt lat="45.7112283" lon="8.5905833"><ele>218.0</ele><time>2026-03-29T13:18:36.94Z</time></trkpt><trkpt lat="45.7110633" lon="8.5905133"><ele>218.0</ele><time>2026-03-29T13:18:37.94Z</time></trkpt><trkpt lat="45.7109017" lon="8.5904317"><ele>218.33333333333334</ele><time>2026-03-29T13:18:38.94Z</time></trkpt><trkpt lat="45.71075" lon="8.5903433"><ele>218.66666666666669</ele><time>2026-03-29T13:18:39.94Z</time></trkpt><trkpt lat="45.7106" lon="8.5902333"><ele>219.0</ele><time>2026-03-29T13:18:40.94Z</time></trkpt><trkpt lat="45.7104533" lon="8.590115"><ele>218.66666666666669</ele><time>2026-03-29T13:18:41.94Z</time></trkpt><trkpt lat="45.710315" lon="8.5899933"><ele>218.33333333333334</ele><time>2026-03-29T13:18:42.94Z</time></trkpt><trkpt lat="45.7101733" lon="8.589865"><ele>218.0</ele><time>2026-03-29T13:18:43.94Z</time></trkpt><trkpt lat="45.70988" lon="8.5896183"><ele>219.33333333333334</ele><time>2026-03-29T13:18:45.94Z</time></trkpt><trkpt lat="45.7097317" lon="8.5894967"><ele>220.66666666666669</ele><time>2026-03-29T13:18:46.94Z</time></trkpt><trkpt lat="45.7095867" lon="8.5893717"><ele>222.0</ele><time>2026-03-29T13:18:47.939Z</time></trkpt><trkpt lat="45.7094467" lon="8.58925"><ele>223.0</ele><time>2026-03-29T13:18:48.94Z</time></trkpt><trkpt lat="45.7093017" lon="8.5891233"><ele>224.0</ele><time>2026-03-29T13:18:49.94Z</time></trkpt><trkpt lat="45.709165" lon="8.58901"><ele>225.0</ele><time>2026-03-29T13:18:50.94Z</time></trkpt><trkpt lat="45.709025" lon="8.58889"><ele>225.0</ele><time>2026-03-29T13:18:51.94Z</time></trkpt><trkpt lat="45.7088867" lon="8.5887683"><ele>225.0</ele><time>2026-03-29T13:18:52.94Z</time></trkpt><trkpt lat="45.7087433" lon="8.588645"><ele>225.0</ele><time>2026-03-29T13:18:53.939Z</time></trkpt><trkpt lat="45.7086067" lon="8.588505"><ele>227.0</ele><time>2026-03-29T13:18:54.94Z</time></trkpt><trkpt lat="45.708475" lon="8.5883767"><ele>229.0</ele><time>2026-03-29T13:18:55.94Z</time></trkpt><trkpt lat="45.70834" lon="8.5882517"><ele>231.0</ele><time>2026-03-29T13:18:56.94Z</time></trkpt><trkpt lat="45.7082017" lon="8.5881267"><ele>231.0</ele><time>2026-03-29T13:18:57.94Z</time></trkpt><trkpt lat="45.708075" lon="8.5880067"><ele>231.0</ele><time>2026-03-29T13:18:58.94Z</time></trkpt><trkpt lat="45.7079417" lon="8.5879"><ele>231.0</ele><time>2026-03-29T13:18:59.94Z</time></trkpt><trkpt lat="45.707815" lon="8.5877933"><ele>232.5</ele><time>2026-03-29T13:19:00.94Z</time></trkpt><trkpt lat="45.7076833" lon="8.5876933"><ele>234.0</ele><time>2026-03-29T13:19:01.94Z</time></trkpt><trkpt lat="45.7075433" lon="8.5876217"><ele>235.5</ele><time>2026-03-29T13:19:02.94Z</time></trkpt><trkpt lat="45.7074017" lon="8.5875683"><ele>237.0</ele><time>2026-03-29T13:19:03.94Z</time></trkpt><trkpt lat="45.70726" lon="8.5875367"><ele>237.0</ele><time>2026-03-29T13:19:04.94Z</time></trkpt><trkpt lat="45.7071117" lon="8.5875133"><ele>237.0</ele><time>2026-03-29T13:19:05.94Z</time></trkpt><trkpt lat="45.70697" lon="8.5874933"><ele>237.0</ele><time>2026-03-29T13:19:06.94Z</time></trkpt><trkpt lat="45.706835" lon="8.5874683"><ele>237.0</ele><time>2026-03-29T13:19:07.94Z</time></trkpt><trkpt lat="45.706695" lon="8.58744"><ele>234.5</ele><time>2026-03-29T13:19:08.94Z</time></trkpt><trkpt lat="45.7065483" lon="8.5874167"><ele>232.0</ele><time>2026-03-29T13:19:09.94Z</time></trkpt><trkpt lat="45.7064033" lon="8.5873917"><ele>229.5</ele><time>2026-03-29T13:19:10.94Z</time></trkpt><trkpt lat="45.7062617" lon="8.5873633"><ele>227.0</ele><time>2026-03-29T13:19:11.94Z</time></trkpt><trkpt lat="45.7061167" lon="8.5873367"><ele>228.0</ele><time>2026-03-29T13:19:12.94Z</time></trkpt><trkpt lat="45.7059683" lon="8.5873083"><ele>229.0</ele><time>2026-03-29T13:19:13.94Z</time></trkpt><trkpt lat="45.7058267" lon="8.5872767"><ele>230.0</ele><time>2026-03-29T13:19:14.94Z</time></trkpt><trkpt lat="45.7056867" lon="8.5872467"><ele>231.0</ele><time>2026-03-29T13:19:15.94Z</time></trkpt><trkpt lat="45.70555" lon="8.587225"><ele>231.0</ele><time>2026-03-29T13:19:16.94Z</time></trkpt><trkpt lat="45.7054283" lon="8.5872133"><ele>231.0</ele><time>2026-03-29T13:19:17.94Z</time></trkpt><trkpt lat="45.70531" lon="8.5872083"><ele>231.0</ele><time>2026-03-29T13:19:18.94Z</time></trkpt><trkpt lat="45.7051933" lon="8.587205"><ele>231.0</ele><time>2026-03-29T13:19:19.94Z</time></trkpt><trkpt lat="45.7050733" lon="8.587215"><ele>231.0</ele><time>2026-03-29T13:19:20.94Z</time></trkpt><trkpt lat="45.7049483" lon="8.5872367"><ele>231.0</ele><time>2026-03-29T13:19:21.94Z</time></trkpt><trkpt lat="45.7048133" lon="8.58728"><ele>231.0</ele><time>2026-03-29T13:19:22.94Z</time></trkpt><trkpt lat="45.704685" lon="8.5873367"><ele>231.0</ele><time>2026-03-29T13:19:23.94Z</time></trkpt><trkpt lat="45.7045633" lon="8.5874317"><ele>231.0</ele><time>2026-03-29T13:19:24.94Z</time></trkpt><trkpt lat="45.70445" lon="8.5875417"><ele>231.0</ele><time>2026-03-29T13:19:25.94Z</time></trkpt><trkpt lat="45.704345" lon="8.5876633"><ele>231.0</ele><time>2026-03-29T13:19:26.94Z</time></trkpt><trkpt lat="45.704235" lon="8.58779"><ele>231.0</ele><time>2026-03-29T13:19:27.94Z</time></trkpt><trkpt lat="45.70411" lon="8.5879267"><ele>232.0</ele><time>2026-03-29T13:19:28.94Z</time></trkpt><trkpt lat="45.7039817" lon="8.5880783"><ele>233.0</ele><time>2026-03-29T13:19:29.94Z</time></trkpt><trkpt lat="45.7038517" lon="8.58823"><ele>234.0</ele><time>2026-03-29T13:19:30.94Z</time></trkpt><trkpt lat="45.7037117" lon="8.5884133"><ele>236.0</ele><time>2026-03-29T13:19:31.94Z</time></trkpt><trkpt lat="45.70356" lon="8.5885917"><ele>238.0</ele><time>2026-03-29T13:19:32.94Z</time></trkpt><trkpt lat="45.7033783" lon="8.58878"><ele>240.0</ele><time>2026-03-29T13:19:33.94Z</time></trkpt><trkpt lat="45.7031967" lon="8.58898"><ele>240.33333333333331</ele><time>2026-03-29T13:19:34.94Z</time></trkpt><trkpt lat="45.7030267" lon="8.5891717"><ele>240.66666666666666</ele><time>2026-03-29T13:19:35.939Z</time></trkpt><trkpt lat="45.7028617" lon="8.5893617"><ele>241.0</ele><time>2026-03-29T13:19:36.939Z</time></trkpt><trkpt lat="45.7027167" lon="8.5895467"><ele>243.33333333333331</ele><time>2026-03-29T13:19:37.938Z</time></trkpt><trkpt lat="45.7025867" lon="8.5897083"><ele>245.66666666666669</ele><time>2026-03-29T13:19:38.939Z</time></trkpt><trkpt lat="45.70247" lon="8.58987"><ele>248.0</ele><time>2026-03-29T13:19:39.939Z</time></trkpt><trkpt lat="45.7023667" lon="8.5900283"><ele>248.0</ele><time>2026-03-29T13:19:40.938Z</time></trkpt><trkpt lat="45.7022683" lon="8.5901817"><ele>248.0</ele><time>2026-03-29T13:19:41.939Z</time></trkpt><trkpt lat="45.70218" lon="8.5903317"><ele>248.0</ele><time>2026-03-29T13:19:42.939Z</time></trkpt><trkpt lat="45.7020417" lon="8.5905833"><ele>247.2</ele><time>2026-03-29T13:19:44.939Z</time></trkpt><trkpt lat="45.7020017" lon="8.5906817"><ele>246.4</ele><time>2026-03-29T13:19:45.939Z</time></trkpt><trkpt lat="45.701975" lon="8.5907683"><ele>245.59999999999997</ele><time>2026-03-29T13:19:46.938Z</time></trkpt><trkpt lat="45.7019383" lon="8.5909167"><ele>244.79999999999998</ele><time>2026-03-29T13:19:48.938Z</time></trkpt><trkpt lat="45.7018917" lon="8.5910733"><ele>244.0</ele><time>2026-03-29T13:19:50.939Z</time></trkpt><trkpt lat="45.7018583" lon="8.59117"><ele>245.39999999999998</ele><time>2026-03-29T13:19:51.938Z</time></trkpt><trkpt lat="45.7018067" lon="8.5912783"><ele>246.79999999999998</ele><time>2026-03-29T13:19:52.939Z</time></trkpt><trkpt lat="45.7017583" lon="8.5913883"><ele>248.20000000000002</ele><time>2026-03-29T13:19:53.939Z</time></trkpt><trkpt lat="45.7016917" lon="8.5914983"><ele>249.60000000000002</ele><time>2026-03-29T13:19:54.939Z</time></trkpt><trkpt lat="45.7015983" lon="8.5915983"><ele>251.0</ele><time>2026-03-29T13:19:55.939Z</time></trkpt><trkpt lat="45.7014817" lon="8.5917033"><ele>251.0</ele><time>2026-03-29T13:19:56.939Z</time></trkpt><trkpt lat="45.7013417" lon="8.59182"><ele>251.0</ele><time>2026-03-29T13:19:57.939Z</time></trkpt><trkpt lat="45.7012033" lon="8.5919533"><ele>251.0</ele><time>2026-03-29T13:19:58.939Z</time></trkpt><trkpt lat="45.7010783" lon="8.5921083"><ele>252.33333333333334</ele><time>2026-03-29T13:19:59.939Z</time></trkpt><trkpt lat="45.70097" lon="8.59226"><ele>253.66666666666669</ele><time>2026-03-29T13:20:00.939Z</time></trkpt><trkpt lat="45.70076" lon="8.5925467"><ele>255.0</ele><time>2026-03-29T13:20:02.939Z</time></trkpt><trkpt lat="45.7006583" lon="8.592675"><ele>255.0</ele><time>2026-03-29T13:20:03.939Z</time></trkpt><trkpt lat="45.7005567" lon="8.592795"><ele>255.0</ele><time>2026-03-29T13:20:04.939Z</time></trkpt><trkpt lat="45.70046" lon="8.5929067"><ele>255.0</ele><time>2026-03-29T13:20:05.939Z</time></trkpt><trkpt lat="45.7003567" lon="8.5930083"><ele>255.0</ele><time>2026-03-29T13:20:06.939Z</time></trkpt><trkpt lat="45.7002583" lon="8.5931117"><ele>254.5</ele><time>2026-03-29T13:20:07.939Z</time></trkpt><trkpt lat="45.7001567" lon="8.5932133"><ele>254.0</ele><time>2026-03-29T13:20:08.939Z</time></trkpt><trkpt lat="45.7000533" lon="8.5933233"><ele>253.5</ele><time>2026-03-29T13:20:09.939Z</time></trkpt><trkpt lat="45.6999417" lon="8.59344"><ele>253.0</ele><time>2026-03-29T13:20:10.939Z</time></trkpt><trkpt lat="45.699825" lon="8.5935633"><ele>253.0</ele><time>2026-03-29T13:20:11.939Z</time></trkpt><trkpt lat="45.6997133" lon="8.5936783"><ele>253.0</ele><time>2026-03-29T13:20:12.939Z</time></trkpt><trkpt lat="45.699595" lon="8.5938083"><ele>253.0</ele><time>2026-03-29T13:20:13.939Z</time></trkpt><trkpt lat="45.699475" lon="8.5939383"><ele>253.0</ele><time>2026-03-29T13:20:14.939Z</time></trkpt><trkpt lat="45.6993533" lon="8.5940717"><ele>255.33333333333331</ele><time>2026-03-29T13:20:15.939Z</time></trkpt><trkpt lat="45.6992283" lon="8.5942067"><ele>257.6666666666667</ele><time>2026-03-29T13:20:16.939Z</time></trkpt><trkpt lat="45.6990983" lon="8.5943367"><ele>260.0</ele><time>2026-03-29T13:20:17.939Z</time></trkpt><trkpt lat="45.6989733" lon="8.59447"><ele>260.5</ele><time>2026-03-29T13:20:18.939Z</time></trkpt><trkpt lat="45.6988567" lon="8.5945933"><ele>261.0</ele><time>2026-03-29T13:20:19.939Z</time></trkpt><trkpt lat="45.6987383" lon="8.5947167"><ele>261.5</ele><time>2026-03-29T13:20:20.939Z</time></trkpt><trkpt lat="45.6986283" lon="8.5948333"><ele>262.0</ele><time>2026-03-29T13:20:21.939Z</time></trkpt><trkpt lat="45.6985233" lon="8.59496"><ele>262.0</ele><time>2026-03-29T13:20:22.939Z</time></trkpt><trkpt lat="45.6984283" lon="8.59508"><ele>262.0</ele><time>2026-03-29T13:20:23.939Z</time></trkpt><trkpt lat="45.698345" lon="8.5951933"><ele>262.0</ele><time>2026-03-29T13:20:24.939Z</time></trkpt><trkpt lat="45.6982667" lon="8.5952933"><ele>262.0</ele><time>2026-03-29T13:20:25.939Z</time></trkpt><trkpt lat="45.6981933" lon="8.5953917"><ele>262.0</ele><time>2026-03-29T13:20:26.939Z</time></trkpt><trkpt lat="45.6981267" lon="8.5954967"><ele>261.5</ele><time>2026-03-29T13:20:27.939Z</time></trkpt><trkpt lat="45.69804" lon="8.5956"><ele>261.0</ele><time>2026-03-29T13:20:28.939Z</time></trkpt><trkpt lat="45.6979567" lon="8.5957233"><ele>260.5</ele><time>2026-03-29T13:20:29.939Z</time></trkpt><trkpt lat="45.6978567" lon="8.5958533"><ele>260.0</ele><time>2026-03-29T13:20:30.939Z</time></trkpt><trkpt lat="45.6977583" lon="8.595985"><ele>260.0</ele><time>2026-03-29T13:20:31.939Z</time></trkpt><trkpt lat="45.697665" lon="8.5961133"><ele>260.0</ele><time>2026-03-29T13:20:32.939Z</time></trkpt><trkpt lat="45.6975817" lon="8.5962317"><ele>260.0</ele><time>2026-03-29T13:20:33.939Z</time></trkpt><trkpt lat="45.6975017" lon="8.5963383"><ele>260.0</ele><time>2026-03-29T13:20:34.938Z</time></trkpt><trkpt lat="45.69744" lon="8.596425"><ele>260.0</ele><time>2026-03-29T13:20:35.939Z</time></trkpt><trkpt lat="45.697375" lon="8.5965033"><ele>259.83333333333337</ele><time>2026-03-29T13:20:36.939Z</time></trkpt><trkpt lat="45.697325" lon="8.596565"><ele>259.6666666666667</ele><time>2026-03-29T13:20:37.939Z</time></trkpt><trkpt lat="45.6972617" lon="8.5966417"><ele>259.5</ele><time>2026-03-29T13:20:39.939Z</time></trkpt><trkpt lat="45.6972117" lon="8.59671"><ele>259.3333333333333</ele><time>2026-03-29T13:20:41.939Z</time></trkpt><trkpt lat="45.6971483" lon="8.59678"><ele>259.16666666666663</ele><time>2026-03-29T13:20:44.939Z</time></trkpt><trkpt lat="45.69709" lon="8.5968583"><ele>259.0</ele><time>2026-03-29T13:20:47.939Z</time></trkpt><trkpt lat="45.6970133" lon="8.5969533"><ele>259.0</ele><time>2026-03-29T13:20:49.939Z</time></trkpt><trkpt lat="45.6969217" lon="8.5970783"><ele>259.0</ele><time>2026-03-29T13:20:51.939Z</time></trkpt><trkpt lat="45.69687" lon="8.5971433"><ele>259.0</ele><time>2026-03-29T13:20:52.939Z</time></trkpt><trkpt lat="45.696815" lon="8.59721"><ele>259.0</ele><time>2026-03-29T13:20:53.939Z</time></trkpt><trkpt lat="45.6967533" lon="8.5972867"><ele>259.0</ele><time>2026-03-29T13:20:54.939Z</time></trkpt><trkpt lat="45.6966933" lon="8.597365"><ele>259.0</ele><time>2026-03-29T13:20:55.939Z</time></trkpt><trkpt lat="45.6966333" lon="8.5974517"><ele>259.0</ele><time>2026-03-29T13:20:56.939Z</time></trkpt><trkpt lat="45.696565" lon="8.5975433"><ele>259.0</ele><time>2026-03-29T13:20:57.939Z</time></trkpt><trkpt lat="45.6964967" lon="8.5976317"><ele>259.0</ele><time>2026-03-29T13:20:58.939Z</time></trkpt><trkpt lat="45.6964267" lon="8.5977233"><ele>259.0</ele><time>2026-03-29T13:20:59.939Z</time></trkpt><trkpt lat="45.69636" lon="8.59781"><ele>259.0</ele><time>2026-03-29T13:21:00.939Z</time></trkpt><trkpt lat="45.6962933" lon="8.5978967"><ele>258.8</ele><time>2026-03-29T13:21:01.938Z</time></trkpt><trkpt lat="45.696235" lon="8.5979817"><ele>258.59999999999997</ele><time>2026-03-29T13:21:02.939Z</time></trkpt><trkpt lat="45.696165" lon="8.5980733"><ele>258.4</ele><time>2026-03-29T13:21:03.939Z</time></trkpt><trkpt lat="45.696095" lon="8.5981617"><ele>258.2</ele><time>2026-03-29T13:21:04.939Z</time></trkpt><trkpt lat="45.6960233" lon="8.5982517"><ele>258.0</ele><time>2026-03-29T13:21:05.939Z</time></trkpt><trkpt lat="45.6959467" lon="8.59836"><ele>258.0</ele><time>2026-03-29T13:21:06.939Z</time></trkpt><trkpt lat="45.6958667" lon="8.5984717"><ele>258.0</ele><time>2026-03-29T13:21:07.939Z</time></trkpt><trkpt lat="45.6957833" lon="8.59858"><ele>258.0</ele><time>2026-03-29T13:21:08.939Z</time></trkpt><trkpt lat="45.695695" lon="8.59869"><ele>258.0</ele><time>2026-03-29T13:21:09.939Z</time></trkpt><trkpt lat="45.6956067" lon="8.5988083"><ele>258.0</ele><time>2026-03-29T13:21:10.939Z</time></trkpt><trkpt lat="45.6955133" lon="8.5989283"><ele>258.0</ele><time>2026-03-29T13:21:11.939Z</time></trkpt><trkpt lat="45.6954267" lon="8.5990467"><ele>258.0</ele><time>2026-03-29T13:21:12.939Z</time></trkpt><trkpt lat="45.6953367" lon="8.59917"><ele>258.0</ele><time>2026-03-29T13:21:13.939Z</time></trkpt><trkpt lat="45.695235" lon="8.5993083"><ele>258.5</ele><time>2026-03-29T13:21:14.939Z</time></trkpt><trkpt lat="45.695135" lon="8.5994367"><ele>259.0</ele><time>2026-03-29T13:21:15.939Z</time></trkpt><trkpt lat="45.695035" lon="8.5995717"><ele>259.5</ele><time>2026-03-29T13:21:16.939Z</time></trkpt><trkpt lat="45.69493" lon="8.5997033"><ele>260.0</ele><time>2026-03-29T13:21:17.939Z</time></trkpt><trkpt lat="45.694835" lon="8.599825"><ele>260.2</ele><time>2026-03-29T13:21:18.938Z</time></trkpt><trkpt lat="45.694755" lon="8.5999333"><ele>260.4</ele><time>2026-03-29T13:21:19.939Z</time></trkpt><trkpt lat="45.6946733" lon="8.600035"><ele>260.6</ele><time>2026-03-29T13:21:20.939Z</time></trkpt><trkpt lat="45.694595" lon="8.600135"><ele>260.8</ele><time>2026-03-29T13:21:21.939Z</time></trkpt><trkpt lat="45.6945217" lon="8.600235"><ele>261.0</ele><time>2026-03-29T13:21:22.939Z</time></trkpt><trkpt lat="45.6944567" lon="8.60032"><ele>262.0</ele><time>2026-03-29T13:21:23.939Z</time></trkpt><trkpt lat="45.694385" lon="8.6004117"><ele>263.0</ele><time>2026-03-29T13:21:24.939Z</time></trkpt><trkpt lat="45.6943167" lon="8.6005117"><ele>264.0</ele><time>2026-03-29T13:21:25.939Z</time></trkpt><trkpt lat="45.694245" lon="8.6006017"><ele>265.0</ele><time>2026-03-29T13:21:26.939Z</time></trkpt><trkpt lat="45.69417" lon="8.600685"><ele>266.0</ele><time>2026-03-29T13:21:27.939Z</time></trkpt><trkpt lat="45.69409" lon="8.6007867"><ele>266.0</ele><time>2026-03-29T13:21:28.939Z</time></trkpt><trkpt lat="45.6940017" lon="8.600905"><ele>266.0</ele><time>2026-03-29T13:21:29.939Z</time></trkpt><trkpt lat="45.6939117" lon="8.601035"><ele>266.0</ele><time>2026-03-29T13:21:30.939Z</time></trkpt><trkpt lat="45.6938133" lon="8.601175"><ele>266.0</ele><time>2026-03-29T13:21:31.939Z</time></trkpt><trkpt lat="45.693715" lon="8.6013117"><ele>265.75</ele><time>2026-03-29T13:21:32.939Z</time></trkpt><trkpt lat="45.6936033" lon="8.601455"><ele>265.5</ele><time>2026-03-29T13:21:33.939Z</time></trkpt><trkpt lat="45.6934967" lon="8.6015967"><ele>265.25</ele><time>2026-03-29T13:21:34.938Z</time></trkpt><trkpt lat="45.6933817" lon="8.601735"><ele>265.0</ele><time>2026-03-29T13:21:35.938Z</time></trkpt><trkpt lat="45.69327" lon="8.6018667"><ele>265.25</ele><time>2026-03-29T13:21:36.939Z</time></trkpt><trkpt lat="45.6931583" lon="8.6019917"><ele>265.5</ele><time>2026-03-29T13:21:37.939Z</time></trkpt><trkpt lat="45.6930483" lon="8.6021033"><ele>265.75</ele><time>2026-03-29T13:21:38.939Z</time></trkpt><trkpt lat="45.6929383" lon="8.6021917"><ele>266.0</ele><time>2026-03-29T13:21:39.939Z</time></trkpt><trkpt lat="45.6928317" lon="8.6022833"><ele>266.5</ele><time>2026-03-29T13:21:40.939Z</time></trkpt><trkpt lat="45.6927283" lon="8.6023717"><ele>267.0</ele><time>2026-03-29T13:21:41.938Z</time></trkpt><trkpt lat="45.69263" lon="8.60245"><ele>267.5</ele><time>2026-03-29T13:21:42.939Z</time></trkpt><trkpt lat="45.69253" lon="8.6025417"><ele>268.0</ele><time>2026-03-29T13:21:43.939Z</time></trkpt><trkpt lat="45.6924283" lon="8.602635"><ele>268.0</ele><time>2026-03-29T13:21:44.939Z</time></trkpt><trkpt lat="45.69233" lon="8.6027233"><ele>268.0</ele><time>2026-03-29T13:21:45.939Z</time></trkpt><trkpt lat="45.692235" lon="8.60281"><ele>268.0</ele><time>2026-03-29T13:21:46.939Z</time></trkpt><trkpt lat="45.6921417" lon="8.6028933"><ele>268.0</ele><time>2026-03-29T13:21:47.939Z</time></trkpt><trkpt lat="45.692045" lon="8.6029833"><ele>268.0</ele><time>2026-03-29T13:21:48.939Z</time></trkpt><trkpt lat="45.6919517" lon="8.6030767"><ele>268.0</ele><time>2026-03-29T13:21:49.938Z</time></trkpt><trkpt lat="45.6918533" lon="8.6031733"><ele>268.0</ele><time>2026-03-29T13:21:50.938Z</time></trkpt><trkpt lat="45.691765" lon="8.6032867"><ele>268.0</ele><time>2026-03-29T13:21:51.939Z</time></trkpt><trkpt lat="45.6916667" lon="8.6034067"><ele>268.0</ele><time>2026-03-29T13:21:52.939Z</time></trkpt><trkpt lat="45.69157" lon="8.6035517"><ele>268.0</ele><time>2026-03-29T13:21:53.939Z</time></trkpt><trkpt lat="45.69148" lon="8.6036983"><ele>268.0</ele><time>2026-03-29T13:21:54.938Z</time></trkpt><trkpt lat="45.6913917" lon="8.6038467"><ele>268.0</ele><time>2026-03-29T13:21:55.939Z</time></trkpt><trkpt lat="45.6913033" lon="8.60399"><ele>268.25</ele><time>2026-03-29T13:21:56.938Z</time></trkpt><trkpt lat="45.6912067" lon="8.6041383"><ele>268.5</ele><time>2026-03-29T13:21:57.939Z</time></trkpt><trkpt lat="45.6911083" lon="8.60428"><ele>268.75</ele><time>2026-03-29T13:21:58.938Z</time></trkpt><trkpt lat="45.6910117" lon="8.604425"><ele>269.0</ele><time>2026-03-29T13:21:59.939Z</time></trkpt><trkpt lat="45.69092" lon="8.6045717"><ele>267.5</ele><time>2026-03-29T13:22:00.939Z</time></trkpt><trkpt lat="45.6908183" lon="8.60472"><ele>266.0</ele><time>2026-03-29T13:22:01.938Z</time></trkpt><trkpt lat="45.6907133" lon="8.604875"><ele>264.5</ele><time>2026-03-29T13:22:02.939Z</time></trkpt><trkpt lat="45.6906067" lon="8.60503"><ele>263.0</ele><time>2026-03-29T13:22:03.939Z</time></trkpt><trkpt lat="45.69051" lon="8.605185"><ele>263.0</ele><time>2026-03-29T13:22:04.938Z</time></trkpt><trkpt lat="45.6904183" lon="8.6053183"><ele>263.0</ele><time>2026-03-29T13:22:05.939Z</time></trkpt><trkpt lat="45.6903133" lon="8.6054583"><ele>263.0</ele><time>2026-03-29T13:22:06.939Z</time></trkpt><trkpt lat="45.6902133" lon="8.6055967"><ele>263.0</ele><time>2026-03-29T13:22:07.939Z</time></trkpt><trkpt lat="45.6901083" lon="8.6057417"><ele>264.33333333333337</ele><time>2026-03-29T13:22:08.939Z</time></trkpt><trkpt lat="45.6899967" lon="8.6058833"><ele>265.6666666666667</ele><time>2026-03-29T13:22:09.939Z</time></trkpt><trkpt lat="45.6898767" lon="8.606035"><ele>267.0</ele><time>2026-03-29T13:22:10.938Z</time></trkpt><trkpt lat="45.6897667" lon="8.6061717"><ele>268.5</ele><time>2026-03-29T13:22:11.939Z</time></trkpt><trkpt lat="45.68967" lon="8.6062883"><ele>270.0</ele><time>2026-03-29T13:22:12.939Z</time></trkpt><trkpt lat="45.6895867" lon="8.6063983"><ele>271.5</ele><time>2026-03-29T13:22:13.939Z</time></trkpt><trkpt lat="45.6894983" lon="8.6065067"><ele>273.0</ele><time>2026-03-29T13:22:14.939Z</time></trkpt><trkpt lat="45.6894183" lon="8.60661"><ele>273.0</ele><time>2026-03-29T13:22:15.939Z</time></trkpt><trkpt lat="45.6893433" lon="8.606715"><ele>273.0</ele><time>2026-03-29T13:22:16.939Z</time></trkpt><trkpt lat="45.68927" lon="8.6068167"><ele>273.0</ele><time>2026-03-29T13:22:17.939Z</time></trkpt><trkpt lat="45.68919" lon="8.6069117"><ele>273.0</ele><time>2026-03-29T13:22:18.939Z</time></trkpt><trkpt lat="45.689115" lon="8.6070167"><ele>273.0</ele><time>2026-03-29T13:22:19.939Z</time></trkpt><trkpt lat="45.6890333" lon="8.60712"><ele>271.75</ele><time>2026-03-29T13:22:20.939Z</time></trkpt><trkpt lat="45.6889533" lon="8.6072267"><ele>270.5</ele><time>2026-03-29T13:22:21.939Z</time></trkpt><trkpt lat="45.6888683" lon="8.6073367"><ele>269.25</ele><time>2026-03-29T13:22:22.939Z</time></trkpt><trkpt lat="45.6887817" lon="8.60745"><ele>268.0</ele><time>2026-03-29T13:22:23.939Z</time></trkpt><trkpt lat="45.6887017" lon="8.607565"><ele>268.0</ele><time>2026-03-29T13:22:24.939Z</time></trkpt><trkpt lat="45.6886267" lon="8.6076933"><ele>268.0</ele><time>2026-03-29T13:22:25.938Z</time></trkpt><trkpt lat="45.68855" lon="8.6078317"><ele>268.0</ele><time>2026-03-29T13:22:26.939Z</time></trkpt><trkpt lat="45.688485" lon="8.607975"><ele>268.0</ele><time>2026-03-29T13:22:27.939Z</time></trkpt><trkpt lat="45.6884267" lon="8.6081217"><ele>269.5</ele><time>2026-03-29T13:22:28.939Z</time></trkpt><trkpt lat="45.688375" lon="8.60827"><ele>271.0</ele><time>2026-03-29T13:22:29.939Z</time></trkpt><trkpt lat="45.68832" lon="8.6084317"><ele>272.5</ele><time>2026-03-29T13:22:30.938Z</time></trkpt><trkpt lat="45.6882633" lon="8.6085967"><ele>274.0</ele><time>2026-03-29T13:22:31.939Z</time></trkpt><trkpt lat="45.6882067" lon="8.6087617"><ele>274.25</ele><time>2026-03-29T13:22:32.938Z</time></trkpt><trkpt lat="45.6881533" lon="8.6089333"><ele>274.5</ele><time>2026-03-29T13:22:33.939Z</time></trkpt><trkpt lat="45.6881017" lon="8.60911"><ele>274.75</ele><time>2026-03-29T13:22:34.939Z</time></trkpt><trkpt lat="45.6880417" lon="8.609285"><ele>275.0</ele><time>2026-03-29T13:22:35.939Z</time></trkpt><trkpt lat="45.68798" lon="8.6094617"><ele>275.8</ele><time>2026-03-29T13:22:36.939Z</time></trkpt><trkpt lat="45.6879133" lon="8.609605"><ele>276.6</ele><time>2026-03-29T13:22:37.939Z</time></trkpt><trkpt lat="45.68784" lon="8.6097283"><ele>277.4</ele><time>2026-03-29T13:22:38.939Z</time></trkpt><trkpt lat="45.6877583" lon="8.6098283"><ele>278.2</ele><time>2026-03-29T13:22:39.939Z</time></trkpt><trkpt lat="45.6876733" lon="8.6099167"><ele>279.0</ele><time>2026-03-29T13:22:40.939Z</time></trkpt><trkpt lat="45.6875933" lon="8.6099783"><ele>279.59999999999997</ele><time>2026-03-29T13:22:41.939Z</time></trkpt><trkpt lat="45.6875" lon="8.6100267"><ele>280.2</ele><time>2026-03-29T13:22:42.939Z</time></trkpt><trkpt lat="45.6874033" lon="8.61005"><ele>280.79999999999995</ele><time>2026-03-29T13:22:43.939Z</time></trkpt><trkpt lat="45.6872967" lon="8.6100767"><ele>281.4</ele><time>2026-03-29T13:22:44.939Z</time></trkpt><trkpt lat="45.6871817" lon="8.610075"><ele>282.0</ele><time>2026-03-29T13:22:45.939Z</time></trkpt><trkpt lat="45.6870667" lon="8.610055"><ele>282.0</ele><time>2026-03-29T13:22:46.938Z</time></trkpt><trkpt lat="45.6869417" lon="8.6100233"><ele>282.0</ele><time>2026-03-29T13:22:47.938Z</time></trkpt><trkpt lat="45.6868083" lon="8.6099817"><ele>282.0</ele><time>2026-03-29T13:22:48.938Z</time></trkpt><trkpt lat="45.68668" lon="8.609935"><ele>282.0</ele><time>2026-03-29T13:22:49.938Z</time></trkpt><trkpt lat="45.6864317" lon="8.609835"><ele>283.5</ele><time>2026-03-29T13:22:51.938Z</time></trkpt><trkpt lat="45.6863" lon="8.6097883"><ele>285.0</ele><time>2026-03-29T13:22:52.938Z</time></trkpt><trkpt lat="45.6861667" lon="8.6097283"><ele>286.5</ele><time>2026-03-29T13:22:53.938Z</time></trkpt><trkpt lat="45.68602" lon="8.6096233"><ele>288.0</ele><time>2026-03-29T13:22:54.938Z</time></trkpt><trkpt lat="45.68587" lon="8.6095083"><ele>288.3333333333333</ele><time>2026-03-29T13:22:55.938Z</time></trkpt><trkpt lat="45.6857167" lon="8.6093917"><ele>288.66666666666663</ele><time>2026-03-29T13:22:56.938Z</time></trkpt><trkpt lat="45.6855617" lon="8.6092717"><ele>289.0</ele><time>2026-03-29T13:22:57.938Z</time></trkpt><trkpt lat="45.685395" lon="8.6091483"><ele>289.0</ele><time>2026-03-29T13:22:58.938Z</time></trkpt><trkpt lat="45.68523" lon="8.6090267"><ele>289.0</ele><time>2026-03-29T13:22:59.938Z</time></trkpt><trkpt lat="45.6850717" lon="8.60891"><ele>289.0</ele><time>2026-03-29T13:23:00.938Z</time></trkpt><trkpt lat="45.68492" lon="8.6087933"><ele>290.0</ele><time>2026-03-29T13:23:01.938Z</time></trkpt><trkpt lat="45.6846367" lon="8.6085717"><ele>291.0</ele><time>2026-03-29T13:23:03.938Z</time></trkpt><trkpt lat="45.6845017" lon="8.6084783"><ele>291.25</ele><time>2026-03-29T13:23:04.938Z</time></trkpt><trkpt lat="45.6843683" lon="8.6083833"><ele>291.5</ele><time>2026-03-29T13:23:05.938Z</time></trkpt><trkpt lat="45.6842317" lon="8.6082933"><ele>291.75</ele><time>2026-03-29T13:23:06.938Z</time></trkpt><trkpt lat="45.6841017" lon="8.6081867"><ele>292.0</ele><time>2026-03-29T13:23:07.938Z</time></trkpt><trkpt lat="45.6839717" lon="8.6080883"><ele>292.0</ele><time>2026-03-29T13:23:08.938Z</time></trkpt><trkpt lat="45.6838417" lon="8.6080017"><ele>292.0</ele><time>2026-03-29T13:23:09.938Z</time></trkpt><trkpt lat="45.6837117" lon="8.6079067"><ele>292.0</ele><time>2026-03-29T13:23:10.938Z</time></trkpt><trkpt lat="45.6835783" lon="8.6078133"><ele>292.0</ele><time>2026-03-29T13:23:11.938Z</time></trkpt><trkpt lat="45.68344" lon="8.6077167"><ele>291.5</ele><time>2026-03-29T13:23:12.937Z</time></trkpt><trkpt lat="45.6832933" lon="8.6076117"><ele>291.0</ele><time>2026-03-29T13:23:13.937Z</time></trkpt><trkpt lat="45.6830183" lon="8.6074033"><ele>291.0</ele><time>2026-03-29T13:23:15.938Z</time></trkpt><trkpt lat="45.6828917" lon="8.6073067"><ele>291.0</ele><time>2026-03-29T13:23:16.937Z</time></trkpt><trkpt lat="45.6827667" lon="8.6072283"><ele>291.0</ele><time>2026-03-29T13:23:17.938Z</time></trkpt><trkpt lat="45.6826367" lon="8.60717"><ele>291.0</ele><time>2026-03-29T13:23:18.938Z</time></trkpt><trkpt lat="45.6825167" lon="8.6071233"><ele>290.25</ele><time>2026-03-29T13:23:19.938Z</time></trkpt><trkpt lat="45.682405" lon="8.6070883"><ele>289.5</ele><time>2026-03-29T13:23:20.938Z</time></trkpt><trkpt lat="45.6822917" lon="8.6070683"><ele>288.75</ele><time>2026-03-29T13:23:21.938Z</time></trkpt><trkpt lat="45.6821733" lon="8.6070583"><ele>288.0</ele><time>2026-03-29T13:23:22.938Z</time></trkpt><trkpt lat="45.6820467" lon="8.6070583"><ele>288.25</ele><time>2026-03-29T13:23:23.938Z</time></trkpt><trkpt lat="45.6819183" lon="8.6070683"><ele>288.5</ele><time>2026-03-29T13:23:24.938Z</time></trkpt><trkpt lat="45.6817817" lon="8.60709"><ele>288.75</ele><time>2026-03-29T13:23:25.938Z</time></trkpt><trkpt lat="45.6816467" lon="8.6071283"><ele>289.0</ele><time>2026-03-29T13:23:26.938Z</time></trkpt><trkpt lat="45.6815233" lon="8.60718"><ele>289.0</ele><time>2026-03-29T13:23:27.938Z</time></trkpt><trkpt lat="45.6814" lon="8.6072333"><ele>289.0</ele><time>2026-03-29T13:23:28.938Z</time></trkpt><trkpt lat="45.6812767" lon="8.607295"><ele>289.0</ele><time>2026-03-29T13:23:29.938Z</time></trkpt><trkpt lat="45.68115" lon="8.6073583"><ele>289.0</ele><time>2026-03-29T13:23:30.938Z</time></trkpt><trkpt lat="45.6810267" lon="8.607425"><ele>289.25</ele><time>2026-03-29T13:23:31.937Z</time></trkpt><trkpt lat="45.6809133" lon="8.60748"><ele>289.5</ele><time>2026-03-29T13:23:32.938Z</time></trkpt><trkpt lat="45.6808" lon="8.607535"><ele>289.75</ele><time>2026-03-29T13:23:33.937Z</time></trkpt><trkpt lat="45.6806867" lon="8.6075917"><ele>290.0</ele><time>2026-03-29T13:23:34.938Z</time></trkpt><trkpt lat="45.680575" lon="8.6076417"><ele>290.0</ele><time>2026-03-29T13:23:35.938Z</time></trkpt><trkpt lat="45.680455" lon="8.6077067"><ele>290.0</ele><time>2026-03-29T13:23:36.938Z</time></trkpt><trkpt lat="45.680315" lon="8.607775"><ele>290.0</ele><time>2026-03-29T13:23:37.938Z</time></trkpt><trkpt lat="45.68016" lon="8.6078533"><ele>290.0</ele><time>2026-03-29T13:23:38.937Z</time></trkpt><trkpt lat="45.6799933" lon="8.607935"><ele>289.6666666666667</ele><time>2026-03-29T13:23:39.938Z</time></trkpt><trkpt lat="45.679815" lon="8.6080283"><ele>289.3333333333333</ele><time>2026-03-29T13:23:40.938Z</time></trkpt><trkpt lat="45.6796267" lon="8.60811"><ele>289.0</ele><time>2026-03-29T13:23:41.938Z</time></trkpt><trkpt lat="45.679425" lon="8.6082"><ele>289.0</ele><time>2026-03-29T13:23:42.938Z</time></trkpt><trkpt lat="45.679225" lon="8.6082833"><ele>289.0</ele><time>2026-03-29T13:23:43.938Z</time></trkpt><trkpt lat="45.6790267" lon="8.608385"><ele>289.0</ele><time>2026-03-29T13:23:44.938Z</time></trkpt><trkpt lat="45.67883" lon="8.6084817"><ele>289.0</ele><time>2026-03-29T13:23:45.938Z</time></trkpt><trkpt lat="45.6786317" lon="8.60858"><ele>289.0</ele><time>2026-03-29T13:23:46.938Z</time></trkpt><trkpt lat="45.6784217" lon="8.6086817"><ele>289.0</ele><time>2026-03-29T13:23:47.938Z</time></trkpt><trkpt lat="45.6782033" lon="8.6087817"><ele>289.0</ele><time>2026-03-29T13:23:48.938Z</time></trkpt><trkpt lat="45.6779933" lon="8.60889"><ele>289.0</ele><time>2026-03-29T13:23:49.938Z</time></trkpt><trkpt lat="45.6778017" lon="8.6089983"><ele>289.0</ele><time>2026-03-29T13:23:50.938Z</time></trkpt><trkpt lat="45.6776183" lon="8.6091133"><ele>291.0</ele><time>2026-03-29T13:23:51.938Z</time></trkpt><trkpt lat="45.677455" lon="8.6092417"><ele>293.0</ele><time>2026-03-29T13:23:52.938Z</time></trkpt><trkpt lat="45.6773067" lon="8.6093633"><ele>295.0</ele><time>2026-03-29T13:23:53.937Z</time></trkpt><trkpt lat="45.67717" lon="8.60947"><ele>293.5</ele><time>2026-03-29T13:23:54.938Z</time></trkpt><trkpt lat="45.677045" lon="8.6095617"><ele>292.0</ele><time>2026-03-29T13:23:55.938Z</time></trkpt><trkpt lat="45.6769167" lon="8.60963"><ele>290.5</ele><time>2026-03-29T13:23:56.938Z</time></trkpt><trkpt lat="45.676785" lon="8.6096567"><ele>289.0</ele><time>2026-03-29T13:23:57.938Z</time></trkpt><trkpt lat="45.6766583" lon="8.60965"><ele>291.4</ele><time>2026-03-29T13:23:58.938Z</time></trkpt><trkpt lat="45.6765483" lon="8.60966"><ele>293.79999999999995</ele><time>2026-03-29T13:23:59.937Z</time></trkpt><trkpt lat="45.6764583" lon="8.6097017"><ele>296.20000000000005</ele><time>2026-03-29T13:24:00.938Z</time></trkpt><trkpt lat="45.6764" lon="8.6098017"><ele>298.6</ele><time>2026-03-29T13:24:01.938Z</time></trkpt><trkpt lat="45.6763567" lon="8.60994"><ele>301.0</ele><time>2026-03-29T13:24:02.938Z</time></trkpt><trkpt lat="45.67632" lon="8.6100883"><ele>301.0</ele><time>2026-03-29T13:24:03.938Z</time></trkpt><trkpt lat="45.676245" lon="8.61023"><ele>301.0</ele><time>2026-03-29T13:24:04.938Z</time></trkpt><trkpt lat="45.676145" lon="8.6103583"><ele>301.0</ele><time>2026-03-29T13:24:05.938Z</time></trkpt><trkpt lat="45.6760283" lon="8.6104867"><ele>301.0</ele><time>2026-03-29T13:24:06.938Z</time></trkpt><trkpt lat="45.6759" lon="8.6106233"><ele>301.0</ele><time>2026-03-29T13:24:07.937Z</time></trkpt><trkpt lat="45.6757617" lon="8.610775"><ele>301.0</ele><time>2026-03-29T13:24:08.938Z</time></trkpt><trkpt lat="45.67562" lon="8.6109367"><ele>301.0</ele><time>2026-03-29T13:24:09.938Z</time></trkpt><trkpt lat="45.6755067" lon="8.6110933"><ele>301.5</ele><time>2026-03-29T13:24:10.938Z</time></trkpt><trkpt lat="45.6754017" lon="8.611235"><ele>302.0</ele><time>2026-03-29T13:24:11.938Z</time></trkpt><trkpt lat="45.6753083" lon="8.6113667"><ele>302.5</ele><time>2026-03-29T13:24:12.938Z</time></trkpt><trkpt lat="45.6752083" lon="8.611505"><ele>303.0</ele><time>2026-03-29T13:24:13.938Z</time></trkpt><trkpt lat="45.6751067" lon="8.6116333"><ele>303.0</ele><time>2026-03-29T13:24:14.938Z</time></trkpt><trkpt lat="45.6750017" lon="8.6117667"><ele>303.0</ele><time>2026-03-29T13:24:15.938Z</time></trkpt><trkpt lat="45.674895" lon="8.6119"><ele>303.0</ele><time>2026-03-29T13:24:16.937Z</time></trkpt><trkpt lat="45.6747967" lon="8.6120333"><ele>303.0</ele><time>2026-03-29T13:24:17.938Z</time></trkpt><trkpt lat="45.6746967" lon="8.6121667"><ele>302.75</ele><time>2026-03-29T13:24:18.938Z</time></trkpt><trkpt lat="45.6745917" lon="8.6123067"><ele>302.5</ele><time>2026-03-29T13:24:19.938Z</time></trkpt><trkpt lat="45.6744867" lon="8.6124567"><ele>302.25</ele><time>2026-03-29T13:24:20.938Z</time></trkpt><trkpt lat="45.6743767" lon="8.6126067"><ele>302.0</ele><time>2026-03-29T13:24:21.937Z</time></trkpt><trkpt lat="45.674265" lon="8.6127617"><ele>302.25</ele><time>2026-03-29T13:24:22.938Z</time></trkpt><trkpt lat="45.6741517" lon="8.6129033"><ele>302.5</ele><time>2026-03-29T13:24:23.938Z</time></trkpt><trkpt lat="45.6740417" lon="8.6130383"><ele>302.75</ele><time>2026-03-29T13:24:24.938Z</time></trkpt><trkpt lat="45.673935" lon="8.6131733"><ele>303.0</ele><time>2026-03-29T13:24:25.937Z</time></trkpt><trkpt lat="45.67382" lon="8.6133217"><ele>303.0</ele><time>2026-03-29T13:24:26.938Z</time></trkpt><trkpt lat="45.6737067" lon="8.6134717"><ele>303.0</ele><time>2026-03-29T13:24:27.938Z</time></trkpt><trkpt lat="45.6735717" lon="8.6136367"><ele>303.0</ele><time>2026-03-29T13:24:28.938Z</time></trkpt><trkpt lat="45.67342" lon="8.6138117"><ele>303.3333333333333</ele><time>2026-03-29T13:24:29.938Z</time></trkpt><trkpt lat="45.6732617" lon="8.61399"><ele>303.66666666666663</ele><time>2026-03-29T13:24:30.938Z</time></trkpt><trkpt lat="45.6731067" lon="8.614155"><ele>304.0</ele><time>2026-03-29T13:24:31.938Z</time></trkpt><trkpt lat="45.6729533" lon="8.6143117"><ele>304.0</ele><time>2026-03-29T13:24:32.938Z</time></trkpt><trkpt lat="45.672815" lon="8.6144533"><ele>304.0</ele><time>2026-03-29T13:24:33.938Z</time></trkpt><trkpt lat="45.6726833" lon="8.6145883"><ele>304.0</ele><time>2026-03-29T13:24:34.938Z</time></trkpt><trkpt lat="45.6725583" lon="8.6147133"><ele>304.66666666666663</ele><time>2026-03-29T13:24:35.938Z</time></trkpt><trkpt lat="45.6724517" lon="8.614835"><ele>305.3333333333333</ele><time>2026-03-29T13:24:36.938Z</time></trkpt><trkpt lat="45.672235" lon="8.61502"><ele>306.0</ele><time>2026-03-29T13:24:38.938Z</time></trkpt><trkpt lat="45.672125" lon="8.6150717"><ele>306.0</ele><time>2026-03-29T13:24:39.938Z</time></trkpt><trkpt lat="45.672015" lon="8.6151067"><ele>306.0</ele><time>2026-03-29T13:24:40.938Z</time></trkpt><trkpt lat="45.6719083" lon="8.615145"><ele>306.0</ele><time>2026-03-29T13:24:41.938Z</time></trkpt><trkpt lat="45.67181" lon="8.6152117"><ele>306.0</ele><time>2026-03-29T13:24:42.938Z</time></trkpt><trkpt lat="45.6717217" lon="8.61532"><ele>306.0</ele><time>2026-03-29T13:24:43.938Z</time></trkpt><trkpt lat="45.671645" lon="8.6154667"><ele>306.3333333333333</ele><time>2026-03-29T13:24:44.938Z</time></trkpt><trkpt lat="45.6715467" lon="8.6156267"><ele>306.66666666666663</ele><time>2026-03-29T13:24:45.938Z</time></trkpt><trkpt lat="45.6714267" lon="8.6157767"><ele>307.0</ele><time>2026-03-29T13:24:46.937Z</time></trkpt><trkpt lat="45.6712683" lon="8.61592"><ele>307.0</ele><time>2026-03-29T13:24:47.938Z</time></trkpt><trkpt lat="45.67111" lon="8.61606"><ele>307.0</ele><time>2026-03-29T13:24:48.937Z</time></trkpt><trkpt lat="45.6709483" lon="8.61619"><ele>307.0</ele><time>2026-03-29T13:24:49.938Z</time></trkpt><trkpt lat="45.670775" lon="8.6163133"><ele>306.66666666666663</ele><time>2026-03-29T13:24:50.938Z</time></trkpt><trkpt lat="45.670595" lon="8.61644"><ele>306.3333333333333</ele><time>2026-03-29T13:24:51.937Z</time></trkpt><trkpt lat="45.67041" lon="8.61657"><ele>306.0</ele><time>2026-03-29T13:24:52.938Z</time></trkpt><trkpt lat="45.6702383" lon="8.6167133"><ele>306.0</ele><time>2026-03-29T13:24:53.938Z</time></trkpt><trkpt lat="45.6700633" lon="8.616835"><ele>306.0</ele><time>2026-03-29T13:24:54.938Z</time></trkpt><trkpt lat="45.669905" lon="8.6169633"><ele>306.0</ele><time>2026-03-29T13:24:55.938Z</time></trkpt><trkpt lat="45.66975" lon="8.6170717"><ele>306.0</ele><time>2026-03-29T13:24:56.938Z</time></trkpt><trkpt lat="45.669605" lon="8.617175"><ele>306.0</ele><time>2026-03-29T13:24:57.938Z</time></trkpt><trkpt lat="45.6694683" lon="8.6172683"><ele>306.0</ele><time>2026-03-29T13:24:58.938Z</time></trkpt><trkpt lat="45.6693233" lon="8.6173417"><ele>305.75</ele><time>2026-03-29T13:24:59.938Z</time></trkpt><trkpt lat="45.669165" lon="8.6173867"><ele>305.5</ele><time>2026-03-29T13:25:00.938Z</time></trkpt><trkpt lat="45.6690217" lon="8.6174167"><ele>305.25</ele><time>2026-03-29T13:25:01.938Z</time></trkpt><trkpt lat="45.6688917" lon="8.6174367"><ele>305.0</ele><time>2026-03-29T13:25:02.937Z</time></trkpt><trkpt lat="45.6687667" lon="8.6174333"><ele>305.0</ele><time>2026-03-29T13:25:03.937Z</time></trkpt><trkpt lat="45.6686567" lon="8.6174017"><ele>305.0</ele><time>2026-03-29T13:25:04.938Z</time></trkpt><trkpt lat="45.6685567" lon="8.6173583"><ele>305.0</ele><time>2026-03-29T13:25:05.938Z</time></trkpt><trkpt lat="45.6684667" lon="8.6173467"><ele>305.0</ele><time>2026-03-29T13:25:06.938Z</time></trkpt><trkpt lat="45.6683917" lon="8.6173683"><ele>305.0</ele><time>2026-03-29T13:25:07.938Z</time></trkpt><trkpt lat="45.6683283" lon="8.6174367"><ele>304.2</ele><time>2026-03-29T13:25:08.938Z</time></trkpt><trkpt lat="45.66829" lon="8.6175417"><ele>303.4</ele><time>2026-03-29T13:25:09.938Z</time></trkpt><trkpt lat="45.6682517" lon="8.617685"><ele>302.6</ele><time>2026-03-29T13:25:10.938Z</time></trkpt><trkpt lat="45.6681933" lon="8.6178083"><ele>301.8</ele><time>2026-03-29T13:25:11.938Z</time></trkpt><trkpt lat="45.668105" lon="8.6179083"><ele>301.0</ele><time>2026-03-29T13:25:12.938Z</time></trkpt><trkpt lat="45.6679867" lon="8.6179733"><ele>301.0</ele><time>2026-03-29T13:25:13.938Z</time></trkpt><trkpt lat="45.6678483" lon="8.6180283"><ele>301.0</ele><time>2026-03-29T13:25:14.938Z</time></trkpt><trkpt lat="45.6676917" lon="8.6180617"><ele>301.0</ele><time>2026-03-29T13:25:15.938Z</time></trkpt><trkpt lat="45.6675217" lon="8.6180933"><ele>300.66666666666663</ele><time>2026-03-29T13:25:16.938Z</time></trkpt><trkpt lat="45.667345" lon="8.6181083"><ele>300.3333333333333</ele><time>2026-03-29T13:25:17.937Z</time></trkpt><trkpt lat="45.667175" lon="8.6181233"><ele>300.0</ele><time>2026-03-29T13:25:18.938Z</time></trkpt><trkpt lat="45.6669933" lon="8.618145"><ele>298.3333333333333</ele><time>2026-03-29T13:25:19.938Z</time></trkpt><trkpt lat="45.6668" lon="8.6181733"><ele>296.66666666666663</ele><time>2026-03-29T13:25:20.938Z</time></trkpt><trkpt lat="45.6666017" lon="8.6181933"><ele>295.0</ele><time>2026-03-29T13:25:21.938Z</time></trkpt><trkpt lat="45.666405" lon="8.6182133"><ele>295.0</ele><time>2026-03-29T13:25:22.938Z</time></trkpt><trkpt lat="45.6662033" lon="8.6182267"><ele>295.0</ele><time>2026-03-29T13:25:23.938Z</time></trkpt><trkpt lat="45.66601" lon="8.61825"><ele>295.0</ele><time>2026-03-29T13:25:24.938Z</time></trkpt><trkpt lat="45.6658117" lon="8.6182717"><ele>294.66666666666663</ele><time>2026-03-29T13:25:25.937Z</time></trkpt><trkpt lat="45.66561" lon="8.6182967"><ele>294.3333333333333</ele><time>2026-03-29T13:25:26.938Z</time></trkpt><trkpt lat="45.665415" lon="8.6183233"><ele>294.0</ele><time>2026-03-29T13:25:27.938Z</time></trkpt><trkpt lat="45.665235" lon="8.6183467"><ele>294.5</ele><time>2026-03-29T13:25:28.938Z</time></trkpt><trkpt lat="45.6650767" lon="8.618365"><ele>295.0</ele><time>2026-03-29T13:25:29.938Z</time></trkpt><trkpt lat="45.6649433" lon="8.6183783"><ele>295.5</ele><time>2026-03-29T13:25:30.938Z</time></trkpt><trkpt lat="45.6648333" lon="8.6183833"><ele>296.0</ele><time>2026-03-29T13:25:31.938Z</time></trkpt><trkpt lat="45.6647533" lon="8.618385"><ele>296.0</ele><time>2026-03-29T13:25:32.938Z</time></trkpt><trkpt lat="45.664685" lon="8.618365"><ele>296.0</ele><time>2026-03-29T13:25:33.937Z</time></trkpt><trkpt lat="45.6646017" lon="8.6183333"><ele>296.0</ele><time>2026-03-29T13:25:34.938Z</time></trkpt><trkpt lat="45.66451" lon="8.6183017"><ele>296.0</ele><time>2026-03-29T13:25:35.938Z</time></trkpt><trkpt lat="45.664405" lon="8.6183133"><ele>296.0</ele><time>2026-03-29T13:25:36.938Z</time></trkpt><trkpt lat="45.6642917" lon="8.6183817"><ele>295.75</ele><time>2026-03-29T13:25:37.938Z</time></trkpt><trkpt lat="45.66417" lon="8.6184583"><ele>295.5</ele><time>2026-03-29T13:25:38.938Z</time></trkpt><trkpt lat="45.6640217" lon="8.618495"><ele>295.25</ele><time>2026-03-29T13:25:39.938Z</time></trkpt><trkpt lat="45.6638583" lon="8.61851"><ele>295.0</ele><time>2026-03-29T13:25:40.938Z</time></trkpt><trkpt lat="45.66367" lon="8.618515"><ele>294.66666666666663</ele><time>2026-03-29T13:25:41.938Z</time></trkpt><trkpt lat="45.6634717" lon="8.6185267"><ele>294.3333333333333</ele><time>2026-03-29T13:25:42.938Z</time></trkpt><trkpt lat="45.6632633" lon="8.61854"><ele>294.0</ele><time>2026-03-29T13:25:43.938Z</time></trkpt><trkpt lat="45.6630517" lon="8.6185583"><ele>294.0</ele><time>2026-03-29T13:25:44.938Z</time></trkpt><trkpt lat="45.6628317" lon="8.6185767"><ele>294.0</ele><time>2026-03-29T13:25:45.938Z</time></trkpt><trkpt lat="45.6626" lon="8.6185933"><ele>294.5</ele><time>2026-03-29T13:25:46.938Z</time></trkpt><trkpt lat="45.6623633" lon="8.6186117"><ele>295.0</ele><time>2026-03-29T13:25:47.938Z</time></trkpt><trkpt lat="45.6621283" lon="8.61863"><ele>297.5</ele><time>2026-03-29T13:25:48.938Z</time></trkpt><trkpt lat="45.66189" lon="8.61865"><ele>300.0</ele><time>2026-03-29T13:25:49.937Z</time></trkpt><trkpt lat="45.6616467" lon="8.61867"><ele>295.0</ele><time>2026-03-29T13:25:50.938Z</time></trkpt><trkpt lat="45.6613983" lon="8.6186917"><ele>290.0</ele><time>2026-03-29T13:25:51.938Z</time></trkpt><trkpt lat="45.6611533" lon="8.6187117"><ele>293.0</ele><time>2026-03-29T13:25:52.938Z</time></trkpt><trkpt lat="45.6609017" lon="8.61873"><ele>296.0</ele><time>2026-03-29T13:25:53.938Z</time></trkpt><trkpt lat="45.6606533" lon="8.6187483"><ele>296.0</ele><time>2026-03-29T13:25:54.938Z</time></trkpt><trkpt lat="45.6604" lon="8.6187767"><ele>296.0</ele><time>2026-03-29T13:25:55.938Z</time></trkpt><trkpt lat="45.660145" lon="8.6188033"><ele>296.5</ele><time>2026-03-29T13:25:56.938Z</time></trkpt><trkpt lat="45.6598867" lon="8.61882"><ele>297.0</ele><time>2026-03-29T13:25:57.938Z</time></trkpt><trkpt lat="45.6596283" lon="8.6188433"><ele>296.5</ele><time>2026-03-29T13:25:58.938Z</time></trkpt><trkpt lat="45.6593717" lon="8.6188683"><ele>296.0</ele><time>2026-03-29T13:25:59.937Z</time></trkpt><trkpt lat="45.6591083" lon="8.6188883"><ele>296.0</ele><time>2026-03-29T13:26:00.936Z</time></trkpt><trkpt lat="45.6588367" lon="8.6189017"><ele>296.0</ele><time>2026-03-29T13:26:01.937Z</time></trkpt><trkpt lat="45.6585633" lon="8.6188983"><ele>295.5</ele><time>2026-03-29T13:26:02.937Z</time></trkpt><trkpt lat="45.658295" lon="8.6188817"><ele>295.0</ele><time>2026-03-29T13:26:03.937Z</time></trkpt><trkpt lat="45.658025" lon="8.6188483"><ele>294.0</ele><time>2026-03-29T13:26:04.937Z</time></trkpt><trkpt lat="45.6577667" lon="8.6188217"><ele>293.0</ele><time>2026-03-29T13:26:05.937Z</time></trkpt><trkpt lat="45.6574967" lon="8.6188"><ele>293.0</ele><time>2026-03-29T13:26:06.936Z</time></trkpt><trkpt lat="45.6572333" lon="8.6187617"><ele>293.0</ele><time>2026-03-29T13:26:07.937Z</time></trkpt><trkpt lat="45.6569617" lon="8.6187217"><ele>292.5</ele><time>2026-03-29T13:26:08.937Z</time></trkpt><trkpt lat="45.656695" lon="8.6186833"><ele>292.0</ele><time>2026-03-29T13:26:09.937Z</time></trkpt><trkpt lat="45.6564233" lon="8.6186483"><ele>294.0</ele><time>2026-03-29T13:26:10.937Z</time></trkpt><trkpt lat="45.6558817" lon="8.618575"><ele>294.0</ele><time>2026-03-29T13:26:12.937Z</time></trkpt><trkpt lat="45.6556167" lon="8.6185417"><ele>294.0</ele><time>2026-03-29T13:26:13.937Z</time></trkpt><trkpt lat="45.6553617" lon="8.61851"><ele>294.0</ele><time>2026-03-29T13:26:14.937Z</time></trkpt><trkpt lat="45.65512" lon="8.61848"><ele>294.0</ele><time>2026-03-29T13:26:15.937Z</time></trkpt><trkpt lat="45.6548917" lon="8.6184467"><ele>294.0</ele><time>2026-03-29T13:26:16.937Z</time></trkpt><trkpt lat="45.654675" lon="8.6184217"><ele>294.0</ele><time>2026-03-29T13:26:17.937Z</time></trkpt><trkpt lat="45.6544617" lon="8.618415"><ele>294.0</ele><time>2026-03-29T13:26:18.937Z</time></trkpt><trkpt lat="45.6542583" lon="8.6184167"><ele>293.6666666666667</ele><time>2026-03-29T13:26:19.937Z</time></trkpt><trkpt lat="45.6540483" lon="8.6184283"><ele>293.33333333333337</ele><time>2026-03-29T13:26:20.937Z</time></trkpt><trkpt lat="45.6538383" lon="8.6184467"><ele>293.0</ele><time>2026-03-29T13:26:21.937Z</time></trkpt><trkpt lat="45.6536233" lon="8.6184783"><ele>292.0</ele><time>2026-03-29T13:26:22.937Z</time></trkpt><trkpt lat="45.6534067" lon="8.61851"><ele>291.0</ele><time>2026-03-29T13:26:23.937Z</time></trkpt><trkpt lat="45.6531967" lon="8.6185517"><ele>290.0</ele><time>2026-03-29T13:26:24.937Z</time></trkpt><trkpt lat="45.6530167" lon="8.6185833"><ele>290.0</ele><time>2026-03-29T13:26:25.937Z</time></trkpt><trkpt lat="45.65286" lon="8.6186133"><ele>290.0</ele><time>2026-03-29T13:26:26.937Z</time></trkpt><trkpt lat="45.6527283" lon="8.6186233"><ele>290.0</ele><time>2026-03-29T13:26:27.937Z</time></trkpt><trkpt lat="45.6526183" lon="8.6186067"><ele>290.0</ele><time>2026-03-29T13:26:28.937Z</time></trkpt><trkpt lat="45.6525117" lon="8.6185667"><ele>290.4</ele><time>2026-03-29T13:26:29.937Z</time></trkpt><trkpt lat="45.6524117" lon="8.618485"><ele>290.8</ele><time>2026-03-29T13:26:30.937Z</time></trkpt><trkpt lat="45.652315" lon="8.6183883"><ele>291.2</ele><time>2026-03-29T13:26:31.937Z</time></trkpt><trkpt lat="45.65223" lon="8.6183133"><ele>291.6</ele><time>2026-03-29T13:26:32.937Z</time></trkpt><trkpt lat="45.6521333" lon="8.6182867"><ele>292.0</ele><time>2026-03-29T13:26:33.937Z</time></trkpt><trkpt lat="45.6520467" lon="8.6183167"><ele>292.0</ele><time>2026-03-29T13:26:34.937Z</time></trkpt><trkpt lat="45.6519583" lon="8.6183967"><ele>292.0</ele><time>2026-03-29T13:26:35.937Z</time></trkpt><trkpt lat="45.65187" lon="8.6185017"><ele>292.0</ele><time>2026-03-29T13:26:36.937Z</time></trkpt><trkpt lat="45.6517667" lon="8.6185983"><ele>292.0</ele><time>2026-03-29T13:26:37.937Z</time></trkpt><trkpt lat="45.65165" lon="8.6186567"><ele>289.66666666666663</ele><time>2026-03-29T13:26:38.937Z</time></trkpt><trkpt lat="45.6514967" lon="8.6186967"><ele>287.3333333333333</ele><time>2026-03-29T13:26:39.937Z</time></trkpt><trkpt lat="45.651325" lon="8.61873"><ele>285.0</ele><time>2026-03-29T13:26:40.937Z</time></trkpt><trkpt lat="45.6511317" lon="8.6187583"><ele>284.6666666666667</ele><time>2026-03-29T13:26:41.936Z</time></trkpt><trkpt lat="45.6509317" lon="8.6187783"><ele>284.33333333333337</ele><time>2026-03-29T13:26:42.936Z</time></trkpt><trkpt lat="45.650715" lon="8.6187983"><ele>284.0</ele><time>2026-03-29T13:26:43.937Z</time></trkpt><trkpt lat="45.65049" lon="8.618815"><ele>285.0</ele><time>2026-03-29T13:26:44.937Z</time></trkpt><trkpt lat="45.6502633" lon="8.618835"><ele>286.0</ele><time>2026-03-29T13:26:45.937Z</time></trkpt><trkpt lat="45.650025" lon="8.6188617"><ele>286.0</ele><time>2026-03-29T13:26:46.937Z</time></trkpt><trkpt lat="45.64978" lon="8.61888"><ele>286.0</ele><time>2026-03-29T13:26:47.937Z</time></trkpt><trkpt lat="45.6495383" lon="8.61891"><ele>285.66666666666663</ele><time>2026-03-29T13:26:48.936Z</time></trkpt><trkpt lat="45.6493067" lon="8.6189433"><ele>285.3333333333333</ele><time>2026-03-29T13:26:49.937Z</time></trkpt><trkpt lat="45.649095" lon="8.618985"><ele>285.0</ele><time>2026-03-29T13:26:50.937Z</time></trkpt><trkpt lat="45.648895" lon="8.6190283"><ele>285.0</ele><time>2026-03-29T13:26:51.937Z</time></trkpt><trkpt lat="45.6487017" lon="8.619085"><ele>285.0</ele><time>2026-03-29T13:26:52.937Z</time></trkpt><trkpt lat="45.6485067" lon="8.6191567"><ele>285.0</ele><time>2026-03-29T13:26:53.937Z</time></trkpt><trkpt lat="45.6483033" lon="8.6192483"><ele>285.0</ele><time>2026-03-29T13:26:54.937Z</time></trkpt><trkpt lat="45.6481" lon="8.61934"><ele>285.0</ele><time>2026-03-29T13:26:55.937Z</time></trkpt><trkpt lat="45.6479" lon="8.6194317"><ele>285.0</ele><time>2026-03-29T13:26:56.937Z</time></trkpt><trkpt lat="45.647705" lon="8.6195267"><ele>285.0</ele><time>2026-03-29T13:26:57.937Z</time></trkpt><trkpt lat="45.6475267" lon="8.6196183"><ele>285.0</ele><time>2026-03-29T13:26:58.937Z</time></trkpt><trkpt lat="45.64736" lon="8.6196983"><ele>285.0</ele><time>2026-03-29T13:26:59.937Z</time></trkpt><trkpt lat="45.6471883" lon="8.6197883"><ele>285.0</ele><time>2026-03-29T13:27:00.937Z</time></trkpt><trkpt lat="45.6470183" lon="8.6198717"><ele>285.0</ele><time>2026-03-29T13:27:01.937Z</time></trkpt><trkpt lat="45.64684" lon="8.6199617"><ele>285.0</ele><time>2026-03-29T13:27:02.937Z</time></trkpt><trkpt lat="45.6466617" lon="8.6200467"><ele>285.0</ele><time>2026-03-29T13:27:03.937Z</time></trkpt><trkpt lat="45.6464833" lon="8.6201317"><ele>285.0</ele><time>2026-03-29T13:27:04.937Z</time></trkpt><trkpt lat="45.646305" lon="8.6202283"><ele>285.0</ele><time>2026-03-29T13:27:05.937Z</time></trkpt><trkpt lat="45.6461233" lon="8.6203167"><ele>284.3333333333333</ele><time>2026-03-29T13:27:06.937Z</time></trkpt><trkpt lat="45.6459433" lon="8.6204033"><ele>283.66666666666663</ele><time>2026-03-29T13:27:07.937Z</time></trkpt><trkpt lat="45.6457567" lon="8.6204933"><ele>283.0</ele><time>2026-03-29T13:27:08.937Z</time></trkpt><trkpt lat="45.6455683" lon="8.6205817"><ele>283.0</ele><time>2026-03-29T13:27:09.937Z</time></trkpt><trkpt lat="45.6453933" lon="8.6206633"><ele>283.0</ele><time>2026-03-29T13:27:10.937Z</time></trkpt><trkpt lat="45.64522" lon="8.620745"><ele>283.0</ele><time>2026-03-29T13:27:11.936Z</time></trkpt><trkpt lat="45.6450567" lon="8.6208217"><ele>282.0</ele><time>2026-03-29T13:27:12.937Z</time></trkpt><trkpt lat="45.6449033" lon="8.6208867"><ele>281.0</ele><time>2026-03-29T13:27:13.937Z</time></trkpt><trkpt lat="45.644765" lon="8.6209367"><ele>280.0</ele><time>2026-03-29T13:27:14.937Z</time></trkpt><trkpt lat="45.6446217" lon="8.62098"><ele>279.0</ele><time>2026-03-29T13:27:15.937Z</time></trkpt><trkpt lat="45.6444883" lon="8.62101"><ele>278.59999999999997</ele><time>2026-03-29T13:27:16.937Z</time></trkpt><trkpt lat="45.6443617" lon="8.6210367"><ele>278.2</ele><time>2026-03-29T13:27:17.937Z</time></trkpt><trkpt lat="45.6442517" lon="8.6210633"><ele>277.79999999999995</ele><time>2026-03-29T13:27:18.937Z</time></trkpt><trkpt lat="45.6441583" lon="8.6210667"><ele>277.4</ele><time>2026-03-29T13:27:19.937Z</time></trkpt><trkpt lat="45.6440667" lon="8.6210617"><ele>277.0</ele><time>2026-03-29T13:27:20.937Z</time></trkpt><trkpt lat="45.6439767" lon="8.6210267"><ele>277.0</ele><time>2026-03-29T13:27:21.937Z</time></trkpt><trkpt lat="45.6438833" lon="8.620975"><ele>277.0</ele><time>2026-03-29T13:27:22.937Z</time></trkpt><trkpt lat="45.643785" lon="8.62092"><ele>277.0</ele><time>2026-03-29T13:27:23.937Z</time></trkpt><trkpt lat="45.6436917" lon="8.6209217"><ele>277.0</ele><time>2026-03-29T13:27:24.937Z</time></trkpt><trkpt lat="45.6436067" lon="8.6209683"><ele>277.0</ele><time>2026-03-29T13:27:25.936Z</time></trkpt><trkpt lat="45.6435233" lon="8.62106"><ele>276.25</ele><time>2026-03-29T13:27:26.937Z</time></trkpt><trkpt lat="45.6434267" lon="8.621165"><ele>275.5</ele><time>2026-03-29T13:27:27.937Z</time></trkpt><trkpt lat="45.643315" lon="8.621255"><ele>274.75</ele><time>2026-03-29T13:27:28.937Z</time></trkpt><trkpt lat="45.6431833" lon="8.6213167"><ele>274.0</ele><time>2026-03-29T13:27:29.937Z</time></trkpt><trkpt lat="45.64304" lon="8.621345"><ele>274.0</ele><time>2026-03-29T13:27:30.936Z</time></trkpt><trkpt lat="45.6428817" lon="8.621365"><ele>274.0</ele><time>2026-03-29T13:27:31.937Z</time></trkpt><trkpt lat="45.642725" lon="8.621385"><ele>274.0</ele><time>2026-03-29T13:27:32.937Z</time></trkpt><trkpt lat="45.64257" lon="8.6214133"><ele>273.66666666666663</ele><time>2026-03-29T13:27:33.937Z</time></trkpt><trkpt lat="45.6424183" lon="8.6214383"><ele>273.3333333333333</ele><time>2026-03-29T13:27:34.937Z</time></trkpt><trkpt lat="45.64225" lon="8.6214667"><ele>273.0</ele><time>2026-03-29T13:27:35.937Z</time></trkpt><trkpt lat="45.6420833" lon="8.6214933"><ele>273.3333333333333</ele><time>2026-03-29T13:27:36.937Z</time></trkpt><trkpt lat="45.641925" lon="8.6215133"><ele>273.66666666666663</ele><time>2026-03-29T13:27:37.937Z</time></trkpt><trkpt lat="45.6417683" lon="8.6215433"><ele>274.0</ele><time>2026-03-29T13:27:38.937Z</time></trkpt><trkpt lat="45.6416167" lon="8.62157"><ele>274.0</ele><time>2026-03-29T13:27:39.937Z</time></trkpt><trkpt lat="45.6414583" lon="8.6215917"><ele>274.0</ele><time>2026-03-29T13:27:40.937Z</time></trkpt><trkpt lat="45.6412967" lon="8.621625"><ele>274.0</ele><time>2026-03-29T13:27:41.937Z</time></trkpt><trkpt lat="45.64113" lon="8.62165"><ele>273.3333333333333</ele><time>2026-03-29T13:27:42.937Z</time></trkpt><trkpt lat="45.6409633" lon="8.6216733"><ele>272.6666666666667</ele><time>2026-03-29T13:27:43.937Z</time></trkpt><trkpt lat="45.64079" lon="8.6216967"><ele>272.0</ele><time>2026-03-29T13:27:44.937Z</time></trkpt><trkpt lat="45.640615" lon="8.6217183"><ele>272.0</ele><time>2026-03-29T13:27:45.937Z</time></trkpt><trkpt lat="45.64044" lon="8.621755"><ele>272.0</ele><time>2026-03-29T13:27:46.937Z</time></trkpt><trkpt lat="45.6402717" lon="8.6217833"><ele>272.0</ele><time>2026-03-29T13:27:47.937Z</time></trkpt><trkpt lat="45.6400933" lon="8.6218183"><ele>270.6666666666667</ele><time>2026-03-29T13:27:48.937Z</time></trkpt><trkpt lat="45.63993" lon="8.6218383"><ele>269.3333333333333</ele><time>2026-03-29T13:27:49.937Z</time></trkpt><trkpt lat="45.6397533" lon="8.6218667"><ele>268.0</ele><time>2026-03-29T13:27:50.937Z</time></trkpt><trkpt lat="45.639575" lon="8.6218917"><ele>267.66666666666663</ele><time>2026-03-29T13:27:51.937Z</time></trkpt><trkpt lat="45.63939" lon="8.6219217"><ele>267.3333333333333</ele><time>2026-03-29T13:27:52.937Z</time></trkpt><trkpt lat="45.6392017" lon="8.6219517"><ele>267.0</ele><time>2026-03-29T13:27:53.937Z</time></trkpt><trkpt lat="45.6390083" lon="8.6219883"><ele>266.6666666666667</ele><time>2026-03-29T13:27:54.937Z</time></trkpt><trkpt lat="45.6388117" lon="8.622015"><ele>266.33333333333337</ele><time>2026-03-29T13:27:55.937Z</time></trkpt><trkpt lat="45.6386233" lon="8.6220383"><ele>266.0</ele><time>2026-03-29T13:27:56.937Z</time></trkpt><trkpt lat="45.6384333" lon="8.6220717"><ele>267.0</ele><time>2026-03-29T13:27:57.937Z</time></trkpt><trkpt lat="45.6382533" lon="8.6221017"><ele>268.0</ele><time>2026-03-29T13:27:58.937Z</time></trkpt><trkpt lat="45.6380867" lon="8.6221283"><ele>269.0</ele><time>2026-03-29T13:27:59.937Z</time></trkpt><trkpt lat="45.6379133" lon="8.6221633"><ele>268.6666666666667</ele><time>2026-03-29T13:28:00.937Z</time></trkpt><trkpt lat="45.637755" lon="8.62218"><ele>268.3333333333333</ele><time>2026-03-29T13:28:01.936Z</time></trkpt><trkpt lat="45.6375983" lon="8.6222067"><ele>268.0</ele><time>2026-03-29T13:28:02.937Z</time></trkpt><trkpt lat="45.63744" lon="8.62224"><ele>268.0</ele><time>2026-03-29T13:28:03.936Z</time></trkpt><trkpt lat="45.637265" lon="8.6222767"><ele>268.0</ele><time>2026-03-29T13:28:04.937Z</time></trkpt><trkpt lat="45.6370883" lon="8.6223017"><ele>268.0</ele><time>2026-03-29T13:28:05.937Z</time></trkpt><trkpt lat="45.6369033" lon="8.62233"><ele>266.3333333333333</ele><time>2026-03-29T13:28:06.937Z</time></trkpt><trkpt lat="45.636715" lon="8.622355"><ele>264.6666666666667</ele><time>2026-03-29T13:28:07.937Z</time></trkpt><trkpt lat="45.6365183" lon="8.6223867"><ele>263.0</ele><time>2026-03-29T13:28:08.937Z</time></trkpt><trkpt lat="45.6363117" lon="8.6224167"><ele>262.0</ele><time>2026-03-29T13:28:09.937Z</time></trkpt><trkpt lat="45.6361" lon="8.6224433"><ele>261.0</ele><time>2026-03-29T13:28:10.937Z</time></trkpt><trkpt lat="45.6358883" lon="8.6224733"><ele>260.0</ele><time>2026-03-29T13:28:11.937Z</time></trkpt><trkpt lat="45.6356783" lon="8.6225133"><ele>260.0</ele><time>2026-03-29T13:28:12.937Z</time></trkpt><trkpt lat="45.63547" lon="8.6225483"><ele>260.0</ele><time>2026-03-29T13:28:13.937Z</time></trkpt><trkpt lat="45.6352633" lon="8.622585"><ele>260.0</ele><time>2026-03-29T13:28:14.937Z</time></trkpt><trkpt lat="45.6350517" lon="8.6226183"><ele>259.6666666666667</ele><time>2026-03-29T13:28:15.936Z</time></trkpt><trkpt lat="45.63484" lon="8.6226533"><ele>259.3333333333333</ele><time>2026-03-29T13:28:16.937Z</time></trkpt><trkpt lat="45.6346217" lon="8.6226883"><ele>259.0</ele><time>2026-03-29T13:28:17.937Z</time></trkpt><trkpt lat="45.6344017" lon="8.6227233"><ele>259.0</ele><time>2026-03-29T13:28:18.937Z</time></trkpt><trkpt lat="45.63418" lon="8.6227633"><ele>259.0</ele><time>2026-03-29T13:28:19.937Z</time></trkpt><trkpt lat="45.6339567" lon="8.622795"><ele>259.0</ele><time>2026-03-29T13:28:20.937Z</time></trkpt><trkpt lat="45.6337383" lon="8.622825"><ele>259.0</ele><time>2026-03-29T13:28:21.937Z</time></trkpt><trkpt lat="45.633515" lon="8.6228617"><ele>259.0</ele><time>2026-03-29T13:28:22.937Z</time></trkpt><trkpt lat="45.633295" lon="8.6228967"><ele>259.0</ele><time>2026-03-29T13:28:23.937Z</time></trkpt><trkpt lat="45.6330683" lon="8.622935"><ele>259.0</ele><time>2026-03-29T13:28:24.937Z</time></trkpt><trkpt lat="45.632845" lon="8.6229667"><ele>259.0</ele><time>2026-03-29T13:28:25.937Z</time></trkpt><trkpt lat="45.6326217" lon="8.6230083"><ele>257.0</ele><time>2026-03-29T13:28:26.937Z</time></trkpt><trkpt lat="45.6324" lon="8.6230467"><ele>255.0</ele><time>2026-03-29T13:28:27.937Z</time></trkpt><trkpt lat="45.632175" lon="8.623085"><ele>254.0</ele><time>2026-03-29T13:28:28.936Z</time></trkpt><trkpt lat="45.6319483" lon="8.6231267"><ele>253.0</ele><time>2026-03-29T13:28:29.937Z</time></trkpt><trkpt lat="45.631725" lon="8.6231583"><ele>253.0</ele><time>2026-03-29T13:28:30.937Z</time></trkpt><trkpt lat="45.6315067" lon="8.6231883"><ele>253.0</ele><time>2026-03-29T13:28:31.937Z</time></trkpt><trkpt lat="45.6312817" lon="8.6232233"><ele>253.0</ele><time>2026-03-29T13:28:32.937Z</time></trkpt><trkpt lat="45.631065" lon="8.6232583"><ele>253.66666666666666</ele><time>2026-03-29T13:28:33.937Z</time></trkpt><trkpt lat="45.6308533" lon="8.623295"><ele>254.33333333333331</ele><time>2026-03-29T13:28:34.937Z</time></trkpt><trkpt lat="45.630645" lon="8.62333"><ele>255.0</ele><time>2026-03-29T13:28:35.937Z</time></trkpt><trkpt lat="45.630435" lon="8.623365"><ele>255.66666666666669</ele><time>2026-03-29T13:28:36.937Z</time></trkpt><trkpt lat="45.6302283" lon="8.6234017"><ele>256.33333333333337</ele><time>2026-03-29T13:28:37.937Z</time></trkpt><trkpt lat="45.6300317" lon="8.6234317"><ele>257.0</ele><time>2026-03-29T13:28:38.937Z</time></trkpt><trkpt lat="45.6298367" lon="8.6234667"><ele>257.0</ele><time>2026-03-29T13:28:39.937Z</time></trkpt><trkpt lat="45.62964" lon="8.6234933"><ele>257.0</ele><time>2026-03-29T13:28:40.937Z</time></trkpt><trkpt lat="45.6294467" lon="8.6235233"><ele>257.0</ele><time>2026-03-29T13:28:41.937Z</time></trkpt><trkpt lat="45.6292483" lon="8.6235567"><ele>256.33333333333337</ele><time>2026-03-29T13:28:42.937Z</time></trkpt><trkpt lat="45.6290517" lon="8.62359"><ele>255.66666666666669</ele><time>2026-03-29T13:28:43.936Z</time></trkpt><trkpt lat="45.6288567" lon="8.6236167"><ele>255.0</ele><time>2026-03-29T13:28:44.937Z</time></trkpt><trkpt lat="45.6286517" lon="8.6236533"><ele>254.0</ele><time>2026-03-29T13:28:45.937Z</time></trkpt><trkpt lat="45.6284517" lon="8.6236833"><ele>253.0</ele><time>2026-03-29T13:28:46.937Z</time></trkpt><trkpt lat="45.62825" lon="8.623715"><ele>252.0</ele><time>2026-03-29T13:28:47.937Z</time></trkpt><trkpt lat="45.6280467" lon="8.62375"><ele>252.0</ele><time>2026-03-29T13:28:48.937Z</time></trkpt><trkpt lat="45.6278433" lon="8.6237817"><ele>252.0</ele><time>2026-03-29T13:28:49.937Z</time></trkpt><trkpt lat="45.6276333" lon="8.623815"><ele>252.0</ele><time>2026-03-29T13:28:50.937Z</time></trkpt><trkpt lat="45.6274233" lon="8.6238533"><ele>252.0</ele><time>2026-03-29T13:28:51.937Z</time></trkpt><trkpt lat="45.6272183" lon="8.6238867"><ele>252.0</ele><time>2026-03-29T13:28:52.937Z</time></trkpt><trkpt lat="45.6270167" lon="8.6239167"><ele>252.0</ele><time>2026-03-29T13:28:53.937Z</time></trkpt><trkpt lat="45.6268267" lon="8.623945"><ele>252.0</ele><time>2026-03-29T13:28:54.937Z</time></trkpt><trkpt lat="45.6266467" lon="8.623975"><ele>252.0</ele><time>2026-03-29T13:28:55.937Z</time></trkpt><trkpt lat="45.6264683" lon="8.6240033"><ele>252.0</ele><time>2026-03-29T13:28:56.936Z</time></trkpt><trkpt lat="45.6263067" lon="8.6240333"><ele>252.0</ele><time>2026-03-29T13:28:57.937Z</time></trkpt><trkpt lat="45.6261533" lon="8.62405"><ele>252.0</ele><time>2026-03-29T13:28:58.936Z</time></trkpt><trkpt lat="45.626005" lon="8.6240667"><ele>252.0</ele><time>2026-03-29T13:28:59.937Z</time></trkpt><trkpt lat="45.6258583" lon="8.62409"><ele>252.0</ele><time>2026-03-29T13:29:00.936Z</time></trkpt><trkpt lat="45.6257083" lon="8.6241183"><ele>252.0</ele><time>2026-03-29T13:29:01.937Z</time></trkpt><trkpt lat="45.625545" lon="8.6241433"><ele>252.0</ele><time>2026-03-29T13:29:02.937Z</time></trkpt><trkpt lat="45.625385" lon="8.62417"><ele>251.66666666666669</ele><time>2026-03-29T13:29:03.937Z</time></trkpt><trkpt lat="45.625215" lon="8.6242033"><ele>251.33333333333334</ele><time>2026-03-29T13:29:04.937Z</time></trkpt><trkpt lat="45.6250517" lon="8.6242317"><ele>251.0</ele><time>2026-03-29T13:29:05.936Z</time></trkpt><trkpt lat="45.6248833" lon="8.6242667"><ele>251.0</ele><time>2026-03-29T13:29:06.937Z</time></trkpt><trkpt lat="45.6247117" lon="8.6243083"><ele>251.0</ele><time>2026-03-29T13:29:07.937Z</time></trkpt><trkpt lat="45.6245333" lon="8.6243667"><ele>251.0</ele><time>2026-03-29T13:29:08.937Z</time></trkpt><trkpt lat="45.6243517" lon="8.6244217"><ele>251.33333333333334</ele><time>2026-03-29T13:29:09.937Z</time></trkpt><trkpt lat="45.6241717" lon="8.6244817"><ele>251.66666666666669</ele><time>2026-03-29T13:29:10.937Z</time></trkpt><trkpt lat="45.6239867" lon="8.62455"><ele>252.0</ele><time>2026-03-29T13:29:11.937Z</time></trkpt><trkpt lat="45.623805" lon="8.6246167"><ele>253.0</ele><time>2026-03-29T13:29:12.937Z</time></trkpt><trkpt lat="45.6236183" lon="8.624695"><ele>254.0</ele><time>2026-03-29T13:29:13.937Z</time></trkpt><trkpt lat="45.6234333" lon="8.62478"><ele>255.0</ele><time>2026-03-29T13:29:14.937Z</time></trkpt><trkpt lat="45.6232417" lon="8.6248767"><ele>255.0</ele><time>2026-03-29T13:29:15.937Z</time></trkpt><trkpt lat="45.6230517" lon="8.6249817"><ele>255.0</ele><time>2026-03-29T13:29:16.937Z</time></trkpt><trkpt lat="45.622865" lon="8.6250867"><ele>255.0</ele><time>2026-03-29T13:29:17.937Z</time></trkpt><trkpt lat="45.6226767" lon="8.6251967"><ele>254.33333333333331</ele><time>2026-03-29T13:29:18.937Z</time></trkpt><trkpt lat="45.62249" lon="8.6253167"><ele>253.66666666666666</ele><time>2026-03-29T13:29:19.937Z</time></trkpt><trkpt lat="45.6223083" lon="8.6254433"><ele>253.0</ele><time>2026-03-29T13:29:20.936Z</time></trkpt><trkpt lat="45.622125" lon="8.6255733"><ele>254.33333333333331</ele><time>2026-03-29T13:29:21.936Z</time></trkpt><trkpt lat="45.6219433" lon="8.6257167"><ele>255.66666666666669</ele><time>2026-03-29T13:29:22.936Z</time></trkpt><trkpt lat="45.62176" lon="8.6258717"><ele>257.0</ele><time>2026-03-29T13:29:23.935Z</time></trkpt><trkpt lat="45.6215817" lon="8.6260283"><ele>257.33333333333337</ele><time>2026-03-29T13:29:24.936Z</time></trkpt><trkpt lat="45.6214133" lon="8.626185"><ele>257.6666666666667</ele><time>2026-03-29T13:29:25.936Z</time></trkpt><trkpt lat="45.62125" lon="8.6263533"><ele>258.0</ele><time>2026-03-29T13:29:26.936Z</time></trkpt><trkpt lat="45.621075" lon="8.6265267"><ele>258.0</ele><time>2026-03-29T13:29:27.936Z</time></trkpt><trkpt lat="45.6209033" lon="8.6267133"><ele>258.0</ele><time>2026-03-29T13:29:28.936Z</time></trkpt><trkpt lat="45.6207283" lon="8.6269017"><ele>258.0</ele><time>2026-03-29T13:29:29.936Z</time></trkpt><trkpt lat="45.62056" lon="8.6270983"><ele>256.3333333333333</ele><time>2026-03-29T13:29:30.936Z</time></trkpt><trkpt lat="45.62039" lon="8.6272967"><ele>254.66666666666666</ele><time>2026-03-29T13:29:31.936Z</time></trkpt><trkpt lat="45.62023" lon="8.6274967"><ele>253.0</ele><time>2026-03-29T13:29:32.935Z</time></trkpt><trkpt lat="45.620065" lon="8.6276883"><ele>253.0</ele><time>2026-03-29T13:29:33.935Z</time></trkpt><trkpt lat="45.6199083" lon="8.6278783"><ele>253.0</ele><time>2026-03-29T13:29:34.936Z</time></trkpt><trkpt lat="45.619755" lon="8.6280617"><ele>253.0</ele><time>2026-03-29T13:29:35.935Z</time></trkpt><trkpt lat="45.6196017" lon="8.6282533"><ele>253.0</ele><time>2026-03-29T13:29:36.936Z</time></trkpt><trkpt lat="45.61944" lon="8.6284433"><ele>253.0</ele><time>2026-03-29T13:29:37.936Z</time></trkpt><trkpt lat="45.6192783" lon="8.6286383"><ele>253.0</ele><time>2026-03-29T13:29:38.936Z</time></trkpt><trkpt lat="45.619115" lon="8.6288267"><ele>253.0</ele><time>2026-03-29T13:29:39.936Z</time></trkpt><trkpt lat="45.61896" lon="8.6290083"><ele>253.0</ele><time>2026-03-29T13:29:40.936Z</time></trkpt><trkpt lat="45.6187983" lon="8.6291983"><ele>253.0</ele><time>2026-03-29T13:29:41.936Z</time></trkpt><trkpt lat="45.6186333" lon="8.6293967"><ele>253.66666666666666</ele><time>2026-03-29T13:29:42.936Z</time></trkpt><trkpt lat="45.61847" lon="8.6295867"><ele>254.33333333333331</ele><time>2026-03-29T13:29:43.936Z</time></trkpt><trkpt lat="45.6183133" lon="8.6297817"><ele>255.0</ele><time>2026-03-29T13:29:44.936Z</time></trkpt><trkpt lat="45.6181567" lon="8.62998"><ele>255.0</ele><time>2026-03-29T13:29:45.936Z</time></trkpt><trkpt lat="45.61799" lon="8.6301783"><ele>255.0</ele><time>2026-03-29T13:29:46.936Z</time></trkpt><trkpt lat="45.6178217" lon="8.63037"><ele>255.0</ele><time>2026-03-29T13:29:47.936Z</time></trkpt><trkpt lat="45.6176533" lon="8.6305717"><ele>253.66666666666669</ele><time>2026-03-29T13:29:48.936Z</time></trkpt><trkpt lat="45.6174883" lon="8.630775"><ele>252.33333333333334</ele><time>2026-03-29T13:29:49.936Z</time></trkpt><trkpt lat="45.6173183" lon="8.6309767"><ele>251.0</ele><time>2026-03-29T13:29:50.936Z</time></trkpt><trkpt lat="45.6171517" lon="8.63118"><ele>250.66666666666669</ele><time>2026-03-29T13:29:51.936Z</time></trkpt><trkpt lat="45.61698" lon="8.63138"><ele>250.33333333333331</ele><time>2026-03-29T13:29:52.936Z</time></trkpt><trkpt lat="45.616815" lon="8.6315833"><ele>250.0</ele><time>2026-03-29T13:29:53.936Z</time></trkpt><trkpt lat="45.6166567" lon="8.63178"><ele>248.66666666666666</ele><time>2026-03-29T13:29:54.936Z</time></trkpt><trkpt lat="45.6164917" lon="8.6319833"><ele>247.33333333333331</ele><time>2026-03-29T13:29:55.936Z</time></trkpt><trkpt lat="45.6163133" lon="8.632185"><ele>246.0</ele><time>2026-03-29T13:29:56.936Z</time></trkpt><trkpt lat="45.6161367" lon="8.6323917"><ele>246.0</ele><time>2026-03-29T13:29:57.936Z</time></trkpt><trkpt lat="45.6159683" lon="8.632595"><ele>246.0</ele><time>2026-03-29T13:29:58.936Z</time></trkpt><trkpt lat="45.6158017" lon="8.6327967"><ele>246.0</ele><time>2026-03-29T13:29:59.935Z</time></trkpt><trkpt lat="45.6156333" lon="8.6330017"><ele>246.0</ele><time>2026-03-29T13:30:00.936Z</time></trkpt><trkpt lat="45.6154733" lon="8.6332017"><ele>246.0</ele><time>2026-03-29T13:30:01.935Z</time></trkpt><trkpt lat="45.6153117" lon="8.6333967"><ele>246.0</ele><time>2026-03-29T13:30:02.936Z</time></trkpt><trkpt lat="45.615165" lon="8.6335783"><ele>245.66666666666669</ele><time>2026-03-29T13:30:03.935Z</time></trkpt><trkpt lat="45.6150133" lon="8.6337517"><ele>245.33333333333334</ele><time>2026-03-29T13:30:04.936Z</time></trkpt><trkpt lat="45.614875" lon="8.633915"><ele>245.0</ele><time>2026-03-29T13:30:05.936Z</time></trkpt><trkpt lat="45.6147283" lon="8.6340967"><ele>245.0</ele><time>2026-03-29T13:30:06.936Z</time></trkpt><trkpt lat="45.6145783" lon="8.634275"><ele>245.0</ele><time>2026-03-29T13:30:07.936Z</time></trkpt><trkpt lat="45.61442" lon="8.6344633"><ele>245.0</ele><time>2026-03-29T13:30:08.936Z</time></trkpt><trkpt lat="45.6142683" lon="8.6346533"><ele>245.0</ele><time>2026-03-29T13:30:09.936Z</time></trkpt><trkpt lat="45.61412" lon="8.6348317"><ele>245.0</ele><time>2026-03-29T13:30:10.936Z</time></trkpt><trkpt lat="45.6139633" lon="8.63502"><ele>245.0</ele><time>2026-03-29T13:30:11.936Z</time></trkpt><trkpt lat="45.6137983" lon="8.635205"><ele>245.66666666666669</ele><time>2026-03-29T13:30:12.936Z</time></trkpt><trkpt lat="45.613635" lon="8.6354"><ele>246.33333333333331</ele><time>2026-03-29T13:30:13.936Z</time></trkpt><trkpt lat="45.6134767" lon="8.6355867"><ele>247.0</ele><time>2026-03-29T13:30:14.936Z</time></trkpt><trkpt lat="45.6133233" lon="8.635775"><ele>247.0</ele><time>2026-03-29T13:30:15.936Z</time></trkpt><trkpt lat="45.6131733" lon="8.63596"><ele>247.0</ele><time>2026-03-29T13:30:16.936Z</time></trkpt><trkpt lat="45.613015" lon="8.6361517"><ele>247.0</ele><time>2026-03-29T13:30:17.936Z</time></trkpt><trkpt lat="45.6128617" lon="8.6363367"><ele>247.0</ele><time>2026-03-29T13:30:18.936Z</time></trkpt><trkpt lat="45.61271" lon="8.636515"><ele>247.0</ele><time>2026-03-29T13:30:19.936Z</time></trkpt><trkpt lat="45.6125567" lon="8.63669"><ele>247.0</ele><time>2026-03-29T13:30:20.935Z</time></trkpt><trkpt lat="45.612415" lon="8.6368667"><ele>247.0</ele><time>2026-03-29T13:30:21.936Z</time></trkpt><trkpt lat="45.6122633" lon="8.6370433"><ele>247.0</ele><time>2026-03-29T13:30:22.936Z</time></trkpt><trkpt lat="45.6121133" lon="8.637215"><ele>247.0</ele><time>2026-03-29T13:30:23.936Z</time></trkpt><trkpt lat="45.6119533" lon="8.6373867"><ele>247.0</ele><time>2026-03-29T13:30:24.936Z</time></trkpt><trkpt lat="45.6118033" lon="8.6375483"><ele>247.0</ele><time>2026-03-29T13:30:25.936Z</time></trkpt><trkpt lat="45.6116417" lon="8.63771"><ele>247.0</ele><time>2026-03-29T13:30:26.936Z</time></trkpt><trkpt lat="45.611485" lon="8.6378717"><ele>246.66666666666666</ele><time>2026-03-29T13:30:27.936Z</time></trkpt><trkpt lat="45.6113317" lon="8.6380283"><ele>246.33333333333331</ele><time>2026-03-29T13:30:28.936Z</time></trkpt><trkpt lat="45.61118" lon="8.6381917"><ele>246.0</ele><time>2026-03-29T13:30:29.936Z</time></trkpt><trkpt lat="45.61102" lon="8.6383567"><ele>246.0</ele><time>2026-03-29T13:30:30.936Z</time></trkpt><trkpt lat="45.61086" lon="8.6385267"><ele>246.0</ele><time>2026-03-29T13:30:31.935Z</time></trkpt><trkpt lat="45.6106967" lon="8.63869"><ele>246.0</ele><time>2026-03-29T13:30:32.936Z</time></trkpt><trkpt lat="45.6105367" lon="8.638855"><ele>246.33333333333331</ele><time>2026-03-29T13:30:33.936Z</time></trkpt><trkpt lat="45.6103783" lon="8.6390217"><ele>246.66666666666666</ele><time>2026-03-29T13:30:34.936Z</time></trkpt><trkpt lat="45.6102183" lon="8.6391867"><ele>247.0</ele><time>2026-03-29T13:30:35.936Z</time></trkpt><trkpt lat="45.610055" lon="8.639355"><ele>246.66666666666666</ele><time>2026-03-29T13:30:36.936Z</time></trkpt><trkpt lat="45.6099017" lon="8.6395167"><ele>246.33333333333331</ele><time>2026-03-29T13:30:37.936Z</time></trkpt><trkpt lat="45.6097617" lon="8.6396683"><ele>246.0</ele><time>2026-03-29T13:30:38.936Z</time></trkpt><trkpt lat="45.6096183" lon="8.63982"><ele>245.0</ele><time>2026-03-29T13:30:39.936Z</time></trkpt><trkpt lat="45.6094833" lon="8.63997"><ele>244.0</ele><time>2026-03-29T13:30:40.936Z</time></trkpt><trkpt lat="45.609345" lon="8.64011"><ele>243.0</ele><time>2026-03-29T13:30:41.936Z</time></trkpt><trkpt lat="45.6092083" lon="8.640255"><ele>244.0</ele><time>2026-03-29T13:30:42.936Z</time></trkpt><trkpt lat="45.6090617" lon="8.6404067"><ele>245.0</ele><time>2026-03-29T13:30:43.936Z</time></trkpt><trkpt lat="45.6089117" lon="8.6405533"><ele>246.0</ele><time>2026-03-29T13:30:44.936Z</time></trkpt><trkpt lat="45.60875" lon="8.64069"><ele>244.0</ele><time>2026-03-29T13:30:45.936Z</time></trkpt><trkpt lat="45.6085817" lon="8.6408217"><ele>242.0</ele><time>2026-03-29T13:30:46.936Z</time></trkpt><trkpt lat="45.6084133" lon="8.6409367"><ele>240.0</ele><time>2026-03-29T13:30:47.936Z</time></trkpt><trkpt lat="45.60824" lon="8.6410533"><ele>239.66666666666669</ele><time>2026-03-29T13:30:48.936Z</time></trkpt><trkpt lat="45.6080733" lon="8.641175"><ele>239.33333333333334</ele><time>2026-03-29T13:30:49.936Z</time></trkpt><trkpt lat="45.6079033" lon="8.6412983"><ele>239.0</ele><time>2026-03-29T13:30:50.936Z</time></trkpt><trkpt lat="45.6077317" lon="8.6414217"><ele>238.33333333333334</ele><time>2026-03-29T13:30:51.936Z</time></trkpt><trkpt lat="45.607575" lon="8.6415367"><ele>237.66666666666669</ele><time>2026-03-29T13:30:52.936Z</time></trkpt><trkpt lat="45.6074117" lon="8.6416583"><ele>237.0</ele><time>2026-03-29T13:30:53.936Z</time></trkpt><trkpt lat="45.6072567" lon="8.6417733"><ele>237.0</ele><time>2026-03-29T13:30:54.936Z</time></trkpt><trkpt lat="45.607105" lon="8.6418833"><ele>237.0</ele><time>2026-03-29T13:30:55.936Z</time></trkpt><trkpt lat="45.6069533" lon="8.6419917"><ele>237.0</ele><time>2026-03-29T13:30:56.936Z</time></trkpt><trkpt lat="45.606805" lon="8.6421017"><ele>236.0</ele><time>2026-03-29T13:30:57.936Z</time></trkpt><trkpt lat="45.60666" lon="8.6422067"><ele>235.0</ele><time>2026-03-29T13:30:58.936Z</time></trkpt><trkpt lat="45.6065133" lon="8.6423117"><ele>234.0</ele><time>2026-03-29T13:30:59.936Z</time></trkpt><trkpt lat="45.606365" lon="8.64242"><ele>234.0</ele><time>2026-03-29T13:31:00.936Z</time></trkpt><trkpt lat="45.6062233" lon="8.642525"><ele>234.0</ele><time>2026-03-29T13:31:01.936Z</time></trkpt><trkpt lat="45.60608" lon="8.642625"><ele>234.0</ele><time>2026-03-29T13:31:02.936Z</time></trkpt><trkpt lat="45.6059417" lon="8.6427317"><ele>231.66666666666669</ele><time>2026-03-29T13:31:03.935Z</time></trkpt><trkpt lat="45.6058" lon="8.6428283"><ele>229.33333333333334</ele><time>2026-03-29T13:31:04.936Z</time></trkpt><trkpt lat="45.6056633" lon="8.642915"><ele>227.0</ele><time>2026-03-29T13:31:05.935Z</time></trkpt><trkpt lat="45.605535" lon="8.6430117"><ele>227.0</ele><time>2026-03-29T13:31:06.936Z</time></trkpt><trkpt lat="45.6054017" lon="8.64311"><ele>227.0</ele><time>2026-03-29T13:31:07.936Z</time></trkpt><trkpt lat="45.6052617" lon="8.6432133"><ele>227.0</ele><time>2026-03-29T13:31:08.936Z</time></trkpt><trkpt lat="45.60512" lon="8.6433233"><ele>225.33333333333334</ele><time>2026-03-29T13:31:09.936Z</time></trkpt><trkpt lat="45.6049633" lon="8.6434133"><ele>223.66666666666669</ele><time>2026-03-29T13:31:10.936Z</time></trkpt><trkpt lat="45.6048133" lon="8.64349"><ele>222.0</ele><time>2026-03-29T13:31:11.936Z</time></trkpt><trkpt lat="45.60466" lon="8.643555"><ele>222.0</ele><time>2026-03-29T13:31:12.936Z</time></trkpt><trkpt lat="45.6045133" lon="8.6436067"><ele>222.0</ele><time>2026-03-29T13:31:13.936Z</time></trkpt><trkpt lat="45.60436" lon="8.6436567"><ele>222.0</ele><time>2026-03-29T13:31:14.936Z</time></trkpt><trkpt lat="45.6042133" lon="8.6436883"><ele>219.66666666666669</ele><time>2026-03-29T13:31:15.936Z</time></trkpt><trkpt lat="45.6040667" lon="8.6437183"><ele>217.33333333333334</ele><time>2026-03-29T13:31:16.936Z</time></trkpt><trkpt lat="45.6039167" lon="8.6437367"><ele>215.0</ele><time>2026-03-29T13:31:17.936Z</time></trkpt><trkpt lat="45.6037533" lon="8.643765"><ele>214.66666666666669</ele><time>2026-03-29T13:31:18.936Z</time></trkpt><trkpt lat="45.6035833" lon="8.6437967"><ele>214.33333333333331</ele><time>2026-03-29T13:31:19.936Z</time></trkpt><trkpt lat="45.6034" lon="8.6438417"><ele>214.0</ele><time>2026-03-29T13:31:20.936Z</time></trkpt><trkpt lat="45.6032267" lon="8.6438667"><ele>214.0</ele><time>2026-03-29T13:31:21.936Z</time></trkpt><trkpt lat="45.60305" lon="8.6438933"><ele>214.0</ele><time>2026-03-29T13:31:22.936Z</time></trkpt><trkpt lat="45.60289" lon="8.64391"><ele>214.0</ele><time>2026-03-29T13:31:23.936Z</time></trkpt><trkpt lat="45.602735" lon="8.6439217"><ele>212.66666666666666</ele><time>2026-03-29T13:31:24.936Z</time></trkpt><trkpt lat="45.6025867" lon="8.6439417"><ele>211.33333333333331</ele><time>2026-03-29T13:31:25.936Z</time></trkpt><trkpt lat="45.6024383" lon="8.64396"><ele>210.0</ele><time>2026-03-29T13:31:26.936Z</time></trkpt><trkpt lat="45.6022817" lon="8.64398"><ele>210.0</ele><time>2026-03-29T13:31:27.936Z</time></trkpt><trkpt lat="45.6021217" lon="8.64402"><ele>210.0</ele><time>2026-03-29T13:31:28.936Z</time></trkpt><trkpt lat="45.60196" lon="8.644055"><ele>210.0</ele><time>2026-03-29T13:31:29.936Z</time></trkpt><trkpt lat="45.6017967" lon="8.6440767"><ele>209.0</ele><time>2026-03-29T13:31:30.936Z</time></trkpt><trkpt lat="45.6016433" lon="8.6440967"><ele>208.0</ele><time>2026-03-29T13:31:31.935Z</time></trkpt><trkpt lat="45.6014867" lon="8.6441233"><ele>207.0</ele><time>2026-03-29T13:31:32.936Z</time></trkpt><trkpt lat="45.6013417" lon="8.6441467"><ele>207.0</ele><time>2026-03-29T13:31:33.936Z</time></trkpt><trkpt lat="45.6012067" lon="8.644165"><ele>207.0</ele><time>2026-03-29T13:31:34.936Z</time></trkpt><trkpt lat="45.60107" lon="8.6441883"><ele>207.0</ele><time>2026-03-29T13:31:35.936Z</time></trkpt><trkpt lat="45.6009417" lon="8.6442167"><ele>207.0</ele><time>2026-03-29T13:31:36.936Z</time></trkpt><trkpt lat="45.6008133" lon="8.6442533"><ele>207.2</ele><time>2026-03-29T13:31:37.936Z</time></trkpt><trkpt lat="45.600695" lon="8.6442933"><ele>207.39999999999998</ele><time>2026-03-29T13:31:38.936Z</time></trkpt><trkpt lat="45.6005833" lon="8.644345"><ele>207.60000000000002</ele><time>2026-03-29T13:31:39.936Z</time></trkpt><trkpt lat="45.60048" lon="8.6444133"><ele>207.8</ele><time>2026-03-29T13:31:40.936Z</time></trkpt><trkpt lat="45.6004017" lon="8.644475"><ele>208.0</ele><time>2026-03-29T13:31:41.936Z</time></trkpt><trkpt lat="45.600335" lon="8.6445233"><ele>207.7142857142857</ele><time>2026-03-29T13:31:42.936Z</time></trkpt><trkpt lat="45.6002767" lon="8.6445717"><ele>207.42857142857144</ele><time>2026-03-29T13:31:43.935Z</time></trkpt><trkpt lat="45.600215" lon="8.644615"><ele>207.14285714285714</ele><time>2026-03-29T13:31:44.936Z</time></trkpt><trkpt lat="45.6001533" lon="8.6446567"><ele>206.85714285714283</ele><time>2026-03-29T13:31:45.936Z</time></trkpt><trkpt lat="45.60009" lon="8.6446883"><ele>206.57142857142856</ele><time>2026-03-29T13:31:46.936Z</time></trkpt><trkpt lat="45.6000233" lon="8.64471"><ele>206.28571428571428</ele><time>2026-03-29T13:31:47.936Z</time></trkpt><trkpt lat="45.59995" lon="8.64473"><ele>206.0</ele><time>2026-03-29T13:31:48.936Z</time></trkpt><trkpt lat="45.5998567" lon="8.6447517"><ele>206.0</ele><time>2026-03-29T13:31:49.936Z</time></trkpt><trkpt lat="45.5997533" lon="8.6447667"><ele>206.0</ele><time>2026-03-29T13:31:50.936Z</time></trkpt><trkpt lat="45.599645" lon="8.6447617"><ele>206.0</ele><time>2026-03-29T13:31:51.935Z</time></trkpt><trkpt lat="45.5995333" lon="8.6447367"><ele>206.0</ele><time>2026-03-29T13:31:52.936Z</time></trkpt><trkpt lat="45.5994183" lon="8.6447033"><ele>206.0</ele><time>2026-03-29T13:31:53.936Z</time></trkpt><trkpt lat="45.5993" lon="8.644675"><ele>205.75</ele><time>2026-03-29T13:31:54.936Z</time></trkpt><trkpt lat="45.59917" lon="8.644645"><ele>205.5</ele><time>2026-03-29T13:31:55.936Z</time></trkpt><trkpt lat="45.59903" lon="8.64463"><ele>205.25</ele><time>2026-03-29T13:31:56.936Z</time></trkpt><trkpt lat="45.598895" lon="8.64462"><ele>205.0</ele><time>2026-03-29T13:31:57.936Z</time></trkpt><trkpt lat="45.59876" lon="8.6446283"><ele>205.0</ele><time>2026-03-29T13:31:58.936Z</time></trkpt><trkpt lat="45.5986283" lon="8.6446433"><ele>205.0</ele><time>2026-03-29T13:31:59.936Z</time></trkpt><trkpt lat="45.5984933" lon="8.6446717"><ele>205.0</ele><time>2026-03-29T13:32:00.936Z</time></trkpt><trkpt lat="45.59835" lon="8.6447133"><ele>205.0</ele><time>2026-03-29T13:32:01.935Z</time></trkpt><trkpt lat="45.598215" lon="8.6447533"><ele>205.0</ele><time>2026-03-29T13:32:02.936Z</time></trkpt><trkpt lat="45.5980817" lon="8.644785"><ele>205.0</ele><time>2026-03-29T13:32:03.936Z</time></trkpt><trkpt lat="45.5979533" lon="8.6448167"><ele>205.0</ele><time>2026-03-29T13:32:04.936Z</time></trkpt><trkpt lat="45.59782" lon="8.6448467"><ele>205.0</ele><time>2026-03-29T13:32:05.936Z</time></trkpt><trkpt lat="45.5976917" lon="8.6448767"><ele>205.5</ele><time>2026-03-29T13:32:06.936Z</time></trkpt><trkpt lat="45.597555" lon="8.644905"><ele>206.0</ele><time>2026-03-29T13:32:07.936Z</time></trkpt><trkpt lat="45.597415" lon="8.644935"><ele>206.5</ele><time>2026-03-29T13:32:08.936Z</time></trkpt><trkpt lat="45.5972567" lon="8.644975"><ele>207.0</ele><time>2026-03-29T13:32:09.935Z</time></trkpt><trkpt lat="45.597095" lon="8.6450083"><ele>206.33333333333331</ele><time>2026-03-29T13:32:10.936Z</time></trkpt><trkpt lat="45.5969367" lon="8.645035"><ele>205.66666666666666</ele><time>2026-03-29T13:32:11.936Z</time></trkpt><trkpt lat="45.59678" lon="8.645065"><ele>205.0</ele><time>2026-03-29T13:32:12.936Z</time></trkpt><trkpt lat="45.5966167" lon="8.6450967"><ele>205.0</ele><time>2026-03-29T13:32:13.936Z</time></trkpt><trkpt lat="45.5964567" lon="8.6451283"><ele>205.0</ele><time>2026-03-29T13:32:14.936Z</time></trkpt><trkpt lat="45.5962983" lon="8.64516"><ele>205.0</ele><time>2026-03-29T13:32:15.936Z</time></trkpt><trkpt lat="45.5961367" lon="8.6451817"><ele>204.66666666666666</ele><time>2026-03-29T13:32:16.936Z</time></trkpt><trkpt lat="45.5959717" lon="8.6452167"><ele>204.33333333333331</ele><time>2026-03-29T13:32:17.936Z</time></trkpt><trkpt lat="45.5958167" lon="8.6452417"><ele>204.0</ele><time>2026-03-29T13:32:18.936Z</time></trkpt><trkpt lat="45.59566" lon="8.64526"><ele>204.0</ele><time>2026-03-29T13:32:19.936Z</time></trkpt><trkpt lat="45.5955033" lon="8.6452667"><ele>204.0</ele><time>2026-03-29T13:32:20.936Z</time></trkpt><trkpt lat="45.5953483" lon="8.6452717"><ele>204.0</ele><time>2026-03-29T13:32:21.936Z</time></trkpt><trkpt lat="45.59519" lon="8.6452667"><ele>204.25</ele><time>2026-03-29T13:32:22.935Z</time></trkpt><trkpt lat="45.5950383" lon="8.64525"><ele>204.5</ele><time>2026-03-29T13:32:23.935Z</time></trkpt><trkpt lat="45.5949" lon="8.6452267"><ele>204.75</ele><time>2026-03-29T13:32:24.935Z</time></trkpt><trkpt lat="45.5947767" lon="8.6451867"><ele>205.0</ele><time>2026-03-29T13:32:25.936Z</time></trkpt><trkpt lat="45.5946667" lon="8.6451183"><ele>205.0</ele><time>2026-03-29T13:32:26.936Z</time></trkpt><trkpt lat="45.5945833" lon="8.6450267"><ele>205.0</ele><time>2026-03-29T13:32:27.935Z</time></trkpt><trkpt lat="45.5945383" lon="8.6449"><ele>205.0</ele><time>2026-03-29T13:32:28.935Z</time></trkpt><trkpt lat="45.5945167" lon="8.6447567"><ele>205.0</ele><time>2026-03-29T13:32:29.936Z</time></trkpt><trkpt lat="45.59449" lon="8.6446217"><ele>205.0</ele><time>2026-03-29T13:32:30.936Z</time></trkpt><trkpt lat="45.5944333" lon="8.64451"><ele>204.6</ele><time>2026-03-29T13:32:31.935Z</time></trkpt><trkpt lat="45.594355" lon="8.6444183"><ele>204.2</ele><time>2026-03-29T13:32:32.936Z</time></trkpt><trkpt lat="45.59426" lon="8.6443267"><ele>203.8</ele><time>2026-03-29T13:32:33.936Z</time></trkpt><trkpt lat="45.5941617" lon="8.644245"><ele>203.4</ele><time>2026-03-29T13:32:34.936Z</time></trkpt><trkpt lat="45.5940667" lon="8.64416"><ele>203.0</ele><time>2026-03-29T13:32:35.936Z</time></trkpt><trkpt lat="45.5939767" lon="8.6440817"><ele>203.00000000000003</ele><time>2026-03-29T13:32:36.936Z</time></trkpt><trkpt lat="45.5939033" lon="8.6440117"><ele>203.0</ele><time>2026-03-29T13:32:37.936Z</time></trkpt><trkpt lat="45.5938317" lon="8.643945"><ele>203.0</ele><time>2026-03-29T13:32:38.936Z</time></trkpt><trkpt lat="45.59377" lon="8.6438933"><ele>203.0</ele><time>2026-03-29T13:32:39.936Z</time></trkpt><trkpt lat="45.5936883" lon="8.64386"><ele>203.00000000000003</ele><time>2026-03-29T13:32:41.936Z</time></trkpt><trkpt lat="45.59361" lon="8.643905"><ele>203.0</ele><time>2026-03-29T13:32:44.935Z</time></trkpt><trkpt lat="45.5935683" lon="8.644045"><ele>203.2</ele><time>2026-03-29T13:32:46.936Z</time></trkpt><trkpt lat="45.5935567" lon="8.6441517"><ele>203.4</ele><time>2026-03-29T13:32:47.936Z</time></trkpt><trkpt lat="45.5935333" lon="8.6442883"><ele>203.6</ele><time>2026-03-29T13:32:48.935Z</time></trkpt><trkpt lat="45.5935067" lon="8.6444433"><ele>203.79999999999998</ele><time>2026-03-29T13:32:49.935Z</time></trkpt><trkpt lat="45.593475" lon="8.6446167"><ele>204.0</ele><time>2026-03-29T13:32:50.935Z</time></trkpt><trkpt lat="45.5934417" lon="8.6447933"><ele>204.25</ele><time>2026-03-29T13:32:51.935Z</time></trkpt><trkpt lat="45.5934067" lon="8.6449933"><ele>204.5</ele><time>2026-03-29T13:32:52.935Z</time></trkpt><trkpt lat="45.5933817" lon="8.645175"><ele>204.75</ele><time>2026-03-29T13:32:53.935Z</time></trkpt><trkpt lat="45.59335" lon="8.6453767"><ele>205.0</ele><time>2026-03-29T13:32:54.935Z</time></trkpt><trkpt lat="45.5933117" lon="8.6455967"><ele>204.33333333333331</ele><time>2026-03-29T13:32:55.934Z</time></trkpt><trkpt lat="45.5932717" lon="8.6458167"><ele>203.66666666666669</ele><time>2026-03-29T13:32:56.935Z</time></trkpt><trkpt lat="45.5932333" lon="8.6460417"><ele>203.0</ele><time>2026-03-29T13:32:57.935Z</time></trkpt><trkpt lat="45.5932017" lon="8.6462467"><ele>203.0</ele><time>2026-03-29T13:32:58.935Z</time></trkpt><trkpt lat="45.593165" lon="8.6464433"><ele>203.0</ele><time>2026-03-29T13:32:59.935Z</time></trkpt><trkpt lat="45.593125" lon="8.64665"><ele>203.0</ele><time>2026-03-29T13:33:00.935Z</time></trkpt><trkpt lat="45.5930867" lon="8.6468567"><ele>203.0</ele><time>2026-03-29T13:33:01.934Z</time></trkpt><trkpt lat="45.5930533" lon="8.6470667"><ele>202.66666666666669</ele><time>2026-03-29T13:33:02.935Z</time></trkpt><trkpt lat="45.5930283" lon="8.6472917"><ele>202.33333333333331</ele><time>2026-03-29T13:33:03.935Z</time></trkpt><trkpt lat="45.59299" lon="8.6475117"><ele>202.0</ele><time>2026-03-29T13:33:04.935Z</time></trkpt><trkpt lat="45.59295" lon="8.647735"><ele>201.33333333333331</ele><time>2026-03-29T13:33:05.935Z</time></trkpt><trkpt lat="45.5929083" lon="8.647955"><ele>200.66666666666669</ele><time>2026-03-29T13:33:06.935Z</time></trkpt><trkpt lat="45.5928733" lon="8.6481683"><ele>200.0</ele><time>2026-03-29T13:33:07.935Z</time></trkpt><trkpt lat="45.59284" lon="8.6483867"><ele>201.0</ele><time>2026-03-29T13:33:08.934Z</time></trkpt><trkpt lat="45.5927967" lon="8.6486083"><ele>202.0</ele><time>2026-03-29T13:33:09.935Z</time></trkpt><trkpt lat="45.5927517" lon="8.64884"><ele>203.0</ele><time>2026-03-29T13:33:10.935Z</time></trkpt><trkpt lat="45.5927117" lon="8.64907"><ele>203.0</ele><time>2026-03-29T13:33:11.935Z</time></trkpt><trkpt lat="45.592675" lon="8.6492883"><ele>203.0</ele><time>2026-03-29T13:33:12.934Z</time></trkpt><trkpt lat="45.59264" lon="8.6495167"><ele>203.0</ele><time>2026-03-29T13:33:13.934Z</time></trkpt><trkpt lat="45.5925933" lon="8.6497467"><ele>203.0</ele><time>2026-03-29T13:33:14.935Z</time></trkpt><trkpt lat="45.59255" lon="8.6499683"><ele>203.0</ele><time>2026-03-29T13:33:15.935Z</time></trkpt><trkpt lat="45.59251" lon="8.650185"><ele>203.0</ele><time>2026-03-29T13:33:16.935Z</time></trkpt><trkpt lat="45.5924733" lon="8.6504083"><ele>202.66666666666669</ele><time>2026-03-29T13:33:17.935Z</time></trkpt><trkpt lat="45.59244" lon="8.65063"><ele>202.33333333333331</ele><time>2026-03-29T13:33:18.935Z</time></trkpt><trkpt lat="45.59241" lon="8.6508633"><ele>202.0</ele><time>2026-03-29T13:33:19.935Z</time></trkpt><trkpt lat="45.5923683" lon="8.651095"><ele>201.66666666666666</ele><time>2026-03-29T13:33:20.935Z</time></trkpt><trkpt lat="45.59232" lon="8.6513267"><ele>201.33333333333331</ele><time>2026-03-29T13:33:21.935Z</time></trkpt><trkpt lat="45.5922767" lon="8.6515617"><ele>201.0</ele><time>2026-03-29T13:33:22.935Z</time></trkpt><trkpt lat="45.5922367" lon="8.651805"><ele>201.0</ele><time>2026-03-29T13:33:23.935Z</time></trkpt><trkpt lat="45.59221" lon="8.6520367"><ele>201.0</ele><time>2026-03-29T13:33:24.935Z</time></trkpt><trkpt lat="45.5921667" lon="8.6522733"><ele>201.0</ele><time>2026-03-29T13:33:25.935Z</time></trkpt><trkpt lat="45.592135" lon="8.6525117"><ele>201.0</ele><time>2026-03-29T13:33:26.935Z</time></trkpt><trkpt lat="45.5920883" lon="8.6527483"><ele>201.0</ele><time>2026-03-29T13:33:27.935Z</time></trkpt><trkpt lat="45.5920317" lon="8.6529867"><ele>201.0</ele><time>2026-03-29T13:33:28.935Z</time></trkpt><trkpt lat="45.5919933" lon="8.6532183"><ele>201.33333333333331</ele><time>2026-03-29T13:33:29.934Z</time></trkpt><trkpt lat="45.5919483" lon="8.6534333"><ele>201.66666666666666</ele><time>2026-03-29T13:33:30.935Z</time></trkpt><trkpt lat="45.5919133" lon="8.6536383"><ele>202.0</ele><time>2026-03-29T13:33:31.934Z</time></trkpt><trkpt lat="45.59188" lon="8.6538683"><ele>202.0</ele><time>2026-03-29T13:33:32.935Z</time></trkpt><trkpt lat="45.59187" lon="8.6540833"><ele>202.0</ele><time>2026-03-29T13:33:33.934Z</time></trkpt><trkpt lat="45.59186" lon="8.6543083"><ele>202.0</ele><time>2026-03-29T13:33:34.935Z</time></trkpt><trkpt lat="45.59185" lon="8.6545417"><ele>202.0</ele><time>2026-03-29T13:33:35.935Z</time></trkpt><trkpt lat="45.59185" lon="8.654765"><ele>202.0</ele><time>2026-03-29T13:33:36.935Z</time></trkpt><trkpt lat="45.591855" lon="8.6549883"><ele>202.0</ele><time>2026-03-29T13:33:37.934Z</time></trkpt><trkpt lat="45.5918483" lon="8.655205"><ele>202.33333333333331</ele><time>2026-03-29T13:33:38.935Z</time></trkpt><trkpt lat="45.59185" lon="8.6554317"><ele>202.66666666666669</ele><time>2026-03-29T13:33:39.935Z</time></trkpt><trkpt lat="45.5918333" lon="8.655655"><ele>203.0</ele><time>2026-03-29T13:33:40.935Z</time></trkpt><trkpt lat="45.5918083" lon="8.6558833"><ele>203.0</ele><time>2026-03-29T13:33:41.935Z</time></trkpt><trkpt lat="45.591795" lon="8.6561067"><ele>203.0</ele><time>2026-03-29T13:33:42.934Z</time></trkpt><trkpt lat="45.5917733" lon="8.65633"><ele>203.0</ele><time>2026-03-29T13:33:43.935Z</time></trkpt><trkpt lat="45.591745" lon="8.6565633"><ele>203.0</ele><time>2026-03-29T13:33:44.935Z</time></trkpt><trkpt lat="45.591715" lon="8.6567917"><ele>203.0</ele><time>2026-03-29T13:33:45.934Z</time></trkpt><trkpt lat="45.59169" lon="8.6570233"><ele>203.0</ele><time>2026-03-29T13:33:46.935Z</time></trkpt><trkpt lat="45.59166" lon="8.6572583"><ele>203.33333333333334</ele><time>2026-03-29T13:33:47.935Z</time></trkpt><trkpt lat="45.5916333" lon="8.6574833"><ele>203.66666666666669</ele><time>2026-03-29T13:33:48.935Z</time></trkpt><trkpt lat="45.5916067" lon="8.65771"><ele>204.0</ele><time>2026-03-29T13:33:49.935Z</time></trkpt><trkpt lat="45.59159" lon="8.6579317"><ele>204.0</ele><time>2026-03-29T13:33:50.935Z</time></trkpt><trkpt lat="45.591565" lon="8.65816"><ele>204.0</ele><time>2026-03-29T13:33:51.935Z</time></trkpt><trkpt lat="45.5915483" lon="8.65839"><ele>204.0</ele><time>2026-03-29T13:33:52.935Z</time></trkpt><trkpt lat="45.5915283" lon="8.658635"><ele>203.0</ele><time>2026-03-29T13:33:53.934Z</time></trkpt><trkpt lat="45.5915167" lon="8.6588717"><ele>202.0</ele><time>2026-03-29T13:33:54.935Z</time></trkpt><trkpt lat="45.5915067" lon="8.6591117"><ele>201.0</ele><time>2026-03-29T13:33:55.935Z</time></trkpt><trkpt lat="45.5914983" lon="8.6593533"><ele>198.0</ele><time>2026-03-29T13:33:56.935Z</time></trkpt><trkpt lat="45.5914983" lon="8.6596117"><ele>195.0</ele><time>2026-03-29T13:33:57.935Z</time></trkpt><trkpt lat="45.59148" lon="8.659865"><ele>192.0</ele><time>2026-03-29T13:33:58.935Z</time></trkpt><trkpt lat="45.591485" lon="8.6601267"><ele>190.66666666666666</ele><time>2026-03-29T13:33:59.935Z</time></trkpt><trkpt lat="45.591485" lon="8.6603867"><ele>189.33333333333331</ele><time>2026-03-29T13:34:00.935Z</time></trkpt><trkpt lat="45.59149" lon="8.6606483"><ele>188.0</ele><time>2026-03-29T13:34:01.935Z</time></trkpt><trkpt lat="45.5914933" lon="8.6609033"><ele>187.66666666666666</ele><time>2026-03-29T13:34:02.935Z</time></trkpt><trkpt lat="45.5915017" lon="8.6611467"><ele>187.33333333333334</ele><time>2026-03-29T13:34:03.935Z</time></trkpt><trkpt lat="45.5915033" lon="8.661385"><ele>187.0</ele><time>2026-03-29T13:34:04.935Z</time></trkpt><trkpt lat="45.5915217" lon="8.6616033"><ele>187.0</ele><time>2026-03-29T13:34:05.934Z</time></trkpt><trkpt lat="45.5915333" lon="8.6618117"><ele>187.0</ele><time>2026-03-29T13:34:06.935Z</time></trkpt><trkpt lat="45.5915567" lon="8.6620117"><ele>187.0</ele><time>2026-03-29T13:34:07.935Z</time></trkpt><trkpt lat="45.591585" lon="8.66224"><ele>187.33333333333334</ele><time>2026-03-29T13:34:08.935Z</time></trkpt><trkpt lat="45.5916183" lon="8.6624683"><ele>187.66666666666666</ele><time>2026-03-29T13:34:09.935Z</time></trkpt><trkpt lat="45.59166" lon="8.662695"><ele>188.0</ele><time>2026-03-29T13:34:10.935Z</time></trkpt><trkpt lat="45.591695" lon="8.662925"><ele>188.0</ele><time>2026-03-29T13:34:11.935Z</time></trkpt><trkpt lat="45.5917333" lon="8.663135"><ele>188.0</ele><time>2026-03-29T13:34:12.935Z</time></trkpt><trkpt lat="45.591765" lon="8.663325"><ele>188.0</ele><time>2026-03-29T13:34:13.935Z</time></trkpt><trkpt lat="45.5917983" lon="8.6634933"><ele>188.0</ele><time>2026-03-29T13:34:14.935Z</time></trkpt><trkpt lat="45.5918317" lon="8.663645"><ele>188.0</ele><time>2026-03-29T13:34:15.935Z</time></trkpt><trkpt lat="45.591865" lon="8.6637883"><ele>188.0</ele><time>2026-03-29T13:34:16.935Z</time></trkpt><trkpt lat="45.59189" lon="8.6639117"><ele>188.0</ele><time>2026-03-29T13:34:17.934Z</time></trkpt><trkpt lat="45.5919017" lon="8.6640333"><ele>188.0</ele><time>2026-03-29T13:34:18.935Z</time></trkpt><trkpt lat="45.5919067" lon="8.6641417"><ele>188.0</ele><time>2026-03-29T13:34:19.935Z</time></trkpt><trkpt lat="45.5918967" lon="8.6642433"><ele>188.0</ele><time>2026-03-29T13:34:20.935Z</time></trkpt><trkpt lat="45.5918783" lon="8.6643383"><ele>188.0</ele><time>2026-03-29T13:34:21.935Z</time></trkpt><trkpt lat="45.591865" lon="8.6644333"><ele>188.0</ele><time>2026-03-29T13:34:22.935Z</time></trkpt><trkpt lat="45.591865" lon="8.6645283"><ele>188.0</ele><time>2026-03-29T13:34:23.935Z</time></trkpt><trkpt lat="45.5918933" lon="8.66461"><ele>188.0</ele><time>2026-03-29T13:34:24.935Z</time></trkpt><trkpt lat="45.591935" lon="8.6646983"><ele>188.0</ele><time>2026-03-29T13:34:25.935Z</time></trkpt><trkpt lat="45.5919867" lon="8.6647917"><ele>188.0</ele><time>2026-03-29T13:34:26.935Z</time></trkpt><trkpt lat="45.5920133" lon="8.6649133"><ele>188.0</ele><time>2026-03-29T13:34:27.935Z</time></trkpt><trkpt lat="45.5920317" lon="8.6650583"><ele>188.0</ele><time>2026-03-29T13:34:28.934Z</time></trkpt><trkpt lat="45.5920317" lon="8.66521"><ele>188.0</ele><time>2026-03-29T13:34:29.934Z</time></trkpt><trkpt lat="45.59204" lon="8.6653667"><ele>188.0</ele><time>2026-03-29T13:34:30.935Z</time></trkpt><trkpt lat="45.592035" lon="8.6655333"><ele>188.0</ele><time>2026-03-29T13:34:31.935Z</time></trkpt><trkpt lat="45.592035" lon="8.6657017"><ele>188.25</ele><time>2026-03-29T13:34:32.935Z</time></trkpt><trkpt lat="45.592035" lon="8.6658767"><ele>188.5</ele><time>2026-03-29T13:34:33.935Z</time></trkpt><trkpt lat="45.592035" lon="8.6660583"><ele>188.75</ele><time>2026-03-29T13:34:34.935Z</time></trkpt><trkpt lat="45.5920317" lon="8.6662417"><ele>189.0</ele><time>2026-03-29T13:34:35.935Z</time></trkpt><trkpt lat="45.592035" lon="8.66643"><ele>188.5</ele><time>2026-03-29T13:34:36.935Z</time></trkpt><trkpt lat="45.5920317" lon="8.6666217"><ele>188.0</ele><time>2026-03-29T13:34:37.935Z</time></trkpt><trkpt lat="45.59203" lon="8.6668067"><ele>187.5</ele><time>2026-03-29T13:34:38.935Z</time></trkpt><trkpt lat="45.59203" lon="8.667005"><ele>187.0</ele><time>2026-03-29T13:34:39.935Z</time></trkpt><trkpt lat="45.5920283" lon="8.6672117"><ele>187.0</ele><time>2026-03-29T13:34:40.935Z</time></trkpt><trkpt lat="45.5920133" lon="8.6674017"><ele>187.0</ele><time>2026-03-29T13:34:41.934Z</time></trkpt><trkpt lat="45.5919983" lon="8.667575"><ele>187.0</ele><time>2026-03-29T13:34:42.935Z</time></trkpt><trkpt lat="45.591985" lon="8.6677533"><ele>187.0</ele><time>2026-03-29T13:34:43.935Z</time></trkpt><trkpt lat="45.5919717" lon="8.6679483"><ele>187.0</ele><time>2026-03-29T13:34:44.935Z</time></trkpt><trkpt lat="45.5919517" lon="8.6681433"><ele>187.0</ele><time>2026-03-29T13:34:45.935Z</time></trkpt><trkpt lat="45.59193" lon="8.6683417"><ele>187.0</ele><time>2026-03-29T13:34:46.935Z</time></trkpt><trkpt lat="45.5918983" lon="8.66855"><ele>187.0</ele><time>2026-03-29T13:34:47.935Z</time></trkpt><trkpt lat="45.5918683" lon="8.6687533"><ele>187.66666666666669</ele><time>2026-03-29T13:34:48.935Z</time></trkpt><trkpt lat="45.59184" lon="8.6689733"><ele>188.33333333333334</ele><time>2026-03-29T13:34:49.935Z</time></trkpt><trkpt lat="45.59181" lon="8.6691933"><ele>189.0</ele><time>2026-03-29T13:34:50.935Z</time></trkpt><trkpt lat="45.5917783" lon="8.6694133"><ele>188.66666666666666</ele><time>2026-03-29T13:34:51.935Z</time></trkpt><trkpt lat="45.5917433" lon="8.6696317"><ele>188.33333333333331</ele><time>2026-03-29T13:34:52.935Z</time></trkpt><trkpt lat="45.5917117" lon="8.6698533"><ele>188.0</ele><time>2026-03-29T13:34:53.935Z</time></trkpt><trkpt lat="45.59168" lon="8.6700733"><ele>187.5</ele><time>2026-03-29T13:34:54.935Z</time></trkpt><trkpt lat="45.5916533" lon="8.6702967"><ele>187.0</ele><time>2026-03-29T13:34:55.935Z</time></trkpt><trkpt lat="45.591595" lon="8.6707383"><ele>187.0</ele><time>2026-03-29T13:34:57.935Z</time></trkpt><trkpt lat="45.5915583" lon="8.6709567"><ele>187.0</ele><time>2026-03-29T13:34:58.935Z</time></trkpt><trkpt lat="45.591525" lon="8.67117"><ele>187.0</ele><time>2026-03-29T13:34:59.935Z</time></trkpt><trkpt lat="45.591495" lon="8.6713667"><ele>186.5</ele><time>2026-03-29T13:35:00.935Z</time></trkpt><trkpt lat="45.5914683" lon="8.67156"><ele>186.0</ele><time>2026-03-29T13:35:01.935Z</time></trkpt><trkpt lat="45.5914417" lon="8.67175"><ele>185.5</ele><time>2026-03-29T13:35:02.935Z</time></trkpt><trkpt lat="45.591415" lon="8.67194"><ele>185.0</ele><time>2026-03-29T13:35:03.935Z</time></trkpt><trkpt lat="45.5913883" lon="8.6721333"><ele>184.25</ele><time>2026-03-29T13:35:04.935Z</time></trkpt><trkpt lat="45.5913517" lon="8.672335"><ele>183.5</ele><time>2026-03-29T13:35:05.935Z</time></trkpt><trkpt lat="45.59133" lon="8.6725367"><ele>182.75</ele><time>2026-03-29T13:35:06.935Z</time></trkpt><trkpt lat="45.5913" lon="8.672745"><ele>182.0</ele><time>2026-03-29T13:35:07.935Z</time></trkpt><trkpt lat="45.591265" lon="8.67296"><ele>182.0</ele><time>2026-03-29T13:35:08.935Z</time></trkpt><trkpt lat="45.5912317" lon="8.6731783"><ele>182.0</ele><time>2026-03-29T13:35:09.935Z</time></trkpt><trkpt lat="45.5911983" lon="8.6734"><ele>182.0</ele><time>2026-03-29T13:35:10.935Z</time></trkpt><trkpt lat="45.5911683" lon="8.6736133"><ele>184.25</ele><time>2026-03-29T13:35:11.935Z</time></trkpt><trkpt lat="45.59113" lon="8.6738217"><ele>186.5</ele><time>2026-03-29T13:35:12.935Z</time></trkpt><trkpt lat="45.5911033" lon="8.67401"><ele>188.75</ele><time>2026-03-29T13:35:13.935Z</time></trkpt><trkpt lat="45.591075" lon="8.6741883"><ele>191.0</ele><time>2026-03-29T13:35:14.935Z</time></trkpt><trkpt lat="45.5910517" lon="8.6743517"><ele>190.0</ele><time>2026-03-29T13:35:15.935Z</time></trkpt><trkpt lat="45.5910183" lon="8.6745083"><ele>189.0</ele><time>2026-03-29T13:35:16.934Z</time></trkpt><trkpt lat="45.590925" lon="8.674815"><ele>188.0</ele><time>2026-03-29T13:35:18.934Z</time></trkpt><trkpt lat="45.59084" lon="8.6749617"><ele>188.0</ele><time>2026-03-29T13:35:19.935Z</time></trkpt><trkpt lat="45.5907317" lon="8.6750917"><ele>188.0</ele><time>2026-03-29T13:35:20.935Z</time></trkpt><trkpt lat="45.5906067" lon="8.6752217"><ele>188.0</ele><time>2026-03-29T13:35:21.935Z</time></trkpt><trkpt lat="45.5904767" lon="8.67534"><ele>188.33333333333331</ele><time>2026-03-29T13:35:22.935Z</time></trkpt><trkpt lat="45.590325" lon="8.6754633"><ele>188.66666666666666</ele><time>2026-03-29T13:35:23.935Z</time></trkpt><trkpt lat="45.5901917" lon="8.67559"><ele>189.0</ele><time>2026-03-29T13:35:24.935Z</time></trkpt><trkpt lat="45.5900483" lon="8.675715"><ele>189.0</ele><time>2026-03-29T13:35:25.935Z</time></trkpt><trkpt lat="45.589905" lon="8.675845"><ele>189.0</ele><time>2026-03-29T13:35:26.935Z</time></trkpt><trkpt lat="45.5897583" lon="8.6759767"><ele>189.0</ele><time>2026-03-29T13:35:27.935Z</time></trkpt><trkpt lat="45.5896117" lon="8.6761133"><ele>186.66666666666666</ele><time>2026-03-29T13:35:28.935Z</time></trkpt><trkpt lat="45.589455" lon="8.67625"><ele>184.33333333333331</ele><time>2026-03-29T13:35:29.935Z</time></trkpt><trkpt lat="45.5893033" lon="8.6763883"><ele>182.0</ele><time>2026-03-29T13:35:30.935Z</time></trkpt><trkpt lat="45.5891533" lon="8.6765267"><ele>182.0</ele><time>2026-03-29T13:35:31.935Z</time></trkpt><trkpt lat="45.589005" lon="8.6766633"><ele>182.0</ele><time>2026-03-29T13:35:32.935Z</time></trkpt><trkpt lat="45.5888667" lon="8.6768033"><ele>182.0</ele><time>2026-03-29T13:35:33.935Z</time></trkpt><trkpt lat="45.5887217" lon="8.676935"><ele>180.0</ele><time>2026-03-29T13:35:34.935Z</time></trkpt><trkpt lat="45.5885883" lon="8.6770583"><ele>178.0</ele><time>2026-03-29T13:35:35.935Z</time></trkpt><trkpt lat="45.588475" lon="8.67718"><ele>176.0</ele><time>2026-03-29T13:35:36.935Z</time></trkpt><trkpt lat="45.5883917" lon="8.6773183"><ele>174.0</ele><time>2026-03-29T13:35:37.934Z</time></trkpt><trkpt lat="45.588335" lon="8.6774783"><ele>174.0</ele><time>2026-03-29T13:35:38.934Z</time></trkpt><trkpt lat="45.58831" lon="8.6776533"><ele>174.0</ele><time>2026-03-29T13:35:39.934Z</time></trkpt><trkpt lat="45.58831" lon="8.6778367"><ele>174.0</ele><time>2026-03-29T13:35:40.935Z</time></trkpt><trkpt lat="45.588355" lon="8.678005"><ele>174.0</ele><time>2026-03-29T13:35:41.935Z</time></trkpt><trkpt lat="45.5884233" lon="8.6781617"><ele>173.25</ele><time>2026-03-29T13:35:42.935Z</time></trkpt><trkpt lat="45.5885267" lon="8.6782867"><ele>172.5</ele><time>2026-03-29T13:35:43.935Z</time></trkpt><trkpt lat="45.5886517" lon="8.6783783"><ele>171.75</ele><time>2026-03-29T13:35:44.935Z</time></trkpt><trkpt lat="45.5887883" lon="8.6784483"><ele>171.0</ele><time>2026-03-29T13:35:45.935Z</time></trkpt><trkpt lat="45.5889383" lon="8.678515"><ele>170.0</ele><time>2026-03-29T13:35:46.935Z</time></trkpt><trkpt lat="45.5892433" lon="8.6786683"><ele>169.0</ele><time>2026-03-29T13:35:48.935Z</time></trkpt><trkpt lat="45.5894033" lon="8.6787483"><ele>170.0</ele><time>2026-03-29T13:35:49.935Z</time></trkpt><trkpt lat="45.5895683" lon="8.678825"><ele>171.0</ele><time>2026-03-29T13:35:50.935Z</time></trkpt><trkpt lat="45.58974" lon="8.6789083"><ele>172.0</ele><time>2026-03-29T13:35:51.935Z</time></trkpt><trkpt lat="45.589905" lon="8.678995"><ele>172.0</ele><time>2026-03-29T13:35:52.935Z</time></trkpt><trkpt lat="45.59008" lon="8.6790783"><ele>172.0</ele><time>2026-03-29T13:35:53.935Z</time></trkpt><trkpt lat="45.590255" lon="8.6791617"><ele>172.0</ele><time>2026-03-29T13:35:54.935Z</time></trkpt><trkpt lat="45.59043" lon="8.6792433"><ele>173.0</ele><time>2026-03-29T13:35:55.935Z</time></trkpt><trkpt lat="45.5905983" lon="8.6793283"><ele>174.0</ele><time>2026-03-29T13:35:56.935Z</time></trkpt><trkpt lat="45.5909117" lon="8.6794967"><ele>170.33333333333334</ele><time>2026-03-29T13:35:58.935Z</time></trkpt><trkpt lat="45.5911933" lon="8.6796017"><ele>166.66666666666669</ele><time>2026-03-29T13:36:00.935Z</time></trkpt><trkpt lat="45.5913467" lon="8.679615"><ele>163.0</ele><time>2026-03-29T13:36:01.935Z</time></trkpt><trkpt lat="45.59151" lon="8.67961"><ele>163.0</ele><time>2026-03-29T13:36:02.935Z</time></trkpt><trkpt lat="45.5916817" lon="8.6795767"><ele>163.0</ele><time>2026-03-29T13:36:03.935Z</time></trkpt><trkpt lat="45.591845" lon="8.6795183"><ele>163.0</ele><time>2026-03-29T13:36:04.935Z</time></trkpt><trkpt lat="45.592005" lon="8.6794533"><ele>162.33333333333334</ele><time>2026-03-29T13:36:05.935Z</time></trkpt><trkpt lat="45.592155" lon="8.679385"><ele>161.66666666666666</ele><time>2026-03-29T13:36:06.935Z</time></trkpt><trkpt lat="45.5922983" lon="8.67932"><ele>161.0</ele><time>2026-03-29T13:36:07.935Z</time></trkpt><trkpt lat="45.5924483" lon="8.6792817"><ele>161.0</ele><time>2026-03-29T13:36:08.935Z</time></trkpt><trkpt lat="45.592605" lon="8.6792633"><ele>161.0</ele><time>2026-03-29T13:36:09.934Z</time></trkpt><trkpt lat="45.5927583" lon="8.6792967"><ele>161.0</ele><time>2026-03-29T13:36:10.934Z</time></trkpt><trkpt lat="45.5929" lon="8.6793867"><ele>159.33333333333331</ele><time>2026-03-29T13:36:11.934Z</time></trkpt><trkpt lat="45.5930283" lon="8.6795067"><ele>157.66666666666666</ele><time>2026-03-29T13:36:12.934Z</time></trkpt><trkpt lat="45.5931433" lon="8.6796567"><ele>156.0</ele><time>2026-03-29T13:36:13.933Z</time></trkpt><trkpt lat="45.5932367" lon="8.6798367"><ele>156.0</ele><time>2026-03-29T13:36:14.933Z</time></trkpt><trkpt lat="45.593305" lon="8.68004"><ele>156.0</ele><time>2026-03-29T13:36:15.934Z</time></trkpt><trkpt lat="45.5933417" lon="8.6802633"><ele>156.0</ele><time>2026-03-29T13:36:16.933Z</time></trkpt><trkpt lat="45.5933933" lon="8.6807317"><ele>155.33333333333334</ele><time>2026-03-29T13:36:18.934Z</time></trkpt><trkpt lat="45.5934167" lon="8.6809517"><ele>154.66666666666669</ele><time>2026-03-29T13:36:19.934Z</time></trkpt><trkpt lat="45.5934417" lon="8.6811717"><ele>154.0</ele><time>2026-03-29T13:36:20.934Z</time></trkpt><trkpt lat="45.593495" lon="8.681615"><ele>153.66666666666669</ele><time>2026-03-29T13:36:22.934Z</time></trkpt><trkpt lat="45.5935267" lon="8.6818433"><ele>153.33333333333334</ele><time>2026-03-29T13:36:23.934Z</time></trkpt><trkpt lat="45.593555" lon="8.6820733"><ele>153.0</ele><time>2026-03-29T13:36:24.934Z</time></trkpt><trkpt lat="45.5935833" lon="8.682305"><ele>153.0</ele><time>2026-03-29T13:36:25.934Z</time></trkpt><trkpt lat="45.5936083" lon="8.6825367"><ele>153.0</ele><time>2026-03-29T13:36:26.934Z</time></trkpt><trkpt lat="45.5936667" lon="8.6830133"><ele>153.5</ele><time>2026-03-29T13:36:28.934Z</time></trkpt><trkpt lat="45.5937017" lon="8.6832633"><ele>154.0</ele><time>2026-03-29T13:36:29.934Z</time></trkpt><trkpt lat="45.593755" lon="8.6837633"><ele>154.0</ele><time>2026-03-29T13:36:31.934Z</time></trkpt><trkpt lat="45.5937883" lon="8.6840217"><ele>154.0</ele><time>2026-03-29T13:36:32.934Z</time></trkpt><trkpt lat="45.5938217" lon="8.68428"><ele>154.0</ele><time>2026-03-29T13:36:33.934Z</time></trkpt><trkpt lat="45.593855" lon="8.6845417"><ele>154.0</ele><time>2026-03-29T13:36:34.934Z</time></trkpt><trkpt lat="45.5938867" lon="8.6847983"><ele>154.0</ele><time>2026-03-29T13:36:35.934Z</time></trkpt><trkpt lat="45.5939133" lon="8.6850533"><ele>154.0</ele><time>2026-03-29T13:36:36.934Z</time></trkpt><trkpt lat="45.593945" lon="8.68531"><ele>154.0</ele><time>2026-03-29T13:36:37.934Z</time></trkpt><trkpt lat="45.59397" lon="8.6855533"><ele>154.0</ele><time>2026-03-29T13:36:38.934Z</time></trkpt><trkpt lat="45.5939983" lon="8.6857783"><ele>154.0</ele><time>2026-03-29T13:36:39.934Z</time></trkpt><trkpt lat="45.5940233" lon="8.685995"><ele>154.33333333333334</ele><time>2026-03-29T13:36:40.934Z</time></trkpt><trkpt lat="45.5940517" lon="8.6862283"><ele>154.66666666666666</ele><time>2026-03-29T13:36:41.934Z</time></trkpt><trkpt lat="45.59408" lon="8.6864717"><ele>155.0</ele><time>2026-03-29T13:36:42.934Z</time></trkpt><trkpt lat="45.59411" lon="8.6867067"><ele>155.0</ele><time>2026-03-29T13:36:43.934Z</time></trkpt><trkpt lat="45.5941383" lon="8.6869533"><ele>155.0</ele><time>2026-03-29T13:36:44.934Z</time></trkpt><trkpt lat="45.594165" lon="8.6872017"><ele>155.0</ele><time>2026-03-29T13:36:45.934Z</time></trkpt><trkpt lat="45.5941983" lon="8.687455"><ele>155.0</ele><time>2026-03-29T13:36:46.933Z</time></trkpt><trkpt lat="45.5942167" lon="8.6877033"><ele>155.0</ele><time>2026-03-29T13:36:47.934Z</time></trkpt><trkpt lat="45.5942367" lon="8.6879517"><ele>155.0</ele><time>2026-03-29T13:36:48.934Z</time></trkpt><trkpt lat="45.5942417" lon="8.688205"><ele>155.0</ele><time>2026-03-29T13:36:49.934Z</time></trkpt><trkpt lat="45.594225" lon="8.6884417"><ele>155.0</ele><time>2026-03-29T13:36:50.934Z</time></trkpt><trkpt lat="45.5941833" lon="8.6886733"><ele>155.0</ele><time>2026-03-29T13:36:51.934Z</time></trkpt><trkpt lat="45.5941217" lon="8.688895"><ele>155.0</ele><time>2026-03-29T13:36:52.934Z</time></trkpt><trkpt lat="45.5940433" lon="8.6890983"><ele>155.0</ele><time>2026-03-29T13:36:53.934Z</time></trkpt><trkpt lat="45.5939517" lon="8.6893033"><ele>155.0</ele><time>2026-03-29T13:36:54.934Z</time></trkpt><trkpt lat="45.5938483" lon="8.6894983"><ele>155.0</ele><time>2026-03-29T13:36:55.934Z</time></trkpt><trkpt lat="45.5937417" lon="8.6896883"><ele>155.0</ele><time>2026-03-29T13:36:56.934Z</time></trkpt><trkpt lat="45.59364" lon="8.6898717"><ele>155.0</ele><time>2026-03-29T13:36:57.934Z</time></trkpt><trkpt lat="45.5935283" lon="8.6900617"><ele>155.0</ele><time>2026-03-29T13:36:58.934Z</time></trkpt><trkpt lat="45.5934217" lon="8.6902483"><ele>155.0</ele><time>2026-03-29T13:36:59.934Z</time></trkpt><trkpt lat="45.5933067" lon="8.6904383"><ele>155.0</ele><time>2026-03-29T13:37:00.934Z</time></trkpt><trkpt lat="45.5931983" lon="8.6906233"><ele>155.0</ele><time>2026-03-29T13:37:01.934Z</time></trkpt><trkpt lat="45.5930883" lon="8.6908133"><ele>155.0</ele><time>2026-03-29T13:37:02.934Z</time></trkpt><trkpt lat="45.5929783" lon="8.69101"><ele>155.0</ele><time>2026-03-29T13:37:03.934Z</time></trkpt><trkpt lat="45.5928633" lon="8.6912117"><ele>155.33333333333331</ele><time>2026-03-29T13:37:04.934Z</time></trkpt><trkpt lat="45.59275" lon="8.691415"><ele>155.66666666666666</ele><time>2026-03-29T13:37:05.934Z</time></trkpt><trkpt lat="45.5926383" lon="8.691615"><ele>156.0</ele><time>2026-03-29T13:37:06.934Z</time></trkpt><trkpt lat="45.59253" lon="8.6918117"><ele>156.0</ele><time>2026-03-29T13:37:07.934Z</time></trkpt><trkpt lat="45.5924283" lon="8.6920033"><ele>156.0</ele><time>2026-03-29T13:37:08.934Z</time></trkpt><trkpt lat="45.5923217" lon="8.6921883"><ele>156.0</ele><time>2026-03-29T13:37:09.934Z</time></trkpt><trkpt lat="45.5922117" lon="8.69237"><ele>156.0</ele><time>2026-03-29T13:37:10.934Z</time></trkpt><trkpt lat="45.5921067" lon="8.6925417"><ele>156.0</ele><time>2026-03-29T13:37:11.933Z</time></trkpt><trkpt lat="45.5920117" lon="8.6927167"><ele>156.0</ele><time>2026-03-29T13:37:12.934Z</time></trkpt><trkpt lat="45.5919183" lon="8.6928867"><ele>156.25</ele><time>2026-03-29T13:37:13.934Z</time></trkpt><trkpt lat="45.59184" lon="8.6930533"><ele>156.5</ele><time>2026-03-29T13:37:14.934Z</time></trkpt><trkpt lat="45.5917533" lon="8.6932117"><ele>156.75</ele><time>2026-03-29T13:37:15.934Z</time></trkpt><trkpt lat="45.5916717" lon="8.6933617"><ele>157.0</ele><time>2026-03-29T13:37:16.934Z</time></trkpt><trkpt lat="45.5915883" lon="8.6935133"><ele>156.75</ele><time>2026-03-29T13:37:17.934Z</time></trkpt><trkpt lat="45.5915067" lon="8.693675"><ele>156.5</ele><time>2026-03-29T13:37:18.934Z</time></trkpt><trkpt lat="45.5914283" lon="8.693855"><ele>156.25</ele><time>2026-03-29T13:37:19.934Z</time></trkpt><trkpt lat="45.5913533" lon="8.6940567"><ele>156.0</ele><time>2026-03-29T13:37:20.934Z</time></trkpt><trkpt lat="45.591295" lon="8.694275"><ele>156.0</ele><time>2026-03-29T13:37:21.934Z</time></trkpt><trkpt lat="45.5912367" lon="8.6944967"><ele>156.0</ele><time>2026-03-29T13:37:22.934Z</time></trkpt><trkpt lat="45.591175" lon="8.6947383"><ele>156.0</ele><time>2026-03-29T13:37:23.934Z</time></trkpt><trkpt lat="45.59112" lon="8.6949883"><ele>156.0</ele><time>2026-03-29T13:37:24.933Z</time></trkpt><trkpt lat="45.5910483" lon="8.6952483"><ele>156.0</ele><time>2026-03-29T13:37:25.934Z</time></trkpt><trkpt lat="45.5909783" lon="8.6955117"><ele>156.0</ele><time>2026-03-29T13:37:26.934Z</time></trkpt><trkpt lat="45.59091" lon="8.695785"><ele>156.0</ele><time>2026-03-29T13:37:27.934Z</time></trkpt><trkpt lat="45.5908433" lon="8.6960467"><ele>156.0</ele><time>2026-03-29T13:37:28.934Z</time></trkpt><trkpt lat="45.59077" lon="8.6963067"><ele>156.0</ele><time>2026-03-29T13:37:29.934Z</time></trkpt><trkpt lat="45.5907" lon="8.6965667"><ele>156.0</ele><time>2026-03-29T13:37:30.934Z</time></trkpt><trkpt lat="45.5906383" lon="8.6968133"><ele>156.0</ele><time>2026-03-29T13:37:31.934Z</time></trkpt><trkpt lat="45.59057" lon="8.6970733"><ele>156.0</ele><time>2026-03-29T13:37:32.934Z</time></trkpt><trkpt lat="45.5904967" lon="8.69735"><ele>156.0</ele><time>2026-03-29T13:37:33.934Z</time></trkpt><trkpt lat="45.59043" lon="8.6976083"><ele>156.0</ele><time>2026-03-29T13:37:34.933Z</time></trkpt><trkpt lat="45.59036" lon="8.697875"><ele>156.0</ele><time>2026-03-29T13:37:35.934Z</time></trkpt><trkpt lat="45.5902917" lon="8.69815"><ele>156.0</ele><time>2026-03-29T13:37:36.934Z</time></trkpt><trkpt lat="45.5902217" lon="8.69842"><ele>156.0</ele><time>2026-03-29T13:37:37.934Z</time></trkpt><trkpt lat="45.5901517" lon="8.6986967"><ele>156.0</ele><time>2026-03-29T13:37:38.934Z</time></trkpt><trkpt lat="45.59008" lon="8.6989683"><ele>155.66666666666666</ele><time>2026-03-29T13:37:39.934Z</time></trkpt><trkpt lat="45.590015" lon="8.6992367"><ele>155.33333333333331</ele><time>2026-03-29T13:37:40.934Z</time></trkpt><trkpt lat="45.5899433" lon="8.6995033"><ele>155.0</ele><time>2026-03-29T13:37:41.934Z</time></trkpt><trkpt lat="45.58988" lon="8.6997567"><ele>155.0</ele><time>2026-03-29T13:37:42.934Z</time></trkpt><trkpt lat="45.589825" lon="8.6999967"><ele>155.0</ele><time>2026-03-29T13:37:43.934Z</time></trkpt><trkpt lat="45.5897767" lon="8.7002183"><ele>155.0</ele><time>2026-03-29T13:37:44.934Z</time></trkpt><trkpt lat="45.5897483" lon="8.700435"><ele>155.0</ele><time>2026-03-29T13:37:45.934Z</time></trkpt><trkpt lat="45.589725" lon="8.7006517"><ele>155.0</ele><time>2026-03-29T13:37:46.934Z</time></trkpt><trkpt lat="45.5897033" lon="8.7008733"><ele>155.0</ele><time>2026-03-29T13:37:47.934Z</time></trkpt><trkpt lat="45.5896917" lon="8.7010917"><ele>155.5</ele><time>2026-03-29T13:37:48.934Z</time></trkpt><trkpt lat="45.5896833" lon="8.70131"><ele>156.0</ele><time>2026-03-29T13:37:49.934Z</time></trkpt><trkpt lat="45.5896817" lon="8.7015133"><ele>156.5</ele><time>2026-03-29T13:37:50.934Z</time></trkpt><trkpt lat="45.5896783" lon="8.7017033"><ele>157.0</ele><time>2026-03-29T13:37:51.934Z</time></trkpt><trkpt lat="45.5896683" lon="8.70189"><ele>156.75</ele><time>2026-03-29T13:37:52.934Z</time></trkpt><trkpt lat="45.5896567" lon="8.7020733"><ele>156.5</ele><time>2026-03-29T13:37:53.934Z</time></trkpt><trkpt lat="45.5896383" lon="8.7022783"><ele>156.25</ele><time>2026-03-29T13:37:54.934Z</time></trkpt><trkpt lat="45.5896283" lon="8.70248"><ele>156.0</ele><time>2026-03-29T13:37:55.934Z</time></trkpt><trkpt lat="45.589625" lon="8.70269"><ele>155.0</ele><time>2026-03-29T13:37:56.934Z</time></trkpt><trkpt lat="45.589615" lon="8.7029083"><ele>154.0</ele><time>2026-03-29T13:37:57.934Z</time></trkpt><trkpt lat="45.589605" lon="8.7031367"><ele>153.0</ele><time>2026-03-29T13:37:58.934Z</time></trkpt><trkpt lat="45.589585" lon="8.7033617"><ele>153.0</ele><time>2026-03-29T13:37:59.934Z</time></trkpt><trkpt lat="45.5895817" lon="8.7035667"><ele>153.0</ele><time>2026-03-29T13:38:00.934Z</time></trkpt><trkpt lat="45.5895667" lon="8.703785"><ele>153.0</ele><time>2026-03-29T13:38:01.934Z</time></trkpt><trkpt lat="45.58957" lon="8.7039533"><ele>153.0</ele><time>2026-03-29T13:38:02.934Z</time></trkpt><trkpt lat="45.5895667" lon="8.70411"><ele>151.8</ele><time>2026-03-29T13:38:03.934Z</time></trkpt><trkpt lat="45.5895667" lon="8.7042433"><ele>150.60000000000002</ele><time>2026-03-29T13:38:04.934Z</time></trkpt><trkpt lat="45.5895633" lon="8.70437"><ele>149.39999999999998</ele><time>2026-03-29T13:38:05.934Z</time></trkpt><trkpt lat="45.5895567" lon="8.7044733"><ele>148.2</ele><time>2026-03-29T13:38:06.934Z</time></trkpt><trkpt lat="45.5895483" lon="8.704615"><ele>147.0</ele><time>2026-03-29T13:38:07.934Z</time></trkpt><trkpt lat="45.5895367" lon="8.7047567"><ele>147.0</ele><time>2026-03-29T13:38:08.934Z</time></trkpt><trkpt lat="45.5895317" lon="8.7048983"><ele>147.0</ele><time>2026-03-29T13:38:09.934Z</time></trkpt><trkpt lat="45.5895283" lon="8.7050383"><ele>147.0</ele><time>2026-03-29T13:38:10.934Z</time></trkpt><trkpt lat="45.5895267" lon="8.7051717"><ele>147.0</ele><time>2026-03-29T13:38:11.933Z</time></trkpt><trkpt lat="45.5895217" lon="8.70529"><ele>147.0</ele><time>2026-03-29T13:38:12.934Z</time></trkpt><trkpt lat="45.5895167" lon="8.7054033"><ele>148.4</ele><time>2026-03-29T13:38:13.934Z</time></trkpt><trkpt lat="45.5895067" lon="8.7055183"><ele>149.79999999999998</ele><time>2026-03-29T13:38:14.934Z</time></trkpt><trkpt lat="45.589495" lon="8.70564"><ele>151.2</ele><time>2026-03-29T13:38:15.934Z</time></trkpt><trkpt lat="45.5894717" lon="8.7057767"><ele>152.6</ele><time>2026-03-29T13:38:16.934Z</time></trkpt><trkpt lat="45.58943" lon="8.7059233"><ele>154.0</ele><time>2026-03-29T13:38:17.934Z</time></trkpt><trkpt lat="45.5893783" lon="8.7060517"><ele>155.0</ele><time>2026-03-29T13:38:18.934Z</time></trkpt><trkpt lat="45.5893133" lon="8.7061567"><ele>156.0</ele><time>2026-03-29T13:38:19.934Z</time></trkpt><trkpt lat="45.58923" lon="8.7062533"><ele>157.0</ele><time>2026-03-29T13:38:20.934Z</time></trkpt><trkpt lat="45.5891283" lon="8.7063433"><ele>158.0</ele><time>2026-03-29T13:38:21.934Z</time></trkpt><trkpt lat="45.58901" lon="8.7063867"><ele>159.0</ele><time>2026-03-29T13:38:22.934Z</time></trkpt><trkpt lat="45.5888767" lon="8.706405"><ele>159.0</ele><time>2026-03-29T13:38:23.934Z</time></trkpt><trkpt lat="45.588735" lon="8.7064117"><ele>159.0</ele><time>2026-03-29T13:38:24.934Z</time></trkpt><trkpt lat="45.5885933" lon="8.7063783"><ele>159.0</ele><time>2026-03-29T13:38:25.934Z</time></trkpt><trkpt lat="45.5884483" lon="8.7063117"><ele>159.0</ele><time>2026-03-29T13:38:26.934Z</time></trkpt><trkpt lat="45.588305" lon="8.7062233"><ele>160.0</ele><time>2026-03-29T13:38:27.934Z</time></trkpt><trkpt lat="45.588155" lon="8.706155"><ele>161.0</ele><time>2026-03-29T13:38:28.934Z</time></trkpt><trkpt lat="45.5880067" lon="8.7060833"><ele>162.0</ele><time>2026-03-29T13:38:29.934Z</time></trkpt><trkpt lat="45.5878667" lon="8.7060033"><ele>160.75</ele><time>2026-03-29T13:38:30.934Z</time></trkpt><trkpt lat="45.5877333" lon="8.7059283"><ele>159.5</ele><time>2026-03-29T13:38:31.933Z</time></trkpt><trkpt lat="45.5876117" lon="8.7058717"><ele>158.25</ele><time>2026-03-29T13:38:32.934Z</time></trkpt><trkpt lat="45.5874833" lon="8.70583"><ele>157.0</ele><time>2026-03-29T13:38:33.934Z</time></trkpt><trkpt lat="45.5873583" lon="8.7058283"><ele>157.0</ele><time>2026-03-29T13:38:34.933Z</time></trkpt><trkpt lat="45.5872383" lon="8.705855"><ele>157.0</ele><time>2026-03-29T13:38:35.934Z</time></trkpt><trkpt lat="45.5871183" lon="8.7059"><ele>157.0</ele><time>2026-03-29T13:38:36.934Z</time></trkpt><trkpt lat="45.5870183" lon="8.705955"><ele>157.0</ele><time>2026-03-29T13:38:37.934Z</time></trkpt><trkpt lat="45.5869267" lon="8.7060167"><ele>156.66666666666669</ele><time>2026-03-29T13:38:38.934Z</time></trkpt><trkpt lat="45.5868583" lon="8.7060667"><ele>156.33333333333334</ele><time>2026-03-29T13:38:39.934Z</time></trkpt><trkpt lat="45.5867817" lon="8.70612"><ele>156.0</ele><time>2026-03-29T13:38:41.934Z</time></trkpt><trkpt lat="45.5867433" lon="8.7062133"><ele>155.66666666666666</ele><time>2026-03-29T13:40:40.933Z</time></trkpt><trkpt lat="45.5867083" lon="8.7063633"><ele>155.33333333333331</ele><time>2026-03-29T13:40:42.933Z</time></trkpt><trkpt lat="45.5866767" lon="8.7064633"><ele>155.0</ele><time>2026-03-29T13:40:43.933Z</time></trkpt><trkpt lat="45.5866367" lon="8.7065667"><ele>156.4</ele><time>2026-03-29T13:40:44.933Z</time></trkpt><trkpt lat="45.586585" lon="8.7066933"><ele>157.8</ele><time>2026-03-29T13:40:45.933Z</time></trkpt><trkpt lat="45.5865267" lon="8.7068367"><ele>159.2</ele><time>2026-03-29T13:40:46.933Z</time></trkpt><trkpt lat="45.5864667" lon="8.7069717"><ele>160.6</ele><time>2026-03-29T13:40:47.933Z</time></trkpt><trkpt lat="45.5864033" lon="8.707095"><ele>162.0</ele><time>2026-03-29T13:40:48.933Z</time></trkpt><trkpt lat="45.586325" lon="8.7071967"><ele>163.5</ele><time>2026-03-29T13:40:49.933Z</time></trkpt><trkpt lat="45.5862383" lon="8.7072733"><ele>165.0</ele><time>2026-03-29T13:40:50.933Z</time></trkpt><trkpt lat="45.58613" lon="8.7073517"><ele>166.5</ele><time>2026-03-29T13:40:51.933Z</time></trkpt><trkpt lat="45.586015" lon="8.7074033"><ele>168.0</ele><time>2026-03-29T13:40:52.933Z</time></trkpt><trkpt lat="45.58588" lon="8.7074517"><ele>168.0</ele><time>2026-03-29T13:40:53.933Z</time></trkpt><trkpt lat="45.58572" lon="8.70748"><ele>168.0</ele><time>2026-03-29T13:40:54.933Z</time></trkpt><trkpt lat="45.5855617" lon="8.7074933"><ele>168.0</ele><time>2026-03-29T13:40:55.933Z</time></trkpt><trkpt lat="45.5853983" lon="8.7075017"><ele>169.66666666666666</ele><time>2026-03-29T13:40:56.932Z</time></trkpt><trkpt lat="45.58523" lon="8.7074967"><ele>171.33333333333331</ele><time>2026-03-29T13:40:57.933Z</time></trkpt><trkpt lat="45.58505" lon="8.70748"><ele>173.0</ele><time>2026-03-29T13:40:58.933Z</time></trkpt><trkpt lat="45.5848517" lon="8.7074617"><ele>173.0</ele><time>2026-03-29T13:40:59.933Z</time></trkpt><trkpt lat="45.584665" lon="8.7074217"><ele>173.0</ele><time>2026-03-29T13:41:00.933Z</time></trkpt><trkpt lat="45.58447" lon="8.7073833"><ele>173.0</ele><time>2026-03-29T13:41:01.933Z</time></trkpt><trkpt lat="45.5842733" lon="8.7073417"><ele>173.0</ele><time>2026-03-29T13:41:02.933Z</time></trkpt><trkpt lat="45.5840767" lon="8.7072967"><ele>173.0</ele><time>2026-03-29T13:41:03.933Z</time></trkpt><trkpt lat="45.5838867" lon="8.7072467"><ele>173.0</ele><time>2026-03-29T13:41:04.933Z</time></trkpt><trkpt lat="45.5836833" lon="8.707205"><ele>175.33333333333331</ele><time>2026-03-29T13:41:05.933Z</time></trkpt><trkpt lat="45.58349" lon="8.7071617"><ele>177.66666666666666</ele><time>2026-03-29T13:41:06.933Z</time></trkpt><trkpt lat="45.583305" lon="8.70713"><ele>180.0</ele><time>2026-03-29T13:41:07.933Z</time></trkpt><trkpt lat="45.5831233" lon="8.7070933"><ele>180.0</ele><time>2026-03-29T13:41:08.933Z</time></trkpt><trkpt lat="45.582955" lon="8.7070733"><ele>180.0</ele><time>2026-03-29T13:41:09.933Z</time></trkpt><trkpt lat="45.5827983" lon="8.7070833"><ele>180.0</ele><time>2026-03-29T13:41:10.932Z</time></trkpt><trkpt lat="45.58264" lon="8.70712"><ele>178.66666666666666</ele><time>2026-03-29T13:41:11.932Z</time></trkpt><trkpt lat="45.5824667" lon="8.7071967"><ele>177.33333333333331</ele><time>2026-03-29T13:41:12.933Z</time></trkpt><trkpt lat="45.5823033" lon="8.7073017"><ele>176.0</ele><time>2026-03-29T13:41:13.933Z</time></trkpt><trkpt lat="45.5821417" lon="8.7074133"><ele>176.33333333333331</ele><time>2026-03-29T13:41:14.933Z</time></trkpt><trkpt lat="45.58199" lon="8.70755"><ele>176.66666666666666</ele><time>2026-03-29T13:41:15.933Z</time></trkpt><trkpt lat="45.5818517" lon="8.7077283"><ele>177.0</ele><time>2026-03-29T13:41:16.933Z</time></trkpt><trkpt lat="45.581725" lon="8.7079333"><ele>177.0</ele><time>2026-03-29T13:41:17.933Z</time></trkpt><trkpt lat="45.58161" lon="8.70816"><ele>177.0</ele><time>2026-03-29T13:41:18.933Z</time></trkpt><trkpt lat="45.5815067" lon="8.7084017"><ele>177.0</ele><time>2026-03-29T13:41:19.933Z</time></trkpt><trkpt lat="45.5813933" lon="8.708655"><ele>175.33333333333334</ele><time>2026-03-29T13:41:20.933Z</time></trkpt><trkpt lat="45.58126" lon="8.708885"><ele>173.66666666666669</ele><time>2026-03-29T13:41:21.933Z</time></trkpt><trkpt lat="45.58111" lon="8.7091083"><ele>172.0</ele><time>2026-03-29T13:41:22.933Z</time></trkpt><trkpt lat="45.58095" lon="8.7092967"><ele>175.66666666666669</ele><time>2026-03-29T13:41:23.933Z</time></trkpt><trkpt lat="45.5808083" lon="8.709495"><ele>179.33333333333334</ele><time>2026-03-29T13:41:24.933Z</time></trkpt><trkpt lat="45.580645" lon="8.7096933"><ele>183.0</ele><time>2026-03-29T13:41:25.933Z</time></trkpt><trkpt lat="45.580465" lon="8.7098883"><ele>183.0</ele><time>2026-03-29T13:41:26.932Z</time></trkpt><trkpt lat="45.5802983" lon="8.7100967"><ele>183.0</ele><time>2026-03-29T13:41:27.933Z</time></trkpt><trkpt lat="45.580125" lon="8.7103067"><ele>183.0</ele><time>2026-03-29T13:41:28.933Z</time></trkpt><trkpt lat="45.57995" lon="8.71052"><ele>183.0</ele><time>2026-03-29T13:41:29.933Z</time></trkpt><trkpt lat="45.5797733" lon="8.7107233"><ele>183.0</ele><time>2026-03-29T13:41:30.933Z</time></trkpt><trkpt lat="45.5796" lon="8.7109283"><ele>183.66666666666666</ele><time>2026-03-29T13:41:31.932Z</time></trkpt><trkpt lat="45.5794317" lon="8.7111167"><ele>184.33333333333331</ele><time>2026-03-29T13:41:32.933Z</time></trkpt><trkpt lat="45.5792683" lon="8.71128"><ele>185.0</ele><time>2026-03-29T13:41:33.933Z</time></trkpt><trkpt lat="45.5791117" lon="8.7114267"><ele>185.0</ele><time>2026-03-29T13:41:34.933Z</time></trkpt><trkpt lat="45.578945" lon="8.711575"><ele>185.0</ele><time>2026-03-29T13:41:35.933Z</time></trkpt><trkpt lat="45.5787717" lon="8.7117117"><ele>185.0</ele><time>2026-03-29T13:41:36.933Z</time></trkpt><trkpt lat="45.5785917" lon="8.7118267"><ele>186.33333333333331</ele><time>2026-03-29T13:41:37.933Z</time></trkpt><trkpt lat="45.5784183" lon="8.7119333"><ele>187.66666666666666</ele><time>2026-03-29T13:41:38.933Z</time></trkpt><trkpt lat="45.5782583" lon="8.71201"><ele>189.0</ele><time>2026-03-29T13:41:39.933Z</time></trkpt><trkpt lat="45.5781017" lon="8.7120833"><ele>189.0</ele><time>2026-03-29T13:41:40.933Z</time></trkpt><trkpt lat="45.57796" lon="8.7121383"><ele>189.0</ele><time>2026-03-29T13:41:41.932Z</time></trkpt><trkpt lat="45.5778083" lon="8.712195"><ele>189.0</ele><time>2026-03-29T13:41:42.933Z</time></trkpt><trkpt lat="45.5776633" lon="8.7122617"><ele>189.25</ele><time>2026-03-29T13:41:43.933Z</time></trkpt><trkpt lat="45.5775283" lon="8.71235"><ele>189.5</ele><time>2026-03-29T13:41:44.933Z</time></trkpt><trkpt lat="45.5774117" lon="8.71247"><ele>189.75</ele><time>2026-03-29T13:41:45.933Z</time></trkpt><trkpt lat="45.5773133" lon="8.7126217"><ele>190.0</ele><time>2026-03-29T13:41:46.933Z</time></trkpt><trkpt lat="45.5772567" lon="8.7127983"><ele>190.0</ele><time>2026-03-29T13:41:47.933Z</time></trkpt><trkpt lat="45.5772217" lon="8.7129833"><ele>190.0</ele><time>2026-03-29T13:41:48.933Z</time></trkpt><trkpt lat="45.5772133" lon="8.7131783"><ele>190.0</ele><time>2026-03-29T13:41:49.933Z</time></trkpt><trkpt lat="45.5772133" lon="8.7133733"><ele>190.0</ele><time>2026-03-29T13:41:50.933Z</time></trkpt><trkpt lat="45.577215" lon="8.7135733"><ele>191.0</ele><time>2026-03-29T13:41:51.933Z</time></trkpt><trkpt lat="45.577225" lon="8.71378"><ele>192.0</ele><time>2026-03-29T13:41:52.933Z</time></trkpt><trkpt lat="45.577245" lon="8.713995"><ele>193.0</ele><time>2026-03-29T13:41:53.933Z</time></trkpt><trkpt lat="45.5772717" lon="8.714215"><ele>190.66666666666666</ele><time>2026-03-29T13:41:54.932Z</time></trkpt><trkpt lat="45.5773283" lon="8.71441"><ele>188.33333333333331</ele><time>2026-03-29T13:41:55.933Z</time></trkpt><trkpt lat="45.5774067" lon="8.7145933"><ele>186.0</ele><time>2026-03-29T13:41:56.933Z</time></trkpt><trkpt lat="45.577495" lon="8.714775"><ele>186.0</ele><time>2026-03-29T13:41:57.933Z</time></trkpt><trkpt lat="45.5776017" lon="8.71494"><ele>186.0</ele><time>2026-03-29T13:41:58.933Z</time></trkpt><trkpt lat="45.577705" lon="8.7150983"><ele>186.0</ele><time>2026-03-29T13:41:59.933Z</time></trkpt><trkpt lat="45.577815" lon="8.7152617"><ele>187.66666666666666</ele><time>2026-03-29T13:42:00.933Z</time></trkpt><trkpt lat="45.5779233" lon="8.7154233"><ele>189.33333333333331</ele><time>2026-03-29T13:42:01.933Z</time></trkpt><trkpt lat="45.57802" lon="8.7155917"><ele>191.0</ele><time>2026-03-29T13:42:02.932Z</time></trkpt><trkpt lat="45.5781233" lon="8.7157533"><ele>191.0</ele><time>2026-03-29T13:42:03.933Z</time></trkpt><trkpt lat="45.5782167" lon="8.715895"><ele>191.0</ele><time>2026-03-29T13:42:04.933Z</time></trkpt><trkpt lat="45.578305" lon="8.7160333"><ele>191.0</ele><time>2026-03-29T13:42:05.933Z</time></trkpt><trkpt lat="45.5783933" lon="8.7161767"><ele>191.0</ele><time>2026-03-29T13:42:06.933Z</time></trkpt><trkpt lat="45.5784867" lon="8.7163133"><ele>190.4</ele><time>2026-03-29T13:42:07.932Z</time></trkpt><trkpt lat="45.5785617" lon="8.716425"><ele>189.8</ele><time>2026-03-29T13:42:08.933Z</time></trkpt><trkpt lat="45.5786183" lon="8.7165217"><ele>189.20000000000002</ele><time>2026-03-29T13:42:09.933Z</time></trkpt><trkpt lat="45.5786767" lon="8.7166067"><ele>188.60000000000002</ele><time>2026-03-29T13:42:10.933Z</time></trkpt><trkpt lat="45.578725" lon="8.7166883"><ele>188.0</ele><time>2026-03-29T13:42:11.933Z</time></trkpt><trkpt lat="45.5787983" lon="8.7168183"><ele>189.33333333333331</ele><time>2026-03-29T13:42:13.933Z</time></trkpt><trkpt lat="45.5788617" lon="8.716935"><ele>190.66666666666666</ele><time>2026-03-29T13:42:15.933Z</time></trkpt><trkpt lat="45.5788867" lon="8.7170883"><ele>192.0</ele><time>2026-03-29T13:42:17.933Z</time></trkpt><trkpt lat="45.57889" lon="8.71718"><ele>193.33333333333331</ele><time>2026-03-29T13:42:18.932Z</time></trkpt><trkpt lat="45.5789067" lon="8.7172767"><ele>194.66666666666666</ele><time>2026-03-29T13:42:19.933Z</time></trkpt><trkpt lat="45.5789483" lon="8.7173833"><ele>196.0</ele><time>2026-03-29T13:42:20.933Z</time></trkpt><trkpt lat="45.5790117" lon="8.7174833"><ele>196.0</ele><time>2026-03-29T13:42:21.933Z</time></trkpt><trkpt lat="45.57909" lon="8.71756"><ele>196.0</ele><time>2026-03-29T13:42:22.933Z</time></trkpt><trkpt lat="45.5791867" lon="8.7176233"><ele>196.0</ele><time>2026-03-29T13:42:23.933Z</time></trkpt><trkpt lat="45.5792983" lon="8.717705"><ele>196.0</ele><time>2026-03-29T13:42:24.933Z</time></trkpt><trkpt lat="45.5793983" lon="8.7178017"><ele>196.0</ele><time>2026-03-29T13:42:25.933Z</time></trkpt><trkpt lat="45.579485" lon="8.7179217"><ele>196.0</ele><time>2026-03-29T13:42:26.932Z</time></trkpt><trkpt lat="45.579565" lon="8.718045"><ele>196.0</ele><time>2026-03-29T13:42:27.933Z</time></trkpt><trkpt lat="45.57965" lon="8.718165"><ele>196.0</ele><time>2026-03-29T13:42:28.933Z</time></trkpt><trkpt lat="45.5797267" lon="8.7183"><ele>196.0</ele><time>2026-03-29T13:42:29.933Z</time></trkpt><trkpt lat="45.5798183" lon="8.718435"><ele>195.66666666666666</ele><time>2026-03-29T13:42:30.933Z</time></trkpt><trkpt lat="45.5799167" lon="8.7185883"><ele>195.33333333333331</ele><time>2026-03-29T13:42:31.933Z</time></trkpt><trkpt lat="45.5800283" lon="8.7187633"><ele>195.0</ele><time>2026-03-29T13:42:32.933Z</time></trkpt><trkpt lat="45.5801483" lon="8.7189533"><ele>195.0</ele><time>2026-03-29T13:42:33.932Z</time></trkpt><trkpt lat="45.5802683" lon="8.7191467"><ele>195.0</ele><time>2026-03-29T13:42:34.931Z</time></trkpt><trkpt lat="45.5803967" lon="8.7193533"><ele>195.0</ele><time>2026-03-29T13:42:35.932Z</time></trkpt><trkpt lat="45.580525" lon="8.7195583"><ele>195.33333333333331</ele><time>2026-03-29T13:42:36.932Z</time></trkpt><trkpt lat="45.580655" lon="8.7197633"><ele>195.66666666666666</ele><time>2026-03-29T13:42:37.932Z</time></trkpt><trkpt lat="45.5807883" lon="8.71997"><ele>196.0</ele><time>2026-03-29T13:42:38.932Z</time></trkpt><trkpt lat="45.5809183" lon="8.7201767"><ele>196.0</ele><time>2026-03-29T13:42:39.932Z</time></trkpt><trkpt lat="45.581055" lon="8.7204"><ele>196.0</ele><time>2026-03-29T13:42:40.931Z</time></trkpt><trkpt lat="45.5811917" lon="8.720615"><ele>196.0</ele><time>2026-03-29T13:42:41.932Z</time></trkpt><trkpt lat="45.5813183" lon="8.7208133"><ele>195.66666666666666</ele><time>2026-03-29T13:42:42.932Z</time></trkpt><trkpt lat="45.581435" lon="8.721"><ele>195.33333333333331</ele><time>2026-03-29T13:42:43.932Z</time></trkpt><trkpt lat="45.5815483" lon="8.72118"><ele>195.0</ele><time>2026-03-29T13:42:44.932Z</time></trkpt><trkpt lat="45.5816583" lon="8.7213517"><ele>195.0</ele><time>2026-03-29T13:42:45.932Z</time></trkpt><trkpt lat="45.58177" lon="8.72152"><ele>195.0</ele><time>2026-03-29T13:42:46.932Z</time></trkpt><trkpt lat="45.581875" lon="8.7216883"><ele>195.0</ele><time>2026-03-29T13:42:47.932Z</time></trkpt><trkpt lat="45.581975" lon="8.72186"><ele>196.33333333333331</ele><time>2026-03-29T13:42:48.932Z</time></trkpt><trkpt lat="45.58208" lon="8.7220217"><ele>197.66666666666666</ele><time>2026-03-29T13:42:49.932Z</time></trkpt><trkpt lat="45.5821833" lon="8.7221883"><ele>199.0</ele><time>2026-03-29T13:42:50.931Z</time></trkpt><trkpt lat="45.5822867" lon="8.72235"><ele>199.0</ele><time>2026-03-29T13:42:51.932Z</time></trkpt><trkpt lat="45.5823867" lon="8.7225117"><ele>199.0</ele><time>2026-03-29T13:42:52.932Z</time></trkpt><trkpt lat="45.58249" lon="8.722675"><ele>199.0</ele><time>2026-03-29T13:42:53.932Z</time></trkpt><trkpt lat="45.5825917" lon="8.7228333"><ele>199.0</ele><time>2026-03-29T13:42:54.932Z</time></trkpt><trkpt lat="45.58269" lon="8.72299"><ele>199.0</ele><time>2026-03-29T13:42:55.932Z</time></trkpt><trkpt lat="45.5827883" lon="8.72314"><ele>199.0</ele><time>2026-03-29T13:42:56.932Z</time></trkpt><trkpt lat="45.5828867" lon="8.7232933"><ele>199.0</ele><time>2026-03-29T13:42:57.932Z</time></trkpt><trkpt lat="45.58298" lon="8.7234483"><ele>199.25</ele><time>2026-03-29T13:42:58.932Z</time></trkpt><trkpt lat="45.5830683" lon="8.7235867"><ele>199.5</ele><time>2026-03-29T13:42:59.932Z</time></trkpt><trkpt lat="45.58315" lon="8.7237217"><ele>199.75</ele><time>2026-03-29T13:43:00.932Z</time></trkpt><trkpt lat="45.583235" lon="8.72386"><ele>200.0</ele><time>2026-03-29T13:43:01.932Z</time></trkpt><trkpt lat="45.583315" lon="8.7239917"><ele>200.0</ele><time>2026-03-29T13:43:02.932Z</time></trkpt><trkpt lat="45.5834" lon="8.72412"><ele>200.0</ele><time>2026-03-29T13:43:03.932Z</time></trkpt><trkpt lat="45.5834833" lon="8.7242483"><ele>200.0</ele><time>2026-03-29T13:43:04.932Z</time></trkpt><trkpt lat="45.5835667" lon="8.7243583"><ele>200.0</ele><time>2026-03-29T13:43:05.932Z</time></trkpt><trkpt lat="45.5836383" lon="8.7244767"><ele>199.50000000000003</ele><time>2026-03-29T13:43:06.932Z</time></trkpt><trkpt lat="45.5837" lon="8.72458"><ele>199.0</ele><time>2026-03-29T13:43:07.932Z</time></trkpt><trkpt lat="45.5837583" lon="8.7246783"><ele>198.5</ele><time>2026-03-29T13:43:08.932Z</time></trkpt><trkpt lat="45.5838067" lon="8.7247617"><ele>198.0</ele><time>2026-03-29T13:43:09.932Z</time></trkpt><trkpt lat="45.5838533" lon="8.724835"><ele>197.50000000000003</ele><time>2026-03-29T13:43:10.932Z</time></trkpt><trkpt lat="45.5839267" lon="8.7249633"><ele>197.0</ele><time>2026-03-29T13:43:12.932Z</time></trkpt><trkpt lat="45.5839833" lon="8.7250833"><ele>196.39999999999998</ele><time>2026-03-29T13:43:14.932Z</time></trkpt><trkpt lat="45.584" lon="8.7252483"><ele>195.79999999999998</ele><time>2026-03-29T13:43:16.932Z</time></trkpt><trkpt lat="45.584" lon="8.725365"><ele>195.2</ele><time>2026-03-29T13:43:17.932Z</time></trkpt><trkpt lat="45.584" lon="8.725505"><ele>194.6</ele><time>2026-03-29T13:43:18.932Z</time></trkpt><trkpt lat="45.5840217" lon="8.7256567"><ele>194.0</ele><time>2026-03-29T13:43:19.932Z</time></trkpt><trkpt lat="45.5840783" lon="8.7257933"><ele>194.0</ele><time>2026-03-29T13:43:20.932Z</time></trkpt><trkpt lat="45.584165" lon="8.7259167"><ele>194.0</ele><time>2026-03-29T13:43:21.932Z</time></trkpt><trkpt lat="45.58427" lon="8.725995"><ele>194.0</ele><time>2026-03-29T13:43:22.932Z</time></trkpt><trkpt lat="45.5843783" lon="8.7260617"><ele>194.0</ele><time>2026-03-29T13:43:23.932Z</time></trkpt><trkpt lat="45.5844983" lon="8.7261"><ele>196.75</ele><time>2026-03-29T13:43:24.931Z</time></trkpt><trkpt lat="45.5846117" lon="8.7261483"><ele>199.5</ele><time>2026-03-29T13:43:25.932Z</time></trkpt><trkpt lat="45.5847133" lon="8.7262183"><ele>202.25</ele><time>2026-03-29T13:43:26.932Z</time></trkpt><trkpt lat="45.5848083" lon="8.7263067"><ele>205.0</ele><time>2026-03-29T13:43:27.932Z</time></trkpt><trkpt lat="45.5848983" lon="8.7264167"><ele>205.0</ele><time>2026-03-29T13:43:28.932Z</time></trkpt><trkpt lat="45.5849883" lon="8.72655"><ele>205.0</ele><time>2026-03-29T13:43:29.932Z</time></trkpt><trkpt lat="45.58508" lon="8.7267117"><ele>205.0</ele><time>2026-03-29T13:43:30.932Z</time></trkpt><trkpt lat="45.5851783" lon="8.72688"><ele>205.0</ele><time>2026-03-29T13:43:31.932Z</time></trkpt><trkpt lat="45.5852817" lon="8.7270433"><ele>204.75</ele><time>2026-03-29T13:43:32.931Z</time></trkpt><trkpt lat="45.5853833" lon="8.7272083"><ele>204.5</ele><time>2026-03-29T13:43:33.932Z</time></trkpt><trkpt lat="45.5854817" lon="8.7273617"><ele>204.25</ele><time>2026-03-29T13:43:34.931Z</time></trkpt><trkpt lat="45.5855783" lon="8.727515"><ele>204.0</ele><time>2026-03-29T13:43:35.932Z</time></trkpt><trkpt lat="45.5856733" lon="8.7276767"><ele>203.0</ele><time>2026-03-29T13:43:36.932Z</time></trkpt><trkpt lat="45.5857767" lon="8.72785"><ele>202.0</ele><time>2026-03-29T13:43:37.932Z</time></trkpt><trkpt lat="45.5858933" lon="8.7280283"><ele>201.0</ele><time>2026-03-29T13:43:38.932Z</time></trkpt><trkpt lat="45.586015" lon="8.7282033"><ele>201.0</ele><time>2026-03-29T13:43:39.932Z</time></trkpt><trkpt lat="45.5861267" lon="8.7283867"><ele>201.0</ele><time>2026-03-29T13:43:40.932Z</time></trkpt><trkpt lat="45.5862417" lon="8.728565"><ele>201.0</ele><time>2026-03-29T13:43:41.932Z</time></trkpt><trkpt lat="45.5863583" lon="8.72876"><ele>200.66666666666669</ele><time>2026-03-29T13:43:42.931Z</time></trkpt><trkpt lat="45.5864733" lon="8.728955"><ele>200.33333333333334</ele><time>2026-03-29T13:43:43.932Z</time></trkpt><trkpt lat="45.5865883" lon="8.72913"><ele>200.0</ele><time>2026-03-29T13:43:44.932Z</time></trkpt><trkpt lat="45.5867067" lon="8.72931"><ele>200.66666666666669</ele><time>2026-03-29T13:43:45.932Z</time></trkpt><trkpt lat="45.5868233" lon="8.7294867"><ele>201.33333333333331</ele><time>2026-03-29T13:43:46.932Z</time></trkpt><trkpt lat="45.586935" lon="8.7296717"><ele>202.0</ele><time>2026-03-29T13:43:47.932Z</time></trkpt><trkpt lat="45.5870367" lon="8.7298433"><ele>202.33333333333331</ele><time>2026-03-29T13:43:48.932Z</time></trkpt><trkpt lat="45.5871417" lon="8.7300033"><ele>202.66666666666669</ele><time>2026-03-29T13:43:49.932Z</time></trkpt><trkpt lat="45.587245" lon="8.7301683"><ele>203.0</ele><time>2026-03-29T13:43:50.932Z</time></trkpt><trkpt lat="45.5873517" lon="8.7303367"><ele>203.0</ele><time>2026-03-29T13:43:51.932Z</time></trkpt><trkpt lat="45.5874583" lon="8.730505"><ele>203.0</ele><time>2026-03-29T13:43:52.932Z</time></trkpt><trkpt lat="45.5875667" lon="8.730675"><ele>203.0</ele><time>2026-03-29T13:43:53.932Z</time></trkpt><trkpt lat="45.5876767" lon="8.7308517"><ele>203.0</ele><time>2026-03-29T13:43:54.932Z</time></trkpt><trkpt lat="45.587785" lon="8.7310267"><ele>203.0</ele><time>2026-03-29T13:43:55.932Z</time></trkpt><trkpt lat="45.5878967" lon="8.731215"><ele>203.0</ele><time>2026-03-29T13:43:56.932Z</time></trkpt><trkpt lat="45.5880117" lon="8.7313933"><ele>202.33333333333334</ele><time>2026-03-29T13:43:57.932Z</time></trkpt><trkpt lat="45.5881383" lon="8.7315667"><ele>201.66666666666669</ele><time>2026-03-29T13:43:58.932Z</time></trkpt><trkpt lat="45.5882567" lon="8.7317483"><ele>201.0</ele><time>2026-03-29T13:43:59.932Z</time></trkpt><trkpt lat="45.5883717" lon="8.7319267"><ele>201.0</ele><time>2026-03-29T13:44:00.932Z</time></trkpt><trkpt lat="45.5884883" lon="8.7321033"><ele>201.0</ele><time>2026-03-29T13:44:01.932Z</time></trkpt><trkpt lat="45.588605" lon="8.7322867"><ele>201.0</ele><time>2026-03-29T13:44:02.932Z</time></trkpt><trkpt lat="45.58872" lon="8.7324633"><ele>201.0</ele><time>2026-03-29T13:44:03.932Z</time></trkpt><trkpt lat="45.5888267" lon="8.7326433"><ele>201.0</ele><time>2026-03-29T13:44:04.932Z</time></trkpt><trkpt lat="45.588935" lon="8.7328233"><ele>201.0</ele><time>2026-03-29T13:44:05.932Z</time></trkpt><trkpt lat="45.58904" lon="8.7330133"><ele>201.0</ele><time>2026-03-29T13:44:06.932Z</time></trkpt><trkpt lat="45.589155" lon="8.7332067"><ele>201.0</ele><time>2026-03-29T13:44:07.932Z</time></trkpt><trkpt lat="45.58928" lon="8.7333933"><ele>201.0</ele><time>2026-03-29T13:44:08.932Z</time></trkpt><trkpt lat="45.5894" lon="8.7335817"><ele>201.0</ele><time>2026-03-29T13:44:09.932Z</time></trkpt><trkpt lat="45.5895267" lon="8.7337733"><ele>201.0</ele><time>2026-03-29T13:44:10.932Z</time></trkpt><trkpt lat="45.5896467" lon="8.73396"><ele>201.0</ele><time>2026-03-29T13:44:11.932Z</time></trkpt><trkpt lat="45.589755" lon="8.7341517"><ele>201.0</ele><time>2026-03-29T13:44:12.932Z</time></trkpt><trkpt lat="45.5898667" lon="8.7343267"><ele>201.0</ele><time>2026-03-29T13:44:13.932Z</time></trkpt><trkpt lat="45.5899883" lon="8.7345033"><ele>201.0</ele><time>2026-03-29T13:44:14.932Z</time></trkpt><trkpt lat="45.590105" lon="8.7346817"><ele>200.33333333333331</ele><time>2026-03-29T13:44:15.932Z</time></trkpt><trkpt lat="45.59022" lon="8.734865"><ele>199.66666666666666</ele><time>2026-03-29T13:44:16.932Z</time></trkpt><trkpt lat="45.5903333" lon="8.735045"><ele>199.0</ele><time>2026-03-29T13:44:17.932Z</time></trkpt><trkpt lat="45.5904483" lon="8.7352317"><ele>199.0</ele><time>2026-03-29T13:44:18.932Z</time></trkpt><trkpt lat="45.59056" lon="8.73542"><ele>199.0</ele><time>2026-03-29T13:44:19.932Z</time></trkpt><trkpt lat="45.5906783" lon="8.7356017"><ele>199.0</ele><time>2026-03-29T13:44:20.931Z</time></trkpt><trkpt lat="45.5907917" lon="8.73579"><ele>199.0</ele><time>2026-03-29T13:44:21.932Z</time></trkpt><trkpt lat="45.5909083" lon="8.7359733"><ele>199.0</ele><time>2026-03-29T13:44:22.932Z</time></trkpt><trkpt lat="45.591025" lon="8.73616"><ele>199.0</ele><time>2026-03-29T13:44:23.932Z</time></trkpt><trkpt lat="45.5911333" lon="8.7363417"><ele>199.0</ele><time>2026-03-29T13:44:24.932Z</time></trkpt><trkpt lat="45.5912467" lon="8.7365183"><ele>199.0</ele><time>2026-03-29T13:44:25.932Z</time></trkpt><trkpt lat="45.591365" lon="8.7366917"><ele>199.0</ele><time>2026-03-29T13:44:26.932Z</time></trkpt><trkpt lat="45.591485" lon="8.7368617"><ele>199.33333333333331</ele><time>2026-03-29T13:44:27.932Z</time></trkpt><trkpt lat="45.5915933" lon="8.73704"><ele>199.66666666666669</ele><time>2026-03-29T13:44:28.932Z</time></trkpt><trkpt lat="45.5916983" lon="8.7372217"><ele>200.0</ele><time>2026-03-29T13:44:29.932Z</time></trkpt><trkpt lat="45.5918083" lon="8.7374067"><ele>200.0</ele><time>2026-03-29T13:44:30.932Z</time></trkpt><trkpt lat="45.5919267" lon="8.7375867"><ele>200.0</ele><time>2026-03-29T13:44:31.932Z</time></trkpt><trkpt lat="45.5920417" lon="8.7377667"><ele>200.0</ele><time>2026-03-29T13:44:32.931Z</time></trkpt><trkpt lat="45.592165" lon="8.7379617"><ele>200.33333333333334</ele><time>2026-03-29T13:44:33.932Z</time></trkpt><trkpt lat="45.5922817" lon="8.7381417"><ele>200.66666666666669</ele><time>2026-03-29T13:44:34.932Z</time></trkpt><trkpt lat="45.59239" lon="8.7383283"><ele>201.0</ele><time>2026-03-29T13:44:35.932Z</time></trkpt><trkpt lat="45.5925017" lon="8.7385083"><ele>200.66666666666669</ele><time>2026-03-29T13:44:36.932Z</time></trkpt><trkpt lat="45.59262" lon="8.738685"><ele>200.33333333333334</ele><time>2026-03-29T13:44:37.932Z</time></trkpt><trkpt lat="45.592735" lon="8.73886"><ele>200.0</ele><time>2026-03-29T13:44:38.931Z</time></trkpt><trkpt lat="45.5928417" lon="8.7390367"><ele>200.0</ele><time>2026-03-29T13:44:39.932Z</time></trkpt><trkpt lat="45.5929567" lon="8.73921"><ele>200.0</ele><time>2026-03-29T13:44:40.932Z</time></trkpt><trkpt lat="45.5930717" lon="8.7393783"><ele>200.0</ele><time>2026-03-29T13:44:41.932Z</time></trkpt><trkpt lat="45.593175" lon="8.7395567"><ele>200.33333333333334</ele><time>2026-03-29T13:44:42.932Z</time></trkpt><trkpt lat="45.593285" lon="8.7397183"><ele>200.66666666666669</ele><time>2026-03-29T13:44:43.932Z</time></trkpt><trkpt lat="45.5933867" lon="8.739885"><ele>201.0</ele><time>2026-03-29T13:44:44.932Z</time></trkpt><trkpt lat="45.593485" lon="8.7400333"><ele>201.0</ele><time>2026-03-29T13:44:45.932Z</time></trkpt><trkpt lat="45.5935633" lon="8.7401667"><ele>201.0</ele><time>2026-03-29T13:44:46.932Z</time></trkpt><trkpt lat="45.59364" lon="8.7403"><ele>201.0</ele><time>2026-03-29T13:44:47.932Z</time></trkpt><trkpt lat="45.5937083" lon="8.7404267"><ele>201.0</ele><time>2026-03-29T13:44:48.932Z</time></trkpt><trkpt lat="45.5937667" lon="8.740555"><ele>201.60000000000002</ele><time>2026-03-29T13:44:49.932Z</time></trkpt><trkpt lat="45.5938117" lon="8.740685"><ele>202.2</ele><time>2026-03-29T13:44:50.932Z</time></trkpt><trkpt lat="45.5938433" lon="8.7408133"><ele>202.8</ele><time>2026-03-29T13:44:51.932Z</time></trkpt><trkpt lat="45.5938633" lon="8.7409417"><ele>203.39999999999998</ele><time>2026-03-29T13:44:52.932Z</time></trkpt><trkpt lat="45.593875" lon="8.7410767"><ele>204.0</ele><time>2026-03-29T13:44:53.932Z</time></trkpt><trkpt lat="45.5938883" lon="8.74123"><ele>204.25</ele><time>2026-03-29T13:44:54.931Z</time></trkpt><trkpt lat="45.5938733" lon="8.7414"><ele>204.5</ele><time>2026-03-29T13:44:55.932Z</time></trkpt><trkpt lat="45.59384" lon="8.7415767"><ele>204.75</ele><time>2026-03-29T13:44:56.932Z</time></trkpt><trkpt lat="45.5937933" lon="8.7417567"><ele>205.0</ele><time>2026-03-29T13:44:57.932Z</time></trkpt><trkpt lat="45.5937433" lon="8.741955"><ele>205.33333333333331</ele><time>2026-03-29T13:44:58.932Z</time></trkpt><trkpt lat="45.5936867" lon="8.7421733"><ele>205.66666666666669</ele><time>2026-03-29T13:44:59.932Z</time></trkpt><trkpt lat="45.5936133" lon="8.7424017"><ele>206.0</ele><time>2026-03-29T13:45:00.932Z</time></trkpt><trkpt lat="45.593555" lon="8.742635"><ele>207.33333333333334</ele><time>2026-03-29T13:45:01.931Z</time></trkpt><trkpt lat="45.5934917" lon="8.7428817"><ele>208.66666666666669</ele><time>2026-03-29T13:45:02.932Z</time></trkpt><trkpt lat="45.59342" lon="8.7431317"><ele>210.0</ele><time>2026-03-29T13:45:03.932Z</time></trkpt><trkpt lat="45.5933417" lon="8.7433817"><ele>210.0</ele><time>2026-03-29T13:45:04.932Z</time></trkpt><trkpt lat="45.593265" lon="8.7436317"><ele>210.0</ele><time>2026-03-29T13:45:05.932Z</time></trkpt><trkpt lat="45.5931933" lon="8.7438917"><ele>210.0</ele><time>2026-03-29T13:45:06.932Z</time></trkpt><trkpt lat="45.5931117" lon="8.7441583"><ele>210.33333333333331</ele><time>2026-03-29T13:45:07.932Z</time></trkpt><trkpt lat="45.5930383" lon="8.74443"><ele>210.66666666666666</ele><time>2026-03-29T13:45:08.932Z</time></trkpt><trkpt lat="45.5929617" lon="8.74471"><ele>211.0</ele><time>2026-03-29T13:45:09.932Z</time></trkpt><trkpt lat="45.5928883" lon="8.7449883"><ele>209.0</ele><time>2026-03-29T13:45:10.932Z</time></trkpt><trkpt lat="45.5928133" lon="8.745265"><ele>207.0</ele><time>2026-03-29T13:45:11.932Z</time></trkpt><trkpt lat="45.5927367" lon="8.745535"><ele>205.0</ele><time>2026-03-29T13:45:12.932Z</time></trkpt><trkpt lat="45.5926583" lon="8.7458167"><ele>204.66666666666666</ele><time>2026-03-29T13:45:13.932Z</time></trkpt><trkpt lat="45.5925883" lon="8.7460917"><ele>204.33333333333331</ele><time>2026-03-29T13:45:14.932Z</time></trkpt><trkpt lat="45.5925217" lon="8.74637"><ele>204.0</ele><time>2026-03-29T13:45:15.932Z</time></trkpt><trkpt lat="45.592445" lon="8.746635"><ele>204.33333333333331</ele><time>2026-03-29T13:45:16.932Z</time></trkpt><trkpt lat="45.5923783" lon="8.7468783"><ele>204.66666666666666</ele><time>2026-03-29T13:45:17.932Z</time></trkpt><trkpt lat="45.5923217" lon="8.7471183"><ele>205.0</ele><time>2026-03-29T13:45:18.932Z</time></trkpt><trkpt lat="45.592275" lon="8.747335"><ele>205.0</ele><time>2026-03-29T13:45:19.932Z</time></trkpt><trkpt lat="45.5922333" lon="8.74753"><ele>205.0</ele><time>2026-03-29T13:45:20.932Z</time></trkpt><trkpt lat="45.5922067" lon="8.7477017"><ele>205.0</ele><time>2026-03-29T13:45:21.932Z</time></trkpt><trkpt lat="45.5921833" lon="8.7478583"><ele>205.0</ele><time>2026-03-29T13:45:22.932Z</time></trkpt><trkpt lat="45.592165" lon="8.747995"><ele>204.8</ele><time>2026-03-29T13:45:23.932Z</time></trkpt><trkpt lat="45.59216" lon="8.748115"><ele>204.6</ele><time>2026-03-29T13:45:24.932Z</time></trkpt><trkpt lat="45.5921417" lon="8.74822"><ele>204.39999999999998</ele><time>2026-03-29T13:45:25.931Z</time></trkpt><trkpt lat="45.5920867" lon="8.74834"><ele>204.2</ele><time>2026-03-29T13:45:27.932Z</time></trkpt><trkpt lat="45.5919933" lon="8.748345"><ele>204.0</ele><time>2026-03-29T13:45:29.932Z</time></trkpt><trkpt lat="45.5918683" lon="8.7482533"><ele>203.5</ele><time>2026-03-29T13:45:31.932Z</time></trkpt><trkpt lat="45.5917883" lon="8.7481467"><ele>203.0</ele><time>2026-03-29T13:45:32.932Z</time></trkpt><trkpt lat="45.5916867" lon="8.7480333"><ele>202.5</ele><time>2026-03-29T13:45:33.932Z</time></trkpt><trkpt lat="45.59155" lon="8.7478983"><ele>202.0</ele><time>2026-03-29T13:45:34.932Z</time></trkpt><trkpt lat="45.5914033" lon="8.7477533"><ele>202.0</ele><time>2026-03-29T13:45:35.932Z</time></trkpt><trkpt lat="45.5912567" lon="8.74762"><ele>202.0</ele><time>2026-03-29T13:45:36.932Z</time></trkpt><trkpt lat="45.59113" lon="8.747485"><ele>202.0</ele><time>2026-03-29T13:45:37.932Z</time></trkpt><trkpt lat="45.5910017" lon="8.7473633"><ele>202.0</ele><time>2026-03-29T13:45:38.932Z</time></trkpt><trkpt lat="45.5908717" lon="8.7472483"><ele>202.0</ele><time>2026-03-29T13:45:39.932Z</time></trkpt><trkpt lat="45.590745" lon="8.7471283"><ele>202.0</ele><time>2026-03-29T13:45:40.932Z</time></trkpt><trkpt lat="45.5906083" lon="8.7470233"><ele>202.0</ele><time>2026-03-29T13:45:41.932Z</time></trkpt><trkpt lat="45.5904767" lon="8.7469133"><ele>202.0</ele><time>2026-03-29T13:45:42.932Z</time></trkpt><trkpt lat="45.5903383" lon="8.7468133"><ele>202.0</ele><time>2026-03-29T13:45:43.932Z</time></trkpt><trkpt lat="45.590185" lon="8.7467083"><ele>202.33333333333331</ele><time>2026-03-29T13:45:44.932Z</time></trkpt><trkpt lat="45.5900333" lon="8.7465983"><ele>202.66666666666669</ele><time>2026-03-29T13:45:45.932Z</time></trkpt><trkpt lat="45.5898817" lon="8.74649"><ele>203.0</ele><time>2026-03-29T13:45:46.932Z</time></trkpt><trkpt lat="45.5897317" lon="8.7463683"><ele>203.0</ele><time>2026-03-29T13:45:47.932Z</time></trkpt><trkpt lat="45.589575" lon="8.7462617"><ele>203.0</ele><time>2026-03-29T13:45:48.931Z</time></trkpt><trkpt lat="45.5894183" lon="8.7461583"><ele>203.0</ele><time>2026-03-29T13:45:49.932Z</time></trkpt><trkpt lat="45.5892717" lon="8.7460617"><ele>203.33333333333334</ele><time>2026-03-29T13:45:50.931Z</time></trkpt><trkpt lat="45.589125" lon="8.745955"><ele>203.66666666666669</ele><time>2026-03-29T13:45:51.932Z</time></trkpt><trkpt lat="45.5889817" lon="8.745855"><ele>204.0</ele><time>2026-03-29T13:45:52.932Z</time></trkpt><trkpt lat="45.5888367" lon="8.745745"><ele>204.0</ele><time>2026-03-29T13:45:53.932Z</time></trkpt><trkpt lat="45.5886933" lon="8.745645"><ele>204.0</ele><time>2026-03-29T13:45:54.932Z</time></trkpt><trkpt lat="45.5885683" lon="8.7455517"><ele>204.0</ele><time>2026-03-29T13:45:55.932Z</time></trkpt><trkpt lat="45.588455" lon="8.74545"><ele>204.0</ele><time>2026-03-29T13:45:56.931Z</time></trkpt><trkpt lat="45.5883583" lon="8.7453633"><ele>203.6</ele><time>2026-03-29T13:45:57.931Z</time></trkpt><trkpt lat="45.588275" lon="8.7452633"><ele>203.2</ele><time>2026-03-29T13:45:58.931Z</time></trkpt><trkpt lat="45.5882033" lon="8.7451667"><ele>202.79999999999998</ele><time>2026-03-29T13:45:59.931Z</time></trkpt><trkpt lat="45.58814" lon="8.7450833"><ele>202.39999999999998</ele><time>2026-03-29T13:46:00.931Z</time></trkpt><trkpt lat="45.5880867" lon="8.7450317"><ele>202.0</ele><time>2026-03-29T13:46:01.93Z</time></trkpt><trkpt lat="45.5879767" lon="8.744995"><ele>202.0</ele><time>2026-03-29T13:46:03.931Z</time></trkpt><trkpt lat="45.58791" lon="8.74513"><ele>202.0</ele><time>2026-03-29T13:46:05.931Z</time></trkpt><trkpt lat="45.5878783" lon="8.74526"><ele>202.0</ele><time>2026-03-29T13:46:06.931Z</time></trkpt><trkpt lat="45.5878433" lon="8.7454217"><ele>202.0</ele><time>2026-03-29T13:46:07.931Z</time></trkpt><trkpt lat="45.587805" lon="8.7456083"><ele>201.75</ele><time>2026-03-29T13:46:08.931Z</time></trkpt><trkpt lat="45.58778" lon="8.74578"><ele>201.5</ele><time>2026-03-29T13:46:09.931Z</time></trkpt><trkpt lat="45.5877517" lon="8.7459717"><ele>201.25</ele><time>2026-03-29T13:46:10.931Z</time></trkpt><trkpt lat="45.5877017" lon="8.7461783"><ele>201.0</ele><time>2026-03-29T13:46:11.931Z</time></trkpt><trkpt lat="45.5876633" lon="8.7464017"><ele>201.0</ele><time>2026-03-29T13:46:12.931Z</time></trkpt><trkpt lat="45.587615" lon="8.74663"><ele>201.0</ele><time>2026-03-29T13:46:13.931Z</time></trkpt><trkpt lat="45.58758" lon="8.746855"><ele>201.0</ele><time>2026-03-29T13:46:14.931Z</time></trkpt><trkpt lat="45.5875333" lon="8.7470883"><ele>201.0</ele><time>2026-03-29T13:46:15.931Z</time></trkpt><trkpt lat="45.5874867" lon="8.7473167"><ele>201.0</ele><time>2026-03-29T13:46:16.931Z</time></trkpt><trkpt lat="45.5874367" lon="8.7475533"><ele>201.0</ele><time>2026-03-29T13:46:17.931Z</time></trkpt><trkpt lat="45.5873917" lon="8.7477967"><ele>201.0</ele><time>2026-03-29T13:46:18.931Z</time></trkpt><trkpt lat="45.5873433" lon="8.7480483"><ele>201.0</ele><time>2026-03-29T13:46:19.931Z</time></trkpt><trkpt lat="45.5872933" lon="8.7483"><ele>201.0</ele><time>2026-03-29T13:46:20.931Z</time></trkpt><trkpt lat="45.5872433" lon="8.74855"><ele>201.0</ele><time>2026-03-29T13:46:21.931Z</time></trkpt><trkpt lat="45.58719" lon="8.7488067"><ele>201.0</ele><time>2026-03-29T13:46:22.931Z</time></trkpt><trkpt lat="45.5871333" lon="8.74907"><ele>201.0</ele><time>2026-03-29T13:46:23.93Z</time></trkpt><trkpt lat="45.587075" lon="8.7493383"><ele>200.33333333333331</ele><time>2026-03-29T13:46:24.931Z</time></trkpt><trkpt lat="45.587025" lon="8.74962"><ele>199.66666666666666</ele><time>2026-03-29T13:46:25.931Z</time></trkpt><trkpt lat="45.5869717" lon="8.7498983"><ele>199.0</ele><time>2026-03-29T13:46:26.931Z</time></trkpt><trkpt lat="45.5869133" lon="8.7501817"><ele>199.0</ele><time>2026-03-29T13:46:27.931Z</time></trkpt><trkpt lat="45.5868583" lon="8.7504733"><ele>199.0</ele><time>2026-03-29T13:46:28.93Z</time></trkpt><trkpt lat="45.5867983" lon="8.7507667"><ele>199.0</ele><time>2026-03-29T13:46:29.931Z</time></trkpt><trkpt lat="45.586745" lon="8.75104"><ele>198.33333333333331</ele><time>2026-03-29T13:46:30.93Z</time></trkpt><trkpt lat="45.5866917" lon="8.7513133"><ele>197.66666666666669</ele><time>2026-03-29T13:46:31.931Z</time></trkpt><trkpt lat="45.5866433" lon="8.7515767"><ele>197.0</ele><time>2026-03-29T13:46:32.931Z</time></trkpt><trkpt lat="45.58659" lon="8.751845"><ele>197.33333333333334</ele><time>2026-03-29T13:46:33.931Z</time></trkpt><trkpt lat="45.586535" lon="8.752115"><ele>197.66666666666669</ele><time>2026-03-29T13:46:34.931Z</time></trkpt><trkpt lat="45.5864833" lon="8.7523867"><ele>198.0</ele><time>2026-03-29T13:46:35.931Z</time></trkpt><trkpt lat="45.5864383" lon="8.7526317"><ele>198.33333333333331</ele><time>2026-03-29T13:46:36.931Z</time></trkpt><trkpt lat="45.58639" lon="8.7528667"><ele>198.66666666666666</ele><time>2026-03-29T13:46:37.931Z</time></trkpt><trkpt lat="45.5863533" lon="8.7530817"><ele>199.0</ele><time>2026-03-29T13:46:38.931Z</time></trkpt><trkpt lat="45.5863183" lon="8.7532883"><ele>199.0</ele><time>2026-03-29T13:46:39.931Z</time></trkpt><trkpt lat="45.58628" lon="8.753485"><ele>199.0</ele><time>2026-03-29T13:46:40.931Z</time></trkpt><trkpt lat="45.5862433" lon="8.75367"><ele>199.0</ele><time>2026-03-29T13:46:41.931Z</time></trkpt><trkpt lat="45.5862133" lon="8.7538367"><ele>199.0</ele><time>2026-03-29T13:46:42.931Z</time></trkpt><trkpt lat="45.5861767" lon="8.754005"><ele>199.25</ele><time>2026-03-29T13:46:43.931Z</time></trkpt><trkpt lat="45.58614" lon="8.7541783"><ele>199.5</ele><time>2026-03-29T13:46:44.931Z</time></trkpt><trkpt lat="45.5860983" lon="8.75436"><ele>199.75</ele><time>2026-03-29T13:46:45.931Z</time></trkpt><trkpt lat="45.586045" lon="8.754555"><ele>200.0</ele><time>2026-03-29T13:46:46.931Z</time></trkpt><trkpt lat="45.5859883" lon="8.754745"><ele>200.33333333333334</ele><time>2026-03-29T13:46:47.931Z</time></trkpt><trkpt lat="45.58593" lon="8.7549467"><ele>200.66666666666669</ele><time>2026-03-29T13:46:48.93Z</time></trkpt><trkpt lat="45.585865" lon="8.7551533"><ele>201.0</ele><time>2026-03-29T13:46:49.931Z</time></trkpt><trkpt lat="45.5858033" lon="8.75536"><ele>201.0</ele><time>2026-03-29T13:46:50.931Z</time></trkpt><trkpt lat="45.5857383" lon="8.7555717"><ele>201.0</ele><time>2026-03-29T13:46:51.931Z</time></trkpt><trkpt lat="45.585675" lon="8.7557717"><ele>201.0</ele><time>2026-03-29T13:46:52.931Z</time></trkpt><trkpt lat="45.5856117" lon="8.75596"><ele>201.0</ele><time>2026-03-29T13:46:53.931Z</time></trkpt><trkpt lat="45.585555" lon="8.756145"><ele>201.0</ele><time>2026-03-29T13:46:54.931Z</time></trkpt><trkpt lat="45.585515" lon="8.756315"><ele>201.0</ele><time>2026-03-29T13:46:55.931Z</time></trkpt><trkpt lat="45.5854867" lon="8.7564733"><ele>201.0</ele><time>2026-03-29T13:46:56.931Z</time></trkpt><trkpt lat="45.5854717" lon="8.7566267"><ele>201.0</ele><time>2026-03-29T13:46:57.931Z</time></trkpt><trkpt lat="45.5854683" lon="8.7567817"><ele>201.0</ele><time>2026-03-29T13:46:58.931Z</time></trkpt><trkpt lat="45.585455" lon="8.756935"><ele>201.0</ele><time>2026-03-29T13:46:59.931Z</time></trkpt><trkpt lat="45.5854333" lon="8.7571033"><ele>201.0</ele><time>2026-03-29T13:47:00.931Z</time></trkpt><trkpt lat="45.5854133" lon="8.7572617"><ele>201.0</ele><time>2026-03-29T13:47:01.93Z</time></trkpt><trkpt lat="45.5854" lon="8.757405"><ele>201.0</ele><time>2026-03-29T13:47:02.931Z</time></trkpt><trkpt lat="45.5854017" lon="8.7575367"><ele>201.0</ele><time>2026-03-29T13:47:03.93Z</time></trkpt><trkpt lat="45.5853867" lon="8.7576683"><ele>201.0</ele><time>2026-03-29T13:47:04.931Z</time></trkpt><trkpt lat="45.585375" lon="8.757785"><ele>201.0</ele><time>2026-03-29T13:47:05.93Z</time></trkpt><trkpt lat="45.5853567" lon="8.757895"><ele>201.0</ele><time>2026-03-29T13:47:06.93Z</time></trkpt><trkpt lat="45.5853383" lon="8.7580083"><ele>201.0</ele><time>2026-03-29T13:47:07.93Z</time></trkpt><trkpt lat="45.5853017" lon="8.7581017"><ele>200.8</ele><time>2026-03-29T13:47:08.931Z</time></trkpt><trkpt lat="45.5852683" lon="8.758205"><ele>200.60000000000002</ele><time>2026-03-29T13:47:09.931Z</time></trkpt><trkpt lat="45.58525" lon="8.75833"><ele>200.4</ele><time>2026-03-29T13:47:10.93Z</time></trkpt><trkpt lat="45.5852417" lon="8.7584783"><ele>200.2</ele><time>2026-03-29T13:47:11.931Z</time></trkpt><trkpt lat="45.5852267" lon="8.7586167"><ele>200.0</ele><time>2026-03-29T13:47:12.931Z</time></trkpt><trkpt lat="45.5851917" lon="8.7587783"><ele>200.0</ele><time>2026-03-29T13:47:13.931Z</time></trkpt><trkpt lat="45.58515" lon="8.75894"><ele>200.0</ele><time>2026-03-29T13:47:14.931Z</time></trkpt><trkpt lat="45.5851133" lon="8.7590983"><ele>200.0</ele><time>2026-03-29T13:47:15.931Z</time></trkpt><trkpt lat="45.5850733" lon="8.75924"><ele>200.0</ele><time>2026-03-29T13:47:16.931Z</time></trkpt><trkpt lat="45.5850467" lon="8.7593867"><ele>200.0</ele><time>2026-03-29T13:47:17.931Z</time></trkpt><trkpt lat="45.585015" lon="8.7595333"><ele>200.0</ele><time>2026-03-29T13:47:18.931Z</time></trkpt><trkpt lat="45.5849833" lon="8.7596867"><ele>200.0</ele><time>2026-03-29T13:47:19.931Z</time></trkpt><trkpt lat="45.5849533" lon="8.7598283"><ele>200.0</ele><time>2026-03-29T13:47:20.93Z</time></trkpt><trkpt lat="45.5849167" lon="8.75997"><ele>200.0</ele><time>2026-03-29T13:47:21.931Z</time></trkpt><trkpt lat="45.5848817" lon="8.7601017"><ele>200.00000000000003</ele><time>2026-03-29T13:47:22.931Z</time></trkpt><trkpt lat="45.58485" lon="8.7602283"><ele>200.0</ele><time>2026-03-29T13:47:23.931Z</time></trkpt><trkpt lat="45.5848267" lon="8.7603467"><ele>200.0</ele><time>2026-03-29T13:47:24.931Z</time></trkpt><trkpt lat="45.5848033" lon="8.7604567"><ele>200.0</ele><time>2026-03-29T13:47:25.928Z</time></trkpt><trkpt lat="45.58479" lon="8.7605683"><ele>200.00000000000003</ele><time>2026-03-29T13:47:26.931Z</time></trkpt><trkpt lat="45.5847867" lon="8.7606617"><ele>200.0</ele><time>2026-03-29T13:47:27.931Z</time></trkpt><trkpt lat="45.5848067" lon="8.76075"><ele>200.0</ele><time>2026-03-29T13:47:28.931Z</time></trkpt><trkpt lat="45.5848467" lon="8.760825"><ele>200.0</ele><time>2026-03-29T13:47:29.931Z</time></trkpt><trkpt lat="45.5848633" lon="8.760955"><ele>200.0</ele><time>2026-03-29T13:47:31.931Z</time></trkpt><trkpt lat="45.584835" lon="8.76115"><ele>200.0</ele><time>2026-03-29T13:47:33.931Z</time></trkpt><trkpt lat="45.5847967" lon="8.76128"><ele>200.0</ele><time>2026-03-29T13:47:34.931Z</time></trkpt><trkpt lat="45.5847467" lon="8.7614433"><ele>200.0</ele><time>2026-03-29T13:47:35.931Z</time></trkpt><trkpt lat="45.5847033" lon="8.7616333"><ele>200.0</ele><time>2026-03-29T13:47:36.931Z</time></trkpt><trkpt lat="45.5846617" lon="8.761775"><ele>200.0</ele><time>2026-03-29T13:47:37.931Z</time></trkpt><trkpt lat="45.584615" lon="8.7619283"><ele>200.0</ele><time>2026-03-29T13:47:38.931Z</time></trkpt><trkpt lat="45.5845617" lon="8.7620717"><ele>200.0</ele><time>2026-03-29T13:47:39.93Z</time></trkpt><trkpt lat="45.5845217" lon="8.7622017"><ele>200.0</ele><time>2026-03-29T13:47:40.931Z</time></trkpt><trkpt lat="45.584485" lon="8.7623367"><ele>200.0</ele><time>2026-03-29T13:47:41.931Z</time></trkpt><trkpt lat="45.5844517" lon="8.7624667"><ele>200.0</ele><time>2026-03-29T13:47:42.931Z</time></trkpt><trkpt lat="45.5844083" lon="8.7626117"><ele>200.0</ele><time>2026-03-29T13:47:43.931Z</time></trkpt><trkpt lat="45.5843633" lon="8.76277"><ele>199.75</ele><time>2026-03-29T13:47:44.931Z</time></trkpt><trkpt lat="45.5843117" lon="8.7629383"><ele>199.5</ele><time>2026-03-29T13:47:45.931Z</time></trkpt><trkpt lat="45.584265" lon="8.7631217"><ele>199.25</ele><time>2026-03-29T13:47:46.931Z</time></trkpt><trkpt lat="45.5842217" lon="8.7633117"><ele>199.0</ele><time>2026-03-29T13:47:47.931Z</time></trkpt><trkpt lat="45.584165" lon="8.763515"><ele>199.0</ele><time>2026-03-29T13:47:48.931Z</time></trkpt><trkpt lat="45.584115" lon="8.763705"><ele>199.0</ele><time>2026-03-29T13:47:49.931Z</time></trkpt><trkpt lat="45.5840617" lon="8.7639183"><ele>199.0</ele><time>2026-03-29T13:47:50.931Z</time></trkpt><trkpt lat="45.5840083" lon="8.7641417"><ele>198.66666666666666</ele><time>2026-03-29T13:47:51.931Z</time></trkpt><trkpt lat="45.583955" lon="8.76438"><ele>198.33333333333331</ele><time>2026-03-29T13:47:52.931Z</time></trkpt><trkpt lat="45.583905" lon="8.764605"><ele>198.0</ele><time>2026-03-29T13:47:53.931Z</time></trkpt><trkpt lat="45.5838467" lon="8.764835"><ele>198.0</ele><time>2026-03-29T13:47:54.931Z</time></trkpt><trkpt lat="45.58379" lon="8.7650683"><ele>198.0</ele><time>2026-03-29T13:47:55.931Z</time></trkpt><trkpt lat="45.58374" lon="8.765305"><ele>198.0</ele><time>2026-03-29T13:47:56.931Z</time></trkpt><trkpt lat="45.5836833" lon="8.7655567"><ele>198.0</ele><time>2026-03-29T13:47:57.931Z</time></trkpt><trkpt lat="45.5836217" lon="8.7658083"><ele>198.0</ele><time>2026-03-29T13:47:58.931Z</time></trkpt><trkpt lat="45.5835667" lon="8.7660567"><ele>198.0</ele><time>2026-03-29T13:47:59.93Z</time></trkpt><trkpt lat="45.583505" lon="8.766295"><ele>198.0</ele><time>2026-03-29T13:48:00.931Z</time></trkpt><trkpt lat="45.58345" lon="8.766515"><ele>198.0</ele><time>2026-03-29T13:48:01.931Z</time></trkpt><trkpt lat="45.5833917" lon="8.7667217"><ele>198.0</ele><time>2026-03-29T13:48:02.931Z</time></trkpt><trkpt lat="45.58332" lon="8.7669233"><ele>198.25</ele><time>2026-03-29T13:48:03.93Z</time></trkpt><trkpt lat="45.5832467" lon="8.767115"><ele>198.5</ele><time>2026-03-29T13:48:04.931Z</time></trkpt><trkpt lat="45.5831667" lon="8.7672833"><ele>198.75</ele><time>2026-03-29T13:48:05.931Z</time></trkpt><trkpt lat="45.5830983" lon="8.7674483"><ele>199.0</ele><time>2026-03-29T13:48:06.931Z</time></trkpt><trkpt lat="45.583055" lon="8.7676283"><ele>199.25</ele><time>2026-03-29T13:48:07.93Z</time></trkpt><trkpt lat="45.5830233" lon="8.7678117"><ele>199.5</ele><time>2026-03-29T13:48:08.93Z</time></trkpt><trkpt lat="45.5830083" lon="8.768015"><ele>199.75</ele><time>2026-03-29T13:48:09.931Z</time></trkpt><trkpt lat="45.5829917" lon="8.7682167"><ele>200.0</ele><time>2026-03-29T13:48:10.931Z</time></trkpt><trkpt lat="45.582975" lon="8.768405"><ele>199.75</ele><time>2026-03-29T13:48:11.931Z</time></trkpt><trkpt lat="45.5829483" lon="8.76856"><ele>199.5</ele><time>2026-03-29T13:48:12.93Z</time></trkpt><trkpt lat="45.5828983" lon="8.7687217"><ele>199.25</ele><time>2026-03-29T13:48:13.931Z</time></trkpt><trkpt lat="45.5828283" lon="8.7688917"><ele>199.0</ele><time>2026-03-29T13:48:14.931Z</time></trkpt><trkpt lat="45.5827467" lon="8.7690783"><ele>199.0</ele><time>2026-03-29T13:48:15.931Z</time></trkpt><trkpt lat="45.5826583" lon="8.769285"><ele>199.0</ele><time>2026-03-29T13:48:16.931Z</time></trkpt><trkpt lat="45.582585" lon="8.7695183"><ele>199.0</ele><time>2026-03-29T13:48:17.931Z</time></trkpt><trkpt lat="45.5825183" lon="8.7697583"><ele>198.33333333333331</ele><time>2026-03-29T13:48:18.931Z</time></trkpt><trkpt lat="45.5824517" lon="8.7699967"><ele>197.66666666666669</ele><time>2026-03-29T13:48:19.931Z</time></trkpt><trkpt lat="45.5823783" lon="8.770245"><ele>197.0</ele><time>2026-03-29T13:48:20.931Z</time></trkpt><trkpt lat="45.582295" lon="8.7705017"><ele>196.33333333333334</ele><time>2026-03-29T13:48:21.93Z</time></trkpt><trkpt lat="45.58222" lon="8.7707483"><ele>195.66666666666669</ele><time>2026-03-29T13:48:22.931Z</time></trkpt><trkpt lat="45.582145" lon="8.77099"><ele>195.0</ele><time>2026-03-29T13:48:23.931Z</time></trkpt><trkpt lat="45.5820733" lon="8.7712417"><ele>195.33333333333331</ele><time>2026-03-29T13:48:24.93Z</time></trkpt><trkpt lat="45.582005" lon="8.771485"><ele>195.66666666666666</ele><time>2026-03-29T13:48:25.931Z</time></trkpt><trkpt lat="45.58194" lon="8.7717233"><ele>196.0</ele><time>2026-03-29T13:48:26.931Z</time></trkpt><trkpt lat="45.5818783" lon="8.7719617"><ele>196.0</ele><time>2026-03-29T13:48:27.931Z</time></trkpt><trkpt lat="45.5818217" lon="8.77219"><ele>196.0</ele><time>2026-03-29T13:48:28.931Z</time></trkpt><trkpt lat="45.5817633" lon="8.7724267"><ele>196.0</ele><time>2026-03-29T13:48:29.931Z</time></trkpt><trkpt lat="45.5817017" lon="8.7726567"><ele>196.0</ele><time>2026-03-29T13:48:30.931Z</time></trkpt><trkpt lat="45.5816483" lon="8.772885"><ele>196.0</ele><time>2026-03-29T13:48:31.931Z</time></trkpt><trkpt lat="45.5815933" lon="8.77312"><ele>196.0</ele><time>2026-03-29T13:48:32.931Z</time></trkpt><trkpt lat="45.581535" lon="8.7733483"><ele>196.33333333333331</ele><time>2026-03-29T13:48:33.931Z</time></trkpt><trkpt lat="45.5814767" lon="8.7735817"><ele>196.66666666666669</ele><time>2026-03-29T13:48:34.931Z</time></trkpt><trkpt lat="45.5814267" lon="8.7738067"><ele>197.0</ele><time>2026-03-29T13:48:35.931Z</time></trkpt><trkpt lat="45.5813733" lon="8.7740217"><ele>197.0</ele><time>2026-03-29T13:48:36.931Z</time></trkpt><trkpt lat="45.5813267" lon="8.7742217"><ele>197.0</ele><time>2026-03-29T13:48:37.931Z</time></trkpt><trkpt lat="45.5812783" lon="8.7744133"><ele>197.0</ele><time>2026-03-29T13:48:38.931Z</time></trkpt><trkpt lat="45.5812333" lon="8.774585"><ele>197.0</ele><time>2026-03-29T13:48:39.931Z</time></trkpt><trkpt lat="45.5811933" lon="8.7747517"><ele>197.0</ele><time>2026-03-29T13:48:40.931Z</time></trkpt><trkpt lat="45.5811583" lon="8.7749117"><ele>197.0</ele><time>2026-03-29T13:48:41.931Z</time></trkpt><trkpt lat="45.5811233" lon="8.7750667"><ele>197.0</ele><time>2026-03-29T13:48:42.931Z</time></trkpt><trkpt lat="45.58108" lon="8.7752333"><ele>197.0</ele><time>2026-03-29T13:48:43.931Z</time></trkpt><trkpt lat="45.58103" lon="8.7754133"><ele>197.25</ele><time>2026-03-29T13:48:44.931Z</time></trkpt><trkpt lat="45.5809867" lon="8.7756117"><ele>197.5</ele><time>2026-03-29T13:48:45.931Z</time></trkpt><trkpt lat="45.5809383" lon="8.7758083"><ele>197.75</ele><time>2026-03-29T13:48:46.93Z</time></trkpt><trkpt lat="45.5808883" lon="8.7760117"><ele>198.0</ele><time>2026-03-29T13:48:47.931Z</time></trkpt><trkpt lat="45.5808417" lon="8.7762217"><ele>198.0</ele><time>2026-03-29T13:48:48.931Z</time></trkpt><trkpt lat="45.5807833" lon="8.7764167"><ele>198.0</ele><time>2026-03-29T13:48:49.931Z</time></trkpt><trkpt lat="45.5807333" lon="8.7766133"><ele>198.0</ele><time>2026-03-29T13:48:50.931Z</time></trkpt><trkpt lat="45.5806883" lon="8.7768033"><ele>198.0</ele><time>2026-03-29T13:48:51.931Z</time></trkpt><trkpt lat="45.580645" lon="8.7769783"><ele>198.0</ele><time>2026-03-29T13:48:52.931Z</time></trkpt><trkpt lat="45.5806133" lon="8.7771367"><ele>198.0</ele><time>2026-03-29T13:48:53.931Z</time></trkpt><trkpt lat="45.58058" lon="8.7772967"><ele>198.0</ele><time>2026-03-29T13:48:54.931Z</time></trkpt><trkpt lat="45.5805467" lon="8.7774467"><ele>198.0</ele><time>2026-03-29T13:48:55.931Z</time></trkpt><trkpt lat="45.580515" lon="8.7775767"><ele>198.0</ele><time>2026-03-29T13:48:56.931Z</time></trkpt><trkpt lat="45.5804817" lon="8.7777067"><ele>198.0</ele><time>2026-03-29T13:48:57.931Z</time></trkpt><trkpt lat="45.5804483" lon="8.77784"><ele>198.0</ele><time>2026-03-29T13:48:58.931Z</time></trkpt><trkpt lat="45.5804183" lon="8.77796"><ele>198.0</ele><time>2026-03-29T13:48:59.93Z</time></trkpt><trkpt lat="45.58039" lon="8.7780467"><ele>198.0</ele><time>2026-03-29T13:49:00.931Z</time></trkpt><trkpt lat="45.5803667" lon="8.7781567"><ele>198.0</ele><time>2026-03-29T13:49:02.931Z</time></trkpt><trkpt lat="45.5803467" lon="8.7782583"><ele>198.0</ele><time>2026-03-29T13:49:07.931Z</time></trkpt><trkpt lat="45.580315" lon="8.7783833"><ele>198.0</ele><time>2026-03-29T13:49:09.931Z</time></trkpt><trkpt lat="45.58029" lon="8.7784683"><ele>198.0</ele><time>2026-03-29T13:49:10.931Z</time></trkpt><trkpt lat="45.5802767" lon="8.7785567"><ele>198.0</ele><time>2026-03-29T13:49:11.931Z</time></trkpt><trkpt lat="45.58026" lon="8.778655"><ele>198.0</ele><time>2026-03-29T13:49:12.931Z</time></trkpt><trkpt lat="45.5802317" lon="8.77879"><ele>198.0</ele><time>2026-03-29T13:49:13.93Z</time></trkpt><trkpt lat="45.5802067" lon="8.7789267"><ele>198.0</ele><time>2026-03-29T13:49:14.931Z</time></trkpt><trkpt lat="45.58018" lon="8.7790733"><ele>198.2</ele><time>2026-03-29T13:49:15.931Z</time></trkpt><trkpt lat="45.580155" lon="8.7792167"><ele>198.4</ele><time>2026-03-29T13:49:16.931Z</time></trkpt><trkpt lat="45.5801217" lon="8.7793667"><ele>198.6</ele><time>2026-03-29T13:49:17.93Z</time></trkpt><trkpt lat="45.580085" lon="8.7795133"><ele>198.79999999999998</ele><time>2026-03-29T13:49:18.93Z</time></trkpt><trkpt lat="45.5800533" lon="8.77966"><ele>199.0</ele><time>2026-03-29T13:49:19.93Z</time></trkpt><trkpt lat="45.58003" lon="8.7798117"><ele>199.0</ele><time>2026-03-29T13:49:20.929Z</time></trkpt><trkpt lat="45.58" lon="8.779955"><ele>199.0</ele><time>2026-03-29T13:49:21.93Z</time></trkpt><trkpt lat="45.5799683" lon="8.7800983"><ele>199.0</ele><time>2026-03-29T13:49:22.93Z</time></trkpt><trkpt lat="45.5799367" lon="8.78025"><ele>199.0</ele><time>2026-03-29T13:49:23.93Z</time></trkpt><trkpt lat="45.5799017" lon="8.7804"><ele>199.0</ele><time>2026-03-29T13:49:24.93Z</time></trkpt><trkpt lat="45.5798717" lon="8.7805467"><ele>198.79999999999998</ele><time>2026-03-29T13:49:25.93Z</time></trkpt><trkpt lat="45.5798467" lon="8.7806867"><ele>198.6</ele><time>2026-03-29T13:49:26.93Z</time></trkpt><trkpt lat="45.5798183" lon="8.78082"><ele>198.4</ele><time>2026-03-29T13:49:27.93Z</time></trkpt><trkpt lat="45.57979" lon="8.7809533"><ele>198.2</ele><time>2026-03-29T13:49:28.93Z</time></trkpt><trkpt lat="45.5797617" lon="8.78109"><ele>198.0</ele><time>2026-03-29T13:49:29.93Z</time></trkpt><trkpt lat="45.57973" lon="8.781225"><ele>198.0</ele><time>2026-03-29T13:49:30.93Z</time></trkpt><trkpt lat="45.5796917" lon="8.781355"><ele>198.0</ele><time>2026-03-29T13:49:31.93Z</time></trkpt><trkpt lat="45.579675" lon="8.7814617"><ele>198.0</ele><time>2026-03-29T13:49:32.93Z</time></trkpt><trkpt lat="45.5796633" lon="8.7815717"><ele>198.0</ele><time>2026-03-29T13:49:33.93Z</time></trkpt><trkpt lat="45.57965" lon="8.7816617"><ele>198.0</ele><time>2026-03-29T13:49:34.93Z</time></trkpt><trkpt lat="45.5795917" lon="8.7817783"><ele>198.0</ele><time>2026-03-29T13:49:36.93Z</time></trkpt><trkpt lat="45.5795283" lon="8.7818433"><ele>198.16666666666666</ele><time>2026-03-29T13:49:39.93Z</time></trkpt><trkpt lat="45.5794717" lon="8.7819267"><ele>198.33333333333331</ele><time>2026-03-29T13:50:24.93Z</time></trkpt><trkpt lat="45.579425" lon="8.782095"><ele>198.5</ele><time>2026-03-29T13:50:26.93Z</time></trkpt><trkpt lat="45.5794" lon="8.78219"><ele>198.66666666666666</ele><time>2026-03-29T13:50:27.93Z</time></trkpt><trkpt lat="45.579375" lon="8.7822917"><ele>198.83333333333331</ele><time>2026-03-29T13:50:28.93Z</time></trkpt><trkpt lat="45.57935" lon="8.7823933"><ele>199.0</ele><time>2026-03-29T13:50:29.93Z</time></trkpt><trkpt lat="45.5793283" lon="8.7825083"><ele>198.99999999999997</ele><time>2026-03-29T13:50:30.929Z</time></trkpt><trkpt lat="45.5793033" lon="8.7826283"><ele>199.0</ele><time>2026-03-29T13:50:31.93Z</time></trkpt><trkpt lat="45.579275" lon="8.782745"><ele>199.0</ele><time>2026-03-29T13:50:32.93Z</time></trkpt><trkpt lat="45.5792467" lon="8.78285"><ele>199.0</ele><time>2026-03-29T13:50:33.93Z</time></trkpt><trkpt lat="45.5792183" lon="8.7829333"><ele>198.99999999999997</ele><time>2026-03-29T13:50:34.929Z</time></trkpt><trkpt lat="45.5791833" lon="8.78309"><ele>199.0</ele><time>2026-03-29T13:50:36.93Z</time></trkpt><trkpt lat="45.57916" lon="8.7832133"><ele>198.79999999999998</ele><time>2026-03-29T13:50:38.93Z</time></trkpt><trkpt lat="45.579145" lon="8.7833333"><ele>198.6</ele><time>2026-03-29T13:50:40.93Z</time></trkpt><trkpt lat="45.5791267" lon="8.7834883"><ele>198.4</ele><time>2026-03-29T13:50:42.93Z</time></trkpt><trkpt lat="45.57911" lon="8.7836583"><ele>198.2</ele><time>2026-03-29T13:50:44.93Z</time></trkpt><trkpt lat="45.579075" lon="8.7838167"><ele>198.0</ele><time>2026-03-29T13:50:46.93Z</time></trkpt><trkpt lat="45.57905" lon="8.7839067"><ele>198.0</ele><time>2026-03-29T13:50:47.93Z</time></trkpt><trkpt lat="45.579025" lon="8.7840067"><ele>198.0</ele><time>2026-03-29T13:50:48.93Z</time></trkpt><trkpt lat="45.5790017" lon="8.7841133"><ele>198.0</ele><time>2026-03-29T13:50:49.93Z</time></trkpt><trkpt lat="45.5789767" lon="8.7842267"><ele>198.0</ele><time>2026-03-29T13:50:50.93Z</time></trkpt><trkpt lat="45.5789583" lon="8.7843333"><ele>198.0</ele><time>2026-03-29T13:50:51.93Z</time></trkpt><trkpt lat="45.5789367" lon="8.7844417"><ele>198.0</ele><time>2026-03-29T13:50:52.929Z</time></trkpt><trkpt lat="45.5789183" lon="8.78455"><ele>198.0</ele><time>2026-03-29T13:50:53.93Z</time></trkpt><trkpt lat="45.5789017" lon="8.784655"><ele>198.0</ele><time>2026-03-29T13:50:54.929Z</time></trkpt><trkpt lat="45.57888" lon="8.7847533"><ele>198.0</ele><time>2026-03-29T13:50:55.93Z</time></trkpt><trkpt lat="45.57886" lon="8.7848467"><ele>198.0</ele><time>2026-03-29T13:50:56.93Z</time></trkpt><trkpt lat="45.578825" lon="8.78502"><ele>198.0</ele><time>2026-03-29T13:50:58.93Z</time></trkpt><trkpt lat="45.578805" lon="8.7851067"><ele>198.0</ele><time>2026-03-29T13:50:59.93Z</time></trkpt><trkpt lat="45.578785" lon="8.7851983"><ele>198.16666666666666</ele><time>2026-03-29T13:51:00.93Z</time></trkpt><trkpt lat="45.578765" lon="8.7852917"><ele>198.33333333333331</ele><time>2026-03-29T13:51:01.93Z</time></trkpt><trkpt lat="45.57874" lon="8.7854617"><ele>198.5</ele><time>2026-03-29T13:51:03.93Z</time></trkpt><trkpt lat="45.5787233" lon="8.7855917"><ele>198.66666666666666</ele><time>2026-03-29T13:51:05.93Z</time></trkpt><trkpt lat="45.5787033" lon="8.7857017"><ele>198.83333333333331</ele><time>2026-03-29T13:51:07.93Z</time></trkpt><trkpt lat="45.5786917" lon="8.785805"><ele>199.0</ele><time>2026-03-29T13:51:09.93Z</time></trkpt><trkpt lat="45.5786617" lon="8.7859533"><ele>198.66666666666666</ele><time>2026-03-29T13:51:11.93Z</time></trkpt><trkpt lat="45.5786217" lon="8.78613"><ele>198.33333333333331</ele><time>2026-03-29T13:51:13.929Z</time></trkpt><trkpt lat="45.5785917" lon="8.786225"><ele>198.0</ele><time>2026-03-29T13:51:14.93Z</time></trkpt><trkpt lat="45.578565" lon="8.786325"><ele>197.66666666666669</ele><time>2026-03-29T13:51:15.93Z</time></trkpt><trkpt lat="45.5785383" lon="8.7864233"><ele>197.33333333333334</ele><time>2026-03-29T13:51:16.93Z</time></trkpt><trkpt lat="45.5785167" lon="8.786525"><ele>197.0</ele><time>2026-03-29T13:51:17.93Z</time></trkpt><trkpt lat="45.5784933" lon="8.786635"><ele>197.00000000000003</ele><time>2026-03-29T13:51:18.93Z</time></trkpt><trkpt lat="45.5784617" lon="8.7867367"><ele>197.0</ele><time>2026-03-29T13:51:19.93Z</time></trkpt><trkpt lat="45.5784417" lon="8.7868367"><ele>197.0</ele><time>2026-03-29T13:51:20.93Z</time></trkpt><trkpt lat="45.5784183" lon="8.7869333"><ele>197.0</ele><time>2026-03-29T13:51:21.93Z</time></trkpt><trkpt lat="45.578405" lon="8.787025"><ele>197.00000000000003</ele><time>2026-03-29T13:51:22.93Z</time></trkpt><trkpt lat="45.5783867" lon="8.7871867"><ele>197.0</ele><time>2026-03-29T13:51:24.93Z</time></trkpt><trkpt lat="45.5783633" lon="8.787325"><ele>197.16666666666669</ele><time>2026-03-29T13:51:26.93Z</time></trkpt><trkpt lat="45.578285" lon="8.7874217"><ele>197.33333333333334</ele><time>2026-03-29T13:51:28.929Z</time></trkpt><trkpt lat="45.5782183" lon="8.78746"><ele>197.5</ele><time>2026-03-29T13:51:29.93Z</time></trkpt><trkpt lat="45.5781383" lon="8.7874717"><ele>197.66666666666669</ele><time>2026-03-29T13:51:30.93Z</time></trkpt><trkpt lat="45.578055" lon="8.7874567"><ele>197.83333333333334</ele><time>2026-03-29T13:51:31.93Z</time></trkpt><trkpt lat="45.57798" lon="8.7874233"><ele>198.0</ele><time>2026-03-29T13:51:32.93Z</time></trkpt><trkpt lat="45.5779017" lon="8.787385"><ele>197.83333333333334</ele><time>2026-03-29T13:51:33.93Z</time></trkpt><trkpt lat="45.577825" lon="8.7873533"><ele>197.66666666666669</ele><time>2026-03-29T13:51:34.93Z</time></trkpt><trkpt lat="45.5777433" lon="8.7873317"><ele>197.5</ele><time>2026-03-29T13:51:35.93Z</time></trkpt><trkpt lat="45.577655" lon="8.78732"><ele>197.33333333333334</ele><time>2026-03-29T13:51:36.929Z</time></trkpt><trkpt lat="45.5775717" lon="8.7873117"><ele>197.16666666666669</ele><time>2026-03-29T13:51:37.93Z</time></trkpt><trkpt lat="45.577485" lon="8.7873083"><ele>197.0</ele><time>2026-03-29T13:51:38.93Z</time></trkpt><trkpt lat="45.5774033" lon="8.78728"><ele>197.0</ele><time>2026-03-29T13:51:39.93Z</time></trkpt><trkpt lat="45.5773083" lon="8.78727"><ele>197.0</ele><time>2026-03-29T13:51:40.93Z</time></trkpt><trkpt lat="45.5772133" lon="8.787295"><ele>197.0</ele><time>2026-03-29T13:51:41.93Z</time></trkpt><trkpt lat="45.5770933" lon="8.787305"><ele>197.0</ele><time>2026-03-29T13:51:42.93Z</time></trkpt><trkpt lat="45.577005" lon="8.78733"><ele>197.0</ele><time>2026-03-29T13:51:43.93Z</time></trkpt><trkpt lat="45.5769217" lon="8.7873183"><ele>196.8</ele><time>2026-03-29T13:51:44.93Z</time></trkpt><trkpt lat="45.576845" lon="8.7872967"><ele>196.6</ele><time>2026-03-29T13:51:45.93Z</time></trkpt><trkpt lat="45.576765" lon="8.7872317"><ele>196.4</ele><time>2026-03-29T13:51:46.93Z</time></trkpt><trkpt lat="45.5766867" lon="8.7871533"><ele>196.20000000000002</ele><time>2026-03-29T13:51:47.93Z</time></trkpt><trkpt lat="45.5766067" lon="8.7870667"><ele>196.0</ele><time>2026-03-29T13:51:48.93Z</time></trkpt><trkpt lat="45.576525" lon="8.786985"><ele>195.99999999999997</ele><time>2026-03-29T13:51:49.93Z</time></trkpt><trkpt lat="45.5764367" lon="8.7869067"><ele>196.0</ele><time>2026-03-29T13:51:50.93Z</time></trkpt><trkpt lat="45.5763533" lon="8.78684"><ele>196.0</ele><time>2026-03-29T13:51:51.929Z</time></trkpt><trkpt lat="45.576275" lon="8.7867867"><ele>196.0</ele><time>2026-03-29T13:51:52.93Z</time></trkpt><trkpt lat="45.5762117" lon="8.7867333"><ele>195.99999999999997</ele><time>2026-03-29T13:51:53.929Z</time></trkpt><trkpt lat="45.5761533" lon="8.7866817"><ele>196.0</ele><time>2026-03-29T13:51:54.93Z</time></trkpt><trkpt lat="45.5760983" lon="8.7866283"><ele>195.99999999999997</ele><time>2026-03-29T13:51:55.93Z</time></trkpt><trkpt lat="45.57604" lon="8.7865817"><ele>196.0</ele><time>2026-03-29T13:51:56.93Z</time></trkpt><trkpt lat="45.5759783" lon="8.7865333"><ele>196.0</ele><time>2026-03-29T13:51:57.93Z</time></trkpt><trkpt lat="45.57591" lon="8.7864933"><ele>196.0</ele><time>2026-03-29T13:51:58.93Z</time></trkpt><trkpt lat="45.5758417" lon="8.7864567"><ele>195.99999999999997</ele><time>2026-03-29T13:51:59.93Z</time></trkpt><trkpt lat="45.5757683" lon="8.78645"><ele>196.0</ele><time>2026-03-29T13:52:00.929Z</time></trkpt><trkpt lat="45.575675" lon="8.786535"><ele>196.0</ele><time>2026-03-29T13:52:02.93Z</time></trkpt><trkpt lat="45.5756533" lon="8.786665"><ele>196.0</ele><time>2026-03-29T13:52:04.93Z</time></trkpt><trkpt lat="45.575715" lon="8.7868483"><ele>196.0</ele><time>2026-03-29T13:52:07.93Z</time></trkpt><trkpt lat="45.5757783" lon="8.786875"><ele>196.0</ele><time>2026-03-29T13:52:08.93Z</time></trkpt><trkpt lat="45.575855" lon="8.7868717"><ele>196.0</ele><time>2026-03-29T13:52:09.93Z</time></trkpt><trkpt lat="45.5759317" lon="8.7868683"><ele>196.0</ele><time>2026-03-29T13:52:10.93Z</time></trkpt><trkpt lat="45.5760167" lon="8.7868617"><ele>196.0</ele><time>2026-03-29T13:52:11.93Z</time></trkpt><trkpt lat="45.576105" lon="8.786875"><ele>196.0</ele><time>2026-03-29T13:52:12.93Z</time></trkpt><trkpt lat="45.5762067" lon="8.786905"><ele>196.0</ele><time>2026-03-29T13:52:13.93Z</time></trkpt><trkpt lat="45.5763217" lon="8.7869783"><ele>196.0</ele><time>2026-03-29T13:52:14.93Z</time></trkpt><trkpt lat="45.5764733" lon="8.787075"><ele>196.0</ele><time>2026-03-29T13:52:15.929Z</time></trkpt><trkpt lat="45.5766233" lon="8.7871933"><ele>196.0</ele><time>2026-03-29T13:52:16.93Z</time></trkpt><trkpt lat="45.5767767" lon="8.7873283"><ele>196.0</ele><time>2026-03-29T13:52:17.93Z</time></trkpt><trkpt lat="45.57692" lon="8.7874533"><ele>196.0</ele><time>2026-03-29T13:52:18.93Z</time></trkpt><trkpt lat="45.5770533" lon="8.7875567"><ele>196.0</ele><time>2026-03-29T13:52:19.93Z</time></trkpt><trkpt lat="45.577195" lon="8.7876417"><ele>196.0</ele><time>2026-03-29T13:52:20.93Z</time></trkpt><trkpt lat="45.57734" lon="8.7877167"><ele>196.0</ele><time>2026-03-29T13:52:21.929Z</time></trkpt><trkpt lat="45.577495" lon="8.78779"><ele>196.0</ele><time>2026-03-29T13:52:22.93Z</time></trkpt><trkpt lat="45.57764" lon="8.7878833"><ele>196.0</ele><time>2026-03-29T13:52:23.93Z</time></trkpt><trkpt lat="45.5777667" lon="8.7879733"><ele>196.4</ele><time>2026-03-29T13:52:24.93Z</time></trkpt><trkpt lat="45.577875" lon="8.788045"><ele>196.8</ele><time>2026-03-29T13:52:25.93Z</time></trkpt><trkpt lat="45.5779583" lon="8.7880933"><ele>197.20000000000002</ele><time>2026-03-29T13:52:26.93Z</time></trkpt><trkpt lat="45.578035" lon="8.7881533"><ele>197.60000000000002</ele><time>2026-03-29T13:52:27.93Z</time></trkpt><trkpt lat="45.5781017" lon="8.788205"><ele>198.0</ele><time>2026-03-29T13:52:28.93Z</time></trkpt><trkpt lat="45.5781667" lon="8.788315"><ele>199.0</ele><time>2026-03-29T13:52:30.929Z</time></trkpt><trkpt lat="45.578155" lon="8.7885167"><ele>200.0</ele><time>2026-03-29T13:52:32.929Z</time></trkpt><trkpt lat="45.5781383" lon="8.788665"><ele>201.0</ele><time>2026-03-29T13:52:33.929Z</time></trkpt><trkpt lat="45.57811" lon="8.7888517"><ele>202.0</ele><time>2026-03-29T13:52:34.929Z</time></trkpt><trkpt lat="45.578035" lon="8.78908"><ele>202.0</ele><time>2026-03-29T13:52:35.929Z</time></trkpt><trkpt lat="45.5779767" lon="8.7893167"><ele>202.0</ele><time>2026-03-29T13:52:36.929Z</time></trkpt><trkpt lat="45.5779267" lon="8.7895667"><ele>202.0</ele><time>2026-03-29T13:52:37.929Z</time></trkpt><trkpt lat="45.5778817" lon="8.7898183"><ele>200.66666666666666</ele><time>2026-03-29T13:52:38.929Z</time></trkpt><trkpt lat="45.57783" lon="8.7900867"><ele>199.33333333333331</ele><time>2026-03-29T13:52:39.929Z</time></trkpt><trkpt lat="45.577785" lon="8.7903517"><ele>198.0</ele><time>2026-03-29T13:52:40.929Z</time></trkpt><trkpt lat="45.5777433" lon="8.7906183"><ele>198.0</ele><time>2026-03-29T13:52:41.929Z</time></trkpt><trkpt lat="45.5777133" lon="8.7908783"><ele>198.0</ele><time>2026-03-29T13:52:42.929Z</time></trkpt><trkpt lat="45.5776833" lon="8.7911383"><ele>198.0</ele><time>2026-03-29T13:52:43.929Z</time></trkpt><trkpt lat="45.5776433" lon="8.7914033"><ele>197.66666666666669</ele><time>2026-03-29T13:52:44.929Z</time></trkpt><trkpt lat="45.5775967" lon="8.79167"><ele>197.33333333333334</ele><time>2026-03-29T13:52:45.929Z</time></trkpt><trkpt lat="45.5775433" lon="8.7919233"><ele>197.0</ele><time>2026-03-29T13:52:46.929Z</time></trkpt><trkpt lat="45.5774983" lon="8.7921533"><ele>197.0</ele><time>2026-03-29T13:52:47.929Z</time></trkpt><trkpt lat="45.5774517" lon="8.7923833"><ele>197.0</ele><time>2026-03-29T13:52:48.929Z</time></trkpt><trkpt lat="45.5774133" lon="8.7926017"><ele>197.0</ele><time>2026-03-29T13:52:49.929Z</time></trkpt><trkpt lat="45.57739" lon="8.7928"><ele>197.25</ele><time>2026-03-29T13:52:50.929Z</time></trkpt><trkpt lat="45.577355" lon="8.7929733"><ele>197.5</ele><time>2026-03-29T13:52:51.929Z</time></trkpt><trkpt lat="45.5773233" lon="8.7931333"><ele>197.75</ele><time>2026-03-29T13:52:52.929Z</time></trkpt><trkpt lat="45.5773017" lon="8.7932967"><ele>198.0</ele><time>2026-03-29T13:52:53.929Z</time></trkpt><trkpt lat="45.57727" lon="8.7934967"><ele>198.0</ele><time>2026-03-29T13:52:54.928Z</time></trkpt><trkpt lat="45.5772367" lon="8.7937217"><ele>198.0</ele><time>2026-03-29T13:52:55.929Z</time></trkpt><trkpt lat="45.5772" lon="8.7939517"><ele>198.0</ele><time>2026-03-29T13:52:56.928Z</time></trkpt><trkpt lat="45.5771667" lon="8.7941983"><ele>198.33333333333331</ele><time>2026-03-29T13:52:57.929Z</time></trkpt><trkpt lat="45.577125" lon="8.7944617"><ele>198.66666666666666</ele><time>2026-03-29T13:52:58.929Z</time></trkpt><trkpt lat="45.577095" lon="8.7947417"><ele>199.0</ele><time>2026-03-29T13:52:59.929Z</time></trkpt><trkpt lat="45.57706" lon="8.7950133"><ele>199.0</ele><time>2026-03-29T13:53:00.929Z</time></trkpt><trkpt lat="45.5770217" lon="8.7952867"><ele>199.0</ele><time>2026-03-29T13:53:01.929Z</time></trkpt><trkpt lat="45.5769717" lon="8.79555"><ele>199.0</ele><time>2026-03-29T13:53:02.929Z</time></trkpt><trkpt lat="45.5769433" lon="8.7958417"><ele>198.0</ele><time>2026-03-29T13:53:03.929Z</time></trkpt><trkpt lat="45.5768867" lon="8.7961233"><ele>197.0</ele><time>2026-03-29T13:53:04.928Z</time></trkpt><trkpt lat="45.5768467" lon="8.7964133"><ele>196.0</ele><time>2026-03-29T13:53:05.929Z</time></trkpt><trkpt lat="45.5768017" lon="8.7967067"><ele>196.33333333333331</ele><time>2026-03-29T13:53:06.929Z</time></trkpt><trkpt lat="45.576755" lon="8.79698"><ele>196.66666666666669</ele><time>2026-03-29T13:53:07.928Z</time></trkpt><trkpt lat="45.5767133" lon="8.7972417"><ele>197.0</ele><time>2026-03-29T13:53:08.928Z</time></trkpt><trkpt lat="45.5766667" lon="8.7975017"><ele>196.66666666666669</ele><time>2026-03-29T13:53:09.929Z</time></trkpt><trkpt lat="45.576615" lon="8.7977667"><ele>196.33333333333331</ele><time>2026-03-29T13:53:10.929Z</time></trkpt><trkpt lat="45.5765667" lon="8.79802"><ele>196.0</ele><time>2026-03-29T13:53:11.929Z</time></trkpt><trkpt lat="45.5765167" lon="8.7982833"><ele>196.33333333333331</ele><time>2026-03-29T13:53:12.929Z</time></trkpt><trkpt lat="45.5764767" lon="8.7985317"><ele>196.66666666666669</ele><time>2026-03-29T13:53:13.929Z</time></trkpt><trkpt lat="45.5764267" lon="8.79877"><ele>197.0</ele><time>2026-03-29T13:53:14.929Z</time></trkpt><trkpt lat="45.5763933" lon="8.79898"><ele>197.0</ele><time>2026-03-29T13:53:15.929Z</time></trkpt><trkpt lat="45.57637" lon="8.799195"><ele>197.0</ele><time>2026-03-29T13:53:16.929Z</time></trkpt><trkpt lat="45.576335" lon="8.79939"><ele>197.0</ele><time>2026-03-29T13:53:17.928Z</time></trkpt><trkpt lat="45.5763" lon="8.7995717"><ele>197.0</ele><time>2026-03-29T13:53:18.929Z</time></trkpt><trkpt lat="45.5762733" lon="8.79975"><ele>197.0</ele><time>2026-03-29T13:53:19.928Z</time></trkpt><trkpt lat="45.576245" lon="8.7999233"><ele>197.0</ele><time>2026-03-29T13:53:20.929Z</time></trkpt><trkpt lat="45.576215" lon="8.8000867"><ele>197.0</ele><time>2026-03-29T13:53:21.928Z</time></trkpt><trkpt lat="45.5761833" lon="8.800255"><ele>197.0</ele><time>2026-03-29T13:53:22.929Z</time></trkpt><trkpt lat="45.57615" lon="8.8004317"><ele>197.0</ele><time>2026-03-29T13:53:23.929Z</time></trkpt><trkpt lat="45.576125" lon="8.800595"><ele>197.0</ele><time>2026-03-29T13:53:24.928Z</time></trkpt><trkpt lat="45.5760983" lon="8.8007517"><ele>197.0</ele><time>2026-03-29T13:53:25.929Z</time></trkpt><trkpt lat="45.5760833" lon="8.8008867"><ele>197.0</ele><time>2026-03-29T13:53:26.929Z</time></trkpt><trkpt lat="45.5760667" lon="8.8010067"><ele>197.0</ele><time>2026-03-29T13:53:27.929Z</time></trkpt><trkpt lat="45.57607" lon="8.8011183"><ele>197.0</ele><time>2026-03-29T13:53:28.929Z</time></trkpt><trkpt lat="45.57611" lon="8.8012033"><ele>197.0</ele><time>2026-03-29T13:53:29.929Z</time></trkpt><trkpt lat="45.5761683" lon="8.8012667"><ele>197.0</ele><time>2026-03-29T13:53:30.929Z</time></trkpt><trkpt lat="45.5762517" lon="8.8013133"><ele>197.0</ele><time>2026-03-29T13:53:31.929Z</time></trkpt><trkpt lat="45.5763683" lon="8.8013417"><ele>197.0</ele><time>2026-03-29T13:53:32.929Z</time></trkpt><trkpt lat="45.5765117" lon="8.8013517"><ele>197.2</ele><time>2026-03-29T13:53:33.929Z</time></trkpt><trkpt lat="45.576635" lon="8.8013683"><ele>197.39999999999998</ele><time>2026-03-29T13:53:34.929Z</time></trkpt><trkpt lat="45.5767333" lon="8.8013917"><ele>197.60000000000002</ele><time>2026-03-29T13:53:35.929Z</time></trkpt><trkpt lat="45.576815" lon="8.8014067"><ele>197.8</ele><time>2026-03-29T13:53:36.929Z</time></trkpt><trkpt lat="45.576905" lon="8.8014183"><ele>198.0</ele><time>2026-03-29T13:53:37.929Z</time></trkpt><trkpt lat="45.576985" lon="8.8014267"><ele>198.0</ele><time>2026-03-29T13:53:38.929Z</time></trkpt><trkpt lat="45.5770583" lon="8.8014467"><ele>198.0</ele><time>2026-03-29T13:53:39.929Z</time></trkpt><trkpt lat="45.577125" lon="8.80146"><ele>198.0</ele><time>2026-03-29T13:53:40.929Z</time></trkpt><trkpt lat="45.5771917" lon="8.80148"><ele>198.0</ele><time>2026-03-29T13:53:41.929Z</time></trkpt><trkpt lat="45.57729" lon="8.8015083"><ele>198.0</ele><time>2026-03-29T13:53:43.929Z</time></trkpt><trkpt lat="45.5773517" lon="8.8014783"><ele>198.0</ele><time>2026-03-29T13:53:45.929Z</time></trkpt><trkpt lat="45.577375" lon="8.801355"><ele>198.0</ele><time>2026-03-29T13:53:47.929Z</time></trkpt><trkpt lat="45.5773817" lon="8.801205"><ele>198.0</ele><time>2026-03-29T13:53:49.929Z</time></trkpt><trkpt lat="45.57735" lon="8.8011083"><ele>198.0</ele><time>2026-03-29T13:53:51.929Z</time></trkpt><trkpt lat="45.5772617" lon="8.8010567"><ele>198.0</ele><time>2026-03-29T13:53:53.929Z</time></trkpt><trkpt lat="45.577195" lon="8.8010317"><ele>198.0</ele><time>2026-03-29T13:53:54.929Z</time></trkpt><trkpt lat="45.5771133" lon="8.8010183"><ele>198.0</ele><time>2026-03-29T13:53:55.929Z</time></trkpt><trkpt lat="45.5770333" lon="8.8010083"><ele>197.83333333333334</ele><time>2026-03-29T13:53:56.929Z</time></trkpt><trkpt lat="45.57695" lon="8.8009917"><ele>197.66666666666669</ele><time>2026-03-29T13:53:57.928Z</time></trkpt><trkpt lat="45.5768717" lon="8.800975"><ele>197.5</ele><time>2026-03-29T13:53:58.929Z</time></trkpt><trkpt lat="45.57679" lon="8.8009433"><ele>197.33333333333334</ele><time>2026-03-29T13:53:59.929Z</time></trkpt><trkpt lat="45.57671" lon="8.8009217"><ele>197.16666666666669</ele><time>2026-03-29T13:54:00.929Z</time></trkpt><trkpt lat="45.576625" lon="8.800905"><ele>197.0</ele><time>2026-03-29T13:54:01.929Z</time></trkpt><trkpt lat="45.5765483" lon="8.8008817"><ele>197.00000000000003</ele><time>2026-03-29T13:54:02.928Z</time></trkpt><trkpt lat="45.57647" lon="8.80086"><ele>197.0</ele><time>2026-03-29T13:54:03.928Z</time></trkpt><trkpt lat="45.5763983" lon="8.8008333"><ele>197.0</ele><time>2026-03-29T13:54:04.928Z</time></trkpt><trkpt lat="45.57633" lon="8.8008067"><ele>197.0</ele><time>2026-03-29T13:54:05.929Z</time></trkpt><trkpt lat="45.5762433" lon="8.8007783"><ele>197.00000000000003</ele><time>2026-03-29T13:54:07.929Z</time></trkpt><trkpt lat="45.576135" lon="8.8007417"><ele>197.0</ele><time>2026-03-29T13:54:27.929Z</time></trkpt><trkpt lat="45.5760817" lon="8.8008517"><ele>197.00000000000003</ele><time>2026-03-29T13:54:29.929Z</time></trkpt><trkpt lat="45.5760483" lon="8.8009617"><ele>197.0</ele><time>2026-03-29T13:54:30.929Z</time></trkpt><trkpt lat="45.57602" lon="8.8010833"><ele>197.0</ele><time>2026-03-29T13:54:31.929Z</time></trkpt><trkpt lat="45.575995" lon="8.8012133"><ele>197.0</ele><time>2026-03-29T13:54:32.929Z</time></trkpt><trkpt lat="45.575975" lon="8.8013433"><ele>197.00000000000003</ele><time>2026-03-29T13:54:33.929Z</time></trkpt><trkpt lat="45.5759617" lon="8.8014667"><ele>197.0</ele><time>2026-03-29T13:54:34.929Z</time></trkpt><trkpt lat="45.5759567" lon="8.801585"><ele>197.0</ele><time>2026-03-29T13:54:35.929Z</time></trkpt><trkpt lat="45.5759517" lon="8.801695"><ele>197.0</ele><time>2026-03-29T13:54:36.929Z</time></trkpt><trkpt lat="45.5759783" lon="8.801865"><ele>197.0</ele><time>2026-03-29T13:54:38.929Z</time></trkpt><trkpt lat="45.575995" lon="8.8019817"><ele>197.0</ele><time>2026-03-29T13:54:40.929Z</time></trkpt><trkpt lat="45.5760367" lon="8.8020717"><ele>197.0</ele><time>2026-03-29T13:55:31.929Z</time></trkpt><trkpt lat="45.576065" lon="8.8022117"><ele>197.00000000000003</ele><time>2026-03-29T13:55:33.929Z</time></trkpt><trkpt lat="45.5760817" lon="8.8023117"><ele>197.0</ele><time>2026-03-29T13:55:34.929Z</time></trkpt><trkpt lat="45.57609" lon="8.8024283"><ele>197.0</ele><time>2026-03-29T13:55:35.929Z</time></trkpt><trkpt lat="45.57609" lon="8.8025567"><ele>197.0</ele><time>2026-03-29T13:55:36.929Z</time></trkpt><trkpt lat="45.5760917" lon="8.8026933"><ele>197.00000000000003</ele><time>2026-03-29T13:55:37.928Z</time></trkpt><trkpt lat="45.576105" lon="8.802815"><ele>197.0</ele><time>2026-03-29T13:55:38.928Z</time></trkpt><trkpt lat="45.5761267" lon="8.8029283"><ele>197.0</ele><time>2026-03-29T13:55:39.928Z</time></trkpt><trkpt lat="45.5761367" lon="8.8030367"><ele>197.0</ele><time>2026-03-29T13:55:40.928Z</time></trkpt><trkpt lat="45.57613" lon="8.803165"><ele>197.0</ele><time>2026-03-29T13:55:41.928Z</time></trkpt><trkpt lat="45.5761083" lon="8.8032933"><ele>197.0</ele><time>2026-03-29T13:55:42.928Z</time></trkpt><trkpt lat="45.5760817" lon="8.803425"><ele>197.0</ele><time>2026-03-29T13:55:43.928Z</time></trkpt><trkpt lat="45.5760533" lon="8.8035667"><ele>196.8</ele><time>2026-03-29T13:55:44.928Z</time></trkpt><trkpt lat="45.57603" lon="8.80372"><ele>196.6</ele><time>2026-03-29T13:55:45.928Z</time></trkpt><trkpt lat="45.5760067" lon="8.803855"><ele>196.4</ele><time>2026-03-29T13:55:46.928Z</time></trkpt><trkpt lat="45.5759867" lon="8.8039567"><ele>196.20000000000002</ele><time>2026-03-29T13:55:47.928Z</time></trkpt><trkpt lat="45.57595" lon="8.8040983"><ele>196.0</ele><time>2026-03-29T13:55:49.928Z</time></trkpt><trkpt lat="45.5759233" lon="8.80421"><ele>196.0</ele><time>2026-03-29T13:55:52.928Z</time></trkpt><trkpt lat="45.575895" lon="8.8043917"><ele>196.0</ele><time>2026-03-29T13:55:54.928Z</time></trkpt><trkpt lat="45.5758717" lon="8.8045367"><ele>196.0</ele><time>2026-03-29T13:55:55.928Z</time></trkpt><trkpt lat="45.5758317" lon="8.8047167"><ele>196.0</ele><time>2026-03-29T13:55:56.928Z</time></trkpt><trkpt lat="45.5757817" lon="8.8049333"><ele>196.0</ele><time>2026-03-29T13:55:57.928Z</time></trkpt><trkpt lat="45.5757383" lon="8.805145"><ele>196.0</ele><time>2026-03-29T13:55:58.928Z</time></trkpt><trkpt lat="45.575685" lon="8.8053667"><ele>196.0</ele><time>2026-03-29T13:55:59.928Z</time></trkpt><trkpt lat="45.5756133" lon="8.8056"><ele>196.33333333333331</ele><time>2026-03-29T13:56:00.927Z</time></trkpt><trkpt lat="45.57554" lon="8.80584"><ele>196.66666666666669</ele><time>2026-03-29T13:56:01.928Z</time></trkpt><trkpt lat="45.5754617" lon="8.806075"><ele>197.0</ele><time>2026-03-29T13:56:02.928Z</time></trkpt><trkpt lat="45.5753833" lon="8.806315"><ele>196.66666666666669</ele><time>2026-03-29T13:56:03.927Z</time></trkpt><trkpt lat="45.57531" lon="8.8065533"><ele>196.33333333333331</ele><time>2026-03-29T13:56:04.928Z</time></trkpt><trkpt lat="45.5752333" lon="8.806815"><ele>196.0</ele><time>2026-03-29T13:56:05.928Z</time></trkpt><trkpt lat="45.5751483" lon="8.80707"><ele>196.0</ele><time>2026-03-29T13:56:06.928Z</time></trkpt><trkpt lat="45.575065" lon="8.8073217"><ele>196.0</ele><time>2026-03-29T13:56:07.928Z</time></trkpt><trkpt lat="45.574995" lon="8.8075683"><ele>196.0</ele><time>2026-03-29T13:56:08.927Z</time></trkpt><trkpt lat="45.574925" lon="8.807835"><ele>196.33333333333331</ele><time>2026-03-29T13:56:09.928Z</time></trkpt><trkpt lat="45.57486" lon="8.808125"><ele>196.66666666666669</ele><time>2026-03-29T13:56:10.928Z</time></trkpt><trkpt lat="45.5748217" lon="8.8084083"><ele>197.0</ele><time>2026-03-29T13:56:11.928Z</time></trkpt><trkpt lat="45.5747733" lon="8.8087017"><ele>197.0</ele><time>2026-03-29T13:56:12.928Z</time></trkpt><trkpt lat="45.57473" lon="8.80899"><ele>197.0</ele><time>2026-03-29T13:56:13.928Z</time></trkpt><trkpt lat="45.5746783" lon="8.8092867"><ele>197.0</ele><time>2026-03-29T13:56:14.928Z</time></trkpt><trkpt lat="45.5746317" lon="8.8095617"><ele>197.0</ele><time>2026-03-29T13:56:15.928Z</time></trkpt><trkpt lat="45.5746" lon="8.8098133"><ele>197.0</ele><time>2026-03-29T13:56:16.928Z</time></trkpt><trkpt lat="45.5745633" lon="8.8100417"><ele>197.0</ele><time>2026-03-29T13:56:17.928Z</time></trkpt><trkpt lat="45.574515" lon="8.81025"><ele>196.75</ele><time>2026-03-29T13:56:18.928Z</time></trkpt><trkpt lat="45.5744817" lon="8.8104433"><ele>196.5</ele><time>2026-03-29T13:56:19.928Z</time></trkpt><trkpt lat="45.5744567" lon="8.8106233"><ele>196.25</ele><time>2026-03-29T13:56:20.928Z</time></trkpt><trkpt lat="45.5744283" lon="8.8108033"><ele>196.0</ele><time>2026-03-29T13:56:21.928Z</time></trkpt><trkpt lat="45.5744" lon="8.8109783"><ele>195.75</ele><time>2026-03-29T13:56:22.928Z</time></trkpt><trkpt lat="45.57438" lon="8.8111767"><ele>195.5</ele><time>2026-03-29T13:56:23.928Z</time></trkpt><trkpt lat="45.574355" lon="8.81139"><ele>195.25</ele><time>2026-03-29T13:56:24.928Z</time></trkpt><trkpt lat="45.574325" lon="8.8116067"><ele>195.0</ele><time>2026-03-29T13:56:25.928Z</time></trkpt><trkpt lat="45.5742917" lon="8.8118617"><ele>194.33333333333331</ele><time>2026-03-29T13:56:26.928Z</time></trkpt><trkpt lat="45.5742633" lon="8.8121133"><ele>193.66666666666666</ele><time>2026-03-29T13:56:27.928Z</time></trkpt><trkpt lat="45.57423" lon="8.81237"><ele>193.0</ele><time>2026-03-29T13:56:28.928Z</time></trkpt><trkpt lat="45.574205" lon="8.8126417"><ele>193.33333333333331</ele><time>2026-03-29T13:56:29.928Z</time></trkpt><trkpt lat="45.5741733" lon="8.8129133"><ele>193.66666666666669</ele><time>2026-03-29T13:56:30.928Z</time></trkpt><trkpt lat="45.5741417" lon="8.8131917"><ele>194.0</ele><time>2026-03-29T13:56:31.928Z</time></trkpt><trkpt lat="45.5741033" lon="8.81346"><ele>194.66666666666669</ele><time>2026-03-29T13:56:32.928Z</time></trkpt><trkpt lat="45.5740817" lon="8.813705"><ele>195.33333333333331</ele><time>2026-03-29T13:56:33.928Z</time></trkpt><trkpt lat="45.57406" lon="8.813925"><ele>196.0</ele><time>2026-03-29T13:56:34.927Z</time></trkpt><trkpt lat="45.574035" lon="8.8141417"><ele>196.0</ele><time>2026-03-29T13:56:35.928Z</time></trkpt><trkpt lat="45.574005" lon="8.81435"><ele>196.0</ele><time>2026-03-29T13:56:36.928Z</time></trkpt><trkpt lat="45.573985" lon="8.81455"><ele>196.0</ele><time>2026-03-29T13:56:37.928Z</time></trkpt><trkpt lat="45.57396" lon="8.8147667"><ele>196.0</ele><time>2026-03-29T13:56:38.928Z</time></trkpt><trkpt lat="45.5739433" lon="8.8149667"><ele>195.75</ele><time>2026-03-29T13:56:39.928Z</time></trkpt><trkpt lat="45.57392" lon="8.81517"><ele>195.5</ele><time>2026-03-29T13:56:40.928Z</time></trkpt><trkpt lat="45.573895" lon="8.8153633"><ele>195.25</ele><time>2026-03-29T13:56:41.928Z</time></trkpt><trkpt lat="45.5738717" lon="8.8155433"><ele>195.0</ele><time>2026-03-29T13:56:42.928Z</time></trkpt><trkpt lat="45.5738483" lon="8.8157"><ele>195.0</ele><time>2026-03-29T13:56:43.928Z</time></trkpt><trkpt lat="45.573825" lon="8.8158267"><ele>195.0</ele><time>2026-03-29T13:56:44.928Z</time></trkpt><trkpt lat="45.573815" lon="8.8159267"><ele>195.0</ele><time>2026-03-29T13:56:45.928Z</time></trkpt><trkpt lat="45.5737933" lon="8.8160817"><ele>195.0</ele><time>2026-03-29T13:56:47.928Z</time></trkpt><trkpt lat="45.5737933" lon="8.8161733"><ele>195.0</ele><time>2026-03-29T13:56:49.928Z</time></trkpt><trkpt lat="45.5738067" lon="8.8163083"><ele>195.0</ele><time>2026-03-29T13:56:51.927Z</time></trkpt><trkpt lat="45.57382" lon="8.81642"><ele>195.25</ele><time>2026-03-29T13:56:52.928Z</time></trkpt><trkpt lat="45.573845" lon="8.8165717"><ele>195.5</ele><time>2026-03-29T13:56:53.928Z</time></trkpt><trkpt lat="45.5738567" lon="8.816745"><ele>195.75</ele><time>2026-03-29T13:56:54.928Z</time></trkpt><trkpt lat="45.573875" lon="8.8169267"><ele>196.0</ele><time>2026-03-29T13:56:55.928Z</time></trkpt><trkpt lat="45.57389" lon="8.8170883"><ele>195.99999999999997</ele><time>2026-03-29T13:56:56.928Z</time></trkpt><trkpt lat="45.5739033" lon="8.81723"><ele>196.0</ele><time>2026-03-29T13:56:57.928Z</time></trkpt><trkpt lat="45.5739317" lon="8.8173433"><ele>196.0</ele><time>2026-03-29T13:56:58.928Z</time></trkpt><trkpt lat="45.573985" lon="8.81744"><ele>196.0</ele><time>2026-03-29T13:56:59.928Z</time></trkpt><trkpt lat="45.57405" lon="8.81751"><ele>195.99999999999997</ele><time>2026-03-29T13:57:00.928Z</time></trkpt><trkpt lat="45.5741333" lon="8.8175517"><ele>196.0</ele><time>2026-03-29T13:57:01.928Z</time></trkpt><trkpt lat="45.5742367" lon="8.8175683"><ele>196.0</ele><time>2026-03-29T13:57:02.928Z</time></trkpt><trkpt lat="45.5743667" lon="8.8175617"><ele>196.0</ele><time>2026-03-29T13:57:03.928Z</time></trkpt><trkpt lat="45.574515" lon="8.817545"><ele>196.0</ele><time>2026-03-29T13:57:04.928Z</time></trkpt><trkpt lat="45.5746517" lon="8.8175283"><ele>196.0</ele><time>2026-03-29T13:57:05.928Z</time></trkpt><trkpt lat="45.574775" lon="8.8175383"><ele>196.16666666666666</ele><time>2026-03-29T13:57:06.928Z</time></trkpt><trkpt lat="45.57488" lon="8.81754"><ele>196.33333333333331</ele><time>2026-03-29T13:57:07.928Z</time></trkpt><trkpt lat="45.5749717" lon="8.817535"><ele>196.5</ele><time>2026-03-29T13:57:08.928Z</time></trkpt><trkpt lat="45.575045" lon="8.8175283"><ele>196.66666666666669</ele><time>2026-03-29T13:57:09.928Z</time></trkpt><trkpt lat="45.5751083" lon="8.81752"><ele>196.83333333333334</ele><time>2026-03-29T13:57:10.928Z</time></trkpt><trkpt lat="45.5751967" lon="8.817545"><ele>197.0</ele><time>2026-03-29T13:57:12.928Z</time></trkpt><trkpt lat="45.5752133" lon="8.81767"><ele>197.2</ele><time>2026-03-29T13:57:14.928Z</time></trkpt><trkpt lat="45.5752217" lon="8.8177767"><ele>197.39999999999998</ele><time>2026-03-29T13:57:15.928Z</time></trkpt><trkpt lat="45.5752283" lon="8.8179167"><ele>197.60000000000002</ele><time>2026-03-29T13:57:16.928Z</time></trkpt><trkpt lat="45.5752417" lon="8.8180817"><ele>197.8</ele><time>2026-03-29T13:57:17.928Z</time></trkpt><trkpt lat="45.5752617" lon="8.8182967"><ele>198.0</ele><time>2026-03-29T13:57:18.928Z</time></trkpt><trkpt lat="45.57527" lon="8.8185083"><ele>197.33333333333331</ele><time>2026-03-29T13:57:19.927Z</time></trkpt><trkpt lat="45.5752983" lon="8.81875"><ele>196.66666666666666</ele><time>2026-03-29T13:57:20.928Z</time></trkpt><trkpt lat="45.575325" lon="8.8189667"><ele>196.0</ele><time>2026-03-29T13:57:21.928Z</time></trkpt><trkpt lat="45.5753483" lon="8.819165"><ele>196.33333333333331</ele><time>2026-03-29T13:57:22.928Z</time></trkpt><trkpt lat="45.5753667" lon="8.8193817"><ele>196.66666666666669</ele><time>2026-03-29T13:57:23.928Z</time></trkpt><trkpt lat="45.5753933" lon="8.8196"><ele>197.0</ele><time>2026-03-29T13:57:24.928Z</time></trkpt><trkpt lat="45.5754067" lon="8.8198267"><ele>197.0</ele><time>2026-03-29T13:57:25.928Z</time></trkpt><trkpt lat="45.5754633" lon="8.820045"><ele>197.0</ele><time>2026-03-29T13:57:26.928Z</time></trkpt><trkpt lat="45.5754833" lon="8.8202617"><ele>197.0</ele><time>2026-03-29T13:57:27.928Z</time></trkpt><trkpt lat="45.5755183" lon="8.8204817"><ele>197.0</ele><time>2026-03-29T13:57:28.928Z</time></trkpt><trkpt lat="45.5755383" lon="8.820695"><ele>197.0</ele><time>2026-03-29T13:57:29.928Z</time></trkpt><trkpt lat="45.5755683" lon="8.820915"><ele>197.0</ele><time>2026-03-29T13:57:30.928Z</time></trkpt><trkpt lat="45.5755817" lon="8.82114"><ele>197.0</ele><time>2026-03-29T13:57:31.928Z</time></trkpt><trkpt lat="45.5756117" lon="8.82136"><ele>197.0</ele><time>2026-03-29T13:57:32.927Z</time></trkpt><trkpt lat="45.5756383" lon="8.8215967"><ele>197.0</ele><time>2026-03-29T13:57:33.928Z</time></trkpt><trkpt lat="45.5756717" lon="8.82183"><ele>197.0</ele><time>2026-03-29T13:57:34.928Z</time></trkpt><trkpt lat="45.57571" lon="8.82204"><ele>197.0</ele><time>2026-03-29T13:57:35.927Z</time></trkpt><trkpt lat="45.575745" lon="8.8222483"><ele>197.0</ele><time>2026-03-29T13:57:36.928Z</time></trkpt><trkpt lat="45.5757717" lon="8.82247"><ele>197.0</ele><time>2026-03-29T13:57:37.928Z</time></trkpt><trkpt lat="45.5757983" lon="8.822685"><ele>197.0</ele><time>2026-03-29T13:57:38.928Z</time></trkpt><trkpt lat="45.575825" lon="8.822895"><ele>197.0</ele><time>2026-03-29T13:57:39.927Z</time></trkpt><trkpt lat="45.5758467" lon="8.8230833"><ele>197.0</ele><time>2026-03-29T13:57:40.928Z</time></trkpt><trkpt lat="45.5758633" lon="8.823265"><ele>197.0</ele><time>2026-03-29T13:57:41.927Z</time></trkpt><trkpt lat="45.5758833" lon="8.82343"><ele>197.0</ele><time>2026-03-29T13:57:42.928Z</time></trkpt><trkpt lat="45.5759117" lon="8.8235917"><ele>197.0</ele><time>2026-03-29T13:57:43.928Z</time></trkpt><trkpt lat="45.575935" lon="8.82376"><ele>197.0</ele><time>2026-03-29T13:57:44.928Z</time></trkpt><trkpt lat="45.575955" lon="8.8239267"><ele>197.00000000000003</ele><time>2026-03-29T13:57:45.927Z</time></trkpt><trkpt lat="45.57597" lon="8.8240767"><ele>197.0</ele><time>2026-03-29T13:57:46.928Z</time></trkpt><trkpt lat="45.5759917" lon="8.8242083"><ele>197.0</ele><time>2026-03-29T13:57:47.928Z</time></trkpt><trkpt lat="45.5760083" lon="8.8243183"><ele>197.0</ele><time>2026-03-29T13:57:48.928Z</time></trkpt><trkpt lat="45.5760133" lon="8.8244133"><ele>197.00000000000003</ele><time>2026-03-29T13:57:49.928Z</time></trkpt><trkpt lat="45.57603" lon="8.8245067"><ele>197.0</ele><time>2026-03-29T13:57:50.928Z</time></trkpt><trkpt lat="45.576045" lon="8.8246067"><ele>197.0</ele><time>2026-03-29T13:57:51.928Z</time></trkpt><trkpt lat="45.57606" lon="8.8247317"><ele>197.0</ele><time>2026-03-29T13:57:52.928Z</time></trkpt><trkpt lat="45.5760767" lon="8.8248767"><ele>197.0</ele><time>2026-03-29T13:57:53.928Z</time></trkpt><trkpt lat="45.5760933" lon="8.8250383"><ele>197.0</ele><time>2026-03-29T13:57:54.928Z</time></trkpt><trkpt lat="45.5761083" lon="8.8252033"><ele>197.0</ele><time>2026-03-29T13:57:55.928Z</time></trkpt><trkpt lat="45.5761317" lon="8.8253633"><ele>197.0</ele><time>2026-03-29T13:57:56.928Z</time></trkpt><trkpt lat="45.5761583" lon="8.8255283"><ele>197.0</ele><time>2026-03-29T13:57:57.928Z</time></trkpt><trkpt lat="45.5761783" lon="8.8256983"><ele>197.0</ele><time>2026-03-29T13:57:58.928Z</time></trkpt><trkpt lat="45.5762067" lon="8.825875"><ele>197.0</ele><time>2026-03-29T13:57:59.928Z</time></trkpt><trkpt lat="45.5762167" lon="8.8260433"><ele>196.75</ele><time>2026-03-29T13:58:00.928Z</time></trkpt><trkpt lat="45.57625" lon="8.8262383"><ele>196.5</ele><time>2026-03-29T13:58:01.928Z</time></trkpt><trkpt lat="45.5762767" lon="8.826445"><ele>196.25</ele><time>2026-03-29T13:58:02.928Z</time></trkpt><trkpt lat="45.5763" lon="8.8266483"><ele>196.0</ele><time>2026-03-29T13:58:03.928Z</time></trkpt><trkpt lat="45.5763267" lon="8.826855"><ele>195.66666666666666</ele><time>2026-03-29T13:58:04.928Z</time></trkpt><trkpt lat="45.5763583" lon="8.8270683"><ele>195.33333333333331</ele><time>2026-03-29T13:58:05.928Z</time></trkpt><trkpt lat="45.5763817" lon="8.82728"><ele>195.0</ele><time>2026-03-29T13:58:06.928Z</time></trkpt><trkpt lat="45.5764167" lon="8.8274867"><ele>195.5</ele><time>2026-03-29T13:58:07.928Z</time></trkpt><trkpt lat="45.5764467" lon="8.8276867"><ele>196.0</ele><time>2026-03-29T13:58:08.928Z</time></trkpt><trkpt lat="45.576475" lon="8.827895"><ele>196.5</ele><time>2026-03-29T13:58:09.928Z</time></trkpt><trkpt lat="45.5764833" lon="8.8281017"><ele>197.0</ele><time>2026-03-29T13:58:10.928Z</time></trkpt><trkpt lat="45.57649" lon="8.8282983"><ele>197.0</ele><time>2026-03-29T13:58:11.928Z</time></trkpt><trkpt lat="45.576505" lon="8.8284967"><ele>197.0</ele><time>2026-03-29T13:58:12.928Z</time></trkpt><trkpt lat="45.5765183" lon="8.8286817"><ele>197.0</ele><time>2026-03-29T13:58:13.928Z</time></trkpt><trkpt lat="45.5765267" lon="8.8288483"><ele>197.0</ele><time>2026-03-29T13:58:14.928Z</time></trkpt><trkpt lat="45.5765383" lon="8.8289983"><ele>197.0</ele><time>2026-03-29T13:58:15.928Z</time></trkpt><trkpt lat="45.5765617" lon="8.82914"><ele>197.0</ele><time>2026-03-29T13:58:16.928Z</time></trkpt><trkpt lat="45.576575" lon="8.8292733"><ele>197.0</ele><time>2026-03-29T13:58:17.928Z</time></trkpt><trkpt lat="45.5765883" lon="8.829395"><ele>197.0</ele><time>2026-03-29T13:58:18.928Z</time></trkpt><trkpt lat="45.5765967" lon="8.829495"><ele>197.0</ele><time>2026-03-29T13:58:19.928Z</time></trkpt><trkpt lat="45.5766117" lon="8.8296317"><ele>197.0</ele><time>2026-03-29T13:58:21.928Z</time></trkpt><trkpt lat="45.5766533" lon="8.8297283"><ele>197.0</ele><time>2026-03-29T13:58:26.928Z</time></trkpt><trkpt lat="45.5767617" lon="8.8297317"><ele>197.0</ele><time>2026-03-29T13:58:28.928Z</time></trkpt><trkpt lat="45.57685" lon="8.82971"><ele>197.0</ele><time>2026-03-29T13:58:29.928Z</time></trkpt><trkpt lat="45.57695" lon="8.829685"><ele>197.0</ele><time>2026-03-29T13:58:30.927Z</time></trkpt><trkpt lat="45.5770667" lon="8.82965"><ele>197.25</ele><time>2026-03-29T13:58:31.928Z</time></trkpt><trkpt lat="45.5771967" lon="8.8296183"><ele>197.5</ele><time>2026-03-29T13:58:32.928Z</time></trkpt><trkpt lat="45.5773317" lon="8.82959"><ele>197.75</ele><time>2026-03-29T13:58:33.928Z</time></trkpt><trkpt lat="45.5774633" lon="8.8295633"><ele>198.0</ele><time>2026-03-29T13:58:34.928Z</time></trkpt><trkpt lat="45.5775967" lon="8.8295317"><ele>198.0</ele><time>2026-03-29T13:58:35.928Z</time></trkpt><trkpt lat="45.5777383" lon="8.82949"><ele>198.0</ele><time>2026-03-29T13:58:36.928Z</time></trkpt><trkpt lat="45.5778767" lon="8.8294483"><ele>198.0</ele><time>2026-03-29T13:58:37.928Z</time></trkpt><trkpt lat="45.5780083" lon="8.8294133"><ele>198.0</ele><time>2026-03-29T13:58:38.928Z</time></trkpt><trkpt lat="45.5781333" lon="8.829375"><ele>198.2</ele><time>2026-03-29T13:58:39.928Z</time></trkpt><trkpt lat="45.5782517" lon="8.8293533"><ele>198.4</ele><time>2026-03-29T13:58:40.927Z</time></trkpt><trkpt lat="45.5783583" lon="8.8293183"><ele>198.6</ele><time>2026-03-29T13:58:41.927Z</time></trkpt><trkpt lat="45.578455" lon="8.8293017"><ele>198.79999999999998</ele><time>2026-03-29T13:58:42.926Z</time></trkpt><trkpt lat="45.5785467" lon="8.8292883"><ele>199.0</ele><time>2026-03-29T13:58:43.927Z</time></trkpt><trkpt lat="45.57864" lon="8.8292917"><ele>199.39999999999998</ele><time>2026-03-29T13:58:44.927Z</time></trkpt><trkpt lat="45.5787267" lon="8.829315"><ele>199.8</ele><time>2026-03-29T13:58:45.927Z</time></trkpt><trkpt lat="45.578805" lon="8.8293617"><ele>200.2</ele><time>2026-03-29T13:58:46.927Z</time></trkpt><trkpt lat="45.5788733" lon="8.8294383"><ele>200.60000000000002</ele><time>2026-03-29T13:58:47.927Z</time></trkpt><trkpt lat="45.57892" lon="8.8295617"><ele>201.0</ele><time>2026-03-29T13:58:48.927Z</time></trkpt><trkpt lat="45.5789467" lon="8.8297183"><ele>201.0</ele><time>2026-03-29T13:58:49.927Z</time></trkpt><trkpt lat="45.578985" lon="8.8299333"><ele>201.0</ele><time>2026-03-29T13:58:50.927Z</time></trkpt><trkpt lat="45.5790283" lon="8.8301667"><ele>201.0</ele><time>2026-03-29T13:58:51.927Z</time></trkpt><trkpt lat="45.579075" lon="8.8304167"><ele>201.0</ele><time>2026-03-29T13:58:52.927Z</time></trkpt><trkpt lat="45.5791067" lon="8.830665"><ele>201.0</ele><time>2026-03-29T13:58:53.927Z</time></trkpt><trkpt lat="45.5791367" lon="8.8309217"><ele>201.0</ele><time>2026-03-29T13:58:54.927Z</time></trkpt><trkpt lat="45.5791917" lon="8.8311967"><ele>200.66666666666669</ele><time>2026-03-29T13:58:55.927Z</time></trkpt><trkpt lat="45.57925" lon="8.831485"><ele>200.33333333333334</ele><time>2026-03-29T13:58:56.927Z</time></trkpt><trkpt lat="45.5792983" lon="8.83178"><ele>200.0</ele><time>2026-03-29T13:58:57.927Z</time></trkpt><trkpt lat="45.579345" lon="8.832065"><ele>200.0</ele><time>2026-03-29T13:58:58.927Z</time></trkpt><trkpt lat="45.5794033" lon="8.8323567"><ele>200.0</ele><time>2026-03-29T13:58:59.927Z</time></trkpt><trkpt lat="45.5794483" lon="8.83265"><ele>200.0</ele><time>2026-03-29T13:59:00.927Z</time></trkpt><trkpt lat="45.5795033" lon="8.8329367"><ele>201.66666666666669</ele><time>2026-03-29T13:59:01.927Z</time></trkpt><trkpt lat="45.5795533" lon="8.83322"><ele>203.33333333333331</ele><time>2026-03-29T13:59:02.927Z</time></trkpt><trkpt lat="45.5795983" lon="8.8334867"><ele>205.0</ele><time>2026-03-29T13:59:03.927Z</time></trkpt><trkpt lat="45.5796483" lon="8.8337083"><ele>205.0</ele><time>2026-03-29T13:59:04.927Z</time></trkpt><trkpt lat="45.5796817" lon="8.8339017"><ele>205.0</ele><time>2026-03-29T13:59:05.926Z</time></trkpt><trkpt lat="45.5797067" lon="8.8340767"><ele>205.0</ele><time>2026-03-29T13:59:06.926Z</time></trkpt><trkpt lat="45.5797233" lon="8.8342283"><ele>205.0</ele><time>2026-03-29T13:59:07.927Z</time></trkpt><trkpt lat="45.5797233" lon="8.8343733"><ele>204.6</ele><time>2026-03-29T13:59:08.927Z</time></trkpt><trkpt lat="45.5797067" lon="8.8345217"><ele>204.2</ele><time>2026-03-29T13:59:09.926Z</time></trkpt><trkpt lat="45.5796883" lon="8.834665"><ele>203.8</ele><time>2026-03-29T13:59:10.927Z</time></trkpt><trkpt lat="45.5796933" lon="8.83481"><ele>203.4</ele><time>2026-03-29T13:59:11.926Z</time></trkpt><trkpt lat="45.57973" lon="8.834945"><ele>203.0</ele><time>2026-03-29T13:59:12.927Z</time></trkpt><trkpt lat="45.5797983" lon="8.8350783"><ele>202.66666666666669</ele><time>2026-03-29T13:59:13.927Z</time></trkpt><trkpt lat="45.5798933" lon="8.8352317"><ele>202.33333333333331</ele><time>2026-03-29T13:59:14.927Z</time></trkpt><trkpt lat="45.5799967" lon="8.8354067"><ele>202.0</ele><time>2026-03-29T13:59:15.926Z</time></trkpt><trkpt lat="45.5800883" lon="8.8356117"><ele>202.0</ele><time>2026-03-29T13:59:16.927Z</time></trkpt><trkpt lat="45.5801833" lon="8.8358367"><ele>202.0</ele><time>2026-03-29T13:59:17.927Z</time></trkpt><trkpt lat="45.580275" lon="8.8360633"><ele>202.0</ele><time>2026-03-29T13:59:18.927Z</time></trkpt><trkpt lat="45.5803567" lon="8.8362933"><ele>202.33333333333331</ele><time>2026-03-29T13:59:19.927Z</time></trkpt><trkpt lat="45.58044" lon="8.8365283"><ele>202.66666666666669</ele><time>2026-03-29T13:59:20.927Z</time></trkpt><trkpt lat="45.5805267" lon="8.8367733"><ele>203.0</ele><time>2026-03-29T13:59:21.927Z</time></trkpt><trkpt lat="45.5806167" lon="8.83703"><ele>203.33333333333334</ele><time>2026-03-29T13:59:22.927Z</time></trkpt><trkpt lat="45.5807033" lon="8.83729"><ele>203.66666666666669</ele><time>2026-03-29T13:59:23.927Z</time></trkpt><trkpt lat="45.5807967" lon="8.83755"><ele>204.0</ele><time>2026-03-29T13:59:24.927Z</time></trkpt><trkpt lat="45.58089" lon="8.8378133"><ele>203.33333333333331</ele><time>2026-03-29T13:59:25.926Z</time></trkpt><trkpt lat="45.5809767" lon="8.8380833"><ele>202.66666666666666</ele><time>2026-03-29T13:59:26.927Z</time></trkpt><trkpt lat="45.5810683" lon="8.838355"><ele>202.0</ele><time>2026-03-29T13:59:27.927Z</time></trkpt><trkpt lat="45.5811717" lon="8.8386333"><ele>201.5</ele><time>2026-03-29T13:59:28.927Z</time></trkpt><trkpt lat="45.58127" lon="8.8389233"><ele>201.0</ele><time>2026-03-29T13:59:29.927Z</time></trkpt><trkpt lat="45.5813733" lon="8.83921"><ele>200.5</ele><time>2026-03-29T13:59:30.926Z</time></trkpt><trkpt lat="45.5814867" lon="8.8394983"><ele>200.0</ele><time>2026-03-29T13:59:31.927Z</time></trkpt><trkpt lat="45.5815983" lon="8.8397767"><ele>200.0</ele><time>2026-03-29T13:59:32.927Z</time></trkpt><trkpt lat="45.5817133" lon="8.8400667"><ele>200.0</ele><time>2026-03-29T13:59:33.927Z</time></trkpt><trkpt lat="45.5818333" lon="8.8403583"><ele>201.0</ele><time>2026-03-29T13:59:34.926Z</time></trkpt><trkpt lat="45.58195" lon="8.8406417"><ele>202.0</ele><time>2026-03-29T13:59:35.927Z</time></trkpt><trkpt lat="45.5820667" lon="8.8409083"><ele>202.33333333333331</ele><time>2026-03-29T13:59:36.927Z</time></trkpt><trkpt lat="45.5821717" lon="8.8411483"><ele>202.66666666666669</ele><time>2026-03-29T13:59:37.927Z</time></trkpt><trkpt lat="45.582265" lon="8.8413817"><ele>203.0</ele><time>2026-03-29T13:59:38.927Z</time></trkpt><trkpt lat="45.5823567" lon="8.8415933"><ele>203.0</ele><time>2026-03-29T13:59:39.927Z</time></trkpt><trkpt lat="45.5824367" lon="8.8417933"><ele>203.0</ele><time>2026-03-29T13:59:40.927Z</time></trkpt><trkpt lat="45.5825067" lon="8.84197"><ele>203.0</ele><time>2026-03-29T13:59:41.927Z</time></trkpt><trkpt lat="45.5825717" lon="8.84213"><ele>203.0</ele><time>2026-03-29T13:59:42.927Z</time></trkpt><trkpt lat="45.58263" lon="8.842275"><ele>203.0</ele><time>2026-03-29T13:59:43.927Z</time></trkpt><trkpt lat="45.5826917" lon="8.84241"><ele>203.0</ele><time>2026-03-29T13:59:44.927Z</time></trkpt><trkpt lat="45.5827417" lon="8.842525"><ele>203.0</ele><time>2026-03-29T13:59:45.927Z</time></trkpt><trkpt lat="45.5827867" lon="8.8426433"><ele>203.0</ele><time>2026-03-29T13:59:46.926Z</time></trkpt><trkpt lat="45.582825" lon="8.8427883"><ele>203.0</ele><time>2026-03-29T13:59:47.927Z</time></trkpt><trkpt lat="45.5828433" lon="8.84296"><ele>203.25</ele><time>2026-03-29T13:59:48.927Z</time></trkpt><trkpt lat="45.5828317" lon="8.8431483"><ele>203.5</ele><time>2026-03-29T13:59:49.927Z</time></trkpt><trkpt lat="45.5828117" lon="8.843345"><ele>203.75</ele><time>2026-03-29T13:59:50.927Z</time></trkpt><trkpt lat="45.5827833" lon="8.843555"><ele>204.0</ele><time>2026-03-29T13:59:51.927Z</time></trkpt><trkpt lat="45.58276" lon="8.8437583"><ele>204.25</ele><time>2026-03-29T13:59:52.927Z</time></trkpt><trkpt lat="45.582735" lon="8.8439683"><ele>204.5</ele><time>2026-03-29T13:59:53.927Z</time></trkpt><trkpt lat="45.5827117" lon="8.8441617"><ele>204.75</ele><time>2026-03-29T13:59:54.927Z</time></trkpt><trkpt lat="45.5826917" lon="8.844345"><ele>205.0</ele><time>2026-03-29T13:59:55.927Z</time></trkpt><trkpt lat="45.5826733" lon="8.8445233"><ele>205.0</ele><time>2026-03-29T13:59:56.927Z</time></trkpt><trkpt lat="45.5826533" lon="8.8446933"><ele>205.0</ele><time>2026-03-29T13:59:57.926Z</time></trkpt><trkpt lat="45.5826333" lon="8.8448617"><ele>205.0</ele><time>2026-03-29T13:59:58.927Z</time></trkpt><trkpt lat="45.5826133" lon="8.8450433"><ele>205.0</ele><time>2026-03-29T13:59:59.927Z</time></trkpt><trkpt lat="45.5825867" lon="8.8452383"><ele>205.25</ele><time>2026-03-29T14:00:00.927Z</time></trkpt><trkpt lat="45.58256" lon="8.8454367"><ele>205.5</ele><time>2026-03-29T14:00:01.927Z</time></trkpt><trkpt lat="45.5825317" lon="8.84564"><ele>205.75</ele><time>2026-03-29T14:00:02.927Z</time></trkpt><trkpt lat="45.5825067" lon="8.8458467"><ele>206.0</ele><time>2026-03-29T14:00:03.927Z</time></trkpt><trkpt lat="45.58248" lon="8.8460567"><ele>206.0</ele><time>2026-03-29T14:00:04.927Z</time></trkpt><trkpt lat="45.5824583" lon="8.8462733"><ele>206.0</ele><time>2026-03-29T14:00:05.927Z</time></trkpt><trkpt lat="45.5824333" lon="8.8464867"><ele>206.0</ele><time>2026-03-29T14:00:06.927Z</time></trkpt><trkpt lat="45.58241" lon="8.8466833"><ele>206.0</ele><time>2026-03-29T14:00:07.927Z</time></trkpt><trkpt lat="45.5823883" lon="8.8468883"><ele>206.0</ele><time>2026-03-29T14:00:08.927Z</time></trkpt><trkpt lat="45.5823567" lon="8.847105"><ele>206.0</ele><time>2026-03-29T14:00:09.927Z</time></trkpt><trkpt lat="45.582325" lon="8.84731"><ele>206.0</ele><time>2026-03-29T14:00:10.927Z</time></trkpt><trkpt lat="45.5823" lon="8.84752"><ele>206.0</ele><time>2026-03-29T14:00:11.927Z</time></trkpt><trkpt lat="45.58228" lon="8.8477017"><ele>206.0</ele><time>2026-03-29T14:00:12.927Z</time></trkpt><trkpt lat="45.582255" lon="8.8478883"><ele>206.0</ele><time>2026-03-29T14:00:13.927Z</time></trkpt><trkpt lat="45.5822333" lon="8.8480533"><ele>206.0</ele><time>2026-03-29T14:00:14.927Z</time></trkpt><trkpt lat="45.5822117" lon="8.8482217"><ele>206.0</ele><time>2026-03-29T14:00:15.927Z</time></trkpt><trkpt lat="45.5821967" lon="8.8483967"><ele>206.0</ele><time>2026-03-29T14:00:16.926Z</time></trkpt><trkpt lat="45.58217" lon="8.84859"><ele>206.0</ele><time>2026-03-29T14:00:17.927Z</time></trkpt><trkpt lat="45.5821433" lon="8.848795"><ele>206.0</ele><time>2026-03-29T14:00:18.927Z</time></trkpt><trkpt lat="45.5821183" lon="8.8489983"><ele>206.0</ele><time>2026-03-29T14:00:19.927Z</time></trkpt><trkpt lat="45.58209" lon="8.8492017"><ele>206.0</ele><time>2026-03-29T14:00:20.927Z</time></trkpt><trkpt lat="45.5820617" lon="8.8494233"><ele>206.0</ele><time>2026-03-29T14:00:21.926Z</time></trkpt><trkpt lat="45.5820333" lon="8.84964"><ele>206.25</ele><time>2026-03-29T14:00:22.927Z</time></trkpt><trkpt lat="45.5820133" lon="8.8498417"><ele>206.5</ele><time>2026-03-29T14:00:23.927Z</time></trkpt><trkpt lat="45.5819867" lon="8.8500567"><ele>206.75</ele><time>2026-03-29T14:00:24.927Z</time></trkpt><trkpt lat="45.5819667" lon="8.8502617"><ele>207.0</ele><time>2026-03-29T14:00:25.927Z</time></trkpt><trkpt lat="45.5819433" lon="8.8504633"><ele>207.0</ele><time>2026-03-29T14:00:26.927Z</time></trkpt><trkpt lat="45.581925" lon="8.85066"><ele>207.0</ele><time>2026-03-29T14:00:27.927Z</time></trkpt><trkpt lat="45.5818967" lon="8.850855"><ele>207.0</ele><time>2026-03-29T14:00:28.927Z</time></trkpt><trkpt lat="45.5818717" lon="8.8510483"><ele>207.0</ele><time>2026-03-29T14:00:29.927Z</time></trkpt><trkpt lat="45.5818483" lon="8.8512483"><ele>206.75</ele><time>2026-03-29T14:00:30.927Z</time></trkpt><trkpt lat="45.5818267" lon="8.851445"><ele>206.5</ele><time>2026-03-29T14:00:31.927Z</time></trkpt><trkpt lat="45.5818033" lon="8.8516617"><ele>206.25</ele><time>2026-03-29T14:00:32.927Z</time></trkpt><trkpt lat="45.5817817" lon="8.8518733"><ele>206.0</ele><time>2026-03-29T14:00:33.927Z</time></trkpt><trkpt lat="45.581755" lon="8.852065"><ele>206.5</ele><time>2026-03-29T14:00:34.927Z</time></trkpt><trkpt lat="45.5817283" lon="8.8522533"><ele>207.0</ele><time>2026-03-29T14:00:35.927Z</time></trkpt><trkpt lat="45.5817083" lon="8.8524333"><ele>207.5</ele><time>2026-03-29T14:00:36.927Z</time></trkpt><trkpt lat="45.5816833" lon="8.8525983"><ele>208.0</ele><time>2026-03-29T14:00:37.927Z</time></trkpt><trkpt lat="45.5816633" lon="8.8527733"><ele>208.0</ele><time>2026-03-29T14:00:38.927Z</time></trkpt><trkpt lat="45.5816417" lon="8.8529383"><ele>208.0</ele><time>2026-03-29T14:00:39.927Z</time></trkpt><trkpt lat="45.58162" lon="8.85312"><ele>208.0</ele><time>2026-03-29T14:00:40.927Z</time></trkpt><trkpt lat="45.5816" lon="8.853305"><ele>208.0</ele><time>2026-03-29T14:00:41.927Z</time></trkpt><trkpt lat="45.58158" lon="8.8534817"><ele>207.5</ele><time>2026-03-29T14:00:42.927Z</time></trkpt><trkpt lat="45.5815583" lon="8.8536617"><ele>207.0</ele><time>2026-03-29T14:00:43.926Z</time></trkpt><trkpt lat="45.5815383" lon="8.8538567"><ele>206.5</ele><time>2026-03-29T14:00:44.927Z</time></trkpt><trkpt lat="45.5815133" lon="8.85405"><ele>206.0</ele><time>2026-03-29T14:00:45.927Z</time></trkpt><trkpt lat="45.581485" lon="8.85425"><ele>206.25</ele><time>2026-03-29T14:00:46.927Z</time></trkpt><trkpt lat="45.5814583" lon="8.854445"><ele>206.5</ele><time>2026-03-29T14:00:47.927Z</time></trkpt><trkpt lat="45.5814333" lon="8.8546317"><ele>206.75</ele><time>2026-03-29T14:00:48.927Z</time></trkpt><trkpt lat="45.58141" lon="8.8548117"><ele>207.0</ele><time>2026-03-29T14:00:49.927Z</time></trkpt><trkpt lat="45.5813833" lon="8.8549817"><ele>207.0</ele><time>2026-03-29T14:00:50.926Z</time></trkpt><trkpt lat="45.5813617" lon="8.8551633"><ele>207.0</ele><time>2026-03-29T14:00:51.927Z</time></trkpt><trkpt lat="45.5813417" lon="8.8553383"><ele>207.0</ele><time>2026-03-29T14:00:52.927Z</time></trkpt><trkpt lat="45.5813233" lon="8.85551"><ele>207.0</ele><time>2026-03-29T14:00:53.927Z</time></trkpt><trkpt lat="45.5813083" lon="8.8556867"><ele>207.0</ele><time>2026-03-29T14:00:54.927Z</time></trkpt><trkpt lat="45.5812817" lon="8.8558517"><ele>207.0</ele><time>2026-03-29T14:00:55.927Z</time></trkpt><trkpt lat="45.5812583" lon="8.85602"><ele>207.0</ele><time>2026-03-29T14:00:56.927Z</time></trkpt><trkpt lat="45.58124" lon="8.85618"><ele>207.0</ele><time>2026-03-29T14:00:57.927Z</time></trkpt><trkpt lat="45.5812183" lon="8.85633"><ele>207.0</ele><time>2026-03-29T14:00:58.926Z</time></trkpt><trkpt lat="45.581195" lon="8.856465"><ele>207.0</ele><time>2026-03-29T14:00:59.927Z</time></trkpt><trkpt lat="45.5811733" lon="8.8565917"><ele>207.0</ele><time>2026-03-29T14:01:00.927Z</time></trkpt><trkpt lat="45.5811567" lon="8.8567333"><ele>207.0</ele><time>2026-03-29T14:01:01.927Z</time></trkpt><trkpt lat="45.5811467" lon="8.8568717"><ele>207.0</ele><time>2026-03-29T14:01:02.926Z</time></trkpt><trkpt lat="45.5811333" lon="8.8569967"><ele>206.83333333333334</ele><time>2026-03-29T14:01:03.927Z</time></trkpt><trkpt lat="45.5811217" lon="8.857105"><ele>206.66666666666669</ele><time>2026-03-29T14:01:04.927Z</time></trkpt><trkpt lat="45.58112" lon="8.8572033"><ele>206.5</ele><time>2026-03-29T14:01:05.927Z</time></trkpt><trkpt lat="45.58111" lon="8.8573617"><ele>206.33333333333334</ele><time>2026-03-29T14:01:07.927Z</time></trkpt><trkpt lat="45.58109" lon="8.8574717"><ele>206.16666666666669</ele><time>2026-03-29T14:01:09.927Z</time></trkpt><trkpt lat="45.5810567" lon="8.8575683"><ele>206.0</ele><time>2026-03-29T14:01:12.927Z</time></trkpt><trkpt lat="45.58103" lon="8.85766"><ele>206.0</ele><time>2026-03-29T14:01:17.927Z</time></trkpt><trkpt lat="45.5810067" lon="8.8578117"><ele>206.0</ele><time>2026-03-29T14:01:27.927Z</time></trkpt><trkpt lat="45.5809783" lon="8.8580033"><ele>206.0</ele><time>2026-03-29T14:01:29.927Z</time></trkpt><trkpt lat="45.58097" lon="8.8581517"><ele>206.0</ele><time>2026-03-29T14:01:30.927Z</time></trkpt><trkpt lat="45.5809633" lon="8.8583367"><ele>206.0</ele><time>2026-03-29T14:01:31.927Z</time></trkpt><trkpt lat="45.5809517" lon="8.8585333"><ele>206.0</ele><time>2026-03-29T14:01:32.927Z</time></trkpt><trkpt lat="45.5809233" lon="8.858755"><ele>206.0</ele><time>2026-03-29T14:01:33.927Z</time></trkpt><trkpt lat="45.580895" lon="8.858975"><ele>206.0</ele><time>2026-03-29T14:01:34.926Z</time></trkpt><trkpt lat="45.5808683" lon="8.8591983"><ele>206.0</ele><time>2026-03-29T14:01:35.927Z</time></trkpt><trkpt lat="45.58084" lon="8.8594233"><ele>206.0</ele><time>2026-03-29T14:01:36.927Z</time></trkpt><trkpt lat="45.5808117" lon="8.859635"><ele>205.5</ele><time>2026-03-29T14:01:37.927Z</time></trkpt><trkpt lat="45.5807883" lon="8.8598283"><ele>205.0</ele><time>2026-03-29T14:01:38.927Z</time></trkpt><trkpt lat="45.5807667" lon="8.8600267"><ele>204.5</ele><time>2026-03-29T14:01:39.926Z</time></trkpt><trkpt lat="45.58075" lon="8.8602367"><ele>204.0</ele><time>2026-03-29T14:01:40.927Z</time></trkpt><trkpt lat="45.58073" lon="8.8604317"><ele>204.0</ele><time>2026-03-29T14:01:41.927Z</time></trkpt><trkpt lat="45.5807017" lon="8.860625"><ele>204.0</ele><time>2026-03-29T14:01:42.927Z</time></trkpt><trkpt lat="45.5806767" lon="8.8608183"><ele>204.0</ele><time>2026-03-29T14:01:43.925Z</time></trkpt><trkpt lat="45.5806483" lon="8.8610317"><ele>204.0</ele><time>2026-03-29T14:01:44.926Z</time></trkpt><trkpt lat="45.5806217" lon="8.8612667"><ele>204.0</ele><time>2026-03-29T14:01:45.926Z</time></trkpt><trkpt lat="45.580595" lon="8.8615483"><ele>204.0</ele><time>2026-03-29T14:01:46.925Z</time></trkpt><trkpt lat="45.5805567" lon="8.8618517"><ele>204.0</ele><time>2026-03-29T14:01:47.926Z</time></trkpt><trkpt lat="45.580515" lon="8.8621783"><ele>204.0</ele><time>2026-03-29T14:01:48.926Z</time></trkpt><trkpt lat="45.5804667" lon="8.8625233"><ele>204.0</ele><time>2026-03-29T14:01:49.926Z</time></trkpt><trkpt lat="45.58042" lon="8.8628617"><ele>204.0</ele><time>2026-03-29T14:01:50.926Z</time></trkpt><trkpt lat="45.5803733" lon="8.8632183"><ele>204.0</ele><time>2026-03-29T14:01:51.926Z</time></trkpt><trkpt lat="45.58033" lon="8.8635733"><ele>204.5</ele><time>2026-03-29T14:01:52.926Z</time></trkpt><trkpt lat="45.5802867" lon="8.863945"><ele>205.0</ele><time>2026-03-29T14:01:53.926Z</time></trkpt><trkpt lat="45.5802433" lon="8.8643183"><ele>205.0</ele><time>2026-03-29T14:01:54.925Z</time></trkpt><trkpt lat="45.580205" lon="8.8646667"><ele>205.0</ele><time>2026-03-29T14:01:55.926Z</time></trkpt><trkpt lat="45.58016" lon="8.8649967"><ele>205.0</ele><time>2026-03-29T14:01:56.926Z</time></trkpt><trkpt lat="45.5801217" lon="8.865295"><ele>205.0</ele><time>2026-03-29T14:01:57.926Z</time></trkpt><trkpt lat="45.5800867" lon="8.8655533"><ele>205.0</ele><time>2026-03-29T14:01:58.926Z</time></trkpt><trkpt lat="45.5800667" lon="8.8657883"><ele>204.5</ele><time>2026-03-29T14:01:59.926Z</time></trkpt><trkpt lat="45.5800367" lon="8.8660067"><ele>204.0</ele><time>2026-03-29T14:02:00.926Z</time></trkpt><trkpt lat="45.5800133" lon="8.866205"><ele>203.5</ele><time>2026-03-29T14:02:01.926Z</time></trkpt><trkpt lat="45.5799867" lon="8.86639"><ele>203.0</ele><time>2026-03-29T14:02:02.926Z</time></trkpt><trkpt lat="45.579965" lon="8.8665667"><ele>203.0</ele><time>2026-03-29T14:02:03.926Z</time></trkpt><trkpt lat="45.57995" lon="8.8667317"><ele>203.0</ele><time>2026-03-29T14:02:04.926Z</time></trkpt><trkpt lat="45.5799417" lon="8.8668983"><ele>203.0</ele><time>2026-03-29T14:02:05.926Z</time></trkpt><trkpt lat="45.57993" lon="8.8670817"><ele>203.0</ele><time>2026-03-29T14:02:06.926Z</time></trkpt><trkpt lat="45.5799233" lon="8.8672783"><ele>203.75</ele><time>2026-03-29T14:02:07.926Z</time></trkpt><trkpt lat="45.57993" lon="8.8674633"><ele>204.5</ele><time>2026-03-29T14:02:08.926Z</time></trkpt><trkpt lat="45.5799467" lon="8.8676517"><ele>205.25</ele><time>2026-03-29T14:02:09.926Z</time></trkpt><trkpt lat="45.5799767" lon="8.8678483"><ele>206.0</ele><time>2026-03-29T14:02:10.926Z</time></trkpt><trkpt lat="45.58002" lon="8.8680317"><ele>206.0</ele><time>2026-03-29T14:02:11.926Z</time></trkpt><trkpt lat="45.580065" lon="8.8682083"><ele>206.0</ele><time>2026-03-29T14:02:12.926Z</time></trkpt><trkpt lat="45.5801067" lon="8.8683733"><ele>206.0</ele><time>2026-03-29T14:02:13.926Z</time></trkpt><trkpt lat="45.5801433" lon="8.8685167"><ele>206.0</ele><time>2026-03-29T14:02:14.925Z</time></trkpt><trkpt lat="45.5801833" lon="8.8686617"><ele>205.8</ele><time>2026-03-29T14:02:15.926Z</time></trkpt><trkpt lat="45.5802267" lon="8.868795"><ele>205.60000000000002</ele><time>2026-03-29T14:02:16.926Z</time></trkpt><trkpt lat="45.58027" lon="8.8689333"><ele>205.4</ele><time>2026-03-29T14:02:17.926Z</time></trkpt><trkpt lat="45.5803133" lon="8.8690583"><ele>205.2</ele><time>2026-03-29T14:02:18.926Z</time></trkpt><trkpt lat="45.580355" lon="8.8691867"><ele>205.0</ele><time>2026-03-29T14:02:19.926Z</time></trkpt><trkpt lat="45.5803933" lon="8.86928"><ele>204.99999999999997</ele><time>2026-03-29T14:02:20.926Z</time></trkpt><trkpt lat="45.5804333" lon="8.8693883"><ele>205.0</ele><time>2026-03-29T14:02:21.925Z</time></trkpt><trkpt lat="45.58046" lon="8.869495"><ele>205.0</ele><time>2026-03-29T14:02:22.926Z</time></trkpt><trkpt lat="45.5804833" lon="8.8696117"><ele>205.0</ele><time>2026-03-29T14:02:23.926Z</time></trkpt><trkpt lat="45.5804883" lon="8.8697283"><ele>204.99999999999997</ele><time>2026-03-29T14:02:24.926Z</time></trkpt><trkpt lat="45.5804883" lon="8.86983"><ele>205.0</ele><time>2026-03-29T14:02:25.926Z</time></trkpt><trkpt lat="45.58051" lon="8.86992"><ele>204.99999999999997</ele><time>2026-03-29T14:02:26.926Z</time></trkpt><trkpt lat="45.5805417" lon="8.8700183"><ele>205.0</ele><time>2026-03-29T14:02:27.926Z</time></trkpt><trkpt lat="45.58059" lon="8.870095"><ele>205.0</ele><time>2026-03-29T14:02:28.926Z</time></trkpt><trkpt lat="45.580655" lon="8.870165"><ele>205.0</ele><time>2026-03-29T14:02:29.926Z</time></trkpt><trkpt lat="45.580705" lon="8.8702583"><ele>204.99999999999997</ele><time>2026-03-29T14:02:30.926Z</time></trkpt><trkpt lat="45.5807567" lon="8.870365"><ele>205.0</ele><time>2026-03-29T14:02:31.926Z</time></trkpt><trkpt lat="45.5808067" lon="8.8704983"><ele>205.0</ele><time>2026-03-29T14:02:32.926Z</time></trkpt><trkpt lat="45.58086" lon="8.8706617"><ele>205.0</ele><time>2026-03-29T14:02:33.925Z</time></trkpt><trkpt lat="45.5809367" lon="8.8708483"><ele>205.0</ele><time>2026-03-29T14:02:34.926Z</time></trkpt><trkpt lat="45.5810133" lon="8.871055"><ele>205.0</ele><time>2026-03-29T14:02:35.926Z</time></trkpt><trkpt lat="45.581085" lon="8.871275"><ele>205.33333333333331</ele><time>2026-03-29T14:02:36.926Z</time></trkpt><trkpt lat="45.581165" lon="8.871525"><ele>205.66666666666669</ele><time>2026-03-29T14:02:37.926Z</time></trkpt><trkpt lat="45.58125" lon="8.8717967"><ele>206.0</ele><time>2026-03-29T14:02:38.926Z</time></trkpt><trkpt lat="45.58135" lon="8.872085"><ele>206.33333333333334</ele><time>2026-03-29T14:02:39.926Z</time></trkpt><trkpt lat="45.581435" lon="8.872355"><ele>206.66666666666669</ele><time>2026-03-29T14:02:40.926Z</time></trkpt><trkpt lat="45.581515" lon="8.872605"><ele>207.0</ele><time>2026-03-29T14:02:41.925Z</time></trkpt><trkpt lat="45.5815833" lon="8.872835"><ele>207.0</ele><time>2026-03-29T14:02:42.926Z</time></trkpt><trkpt lat="45.581655" lon="8.8730517"><ele>207.0</ele><time>2026-03-29T14:02:43.926Z</time></trkpt><trkpt lat="45.58172" lon="8.8732517"><ele>207.0</ele><time>2026-03-29T14:02:44.926Z</time></trkpt><trkpt lat="45.5817933" lon="8.873455"><ele>207.0</ele><time>2026-03-29T14:02:45.926Z</time></trkpt><trkpt lat="45.5818767" lon="8.8736717"><ele>207.0</ele><time>2026-03-29T14:02:46.926Z</time></trkpt><trkpt lat="45.5819567" lon="8.8739133"><ele>207.0</ele><time>2026-03-29T14:02:47.926Z</time></trkpt><trkpt lat="45.582035" lon="8.8741767"><ele>207.66666666666669</ele><time>2026-03-29T14:02:48.926Z</time></trkpt><trkpt lat="45.5821217" lon="8.8744317"><ele>208.33333333333334</ele><time>2026-03-29T14:02:49.926Z</time></trkpt><trkpt lat="45.582195" lon="8.8746883"><ele>209.0</ele><time>2026-03-29T14:02:50.926Z</time></trkpt><trkpt lat="45.582265" lon="8.8749433"><ele>208.66666666666669</ele><time>2026-03-29T14:02:51.926Z</time></trkpt><trkpt lat="45.58234" lon="8.875195"><ele>208.33333333333331</ele><time>2026-03-29T14:02:52.926Z</time></trkpt><trkpt lat="45.5824217" lon="8.8754483"><ele>208.0</ele><time>2026-03-29T14:02:53.926Z</time></trkpt><trkpt lat="45.5825083" lon="8.875705"><ele>207.33333333333331</ele><time>2026-03-29T14:02:54.926Z</time></trkpt><trkpt lat="45.582605" lon="8.8759617"><ele>206.66666666666669</ele><time>2026-03-29T14:02:55.926Z</time></trkpt><trkpt lat="45.5826983" lon="8.8762333"><ele>206.0</ele><time>2026-03-29T14:02:56.926Z</time></trkpt><trkpt lat="45.582795" lon="8.876515"><ele>205.66666666666669</ele><time>2026-03-29T14:02:57.926Z</time></trkpt><trkpt lat="45.58289" lon="8.876785"><ele>205.33333333333331</ele><time>2026-03-29T14:02:58.926Z</time></trkpt><trkpt lat="45.5829817" lon="8.8770517"><ele>205.0</ele><time>2026-03-29T14:02:59.926Z</time></trkpt><trkpt lat="45.5830783" lon="8.8773233"><ele>205.0</ele><time>2026-03-29T14:03:00.926Z</time></trkpt><trkpt lat="45.583175" lon="8.8776"><ele>205.0</ele><time>2026-03-29T14:03:01.926Z</time></trkpt><trkpt lat="45.5832783" lon="8.8778817"><ele>205.0</ele><time>2026-03-29T14:03:02.925Z</time></trkpt><trkpt lat="45.5833867" lon="8.8781617"><ele>204.66666666666666</ele><time>2026-03-29T14:03:03.926Z</time></trkpt><trkpt lat="45.58349" lon="8.8784467"><ele>204.33333333333331</ele><time>2026-03-29T14:03:04.926Z</time></trkpt><trkpt lat="45.5835817" lon="8.8787183"><ele>204.0</ele><time>2026-03-29T14:03:05.926Z</time></trkpt><trkpt lat="45.58368" lon="8.8790033"><ele>204.33333333333331</ele><time>2026-03-29T14:03:06.925Z</time></trkpt><trkpt lat="45.5837817" lon="8.8792883"><ele>204.66666666666666</ele><time>2026-03-29T14:03:07.926Z</time></trkpt><trkpt lat="45.5838867" lon="8.8795717"><ele>205.0</ele><time>2026-03-29T14:03:08.926Z</time></trkpt><trkpt lat="45.5839883" lon="8.8798667"><ele>205.5</ele><time>2026-03-29T14:03:09.926Z</time></trkpt><trkpt lat="45.5840917" lon="8.8801683"><ele>206.0</ele><time>2026-03-29T14:03:10.926Z</time></trkpt><trkpt lat="45.5841983" lon="8.8804817"><ele>206.0</ele><time>2026-03-29T14:03:11.926Z</time></trkpt><trkpt lat="45.5843033" lon="8.8807983"><ele>206.0</ele><time>2026-03-29T14:03:12.926Z</time></trkpt><trkpt lat="45.584405" lon="8.8811"><ele>205.5</ele><time>2026-03-29T14:03:13.926Z</time></trkpt><trkpt lat="45.58451" lon="8.8814083"><ele>205.0</ele><time>2026-03-29T14:03:14.926Z</time></trkpt><trkpt lat="45.584615" lon="8.8817233"><ele>204.5</ele><time>2026-03-29T14:03:15.926Z</time></trkpt><trkpt lat="45.5847217" lon="8.8820417"><ele>204.0</ele><time>2026-03-29T14:03:16.926Z</time></trkpt><trkpt lat="45.5848283" lon="8.8823483"><ele>205.0</ele><time>2026-03-29T14:03:17.926Z</time></trkpt><trkpt lat="45.5849317" lon="8.882665"><ele>206.0</ele><time>2026-03-29T14:03:18.926Z</time></trkpt><trkpt lat="45.58504" lon="8.882975"><ele>206.0</ele><time>2026-03-29T14:03:19.926Z</time></trkpt><trkpt lat="45.58515" lon="8.8832867"><ele>206.0</ele><time>2026-03-29T14:03:20.926Z</time></trkpt><trkpt lat="45.5852567" lon="8.88359"><ele>205.66666666666669</ele><time>2026-03-29T14:03:21.926Z</time></trkpt><trkpt lat="45.5853517" lon="8.8838733"><ele>205.33333333333331</ele><time>2026-03-29T14:03:22.926Z</time></trkpt><trkpt lat="45.5854383" lon="8.884135"><ele>205.0</ele><time>2026-03-29T14:03:23.926Z</time></trkpt><trkpt lat="45.5855267" lon="8.8843983"><ele>204.66666666666666</ele><time>2026-03-29T14:03:24.926Z</time></trkpt><trkpt lat="45.5856133" lon="8.8846683"><ele>204.33333333333331</ele><time>2026-03-29T14:03:25.926Z</time></trkpt><trkpt lat="45.5856967" lon="8.8849217"><ele>204.0</ele><time>2026-03-29T14:03:26.926Z</time></trkpt><trkpt lat="45.5857617" lon="8.8851383"><ele>204.5</ele><time>2026-03-29T14:03:27.926Z</time></trkpt><trkpt lat="45.585825" lon="8.8853267"><ele>205.0</ele><time>2026-03-29T14:03:28.926Z</time></trkpt><trkpt lat="45.5858867" lon="8.8855017"><ele>205.5</ele><time>2026-03-29T14:03:29.926Z</time></trkpt><trkpt lat="45.5859433" lon="8.8856617"><ele>206.0</ele><time>2026-03-29T14:03:30.926Z</time></trkpt><trkpt lat="45.5859867" lon="8.8858033"><ele>206.16666666666669</ele><time>2026-03-29T14:03:31.926Z</time></trkpt><trkpt lat="45.5860217" lon="8.8859367"><ele>206.33333333333334</ele><time>2026-03-29T14:03:32.926Z</time></trkpt><trkpt lat="45.5860383" lon="8.8860683"><ele>206.5</ele><time>2026-03-29T14:03:33.926Z</time></trkpt><trkpt lat="45.5860417" lon="8.8861933"><ele>206.66666666666669</ele><time>2026-03-29T14:03:34.926Z</time></trkpt><trkpt lat="45.586055" lon="8.886305"><ele>206.83333333333334</ele><time>2026-03-29T14:03:35.926Z</time></trkpt><trkpt lat="45.5860883" lon="8.8864133"><ele>207.0</ele><time>2026-03-29T14:03:36.925Z</time></trkpt><trkpt lat="45.58614" lon="8.8865117"><ele>206.75</ele><time>2026-03-29T14:03:37.926Z</time></trkpt><trkpt lat="45.5862083" lon="8.88662"><ele>206.5</ele><time>2026-03-29T14:03:38.926Z</time></trkpt><trkpt lat="45.5862667" lon="8.8867517"><ele>206.25</ele><time>2026-03-29T14:03:39.926Z</time></trkpt><trkpt lat="45.5863217" lon="8.8868967"><ele>206.0</ele><time>2026-03-29T14:03:40.926Z</time></trkpt><trkpt lat="45.5863833" lon="8.8870583"><ele>206.66666666666669</ele><time>2026-03-29T14:03:41.926Z</time></trkpt><trkpt lat="45.5864567" lon="8.887265"><ele>207.33333333333331</ele><time>2026-03-29T14:03:42.926Z</time></trkpt><trkpt lat="45.586525" lon="8.887475"><ele>208.0</ele><time>2026-03-29T14:03:43.926Z</time></trkpt><trkpt lat="45.5865783" lon="8.887665"><ele>208.5</ele><time>2026-03-29T14:03:44.926Z</time></trkpt><trkpt lat="45.5866283" lon="8.88784"><ele>209.0</ele><time>2026-03-29T14:03:45.926Z</time></trkpt><trkpt lat="45.5866817" lon="8.888"><ele>209.5</ele><time>2026-03-29T14:03:46.926Z</time></trkpt><trkpt lat="45.5867217" lon="8.8881433"><ele>210.0</ele><time>2026-03-29T14:03:47.926Z</time></trkpt><trkpt lat="45.5867667" lon="8.8882783"><ele>210.0</ele><time>2026-03-29T14:03:48.926Z</time></trkpt><trkpt lat="45.5868" lon="8.8884083"><ele>210.0</ele><time>2026-03-29T14:03:49.926Z</time></trkpt><trkpt lat="45.5868417" lon="8.888535"><ele>210.0</ele><time>2026-03-29T14:03:50.926Z</time></trkpt><trkpt lat="45.5868817" lon="8.8886533"><ele>210.0</ele><time>2026-03-29T14:03:51.926Z</time></trkpt><trkpt lat="45.5869183" lon="8.8887667"><ele>210.0</ele><time>2026-03-29T14:03:52.926Z</time></trkpt><trkpt lat="45.5869467" lon="8.8888783"><ele>209.8</ele><time>2026-03-29T14:03:53.926Z</time></trkpt><trkpt lat="45.5869767" lon="8.888985"><ele>209.6</ele><time>2026-03-29T14:03:54.926Z</time></trkpt><trkpt lat="45.587005" lon="8.8890883"><ele>209.39999999999998</ele><time>2026-03-29T14:03:55.926Z</time></trkpt><trkpt lat="45.5870433" lon="8.889205"><ele>209.2</ele><time>2026-03-29T14:03:56.926Z</time></trkpt><trkpt lat="45.5870917" lon="8.8893517"><ele>209.0</ele><time>2026-03-29T14:03:57.925Z</time></trkpt><trkpt lat="45.5871467" lon="8.8895117"><ele>209.0</ele><time>2026-03-29T14:03:58.926Z</time></trkpt><trkpt lat="45.58721" lon="8.8896833"><ele>209.0</ele><time>2026-03-29T14:03:59.926Z</time></trkpt><trkpt lat="45.5872817" lon="8.8898667"><ele>209.0</ele><time>2026-03-29T14:04:00.926Z</time></trkpt><trkpt lat="45.58735" lon="8.89006"><ele>209.0</ele><time>2026-03-29T14:04:01.926Z</time></trkpt><trkpt lat="45.5874317" lon="8.890275"><ele>209.0</ele><time>2026-03-29T14:04:02.926Z</time></trkpt><trkpt lat="45.5875" lon="8.8904917"><ele>209.0</ele><time>2026-03-29T14:04:03.926Z</time></trkpt><trkpt lat="45.5875617" lon="8.8906967"><ele>209.0</ele><time>2026-03-29T14:04:04.926Z</time></trkpt><trkpt lat="45.587625" lon="8.8908817"><ele>208.75</ele><time>2026-03-29T14:04:05.926Z</time></trkpt><trkpt lat="45.5876783" lon="8.8910517"><ele>208.5</ele><time>2026-03-29T14:04:06.926Z</time></trkpt><trkpt lat="45.58773" lon="8.8912083"><ele>208.25</ele><time>2026-03-29T14:04:07.925Z</time></trkpt><trkpt lat="45.58778" lon="8.8913533"><ele>208.0</ele><time>2026-03-29T14:04:08.926Z</time></trkpt><trkpt lat="45.5878233" lon="8.8914833"><ele>207.83333333333331</ele><time>2026-03-29T14:04:09.926Z</time></trkpt><trkpt lat="45.587865" lon="8.8916117"><ele>207.66666666666666</ele><time>2026-03-29T14:04:10.926Z</time></trkpt><trkpt lat="45.5879" lon="8.8917267"><ele>207.5</ele><time>2026-03-29T14:04:11.926Z</time></trkpt><trkpt lat="45.5879317" lon="8.8918333"><ele>207.33333333333331</ele><time>2026-03-29T14:04:12.926Z</time></trkpt><trkpt lat="45.5879633" lon="8.8919267"><ele>207.16666666666666</ele><time>2026-03-29T14:04:13.926Z</time></trkpt><trkpt lat="45.5879967" lon="8.8920083"><ele>207.0</ele><time>2026-03-29T14:04:14.926Z</time></trkpt><trkpt lat="45.5880267" lon="8.8920933"><ele>206.8</ele><time>2026-03-29T14:04:15.926Z</time></trkpt><trkpt lat="45.588065" lon="8.8922333"><ele>206.6</ele><time>2026-03-29T14:04:17.926Z</time></trkpt><trkpt lat="45.5880933" lon="8.8923233"><ele>206.4</ele><time>2026-03-29T14:04:19.926Z</time></trkpt><trkpt lat="45.5881433" lon="8.8924983"><ele>206.20000000000002</ele><time>2026-03-29T14:04:21.926Z</time></trkpt><trkpt lat="45.5881767" lon="8.89265"><ele>206.0</ele><time>2026-03-29T14:04:22.926Z</time></trkpt><trkpt lat="45.58822" lon="8.8928333"><ele>206.66666666666669</ele><time>2026-03-29T14:04:23.926Z</time></trkpt><trkpt lat="45.5882833" lon="8.8930333"><ele>207.33333333333331</ele><time>2026-03-29T14:04:24.926Z</time></trkpt><trkpt lat="45.588355" lon="8.8932467"><ele>208.0</ele><time>2026-03-29T14:04:25.926Z</time></trkpt><trkpt lat="45.5884367" lon="8.8934683"><ele>208.33333333333331</ele><time>2026-03-29T14:04:26.926Z</time></trkpt><trkpt lat="45.588515" lon="8.89369"><ele>208.66666666666669</ele><time>2026-03-29T14:04:27.926Z</time></trkpt><trkpt lat="45.588585" lon="8.8939333"><ele>209.0</ele><time>2026-03-29T14:04:28.926Z</time></trkpt><trkpt lat="45.5886517" lon="8.8941667"><ele>209.0</ele><time>2026-03-29T14:04:29.925Z</time></trkpt><trkpt lat="45.5887433" lon="8.89441"><ele>209.0</ele><time>2026-03-29T14:04:30.926Z</time></trkpt><trkpt lat="45.5888367" lon="8.89465"><ele>209.0</ele><time>2026-03-29T14:04:31.925Z</time></trkpt><trkpt lat="45.5889217" lon="8.8948767"><ele>208.33333333333334</ele><time>2026-03-29T14:04:32.926Z</time></trkpt><trkpt lat="45.5890067" lon="8.8951017"><ele>207.66666666666669</ele><time>2026-03-29T14:04:33.926Z</time></trkpt><trkpt lat="45.5890833" lon="8.8953217"><ele>207.0</ele><time>2026-03-29T14:04:34.926Z</time></trkpt><trkpt lat="45.58923" lon="8.89576"><ele>208.5</ele><time>2026-03-29T14:04:36.925Z</time></trkpt><trkpt lat="45.5892933" lon="8.89598"><ele>210.0</ele><time>2026-03-29T14:04:37.926Z</time></trkpt><trkpt lat="45.589435" lon="8.8964317"><ele>210.0</ele><time>2026-03-29T14:04:39.926Z</time></trkpt><trkpt lat="45.589505" lon="8.8966183"><ele>210.0</ele><time>2026-03-29T14:04:40.926Z</time></trkpt><trkpt lat="45.589565" lon="8.8967833"><ele>210.0</ele><time>2026-03-29T14:04:41.926Z</time></trkpt><trkpt lat="45.5896217" lon="8.8969367"><ele>210.0</ele><time>2026-03-29T14:04:42.926Z</time></trkpt><trkpt lat="45.5896683" lon="8.8970717"><ele>209.8</ele><time>2026-03-29T14:04:43.925Z</time></trkpt><trkpt lat="45.5897117" lon="8.89721"><ele>209.6</ele><time>2026-03-29T14:04:44.926Z</time></trkpt><trkpt lat="45.589755" lon="8.89733"><ele>209.39999999999998</ele><time>2026-03-29T14:04:45.926Z</time></trkpt><trkpt lat="45.5897933" lon="8.8974433"><ele>209.2</ele><time>2026-03-29T14:04:46.926Z</time></trkpt><trkpt lat="45.5898383" lon="8.89755"><ele>209.0</ele><time>2026-03-29T14:04:47.926Z</time></trkpt><trkpt lat="45.5898783" lon="8.8976617"><ele>209.0</ele><time>2026-03-29T14:04:48.925Z</time></trkpt><trkpt lat="45.5899183" lon="8.8977717"><ele>209.0</ele><time>2026-03-29T14:04:49.926Z</time></trkpt><trkpt lat="45.5899633" lon="8.8978983"><ele>209.0</ele><time>2026-03-29T14:04:50.925Z</time></trkpt><trkpt lat="45.5900067" lon="8.898045"><ele>209.0</ele><time>2026-03-29T14:04:51.925Z</time></trkpt><trkpt lat="45.590055" lon="8.898215"><ele>209.0</ele><time>2026-03-29T14:04:52.925Z</time></trkpt><trkpt lat="45.59011" lon="8.898375"><ele>209.0</ele><time>2026-03-29T14:04:53.925Z</time></trkpt><trkpt lat="45.59015" lon="8.89854"><ele>209.0</ele><time>2026-03-29T14:04:54.925Z</time></trkpt><trkpt lat="45.5902" lon="8.8986767"><ele>209.0</ele><time>2026-03-29T14:04:55.924Z</time></trkpt><trkpt lat="45.5902483" lon="8.8988033"><ele>209.0</ele><time>2026-03-29T14:04:56.925Z</time></trkpt><trkpt lat="45.5902917" lon="8.8989417"><ele>209.0</ele><time>2026-03-29T14:04:57.924Z</time></trkpt><trkpt lat="45.5903383" lon="8.89908"><ele>209.0</ele><time>2026-03-29T14:04:58.925Z</time></trkpt><trkpt lat="45.5903917" lon="8.8992283"><ele>209.0</ele><time>2026-03-29T14:04:59.925Z</time></trkpt><trkpt lat="45.590445" lon="8.8993667"><ele>209.0</ele><time>2026-03-29T14:05:00.925Z</time></trkpt><trkpt lat="45.59048" lon="8.8994983"><ele>209.0</ele><time>2026-03-29T14:05:01.925Z</time></trkpt><trkpt lat="45.5905167" lon="8.89961"><ele>209.0</ele><time>2026-03-29T14:05:02.925Z</time></trkpt><trkpt lat="45.5905417" lon="8.899705"><ele>208.79999999999998</ele><time>2026-03-29T14:05:03.925Z</time></trkpt><trkpt lat="45.5905917" lon="8.8998367"><ele>208.6</ele><time>2026-03-29T14:05:05.925Z</time></trkpt><trkpt lat="45.5906283" lon="8.8999383"><ele>208.4</ele><time>2026-03-29T14:05:07.925Z</time></trkpt><trkpt lat="45.5906517" lon="8.9000667"><ele>208.2</ele><time>2026-03-29T14:05:09.925Z</time></trkpt><trkpt lat="45.590635" lon="8.900255"><ele>208.0</ele><time>2026-03-29T14:05:11.925Z</time></trkpt><trkpt lat="45.590645" lon="8.90035"><ele>207.99999999999997</ele><time>2026-03-29T14:05:12.925Z</time></trkpt><trkpt lat="45.5907283" lon="8.9004883"><ele>208.0</ele><time>2026-03-29T14:05:14.925Z</time></trkpt><trkpt lat="45.59079" lon="8.900565"><ele>208.0</ele><time>2026-03-29T14:05:15.925Z</time></trkpt><trkpt lat="45.5908467" lon="8.9006533"><ele>208.0</ele><time>2026-03-29T14:05:16.925Z</time></trkpt><trkpt lat="45.5908867" lon="8.9007433"><ele>207.99999999999997</ele><time>2026-03-29T14:05:17.925Z</time></trkpt><trkpt lat="45.5909233" lon="8.9008467"><ele>208.0</ele><time>2026-03-29T14:05:18.925Z</time></trkpt><trkpt lat="45.590965" lon="8.90097"><ele>208.0</ele><time>2026-03-29T14:05:19.925Z</time></trkpt><trkpt lat="45.5910183" lon="8.9011167"><ele>208.0</ele><time>2026-03-29T14:05:20.925Z</time></trkpt><trkpt lat="45.591075" lon="8.9012717"><ele>208.0</ele><time>2026-03-29T14:05:21.925Z</time></trkpt><trkpt lat="45.5911283" lon="8.9014167"><ele>208.0</ele><time>2026-03-29T14:05:22.925Z</time></trkpt><trkpt lat="45.59117" lon="8.901545"><ele>208.4</ele><time>2026-03-29T14:05:23.925Z</time></trkpt><trkpt lat="45.5912033" lon="8.9016583"><ele>208.8</ele><time>2026-03-29T14:05:24.925Z</time></trkpt><trkpt lat="45.5912417" lon="8.9017633"><ele>209.2</ele><time>2026-03-29T14:05:25.925Z</time></trkpt><trkpt lat="45.5912833" lon="8.90187"><ele>209.6</ele><time>2026-03-29T14:05:26.925Z</time></trkpt><trkpt lat="45.5913283" lon="8.9019983"><ele>210.0</ele><time>2026-03-29T14:05:27.925Z</time></trkpt><trkpt lat="45.59138" lon="8.9021383"><ele>210.33333333333331</ele><time>2026-03-29T14:05:28.925Z</time></trkpt><trkpt lat="45.5914317" lon="8.9022817"><ele>210.66666666666666</ele><time>2026-03-29T14:05:29.925Z</time></trkpt><trkpt lat="45.59148" lon="8.90243"><ele>211.0</ele><time>2026-03-29T14:05:30.925Z</time></trkpt><trkpt lat="45.5915767" lon="8.9027167"><ele>211.20000000000002</ele><time>2026-03-29T14:05:32.925Z</time></trkpt><trkpt lat="45.5916283" lon="8.9028583"><ele>211.4</ele><time>2026-03-29T14:05:33.925Z</time></trkpt><trkpt lat="45.59169" lon="8.90299"><ele>211.6</ele><time>2026-03-29T14:05:34.925Z</time></trkpt><trkpt lat="45.5917483" lon="8.90312"><ele>211.8</ele><time>2026-03-29T14:05:35.925Z</time></trkpt><trkpt lat="45.59179" lon="8.9032533"><ele>212.0</ele><time>2026-03-29T14:05:36.925Z</time></trkpt><trkpt lat="45.5918267" lon="8.90338"><ele>212.00000000000003</ele><time>2026-03-29T14:05:37.925Z</time></trkpt><trkpt lat="45.5918633" lon="8.9034917"><ele>212.0</ele><time>2026-03-29T14:05:38.925Z</time></trkpt><trkpt lat="45.5919" lon="8.9035983"><ele>212.0</ele><time>2026-03-29T14:05:39.925Z</time></trkpt><trkpt lat="45.59193" lon="8.9037017"><ele>212.0</ele><time>2026-03-29T14:05:40.925Z</time></trkpt><trkpt lat="45.591955" lon="8.9038033"><ele>212.00000000000003</ele><time>2026-03-29T14:05:41.925Z</time></trkpt><trkpt lat="45.5919783" lon="8.9038917"><ele>212.0</ele><time>2026-03-29T14:05:42.925Z</time></trkpt><trkpt lat="45.592005" lon="8.9039817"><ele>212.0</ele><time>2026-03-29T14:05:43.925Z</time></trkpt><trkpt lat="45.592035" lon="8.9040667"><ele>212.0</ele><time>2026-03-29T14:05:44.925Z</time></trkpt><trkpt lat="45.5920733" lon="8.904195"><ele>212.0</ele><time>2026-03-29T14:05:46.925Z</time></trkpt><trkpt lat="45.59211" lon="8.9042933"><ele>212.0</ele><time>2026-03-29T14:05:49.925Z</time></trkpt><trkpt lat="45.5921617" lon="8.9044217"><ele>212.0</ele><time>2026-03-29T14:06:23.925Z</time></trkpt><trkpt lat="45.592245" lon="8.904675"><ele>212.0</ele><time>2026-03-29T14:06:26.925Z</time></trkpt><trkpt lat="45.5922833" lon="8.904785"><ele>212.0</ele><time>2026-03-29T14:06:27.925Z</time></trkpt><trkpt lat="45.59237" lon="8.90503"><ele>212.0</ele><time>2026-03-29T14:06:29.925Z</time></trkpt><trkpt lat="45.5924183" lon="8.90515"><ele>212.0</ele><time>2026-03-29T14:06:30.925Z</time></trkpt><trkpt lat="45.5924583" lon="8.905275"><ele>212.0</ele><time>2026-03-29T14:06:31.925Z</time></trkpt><trkpt lat="45.5924983" lon="8.905395"><ele>212.0</ele><time>2026-03-29T14:06:32.925Z</time></trkpt><trkpt lat="45.5925383" lon="8.9055117"><ele>212.0</ele><time>2026-03-29T14:06:33.925Z</time></trkpt><trkpt lat="45.5925783" lon="8.9056233"><ele>212.0</ele><time>2026-03-29T14:06:34.925Z</time></trkpt><trkpt lat="45.5926183" lon="8.9057383"><ele>212.0</ele><time>2026-03-29T14:06:35.925Z</time></trkpt><trkpt lat="45.5926667" lon="8.9058483"><ele>212.00000000000003</ele><time>2026-03-29T14:06:36.925Z</time></trkpt><trkpt lat="45.5927" lon="8.9059617"><ele>212.0</ele><time>2026-03-29T14:06:37.925Z</time></trkpt><trkpt lat="45.5927367" lon="8.906075"><ele>212.0</ele><time>2026-03-29T14:06:38.925Z</time></trkpt><trkpt lat="45.5927567" lon="8.9061917"><ele>212.0</ele><time>2026-03-29T14:06:39.925Z</time></trkpt><trkpt lat="45.5927917" lon="8.9063017"><ele>212.00000000000003</ele><time>2026-03-29T14:06:40.925Z</time></trkpt><trkpt lat="45.5928283" lon="8.9064133"><ele>212.0</ele><time>2026-03-29T14:06:41.925Z</time></trkpt><trkpt lat="45.5928617" lon="8.9065267"><ele>212.00000000000003</ele><time>2026-03-29T14:06:42.925Z</time></trkpt><trkpt lat="45.5928917" lon="8.906635"><ele>212.0</ele><time>2026-03-29T14:06:43.925Z</time></trkpt><trkpt lat="45.5929183" lon="8.9067383"><ele>212.0</ele><time>2026-03-29T14:06:44.925Z</time></trkpt><trkpt lat="45.5929533" lon="8.9068317"><ele>212.0</ele><time>2026-03-29T14:06:45.925Z</time></trkpt><trkpt lat="45.5929767" lon="8.90692"><ele>212.00000000000003</ele><time>2026-03-29T14:06:46.925Z</time></trkpt><trkpt lat="45.5930083" lon="8.9070117"><ele>212.0</ele><time>2026-03-29T14:06:47.925Z</time></trkpt><trkpt lat="45.5930467" lon="8.9071133"><ele>211.83333333333334</ele><time>2026-03-29T14:06:48.924Z</time></trkpt><trkpt lat="45.5930917" lon="8.9072267"><ele>211.66666666666669</ele><time>2026-03-29T14:06:49.925Z</time></trkpt><trkpt lat="45.593135" lon="8.9073433"><ele>211.5</ele><time>2026-03-29T14:06:50.925Z</time></trkpt><trkpt lat="45.5931783" lon="8.9074583"><ele>211.33333333333331</ele><time>2026-03-29T14:06:51.924Z</time></trkpt><trkpt lat="45.59321" lon="8.9075683"><ele>211.16666666666666</ele><time>2026-03-29T14:06:52.925Z</time></trkpt><trkpt lat="45.5932433" lon="8.9076733"><ele>211.0</ele><time>2026-03-29T14:06:53.925Z</time></trkpt><trkpt lat="45.5932617" lon="8.9077867"><ele>210.99999999999997</ele><time>2026-03-29T14:06:54.925Z</time></trkpt><trkpt lat="45.5932817" lon="8.9078983"><ele>211.0</ele><time>2026-03-29T14:06:55.925Z</time></trkpt><trkpt lat="45.5933183" lon="8.908005"><ele>211.0</ele><time>2026-03-29T14:06:56.925Z</time></trkpt><trkpt lat="45.5933533" lon="8.9081133"><ele>211.0</ele><time>2026-03-29T14:06:57.925Z</time></trkpt><trkpt lat="45.59339" lon="8.9082133"><ele>210.99999999999997</ele><time>2026-03-29T14:06:58.924Z</time></trkpt><trkpt lat="45.5934317" lon="8.9083167"><ele>211.0</ele><time>2026-03-29T14:06:59.925Z</time></trkpt><trkpt lat="45.5934633" lon="8.9084167"><ele>210.99999999999997</ele><time>2026-03-29T14:07:00.925Z</time></trkpt><trkpt lat="45.5935033" lon="8.9085017"><ele>211.0</ele><time>2026-03-29T14:07:01.925Z</time></trkpt><trkpt lat="45.5935317" lon="8.9085917"><ele>211.0</ele><time>2026-03-29T14:07:02.924Z</time></trkpt><trkpt lat="45.59357" lon="8.908685"><ele>211.0</ele><time>2026-03-29T14:07:03.925Z</time></trkpt><trkpt lat="45.5936217" lon="8.90877"><ele>210.99999999999997</ele><time>2026-03-29T14:07:04.924Z</time></trkpt><trkpt lat="45.5936883" lon="8.90884"><ele>211.0</ele><time>2026-03-29T14:07:05.925Z</time></trkpt><trkpt lat="45.5937683" lon="8.9089083"><ele>211.0</ele><time>2026-03-29T14:07:06.925Z</time></trkpt><trkpt lat="45.5938433" lon="8.90899"><ele>211.0</ele><time>2026-03-29T14:07:07.924Z</time></trkpt><trkpt lat="45.5939067" lon="8.9090917"><ele>211.0</ele><time>2026-03-29T14:07:08.925Z</time></trkpt><trkpt lat="45.593965" lon="8.909205"><ele>211.0</ele><time>2026-03-29T14:07:09.925Z</time></trkpt><trkpt lat="45.59402" lon="8.909325"><ele>211.0</ele><time>2026-03-29T14:07:10.925Z</time></trkpt><trkpt lat="45.5940717" lon="8.9094533"><ele>211.0</ele><time>2026-03-29T14:07:11.925Z</time></trkpt><trkpt lat="45.594125" lon="8.9095817"><ele>211.0</ele><time>2026-03-29T14:07:12.925Z</time></trkpt><trkpt lat="45.5941667" lon="8.90971"><ele>211.0</ele><time>2026-03-29T14:07:13.925Z</time></trkpt><trkpt lat="45.5942083" lon="8.909835"><ele>211.0</ele><time>2026-03-29T14:07:14.925Z</time></trkpt><trkpt lat="45.5942533" lon="8.9099633"><ele>211.0</ele><time>2026-03-29T14:07:15.925Z</time></trkpt><trkpt lat="45.5943033" lon="8.9100917"><ele>211.20000000000002</ele><time>2026-03-29T14:07:16.925Z</time></trkpt><trkpt lat="45.5943533" lon="8.910205"><ele>211.4</ele><time>2026-03-29T14:07:17.924Z</time></trkpt><trkpt lat="45.5944017" lon="8.9103167"><ele>211.6</ele><time>2026-03-29T14:07:18.925Z</time></trkpt><trkpt lat="45.5944483" lon="8.9104233"><ele>211.8</ele><time>2026-03-29T14:07:19.925Z</time></trkpt><trkpt lat="45.5945033" lon="8.910625"><ele>212.0</ele><time>2026-03-29T14:07:20.925Z</time></trkpt><trkpt lat="45.5945767" lon="8.9107883"><ele>211.66666666666669</ele><time>2026-03-29T14:07:21.925Z</time></trkpt><trkpt lat="45.5946383" lon="8.910925"><ele>211.33333333333334</ele><time>2026-03-29T14:07:22.925Z</time></trkpt><trkpt lat="45.5946867" lon="8.911055"><ele>211.0</ele><time>2026-03-29T14:07:23.925Z</time></trkpt><trkpt lat="45.5947183" lon="8.9111733"><ele>210.66666666666669</ele><time>2026-03-29T14:07:24.925Z</time></trkpt><trkpt lat="45.5947467" lon="8.9112667"><ele>210.33333333333334</ele><time>2026-03-29T14:07:25.925Z</time></trkpt><trkpt lat="45.594785" lon="8.9113533"><ele>210.0</ele><time>2026-03-29T14:07:27.925Z</time></trkpt><trkpt lat="45.5947983" lon="8.9114833"><ele>210.0</ele><time>2026-03-29T14:07:30.925Z</time></trkpt><trkpt lat="45.59476" lon="8.9115983"><ele>210.0</ele><time>2026-03-29T14:07:32.925Z</time></trkpt><trkpt lat="45.5946733" lon="8.9117033"><ele>210.0</ele><time>2026-03-29T14:07:34.925Z</time></trkpt><trkpt lat="45.5945767" lon="8.911785"><ele>210.0</ele><time>2026-03-29T14:07:36.925Z</time></trkpt><trkpt lat="45.5945367" lon="8.9118567"><ele>210.0</ele><time>2026-03-29T14:07:37.925Z</time></trkpt><trkpt lat="45.5945117" lon="8.9119433"><ele>210.0</ele><time>2026-03-29T14:07:38.925Z</time></trkpt><trkpt lat="45.5945" lon="8.91204"><ele>210.2</ele><time>2026-03-29T14:07:39.925Z</time></trkpt><trkpt lat="45.5945033" lon="8.9121367"><ele>210.4</ele><time>2026-03-29T14:07:40.925Z</time></trkpt><trkpt lat="45.5945333" lon="8.9122283"><ele>210.60000000000002</ele><time>2026-03-29T14:07:41.925Z</time></trkpt><trkpt lat="45.5945883" lon="8.9123833"><ele>210.8</ele><time>2026-03-29T14:07:43.925Z</time></trkpt><trkpt lat="45.5946617" lon="8.9124917"><ele>211.0</ele><time>2026-03-29T14:07:45.925Z</time></trkpt><trkpt lat="45.5947517" lon="8.9125683"><ele>210.66666666666666</ele><time>2026-03-29T14:07:47.925Z</time></trkpt><trkpt lat="45.59486" lon="8.9126533"><ele>210.33333333333331</ele><time>2026-03-29T14:07:49.925Z</time></trkpt><trkpt lat="45.5949067" lon="8.9127167"><ele>210.0</ele><time>2026-03-29T14:07:50.925Z</time></trkpt><trkpt lat="45.5949617" lon="8.9128"><ele>209.66666666666669</ele><time>2026-03-29T14:07:51.925Z</time></trkpt><trkpt lat="45.5950067" lon="8.9128883"><ele>209.33333333333334</ele><time>2026-03-29T14:07:52.925Z</time></trkpt><trkpt lat="45.5950467" lon="8.9129733"><ele>209.0</ele><time>2026-03-29T14:07:53.925Z</time></trkpt><trkpt lat="45.5950883" lon="8.9130433"><ele>209.00000000000003</ele><time>2026-03-29T14:07:54.925Z</time></trkpt><trkpt lat="45.5951617" lon="8.913185"><ele>209.0</ele><time>2026-03-29T14:07:56.925Z</time></trkpt><trkpt lat="45.5952067" lon="8.9132517"><ele>209.0</ele><time>2026-03-29T14:07:57.925Z</time></trkpt><trkpt lat="45.59524" lon="8.9133333"><ele>209.0</ele><time>2026-03-29T14:07:58.925Z</time></trkpt><trkpt lat="45.59528" lon="8.9134217"><ele>209.00000000000003</ele><time>2026-03-29T14:07:59.925Z</time></trkpt><trkpt lat="45.5953233" lon="8.9135083"><ele>209.0</ele><time>2026-03-29T14:08:00.925Z</time></trkpt><trkpt lat="45.5953617" lon="8.913595"><ele>209.0</ele><time>2026-03-29T14:08:01.924Z</time></trkpt><trkpt lat="45.5953983" lon="8.9136867"><ele>209.0</ele><time>2026-03-29T14:08:02.924Z</time></trkpt><trkpt lat="45.595455" lon="8.9137633"><ele>209.0</ele><time>2026-03-29T14:08:03.924Z</time></trkpt><trkpt lat="45.5954883" lon="8.9138517"><ele>209.0</ele><time>2026-03-29T14:08:04.924Z</time></trkpt><trkpt lat="45.59552" lon="8.9139383"><ele>209.0</ele><time>2026-03-29T14:08:05.924Z</time></trkpt><trkpt lat="45.5955467" lon="8.9140267"><ele>209.0</ele><time>2026-03-29T14:08:06.924Z</time></trkpt><trkpt lat="45.59557" lon="8.9141183"><ele>209.0</ele><time>2026-03-29T14:08:07.924Z</time></trkpt><trkpt lat="45.59559" lon="8.91421"><ele>208.33333333333334</ele><time>2026-03-29T14:08:08.924Z</time></trkpt><trkpt lat="45.5956167" lon="8.9143"><ele>207.66666666666669</ele><time>2026-03-29T14:08:09.924Z</time></trkpt><trkpt lat="45.595665" lon="8.9144417"><ele>207.0</ele><time>2026-03-29T14:08:11.924Z</time></trkpt><trkpt lat="45.5956783" lon="8.914565"><ele>206.33333333333331</ele><time>2026-03-29T14:08:14.924Z</time></trkpt><trkpt lat="45.5957083" lon="8.9146883"><ele>205.66666666666666</ele><time>2026-03-29T14:08:17.924Z</time></trkpt><trkpt lat="45.5957383" lon="8.9148033"><ele>205.0</ele><time>2026-03-29T14:08:19.924Z</time></trkpt><trkpt lat="45.59579" lon="8.914925"><ele>205.0</ele><time>2026-03-29T14:08:21.924Z</time></trkpt><trkpt lat="45.5958233" lon="8.9150067"><ele>205.0</ele><time>2026-03-29T14:08:23.924Z</time></trkpt><trkpt lat="45.5958617" lon="8.9150983"><ele>205.0</ele><time>2026-03-29T14:08:25.924Z</time></trkpt><trkpt lat="45.59592" lon="8.9153167"><ele>205.0</ele><time>2026-03-29T14:08:27.924Z</time></trkpt><trkpt lat="45.5959633" lon="8.9154817"><ele>205.0</ele><time>2026-03-29T14:08:28.924Z</time></trkpt><trkpt lat="45.596005" lon="8.91564"><ele>205.0</ele><time>2026-03-29T14:08:29.923Z</time></trkpt><trkpt lat="45.596055" lon="8.9157883"><ele>205.0</ele><time>2026-03-29T14:08:30.924Z</time></trkpt><trkpt lat="45.5960967" lon="8.9159133"><ele>205.0</ele><time>2026-03-29T14:08:31.924Z</time></trkpt><trkpt lat="45.5961467" lon="8.91602"><ele>205.0</ele><time>2026-03-29T14:08:32.924Z</time></trkpt><trkpt lat="45.5962" lon="8.9161017"><ele>205.0</ele><time>2026-03-29T14:08:33.924Z</time></trkpt><trkpt lat="45.5962367" lon="8.9162083"><ele>205.16666666666666</ele><time>2026-03-29T14:08:34.924Z</time></trkpt><trkpt lat="45.596275" lon="8.91631"><ele>205.33333333333331</ele><time>2026-03-29T14:08:35.924Z</time></trkpt><trkpt lat="45.59631" lon="8.9164217"><ele>205.5</ele><time>2026-03-29T14:08:36.923Z</time></trkpt><trkpt lat="45.5963583" lon="8.9165467"><ele>205.66666666666669</ele><time>2026-03-29T14:08:37.924Z</time></trkpt><trkpt lat="45.5964067" lon="8.9166467"><ele>205.83333333333334</ele><time>2026-03-29T14:08:38.924Z</time></trkpt><trkpt lat="45.5964483" lon="8.916745"><ele>206.0</ele><time>2026-03-29T14:08:39.924Z</time></trkpt><trkpt lat="45.59649" lon="8.9168283"><ele>206.16666666666669</ele><time>2026-03-29T14:08:40.924Z</time></trkpt><trkpt lat="45.5965417" lon="8.9169483"><ele>206.33333333333334</ele><time>2026-03-29T14:08:42.924Z</time></trkpt><trkpt lat="45.5965917" lon="8.917025"><ele>206.5</ele><time>2026-03-29T14:08:44.924Z</time></trkpt><trkpt lat="45.5966317" lon="8.9171"><ele>206.66666666666669</ele><time>2026-03-29T14:08:46.924Z</time></trkpt><trkpt lat="45.5966467" lon="8.91721"><ele>206.83333333333334</ele><time>2026-03-29T14:08:49.924Z</time></trkpt><trkpt lat="45.5966733" lon="8.917325"><ele>207.0</ele><time>2026-03-29T14:08:52.924Z</time></trkpt><trkpt lat="45.596695" lon="8.91743"><ele>207.0</ele><time>2026-03-29T14:08:56.924Z</time></trkpt><trkpt lat="45.5967317" lon="8.9175233"><ele>207.0</ele><time>2026-03-29T14:09:01.924Z</time></trkpt><trkpt lat="45.5967667" lon="8.9176317"><ele>207.0</ele><time>2026-03-29T14:09:05.924Z</time></trkpt><trkpt lat="45.5967983" lon="8.9177267"><ele>207.0</ele><time>2026-03-29T14:09:08.924Z</time></trkpt><trkpt lat="45.5967833" lon="8.9178483"><ele>207.0</ele><time>2026-03-29T14:09:11.924Z</time></trkpt><trkpt lat="45.59678" lon="8.9179683"><ele>207.0</ele><time>2026-03-29T14:09:15.924Z</time></trkpt><trkpt lat="45.59678" lon="8.9181067"><ele>206.6</ele><time>2026-03-29T14:09:17.924Z</time></trkpt><trkpt lat="45.5967967" lon="8.9182617"><ele>206.2</ele><time>2026-03-29T14:09:19.923Z</time></trkpt><trkpt lat="45.5968233" lon="8.9183617"><ele>205.8</ele><time>2026-03-29T14:09:20.924Z</time></trkpt><trkpt lat="45.5968717" lon="8.9184633"><ele>205.4</ele><time>2026-03-29T14:09:21.923Z</time></trkpt><trkpt lat="45.5969317" lon="8.9185683"><ele>205.0</ele><time>2026-03-29T14:09:22.924Z</time></trkpt><trkpt lat="45.5969917" lon="8.9186783"><ele>205.0</ele><time>2026-03-29T14:09:23.924Z</time></trkpt><trkpt lat="45.5970383" lon="8.9188133"><ele>205.0</ele><time>2026-03-29T14:09:24.924Z</time></trkpt><trkpt lat="45.5970817" lon="8.91896"><ele>205.0</ele><time>2026-03-29T14:09:25.924Z</time></trkpt><trkpt lat="45.5971183" lon="8.9191067"><ele>205.0</ele><time>2026-03-29T14:09:26.924Z</time></trkpt><trkpt lat="45.5971617" lon="8.91924"><ele>205.0</ele><time>2026-03-29T14:09:27.924Z</time></trkpt><trkpt lat="45.5971883" lon="8.91938"><ele>205.16666666666666</ele><time>2026-03-29T14:09:28.924Z</time></trkpt><trkpt lat="45.5972167" lon="8.9195017"><ele>205.33333333333331</ele><time>2026-03-29T14:09:29.924Z</time></trkpt><trkpt lat="45.5972383" lon="8.91961"><ele>205.5</ele><time>2026-03-29T14:09:30.924Z</time></trkpt><trkpt lat="45.5972667" lon="8.91972"><ele>205.66666666666669</ele><time>2026-03-29T14:09:31.924Z</time></trkpt><trkpt lat="45.5972967" lon="8.9198467"><ele>205.83333333333334</ele><time>2026-03-29T14:09:32.924Z</time></trkpt><trkpt lat="45.597335" lon="8.9199867"><ele>206.0</ele><time>2026-03-29T14:09:33.923Z</time></trkpt><trkpt lat="45.5973733" lon="8.9201217"><ele>205.66666666666669</ele><time>2026-03-29T14:09:34.924Z</time></trkpt><trkpt lat="45.59741" lon="8.92026"><ele>205.33333333333334</ele><time>2026-03-29T14:09:35.923Z</time></trkpt><trkpt lat="45.597445" lon="8.9203633"><ele>205.0</ele><time>2026-03-29T14:09:36.924Z</time></trkpt><trkpt lat="45.597475" lon="8.92047"><ele>204.66666666666669</ele><time>2026-03-29T14:09:37.924Z</time></trkpt><trkpt lat="45.5975" lon="8.9205683"><ele>204.33333333333334</ele><time>2026-03-29T14:09:38.923Z</time></trkpt><trkpt lat="45.5975217" lon="8.9206533"><ele>204.0</ele><time>2026-03-29T14:09:39.924Z</time></trkpt><trkpt lat="45.5975717" lon="8.920775"><ele>203.79999999999998</ele><time>2026-03-29T14:09:41.924Z</time></trkpt><trkpt lat="45.597615" lon="8.920915"><ele>203.6</ele><time>2026-03-29T14:09:49.924Z</time></trkpt><trkpt lat="45.5976283" lon="8.9210683"><ele>203.4</ele><time>2026-03-29T14:09:52.923Z</time></trkpt><trkpt lat="45.5976467" lon="8.921185"><ele>203.2</ele><time>2026-03-29T14:09:54.924Z</time></trkpt><trkpt lat="45.5977017" lon="8.9212317"><ele>203.0</ele><time>2026-03-29T14:09:56.924Z</time></trkpt><trkpt lat="45.5977733" lon="8.9211317"><ele>203.0</ele><time>2026-03-29T14:09:58.924Z</time></trkpt><trkpt lat="45.5978533" lon="8.921015"><ele>203.0</ele><time>2026-03-29T14:10:00.924Z</time></trkpt><trkpt lat="45.59791" lon="8.92093"><ele>203.0</ele><time>2026-03-29T14:10:02.924Z</time></trkpt><trkpt lat="45.5979767" lon="8.92084"><ele>203.0</ele><time>2026-03-29T14:10:05.924Z</time></trkpt><trkpt lat="45.5980333" lon="8.9208"><ele>203.0</ele><time>2026-03-29T14:10:07.924Z</time></trkpt><trkpt lat="45.598125" lon="8.9208767"><ele>203.0</ele><time>2026-03-29T14:10:09.924Z</time></trkpt><trkpt lat="45.598185" lon="8.9209667"><ele>203.0</ele><time>2026-03-29T14:10:10.924Z</time></trkpt><trkpt lat="45.598255" lon="8.9211017"><ele>203.0</ele><time>2026-03-29T14:10:11.924Z</time></trkpt><trkpt lat="45.5983417" lon="8.9212767"><ele>203.0</ele><time>2026-03-29T14:10:12.924Z</time></trkpt><trkpt lat="45.5984433" lon="8.9214767"><ele>203.0</ele><time>2026-03-29T14:10:13.923Z</time></trkpt><trkpt lat="45.5985517" lon="8.9216867"><ele>203.0</ele><time>2026-03-29T14:10:14.924Z</time></trkpt><trkpt lat="45.59864" lon="8.9218733"><ele>203.0</ele><time>2026-03-29T14:10:15.924Z</time></trkpt><trkpt lat="45.59872" lon="8.9220133"><ele>203.00000000000003</ele><time>2026-03-29T14:10:16.924Z</time></trkpt><trkpt lat="45.598775" lon="8.9221267"><ele>203.0</ele><time>2026-03-29T14:10:17.924Z</time></trkpt><trkpt lat="45.5988233" lon="8.922215"><ele>203.0</ele><time>2026-03-29T14:10:18.924Z</time></trkpt><trkpt lat="45.598855" lon="8.9222933"><ele>203.0</ele><time>2026-03-29T14:10:19.924Z</time></trkpt><trkpt lat="45.5988167" lon="8.9224183"><ele>203.00000000000003</ele><time>2026-03-29T14:10:21.923Z</time></trkpt><trkpt lat="45.5987367" lon="8.9224833"><ele>203.0</ele><time>2026-03-29T14:10:23.924Z</time></trkpt><trkpt lat="45.5986667" lon="8.9225367"><ele>203.60000000000002</ele><time>2026-03-29T14:11:14.924Z</time></trkpt><trkpt lat="45.5986267" lon="8.9226317"><ele>204.20000000000002</ele><time>2026-03-29T14:11:16.924Z</time></trkpt><trkpt lat="45.5986217" lon="8.9227767"><ele>204.8</ele><time>2026-03-29T14:11:18.924Z</time></trkpt><trkpt lat="45.59866" lon="8.9228667"><ele>205.4</ele><time>2026-03-29T14:11:19.923Z</time></trkpt><trkpt lat="45.598715" lon="8.9229717"><ele>206.0</ele><time>2026-03-29T14:11:20.923Z</time></trkpt><trkpt lat="45.5987917" lon="8.923095"><ele>206.25</ele><time>2026-03-29T14:11:21.922Z</time></trkpt><trkpt lat="45.59889" lon="8.9232133"><ele>206.5</ele><time>2026-03-29T14:11:22.923Z</time></trkpt><trkpt lat="45.5989967" lon="8.92334"><ele>206.75</ele><time>2026-03-29T14:11:23.923Z</time></trkpt><trkpt lat="45.5990917" lon="8.9234633"><ele>207.0</ele><time>2026-03-29T14:11:24.922Z</time></trkpt><trkpt lat="45.5991883" lon="8.9235833"><ele>207.0</ele><time>2026-03-29T14:11:25.923Z</time></trkpt><trkpt lat="45.599285" lon="8.9237017"><ele>207.0</ele><time>2026-03-29T14:11:26.923Z</time></trkpt><trkpt lat="45.59936" lon="8.923795"><ele>207.0</ele><time>2026-03-29T14:11:27.923Z</time></trkpt><trkpt lat="45.5994233" lon="8.9238983"><ele>207.0</ele><time>2026-03-29T14:11:28.923Z</time></trkpt><trkpt lat="45.5994983" lon="8.9239917"><ele>207.0</ele><time>2026-03-29T14:11:29.922Z</time></trkpt><trkpt lat="45.599595" lon="8.9240867"><ele>207.0</ele><time>2026-03-29T14:11:30.923Z</time></trkpt><trkpt lat="45.5996983" lon="8.924185"><ele>207.0</ele><time>2026-03-29T14:11:31.923Z</time></trkpt><trkpt lat="45.5998033" lon="8.924305"><ele>207.0</ele><time>2026-03-29T14:11:32.923Z</time></trkpt><trkpt lat="45.5998967" lon="8.92445"><ele>207.0</ele><time>2026-03-29T14:11:33.923Z</time></trkpt><trkpt lat="45.5999717" lon="8.9245967"><ele>207.0</ele><time>2026-03-29T14:11:34.923Z</time></trkpt><trkpt lat="45.6000383" lon="8.92476"><ele>207.0</ele><time>2026-03-29T14:11:35.922Z</time></trkpt><trkpt lat="45.6001" lon="8.9249333"><ele>207.0</ele><time>2026-03-29T14:11:36.923Z</time></trkpt><trkpt lat="45.6001667" lon="8.925105"><ele>207.0</ele><time>2026-03-29T14:11:37.923Z</time></trkpt><trkpt lat="45.6002417" lon="8.9252817"><ele>207.0</ele><time>2026-03-29T14:11:38.923Z</time></trkpt><trkpt lat="45.6003217" lon="8.925445"><ele>207.0</ele><time>2026-03-29T14:11:39.923Z</time></trkpt><trkpt lat="45.6003983" lon="8.9256183"><ele>207.0</ele><time>2026-03-29T14:11:40.923Z</time></trkpt><trkpt lat="45.6004617" lon="8.9257817"><ele>207.0</ele><time>2026-03-29T14:11:41.923Z</time></trkpt><trkpt lat="45.6005133" lon="8.9259417"><ele>207.0</ele><time>2026-03-29T14:11:42.923Z</time></trkpt><trkpt lat="45.600565" lon="8.9260933"><ele>207.0</ele><time>2026-03-29T14:11:43.923Z</time></trkpt><trkpt lat="45.6006133" lon="8.926225"><ele>207.0</ele><time>2026-03-29T14:11:44.923Z</time></trkpt><trkpt lat="45.6006533" lon="8.926335"><ele>207.0</ele><time>2026-03-29T14:11:45.923Z</time></trkpt><trkpt lat="45.60069" lon="8.926445"><ele>207.0</ele><time>2026-03-29T14:11:46.923Z</time></trkpt><trkpt lat="45.6007367" lon="8.926575"><ele>207.0</ele><time>2026-03-29T14:11:47.923Z</time></trkpt><trkpt lat="45.6007933" lon="8.92672"><ele>207.0</ele><time>2026-03-29T14:11:48.922Z</time></trkpt><trkpt lat="45.6008567" lon="8.9268767"><ele>207.0</ele><time>2026-03-29T14:11:49.922Z</time></trkpt><trkpt lat="45.600935" lon="8.9270417"><ele>207.0</ele><time>2026-03-29T14:11:50.923Z</time></trkpt><trkpt lat="45.6009983" lon="8.9272033"><ele>206.5</ele><time>2026-03-29T14:11:51.923Z</time></trkpt><trkpt lat="45.6010717" lon="8.9273683"><ele>206.0</ele><time>2026-03-29T14:11:52.922Z</time></trkpt><trkpt lat="45.6011567" lon="8.9275417"><ele>205.5</ele><time>2026-03-29T14:11:53.923Z</time></trkpt><trkpt lat="45.6012583" lon="8.9276867"><ele>205.0</ele><time>2026-03-29T14:11:54.923Z</time></trkpt><trkpt lat="45.60137" lon="8.9278317"><ele>204.33333333333331</ele><time>2026-03-29T14:11:55.923Z</time></trkpt><trkpt lat="45.60149" lon="8.927985"><ele>203.66666666666669</ele><time>2026-03-29T14:11:56.923Z</time></trkpt><trkpt lat="45.6016067" lon="8.9281467"><ele>203.0</ele><time>2026-03-29T14:11:57.923Z</time></trkpt><trkpt lat="45.6017267" lon="8.9283267"><ele>203.33333333333334</ele><time>2026-03-29T14:11:58.923Z</time></trkpt><trkpt lat="45.60185" lon="8.92849"><ele>203.66666666666669</ele><time>2026-03-29T14:11:59.923Z</time></trkpt><trkpt lat="45.6019817" lon="8.92864"><ele>204.0</ele><time>2026-03-29T14:12:00.923Z</time></trkpt><trkpt lat="45.6021117" lon="8.9288067"><ele>204.66666666666669</ele><time>2026-03-29T14:12:01.923Z</time></trkpt><trkpt lat="45.6022467" lon="8.92896"><ele>205.33333333333334</ele><time>2026-03-29T14:12:02.923Z</time></trkpt><trkpt lat="45.6023733" lon="8.9291217"><ele>206.0</ele><time>2026-03-29T14:12:03.922Z</time></trkpt><trkpt lat="45.6024883" lon="8.9292783"><ele>206.33333333333334</ele><time>2026-03-29T14:12:04.923Z</time></trkpt><trkpt lat="45.6026183" lon="8.92945"><ele>206.66666666666669</ele><time>2026-03-29T14:12:05.923Z</time></trkpt><trkpt lat="45.60276" lon="8.929625"><ele>207.0</ele><time>2026-03-29T14:12:06.923Z</time></trkpt><trkpt lat="45.6029" lon="8.9297867"><ele>207.0</ele><time>2026-03-29T14:12:07.923Z</time></trkpt><trkpt lat="45.60301" lon="8.9299333"><ele>207.0</ele><time>2026-03-29T14:12:08.922Z</time></trkpt><trkpt lat="45.6031183" lon="8.930065"><ele>207.0</ele><time>2026-03-29T14:12:09.923Z</time></trkpt><trkpt lat="45.6032267" lon="8.930185"><ele>207.0</ele><time>2026-03-29T14:12:10.922Z</time></trkpt><trkpt lat="45.6033183" lon="8.9302833"><ele>207.16666666666666</ele><time>2026-03-29T14:12:11.923Z</time></trkpt><trkpt lat="45.6034" lon="8.930375"><ele>207.33333333333331</ele><time>2026-03-29T14:12:12.923Z</time></trkpt><trkpt lat="45.60347" lon="8.9304583"><ele>207.5</ele><time>2026-03-29T14:12:13.923Z</time></trkpt><trkpt lat="45.6035267" lon="8.9305317"><ele>207.66666666666666</ele><time>2026-03-29T14:12:14.922Z</time></trkpt><trkpt lat="45.603615" lon="8.9306067"><ele>207.83333333333331</ele><time>2026-03-29T14:12:16.923Z</time></trkpt><trkpt lat="45.6036617" lon="8.9306867"><ele>208.0</ele><time>2026-03-29T14:12:18.923Z</time></trkpt><trkpt lat="45.6037383" lon="8.93077"><ele>208.0</ele><time>2026-03-29T14:12:20.923Z</time></trkpt><trkpt lat="45.6037983" lon="8.9308333"><ele>208.0</ele><time>2026-03-29T14:12:21.923Z</time></trkpt><trkpt lat="45.60386" lon="8.9309233"><ele>208.0</ele><time>2026-03-29T14:12:22.923Z</time></trkpt><trkpt lat="45.60395" lon="8.9310217"><ele>208.0</ele><time>2026-03-29T14:12:23.923Z</time></trkpt><trkpt lat="45.6040467" lon="8.9311367"><ele>208.0</ele><time>2026-03-29T14:12:24.923Z</time></trkpt><trkpt lat="45.604155" lon="8.931265"><ele>208.0</ele><time>2026-03-29T14:12:25.922Z</time></trkpt><trkpt lat="45.6042633" lon="8.9313867"><ele>208.0</ele><time>2026-03-29T14:12:26.923Z</time></trkpt><trkpt lat="45.6043567" lon="8.9314983"><ele>208.0</ele><time>2026-03-29T14:12:27.923Z</time></trkpt><trkpt lat="45.60444" lon="8.9315917"><ele>208.0</ele><time>2026-03-29T14:12:28.923Z</time></trkpt><trkpt lat="45.604525" lon="8.93167"><ele>208.60000000000002</ele><time>2026-03-29T14:12:29.923Z</time></trkpt><trkpt lat="45.6046017" lon="8.9317617"><ele>209.20000000000002</ele><time>2026-03-29T14:12:30.923Z</time></trkpt><trkpt lat="45.60467" lon="8.93185"><ele>209.8</ele><time>2026-03-29T14:12:31.923Z</time></trkpt><trkpt lat="45.6047383" lon="8.931935"><ele>210.4</ele><time>2026-03-29T14:12:32.923Z</time></trkpt><trkpt lat="45.604795" lon="8.932035"><ele>211.0</ele><time>2026-03-29T14:12:33.923Z</time></trkpt><trkpt lat="45.6048667" lon="8.9321467"><ele>211.0</ele><time>2026-03-29T14:12:34.923Z</time></trkpt><trkpt lat="45.6049483" lon="8.93226"><ele>211.0</ele><time>2026-03-29T14:12:35.923Z</time></trkpt><trkpt lat="45.605035" lon="8.93242"><ele>211.0</ele><time>2026-03-29T14:12:36.923Z</time></trkpt><trkpt lat="45.60514" lon="8.9325633"><ele>211.0</ele><time>2026-03-29T14:12:37.923Z</time></trkpt><trkpt lat="45.60524" lon="8.932715"><ele>213.25</ele><time>2026-03-29T14:12:38.923Z</time></trkpt><trkpt lat="45.6053467" lon="8.9328817"><ele>215.5</ele><time>2026-03-29T14:12:39.923Z</time></trkpt><trkpt lat="45.6054417" lon="8.9330367"><ele>217.75</ele><time>2026-03-29T14:12:40.923Z</time></trkpt><trkpt lat="45.6055317" lon="8.933165"><ele>220.0</ele><time>2026-03-29T14:12:41.922Z</time></trkpt><trkpt lat="45.6056133" lon="8.9332883"><ele>220.0</ele><time>2026-03-29T14:12:42.922Z</time></trkpt><trkpt lat="45.6056967" lon="8.9334217"><ele>220.0</ele><time>2026-03-29T14:12:43.923Z</time></trkpt><trkpt lat="45.6057733" lon="8.9335483"><ele>220.0</ele><time>2026-03-29T14:12:44.923Z</time></trkpt><trkpt lat="45.6058467" lon="8.9336817"><ele>220.0</ele><time>2026-03-29T14:12:45.923Z</time></trkpt><trkpt lat="45.6059233" lon="8.93382"><ele>220.0</ele><time>2026-03-29T14:12:46.923Z</time></trkpt><trkpt lat="45.605995" lon="8.9339567"><ele>220.0</ele><time>2026-03-29T14:12:47.923Z</time></trkpt><trkpt lat="45.6060667" lon="8.9341117"><ele>220.0</ele><time>2026-03-29T14:12:48.923Z</time></trkpt><trkpt lat="45.6061433" lon="8.9342933"><ele>220.0</ele><time>2026-03-29T14:12:49.923Z</time></trkpt><trkpt lat="45.6062133" lon="8.9345117"><ele>219.66666666666666</ele><time>2026-03-29T14:12:50.923Z</time></trkpt><trkpt lat="45.6062883" lon="8.9347617"><ele>219.33333333333331</ele><time>2026-03-29T14:12:51.923Z</time></trkpt><trkpt lat="45.6063833" lon="8.9350267"><ele>219.0</ele><time>2026-03-29T14:12:52.923Z</time></trkpt><trkpt lat="45.606495" lon="8.9353317"><ele>219.0</ele><time>2026-03-29T14:12:53.923Z</time></trkpt><trkpt lat="45.6066417" lon="8.9356283"><ele>219.0</ele><time>2026-03-29T14:12:54.923Z</time></trkpt><trkpt lat="45.6067833" lon="8.9359483"><ele>220.0</ele><time>2026-03-29T14:12:55.923Z</time></trkpt><trkpt lat="45.60692" lon="8.9362533"><ele>221.0</ele><time>2026-03-29T14:12:56.923Z</time></trkpt><trkpt lat="45.60704" lon="8.9365733"><ele>220.5</ele><time>2026-03-29T14:12:57.923Z</time></trkpt><trkpt lat="45.6071967" lon="8.9369417"><ele>220.0</ele><time>2026-03-29T14:12:58.923Z</time></trkpt><trkpt lat="45.6073183" lon="8.937275"><ele>219.5</ele><time>2026-03-29T14:12:59.923Z</time></trkpt><trkpt lat="45.6074533" lon="8.937615"><ele>219.0</ele><time>2026-03-29T14:13:00.923Z</time></trkpt><trkpt lat="45.6075783" lon="8.9379217"><ele>219.0</ele><time>2026-03-29T14:13:01.923Z</time></trkpt><trkpt lat="45.6076933" lon="8.9381967"><ele>219.0</ele><time>2026-03-29T14:13:02.923Z</time></trkpt><trkpt lat="45.607805" lon="8.9384733"><ele>219.0</ele><time>2026-03-29T14:13:03.923Z</time></trkpt><trkpt lat="45.6079367" lon="8.938725"><ele>218.66666666666669</ele><time>2026-03-29T14:13:04.923Z</time></trkpt><trkpt lat="45.6080733" lon="8.93899"><ele>218.33333333333334</ele><time>2026-03-29T14:13:05.923Z</time></trkpt><trkpt lat="45.6082067" lon="8.9392367"><ele>218.0</ele><time>2026-03-29T14:13:06.923Z</time></trkpt><trkpt lat="45.6083367" lon="8.9394617"><ele>218.0</ele><time>2026-03-29T14:13:07.923Z</time></trkpt><trkpt lat="45.6084783" lon="8.9396767"><ele>218.0</ele><time>2026-03-29T14:13:08.923Z</time></trkpt><trkpt lat="45.6086383" lon="8.939875"><ele>218.0</ele><time>2026-03-29T14:13:09.923Z</time></trkpt><trkpt lat="45.608815" lon="8.9400267"><ele>218.66666666666669</ele><time>2026-03-29T14:13:10.923Z</time></trkpt><trkpt lat="45.6090067" lon="8.9401717"><ele>219.33333333333331</ele><time>2026-03-29T14:13:11.922Z</time></trkpt><trkpt lat="45.6091833" lon="8.9403267"><ele>220.0</ele><time>2026-03-29T14:13:12.923Z</time></trkpt><trkpt lat="45.6093417" lon="8.940495"><ele>220.0</ele><time>2026-03-29T14:13:13.923Z</time></trkpt><trkpt lat="45.60948" lon="8.94066"><ele>220.0</ele><time>2026-03-29T14:13:14.923Z</time></trkpt><trkpt lat="45.6095983" lon="8.9408417"><ele>220.0</ele><time>2026-03-29T14:13:15.923Z</time></trkpt><trkpt lat="45.6097083" lon="8.9410233"><ele>219.33333333333331</ele><time>2026-03-29T14:13:16.923Z</time></trkpt><trkpt lat="45.6098167" lon="8.94123"><ele>218.66666666666669</ele><time>2026-03-29T14:13:17.923Z</time></trkpt><trkpt lat="45.609925" lon="8.9414617"><ele>218.0</ele><time>2026-03-29T14:13:18.923Z</time></trkpt><trkpt lat="45.610025" lon="8.9417067"><ele>218.0</ele><time>2026-03-29T14:13:19.923Z</time></trkpt><trkpt lat="45.610135" lon="8.94198"><ele>218.0</ele><time>2026-03-29T14:13:20.923Z</time></trkpt><trkpt lat="45.6102467" lon="8.94227"><ele>218.5</ele><time>2026-03-29T14:13:21.923Z</time></trkpt><trkpt lat="45.610365" lon="8.9425567"><ele>219.0</ele><time>2026-03-29T14:13:22.923Z</time></trkpt><trkpt lat="45.6104833" lon="8.9428583"><ele>219.0</ele><time>2026-03-29T14:13:23.923Z</time></trkpt><trkpt lat="45.6106083" lon="8.9431467"><ele>219.0</ele><time>2026-03-29T14:13:24.922Z</time></trkpt><trkpt lat="45.6107417" lon="8.94343"><ele>219.33333333333331</ele><time>2026-03-29T14:13:25.923Z</time></trkpt><trkpt lat="45.6108683" lon="8.943695"><ele>219.66666666666666</ele><time>2026-03-29T14:13:26.922Z</time></trkpt><trkpt lat="45.6109917" lon="8.9439283"><ele>220.0</ele><time>2026-03-29T14:13:27.923Z</time></trkpt><trkpt lat="45.611105" lon="8.9441483"><ele>219.75</ele><time>2026-03-29T14:13:28.923Z</time></trkpt><trkpt lat="45.6112067" lon="8.9443383"><ele>219.5</ele><time>2026-03-29T14:13:29.923Z</time></trkpt><trkpt lat="45.6112917" lon="8.9445117"><ele>219.25</ele><time>2026-03-29T14:13:30.923Z</time></trkpt><trkpt lat="45.6113667" lon="8.9446583"><ele>219.0</ele><time>2026-03-29T14:13:31.923Z</time></trkpt><trkpt lat="45.6114367" lon="8.9447917"><ele>219.0</ele><time>2026-03-29T14:13:32.923Z</time></trkpt><trkpt lat="45.6114967" lon="8.94489"><ele>218.99999999999997</ele><time>2026-03-29T14:13:33.923Z</time></trkpt><trkpt lat="45.6115383" lon="8.9449733"><ele>218.99999999999997</ele><time>2026-03-29T14:13:34.923Z</time></trkpt><trkpt lat="45.6116067" lon="8.945105"><ele>219.0</ele><time>2026-03-29T14:13:36.923Z</time></trkpt><trkpt lat="45.61167" lon="8.94525"><ele>219.0</ele><time>2026-03-29T14:13:38.923Z</time></trkpt><trkpt lat="45.6116883" lon="8.94536"><ele>219.0</ele><time>2026-03-29T14:13:39.923Z</time></trkpt><trkpt lat="45.6117067" lon="8.9454933"><ele>218.99999999999997</ele><time>2026-03-29T14:13:40.923Z</time></trkpt><trkpt lat="45.6117033" lon="8.94563"><ele>218.99999999999997</ele><time>2026-03-29T14:13:41.923Z</time></trkpt><trkpt lat="45.611705" lon="8.9457783"><ele>219.0</ele><time>2026-03-29T14:13:42.922Z</time></trkpt><trkpt lat="45.611715" lon="8.94594"><ele>219.0</ele><time>2026-03-29T14:13:43.923Z</time></trkpt><trkpt lat="45.6117283" lon="8.9461067"><ele>219.0</ele><time>2026-03-29T14:13:44.923Z</time></trkpt><trkpt lat="45.6117467" lon="8.9463"><ele>219.0</ele><time>2026-03-29T14:13:45.923Z</time></trkpt><trkpt lat="45.6117583" lon="8.9465033"><ele>219.0</ele><time>2026-03-29T14:13:46.923Z</time></trkpt><trkpt lat="45.611765" lon="8.94674"><ele>219.0</ele><time>2026-03-29T14:13:47.923Z</time></trkpt><trkpt lat="45.6117683" lon="8.9469817"><ele>218.66666666666669</ele><time>2026-03-29T14:13:48.923Z</time></trkpt><trkpt lat="45.6117717" lon="8.9472117"><ele>218.33333333333334</ele><time>2026-03-29T14:13:49.923Z</time></trkpt><trkpt lat="45.611775" lon="8.947425"><ele>218.0</ele><time>2026-03-29T14:13:50.923Z</time></trkpt><trkpt lat="45.6117817" lon="8.9476317"><ele>218.0</ele><time>2026-03-29T14:13:51.923Z</time></trkpt><trkpt lat="45.611795" lon="8.947825"><ele>218.0</ele><time>2026-03-29T14:13:52.923Z</time></trkpt><trkpt lat="45.6118" lon="8.94803"><ele>218.0</ele><time>2026-03-29T14:13:53.923Z</time></trkpt><trkpt lat="45.6117983" lon="8.9482167"><ele>218.0</ele><time>2026-03-29T14:13:54.923Z</time></trkpt><trkpt lat="45.6117967" lon="8.9483983"><ele>218.0</ele><time>2026-03-29T14:13:55.923Z</time></trkpt><trkpt lat="45.6118017" lon="8.9485633"><ele>218.0</ele><time>2026-03-29T14:13:56.923Z</time></trkpt><trkpt lat="45.6118067" lon="8.9487167"><ele>218.0</ele><time>2026-03-29T14:13:57.923Z</time></trkpt><trkpt lat="45.611815" lon="8.9488683"><ele>218.0</ele><time>2026-03-29T14:13:58.923Z</time></trkpt><trkpt lat="45.6118217" lon="8.949"><ele>218.0</ele><time>2026-03-29T14:13:59.923Z</time></trkpt><trkpt lat="45.6118183" lon="8.94912"><ele>218.16666666666669</ele><time>2026-03-29T14:14:00.923Z</time></trkpt><trkpt lat="45.6118067" lon="8.9492383"><ele>218.33333333333334</ele><time>2026-03-29T14:14:01.923Z</time></trkpt><trkpt lat="45.6117933" lon="8.949355"><ele>218.5</ele><time>2026-03-29T14:14:02.923Z</time></trkpt><trkpt lat="45.6117883" lon="8.949455"><ele>218.66666666666669</ele><time>2026-03-29T14:14:03.923Z</time></trkpt><trkpt lat="45.6118017" lon="8.9495733"><ele>218.83333333333334</ele><time>2026-03-29T14:14:04.923Z</time></trkpt><trkpt lat="45.6118283" lon="8.9497233"><ele>219.0</ele><time>2026-03-29T14:14:05.923Z</time></trkpt><trkpt lat="45.61184" lon="8.9498933"><ele>219.0</ele><time>2026-03-29T14:14:06.923Z</time></trkpt><trkpt lat="45.611855" lon="8.9500783"><ele>219.0</ele><time>2026-03-29T14:14:07.923Z</time></trkpt><trkpt lat="45.6118667" lon="8.95027"><ele>219.0</ele><time>2026-03-29T14:14:08.923Z</time></trkpt><trkpt lat="45.6118767" lon="8.950455"><ele>219.0</ele><time>2026-03-29T14:14:09.922Z</time></trkpt><trkpt lat="45.6118867" lon="8.95063"><ele>219.0</ele><time>2026-03-29T14:14:10.923Z</time></trkpt><trkpt lat="45.611895" lon="8.95081"><ele>219.0</ele><time>2026-03-29T14:14:11.923Z</time></trkpt><trkpt lat="45.6119083" lon="8.9510067"><ele>219.0</ele><time>2026-03-29T14:14:12.923Z</time></trkpt><trkpt lat="45.6119183" lon="8.9512267"><ele>219.0</ele><time>2026-03-29T14:14:13.923Z</time></trkpt><trkpt lat="45.6119283" lon="8.9514683"><ele>218.33333333333331</ele><time>2026-03-29T14:14:14.923Z</time></trkpt><trkpt lat="45.61194" lon="8.9517233"><ele>217.66666666666666</ele><time>2026-03-29T14:14:15.923Z</time></trkpt><trkpt lat="45.61195" lon="8.951995"><ele>217.0</ele><time>2026-03-29T14:14:16.922Z</time></trkpt><trkpt lat="45.6119567" lon="8.9522583"><ele>217.0</ele><time>2026-03-29T14:14:17.923Z</time></trkpt><trkpt lat="45.6119667" lon="8.9525217"><ele>217.0</ele><time>2026-03-29T14:14:18.923Z</time></trkpt><trkpt lat="45.61197" lon="8.9527817"><ele>217.0</ele><time>2026-03-29T14:14:19.923Z</time></trkpt><trkpt lat="45.6119767" lon="8.9530617"><ele>217.0</ele><time>2026-03-29T14:14:20.923Z</time></trkpt><trkpt lat="45.61199" lon="8.9533533"><ele>217.0</ele><time>2026-03-29T14:14:21.923Z</time></trkpt><trkpt lat="45.6120017" lon="8.95364"><ele>217.0</ele><time>2026-03-29T14:14:22.923Z</time></trkpt><trkpt lat="45.6120117" lon="8.953895"><ele>217.0</ele><time>2026-03-29T14:14:23.923Z</time></trkpt><trkpt lat="45.6120217" lon="8.9541267"><ele>217.0</ele><time>2026-03-29T14:14:24.923Z</time></trkpt><trkpt lat="45.6120267" lon="8.954325"><ele>217.0</ele><time>2026-03-29T14:14:25.923Z</time></trkpt><trkpt lat="45.6120317" lon="8.9545033"><ele>217.0</ele><time>2026-03-29T14:14:26.923Z</time></trkpt><trkpt lat="45.61204" lon="8.9546567"><ele>217.0</ele><time>2026-03-29T14:14:27.923Z</time></trkpt><trkpt lat="45.6120483" lon="8.9547833"><ele>217.0</ele><time>2026-03-29T14:14:28.923Z</time></trkpt><trkpt lat="45.612055" lon="8.9548817"><ele>217.0</ele><time>2026-03-29T14:14:29.923Z</time></trkpt><trkpt lat="45.612065" lon="8.9549983"><ele>217.0</ele><time>2026-03-29T14:14:37.923Z</time></trkpt><trkpt lat="45.6120683" lon="8.955155"><ele>217.0</ele><time>2026-03-29T14:14:39.922Z</time></trkpt><trkpt lat="45.612065" lon="8.9553117"><ele>216.99999999999997</ele><time>2026-03-29T14:14:41.922Z</time></trkpt><trkpt lat="45.61207" lon="8.955475"><ele>217.0</ele><time>2026-03-29T14:14:43.922Z</time></trkpt><trkpt lat="45.6120683" lon="8.95562"><ele>217.0</ele><time>2026-03-29T14:14:45.922Z</time></trkpt><trkpt lat="45.612075" lon="8.9557317"><ele>217.0</ele><time>2026-03-29T14:14:47.922Z</time></trkpt><trkpt lat="45.61209" lon="8.9558233"><ele>216.99999999999997</ele><time>2026-03-29T14:14:49.922Z</time></trkpt><trkpt lat="45.6121033" lon="8.95592"><ele>217.0</ele><time>2026-03-29T14:14:51.922Z</time></trkpt><trkpt lat="45.6121117" lon="8.9560267"><ele>216.99999999999997</ele><time>2026-03-29T14:14:53.921Z</time></trkpt><trkpt lat="45.612105" lon="8.9561267"><ele>217.0</ele><time>2026-03-29T14:14:55.922Z</time></trkpt><trkpt lat="45.61208" lon="8.9562417"><ele>217.0</ele><time>2026-03-29T14:14:57.921Z</time></trkpt><trkpt lat="45.6120467" lon="8.9563283"><ele>217.0</ele><time>2026-03-29T14:14:58.922Z</time></trkpt><trkpt lat="45.612025" lon="8.9565"><ele>216.99999999999997</ele><time>2026-03-29T14:15:00.922Z</time></trkpt><trkpt lat="45.6120933" lon="8.9566017"><ele>217.0</ele><time>2026-03-29T14:15:02.922Z</time></trkpt><trkpt lat="45.6122083" lon="8.9566217"><ele>216.99999999999997</ele><time>2026-03-29T14:15:04.922Z</time></trkpt><trkpt lat="45.6122767" lon="8.9566333"><ele>217.0</ele><time>2026-03-29T14:15:05.922Z</time></trkpt><trkpt lat="45.6123483" lon="8.9566683"><ele>217.0</ele><time>2026-03-29T14:15:06.921Z</time></trkpt><trkpt lat="45.6124217" lon="8.9567483"><ele>217.0</ele><time>2026-03-29T14:15:07.922Z</time></trkpt><trkpt lat="45.6124817" lon="8.9568633"><ele>216.99999999999997</ele><time>2026-03-29T14:15:08.922Z</time></trkpt><trkpt lat="45.6125433" lon="8.9569867"><ele>217.0</ele><time>2026-03-29T14:15:09.921Z</time></trkpt><trkpt lat="45.61262" lon="8.9571217"><ele>217.0</ele><time>2026-03-29T14:15:10.922Z</time></trkpt><trkpt lat="45.6127067" lon="8.9572417"><ele>217.0</ele><time>2026-03-29T14:15:11.921Z</time></trkpt><trkpt lat="45.6128067" lon="8.9573883"><ele>217.0</ele><time>2026-03-29T14:15:12.922Z</time></trkpt><trkpt lat="45.6128967" lon="8.9575283"><ele>217.0</ele><time>2026-03-29T14:15:13.922Z</time></trkpt><trkpt lat="45.61298" lon="8.9576617"><ele>216.25</ele><time>2026-03-29T14:15:14.921Z</time></trkpt><trkpt lat="45.6130683" lon="8.9577833"><ele>215.5</ele><time>2026-03-29T14:15:15.922Z</time></trkpt><trkpt lat="45.6131583" lon="8.95791"><ele>214.75</ele><time>2026-03-29T14:15:16.922Z</time></trkpt><trkpt lat="45.6132467" lon="8.9580433"><ele>214.0</ele><time>2026-03-29T14:15:17.922Z</time></trkpt><trkpt lat="45.6133367" lon="8.9581783"><ele>214.0</ele><time>2026-03-29T14:15:18.921Z</time></trkpt><trkpt lat="45.61343" lon="8.95832"><ele>214.0</ele><time>2026-03-29T14:15:19.922Z</time></trkpt><trkpt lat="45.6135217" lon="8.9584783"><ele>214.0</ele><time>2026-03-29T14:15:20.921Z</time></trkpt><trkpt lat="45.6136217" lon="8.9586317"><ele>214.0</ele><time>2026-03-29T14:15:21.922Z</time></trkpt><trkpt lat="45.6137233" lon="8.9587917"><ele>214.0</ele><time>2026-03-29T14:15:22.922Z</time></trkpt><trkpt lat="45.6138083" lon="8.9589833"><ele>214.0</ele><time>2026-03-29T14:15:23.922Z</time></trkpt><trkpt lat="45.6138867" lon="8.9591967"><ele>214.0</ele><time>2026-03-29T14:15:24.922Z</time></trkpt><trkpt lat="45.613955" lon="8.959405"><ele>214.5</ele><time>2026-03-29T14:15:25.922Z</time></trkpt><trkpt lat="45.6140133" lon="8.9595833"><ele>215.0</ele><time>2026-03-29T14:15:26.922Z</time></trkpt><trkpt lat="45.6140633" lon="8.9597467"><ele>215.5</ele><time>2026-03-29T14:15:27.921Z</time></trkpt><trkpt lat="45.6141167" lon="8.959905"><ele>216.0</ele><time>2026-03-29T14:15:28.922Z</time></trkpt><trkpt lat="45.6141667" lon="8.9600283"><ele>216.20000000000002</ele><time>2026-03-29T14:15:29.922Z</time></trkpt><trkpt lat="45.6142067" lon="8.96012"><ele>216.40000000000003</ele><time>2026-03-29T14:15:30.922Z</time></trkpt><trkpt lat="45.6142633" lon="8.9602483"><ele>216.6</ele><time>2026-03-29T14:15:32.922Z</time></trkpt><trkpt lat="45.6143033" lon="8.9603533"><ele>216.8</ele><time>2026-03-29T14:15:35.922Z</time></trkpt><trkpt lat="45.614345" lon="8.9604983"><ele>217.0</ele><time>2026-03-29T14:15:37.922Z</time></trkpt><trkpt lat="45.614405" lon="8.9606183"><ele>217.0</ele><time>2026-03-29T14:15:39.922Z</time></trkpt><trkpt lat="45.6144983" lon="8.9605717"><ele>217.0</ele><time>2026-03-29T14:15:41.922Z</time></trkpt><trkpt lat="45.6145333" lon="8.960475"><ele>217.0</ele><time>2026-03-29T14:15:42.922Z</time></trkpt><trkpt lat="45.6145983" lon="8.9603433"><ele>217.0</ele><time>2026-03-29T14:15:43.922Z</time></trkpt><trkpt lat="45.6146917" lon="8.9602017"><ele>217.0</ele><time>2026-03-29T14:15:44.922Z</time></trkpt><trkpt lat="45.614825" lon="8.960015"><ele>217.0</ele><time>2026-03-29T14:15:45.922Z</time></trkpt><trkpt lat="45.614985" lon="8.9598217"><ele>217.0</ele><time>2026-03-29T14:15:46.922Z</time></trkpt><trkpt lat="45.6151467" lon="8.95963"><ele>217.0</ele><time>2026-03-29T14:15:47.922Z</time></trkpt><trkpt lat="45.6153067" lon="8.959435"><ele>217.33333333333331</ele><time>2026-03-29T14:15:48.922Z</time></trkpt><trkpt lat="45.6154633" lon="8.9592467"><ele>217.66666666666669</ele><time>2026-03-29T14:15:49.921Z</time></trkpt><trkpt lat="45.6156183" lon="8.9590333"><ele>218.0</ele><time>2026-03-29T14:15:50.922Z</time></trkpt><trkpt lat="45.61579" lon="8.9588233"><ele>218.0</ele><time>2026-03-29T14:15:51.922Z</time></trkpt><trkpt lat="45.615965" lon="8.9586183"><ele>218.0</ele><time>2026-03-29T14:15:52.922Z</time></trkpt><trkpt lat="45.6161383" lon="8.9584233"><ele>218.0</ele><time>2026-03-29T14:15:53.922Z</time></trkpt><trkpt lat="45.6163017" lon="8.9582383"><ele>218.0</ele><time>2026-03-29T14:15:54.922Z</time></trkpt><trkpt lat="45.616445" lon="8.958065"><ele>218.0</ele><time>2026-03-29T14:15:55.922Z</time></trkpt><trkpt lat="45.6165717" lon="8.9579083"><ele>218.0</ele><time>2026-03-29T14:15:56.922Z</time></trkpt><trkpt lat="45.616685" lon="8.9577717"><ele>218.0</ele><time>2026-03-29T14:15:57.921Z</time></trkpt><trkpt lat="45.61678" lon="8.9576467"><ele>218.0</ele><time>2026-03-29T14:15:58.922Z</time></trkpt><trkpt lat="45.6168683" lon="8.95753"><ele>218.0</ele><time>2026-03-29T14:15:59.922Z</time></trkpt><trkpt lat="45.61694" lon="8.95741"><ele>218.0</ele><time>2026-03-29T14:16:00.922Z</time></trkpt><trkpt lat="45.617015" lon="8.9572933"><ele>218.75</ele><time>2026-03-29T14:16:01.921Z</time></trkpt><trkpt lat="45.6171083" lon="8.9571767"><ele>219.5</ele><time>2026-03-29T14:16:02.922Z</time></trkpt><trkpt lat="45.6172217" lon="8.9570833"><ele>220.25</ele><time>2026-03-29T14:16:03.922Z</time></trkpt><trkpt lat="45.61734" lon="8.9569683"><ele>221.0</ele><time>2026-03-29T14:16:04.922Z</time></trkpt><trkpt lat="45.617465" lon="8.95683"><ele>220.66666666666669</ele><time>2026-03-29T14:16:05.922Z</time></trkpt><trkpt lat="45.6175967" lon="8.956675"><ele>220.33333333333331</ele><time>2026-03-29T14:16:06.922Z</time></trkpt><trkpt lat="45.6177433" lon="8.9565117"><ele>220.0</ele><time>2026-03-29T14:16:07.922Z</time></trkpt><trkpt lat="45.6178883" lon="8.9563417"><ele>220.0</ele><time>2026-03-29T14:16:08.922Z</time></trkpt><trkpt lat="45.61803" lon="8.9561717"><ele>220.0</ele><time>2026-03-29T14:16:09.922Z</time></trkpt><trkpt lat="45.6181617" lon="8.95601"><ele>220.0</ele><time>2026-03-29T14:16:10.922Z</time></trkpt><trkpt lat="45.6182767" lon="8.955875"><ele>220.0</ele><time>2026-03-29T14:16:11.922Z</time></trkpt><trkpt lat="45.6183867" lon="8.9557333"><ele>220.0</ele><time>2026-03-29T14:16:12.922Z</time></trkpt><trkpt lat="45.6184833" lon="8.9556017"><ele>220.0</ele><time>2026-03-29T14:16:13.922Z</time></trkpt><trkpt lat="45.6185617" lon="8.9555033"><ele>220.0</ele><time>2026-03-29T14:16:14.922Z</time></trkpt><trkpt lat="45.6186233" lon="8.9554267"><ele>219.99999999999997</ele><time>2026-03-29T14:16:15.921Z</time></trkpt><trkpt lat="45.6186817" lon="8.9553567"><ele>220.0</ele><time>2026-03-29T14:16:16.922Z</time></trkpt><trkpt lat="45.6187533" lon="8.95528"><ele>220.0</ele><time>2026-03-29T14:16:18.922Z</time></trkpt><trkpt lat="45.61881" lon="8.9552083"><ele>220.0</ele><time>2026-03-29T14:16:43.922Z</time></trkpt><trkpt lat="45.6188667" lon="8.9551383"><ele>219.99999999999997</ele><time>2026-03-29T14:16:44.922Z</time></trkpt><trkpt lat="45.61895" lon="8.955025"><ele>220.0</ele><time>2026-03-29T14:16:45.922Z</time></trkpt><trkpt lat="45.6190633" lon="8.9548917"><ele>220.66666666666666</ele><time>2026-03-29T14:16:46.922Z</time></trkpt><trkpt lat="45.61919" lon="8.9547483"><ele>221.33333333333331</ele><time>2026-03-29T14:16:47.922Z</time></trkpt><trkpt lat="45.6193167" lon="8.9545917"><ele>222.0</ele><time>2026-03-29T14:16:48.922Z</time></trkpt><trkpt lat="45.6194533" lon="8.954415"><ele>221.66666666666669</ele><time>2026-03-29T14:16:49.922Z</time></trkpt><trkpt lat="45.619595" lon="8.9542567"><ele>221.33333333333334</ele><time>2026-03-29T14:16:50.921Z</time></trkpt><trkpt lat="45.61974" lon="8.9540817"><ele>221.0</ele><time>2026-03-29T14:16:51.922Z</time></trkpt><trkpt lat="45.6198917" lon="8.9538783"><ele>221.0</ele><time>2026-03-29T14:16:52.922Z</time></trkpt><trkpt lat="45.620035" lon="8.9537167"><ele>221.0</ele><time>2026-03-29T14:16:53.922Z</time></trkpt><trkpt lat="45.6201633" lon="8.95355"><ele>221.0</ele><time>2026-03-29T14:16:54.922Z</time></trkpt><trkpt lat="45.6202883" lon="8.9533983"><ele>221.75</ele><time>2026-03-29T14:16:55.922Z</time></trkpt><trkpt lat="45.6203967" lon="8.9532617"><ele>222.5</ele><time>2026-03-29T14:16:56.922Z</time></trkpt><trkpt lat="45.620505" lon="8.95313"><ele>223.25</ele><time>2026-03-29T14:16:57.922Z</time></trkpt><trkpt lat="45.62061" lon="8.953015"><ele>224.0</ele><time>2026-03-29T14:16:58.922Z</time></trkpt><trkpt lat="45.6207033" lon="8.9528967"><ele>224.0</ele><time>2026-03-29T14:16:59.922Z</time></trkpt><trkpt lat="45.62079" lon="8.9527767"><ele>224.0</ele><time>2026-03-29T14:17:00.922Z</time></trkpt><trkpt lat="45.620895" lon="8.952645"><ele>224.0</ele><time>2026-03-29T14:17:01.922Z</time></trkpt><trkpt lat="45.6210017" lon="8.9525067"><ele>224.0</ele><time>2026-03-29T14:17:02.922Z</time></trkpt><trkpt lat="45.6211183" lon="8.95236"><ele>224.0</ele><time>2026-03-29T14:17:03.922Z</time></trkpt><trkpt lat="45.62125" lon="8.95221"><ele>224.0</ele><time>2026-03-29T14:17:04.922Z</time></trkpt><trkpt lat="45.62139" lon="8.9520467"><ele>224.0</ele><time>2026-03-29T14:17:05.922Z</time></trkpt><trkpt lat="45.6215367" lon="8.9518633"><ele>224.0</ele><time>2026-03-29T14:17:06.922Z</time></trkpt><trkpt lat="45.6216883" lon="8.9516667"><ele>224.0</ele><time>2026-03-29T14:17:07.922Z</time></trkpt><trkpt lat="45.6218567" lon="8.951475"><ele>224.0</ele><time>2026-03-29T14:17:08.922Z</time></trkpt><trkpt lat="45.6220233" lon="8.9512833"><ele>224.0</ele><time>2026-03-29T14:17:09.922Z</time></trkpt><trkpt lat="45.6221833" lon="8.9510833"><ele>224.0</ele><time>2026-03-29T14:17:10.922Z</time></trkpt><trkpt lat="45.6223433" lon="8.9508817"><ele>224.0</ele><time>2026-03-29T14:17:11.922Z</time></trkpt><trkpt lat="45.6225033" lon="8.9506767"><ele>224.66666666666669</ele><time>2026-03-29T14:17:12.921Z</time></trkpt><trkpt lat="45.6226717" lon="8.9504733"><ele>225.33333333333331</ele><time>2026-03-29T14:17:13.922Z</time></trkpt><trkpt lat="45.6228417" lon="8.9502633"><ele>226.0</ele><time>2026-03-29T14:17:14.922Z</time></trkpt><trkpt lat="45.6230167" lon="8.950055"><ele>227.33333333333331</ele><time>2026-03-29T14:17:15.922Z</time></trkpt><trkpt lat="45.6231867" lon="8.9498483"><ele>228.66666666666669</ele><time>2026-03-29T14:17:16.922Z</time></trkpt><trkpt lat="45.6233517" lon="8.9496483"><ele>230.0</ele><time>2026-03-29T14:17:17.922Z</time></trkpt><trkpt lat="45.6235067" lon="8.949475"><ele>229.66666666666669</ele><time>2026-03-29T14:17:18.922Z</time></trkpt><trkpt lat="45.6236567" lon="8.9493"><ele>229.33333333333331</ele><time>2026-03-29T14:17:19.922Z</time></trkpt><trkpt lat="45.6237983" lon="8.9491483"><ele>229.0</ele><time>2026-03-29T14:17:20.922Z</time></trkpt><trkpt lat="45.6239283" lon="8.9489933"><ele>228.5</ele><time>2026-03-29T14:17:21.922Z</time></trkpt><trkpt lat="45.6240483" lon="8.94884"><ele>228.0</ele><time>2026-03-29T14:17:22.922Z</time></trkpt><trkpt lat="45.6241567" lon="8.9487067"><ele>227.5</ele><time>2026-03-29T14:17:23.922Z</time></trkpt><trkpt lat="45.624255" lon="8.948575"><ele>227.0</ele><time>2026-03-29T14:17:24.922Z</time></trkpt><trkpt lat="45.6243483" lon="8.948445"><ele>227.5</ele><time>2026-03-29T14:17:25.921Z</time></trkpt><trkpt lat="45.6244383" lon="8.9483133"><ele>228.0</ele><time>2026-03-29T14:17:26.922Z</time></trkpt><trkpt lat="45.624525" lon="8.9481783"><ele>228.5</ele><time>2026-03-29T14:17:27.922Z</time></trkpt><trkpt lat="45.6246083" lon="8.9480617"><ele>229.0</ele><time>2026-03-29T14:17:28.922Z</time></trkpt><trkpt lat="45.6246983" lon="8.9479417"><ele>229.0</ele><time>2026-03-29T14:17:29.922Z</time></trkpt><trkpt lat="45.6247883" lon="8.94783"><ele>229.0</ele><time>2026-03-29T14:17:30.922Z</time></trkpt><trkpt lat="45.62487" lon="8.9476817"><ele>229.0</ele><time>2026-03-29T14:17:31.922Z</time></trkpt><trkpt lat="45.6249483" lon="8.9475067"><ele>229.0</ele><time>2026-03-29T14:17:32.921Z</time></trkpt><trkpt lat="45.6250383" lon="8.9473133"><ele>229.0</ele><time>2026-03-29T14:17:33.922Z</time></trkpt><trkpt lat="45.625145" lon="8.9471267"><ele>229.0</ele><time>2026-03-29T14:17:34.922Z</time></trkpt><trkpt lat="45.6252567" lon="8.946935"><ele>229.0</ele><time>2026-03-29T14:17:35.922Z</time></trkpt><trkpt lat="45.6253817" lon="8.9467483"><ele>229.0</ele><time>2026-03-29T14:17:36.922Z</time></trkpt><trkpt lat="45.6255033" lon="8.9465533"><ele>229.0</ele><time>2026-03-29T14:17:37.922Z</time></trkpt><trkpt lat="45.6256217" lon="8.946375"><ele>229.0</ele><time>2026-03-29T14:17:38.922Z</time></trkpt><trkpt lat="45.6257317" lon="8.94619"><ele>229.0</ele><time>2026-03-29T14:17:39.922Z</time></trkpt><trkpt lat="45.625845" lon="8.94599"><ele>229.0</ele><time>2026-03-29T14:17:40.922Z</time></trkpt><trkpt lat="45.6259567" lon="8.9458067"><ele>229.0</ele><time>2026-03-29T14:17:41.922Z</time></trkpt><trkpt lat="45.6260667" lon="8.9456383"><ele>229.0</ele><time>2026-03-29T14:17:42.922Z</time></trkpt><trkpt lat="45.626165" lon="8.945485"><ele>229.0</ele><time>2026-03-29T14:17:43.922Z</time></trkpt><trkpt lat="45.6262533" lon="8.9453417"><ele>229.0</ele><time>2026-03-29T14:17:44.922Z</time></trkpt><trkpt lat="45.6263367" lon="8.9452133"><ele>229.0</ele><time>2026-03-29T14:17:45.922Z</time></trkpt><trkpt lat="45.6263933" lon="8.9451133"><ele>228.99999999999997</ele><time>2026-03-29T14:17:46.922Z</time></trkpt><trkpt lat="45.6264533" lon="8.94503"><ele>229.0</ele><time>2026-03-29T14:17:47.922Z</time></trkpt><trkpt lat="45.6265083" lon="8.94492"><ele>229.0</ele><time>2026-03-29T14:17:49.922Z</time></trkpt><trkpt lat="45.6265517" lon="8.94483"><ele>229.0</ele><time>2026-03-29T14:17:52.922Z</time></trkpt><trkpt lat="45.6266267" lon="8.9447417"><ele>228.99999999999997</ele><time>2026-03-29T14:18:03.921Z</time></trkpt><trkpt lat="45.6267017" lon="8.9447217"><ele>229.0</ele><time>2026-03-29T14:18:05.921Z</time></trkpt><trkpt lat="45.6267883" lon="8.9448433"><ele>229.0</ele><time>2026-03-29T14:18:07.921Z</time></trkpt><trkpt lat="45.62685" lon="8.9449883"><ele>229.0</ele><time>2026-03-29T14:18:08.921Z</time></trkpt><trkpt lat="45.6269267" lon="8.94517"><ele>229.0</ele><time>2026-03-29T14:18:09.921Z</time></trkpt><trkpt lat="45.627025" lon="8.9453967"><ele>229.0</ele><time>2026-03-29T14:18:10.92Z</time></trkpt><trkpt lat="45.627105" lon="8.9456233"><ele>229.0</ele><time>2026-03-29T14:18:11.921Z</time></trkpt><trkpt lat="45.6272" lon="8.9458617"><ele>229.0</ele><time>2026-03-29T14:18:12.921Z</time></trkpt><trkpt lat="45.6273033" lon="8.9460817"><ele>229.0</ele><time>2026-03-29T14:18:13.921Z</time></trkpt><trkpt lat="45.627405" lon="8.94629"><ele>229.0</ele><time>2026-03-29T14:18:14.921Z</time></trkpt><trkpt lat="45.6275217" lon="8.9464917"><ele>229.0</ele><time>2026-03-29T14:18:15.921Z</time></trkpt><trkpt lat="45.62764" lon="8.946675"><ele>229.0</ele><time>2026-03-29T14:18:16.921Z</time></trkpt><trkpt lat="45.6277683" lon="8.9468533"><ele>229.0</ele><time>2026-03-29T14:18:17.921Z</time></trkpt><trkpt lat="45.62789" lon="8.9470267"><ele>229.0</ele><time>2026-03-29T14:18:18.921Z</time></trkpt><trkpt lat="45.6279817" lon="8.9472067"><ele>229.0</ele><time>2026-03-29T14:18:19.92Z</time></trkpt><trkpt lat="45.6280717" lon="8.9473667"><ele>229.0</ele><time>2026-03-29T14:18:20.921Z</time></trkpt><trkpt lat="45.6281533" lon="8.9475183"><ele>229.0</ele><time>2026-03-29T14:18:21.921Z</time></trkpt><trkpt lat="45.62822" lon="8.947655"><ele>229.0</ele><time>2026-03-29T14:18:22.921Z</time></trkpt><trkpt lat="45.6282783" lon="8.94777"><ele>228.99999999999997</ele><time>2026-03-29T14:18:23.92Z</time></trkpt><trkpt lat="45.6283233" lon="8.9478517"><ele>229.0</ele><time>2026-03-29T14:18:24.921Z</time></trkpt><trkpt lat="45.6283867" lon="8.9479683"><ele>229.0</ele><time>2026-03-29T14:18:26.921Z</time></trkpt><trkpt lat="45.628455" lon="8.9479783"><ele>229.0</ele><time>2026-03-29T14:18:28.921Z</time></trkpt><trkpt lat="45.6285033" lon="8.9478617"><ele>228.99999999999997</ele><time>2026-03-29T14:18:30.921Z</time></trkpt><trkpt lat="45.6285533" lon="8.9477883"><ele>229.0</ele><time>2026-03-29T14:18:31.921Z</time></trkpt><trkpt lat="45.6286167" lon="8.9476867"><ele>229.0</ele><time>2026-03-29T14:18:32.921Z</time></trkpt><trkpt lat="45.62869" lon="8.9475817"><ele>229.0</ele><time>2026-03-29T14:18:33.921Z</time></trkpt><trkpt lat="45.6287733" lon="8.9474583"><ele>229.0</ele><time>2026-03-29T14:18:34.921Z</time></trkpt><trkpt lat="45.6288617" lon="8.9473233"><ele>229.0</ele><time>2026-03-29T14:18:35.921Z</time></trkpt><trkpt lat="45.628955" lon="8.9471933"><ele>229.0</ele><time>2026-03-29T14:18:36.921Z</time></trkpt><trkpt lat="45.6290483" lon="8.9470567"><ele>229.0</ele><time>2026-03-29T14:18:37.921Z</time></trkpt><trkpt lat="45.6291467" lon="8.9469233"><ele>229.0</ele><time>2026-03-29T14:18:38.921Z</time></trkpt><trkpt lat="45.6292533" lon="8.9468017"><ele>229.0</ele><time>2026-03-29T14:18:39.921Z</time></trkpt><trkpt lat="45.6293583" lon="8.9466783"><ele>229.25</ele><time>2026-03-29T14:18:40.921Z</time></trkpt><trkpt lat="45.62948" lon="8.9465683"><ele>229.5</ele><time>2026-03-29T14:18:41.921Z</time></trkpt><trkpt lat="45.6296" lon="8.9464667"><ele>229.75</ele><time>2026-03-29T14:18:42.921Z</time></trkpt><trkpt lat="45.6297133" lon="8.9463633"><ele>230.0</ele><time>2026-03-29T14:18:43.921Z</time></trkpt><trkpt lat="45.6298283" lon="8.9462533"><ele>230.0</ele><time>2026-03-29T14:18:44.921Z</time></trkpt><trkpt lat="45.6299417" lon="8.9461483"><ele>230.0</ele><time>2026-03-29T14:18:45.921Z</time></trkpt><trkpt lat="45.630055" lon="8.946035"><ele>230.0</ele><time>2026-03-29T14:18:46.921Z</time></trkpt><trkpt lat="45.630165" lon="8.9459333"><ele>230.0</ele><time>2026-03-29T14:18:47.921Z</time></trkpt><trkpt lat="45.6302783" lon="8.9458317"><ele>230.5</ele><time>2026-03-29T14:18:48.921Z</time></trkpt><trkpt lat="45.630395" lon="8.9457267"><ele>231.0</ele><time>2026-03-29T14:18:49.921Z</time></trkpt><trkpt lat="45.6305083" lon="8.945615"><ele>231.5</ele><time>2026-03-29T14:18:50.921Z</time></trkpt><trkpt lat="45.6306283" lon="8.9455"><ele>232.0</ele><time>2026-03-29T14:18:51.921Z</time></trkpt><trkpt lat="45.6307483" lon="8.945375"><ele>232.0</ele><time>2026-03-29T14:18:52.921Z</time></trkpt><trkpt lat="45.6308683" lon="8.9452583"><ele>232.0</ele><time>2026-03-29T14:18:53.921Z</time></trkpt><trkpt lat="45.6309817" lon="8.9451617"><ele>232.0</ele><time>2026-03-29T14:18:54.921Z</time></trkpt><trkpt lat="45.6310783" lon="8.945065"><ele>232.0</ele><time>2026-03-29T14:18:55.921Z</time></trkpt><trkpt lat="45.631165" lon="8.9449767"><ele>232.6</ele><time>2026-03-29T14:18:56.921Z</time></trkpt><trkpt lat="45.63124" lon="8.9449083"><ele>233.2</ele><time>2026-03-29T14:18:57.921Z</time></trkpt><trkpt lat="45.6313283" lon="8.944845"><ele>233.8</ele><time>2026-03-29T14:18:58.921Z</time></trkpt><trkpt lat="45.6314267" lon="8.9447883"><ele>234.4</ele><time>2026-03-29T14:18:59.92Z</time></trkpt><trkpt lat="45.6315367" lon="8.94473"><ele>235.0</ele><time>2026-03-29T14:19:00.921Z</time></trkpt><trkpt lat="45.6316517" lon="8.9446717"><ele>235.0</ele><time>2026-03-29T14:19:01.92Z</time></trkpt><trkpt lat="45.6317683" lon="8.9446217"><ele>235.0</ele><time>2026-03-29T14:19:02.921Z</time></trkpt><trkpt lat="45.6318933" lon="8.94456"><ele>235.0</ele><time>2026-03-29T14:19:03.921Z</time></trkpt><trkpt lat="45.6320217" lon="8.9445017"><ele>235.0</ele><time>2026-03-29T14:19:04.921Z</time></trkpt><trkpt lat="45.63215" lon="8.9444483"><ele>234.5</ele><time>2026-03-29T14:19:05.921Z</time></trkpt><trkpt lat="45.6322833" lon="8.9444"><ele>234.0</ele><time>2026-03-29T14:19:06.92Z</time></trkpt><trkpt lat="45.6324183" lon="8.944345"><ele>233.5</ele><time>2026-03-29T14:19:07.921Z</time></trkpt><trkpt lat="45.6325517" lon="8.9442967"><ele>233.0</ele><time>2026-03-29T14:19:08.921Z</time></trkpt><trkpt lat="45.6326683" lon="8.9442417"><ele>232.8</ele><time>2026-03-29T14:19:09.921Z</time></trkpt><trkpt lat="45.6327767" lon="8.9441983"><ele>232.60000000000002</ele><time>2026-03-29T14:19:10.921Z</time></trkpt><trkpt lat="45.6328767" lon="8.944155"><ele>232.39999999999998</ele><time>2026-03-29T14:19:11.921Z</time></trkpt><trkpt lat="45.6329633" lon="8.9441167"><ele>232.2</ele><time>2026-03-29T14:19:12.921Z</time></trkpt><trkpt lat="45.6330383" lon="8.9440917"><ele>232.0</ele><time>2026-03-29T14:19:13.92Z</time></trkpt><trkpt lat="45.6331317" lon="8.944035"><ele>232.33333333333331</ele><time>2026-03-29T14:19:15.921Z</time></trkpt><trkpt lat="45.63314" lon="8.9439117"><ele>232.66666666666666</ele><time>2026-03-29T14:19:17.921Z</time></trkpt><trkpt lat="45.6331117" lon="8.9438283"><ele>233.0</ele><time>2026-03-29T14:19:18.921Z</time></trkpt><trkpt lat="45.63306" lon="8.9436833"><ele>233.33333333333331</ele><time>2026-03-29T14:19:20.921Z</time></trkpt><trkpt lat="45.6330283" lon="8.9435883"><ele>233.66666666666666</ele><time>2026-03-29T14:19:21.921Z</time></trkpt><trkpt lat="45.6329933" lon="8.9434867"><ele>234.0</ele><time>2026-03-29T14:19:22.921Z</time></trkpt><trkpt lat="45.6329617" lon="8.9433633"><ele>234.0</ele><time>2026-03-29T14:19:23.921Z</time></trkpt><trkpt lat="45.6329267" lon="8.9432467"><ele>234.0</ele><time>2026-03-29T14:19:24.921Z</time></trkpt><trkpt lat="45.63291" lon="8.9431333"><ele>234.0</ele><time>2026-03-29T14:19:25.921Z</time></trkpt><trkpt lat="45.6328917" lon="8.943045"><ele>234.0</ele><time>2026-03-29T14:19:26.921Z</time></trkpt><trkpt lat="45.6328483" lon="8.94291"><ele>234.0</ele><time>2026-03-29T14:19:28.921Z</time></trkpt><trkpt lat="45.6328133" lon="8.942775"><ele>234.0</ele><time>2026-03-29T14:19:30.921Z</time></trkpt><trkpt lat="45.6327883" lon="8.9426867"><ele>233.0</ele><time>2026-03-29T14:19:31.921Z</time></trkpt><trkpt lat="45.632765" lon="8.9425967"><ele>233.0</ele><time>2026-03-29T14:19:32.921Z</time></trkpt><trkpt lat="45.63272" lon="8.94245"><ele>234.0</ele><time>2026-03-29T14:19:34.921Z</time></trkpt><trkpt lat="45.6326967" lon="8.94235"><ele>234.0</ele><time>2026-03-29T14:19:56.921Z</time></trkpt><trkpt lat="45.6327467" lon="8.9422883"><ele>234.0</ele><time>2026-03-29T14:20:01.921Z</time></trkpt></trkseg></trk></gpx>